<?xml version="1.0" encoding="UTF-8"?>
<TrainingCenterDatabase xmlns="http://www.garmin.com/xmlschemas/TrainingCenterDatabase/v2" xmlns:xsi="http://www.w3.org/2001/XMLSchema-instance" xsi:schemaLocation="http://www.garmin.com/xmlschemas/TrainingCenterDatabase/v2 http://www.garmin.com/xmlschemas/TrainingCenterDatabasev2.xsd">
  <Activities>
    <Activity Sport="Other">
      <Id>2021-08-31T07:38:16.000Z</Id>
      <Lap StartTime="2021-08-31T07:38:16.000Z">
        <TotalTimeSeconds>14455</TotalTimeSeconds>
        <DistanceMeters>69870</DistanceMeters>
        <Track>
          <Trackpoint>
            <Time>2021-08-31T07:38:16.000Z</Time>
            <Position>
              <LatitudeDegrees>42.0531486533582210540771484375</LatitudeDegrees>
              <LongitudeDegrees>2.1523552201688289642333984375</LongitudeDegrees>
            </Position>
            <AltitudeMeters>783</AltitudeMeters>
            <DistanceMeters>0</DistanceMeters>
          </Trackpoint>
          <Trackpoint>
            <Time>2021-08-31T07:38:22.000Z</Time>
            <Position>
              <LatitudeDegrees>42.05294321291148662567138671875</LatitudeDegrees>
              <LongitudeDegrees>2.15237759985029697418212890625</LongitudeDegrees>
            </Position>
            <AltitudeMeters>782.20001220703125</AltitudeMeters>
            <DistanceMeters>22.940637636174</DistanceMeters>
          </Trackpoint>
          <Trackpoint>
            <Time>2021-08-31T07:38:26.000Z</Time>
            <Position>
              <LatitudeDegrees>42.05272226594388484954833984375</LatitudeDegrees>
              <LongitudeDegrees>2.15239117853343486785888671875</LongitudeDegrees>
            </Position>
            <AltitudeMeters>781.4000244140625</AltitudeMeters>
            <DistanceMeters>47.558059520501</DistanceMeters>
          </Trackpoint>
          <Trackpoint>
            <Time>2021-08-31T07:38:33.000Z</Time>
            <Position>
              <LatitudeDegrees>42.05223410390317440032958984375</LatitudeDegrees>
              <LongitudeDegrees>2.15235865674912929534912109375</LongitudeDegrees>
            </Position>
            <AltitudeMeters>779.79998779296875</AltitudeMeters>
            <DistanceMeters>101.95784492661</DistanceMeters>
          </Trackpoint>
          <Trackpoint>
            <Time>2021-08-31T07:38:36.000Z</Time>
            <Position>
              <LatitudeDegrees>42.052021957933902740478515625</LatitudeDegrees>
              <LongitudeDegrees>2.15236117132008075714111328125</LongitudeDegrees>
            </Position>
            <AltitudeMeters>779.20001220703125</AltitudeMeters>
            <DistanceMeters>125.57117083089</DistanceMeters>
          </Trackpoint>
          <Trackpoint>
            <Time>2021-08-31T07:38:38.000Z</Time>
            <Position>
              <LatitudeDegrees>42.05186898820102214813232421875</LatitudeDegrees>
              <LongitudeDegrees>2.15238891541957855224609375</LongitudeDegrees>
            </Position>
            <AltitudeMeters>778.4000244140625</AltitudeMeters>
            <DistanceMeters>142.75078137637</DistanceMeters>
          </Trackpoint>
          <Trackpoint>
            <Time>2021-08-31T07:38:41.000Z</Time>
            <Position>
              <LatitudeDegrees>42.0516300201416015625</LatitudeDegrees>
              <LongitudeDegrees>2.1524420566856861114501953125</LongitudeDegrees>
            </Position>
            <AltitudeMeters>776</AltitudeMeters>
            <DistanceMeters>169.70857231068</DistanceMeters>
          </Trackpoint>
          <Trackpoint>
            <Time>2021-08-31T07:38:43.000Z</Time>
            <Position>
              <LatitudeDegrees>42.05145592801272869110107421875</LatitudeDegrees>
              <LongitudeDegrees>2.152456976473331451416015625</LongitudeDegrees>
            </Position>
            <AltitudeMeters>775.4000244140625</AltitudeMeters>
            <DistanceMeters>189.1245090974</DistanceMeters>
          </Trackpoint>
          <Trackpoint>
            <Time>2021-08-31T07:38:49.000Z</Time>
            <Position>
              <LatitudeDegrees>42.0508758164942264556884765625</LatitudeDegrees>
              <LongitudeDegrees>2.15249578468501567840576171875</LongitudeDegrees>
            </Position>
            <AltitudeMeters>772.4000244140625</AltitudeMeters>
            <DistanceMeters>253.77159564713</DistanceMeters>
          </Trackpoint>
          <Trackpoint>
            <Time>2021-08-31T07:38:51.000Z</Time>
            <Position>
              <LatitudeDegrees>42.0506743155419826507568359375</LatitudeDegrees>
              <LongitudeDegrees>2.1524789370596408843994140625</LongitudeDegrees>
            </Position>
            <AltitudeMeters>770.5999755859375</AltitudeMeters>
            <DistanceMeters>276.24214869864</DistanceMeters>
          </Trackpoint>
          <Trackpoint>
            <Time>2021-08-31T07:38:53.000Z</Time>
            <Position>
              <LatitudeDegrees>42.050472982227802276611328125</LatitudeDegrees>
              <LongitudeDegrees>2.15241850353777408599853515625</LongitudeDegrees>
            </Position>
            <AltitudeMeters>768.4000244140625</AltitudeMeters>
            <DistanceMeters>299.20049275988</DistanceMeters>
          </Trackpoint>
          <Trackpoint>
            <Time>2021-08-31T07:38:58.000Z</Time>
            <Position>
              <LatitudeDegrees>42.04993553459644317626953125</LatitudeDegrees>
              <LongitudeDegrees>2.15232764370739459991455078125</LongitudeDegrees>
            </Position>
            <AltitudeMeters>763.79998779296875</AltitudeMeters>
            <DistanceMeters>359.48900824632</DistanceMeters>
          </Trackpoint>
          <Trackpoint>
            <Time>2021-08-31T07:39:01.000Z</Time>
            <Position>
              <LatitudeDegrees>42.049616686999797821044921875</LatitudeDegrees>
              <LongitudeDegrees>2.1523672901093959808349609375</LongitudeDegrees>
            </Position>
            <AltitudeMeters>761.20001220703125</AltitudeMeters>
            <DistanceMeters>395.12833375248</DistanceMeters>
          </Trackpoint>
          <Trackpoint>
            <Time>2021-08-31T07:39:02.000Z</Time>
            <Position>
              <LatitudeDegrees>42.04951266758143901824951171875</LatitudeDegrees>
              <LongitudeDegrees>2.15240492485463619232177734375</LongitudeDegrees>
            </Position>
            <AltitudeMeters>760.4000244140625</AltitudeMeters>
            <DistanceMeters>407.11602062398</DistanceMeters>
          </Trackpoint>
          <Trackpoint>
            <Time>2021-08-31T07:39:07.000Z</Time>
            <Position>
              <LatitudeDegrees>42.048964910209178924560546875</LatitudeDegrees>
              <LongitudeDegrees>2.152616567909717559814453125</LongitudeDegrees>
            </Position>
            <AltitudeMeters>756.4000244140625</AltitudeMeters>
            <DistanceMeters>470.54220603396</DistanceMeters>
          </Trackpoint>
          <Trackpoint>
            <Time>2021-08-31T07:39:08.000Z</Time>
            <Position>
              <LatitudeDegrees>42.04885971732437610626220703125</LatitudeDegrees>
              <LongitudeDegrees>2.1526586450636386871337890625</LongitudeDegrees>
            </Position>
            <AltitudeMeters>755.5999755859375</AltitudeMeters>
            <DistanceMeters>482.75600408593</DistanceMeters>
          </Trackpoint>
          <Trackpoint>
            <Time>2021-08-31T07:39:12.000Z</Time>
            <Position>
              <LatitudeDegrees>42.04842888750135898590087890625</LatitudeDegrees>
              <LongitudeDegrees>2.15281781740486621856689453125</LongitudeDegrees>
            </Position>
            <AltitudeMeters>752.5999755859375</AltitudeMeters>
            <DistanceMeters>532.48013415198</DistanceMeters>
          </Trackpoint>
          <Trackpoint>
            <Time>2021-08-31T07:39:13.000Z</Time>
            <Position>
              <LatitudeDegrees>42.04831422306597232818603515625</LatitudeDegrees>
              <LongitudeDegrees>2.15283357538282871246337890625</LongitudeDegrees>
            </Position>
            <AltitudeMeters>751.5999755859375</AltitudeMeters>
            <DistanceMeters>545.30874059193</DistanceMeters>
          </Trackpoint>
          <Trackpoint>
            <Time>2021-08-31T07:39:17.000Z</Time>
            <Position>
              <LatitudeDegrees>42.04785053618252277374267578125</LatitudeDegrees>
              <LongitudeDegrees>2.1528034843504428863525390625</LongitudeDegrees>
            </Position>
            <AltitudeMeters>747</AltitudeMeters>
            <DistanceMeters>596.97793818938</DistanceMeters>
          </Trackpoint>
          <Trackpoint>
            <Time>2021-08-31T07:39:18.000Z</Time>
            <Position>
              <LatitudeDegrees>42.047733776271343231201171875</LatitudeDegrees>
              <LongitudeDegrees>2.15279929339885711669921875</LongitudeDegrees>
            </Position>
            <AltitudeMeters>746.20001220703125</AltitudeMeters>
            <DistanceMeters>609.97820398378</DistanceMeters>
          </Trackpoint>
          <Trackpoint>
            <Time>2021-08-31T07:39:20.000Z</Time>
            <Position>
              <LatitudeDegrees>42.04750905744731426239013671875</LatitudeDegrees>
              <LongitudeDegrees>2.15284195728600025177001953125</LongitudeDegrees>
            </Position>
            <AltitudeMeters>744.5999755859375</AltitudeMeters>
            <DistanceMeters>635.23708402768</DistanceMeters>
          </Trackpoint>
          <Trackpoint>
            <Time>2021-08-31T07:39:22.000Z</Time>
            <Position>
              <LatitudeDegrees>42.04729800112545490264892578125</LatitudeDegrees>
              <LongitudeDegrees>2.15295192785561084747314453125</LongitudeDegrees>
            </Position>
            <AltitudeMeters>746</AltitudeMeters>
            <DistanceMeters>660.42507939849</DistanceMeters>
          </Trackpoint>
          <Trackpoint>
            <Time>2021-08-31T07:39:23.000Z</Time>
            <Position>
              <LatitudeDegrees>42.0472057163715362548828125</LatitudeDegrees>
              <LongitudeDegrees>2.1530334837734699249267578125</LongitudeDegrees>
            </Position>
            <AltitudeMeters>746.79998779296875</AltitudeMeters>
            <DistanceMeters>672.71075104316</DistanceMeters>
          </Trackpoint>
          <Trackpoint>
            <Time>2021-08-31T07:39:24.000Z</Time>
            <Position>
              <LatitudeDegrees>42.04712566919624805450439453125</LatitudeDegrees>
              <LongitudeDegrees>2.15313255786895751953125</LongitudeDegrees>
            </Position>
            <AltitudeMeters>747.4000244140625</AltitudeMeters>
            <DistanceMeters>684.81164851464</DistanceMeters>
          </Trackpoint>
          <Trackpoint>
            <Time>2021-08-31T07:39:26.000Z</Time>
            <Position>
              <LatitudeDegrees>42.04698787070810794830322265625</LatitudeDegrees>
              <LongitudeDegrees>2.1533449552953243255615234375</LongitudeDegrees>
            </Position>
            <AltitudeMeters>749.20001220703125</AltitudeMeters>
            <DistanceMeters>708.12284625832</DistanceMeters>
          </Trackpoint>
          <Trackpoint>
            <Time>2021-08-31T07:39:27.000Z</Time>
            <Position>
              <LatitudeDegrees>42.04691595397889614105224609375</LatitudeDegrees>
              <LongitudeDegrees>2.1534364856779575347900390625</LongitudeDegrees>
            </Position>
            <AltitudeMeters>749.4000244140625</AltitudeMeters>
            <DistanceMeters>719.13693028506</DistanceMeters>
          </Trackpoint>
          <Trackpoint>
            <Time>2021-08-31T07:39:29.000Z</Time>
            <Position>
              <LatitudeDegrees>42.0467475615441799163818359375</LatitudeDegrees>
              <LongitudeDegrees>2.1535206399857997894287109375</LongitudeDegrees>
            </Position>
            <AltitudeMeters>748.79998779296875</AltitudeMeters>
            <DistanceMeters>739.12870818023</DistanceMeters>
          </Trackpoint>
          <Trackpoint>
            <Time>2021-08-31T07:39:35.000Z</Time>
            <Position>
              <LatitudeDegrees>42.0462723076343536376953125</LatitudeDegrees>
              <LongitudeDegrees>2.153602279722690582275390625</LongitudeDegrees>
            </Position>
            <AltitudeMeters>747.4000244140625</AltitudeMeters>
            <DistanceMeters>792.45410702962</DistanceMeters>
          </Trackpoint>
          <Trackpoint>
            <Time>2021-08-31T07:39:38.000Z</Time>
            <Position>
              <LatitudeDegrees>42.04606653191149234771728515625</LatitudeDegrees>
              <LongitudeDegrees>2.153639160096645355224609375</LongitudeDegrees>
            </Position>
            <AltitudeMeters>747.20001220703125</AltitudeMeters>
            <DistanceMeters>815.55908612969</DistanceMeters>
          </Trackpoint>
          <Trackpoint>
            <Time>2021-08-31T07:39:39.000Z</Time>
            <Position>
              <LatitudeDegrees>42.04600685276091098785400390625</LatitudeDegrees>
              <LongitudeDegrees>2.15367511846125125885009765625</LongitudeDegrees>
            </Position>
            <AltitudeMeters>747</AltitudeMeters>
            <DistanceMeters>822.8359239228</DistanceMeters>
          </Trackpoint>
          <Trackpoint>
            <Time>2021-08-31T07:39:41.000Z</Time>
            <Position>
              <LatitudeDegrees>42.0458922721445560455322265625</LatitudeDegrees>
              <LongitudeDegrees>2.15377159416675567626953125</LongitudeDegrees>
            </Position>
            <AltitudeMeters>747</AltitudeMeters>
            <DistanceMeters>837.87718501445</DistanceMeters>
          </Trackpoint>
          <Trackpoint>
            <Time>2021-08-31T07:39:43.000Z</Time>
            <Position>
              <LatitudeDegrees>42.04578816890716552734375</LatitudeDegrees>
              <LongitudeDegrees>2.15383320115506649017333984375</LongitudeDegrees>
            </Position>
            <AltitudeMeters>747.20001220703125</AltitudeMeters>
            <DistanceMeters>850.53323084096</DistanceMeters>
          </Trackpoint>
          <Trackpoint>
            <Time>2021-08-31T07:39:44.000Z</Time>
            <Position>
              <LatitudeDegrees>42.04574030824005603790283203125</LatitudeDegrees>
              <LongitudeDegrees>2.153844349086284637451171875</LongitudeDegrees>
            </Position>
            <AltitudeMeters>747.20001220703125</AltitudeMeters>
            <DistanceMeters>855.93890631889</DistanceMeters>
          </Trackpoint>
          <Trackpoint>
            <Time>2021-08-31T07:39:47.000Z</Time>
            <Position>
              <LatitudeDegrees>42.04560250975191593170166015625</LatitudeDegrees>
              <LongitudeDegrees>2.1538542397320270538330078125</LongitudeDegrees>
            </Position>
            <AltitudeMeters>747.20001220703125</AltitudeMeters>
            <DistanceMeters>871.29799864305</DistanceMeters>
          </Trackpoint>
          <Trackpoint>
            <Time>2021-08-31T07:39:51.000Z</Time>
            <Position>
              <LatitudeDegrees>42.04546337015926837921142578125</LatitudeDegrees>
              <LongitudeDegrees>2.15401324443519115447998046875</LongitudeDegrees>
            </Position>
            <AltitudeMeters>747.79998779296875</AltitudeMeters>
            <DistanceMeters>891.6092780813</DistanceMeters>
          </Trackpoint>
          <Trackpoint>
            <Time>2021-08-31T07:39:54.000Z</Time>
            <Position>
              <LatitudeDegrees>42.0453898608684539794921875</LatitudeDegrees>
              <LongitudeDegrees>2.15410611592233180999755859375</LongitudeDegrees>
            </Position>
            <AltitudeMeters>747.79998779296875</AltitudeMeters>
            <DistanceMeters>902.82806613866</DistanceMeters>
          </Trackpoint>
          <Trackpoint>
            <Time>2021-08-31T07:39:57.000Z</Time>
            <Position>
              <LatitudeDegrees>42.04542808234691619873046875</LatitudeDegrees>
              <LongitudeDegrees>2.15409823693335056304931640625</LongitudeDegrees>
            </Position>
            <AltitudeMeters>748</AltitudeMeters>
            <DistanceMeters>907.13163289038</DistanceMeters>
          </Trackpoint>
          <Trackpoint>
            <Time>2021-08-31T07:39:59.000Z</Time>
            <Position>
              <LatitudeDegrees>42.045480720698833465576171875</LatitudeDegrees>
              <LongitudeDegrees>2.1540252305567264556884765625</LongitudeDegrees>
            </Position>
            <AltitudeMeters>747.79998779296875</AltitudeMeters>
            <DistanceMeters>915.54243658931</DistanceMeters>
          </Trackpoint>
          <Trackpoint>
            <Time>2021-08-31T07:40:01.000Z</Time>
            <Position>
              <LatitudeDegrees>42.045561857521533966064453125</LatitudeDegrees>
              <LongitudeDegrees>2.1539424173533916473388671875</LongitudeDegrees>
            </Position>
            <AltitudeMeters>747.5999755859375</AltitudeMeters>
            <DistanceMeters>926.87414815611</DistanceMeters>
          </Trackpoint>
          <Trackpoint>
            <Time>2021-08-31T07:40:03.000Z</Time>
            <Position>
              <LatitudeDegrees>42.04566990025341510772705078125</LatitudeDegrees>
              <LongitudeDegrees>2.153893299400806427001953125</LongitudeDegrees>
            </Position>
            <AltitudeMeters>747.4000244140625</AltitudeMeters>
            <DistanceMeters>939.56653027138</DistanceMeters>
          </Trackpoint>
          <Trackpoint>
            <Time>2021-08-31T07:40:04.000Z</Time>
            <Position>
              <LatitudeDegrees>42.0457316748797893524169921875</LatitudeDegrees>
              <LongitudeDegrees>2.15388835407793521881103515625</LongitudeDegrees>
            </Position>
            <AltitudeMeters>747.4000244140625</AltitudeMeters>
            <DistanceMeters>946.45449235291</DistanceMeters>
          </Trackpoint>
          <Trackpoint>
            <Time>2021-08-31T07:40:05.000Z</Time>
            <Position>
              <LatitudeDegrees>42.04578883945941925048828125</LatitudeDegrees>
              <LongitudeDegrees>2.15388022363185882568359375</LongitudeDegrees>
            </Position>
            <AltitudeMeters>747.4000244140625</AltitudeMeters>
            <DistanceMeters>952.85240892946</DistanceMeters>
          </Trackpoint>
          <Trackpoint>
            <Time>2021-08-31T07:40:07.000Z</Time>
            <Position>
              <LatitudeDegrees>42.04587106592953205108642578125</LatitudeDegrees>
              <LongitudeDegrees>2.15381191112101078033447265625</LongitudeDegrees>
            </Position>
            <AltitudeMeters>747</AltitudeMeters>
            <DistanceMeters>963.6059738705</DistanceMeters>
          </Trackpoint>
          <Trackpoint>
            <Time>2021-08-31T07:40:09.000Z</Time>
            <Position>
              <LatitudeDegrees>42.0458429865539073944091796875</LatitudeDegrees>
              <LongitudeDegrees>2.1537130884826183319091796875</LongitudeDegrees>
            </Position>
            <AltitudeMeters>747</AltitudeMeters>
            <DistanceMeters>972.35256221301</DistanceMeters>
          </Trackpoint>
          <Trackpoint>
            <Time>2021-08-31T07:40:10.000Z</Time>
            <Position>
              <LatitudeDegrees>42.04580225050449371337890625</LatitudeDegrees>
              <LongitudeDegrees>2.153667993843555450439453125</LongitudeDegrees>
            </Position>
            <AltitudeMeters>747</AltitudeMeters>
            <DistanceMeters>978.222721641</DistanceMeters>
          </Trackpoint>
          <Trackpoint>
            <Time>2021-08-31T07:40:13.000Z</Time>
            <Position>
              <LatitudeDegrees>42.04567241482436656951904296875</LatitudeDegrees>
              <LongitudeDegrees>2.1535146050155162811279296875</LongitudeDegrees>
            </Position>
            <AltitudeMeters>747</AltitudeMeters>
            <DistanceMeters>997.44679271207</DistanceMeters>
          </Trackpoint>
          <Trackpoint>
            <Time>2021-08-31T07:40:17.000Z</Time>
            <Position>
              <LatitudeDegrees>42.04549689777195453643798828125</LatitudeDegrees>
              <LongitudeDegrees>2.15335794724524021148681640625</LongitudeDegrees>
            </Position>
            <AltitudeMeters>747</AltitudeMeters>
            <DistanceMeters>1020.8839331112</DistanceMeters>
          </Trackpoint>
          <Trackpoint>
            <Time>2021-08-31T07:40:18.000Z</Time>
            <Position>
              <LatitudeDegrees>42.04545515589416027069091796875</LatitudeDegrees>
              <LongitudeDegrees>2.1533436141908168792724609375</LongitudeDegrees>
            </Position>
            <AltitudeMeters>747</AltitudeMeters>
            <DistanceMeters>1025.6787818706</DistanceMeters>
          </Trackpoint>
          <Trackpoint>
            <Time>2021-08-31T07:40:22.000Z</Time>
            <Position>
              <LatitudeDegrees>42.04531668685376644134521484375</LatitudeDegrees>
              <LongitudeDegrees>2.1532465517520904541015625</LongitudeDegrees>
            </Position>
            <AltitudeMeters>746.20001220703125</AltitudeMeters>
            <DistanceMeters>1043.0538650553</DistanceMeters>
          </Trackpoint>
          <Trackpoint>
            <Time>2021-08-31T07:40:24.000Z</Time>
            <Position>
              <LatitudeDegrees>42.0452589355409145355224609375</LatitudeDegrees>
              <LongitudeDegrees>2.1531786583364009857177734375</LongitudeDegrees>
            </Position>
            <AltitudeMeters>745.79998779296875</AltitudeMeters>
            <DistanceMeters>1051.5872428416</DistanceMeters>
          </Trackpoint>
          <Trackpoint>
            <Time>2021-08-31T07:40:28.000Z</Time>
            <Position>
              <LatitudeDegrees>42.0451405830681324005126953125</LatitudeDegrees>
              <LongitudeDegrees>2.15306692756712436676025390625</LongitudeDegrees>
            </Position>
            <AltitudeMeters>745</AltitudeMeters>
            <DistanceMeters>1067.6751280674</DistanceMeters>
          </Trackpoint>
          <Trackpoint>
            <Time>2021-08-31T07:40:33.000Z</Time>
            <Position>
              <LatitudeDegrees>42.045052237808704376220703125</LatitudeDegrees>
              <LongitudeDegrees>2.152925021946430206298828125</LongitudeDegrees>
            </Position>
            <AltitudeMeters>744.5999755859375</AltitudeMeters>
            <DistanceMeters>1082.9812151984</DistanceMeters>
          </Trackpoint>
          <Trackpoint>
            <Time>2021-08-31T07:40:39.000Z</Time>
            <Position>
              <LatitudeDegrees>42.04492114484310150146484375</LatitudeDegrees>
              <LongitudeDegrees>2.1527307294309139251708984375</LongitudeDegrees>
            </Position>
            <AltitudeMeters>744.20001220703125</AltitudeMeters>
            <DistanceMeters>1104.6791666123</DistanceMeters>
          </Trackpoint>
          <Trackpoint>
            <Time>2021-08-31T07:40:41.000Z</Time>
            <Position>
              <LatitudeDegrees>42.04486389644443988800048828125</LatitudeDegrees>
              <LongitudeDegrees>2.1526522748172283172607421875</LongitudeDegrees>
            </Position>
            <AltitudeMeters>744</AltitudeMeters>
            <DistanceMeters>1113.7709936986</DistanceMeters>
          </Trackpoint>
          <Trackpoint>
            <Time>2021-08-31T07:40:44.000Z</Time>
            <Position>
              <LatitudeDegrees>42.04475459642708301544189453125</LatitudeDegrees>
              <LongitudeDegrees>2.152535431087017059326171875</LongitudeDegrees>
            </Position>
            <AltitudeMeters>744</AltitudeMeters>
            <DistanceMeters>1129.30401055</DistanceMeters>
          </Trackpoint>
          <Trackpoint>
            <Time>2021-08-31T07:40:52.000Z</Time>
            <Position>
              <LatitudeDegrees>42.04440540634095668792724609375</LatitudeDegrees>
              <LongitudeDegrees>2.152182720601558685302734375</LongitudeDegrees>
            </Position>
            <AltitudeMeters>744.79998779296875</AltitudeMeters>
            <DistanceMeters>1177.888503471</DistanceMeters>
          </Trackpoint>
          <Trackpoint>
            <Time>2021-08-31T07:41:01.000Z</Time>
            <Position>
              <LatitudeDegrees>42.04400743357837200164794921875</LatitudeDegrees>
              <LongitudeDegrees>2.15183042921125888824462890625</LongitudeDegrees>
            </Position>
            <AltitudeMeters>744</AltitudeMeters>
            <DistanceMeters>1230.8977402873</DistanceMeters>
          </Trackpoint>
          <Trackpoint>
            <Time>2021-08-31T07:41:08.000Z</Time>
            <Position>
              <LatitudeDegrees>42.04366587102413177490234375</LatitudeDegrees>
              <LongitudeDegrees>2.15160780586302280426025390625</LongitudeDegrees>
            </Position>
            <AltitudeMeters>744.79998779296875</AltitudeMeters>
            <DistanceMeters>1273.133667427</DistanceMeters>
          </Trackpoint>
          <Trackpoint>
            <Time>2021-08-31T07:41:10.000Z</Time>
            <Position>
              <LatitudeDegrees>42.04358096234500408172607421875</LatitudeDegrees>
              <LongitudeDegrees>2.15151451528072357177734375</LongitudeDegrees>
            </Position>
            <AltitudeMeters>745.20001220703125</AltitudeMeters>
            <DistanceMeters>1285.3311892856</DistanceMeters>
          </Trackpoint>
          <Trackpoint>
            <Time>2021-08-31T07:41:18.000Z</Time>
            <Position>
              <LatitudeDegrees>42.04322456382215023040771484375</LatitudeDegrees>
              <LongitudeDegrees>2.15114772319793701171875</LongitudeDegrees>
            </Position>
            <AltitudeMeters>746.20001220703125</AltitudeMeters>
            <DistanceMeters>1335.2583009792</DistanceMeters>
          </Trackpoint>
          <Trackpoint>
            <Time>2021-08-31T07:41:25.000Z</Time>
            <Position>
              <LatitudeDegrees>42.042907811701297760009765625</LatitudeDegrees>
              <LongitudeDegrees>2.1508518420159816741943359375</LongitudeDegrees>
            </Position>
            <AltitudeMeters>746</AltitudeMeters>
            <DistanceMeters>1378.1657826741</DistanceMeters>
          </Trackpoint>
          <Trackpoint>
            <Time>2021-08-31T07:41:32.000Z</Time>
            <Position>
              <LatitudeDegrees>42.04260514117777347564697265625</LatitudeDegrees>
              <LongitudeDegrees>2.150583453476428985595703125</LongitudeDegrees>
            </Position>
            <AltitudeMeters>746.79998779296875</AltitudeMeters>
            <DistanceMeters>1418.5021324535</DistanceMeters>
          </Trackpoint>
          <Trackpoint>
            <Time>2021-08-31T07:41:35.000Z</Time>
            <Position>
              <LatitudeDegrees>42.0424701087176799774169921875</LatitudeDegrees>
              <LongitudeDegrees>2.15049318037927150726318359375</LongitudeDegrees>
            </Position>
            <AltitudeMeters>747.20001220703125</AltitudeMeters>
            <DistanceMeters>1435.2818161073</DistanceMeters>
          </Trackpoint>
          <Trackpoint>
            <Time>2021-08-31T07:41:37.000Z</Time>
            <Position>
              <LatitudeDegrees>42.04238184727728366851806640625</LatitudeDegrees>
              <LongitudeDegrees>2.15040718205273151397705078125</LongitudeDegrees>
            </Position>
            <AltitudeMeters>747.79998779296875</AltitudeMeters>
            <DistanceMeters>1447.4076865807</DistanceMeters>
          </Trackpoint>
          <Trackpoint>
            <Time>2021-08-31T07:41:43.000Z</Time>
            <Position>
              <LatitudeDegrees>42.0421569608151912689208984375</LatitudeDegrees>
              <LongitudeDegrees>2.15007576160132884979248046875</LongitudeDegrees>
            </Position>
            <AltitudeMeters>748.20001220703125</AltitudeMeters>
            <DistanceMeters>1484.5153447767</DistanceMeters>
          </Trackpoint>
          <Trackpoint>
            <Time>2021-08-31T07:41:48.000Z</Time>
            <Position>
              <LatitudeDegrees>42.0419581420719623565673828125</LatitudeDegrees>
              <LongitudeDegrees>2.1497628651559352874755859375</LongitudeDegrees>
            </Position>
            <AltitudeMeters>749.5999755859375</AltitudeMeters>
            <DistanceMeters>1518.5538820293</DistanceMeters>
          </Trackpoint>
          <Trackpoint>
            <Time>2021-08-31T07:41:49.000Z</Time>
            <Position>
              <LatitudeDegrees>42.0419164001941680908203125</LatitudeDegrees>
              <LongitudeDegrees>2.1497001685202121734619140625</LongitudeDegrees>
            </Position>
            <AltitudeMeters>750.20001220703125</AltitudeMeters>
            <DistanceMeters>1525.5142239836</DistanceMeters>
          </Trackpoint>
          <Trackpoint>
            <Time>2021-08-31T07:41:55.000Z</Time>
            <Position>
              <LatitudeDegrees>42.0416186749935150146484375</LatitudeDegrees>
              <LongitudeDegrees>2.149382494390010833740234375</LongitudeDegrees>
            </Position>
            <AltitudeMeters>749.79998779296875</AltitudeMeters>
            <DistanceMeters>1567.7941711555</DistanceMeters>
          </Trackpoint>
          <Trackpoint>
            <Time>2021-08-31T07:42:02.000Z</Time>
            <Position>
              <LatitudeDegrees>42.04127845354378223419189453125</LatitudeDegrees>
              <LongitudeDegrees>2.14896281249821186065673828125</LongitudeDegrees>
            </Position>
            <AltitudeMeters>747.20001220703125</AltitudeMeters>
            <DistanceMeters>1619.1495828147</DistanceMeters>
          </Trackpoint>
          <Trackpoint>
            <Time>2021-08-31T07:42:07.000Z</Time>
            <Position>
              <LatitudeDegrees>42.04104359261691570281982421875</LatitudeDegrees>
              <LongitudeDegrees>2.1486532688140869140625</LongitudeDegrees>
            </Position>
            <AltitudeMeters>746.4000244140625</AltitudeMeters>
            <DistanceMeters>1655.7283264626</DistanceMeters>
          </Trackpoint>
          <Trackpoint>
            <Time>2021-08-31T07:42:09.000Z</Time>
            <Position>
              <LatitudeDegrees>42.04092557542026042938232421875</LatitudeDegrees>
              <LongitudeDegrees>2.1485607326030731201171875</LongitudeDegrees>
            </Position>
            <AltitudeMeters>746.4000244140625</AltitudeMeters>
            <DistanceMeters>1670.9284427745</DistanceMeters>
          </Trackpoint>
          <Trackpoint>
            <Time>2021-08-31T07:42:11.000Z</Time>
            <Position>
              <LatitudeDegrees>42.04078962095081806182861328125</LatitudeDegrees>
              <LongitudeDegrees>2.1485230140388011932373046875</LongitudeDegrees>
            </Position>
            <AltitudeMeters>746.20001220703125</AltitudeMeters>
            <DistanceMeters>1686.3783955485</DistanceMeters>
          </Trackpoint>
          <Trackpoint>
            <Time>2021-08-31T07:42:12.000Z</Time>
            <Position>
              <LatitudeDegrees>42.0407203026115894317626953125</LatitudeDegrees>
              <LongitudeDegrees>2.1485206671059131622314453125</LongitudeDegrees>
            </Position>
            <AltitudeMeters>746</AltitudeMeters>
            <DistanceMeters>1694.0960625681</DistanceMeters>
          </Trackpoint>
          <Trackpoint>
            <Time>2021-08-31T07:42:17.000Z</Time>
            <Position>
              <LatitudeDegrees>42.0403204858303070068359375</LatitudeDegrees>
              <LongitudeDegrees>2.1485518477857112884521484375</LongitudeDegrees>
            </Position>
            <AltitudeMeters>745.4000244140625</AltitudeMeters>
            <DistanceMeters>1738.6710877543</DistanceMeters>
          </Trackpoint>
          <Trackpoint>
            <Time>2021-08-31T07:42:24.000Z</Time>
            <Position>
              <LatitudeDegrees>42.03973584808409214019775390625</LatitudeDegrees>
              <LongitudeDegrees>2.14855469763278961181640625</LongitudeDegrees>
            </Position>
            <AltitudeMeters>744</AltitudeMeters>
            <DistanceMeters>1803.7428117646</DistanceMeters>
          </Trackpoint>
          <Trackpoint>
            <Time>2021-08-31T07:42:31.000Z</Time>
            <Position>
              <LatitudeDegrees>42.03912195749580860137939453125</LatitudeDegrees>
              <LongitudeDegrees>2.14855159632861614227294921875</LongitudeDegrees>
            </Position>
            <AltitudeMeters>738</AltitudeMeters>
            <DistanceMeters>1872.0705216826</DistanceMeters>
          </Trackpoint>
          <Trackpoint>
            <Time>2021-08-31T07:42:32.000Z</Time>
            <Position>
              <LatitudeDegrees>42.03903646208345890045166015625</LatitudeDegrees>
              <LongitudeDegrees>2.148548997938632965087890625</LongitudeDegrees>
            </Position>
            <AltitudeMeters>736.79998779296875</AltitudeMeters>
            <DistanceMeters>1881.5888596133</DistanceMeters>
          </Trackpoint>
          <Trackpoint>
            <Time>2021-08-31T07:42:35.000Z</Time>
            <Position>
              <LatitudeDegrees>42.03881920315325260162353515625</LatitudeDegrees>
              <LongitudeDegrees>2.14855779893696308135986328125</LongitudeDegrees>
            </Position>
            <AltitudeMeters>735.20001220703125</AltitudeMeters>
            <DistanceMeters>1905.7809515957</DistanceMeters>
          </Trackpoint>
          <Trackpoint>
            <Time>2021-08-31T07:42:36.000Z</Time>
            <Position>
              <LatitudeDegrees>42.0387723483145236968994140625</LatitudeDegrees>
              <LongitudeDegrees>2.14855293743312358856201171875</LongitudeDegrees>
            </Position>
            <AltitudeMeters>735</AltitudeMeters>
            <DistanceMeters>1911.0117384988</DistanceMeters>
          </Trackpoint>
          <Trackpoint>
            <Time>2021-08-31T07:42:37.000Z</Time>
            <Position>
              <LatitudeDegrees>42.03873672522604465484619140625</LatitudeDegrees>
              <LongitudeDegrees>2.1485307253897190093994140625</LongitudeDegrees>
            </Position>
            <AltitudeMeters>735</AltitudeMeters>
            <DistanceMeters>1915.3809010733</DistanceMeters>
          </Trackpoint>
          <Trackpoint>
            <Time>2021-08-31T07:42:39.000Z</Time>
            <Position>
              <LatitudeDegrees>42.03870353288948535919189453125</LatitudeDegrees>
              <LongitudeDegrees>2.14845537208020687103271484375</LongitudeDegrees>
            </Position>
            <AltitudeMeters>735.20001220703125</AltitudeMeters>
            <DistanceMeters>1922.6229093574</DistanceMeters>
          </Trackpoint>
          <Trackpoint>
            <Time>2021-08-31T07:42:43.000Z</Time>
            <Position>
              <LatitudeDegrees>42.0387478731572628021240234375</LatitudeDegrees>
              <LongitudeDegrees>2.14828304015100002288818359375</LongitudeDegrees>
            </Position>
            <AltitudeMeters>735</AltitudeMeters>
            <DistanceMeters>1937.6992502321</DistanceMeters>
          </Trackpoint>
          <Trackpoint>
            <Time>2021-08-31T07:42:48.000Z</Time>
            <Position>
              <LatitudeDegrees>42.0388253219425678253173828125</LatitudeDegrees>
              <LongitudeDegrees>2.1480268053710460662841796875</LongitudeDegrees>
            </Position>
            <AltitudeMeters>737.4000244140625</AltitudeMeters>
            <DistanceMeters>1960.5673456277</DistanceMeters>
          </Trackpoint>
          <Trackpoint>
            <Time>2021-08-31T07:42:52.000Z</Time>
            <Position>
              <LatitudeDegrees>42.0389098115265369415283203125</LatitudeDegrees>
              <LongitudeDegrees>2.14788154698908329010009765625</LongitudeDegrees>
            </Position>
            <AltitudeMeters>740</AltitudeMeters>
            <DistanceMeters>1975.8190592756</DistanceMeters>
          </Trackpoint>
          <Trackpoint>
            <Time>2021-08-31T07:42:53.000Z</Time>
            <Position>
              <LatitudeDegrees>42.03891140408813953399658203125</LatitudeDegrees>
              <LongitudeDegrees>2.14786193333566188812255859375</LongitudeDegrees>
            </Position>
            <AltitudeMeters>740</AltitudeMeters>
            <DistanceMeters>1977.4539606877</DistanceMeters>
          </Trackpoint>
          <Trackpoint>
            <Time>2021-08-31T07:42:55.000Z</Time>
            <Position>
              <LatitudeDegrees>42.03889514319598674774169921875</LatitudeDegrees>
              <LongitudeDegrees>2.1478605084121227264404296875</LongitudeDegrees>
            </Position>
            <AltitudeMeters>739.79998779296875</AltitudeMeters>
            <DistanceMeters>1979.2694435166</DistanceMeters>
          </Trackpoint>
          <Trackpoint>
            <Time>2021-08-31T07:42:59.000Z</Time>
            <Position>
              <LatitudeDegrees>42.03883864916861057281494140625</LatitudeDegrees>
              <LongitudeDegrees>2.14796167798340320587158203125</LongitudeDegrees>
            </Position>
            <AltitudeMeters>738.4000244140625</AltitudeMeters>
            <DistanceMeters>1989.7318804533</DistanceMeters>
          </Trackpoint>
          <Trackpoint>
            <Time>2021-08-31T07:43:01.000Z</Time>
            <Position>
              <LatitudeDegrees>42.03879975713789463043212890625</LatitudeDegrees>
              <LongitudeDegrees>2.14805178344249725341796875</LongitudeDegrees>
            </Position>
            <AltitudeMeters>736.79998779296875</AltitudeMeters>
            <DistanceMeters>1998.3463547969</DistanceMeters>
          </Trackpoint>
          <Trackpoint>
            <Time>2021-08-31T07:43:03.000Z</Time>
            <Position>
              <LatitudeDegrees>42.03876488842070102691650390625</LatitudeDegrees>
              <LongitudeDegrees>2.1481823734939098358154296875</LongitudeDegrees>
            </Position>
            <AltitudeMeters>735.4000244140625</AltitudeMeters>
            <DistanceMeters>2009.8174608438</DistanceMeters>
          </Trackpoint>
          <Trackpoint>
            <Time>2021-08-31T07:43:06.000Z</Time>
            <Position>
              <LatitudeDegrees>42.03870973549783229827880859375</LatitudeDegrees>
              <LongitudeDegrees>2.1483878977596759796142578125</LongitudeDegrees>
            </Position>
            <AltitudeMeters>735.20001220703125</AltitudeMeters>
            <DistanceMeters>2027.8820367462</DistanceMeters>
          </Trackpoint>
          <Trackpoint>
            <Time>2021-08-31T07:43:08.000Z</Time>
            <Position>
              <LatitudeDegrees>42.0386791415512561798095703125</LatitudeDegrees>
              <LongitudeDegrees>2.14848705567419528961181640625</LongitudeDegrees>
            </Position>
            <AltitudeMeters>735</AltitudeMeters>
            <DistanceMeters>2036.7577556972</DistanceMeters>
          </Trackpoint>
          <Trackpoint>
            <Time>2021-08-31T07:43:10.000Z</Time>
            <Position>
              <LatitudeDegrees>42.038629353046417236328125</LatitudeDegrees>
              <LongitudeDegrees>2.148536927998065948486328125</LongitudeDegrees>
            </Position>
            <AltitudeMeters>735</AltitudeMeters>
            <DistanceMeters>2043.6640473054</DistanceMeters>
          </Trackpoint>
          <Trackpoint>
            <Time>2021-08-31T07:43:11.000Z</Time>
            <Position>
              <LatitudeDegrees>42.03859138302505016326904296875</LatitudeDegrees>
              <LongitudeDegrees>2.14854002930223941802978515625</LongitudeDegrees>
            </Position>
            <AltitudeMeters>735</AltitudeMeters>
            <DistanceMeters>2047.8978047076</DistanceMeters>
          </Trackpoint>
          <Trackpoint>
            <Time>2021-08-31T07:43:15.000Z</Time>
            <Position>
              <LatitudeDegrees>42.038423158228397369384765625</LatitudeDegrees>
              <LongitudeDegrees>2.14853323996067047119140625</LongitudeDegrees>
            </Position>
            <AltitudeMeters>735.20001220703125</AltitudeMeters>
            <DistanceMeters>2066.6298817537</DistanceMeters>
          </Trackpoint>
          <Trackpoint>
            <Time>2021-08-31T07:43:18.000Z</Time>
            <Position>
              <LatitudeDegrees>42.03832559287548065185546875</LatitudeDegrees>
              <LongitudeDegrees>2.1485377661883831024169921875</LongitudeDegrees>
            </Position>
            <AltitudeMeters>735.4000244140625</AltitudeMeters>
            <DistanceMeters>2077.4953876981</DistanceMeters>
          </Trackpoint>
          <Trackpoint>
            <Time>2021-08-31T07:43:23.000Z</Time>
            <Position>
              <LatitudeDegrees>42.03818569891154766082763671875</LatitudeDegrees>
              <LongitudeDegrees>2.14856701903045177459716796875</LongitudeDegrees>
            </Position>
            <AltitudeMeters>735.5999755859375</AltitudeMeters>
            <DistanceMeters>2093.2526394224</DistanceMeters>
          </Trackpoint>
          <Trackpoint>
            <Time>2021-08-31T07:43:29.000Z</Time>
            <Position>
              <LatitudeDegrees>42.03802158124744892120361328125</LatitudeDegrees>
              <LongitudeDegrees>2.14858914725482463836669921875</LongitudeDegrees>
            </Position>
            <AltitudeMeters>735.4000244140625</AltitudeMeters>
            <DistanceMeters>2111.6107578729</DistanceMeters>
          </Trackpoint>
          <Trackpoint>
            <Time>2021-08-31T07:43:32.000Z</Time>
            <Position>
              <LatitudeDegrees>42.037953101098537445068359375</LatitudeDegrees>
              <LongitudeDegrees>2.14856601320207118988037109375</LongitudeDegrees>
            </Position>
            <AltitudeMeters>735.5999755859375</AltitudeMeters>
            <DistanceMeters>2119.4687259769</DistanceMeters>
          </Trackpoint>
          <Trackpoint>
            <Time>2021-08-31T07:43:33.000Z</Time>
            <Position>
              <LatitudeDegrees>42.0379358343780040740966796875</LatitudeDegrees>
              <LongitudeDegrees>2.14856483973562717437744140625</LongitudeDegrees>
            </Position>
            <AltitudeMeters>735.5999755859375</AltitudeMeters>
            <DistanceMeters>2121.3928702911</DistanceMeters>
          </Trackpoint>
          <Trackpoint>
            <Time>2021-08-31T07:43:34.000Z</Time>
            <Position>
              <LatitudeDegrees>42.03791781328618526458740234375</LatitudeDegrees>
              <LongitudeDegrees>2.14855880476534366607666015625</LongitudeDegrees>
            </Position>
            <AltitudeMeters>735.79998779296875</AltitudeMeters>
            <DistanceMeters>2123.4617483046</DistanceMeters>
          </Trackpoint>
          <Trackpoint>
            <Time>2021-08-31T07:43:38.000Z</Time>
            <Position>
              <LatitudeDegrees>42.03783072531223297119140625</LatitudeDegrees>
              <LongitudeDegrees>2.14850910007953643798828125</LongitudeDegrees>
            </Position>
            <AltitudeMeters>736.4000244140625</AltitudeMeters>
            <DistanceMeters>2133.9895761087</DistanceMeters>
          </Trackpoint>
          <Trackpoint>
            <Time>2021-08-31T07:43:43.000Z</Time>
            <Position>
              <LatitudeDegrees>42.0377195812761783599853515625</LatitudeDegrees>
              <LongitudeDegrees>2.14846551418304443359375</LongitudeDegrees>
            </Position>
            <AltitudeMeters>737</AltitudeMeters>
            <DistanceMeters>2146.8740212013</DistanceMeters>
          </Trackpoint>
          <Trackpoint>
            <Time>2021-08-31T07:43:46.000Z</Time>
            <Position>
              <LatitudeDegrees>42.03770038671791553497314453125</LatitudeDegrees>
              <LongitudeDegrees>2.1484415419399738311767578125</LongitudeDegrees>
            </Position>
            <AltitudeMeters>737.4000244140625</AltitudeMeters>
            <DistanceMeters>2149.7874850946</DistanceMeters>
          </Trackpoint>
          <Trackpoint>
            <Time>2021-08-31T07:44:41.000Z</Time>
            <Position>
              <LatitudeDegrees>42.03767507337033748626708984375</LatitudeDegrees>
              <LongitudeDegrees>2.1484304778277873992919921875</LongitudeDegrees>
            </Position>
            <AltitudeMeters>737.5999755859375</AltitudeMeters>
            <DistanceMeters>2152.7501248472</DistanceMeters>
          </Trackpoint>
          <Trackpoint>
            <Time>2021-08-31T07:44:43.000Z</Time>
            <Position>
              <LatitudeDegrees>42.037636935710906982421875</LatitudeDegrees>
              <LongitudeDegrees>2.1483885683119297027587890625</LongitudeDegrees>
            </Position>
            <AltitudeMeters>737.79998779296875</AltitudeMeters>
            <DistanceMeters>2158.2288084573</DistanceMeters>
          </Trackpoint>
          <Trackpoint>
            <Time>2021-08-31T07:44:48.000Z</Time>
            <Position>
              <LatitudeDegrees>42.0375221036374568939208984375</LatitudeDegrees>
              <LongitudeDegrees>2.14823425747454166412353515625</LongitudeDegrees>
            </Position>
            <AltitudeMeters>738.5999755859375</AltitudeMeters>
            <DistanceMeters>2176.2863847174</DistanceMeters>
          </Trackpoint>
          <Trackpoint>
            <Time>2021-08-31T07:44:54.000Z</Time>
            <Position>
              <LatitudeDegrees>42.03733795322477817535400390625</LatitudeDegrees>
              <LongitudeDegrees>2.14799411594867706298828125</LongitudeDegrees>
            </Position>
            <AltitudeMeters>738.79998779296875</AltitudeMeters>
            <DistanceMeters>2204.820044706</DistanceMeters>
          </Trackpoint>
          <Trackpoint>
            <Time>2021-08-31T07:44:56.000Z</Time>
            <Position>
              <LatitudeDegrees>42.0372632704675197601318359375</LatitudeDegrees>
              <LongitudeDegrees>2.14793653227388858795166015625</LongitudeDegrees>
            </Position>
            <AltitudeMeters>738.5999755859375</AltitudeMeters>
            <DistanceMeters>2214.3984358376</DistanceMeters>
          </Trackpoint>
          <Trackpoint>
            <Time>2021-08-31T07:45:00.000Z</Time>
            <Position>
              <LatitudeDegrees>42.037109546363353729248046875</LatitudeDegrees>
              <LongitudeDegrees>2.14784818701446056365966796875</LongitudeDegrees>
            </Position>
            <AltitudeMeters>738.4000244140625</AltitudeMeters>
            <DistanceMeters>2233.0013562975</DistanceMeters>
          </Trackpoint>
          <Trackpoint>
            <Time>2021-08-31T07:45:06.000Z</Time>
            <Position>
              <LatitudeDegrees>42.03690729103982448577880859375</LatitudeDegrees>
              <LongitudeDegrees>2.14771960861980915069580078125</LongitudeDegrees>
            </Position>
            <AltitudeMeters>740.79998779296875</AltitudeMeters>
            <DistanceMeters>2257.8958164513</DistanceMeters>
          </Trackpoint>
          <Trackpoint>
            <Time>2021-08-31T07:45:10.000Z</Time>
            <Position>
              <LatitudeDegrees>42.0367938838899135589599609375</LatitudeDegrees>
              <LongitudeDegrees>2.147655487060546875</LongitudeDegrees>
            </Position>
            <AltitudeMeters>742.4000244140625</AltitudeMeters>
            <DistanceMeters>2271.5862608076</DistanceMeters>
          </Trackpoint>
          <Trackpoint>
            <Time>2021-08-31T07:45:17.000Z</Time>
            <Position>
              <LatitudeDegrees>42.0365746133029460906982421875</LatitudeDegrees>
              <LongitudeDegrees>2.14773335494101047515869140625</LongitudeDegrees>
            </Position>
            <AltitudeMeters>745.20001220703125</AltitudeMeters>
            <DistanceMeters>2296.8258284111</DistanceMeters>
          </Trackpoint>
          <Trackpoint>
            <Time>2021-08-31T07:45:23.000Z</Time>
            <Position>
              <LatitudeDegrees>42.0363902114331722259521484375</LatitudeDegrees>
              <LongitudeDegrees>2.14784919284284114837646484375</LongitudeDegrees>
            </Position>
            <AltitudeMeters>747.20001220703125</AltitudeMeters>
            <DistanceMeters>2319.4741056596</DistanceMeters>
          </Trackpoint>
          <Trackpoint>
            <Time>2021-08-31T07:45:29.000Z</Time>
            <Position>
              <LatitudeDegrees>42.03622148372232913970947265625</LatitudeDegrees>
              <LongitudeDegrees>2.1479436568915843963623046875</LongitudeDegrees>
            </Position>
            <AltitudeMeters>747.20001220703125</AltitudeMeters>
            <DistanceMeters>2339.8127086554</DistanceMeters>
          </Trackpoint>
          <Trackpoint>
            <Time>2021-08-31T07:45:34.000Z</Time>
            <Position>
              <LatitudeDegrees>42.0360589586198329925537109375</LatitudeDegrees>
              <LongitudeDegrees>2.1479788608849048614501953125</LongitudeDegrees>
            </Position>
            <AltitudeMeters>747.4000244140625</AltitudeMeters>
            <DistanceMeters>2358.1346379153</DistanceMeters>
          </Trackpoint>
          <Trackpoint>
            <Time>2021-08-31T07:45:37.000Z</Time>
            <Position>
              <LatitudeDegrees>42.03601486980915069580078125</LatitudeDegrees>
              <LongitudeDegrees>2.14788272045552730560302734375</LongitudeDegrees>
            </Position>
            <AltitudeMeters>748.5999755859375</AltitudeMeters>
            <DistanceMeters>2367.475333746</DistanceMeters>
          </Trackpoint>
          <Trackpoint>
            <Time>2021-08-31T07:45:41.000Z</Time>
            <Position>
              <LatitudeDegrees>42.03602802939713001251220703125</LatitudeDegrees>
              <LongitudeDegrees>2.14768809266388416290283203125</LongitudeDegrees>
            </Position>
            <AltitudeMeters>750.79998779296875</AltitudeMeters>
            <DistanceMeters>2383.6312725801</DistanceMeters>
          </Trackpoint>
          <Trackpoint>
            <Time>2021-08-31T07:45:43.000Z</Time>
            <Position>
              <LatitudeDegrees>42.0360128581523895263671875</LatitudeDegrees>
              <LongitudeDegrees>2.14757158420979976654052734375</LongitudeDegrees>
            </Position>
            <AltitudeMeters>751.5999755859375</AltitudeMeters>
            <DistanceMeters>2393.4093321723</DistanceMeters>
          </Trackpoint>
          <Trackpoint>
            <Time>2021-08-31T07:45:46.000Z</Time>
            <Position>
              <LatitudeDegrees>42.03596231527626514434814453125</LatitudeDegrees>
              <LongitudeDegrees>2.14740277267992496490478515625</LongitudeDegrees>
            </Position>
            <AltitudeMeters>752.79998779296875</AltitudeMeters>
            <DistanceMeters>2408.4556954049</DistanceMeters>
          </Trackpoint>
          <Trackpoint>
            <Time>2021-08-31T07:45:51.000Z</Time>
            <Position>
              <LatitudeDegrees>42.0358921587467193603515625</LatitudeDegrees>
              <LongitudeDegrees>2.1471198834478855133056640625</LongitudeDegrees>
            </Position>
            <AltitudeMeters>755.4000244140625</AltitudeMeters>
            <DistanceMeters>2433.1105041818</DistanceMeters>
          </Trackpoint>
          <Trackpoint>
            <Time>2021-08-31T07:45:52.000Z</Time>
            <Position>
              <LatitudeDegrees>42.0358718745410442352294921875</LatitudeDegrees>
              <LongitudeDegrees>2.147067077457904815673828125</LongitudeDegrees>
            </Position>
            <AltitudeMeters>755.5999755859375</AltitudeMeters>
            <DistanceMeters>2438.0244053215</DistanceMeters>
          </Trackpoint>
          <Trackpoint>
            <Time>2021-08-31T07:45:53.000Z</Time>
            <Position>
              <LatitudeDegrees>42.0358477346599102020263671875</LatitudeDegrees>
              <LongitudeDegrees>2.14701586402952671051025390625</LongitudeDegrees>
            </Position>
            <AltitudeMeters>755.79998779296875</AltitudeMeters>
            <DistanceMeters>2443.0383591327</DistanceMeters>
          </Trackpoint>
          <Trackpoint>
            <Time>2021-08-31T07:45:57.000Z</Time>
            <Position>
              <LatitudeDegrees>42.03571639023721218109130859375</LatitudeDegrees>
              <LongitudeDegrees>2.14682928286492824554443359375</LongitudeDegrees>
            </Position>
            <AltitudeMeters>756.4000244140625</AltitudeMeters>
            <DistanceMeters>2464.2891031893</DistanceMeters>
          </Trackpoint>
          <Trackpoint>
            <Time>2021-08-31T07:46:05.000Z</Time>
            <Position>
              <LatitudeDegrees>42.03544221818447113037109375</LatitudeDegrees>
              <LongitudeDegrees>2.146463580429553985595703125</LongitudeDegrees>
            </Position>
            <AltitudeMeters>756.79998779296875</AltitudeMeters>
            <DistanceMeters>2507.2445417305</DistanceMeters>
          </Trackpoint>
          <Trackpoint>
            <Time>2021-08-31T07:46:11.000Z</Time>
            <Position>
              <LatitudeDegrees>42.035227976739406585693359375</LatitudeDegrees>
              <LongitudeDegrees>2.14617960155010223388671875</LongitudeDegrees>
            </Position>
            <AltitudeMeters>760.20001220703125</AltitudeMeters>
            <DistanceMeters>2540.7066310092</DistanceMeters>
          </Trackpoint>
          <Trackpoint>
            <Time>2021-08-31T07:46:14.000Z</Time>
            <Position>
              <LatitudeDegrees>42.035107947885990142822265625</LatitudeDegrees>
              <LongitudeDegrees>2.146045155823230743408203125</LongitudeDegrees>
            </Position>
            <AltitudeMeters>761.79998779296875</AltitudeMeters>
            <DistanceMeters>2558.0850920075</DistanceMeters>
          </Trackpoint>
          <Trackpoint>
            <Time>2021-08-31T07:46:16.000Z</Time>
            <Position>
              <LatitudeDegrees>42.03501365147531032562255859375</LatitudeDegrees>
              <LongitudeDegrees>2.14600970037281513214111328125</LongitudeDegrees>
            </Position>
            <AltitudeMeters>762.5999755859375</AltitudeMeters>
            <DistanceMeters>2568.9825474588</DistanceMeters>
          </Trackpoint>
          <Trackpoint>
            <Time>2021-08-31T07:46:19.000Z</Time>
            <Position>
              <LatitudeDegrees>42.03490586020052433013916015625</LatitudeDegrees>
              <LongitudeDegrees>2.14607843197882175445556640625</LongitudeDegrees>
            </Position>
            <AltitudeMeters>762.20001220703125</AltitudeMeters>
            <DistanceMeters>2582.2574087313</DistanceMeters>
          </Trackpoint>
          <Trackpoint>
            <Time>2021-08-31T07:46:24.000Z</Time>
            <Position>
              <LatitudeDegrees>42.03478449024260044097900390625</LatitudeDegrees>
              <LongitudeDegrees>2.1462987922132015228271484375</LongitudeDegrees>
            </Position>
            <AltitudeMeters>762.4000244140625</AltitudeMeters>
            <DistanceMeters>2604.9363658082</DistanceMeters>
          </Trackpoint>
          <Trackpoint>
            <Time>2021-08-31T07:46:25.000Z</Time>
            <Position>
              <LatitudeDegrees>42.03475079499185085296630859375</LatitudeDegrees>
              <LongitudeDegrees>2.14634028263390064239501953125</LongitudeDegrees>
            </Position>
            <AltitudeMeters>763</AltitudeMeters>
            <DistanceMeters>2610.0182964089</DistanceMeters>
          </Trackpoint>
          <Trackpoint>
            <Time>2021-08-31T07:46:32.000Z</Time>
            <Position>
              <LatitudeDegrees>42.034509479999542236328125</LatitudeDegrees>
              <LongitudeDegrees>2.1465586312115192413330078125</LongitudeDegrees>
            </Position>
            <AltitudeMeters>766.20001220703125</AltitudeMeters>
            <DistanceMeters>2642.3790436995</DistanceMeters>
          </Trackpoint>
          <Trackpoint>
            <Time>2021-08-31T07:46:37.000Z</Time>
            <Position>
              <LatitudeDegrees>42.034339495003223419189453125</LatitudeDegrees>
              <LongitudeDegrees>2.14663180522620677947998046875</LongitudeDegrees>
            </Position>
            <AltitudeMeters>769.20001220703125</AltitudeMeters>
            <DistanceMeters>2662.2425821592</DistanceMeters>
          </Trackpoint>
          <Trackpoint>
            <Time>2021-08-31T07:46:44.000Z</Time>
            <Position>
              <LatitudeDegrees>42.03408191911876201629638671875</LatitudeDegrees>
              <LongitudeDegrees>2.14672333560883998870849609375</LongitudeDegrees>
            </Position>
            <AltitudeMeters>770.20001220703125</AltitudeMeters>
            <DistanceMeters>2691.8928966998</DistanceMeters>
          </Trackpoint>
          <Trackpoint>
            <Time>2021-08-31T07:46:51.000Z</Time>
            <Position>
              <LatitudeDegrees>42.03380363993346691131591796875</LatitudeDegrees>
              <LongitudeDegrees>2.14676105417311191558837890625</LongitudeDegrees>
            </Position>
            <AltitudeMeters>769.79998779296875</AltitudeMeters>
            <DistanceMeters>2723.0225228381</DistanceMeters>
          </Trackpoint>
          <Trackpoint>
            <Time>2021-08-31T07:46:57.000Z</Time>
            <Position>
              <LatitudeDegrees>42.033579088747501373291015625</LatitudeDegrees>
              <LongitudeDegrees>2.146776728332042694091796875</LongitudeDegrees>
            </Position>
            <AltitudeMeters>769.5999755859375</AltitudeMeters>
            <DistanceMeters>2748.0490308277</DistanceMeters>
          </Trackpoint>
          <Trackpoint>
            <Time>2021-08-31T07:47:03.000Z</Time>
            <Position>
              <LatitudeDegrees>42.03336141072213649749755859375</LatitudeDegrees>
              <LongitudeDegrees>2.14677865616977214813232421875</LongitudeDegrees>
            </Position>
            <AltitudeMeters>769.5999755859375</AltitudeMeters>
            <DistanceMeters>2772.2774888759</DistanceMeters>
          </Trackpoint>
          <Trackpoint>
            <Time>2021-08-31T07:47:05.000Z</Time>
            <Position>
              <LatitudeDegrees>42.03330843709409236907958984375</LatitudeDegrees>
              <LongitudeDegrees>2.1467316336929798126220703125</LongitudeDegrees>
            </Position>
            <AltitudeMeters>770.5999755859375</AltitudeMeters>
            <DistanceMeters>2779.3395786657</DistanceMeters>
          </Trackpoint>
          <Trackpoint>
            <Time>2021-08-31T07:47:07.000Z</Time>
            <Position>
              <LatitudeDegrees>42.0332952775061130523681640625</LatitudeDegrees>
              <LongitudeDegrees>2.14664387516677379608154296875</LongitudeDegrees>
            </Position>
            <AltitudeMeters>772.4000244140625</AltitudeMeters>
            <DistanceMeters>2786.7406896438</DistanceMeters>
          </Trackpoint>
          <Trackpoint>
            <Time>2021-08-31T07:47:13.000Z</Time>
            <Position>
              <LatitudeDegrees>42.03328295610845088958740234375</LatitudeDegrees>
              <LongitudeDegrees>2.14638956822454929351806640625</LongitudeDegrees>
            </Position>
            <AltitudeMeters>777.20001220703125</AltitudeMeters>
            <DistanceMeters>2807.8089930307</DistanceMeters>
          </Trackpoint>
          <Trackpoint>
            <Time>2021-08-31T07:47:18.000Z</Time>
            <Position>
              <LatitudeDegrees>42.03324540518224239349365234375</LatitudeDegrees>
              <LongitudeDegrees>2.146135009825229644775390625</LongitudeDegrees>
            </Position>
            <AltitudeMeters>779.79998779296875</AltitudeMeters>
            <DistanceMeters>2829.2644174488</DistanceMeters>
          </Trackpoint>
          <Trackpoint>
            <Time>2021-08-31T07:47:19.000Z</Time>
            <Position>
              <LatitudeDegrees>42.03324657864868640899658203125</LatitudeDegrees>
              <LongitudeDegrees>2.1460795216262340545654296875</LongitudeDegrees>
            </Position>
            <AltitudeMeters>780.20001220703125</AltitudeMeters>
            <DistanceMeters>2833.8533321644</DistanceMeters>
          </Trackpoint>
          <Trackpoint>
            <Time>2021-08-31T07:47:24.000Z</Time>
            <Position>
              <LatitudeDegrees>42.03331262804567813873291015625</LatitudeDegrees>
              <LongitudeDegrees>2.14585228823125362396240234375</LongitudeDegrees>
            </Position>
            <AltitudeMeters>782.20001220703125</AltitudeMeters>
            <DistanceMeters>2854.026319673</DistanceMeters>
          </Trackpoint>
          <Trackpoint>
            <Time>2021-08-31T07:47:32.000Z</Time>
            <Position>
              <LatitudeDegrees>42.03348764218389987945556640625</LatitudeDegrees>
              <LongitudeDegrees>2.1455263160169124603271484375</LongitudeDegrees>
            </Position>
            <AltitudeMeters>784</AltitudeMeters>
            <DistanceMeters>2887.277523558</DistanceMeters>
          </Trackpoint>
          <Trackpoint>
            <Time>2021-08-31T07:47:35.000Z</Time>
            <Position>
              <LatitudeDegrees>42.0335453934967517852783203125</LatitudeDegrees>
              <LongitudeDegrees>2.14539505541324615478515625</LongitudeDegrees>
            </Position>
            <AltitudeMeters>784</AltitudeMeters>
            <DistanceMeters>2899.88961286</DistanceMeters>
          </Trackpoint>
          <Trackpoint>
            <Time>2021-08-31T07:47:37.000Z</Time>
            <Position>
              <LatitudeDegrees>42.03358705155551433563232421875</LatitudeDegrees>
              <LongitudeDegrees>2.14525734074413776397705078125</LongitudeDegrees>
            </Position>
            <AltitudeMeters>783.5999755859375</AltitudeMeters>
            <DistanceMeters>2912.1822651048</DistanceMeters>
          </Trackpoint>
          <Trackpoint>
            <Time>2021-08-31T07:47:44.000Z</Time>
            <Position>
              <LatitudeDegrees>42.03371579758822917938232421875</LatitudeDegrees>
              <LongitudeDegrees>2.14475057087838649749755859375</LongitudeDegrees>
            </Position>
            <AltitudeMeters>785.20001220703125</AltitudeMeters>
            <DistanceMeters>2956.4597176798</DistanceMeters>
          </Trackpoint>
          <Trackpoint>
            <Time>2021-08-31T07:47:50.000Z</Time>
            <Position>
              <LatitudeDegrees>42.0338028855621814727783203125</LatitudeDegrees>
              <LongitudeDegrees>2.14439450763165950775146484375</LongitudeDegrees>
            </Position>
            <AltitudeMeters>787.79998779296875</AltitudeMeters>
            <DistanceMeters>2987.4502297819</DistanceMeters>
          </Trackpoint>
          <Trackpoint>
            <Time>2021-08-31T07:47:53.000Z</Time>
            <Position>
              <LatitudeDegrees>42.03383331187069416046142578125</LatitudeDegrees>
              <LongitudeDegrees>2.1442083455622196197509765625</LongitudeDegrees>
            </Position>
            <AltitudeMeters>789.5999755859375</AltitudeMeters>
            <DistanceMeters>3003.2086276132</DistanceMeters>
          </Trackpoint>
          <Trackpoint>
            <Time>2021-08-31T07:47:55.000Z</Time>
            <Position>
              <LatitudeDegrees>42.03382090665400028228759765625</LatitudeDegrees>
              <LongitudeDegrees>2.144093178212642669677734375</LongitudeDegrees>
            </Position>
            <AltitudeMeters>790.20001220703125</AltitudeMeters>
            <DistanceMeters>3012.8288798694</DistanceMeters>
          </Trackpoint>
          <Trackpoint>
            <Time>2021-08-31T07:47:57.000Z</Time>
            <Position>
              <LatitudeDegrees>42.033763490617275238037109375</LatitudeDegrees>
              <LongitudeDegrees>2.14400122873485088348388671875</LongitudeDegrees>
            </Position>
            <AltitudeMeters>790.5999755859375</AltitudeMeters>
            <DistanceMeters>3022.7599671674</DistanceMeters>
          </Trackpoint>
          <Trackpoint>
            <Time>2021-08-31T07:47:58.000Z</Time>
            <Position>
              <LatitudeDegrees>42.03372954390943050384521484375</LatitudeDegrees>
              <LongitudeDegrees>2.1439699642360210418701171875</LongitudeDegrees>
            </Position>
            <AltitudeMeters>791</AltitudeMeters>
            <DistanceMeters>3027.3390323016</DistanceMeters>
          </Trackpoint>
          <Trackpoint>
            <Time>2021-08-31T07:48:03.000Z</Time>
            <Position>
              <LatitudeDegrees>42.03358202241361141204833984375</LatitudeDegrees>
              <LongitudeDegrees>2.14381548576056957244873046875</LongitudeDegrees>
            </Position>
            <AltitudeMeters>793.79998779296875</AltitudeMeters>
            <DistanceMeters>3048.1401174389</DistanceMeters>
          </Trackpoint>
          <Trackpoint>
            <Time>2021-08-31T07:48:04.000Z</Time>
            <Position>
              <LatitudeDegrees>42.03357967548072338104248046875</LatitudeDegrees>
              <LongitudeDegrees>2.143769301474094390869140625</LongitudeDegrees>
            </Position>
            <AltitudeMeters>794.20001220703125</AltitudeMeters>
            <DistanceMeters>3051.9672291425</DistanceMeters>
          </Trackpoint>
          <Trackpoint>
            <Time>2021-08-31T07:48:06.000Z</Time>
            <Position>
              <LatitudeDegrees>42.0336064137518405914306640625</LatitudeDegrees>
              <LongitudeDegrees>2.14367668144404888153076171875</LongitudeDegrees>
            </Position>
            <AltitudeMeters>794.79998779296875</AltitudeMeters>
            <DistanceMeters>3060.1825070649</DistanceMeters>
          </Trackpoint>
          <Trackpoint>
            <Time>2021-08-31T07:48:13.000Z</Time>
            <Position>
              <LatitudeDegrees>42.0337737165391445159912109375</LatitudeDegrees>
              <LongitudeDegrees>2.143405191600322723388671875</LongitudeDegrees>
            </Position>
            <AltitudeMeters>793.79998779296875</AltitudeMeters>
            <DistanceMeters>3089.3456468101</DistanceMeters>
          </Trackpoint>
          <Trackpoint>
            <Time>2021-08-31T07:48:16.000Z</Time>
            <Position>
              <LatitudeDegrees>42.033785618841648101806640625</LatitudeDegrees>
              <LongitudeDegrees>2.1432645432651042938232421875</LongitudeDegrees>
            </Position>
            <AltitudeMeters>795</AltitudeMeters>
            <DistanceMeters>3101.0482165856</DistanceMeters>
          </Trackpoint>
          <Trackpoint>
            <Time>2021-08-31T07:48:17.000Z</Time>
            <Position>
              <LatitudeDegrees>42.03376776538789272308349609375</LatitudeDegrees>
              <LongitudeDegrees>2.1432253159582614898681640625</LongitudeDegrees>
            </Position>
            <AltitudeMeters>795.20001220703125</AltitudeMeters>
            <DistanceMeters>3104.8528469933</DistanceMeters>
          </Trackpoint>
          <Trackpoint>
            <Time>2021-08-31T07:48:19.000Z</Time>
            <Position>
              <LatitudeDegrees>42.03370548784732818603515625</LatitudeDegrees>
              <LongitudeDegrees>2.143200673162937164306640625</LongitudeDegrees>
            </Position>
            <AltitudeMeters>796.4000244140625</AltitudeMeters>
            <DistanceMeters>3112.078002488</DistanceMeters>
          </Trackpoint>
          <Trackpoint>
            <Time>2021-08-31T07:48:23.000Z</Time>
            <Position>
              <LatitudeDegrees>42.033593840897083282470703125</LatitudeDegrees>
              <LongitudeDegrees>2.143265716731548309326171875</LongitudeDegrees>
            </Position>
            <AltitudeMeters>797.79998779296875</AltitudeMeters>
            <DistanceMeters>3125.6178921466</DistanceMeters>
          </Trackpoint>
          <Trackpoint>
            <Time>2021-08-31T07:48:28.000Z</Time>
            <Position>
              <LatitudeDegrees>42.033472470939159393310546875</LatitudeDegrees>
              <LongitudeDegrees>2.14340913109481334686279296875</LongitudeDegrees>
            </Position>
            <AltitudeMeters>799</AltitudeMeters>
            <DistanceMeters>3143.5912600754</DistanceMeters>
          </Trackpoint>
          <Trackpoint>
            <Time>2021-08-31T07:48:35.000Z</Time>
            <Position>
              <LatitudeDegrees>42.033280692994594573974609375</LatitudeDegrees>
              <LongitudeDegrees>2.14358590543270111083984375</LongitudeDegrees>
            </Position>
            <AltitudeMeters>800.79998779296875</AltitudeMeters>
            <DistanceMeters>3169.4598287439</DistanceMeters>
          </Trackpoint>
          <Trackpoint>
            <Time>2021-08-31T07:48:40.000Z</Time>
            <Position>
              <LatitudeDegrees>42.03314331360161304473876953125</LatitudeDegrees>
              <LongitudeDegrees>2.14370652101933956146240234375</LongitudeDegrees>
            </Position>
            <AltitudeMeters>802</AltitudeMeters>
            <DistanceMeters>3187.7143591661</DistanceMeters>
          </Trackpoint>
          <Trackpoint>
            <Time>2021-08-31T07:48:46.000Z</Time>
            <Position>
              <LatitudeDegrees>42.032948099076747894287109375</LatitudeDegrees>
              <LongitudeDegrees>2.14377474971115589141845703125</LongitudeDegrees>
            </Position>
            <AltitudeMeters>803</AltitudeMeters>
            <DistanceMeters>3210.162195494</DistanceMeters>
          </Trackpoint>
          <Trackpoint>
            <Time>2021-08-31T07:48:52.000Z</Time>
            <Position>
              <LatitudeDegrees>42.032741568982601165771484375</LatitudeDegrees>
              <LongitudeDegrees>2.143770642578601837158203125</LongitudeDegrees>
            </Position>
            <AltitudeMeters>804.5999755859375</AltitudeMeters>
            <DistanceMeters>3233.151983972</DistanceMeters>
          </Trackpoint>
          <Trackpoint>
            <Time>2021-08-31T07:49:01.000Z</Time>
            <Position>
              <LatitudeDegrees>42.032390534877777099609375</LatitudeDegrees>
              <LongitudeDegrees>2.1437329240143299102783203125</LongitudeDegrees>
            </Position>
            <AltitudeMeters>805</AltitudeMeters>
            <DistanceMeters>3272.347019182</DistanceMeters>
          </Trackpoint>
          <Trackpoint>
            <Time>2021-08-31T07:49:06.000Z</Time>
            <Position>
              <LatitudeDegrees>42.0321744494140148162841796875</LatitudeDegrees>
              <LongitudeDegrees>2.14369914494454860687255859375</LongitudeDegrees>
            </Position>
            <AltitudeMeters>805.20001220703125</AltitudeMeters>
            <DistanceMeters>3296.5590726402</DistanceMeters>
          </Trackpoint>
          <Trackpoint>
            <Time>2021-08-31T07:49:08.000Z</Time>
            <Position>
              <LatitudeDegrees>42.03208769671618938446044921875</LatitudeDegrees>
              <LongitudeDegrees>2.1436750888824462890625</LongitudeDegrees>
            </Position>
            <AltitudeMeters>805.4000244140625</AltitudeMeters>
            <DistanceMeters>3306.4171496682</DistanceMeters>
          </Trackpoint>
          <Trackpoint>
            <Time>2021-08-31T07:49:10.000Z</Time>
            <Position>
              <LatitudeDegrees>42.0319997705519199371337890625</LatitudeDegrees>
              <LongitudeDegrees>2.14366008527576923370361328125</LongitudeDegrees>
            </Position>
            <AltitudeMeters>805.4000244140625</AltitudeMeters>
            <DistanceMeters>3316.2816366676</DistanceMeters>
          </Trackpoint>
          <Trackpoint>
            <Time>2021-08-31T07:49:13.000Z</Time>
            <Position>
              <LatitudeDegrees>42.03188485465943813323974609375</LatitudeDegrees>
              <LongitudeDegrees>2.14357852935791015625</LongitudeDegrees>
            </Position>
            <AltitudeMeters>806.79998779296875</AltitudeMeters>
            <DistanceMeters>3330.7400691441</DistanceMeters>
          </Trackpoint>
          <Trackpoint>
            <Time>2021-08-31T07:49:14.000Z</Time>
            <Position>
              <LatitudeDegrees>42.031863816082477569580078125</LatitudeDegrees>
              <LongitudeDegrees>2.14353586547076702117919921875</LongitudeDegrees>
            </Position>
            <AltitudeMeters>807.5999755859375</AltitudeMeters>
            <DistanceMeters>3334.9738265463</DistanceMeters>
          </Trackpoint>
          <Trackpoint>
            <Time>2021-08-31T07:49:16.000Z</Time>
            <Position>
              <LatitudeDegrees>42.0318452082574367523193359375</LatitudeDegrees>
              <LongitudeDegrees>2.1434308402240276336669921875</LongitudeDegrees>
            </Position>
            <AltitudeMeters>809</AltitudeMeters>
            <DistanceMeters>3343.8997642822</DistanceMeters>
          </Trackpoint>
          <Trackpoint>
            <Time>2021-08-31T07:49:17.000Z</Time>
            <Position>
              <LatitudeDegrees>42.0318334735929965972900390625</LatitudeDegrees>
              <LongitudeDegrees>2.1433778665959835052490234375</LongitudeDegrees>
            </Position>
            <AltitudeMeters>809.5999755859375</AltitudeMeters>
            <DistanceMeters>3348.4689586027</DistanceMeters>
          </Trackpoint>
          <Trackpoint>
            <Time>2021-08-31T07:49:19.000Z</Time>
            <Position>
              <LatitudeDegrees>42.03179986216127872467041015625</LatitudeDegrees>
              <LongitudeDegrees>2.14326529763638973236083984375</LongitudeDegrees>
            </Position>
            <AltitudeMeters>810.5999755859375</AltitudeMeters>
            <DistanceMeters>3358.4986670524</DistanceMeters>
          </Trackpoint>
          <Trackpoint>
            <Time>2021-08-31T07:49:21.000Z</Time>
            <Position>
              <LatitudeDegrees>42.03175015747547149658203125</LatitudeDegrees>
              <LongitudeDegrees>2.14314711280167102813720703125</LongitudeDegrees>
            </Position>
            <AltitudeMeters>810.20001220703125</AltitudeMeters>
            <DistanceMeters>3369.7271098345</DistanceMeters>
          </Trackpoint>
          <Trackpoint>
            <Time>2021-08-31T07:49:26.000Z</Time>
            <Position>
              <LatitudeDegrees>42.031643204391002655029296875</LatitudeDegrees>
              <LongitudeDegrees>2.142766825854778289794921875</LongitudeDegrees>
            </Position>
            <AltitudeMeters>808.20001220703125</AltitudeMeters>
            <DistanceMeters>3403.3445476773</DistanceMeters>
          </Trackpoint>
          <Trackpoint>
            <Time>2021-08-31T07:49:29.000Z</Time>
            <Position>
              <LatitudeDegrees>42.03161277808248996734619140625</LatitudeDegrees>
              <LongitudeDegrees>2.1424672566354274749755859375</LongitudeDegrees>
            </Position>
            <AltitudeMeters>805.79998779296875</AltitudeMeters>
            <DistanceMeters>3428.3410896274</DistanceMeters>
          </Trackpoint>
          <Trackpoint>
            <Time>2021-08-31T07:49:31.000Z</Time>
            <Position>
              <LatitudeDegrees>42.03156181611120700836181640625</LatitudeDegrees>
              <LongitudeDegrees>2.14225762523710727691650390625</LongitudeDegrees>
            </Position>
            <AltitudeMeters>804</AltitudeMeters>
            <DistanceMeters>3446.5763174838</DistanceMeters>
          </Trackpoint>
          <Trackpoint>
            <Time>2021-08-31T07:49:34.000Z</Time>
            <Position>
              <LatitudeDegrees>42.0314546115696430206298828125</LatitudeDegrees>
              <LongitudeDegrees>2.14194162748754024505615234375</LongitudeDegrees>
            </Position>
            <AltitudeMeters>801.5999755859375</AltitudeMeters>
            <DistanceMeters>3475.296717252</DistanceMeters>
          </Trackpoint>
          <Trackpoint>
            <Time>2021-08-31T07:49:35.000Z</Time>
            <Position>
              <LatitudeDegrees>42.03140339814126491546630859375</LatitudeDegrees>
              <LongitudeDegrees>2.14184875600039958953857421875</LongitudeDegrees>
            </Position>
            <AltitudeMeters>800.5999755859375</AltitudeMeters>
            <DistanceMeters>3484.8595402739</DistanceMeters>
          </Trackpoint>
          <Trackpoint>
            <Time>2021-08-31T07:49:39.000Z</Time>
            <Position>
              <LatitudeDegrees>42.03117842786014080047607421875</LatitudeDegrees>
              <LongitudeDegrees>2.14151599444448947906494140625</LongitudeDegrees>
            </Position>
            <AltitudeMeters>799.20001220703125</AltitudeMeters>
            <DistanceMeters>3522.0590703057</DistanceMeters>
          </Trackpoint>
          <Trackpoint>
            <Time>2021-08-31T07:49:40.000Z</Time>
            <Position>
              <LatitudeDegrees>42.0311176590621471405029296875</LatitudeDegrees>
              <LongitudeDegrees>2.14145329780876636505126953125</LongitudeDegrees>
            </Position>
            <AltitudeMeters>798.79998779296875</AltitudeMeters>
            <DistanceMeters>3530.5802700267</DistanceMeters>
          </Trackpoint>
          <Trackpoint>
            <Time>2021-08-31T07:49:42.000Z</Time>
            <Position>
              <LatitudeDegrees>42.03100676648318767547607421875</LatitudeDegrees>
              <LongitudeDegrees>2.14132689870893955230712890625</LongitudeDegrees>
            </Position>
            <AltitudeMeters>798.20001220703125</AltitudeMeters>
            <DistanceMeters>3546.7521305866</DistanceMeters>
          </Trackpoint>
          <Trackpoint>
            <Time>2021-08-31T07:49:43.000Z</Time>
            <Position>
              <LatitudeDegrees>42.03097122721374034881591796875</LatitudeDegrees>
              <LongitudeDegrees>2.141246683895587921142578125</LongitudeDegrees>
            </Position>
            <AltitudeMeters>798</AltitudeMeters>
            <DistanceMeters>3554.4733069661</DistanceMeters>
          </Trackpoint>
          <Trackpoint>
            <Time>2021-08-31T07:49:44.000Z</Time>
            <Position>
              <LatitudeDegrees>42.03094859607517719268798828125</LatitudeDegrees>
              <LongitudeDegrees>2.14115926064550876617431640625</LongitudeDegrees>
            </Position>
            <AltitudeMeters>797.79998779296875</AltitudeMeters>
            <DistanceMeters>3562.1275303734</DistanceMeters>
          </Trackpoint>
          <Trackpoint>
            <Time>2021-08-31T07:49:47.000Z</Time>
            <Position>
              <LatitudeDegrees>42.03090115450322628021240234375</LatitudeDegrees>
              <LongitudeDegrees>2.14089456014335155487060546875</LongitudeDegrees>
            </Position>
            <AltitudeMeters>798.20001220703125</AltitudeMeters>
            <DistanceMeters>3584.6392366639</DistanceMeters>
          </Trackpoint>
          <Trackpoint>
            <Time>2021-08-31T07:49:50.000Z</Time>
            <Position>
              <LatitudeDegrees>42.0308434031903743743896484375</LatitudeDegrees>
              <LongitudeDegrees>2.14064058847725391387939453125</LongitudeDegrees>
            </Position>
            <AltitudeMeters>798.4000244140625</AltitudeMeters>
            <DistanceMeters>3606.5980167292</DistanceMeters>
          </Trackpoint>
          <Trackpoint>
            <Time>2021-08-31T07:49:52.000Z</Time>
            <Position>
              <LatitudeDegrees>42.03083879314363002777099609375</LatitudeDegrees>
              <LongitudeDegrees>2.14046708308160305023193359375</LongitudeDegrees>
            </Position>
            <AltitudeMeters>798</AltitudeMeters>
            <DistanceMeters>3620.951769693</DistanceMeters>
          </Trackpoint>
          <Trackpoint>
            <Time>2021-08-31T07:49:54.000Z</Time>
            <Position>
              <LatitudeDegrees>42.03089319169521331787109375</LatitudeDegrees>
              <LongitudeDegrees>2.140311263501644134521484375</LongitudeDegrees>
            </Position>
            <AltitudeMeters>797.5999755859375</AltitudeMeters>
            <DistanceMeters>3635.1861244465</DistanceMeters>
          </Trackpoint>
          <Trackpoint>
            <Time>2021-08-31T07:49:55.000Z</Time>
            <Position>
              <LatitudeDegrees>42.03093669377267360687255859375</LatitudeDegrees>
              <LongitudeDegrees>2.140240184962749481201171875</LongitudeDegrees>
            </Position>
            <AltitudeMeters>796.79998779296875</AltitudeMeters>
            <DistanceMeters>3642.8001306699</DistanceMeters>
          </Trackpoint>
          <Trackpoint>
            <Time>2021-08-31T07:49:59.000Z</Time>
            <Position>
              <LatitudeDegrees>42.031106092035770416259765625</LatitudeDegrees>
              <LongitudeDegrees>2.1399272046983242034912109375</LongitudeDegrees>
            </Position>
            <AltitudeMeters>792</AltitudeMeters>
            <DistanceMeters>3674.8158139698</DistanceMeters>
          </Trackpoint>
          <Trackpoint>
            <Time>2021-08-31T07:50:00.000Z</Time>
            <Position>
              <LatitudeDegrees>42.0311347581446170806884765625</LatitudeDegrees>
              <LongitudeDegrees>2.1398601494729518890380859375</LongitudeDegrees>
            </Position>
            <AltitudeMeters>790.79998779296875</AltitudeMeters>
            <DistanceMeters>3681.2130248029</DistanceMeters>
          </Trackpoint>
          <Trackpoint>
            <Time>2021-08-31T07:50:02.000Z</Time>
            <Position>
              <LatitudeDegrees>42.0311485044658184051513671875</LatitudeDegrees>
              <LongitudeDegrees>2.139719836413860321044921875</LongitudeDegrees>
            </Position>
            <AltitudeMeters>788.79998779296875</AltitudeMeters>
            <DistanceMeters>3692.9140512128</DistanceMeters>
          </Trackpoint>
          <Trackpoint>
            <Time>2021-08-31T07:50:04.000Z</Time>
            <Position>
              <LatitudeDegrees>42.0310898311436176300048828125</LatitudeDegrees>
              <LongitudeDegrees>2.1395780146121978759765625</LongitudeDegrees>
            </Position>
            <AltitudeMeters>787.20001220703125</AltitudeMeters>
            <DistanceMeters>3706.3347033858</DistanceMeters>
          </Trackpoint>
          <Trackpoint>
            <Time>2021-08-31T07:50:05.000Z</Time>
            <Position>
              <LatitudeDegrees>42.03103157691657543182373046875</LatitudeDegrees>
              <LongitudeDegrees>2.139520011842250823974609375</LongitudeDegrees>
            </Position>
            <AltitudeMeters>786.79998779296875</AltitudeMeters>
            <DistanceMeters>3714.3991073036</DistanceMeters>
          </Trackpoint>
          <Trackpoint>
            <Time>2021-08-31T07:50:06.000Z</Time>
            <Position>
              <LatitudeDegrees>42.0309580676257610321044921875</LatitudeDegrees>
              <LongitudeDegrees>2.13948204182088375091552734375</LongitudeDegrees>
            </Position>
            <AltitudeMeters>786.5999755859375</AltitudeMeters>
            <DistanceMeters>3723.161683409</DistanceMeters>
          </Trackpoint>
          <Trackpoint>
            <Time>2021-08-31T07:50:08.000Z</Time>
            <Position>
              <LatitudeDegrees>42.0307991467416286468505859375</LatitudeDegrees>
              <LongitudeDegrees>2.13942454196512699127197265625</LongitudeDegrees>
            </Position>
            <AltitudeMeters>786.5999755859375</AltitudeMeters>
            <DistanceMeters>3741.4774509303</DistanceMeters>
          </Trackpoint>
          <Trackpoint>
            <Time>2021-08-31T07:50:10.000Z</Time>
            <Position>
              <LatitudeDegrees>42.03064148314297199249267578125</LatitudeDegrees>
              <LongitudeDegrees>2.13934826664626598358154296875</LongitudeDegrees>
            </Position>
            <AltitudeMeters>786</AltitudeMeters>
            <DistanceMeters>3760.1244915414</DistanceMeters>
          </Trackpoint>
          <Trackpoint>
            <Time>2021-08-31T07:50:13.000Z</Time>
            <Position>
              <LatitudeDegrees>42.0303909480571746826171875</LatitudeDegrees>
              <LongitudeDegrees>2.13928691111505031585693359375</LongitudeDegrees>
            </Position>
            <AltitudeMeters>785.4000244140625</AltitudeMeters>
            <DistanceMeters>3788.4671549727</DistanceMeters>
          </Trackpoint>
          <Trackpoint>
            <Time>2021-08-31T07:50:17.000Z</Time>
            <Position>
              <LatitudeDegrees>42.0300853438675403594970703125</LatitudeDegrees>
              <LongitudeDegrees>2.139143832027912139892578125</LongitudeDegrees>
            </Position>
            <AltitudeMeters>783.5999755859375</AltitudeMeters>
            <DistanceMeters>3824.4796469565</DistanceMeters>
          </Trackpoint>
          <Trackpoint>
            <Time>2021-08-31T07:50:18.000Z</Time>
            <Position>
              <LatitudeDegrees>42.0300203002989292144775390625</LatitudeDegrees>
              <LongitudeDegrees>2.13909328915178775787353515625</LongitudeDegrees>
            </Position>
            <AltitudeMeters>783.20001220703125</AltitudeMeters>
            <DistanceMeters>3832.838217495</DistanceMeters>
          </Trackpoint>
          <Trackpoint>
            <Time>2021-08-31T07:50:19.000Z</Time>
            <Position>
              <LatitudeDegrees>42.02996724285185337066650390625</LatitudeDegrees>
              <LongitudeDegrees>2.13903226889669895172119140625</LongitudeDegrees>
            </Position>
            <AltitudeMeters>782.5999755859375</AltitudeMeters>
            <DistanceMeters>3840.6048712561</DistanceMeters>
          </Trackpoint>
          <Trackpoint>
            <Time>2021-08-31T07:50:21.000Z</Time>
            <Position>
              <LatitudeDegrees>42.02991242520511150360107421875</LatitudeDegrees>
              <LongitudeDegrees>2.13887753896415233612060546875</LongitudeDegrees>
            </Position>
            <AltitudeMeters>781</AltitudeMeters>
            <DistanceMeters>3854.7778755423</DistanceMeters>
          </Trackpoint>
          <Trackpoint>
            <Time>2021-08-31T07:50:23.000Z</Time>
            <Position>
              <LatitudeDegrees>42.02991954982280731201171875</LatitudeDegrees>
              <LongitudeDegrees>2.13868643157184123992919921875</LongitudeDegrees>
            </Position>
            <AltitudeMeters>779.20001220703125</AltitudeMeters>
            <DistanceMeters>3870.5977544497</DistanceMeters>
          </Trackpoint>
          <Trackpoint>
            <Time>2021-08-31T07:50:24.000Z</Time>
            <Position>
              <LatitudeDegrees>42.02993027865886688232421875</LatitudeDegrees>
              <LongitudeDegrees>2.13858936913311481475830078125</LongitudeDegrees>
            </Position>
            <AltitudeMeters>778.5999755859375</AltitudeMeters>
            <DistanceMeters>3878.7101645184</DistanceMeters>
          </Trackpoint>
          <Trackpoint>
            <Time>2021-08-31T07:50:26.000Z</Time>
            <Position>
              <LatitudeDegrees>42.0299403369426727294921875</LatitudeDegrees>
              <LongitudeDegrees>2.138392813503742218017578125</LongitudeDegrees>
            </Position>
            <AltitudeMeters>777.20001220703125</AltitudeMeters>
            <DistanceMeters>3894.9988632411</DistanceMeters>
          </Trackpoint>
          <Trackpoint>
            <Time>2021-08-31T07:50:28.000Z</Time>
            <Position>
              <LatitudeDegrees>42.02990077435970306396484375</LatitudeDegrees>
              <LongitudeDegrees>2.13820748962461948394775390625</LongitudeDegrees>
            </Position>
            <AltitudeMeters>776</AltitudeMeters>
            <DistanceMeters>3910.9407097915</DistanceMeters>
          </Trackpoint>
          <Trackpoint>
            <Time>2021-08-31T07:50:32.000Z</Time>
            <Position>
              <LatitudeDegrees>42.029743529856204986572265625</LatitudeDegrees>
              <LongitudeDegrees>2.13786751963198184967041015625</LongitudeDegrees>
            </Position>
            <AltitudeMeters>774</AltitudeMeters>
            <DistanceMeters>3944.0512135744</DistanceMeters>
          </Trackpoint>
          <Trackpoint>
            <Time>2021-08-31T07:50:33.000Z</Time>
            <Position>
              <LatitudeDegrees>42.0297150313854217529296875</LatitudeDegrees>
              <LongitudeDegrees>2.13776978664100170135498046875</LongitudeDegrees>
            </Position>
            <AltitudeMeters>774</AltitudeMeters>
            <DistanceMeters>3952.7314761193</DistanceMeters>
          </Trackpoint>
          <Trackpoint>
            <Time>2021-08-31T07:50:34.000Z</Time>
            <Position>
              <LatitudeDegrees>42.029697932302951812744140625</LatitudeDegrees>
              <LongitudeDegrees>2.13766685687005519866943359375</LongitudeDegrees>
            </Position>
            <AltitudeMeters>774.20001220703125</AltitudeMeters>
            <DistanceMeters>3961.4511804525</DistanceMeters>
          </Trackpoint>
          <Trackpoint>
            <Time>2021-08-31T07:50:36.000Z</Time>
            <Position>
              <LatitudeDegrees>42.02970002777874469757080078125</LatitudeDegrees>
              <LongitudeDegrees>2.13744901120662689208984375</LongitudeDegrees>
            </Position>
            <AltitudeMeters>774</AltitudeMeters>
            <DistanceMeters>3979.4631927354</DistanceMeters>
          </Trackpoint>
          <Trackpoint>
            <Time>2021-08-31T07:50:40.000Z</Time>
            <Position>
              <LatitudeDegrees>42.02972969971597194671630859375</LatitudeDegrees>
              <LongitudeDegrees>2.13702698238193988800048828125</LongitudeDegrees>
            </Position>
            <AltitudeMeters>772</AltitudeMeters>
            <DistanceMeters>4014.5101477823</DistanceMeters>
          </Trackpoint>
          <Trackpoint>
            <Time>2021-08-31T07:50:41.000Z</Time>
            <Position>
              <LatitudeDegrees>42.02975065447390079498291015625</LatitudeDegrees>
              <LongitudeDegrees>2.13691684417426586151123046875</LongitudeDegrees>
            </Position>
            <AltitudeMeters>771.20001220703125</AltitudeMeters>
            <DistanceMeters>4023.910110442</DistanceMeters>
          </Trackpoint>
          <Trackpoint>
            <Time>2021-08-31T07:50:43.000Z</Time>
            <Position>
              <LatitudeDegrees>42.029819302260875701904296875</LatitudeDegrees>
              <LongitudeDegrees>2.13668684475123882293701171875</LongitudeDegrees>
            </Position>
            <AltitudeMeters>769.79998779296875</AltitudeMeters>
            <DistanceMeters>4044.4028587961</DistanceMeters>
          </Trackpoint>
          <Trackpoint>
            <Time>2021-08-31T07:50:45.000Z</Time>
            <Position>
              <LatitudeDegrees>42.029909826815128326416015625</LatitudeDegrees>
              <LongitudeDegrees>2.1364567615091800689697265625</LongitudeDegrees>
            </Position>
            <AltitudeMeters>768.20001220703125</AltitudeMeters>
            <DistanceMeters>4065.9288742808</DistanceMeters>
          </Trackpoint>
          <Trackpoint>
            <Time>2021-08-31T07:50:46.000Z</Time>
            <Position>
              <LatitudeDegrees>42.02996204607188701629638671875</LatitudeDegrees>
              <LongitudeDegrees>2.136358357965946197509765625</LongitudeDegrees>
            </Position>
            <AltitudeMeters>767.79998779296875</AltitudeMeters>
            <DistanceMeters>4075.9270214208</DistanceMeters>
          </Trackpoint>
          <Trackpoint>
            <Time>2021-08-31T07:50:48.000Z</Time>
            <Position>
              <LatitudeDegrees>42.03010219149291515350341796875</LatitudeDegrees>
              <LongitudeDegrees>2.1362411789596080780029296875</LongitudeDegrees>
            </Position>
            <AltitudeMeters>768.4000244140625</AltitudeMeters>
            <DistanceMeters>4094.2888286355</DistanceMeters>
          </Trackpoint>
          <Trackpoint>
            <Time>2021-08-31T07:50:50.000Z</Time>
            <Position>
              <LatitudeDegrees>42.0302372239530086517333984375</LatitudeDegrees>
              <LongitudeDegrees>2.13611729443073272705078125</LongitudeDegrees>
            </Position>
            <AltitudeMeters>769.79998779296875</AltitudeMeters>
            <DistanceMeters>4112.4764552067</DistanceMeters>
          </Trackpoint>
          <Trackpoint>
            <Time>2021-08-31T07:50:51.000Z</Time>
            <Position>
              <LatitudeDegrees>42.03028206713497638702392578125</LatitudeDegrees>
              <LongitudeDegrees>2.136037833988666534423828125</LongitudeDegrees>
            </Position>
            <AltitudeMeters>769</AltitudeMeters>
            <DistanceMeters>4120.7268319396</DistanceMeters>
          </Trackpoint>
          <Trackpoint>
            <Time>2021-08-31T07:50:52.000Z</Time>
            <Position>
              <LatitudeDegrees>42.0303116552531719207763671875</LatitudeDegrees>
              <LongitudeDegrees>2.135951332747936248779296875</LongitudeDegrees>
            </Position>
            <AltitudeMeters>768.20001220703125</AltitudeMeters>
            <DistanceMeters>4128.6002984435</DistanceMeters>
          </Trackpoint>
          <Trackpoint>
            <Time>2021-08-31T07:50:54.000Z</Time>
            <Position>
              <LatitudeDegrees>42.03031324781477451324462890625</LatitudeDegrees>
              <LongitudeDegrees>2.13576265610754489898681640625</LongitudeDegrees>
            </Position>
            <AltitudeMeters>765.5999755859375</AltitudeMeters>
            <DistanceMeters>4144.2000269696</DistanceMeters>
          </Trackpoint>
          <Trackpoint>
            <Time>2021-08-31T07:50:57.000Z</Time>
            <Position>
              <LatitudeDegrees>42.0302435941994190216064453125</LatitudeDegrees>
              <LongitudeDegrees>2.135514132678508758544921875</LongitudeDegrees>
            </Position>
            <AltitudeMeters>763.5999755859375</AltitudeMeters>
            <DistanceMeters>4166.1604518873</DistanceMeters>
          </Trackpoint>
          <Trackpoint>
            <Time>2021-08-31T07:50:58.000Z</Time>
            <Position>
              <LatitudeDegrees>42.0302144251763820648193359375</LatitudeDegrees>
              <LongitudeDegrees>2.13544162921607494354248046875</LongitudeDegrees>
            </Position>
            <AltitudeMeters>763</AltitudeMeters>
            <DistanceMeters>4172.9772527045</DistanceMeters>
          </Trackpoint>
          <Trackpoint>
            <Time>2021-08-31T07:51:01.000Z</Time>
            <Position>
              <LatitudeDegrees>42.03011526726186275482177734375</LatitudeDegrees>
              <LongitudeDegrees>2.13527080602943897247314453125</LongitudeDegrees>
            </Position>
            <AltitudeMeters>763.79998779296875</AltitudeMeters>
            <DistanceMeters>4190.9008126067</DistanceMeters>
          </Trackpoint>
          <Trackpoint>
            <Time>2021-08-31T07:51:07.000Z</Time>
            <Position>
              <LatitudeDegrees>42.02991980127990245819091796875</LatitudeDegrees>
              <LongitudeDegrees>2.13504709303379058837890625</LongitudeDegrees>
            </Position>
            <AltitudeMeters>766.20001220703125</AltitudeMeters>
            <DistanceMeters>4219.4556682811</DistanceMeters>
          </Trackpoint>
          <Trackpoint>
            <Time>2021-08-31T07:51:13.000Z</Time>
            <Position>
              <LatitudeDegrees>42.0297745428979396820068359375</LatitudeDegrees>
              <LongitudeDegrees>2.13484064675867557525634765625</LongitudeDegrees>
            </Position>
            <AltitudeMeters>767.5999755859375</AltitudeMeters>
            <DistanceMeters>4242.9653235084</DistanceMeters>
          </Trackpoint>
          <Trackpoint>
            <Time>2021-08-31T07:51:14.000Z</Time>
            <Position>
              <LatitudeDegrees>42.02974629588425159454345703125</LatitudeDegrees>
              <LongitudeDegrees>2.13479773141443729400634765625</LongitudeDegrees>
            </Position>
            <AltitudeMeters>767.79998779296875</AltitudeMeters>
            <DistanceMeters>4247.7061947647</DistanceMeters>
          </Trackpoint>
          <Trackpoint>
            <Time>2021-08-31T07:51:17.000Z</Time>
            <Position>
              <LatitudeDegrees>42.0296484790742397308349609375</LatitudeDegrees>
              <LongitudeDegrees>2.13463327847421169281005859375</LongitudeDegrees>
            </Position>
            <AltitudeMeters>768.5999755859375</AltitudeMeters>
            <DistanceMeters>4265.1243608095</DistanceMeters>
          </Trackpoint>
          <Trackpoint>
            <Time>2021-08-31T07:51:21.000Z</Time>
            <Position>
              <LatitudeDegrees>42.02951294369995594024658203125</LatitudeDegrees>
              <LongitudeDegrees>2.1343683265149593353271484375</LongitudeDegrees>
            </Position>
            <AltitudeMeters>768.79998779296875</AltitudeMeters>
            <DistanceMeters>4291.7213179375</DistanceMeters>
          </Trackpoint>
          <Trackpoint>
            <Time>2021-08-31T07:51:24.000Z</Time>
            <Position>
              <LatitudeDegrees>42.029394172132015228271484375</LatitudeDegrees>
              <LongitudeDegrees>2.1341825835406780242919921875</LongitudeDegrees>
            </Position>
            <AltitudeMeters>767.20001220703125</AltitudeMeters>
            <DistanceMeters>4311.9836340835</DistanceMeters>
          </Trackpoint>
          <Trackpoint>
            <Time>2021-08-31T07:51:29.000Z</Time>
            <Position>
              <LatitudeDegrees>42.02916643582284450531005859375</LatitudeDegrees>
              <LongitudeDegrees>2.13390254415571689605712890625</LongitudeDegrees>
            </Position>
            <AltitudeMeters>765</AltitudeMeters>
            <DistanceMeters>4346.313407413</DistanceMeters>
          </Trackpoint>
          <Trackpoint>
            <Time>2021-08-31T07:51:31.000Z</Time>
            <Position>
              <LatitudeDegrees>42.02905948273837566375732421875</LatitudeDegrees>
              <LongitudeDegrees>2.13383129797875881195068359375</LongitudeDegrees>
            </Position>
            <AltitudeMeters>764</AltitudeMeters>
            <DistanceMeters>4359.595409273</DistanceMeters>
          </Trackpoint>
          <Trackpoint>
            <Time>2021-08-31T07:51:33.000Z</Time>
            <Position>
              <LatitudeDegrees>42.0289386995136737823486328125</LatitudeDegrees>
              <LongitudeDegrees>2.1338047273457050323486328125</LongitudeDegrees>
            </Position>
            <AltitudeMeters>764</AltitudeMeters>
            <DistanceMeters>4373.2174150302</DistanceMeters>
          </Trackpoint>
          <Trackpoint>
            <Time>2021-08-31T07:51:36.000Z</Time>
            <Position>
              <LatitudeDegrees>42.0287690497934818267822265625</LatitudeDegrees>
              <LongitudeDegrees>2.13384755887091159820556640625</LongitudeDegrees>
            </Position>
            <AltitudeMeters>764</AltitudeMeters>
            <DistanceMeters>4392.4290342876</DistanceMeters>
          </Trackpoint>
          <Trackpoint>
            <Time>2021-08-31T07:51:37.000Z</Time>
            <Position>
              <LatitudeDegrees>42.0287194289267063140869140625</LatitudeDegrees>
              <LongitudeDegrees>2.13387429714202880859375</LongitudeDegrees>
            </Position>
            <AltitudeMeters>764.4000244140625</AltitudeMeters>
            <DistanceMeters>4398.3771297397</DistanceMeters>
          </Trackpoint>
          <Trackpoint>
            <Time>2021-08-31T07:51:40.000Z</Time>
            <Position>
              <LatitudeDegrees>42.02857903204858303070068359375</LatitudeDegrees>
              <LongitudeDegrees>2.13394680060446262359619140625</LongitudeDegrees>
            </Position>
            <AltitudeMeters>766</AltitudeMeters>
            <DistanceMeters>4415.113705593</DistanceMeters>
          </Trackpoint>
          <Trackpoint>
            <Time>2021-08-31T07:51:43.000Z</Time>
            <Position>
              <LatitudeDegrees>42.0284475199878215789794921875</LatitudeDegrees>
              <LongitudeDegrees>2.13402651250362396240234375</LongitudeDegrees>
            </Position>
            <AltitudeMeters>767.20001220703125</AltitudeMeters>
            <DistanceMeters>4431.1664714444</DistanceMeters>
          </Trackpoint>
          <Trackpoint>
            <Time>2021-08-31T07:51:46.000Z</Time>
            <Position>
              <LatitudeDegrees>42.02832757495343685150146484375</LatitudeDegrees>
              <LongitudeDegrees>2.1341275982558727264404296875</LongitudeDegrees>
            </Position>
            <AltitudeMeters>769.20001220703125</AltitudeMeters>
            <DistanceMeters>4446.9168447755</DistanceMeters>
          </Trackpoint>
          <Trackpoint>
            <Time>2021-08-31T07:51:48.000Z</Time>
            <Position>
              <LatitudeDegrees>42.0282560773193836212158203125</LatitudeDegrees>
              <LongitudeDegrees>2.1341996826231479644775390625</LongitudeDegrees>
            </Position>
            <AltitudeMeters>770</AltitudeMeters>
            <DistanceMeters>4456.8583832218</DistanceMeters>
          </Trackpoint>
          <Trackpoint>
            <Time>2021-08-31T07:51:49.000Z</Time>
            <Position>
              <LatitudeDegrees>42.02821710146963596343994140625</LatitudeDegrees>
              <LongitudeDegrees>2.13423027656972408294677734375</LongitudeDegrees>
            </Position>
            <AltitudeMeters>770.20001220703125</AltitudeMeters>
            <DistanceMeters>4461.8795358217</DistanceMeters>
          </Trackpoint>
          <Trackpoint>
            <Time>2021-08-31T07:51:53.000Z</Time>
            <Position>
              <LatitudeDegrees>42.0280627906322479248046875</LatitudeDegrees>
              <LongitudeDegrees>2.1343716792762279510498046875</LongitudeDegrees>
            </Position>
            <AltitudeMeters>771.5999755859375</AltitudeMeters>
            <DistanceMeters>4482.6556443143</DistanceMeters>
          </Trackpoint>
          <Trackpoint>
            <Time>2021-08-31T07:51:56.000Z</Time>
            <Position>
              <LatitudeDegrees>42.02795927412807941436767578125</LatitudeDegrees>
              <LongitudeDegrees>2.13449380360543727874755859375</LongitudeDegrees>
            </Position>
            <AltitudeMeters>772.20001220703125</AltitudeMeters>
            <DistanceMeters>4497.9752946621</DistanceMeters>
          </Trackpoint>
          <Trackpoint>
            <Time>2021-08-31T07:52:03.000Z</Time>
            <Position>
              <LatitudeDegrees>42.02769842930138111114501953125</LatitudeDegrees>
              <LongitudeDegrees>2.13475607335567474365234375</LongitudeDegrees>
            </Position>
            <AltitudeMeters>774.4000244140625</AltitudeMeters>
            <DistanceMeters>4534.2116361689</DistanceMeters>
          </Trackpoint>
          <Trackpoint>
            <Time>2021-08-31T07:52:11.000Z</Time>
            <Position>
              <LatitudeDegrees>42.02738896943628787994384765625</LatitudeDegrees>
              <LongitudeDegrees>2.13495883159339427947998046875</LongitudeDegrees>
            </Position>
            <AltitudeMeters>776.79998779296875</AltitudeMeters>
            <DistanceMeters>4572.5178936472</DistanceMeters>
          </Trackpoint>
          <Trackpoint>
            <Time>2021-08-31T07:52:17.000Z</Time>
            <Position>
              <LatitudeDegrees>42.027196772396564483642578125</LatitudeDegrees>
              <LongitudeDegrees>2.1351263858377933502197265625</LongitudeDegrees>
            </Position>
            <AltitudeMeters>778.79998779296875</AltitudeMeters>
            <DistanceMeters>4598.0034844479</DistanceMeters>
          </Trackpoint>
          <Trackpoint>
            <Time>2021-08-31T07:52:24.000Z</Time>
            <Position>
              <LatitudeDegrees>42.0269890688359737396240234375</LatitudeDegrees>
              <LongitudeDegrees>2.1353396214544773101806640625</LongitudeDegrees>
            </Position>
            <AltitudeMeters>782.20001220703125</AltitudeMeters>
            <DistanceMeters>4627.0766899035</DistanceMeters>
          </Trackpoint>
          <Trackpoint>
            <Time>2021-08-31T07:52:30.000Z</Time>
            <Position>
              <LatitudeDegrees>42.02676066197454929351806640625</LatitudeDegrees>
              <LongitudeDegrees>2.135421931743621826171875</LongitudeDegrees>
            </Position>
            <AltitudeMeters>784.79998779296875</AltitudeMeters>
            <DistanceMeters>4653.3937718675</DistanceMeters>
          </Trackpoint>
          <Trackpoint>
            <Time>2021-08-31T07:52:31.000Z</Time>
            <Position>
              <LatitudeDegrees>42.02672176994383335113525390625</LatitudeDegrees>
              <LongitudeDegrees>2.13543877936899662017822265625</LongitudeDegrees>
            </Position>
            <AltitudeMeters>784.79998779296875</AltitudeMeters>
            <DistanceMeters>4657.9411749788</DistanceMeters>
          </Trackpoint>
          <Trackpoint>
            <Time>2021-08-31T07:52:36.000Z</Time>
            <Position>
              <LatitudeDegrees>42.026540301740169525146484375</LatitudeDegrees>
              <LongitudeDegrees>2.1355505101382732391357421875</LongitudeDegrees>
            </Position>
            <AltitudeMeters>785</AltitudeMeters>
            <DistanceMeters>4680.1512174349</DistanceMeters>
          </Trackpoint>
          <Trackpoint>
            <Time>2021-08-31T07:52:41.000Z</Time>
            <Position>
              <LatitudeDegrees>42.02635757625102996826171875</LatitudeDegrees>
              <LongitudeDegrees>2.135656289756298065185546875</LongitudeDegrees>
            </Position>
            <AltitudeMeters>785.4000244140625</AltitudeMeters>
            <DistanceMeters>4702.2895868192</DistanceMeters>
          </Trackpoint>
          <Trackpoint>
            <Time>2021-08-31T07:52:49.000Z</Time>
            <Position>
              <LatitudeDegrees>42.02607317827641963958740234375</LatitudeDegrees>
              <LongitudeDegrees>2.13581697084009647369384765625</LongitudeDegrees>
            </Position>
            <AltitudeMeters>788.5999755859375</AltitudeMeters>
            <DistanceMeters>4736.6185710221</DistanceMeters>
          </Trackpoint>
          <Trackpoint>
            <Time>2021-08-31T07:52:55.000Z</Time>
            <Position>
              <LatitudeDegrees>42.02588290907442569732666015625</LatitudeDegrees>
              <LongitudeDegrees>2.1359605528414249420166015625</LongitudeDegrees>
            </Position>
            <AltitudeMeters>792.4000244140625</AltitudeMeters>
            <DistanceMeters>4760.8963623065</DistanceMeters>
          </Trackpoint>
          <Trackpoint>
            <Time>2021-08-31T07:53:02.000Z</Time>
            <Position>
              <LatitudeDegrees>42.02566129155457019805908203125</LatitudeDegrees>
              <LongitudeDegrees>2.136169262230396270751953125</LongitudeDegrees>
            </Position>
            <AltitudeMeters>795.20001220703125</AltitudeMeters>
            <DistanceMeters>4790.9995895663</DistanceMeters>
          </Trackpoint>
          <Trackpoint>
            <Time>2021-08-31T07:53:09.000Z</Time>
            <Position>
              <LatitudeDegrees>42.02546364627778530120849609375</LatitudeDegrees>
              <LongitudeDegrees>2.1364071406424045562744140625</LongitudeDegrees>
            </Position>
            <AltitudeMeters>795.5999755859375</AltitudeMeters>
            <DistanceMeters>4820.5081003952</DistanceMeters>
          </Trackpoint>
          <Trackpoint>
            <Time>2021-08-31T07:53:15.000Z</Time>
            <Position>
              <LatitudeDegrees>42.0252759754657745361328125</LatitudeDegrees>
              <LongitudeDegrees>2.13655809871852397918701171875</LongitudeDegrees>
            </Position>
            <AltitudeMeters>797.4000244140625</AltitudeMeters>
            <DistanceMeters>4844.8412488235</DistanceMeters>
          </Trackpoint>
          <Trackpoint>
            <Time>2021-08-31T07:53:22.000Z</Time>
            <Position>
              <LatitudeDegrees>42.0250183157622814178466796875</LatitudeDegrees>
              <LongitudeDegrees>2.13674736209213733673095703125</LongitudeDegrees>
            </Position>
            <AltitudeMeters>798</AltitudeMeters>
            <DistanceMeters>4877.5108196076</DistanceMeters>
          </Trackpoint>
          <Trackpoint>
            <Time>2021-08-31T07:53:27.000Z</Time>
            <Position>
              <LatitudeDegrees>42.02487842179834842681884765625</LatitudeDegrees>
              <LongitudeDegrees>2.136843837797641754150390625</LongitudeDegrees>
            </Position>
            <AltitudeMeters>799.79998779296875</AltitudeMeters>
            <DistanceMeters>4895.0058029191</DistanceMeters>
          </Trackpoint>
          <Trackpoint>
            <Time>2021-08-31T07:53:30.000Z</Time>
            <Position>
              <LatitudeDegrees>42.02486735768616199493408203125</LatitudeDegrees>
              <LongitudeDegrees>2.1368554048240184783935546875</LongitudeDegrees>
            </Position>
            <AltitudeMeters>800</AltitudeMeters>
            <DistanceMeters>4896.5672511698</DistanceMeters>
          </Trackpoint>
          <Trackpoint>
            <Time>2021-08-31T07:53:32.000Z</Time>
            <Position>
              <LatitudeDegrees>42.02486735768616199493408203125</LatitudeDegrees>
              <LongitudeDegrees>2.1368554048240184783935546875</LongitudeDegrees>
            </Position>
            <AltitudeMeters>800</AltitudeMeters>
            <DistanceMeters>4896.5672511698</DistanceMeters>
          </Trackpoint>
          <Trackpoint>
            <Time>2021-08-31T07:53:59.000Z</Time>
            <Position>
              <LatitudeDegrees>42.02480985783040523529052734375</LatitudeDegrees>
              <LongitudeDegrees>2.13689471594989299774169921875</LongitudeDegrees>
            </Position>
            <AltitudeMeters>800.4000244140625</AltitudeMeters>
            <DistanceMeters>4903.7453857596</DistanceMeters>
          </Trackpoint>
          <Trackpoint>
            <Time>2021-08-31T07:54:00.000Z</Time>
            <Position>
              <LatitudeDegrees>42.02478286810219287872314453125</LatitudeDegrees>
              <LongitudeDegrees>2.1369020082056522369384765625</LongitudeDegrees>
            </Position>
            <AltitudeMeters>800.79998779296875</AltitudeMeters>
            <DistanceMeters>4906.8099052165</DistanceMeters>
          </Trackpoint>
          <Trackpoint>
            <Time>2021-08-31T07:54:04.000Z</Time>
            <Position>
              <LatitudeDegrees>42.02467675320804119110107421875</LatitudeDegrees>
              <LongitudeDegrees>2.13694768957793712615966796875</LongitudeDegrees>
            </Position>
            <AltitudeMeters>802.20001220703125</AltitudeMeters>
            <DistanceMeters>4919.210072219</DistanceMeters>
          </Trackpoint>
          <Trackpoint>
            <Time>2021-08-31T07:54:09.000Z</Time>
            <Position>
              <LatitudeDegrees>42.0245076902210712432861328125</LatitudeDegrees>
              <LongitudeDegrees>2.136945426464080810546875</LongitudeDegrees>
            </Position>
            <AltitudeMeters>804.79998779296875</AltitudeMeters>
            <DistanceMeters>4938.02800111</DistanceMeters>
          </Trackpoint>
          <Trackpoint>
            <Time>2021-08-31T07:54:12.000Z</Time>
            <Position>
              <LatitudeDegrees>42.0243953727185726165771484375</LatitudeDegrees>
              <LongitudeDegrees>2.1368835680186748504638671875</LongitudeDegrees>
            </Position>
            <AltitudeMeters>806.20001220703125</AltitudeMeters>
            <DistanceMeters>4951.53483769</DistanceMeters>
          </Trackpoint>
          <Trackpoint>
            <Time>2021-08-31T07:54:14.000Z</Time>
            <Position>
              <LatitudeDegrees>42.02432186342775821685791015625</LatitudeDegrees>
              <LongitudeDegrees>2.13682430796325206756591796875</LongitudeDegrees>
            </Position>
            <AltitudeMeters>806.5999755859375</AltitudeMeters>
            <DistanceMeters>4961.0716573875</DistanceMeters>
          </Trackpoint>
          <Trackpoint>
            <Time>2021-08-31T07:54:16.000Z</Time>
            <Position>
              <LatitudeDegrees>42.02424005605280399322509765625</LatitudeDegrees>
              <LongitudeDegrees>2.13677485473453998565673828125</LongitudeDegrees>
            </Position>
            <AltitudeMeters>806</AltitudeMeters>
            <DistanceMeters>4971.0526294509</DistanceMeters>
          </Trackpoint>
          <Trackpoint>
            <Time>2021-08-31T07:54:18.000Z</Time>
            <Position>
              <LatitudeDegrees>42.024142742156982421875</LatitudeDegrees>
              <LongitudeDegrees>2.13677468709647655487060546875</LongitudeDegrees>
            </Position>
            <AltitudeMeters>805.5999755859375</AltitudeMeters>
            <DistanceMeters>4981.8840076254</DistanceMeters>
          </Trackpoint>
          <Trackpoint>
            <Time>2021-08-31T07:54:20.000Z</Time>
            <Position>
              <LatitudeDegrees>42.02404492534697055816650390625</LatitudeDegrees>
              <LongitudeDegrees>2.13683922775089740753173828125</LongitudeDegrees>
            </Position>
            <AltitudeMeters>806</AltitudeMeters>
            <DistanceMeters>4994.0095057455</DistanceMeters>
          </Trackpoint>
          <Trackpoint>
            <Time>2021-08-31T07:54:22.000Z</Time>
            <Position>
              <LatitudeDegrees>42.02394132502377033233642578125</LatitudeDegrees>
              <LongitudeDegrees>2.13693897239863872528076171875</LongitudeDegrees>
            </Position>
            <AltitudeMeters>806</AltitudeMeters>
            <DistanceMeters>5008.1863323091</DistanceMeters>
          </Trackpoint>
          <Trackpoint>
            <Time>2021-08-31T07:54:27.000Z</Time>
            <Position>
              <LatitudeDegrees>42.0236872695386409759521484375</LatitudeDegrees>
              <LongitudeDegrees>2.13720233179628849029541015625</LongitudeDegrees>
            </Position>
            <AltitudeMeters>807.79998779296875</AltitudeMeters>
            <DistanceMeters>5043.8759171047</DistanceMeters>
          </Trackpoint>
          <Trackpoint>
            <Time>2021-08-31T07:54:31.000Z</Time>
            <Position>
              <LatitudeDegrees>42.023527510464191436767578125</LatitudeDegrees>
              <LongitudeDegrees>2.137374244630336761474609375</LongitudeDegrees>
            </Position>
            <AltitudeMeters>809.79998779296875</AltitudeMeters>
            <DistanceMeters>5066.6403197317</DistanceMeters>
          </Trackpoint>
          <Trackpoint>
            <Time>2021-08-31T07:54:32.000Z</Time>
            <Position>
              <LatitudeDegrees>42.02348451130092144012451171875</LatitudeDegrees>
              <LongitudeDegrees>2.13741120882332324981689453125</LongitudeDegrees>
            </Position>
            <AltitudeMeters>810.20001220703125</AltitudeMeters>
            <DistanceMeters>5072.3189113689</DistanceMeters>
          </Trackpoint>
          <Trackpoint>
            <Time>2021-08-31T07:54:34.000Z</Time>
            <Position>
              <LatitudeDegrees>42.02338878996670246124267578125</LatitudeDegrees>
              <LongitudeDegrees>2.13747625239193439483642578125</LongitudeDegrees>
            </Position>
            <AltitudeMeters>811</AltitudeMeters>
            <DistanceMeters>5084.2529955681</DistanceMeters>
          </Trackpoint>
          <Trackpoint>
            <Time>2021-08-31T07:54:36.000Z</Time>
            <Position>
              <LatitudeDegrees>42.0232884585857391357421875</LatitudeDegrees>
              <LongitudeDegrees>2.13751045055687427520751953125</LongitudeDegrees>
            </Position>
            <AltitudeMeters>810.5999755859375</AltitudeMeters>
            <DistanceMeters>5095.7720208423</DistanceMeters>
          </Trackpoint>
          <Trackpoint>
            <Time>2021-08-31T07:54:37.000Z</Time>
            <Position>
              <LatitudeDegrees>42.02323741279542446136474609375</LatitudeDegrees>
              <LongitudeDegrees>2.13751782663166522979736328125</LongitudeDegrees>
            </Position>
            <AltitudeMeters>810</AltitudeMeters>
            <DistanceMeters>5101.4846993969</DistanceMeters>
          </Trackpoint>
          <Trackpoint>
            <Time>2021-08-31T07:54:38.000Z</Time>
            <Position>
              <LatitudeDegrees>42.0231877081096172332763671875</LatitudeDegrees>
              <LongitudeDegrees>2.13752956129610538482666015625</LongitudeDegrees>
            </Position>
            <AltitudeMeters>809.5999755859375</AltitudeMeters>
            <DistanceMeters>5107.1017348334</DistanceMeters>
          </Trackpoint>
          <Trackpoint>
            <Time>2021-08-31T07:54:40.000Z</Time>
            <Position>
              <LatitudeDegrees>42.02309927903115749359130859375</LatitudeDegrees>
              <LongitudeDegrees>2.13757063262164592742919921875</LongitudeDegrees>
            </Position>
            <AltitudeMeters>809.5999755859375</AltitudeMeters>
            <DistanceMeters>5117.5131246366</DistanceMeters>
          </Trackpoint>
          <Trackpoint>
            <Time>2021-08-31T07:54:41.000Z</Time>
            <Position>
              <LatitudeDegrees>42.02306122519075870513916015625</LatitudeDegrees>
              <LongitudeDegrees>2.13760784827172756195068359375</LongitudeDegrees>
            </Position>
            <AltitudeMeters>810.20001220703125</AltitudeMeters>
            <DistanceMeters>5122.7490879752</DistanceMeters>
          </Trackpoint>
          <Trackpoint>
            <Time>2021-08-31T07:54:43.000Z</Time>
            <Position>
              <LatitudeDegrees>42.022983692586421966552734375</LatitudeDegrees>
              <LongitudeDegrees>2.1376977860927581787109375</LongitudeDegrees>
            </Position>
            <AltitudeMeters>811.5999755859375</AltitudeMeters>
            <DistanceMeters>5134.1404091673</DistanceMeters>
          </Trackpoint>
          <Trackpoint>
            <Time>2021-08-31T07:54:45.000Z</Time>
            <Position>
              <LatitudeDegrees>42.02289886772632598876953125</LatitudeDegrees>
              <LongitudeDegrees>2.13777984492480754852294921875</LongitudeDegrees>
            </Position>
            <AltitudeMeters>813.20001220703125</AltitudeMeters>
            <DistanceMeters>5145.7667247612</DistanceMeters>
          </Trackpoint>
          <Trackpoint>
            <Time>2021-08-31T07:54:46.000Z</Time>
            <Position>
              <LatitudeDegrees>42.0228512585163116455078125</LatitudeDegrees>
              <LongitudeDegrees>2.13780532591044902801513671875</LongitudeDegrees>
            </Position>
            <AltitudeMeters>814</AltitudeMeters>
            <DistanceMeters>5151.4699111821</DistanceMeters>
          </Trackpoint>
          <Trackpoint>
            <Time>2021-08-31T07:54:47.000Z</Time>
            <Position>
              <LatitudeDegrees>42.02279954217374324798583984375</LatitudeDegrees>
              <LongitudeDegrees>2.137816138565540313720703125</LongitudeDegrees>
            </Position>
            <AltitudeMeters>814.79998779296875</AltitudeMeters>
            <DistanceMeters>5157.2945139325</DistanceMeters>
          </Trackpoint>
          <Trackpoint>
            <Time>2021-08-31T07:54:49.000Z</Time>
            <Position>
              <LatitudeDegrees>42.022697031497955322265625</LatitudeDegrees>
              <LongitudeDegrees>2.1377961896359920501708984375</LongitudeDegrees>
            </Position>
            <AltitudeMeters>815.5999755859375</AltitudeMeters>
            <DistanceMeters>5168.8229424941</DistanceMeters>
          </Trackpoint>
          <Trackpoint>
            <Time>2021-08-31T07:54:55.000Z</Time>
            <Position>
              <LatitudeDegrees>42.0224051736295223236083984375</LatitudeDegrees>
              <LongitudeDegrees>2.1375950239598751068115234375</LongitudeDegrees>
            </Position>
            <AltitudeMeters>813.5999755859375</AltitudeMeters>
            <DistanceMeters>5205.3181497847</DistanceMeters>
          </Trackpoint>
          <Trackpoint>
            <Time>2021-08-31T07:54:59.000Z</Time>
            <Position>
              <LatitudeDegrees>42.02217156998813152313232421875</LatitudeDegrees>
              <LongitudeDegrees>2.1374709717929363250732421875</LongitudeDegrees>
            </Position>
            <AltitudeMeters>812.20001220703125</AltitudeMeters>
            <DistanceMeters>5233.268929624</DistanceMeters>
          </Trackpoint>
          <Trackpoint>
            <Time>2021-08-31T07:55:01.000Z</Time>
            <Position>
              <LatitudeDegrees>42.02205355279147624969482421875</LatitudeDegrees>
              <LongitudeDegrees>2.13745211251080036163330078125</LongitudeDegrees>
            </Position>
            <AltitudeMeters>812.79998779296875</AltitudeMeters>
            <DistanceMeters>5246.4971124672</DistanceMeters>
          </Trackpoint>
          <Trackpoint>
            <Time>2021-08-31T07:55:03.000Z</Time>
            <Position>
              <LatitudeDegrees>42.02193553559482097625732421875</LatitudeDegrees>
              <LongitudeDegrees>2.137452028691768646240234375</LongitudeDegrees>
            </Position>
            <AltitudeMeters>813.5999755859375</AltitudeMeters>
            <DistanceMeters>5259.6328157483</DistanceMeters>
          </Trackpoint>
          <Trackpoint>
            <Time>2021-08-31T07:55:07.000Z</Time>
            <Position>
              <LatitudeDegrees>42.0216898620128631591796875</LatitudeDegrees>
              <LongitudeDegrees>2.1374314092099666595458984375</LongitudeDegrees>
            </Position>
            <AltitudeMeters>813.4000244140625</AltitudeMeters>
            <DistanceMeters>5287.0298596432</DistanceMeters>
          </Trackpoint>
          <Trackpoint>
            <Time>2021-08-31T07:55:12.000Z</Time>
            <Position>
              <LatitudeDegrees>42.0213413424789905548095703125</LatitudeDegrees>
              <LongitudeDegrees>2.13744230568408966064453125</LongitudeDegrees>
            </Position>
            <AltitudeMeters>812</AltitudeMeters>
            <DistanceMeters>5325.8312581386</DistanceMeters>
          </Trackpoint>
          <Trackpoint>
            <Time>2021-08-31T07:55:13.000Z</Time>
            <Position>
              <LatitudeDegrees>42.02126942574977874755859375</LatitudeDegrees>
              <LongitudeDegrees>2.137435935437679290771484375</LongitudeDegrees>
            </Position>
            <AltitudeMeters>811.4000244140625</AltitudeMeters>
            <DistanceMeters>5333.8529988935</DistanceMeters>
          </Trackpoint>
          <Trackpoint>
            <Time>2021-08-31T07:55:15.000Z</Time>
            <Position>
              <LatitudeDegrees>42.021119557321071624755859375</LatitudeDegrees>
              <LongitudeDegrees>2.13737013749778270721435546875</LongitudeDegrees>
            </Position>
            <AltitudeMeters>808.79998779296875</AltitudeMeters>
            <DistanceMeters>5351.3982348844</DistanceMeters>
          </Trackpoint>
          <Trackpoint>
            <Time>2021-08-31T07:55:18.000Z</Time>
            <Position>
              <LatitudeDegrees>42.02090573497116565704345703125</LatitudeDegrees>
              <LongitudeDegrees>2.1372027508914470672607421875</LongitudeDegrees>
            </Position>
            <AltitudeMeters>805.4000244140625</AltitudeMeters>
            <DistanceMeters>5378.9290993169</DistanceMeters>
          </Trackpoint>
          <Trackpoint>
            <Time>2021-08-31T07:55:19.000Z</Time>
            <Position>
              <LatitudeDegrees>42.0208476483821868896484375</LatitudeDegrees>
              <LongitudeDegrees>2.13712220080196857452392578125</LongitudeDegrees>
            </Position>
            <AltitudeMeters>804.4000244140625</AltitudeMeters>
            <DistanceMeters>5388.2111227682</DistanceMeters>
          </Trackpoint>
          <Trackpoint>
            <Time>2021-08-31T07:55:20.000Z</Time>
            <Position>
              <LatitudeDegrees>42.02080079354345798492431640625</LatitudeDegrees>
              <LongitudeDegrees>2.1370270662009716033935546875</LongitudeDegrees>
            </Position>
            <AltitudeMeters>803.4000244140625</AltitudeMeters>
            <DistanceMeters>5397.6494332166</DistanceMeters>
          </Trackpoint>
          <Trackpoint>
            <Time>2021-08-31T07:55:22.000Z</Time>
            <Position>
              <LatitudeDegrees>42.0207103528082370758056640625</LatitudeDegrees>
              <LongitudeDegrees>2.1368475258350372314453125</LongitudeDegrees>
            </Position>
            <AltitudeMeters>802</AltitudeMeters>
            <DistanceMeters>5415.586087407</DistanceMeters>
          </Trackpoint>
          <Trackpoint>
            <Time>2021-08-31T07:55:23.000Z</Time>
            <Position>
              <LatitudeDegrees>42.0206545293331146240234375</LatitudeDegrees>
              <LongitudeDegrees>2.1367762796580791473388671875</LongitudeDegrees>
            </Position>
            <AltitudeMeters>801.4000244140625</AltitudeMeters>
            <DistanceMeters>5424.1479890983</DistanceMeters>
          </Trackpoint>
          <Trackpoint>
            <Time>2021-08-31T07:55:24.000Z</Time>
            <Position>
              <LatitudeDegrees>42.02059308998286724090576171875</LatitudeDegrees>
              <LongitudeDegrees>2.1367132477462291717529296875</LongitudeDegrees>
            </Position>
            <AltitudeMeters>801</AltitudeMeters>
            <DistanceMeters>5432.745675169</DistanceMeters>
          </Trackpoint>
          <Trackpoint>
            <Time>2021-08-31T07:55:27.000Z</Time>
            <Position>
              <LatitudeDegrees>42.0204126276075839996337890625</LatitudeDegrees>
              <LongitudeDegrees>2.1365043707191944122314453125</LongitudeDegrees>
            </Position>
            <AltitudeMeters>799</AltitudeMeters>
            <DistanceMeters>5459.2358099452</DistanceMeters>
          </Trackpoint>
          <Trackpoint>
            <Time>2021-08-31T07:55:31.000Z</Time>
            <Position>
              <LatitudeDegrees>42.0202178321778774261474609375</LatitudeDegrees>
              <LongitudeDegrees>2.13612928055226802825927734375</LongitudeDegrees>
            </Position>
            <AltitudeMeters>795.4000244140625</AltitudeMeters>
            <DistanceMeters>5497.0776859907</DistanceMeters>
          </Trackpoint>
          <Trackpoint>
            <Time>2021-08-31T07:55:33.000Z</Time>
            <Position>
              <LatitudeDegrees>42.020180784165859222412109375</LatitudeDegrees>
              <LongitudeDegrees>2.13597874157130718231201171875</LongitudeDegrees>
            </Position>
            <AltitudeMeters>794.20001220703125</AltitudeMeters>
            <DistanceMeters>5510.1906839563</DistanceMeters>
          </Trackpoint>
          <Trackpoint>
            <Time>2021-08-31T07:55:34.000Z</Time>
            <Position>
              <LatitudeDegrees>42.02018505893647670745849609375</LatitudeDegrees>
              <LongitudeDegrees>2.135913781821727752685546875</LongitudeDegrees>
            </Position>
            <AltitudeMeters>793.79998779296875</AltitudeMeters>
            <DistanceMeters>5515.5838162767</DistanceMeters>
          </Trackpoint>
          <Trackpoint>
            <Time>2021-08-31T07:55:35.000Z</Time>
            <Position>
              <LatitudeDegrees>42.0201957039535045623779296875</LatitudeDegrees>
              <LongitudeDegrees>2.135850079357624053955078125</LongitudeDegrees>
            </Position>
            <AltitudeMeters>793.20001220703125</AltitudeMeters>
            <DistanceMeters>5520.9844779875</DistanceMeters>
          </Trackpoint>
          <Trackpoint>
            <Time>2021-08-31T07:55:38.000Z</Time>
            <Position>
              <LatitudeDegrees>42.02024624682962894439697265625</LatitudeDegrees>
              <LongitudeDegrees>2.13562301360070705413818359375</LongitudeDegrees>
            </Position>
            <AltitudeMeters>789.20001220703125</AltitudeMeters>
            <DistanceMeters>5540.58441452</DistanceMeters>
          </Trackpoint>
          <Trackpoint>
            <Time>2021-08-31T07:55:41.000Z</Time>
            <Position>
              <LatitudeDegrees>42.02025580219924449920654296875</LatitudeDegrees>
              <LongitudeDegrees>2.13535361923277378082275390625</LongitudeDegrees>
            </Position>
            <AltitudeMeters>785.20001220703125</AltitudeMeters>
            <DistanceMeters>5562.8851416399</DistanceMeters>
          </Trackpoint>
          <Trackpoint>
            <Time>2021-08-31T07:55:42.000Z</Time>
            <Position>
              <LatitudeDegrees>42.02024389989674091339111328125</LatitudeDegrees>
              <LongitudeDegrees>2.1352467499673366546630859375</LongitudeDegrees>
            </Position>
            <AltitudeMeters>783.79998779296875</AltitudeMeters>
            <DistanceMeters>5571.8201797395</DistanceMeters>
          </Trackpoint>
          <Trackpoint>
            <Time>2021-08-31T07:55:45.000Z</Time>
            <Position>
              <LatitudeDegrees>42.020159997045993804931640625</LatitudeDegrees>
              <LongitudeDegrees>2.13488942943513393402099609375</LongitudeDegrees>
            </Position>
            <AltitudeMeters>780.5999755859375</AltitudeMeters>
            <DistanceMeters>5602.8067579353</DistanceMeters>
          </Trackpoint>
          <Trackpoint>
            <Time>2021-08-31T07:55:47.000Z</Time>
            <Position>
              <LatitudeDegrees>42.02009419910609722137451171875</LatitudeDegrees>
              <LongitudeDegrees>2.13465574197471141815185546875</LongitudeDegrees>
            </Position>
            <AltitudeMeters>779.79998779296875</AltitudeMeters>
            <DistanceMeters>5623.4708626777</DistanceMeters>
          </Trackpoint>
          <Trackpoint>
            <Time>2021-08-31T07:55:49.000Z</Time>
            <Position>
              <LatitudeDegrees>42.020068801939487457275390625</LatitudeDegrees>
              <LongitudeDegrees>2.13443999178707599639892578125</LongitudeDegrees>
            </Position>
            <AltitudeMeters>777.79998779296875</AltitudeMeters>
            <DistanceMeters>5641.5331889909</DistanceMeters>
          </Trackpoint>
          <Trackpoint>
            <Time>2021-08-31T07:55:52.000Z</Time>
            <Position>
              <LatitudeDegrees>42.0200783573091030120849609375</LatitudeDegrees>
              <LongitudeDegrees>2.1341490559279918670654296875</LongitudeDegrees>
            </Position>
            <AltitudeMeters>774.4000244140625</AltitudeMeters>
            <DistanceMeters>5665.6134159162</DistanceMeters>
          </Trackpoint>
          <Trackpoint>
            <Time>2021-08-31T07:55:53.000Z</Time>
            <Position>
              <LatitudeDegrees>42.020057402551174163818359375</LatitudeDegrees>
              <LongitudeDegrees>2.1340553462505340576171875</LongitudeDegrees>
            </Position>
            <AltitudeMeters>774.5999755859375</AltitudeMeters>
            <DistanceMeters>5673.7057650418</DistanceMeters>
          </Trackpoint>
          <Trackpoint>
            <Time>2021-08-31T07:55:55.000Z</Time>
            <Position>
              <LatitudeDegrees>42.0199955441057682037353515625</LatitudeDegrees>
              <LongitudeDegrees>2.13386398740112781524658203125</LongitudeDegrees>
            </Position>
            <AltitudeMeters>773.79998779296875</AltitudeMeters>
            <DistanceMeters>5690.961684917</DistanceMeters>
          </Trackpoint>
          <Trackpoint>
            <Time>2021-08-31T07:55:57.000Z</Time>
            <Position>
              <LatitudeDegrees>42.01995522715151309967041015625</LatitudeDegrees>
              <LongitudeDegrees>2.1336505003273487091064453125</LongitudeDegrees>
            </Position>
            <AltitudeMeters>772.20001220703125</AltitudeMeters>
            <DistanceMeters>5709.1756067462</DistanceMeters>
          </Trackpoint>
          <Trackpoint>
            <Time>2021-08-31T07:55:58.000Z</Time>
            <Position>
              <LatitudeDegrees>42.01994433067739009857177734375</LatitudeDegrees>
              <LongitudeDegrees>2.133533656597137451171875</LongitudeDegrees>
            </Position>
            <AltitudeMeters>770.5999755859375</AltitudeMeters>
            <DistanceMeters>5718.9129473822</DistanceMeters>
          </Trackpoint>
          <Trackpoint>
            <Time>2021-08-31T07:56:00.000Z</Time>
            <Position>
              <LatitudeDegrees>42.01994843780994415283203125</LatitudeDegrees>
              <LongitudeDegrees>2.13331111706793308258056640625</LongitudeDegrees>
            </Position>
            <AltitudeMeters>767.4000244140625</AltitudeMeters>
            <DistanceMeters>5737.3199432874</DistanceMeters>
          </Trackpoint>
          <Trackpoint>
            <Time>2021-08-31T07:56:01.000Z</Time>
            <Position>
              <LatitudeDegrees>42.01996897347271442413330078125</LatitudeDegrees>
              <LongitudeDegrees>2.1332156471908092498779296875</LongitudeDegrees>
            </Position>
            <AltitudeMeters>765.4000244140625</AltitudeMeters>
            <DistanceMeters>5745.5385180909</DistanceMeters>
          </Trackpoint>
          <Trackpoint>
            <Time>2021-08-31T07:56:03.000Z</Time>
            <Position>
              <LatitudeDegrees>42.0200025849044322967529296875</LatitudeDegrees>
              <LongitudeDegrees>2.13304214179515838623046875</LongitudeDegrees>
            </Position>
            <AltitudeMeters>762.79998779296875</AltitudeMeters>
            <DistanceMeters>5760.3651219148</DistanceMeters>
          </Trackpoint>
          <Trackpoint>
            <Time>2021-08-31T07:56:05.000Z</Time>
            <Position>
              <LatitudeDegrees>42.01999604701995849609375</LatitudeDegrees>
              <LongitudeDegrees>2.13286905549466609954833984375</LongitudeDegrees>
            </Position>
            <AltitudeMeters>761.20001220703125</AltitudeMeters>
            <DistanceMeters>5774.6955789378</DistanceMeters>
          </Trackpoint>
          <Trackpoint>
            <Time>2021-08-31T07:56:09.000Z</Time>
            <Position>
              <LatitudeDegrees>42.01987677253782749176025390625</LatitudeDegrees>
              <LongitudeDegrees>2.1324996650218963623046875</LongitudeDegrees>
            </Position>
            <AltitudeMeters>761.20001220703125</AltitudeMeters>
            <DistanceMeters>5807.9996971458</DistanceMeters>
          </Trackpoint>
          <Trackpoint>
            <Time>2021-08-31T07:56:11.000Z</Time>
            <Position>
              <LatitudeDegrees>42.01978121884167194366455078125</LatitudeDegrees>
              <LongitudeDegrees>2.13241559453308582305908203125</LongitudeDegrees>
            </Position>
            <AltitudeMeters>761.20001220703125</AltitudeMeters>
            <DistanceMeters>5820.705589742</DistanceMeters>
          </Trackpoint>
          <Trackpoint>
            <Time>2021-08-31T07:56:12.000Z</Time>
            <Position>
              <LatitudeDegrees>42.01973461546003818511962890625</LatitudeDegrees>
              <LongitudeDegrees>2.13239983655512332916259765625</LongitudeDegrees>
            </Position>
            <AltitudeMeters>761.4000244140625</AltitudeMeters>
            <DistanceMeters>5826.0550114164</DistanceMeters>
          </Trackpoint>
          <Trackpoint>
            <Time>2021-08-31T07:56:13.000Z</Time>
            <Position>
              <LatitudeDegrees>42.01968935318291187286376953125</LatitudeDegrees>
              <LongitudeDegrees>2.13241140358150005340576171875</LongitudeDegrees>
            </Position>
            <AltitudeMeters>762.20001220703125</AltitudeMeters>
            <DistanceMeters>5831.1846939366</DistanceMeters>
          </Trackpoint>
          <Trackpoint>
            <Time>2021-08-31T07:56:15.000Z</Time>
            <Position>
              <LatitudeDegrees>42.01960016973316669464111328125</LatitudeDegrees>
              <LongitudeDegrees>2.13246772997081279754638671875</LongitudeDegrees>
            </Position>
            <AltitudeMeters>763.4000244140625</AltitudeMeters>
            <DistanceMeters>5842.1494756387</DistanceMeters>
          </Trackpoint>
          <Trackpoint>
            <Time>2021-08-31T07:56:21.000Z</Time>
            <Position>
              <LatitudeDegrees>42.0192656479775905609130859375</LatitudeDegrees>
              <LongitudeDegrees>2.1326409839093685150146484375</LongitudeDegrees>
            </Position>
            <AltitudeMeters>764</AltitudeMeters>
            <DistanceMeters>5882.0434966581</DistanceMeters>
          </Trackpoint>
          <Trackpoint>
            <Time>2021-08-31T07:56:27.000Z</Time>
            <Position>
              <LatitudeDegrees>42.01894554309546947479248046875</LatitudeDegrees>
              <LongitudeDegrees>2.13291582651436328887939453125</LongitudeDegrees>
            </Position>
            <AltitudeMeters>761.5999755859375</AltitudeMeters>
            <DistanceMeters>5924.3029353455</DistanceMeters>
          </Trackpoint>
          <Trackpoint>
            <Time>2021-08-31T07:56:28.000Z</Time>
            <Position>
              <LatitudeDegrees>42.01888921670615673065185546875</LatitudeDegrees>
              <LongitudeDegrees>2.13295438326895236968994140625</LongitudeDegrees>
            </Position>
            <AltitudeMeters>761.4000244140625</AltitudeMeters>
            <DistanceMeters>5931.3361962365</DistanceMeters>
          </Trackpoint>
          <Trackpoint>
            <Time>2021-08-31T07:56:32.000Z</Time>
            <Position>
              <LatitudeDegrees>42.01868620701134204864501953125</LatitudeDegrees>
              <LongitudeDegrees>2.1330547146499156951904296875</LongitudeDegrees>
            </Position>
            <AltitudeMeters>762</AltitudeMeters>
            <DistanceMeters>5955.4066711964</DistanceMeters>
          </Trackpoint>
          <Trackpoint>
            <Time>2021-08-31T07:56:34.000Z</Time>
            <Position>
              <LatitudeDegrees>42.0185974426567554473876953125</LatitudeDegrees>
              <LongitudeDegrees>2.13303283788263797760009765625</LongitudeDegrees>
            </Position>
            <AltitudeMeters>761.20001220703125</AltitudeMeters>
            <DistanceMeters>5965.4507746423</DistanceMeters>
          </Trackpoint>
          <Trackpoint>
            <Time>2021-08-31T07:56:35.000Z</Time>
            <Position>
              <LatitudeDegrees>42.01855544932186603546142578125</LatitudeDegrees>
              <LongitudeDegrees>2.13299092836678028106689453125</LongitudeDegrees>
            </Position>
            <AltitudeMeters>760</AltitudeMeters>
            <DistanceMeters>5971.2683967091</DistanceMeters>
          </Trackpoint>
          <Trackpoint>
            <Time>2021-08-31T07:56:39.000Z</Time>
            <Position>
              <LatitudeDegrees>42.01844698749482631683349609375</LatitudeDegrees>
              <LongitudeDegrees>2.13283401913940906524658203125</LongitudeDegrees>
            </Position>
            <AltitudeMeters>758</AltitudeMeters>
            <DistanceMeters>5988.9903057124</DistanceMeters>
          </Trackpoint>
          <Trackpoint>
            <Time>2021-08-31T07:56:42.000Z</Time>
            <Position>
              <LatitudeDegrees>42.018443048000335693359375</LatitudeDegrees>
              <LongitudeDegrees>2.1328175067901611328125</LongitudeDegrees>
            </Position>
            <AltitudeMeters>757.79998779296875</AltitudeMeters>
            <DistanceMeters>5990.4251776333</DistanceMeters>
          </Trackpoint>
          <Trackpoint>
            <Time>2021-08-31T07:56:53.000Z</Time>
            <Position>
              <LatitudeDegrees>42.01839703135192394256591796875</LatitudeDegrees>
              <LongitudeDegrees>2.13281809352338314056396484375</LongitudeDegrees>
            </Position>
            <AltitudeMeters>757.79998779296875</AltitudeMeters>
            <DistanceMeters>5995.5469324175</DistanceMeters>
          </Trackpoint>
          <Trackpoint>
            <Time>2021-08-31T07:56:58.000Z</Time>
            <Position>
              <LatitudeDegrees>42.01819737441837787628173828125</LatitudeDegrees>
              <LongitudeDegrees>2.1328538842499256134033203125</LongitudeDegrees>
            </Position>
            <AltitudeMeters>757.20001220703125</AltitudeMeters>
            <DistanceMeters>6017.9655852476</DistanceMeters>
          </Trackpoint>
          <Trackpoint>
            <Time>2021-08-31T07:56:59.000Z</Time>
            <Position>
              <LatitudeDegrees>42.01815144158899784088134765625</LatitudeDegrees>
              <LongitudeDegrees>2.1328525431454181671142578125</LongitudeDegrees>
            </Position>
            <AltitudeMeters>756.79998779296875</AltitudeMeters>
            <DistanceMeters>6023.0794000059</DistanceMeters>
          </Trackpoint>
          <Trackpoint>
            <Time>2021-08-31T07:57:02.000Z</Time>
            <Position>
              <LatitudeDegrees>42.0180469192564487457275390625</LatitudeDegrees>
              <LongitudeDegrees>2.13277517817914485931396484375</LongitudeDegrees>
            </Position>
            <AltitudeMeters>755</AltitudeMeters>
            <DistanceMeters>6036.3559617666</DistanceMeters>
          </Trackpoint>
          <Trackpoint>
            <Time>2021-08-31T07:57:04.000Z</Time>
            <Position>
              <LatitudeDegrees>42.01803677715361118316650390625</LatitudeDegrees>
              <LongitudeDegrees>2.132673002779483795166015625</LongitudeDegrees>
            </Position>
            <AltitudeMeters>754.20001220703125</AltitudeMeters>
            <DistanceMeters>6044.8798103732</DistanceMeters>
          </Trackpoint>
          <Trackpoint>
            <Time>2021-08-31T07:57:05.000Z</Time>
            <Position>
              <LatitudeDegrees>42.01804901473224163055419921875</LatitudeDegrees>
              <LongitudeDegrees>2.1326243877410888671875</LongitudeDegrees>
            </Position>
            <AltitudeMeters>753.79998779296875</AltitudeMeters>
            <DistanceMeters>6049.1242187543</DistanceMeters>
          </Trackpoint>
          <Trackpoint>
            <Time>2021-08-31T07:57:07.000Z</Time>
            <Position>
              <LatitudeDegrees>42.01807902194559574127197265625</LatitudeDegrees>
              <LongitudeDegrees>2.13258675299584865570068359375</LongitudeDegrees>
            </Position>
            <AltitudeMeters>753.79998779296875</AltitudeMeters>
            <DistanceMeters>6053.6894587735</DistanceMeters>
          </Trackpoint>
          <Trackpoint>
            <Time>2021-08-31T07:57:08.000Z</Time>
            <Position>
              <LatitudeDegrees>42.0180888287723064422607421875</LatitudeDegrees>
              <LongitudeDegrees>2.13257283903658390045166015625</LongitudeDegrees>
            </Position>
            <AltitudeMeters>753.5999755859375</AltitudeMeters>
            <DistanceMeters>6055.2795598408</DistanceMeters>
          </Trackpoint>
          <Trackpoint>
            <Time>2021-08-31T07:57:11.000Z</Time>
            <Position>
              <LatitudeDegrees>42.0180576480925083160400390625</LatitudeDegrees>
              <LongitudeDegrees>2.1325645409524440765380859375</LongitudeDegrees>
            </Position>
            <AltitudeMeters>753.20001220703125</AltitudeMeters>
            <DistanceMeters>6058.8173113797</DistanceMeters>
          </Trackpoint>
          <Trackpoint>
            <Time>2021-08-31T07:57:12.000Z</Time>
            <Position>
              <LatitudeDegrees>42.018047757446765899658203125</LatitudeDegrees>
              <LongitudeDegrees>2.1325890161097049713134765625</LongitudeDegrees>
            </Position>
            <AltitudeMeters>753.4000244140625</AltitudeMeters>
            <DistanceMeters>6061.1215867428</DistanceMeters>
          </Trackpoint>
          <Trackpoint>
            <Time>2021-08-31T07:57:15.000Z</Time>
            <Position>
              <LatitudeDegrees>42.0180425606667995452880859375</LatitudeDegrees>
              <LongitudeDegrees>2.13270477019250392913818359375</LongitudeDegrees>
            </Position>
            <AltitudeMeters>754.5999755859375</AltitudeMeters>
            <DistanceMeters>6070.7112842618</DistanceMeters>
          </Trackpoint>
          <Trackpoint>
            <Time>2021-08-31T07:57:17.000Z</Time>
            <Position>
              <LatitudeDegrees>42.01806209050118923187255859375</LatitudeDegrees>
              <LongitudeDegrees>2.132787667214870452880859375</LongitudeDegrees>
            </Position>
            <AltitudeMeters>755.4000244140625</AltitudeMeters>
            <DistanceMeters>6077.9019878239</DistanceMeters>
          </Trackpoint>
          <Trackpoint>
            <Time>2021-08-31T07:57:18.000Z</Time>
            <Position>
              <LatitudeDegrees>42.018083967268466949462890625</LatitudeDegrees>
              <LongitudeDegrees>2.1328153274953365325927734375</LongitudeDegrees>
            </Position>
            <AltitudeMeters>755.79998779296875</AltitudeMeters>
            <DistanceMeters>6081.2441734204</DistanceMeters>
          </Trackpoint>
          <Trackpoint>
            <Time>2021-08-31T07:57:23.000Z</Time>
            <Position>
              <LatitudeDegrees>42.0182239450514316558837890625</LatitudeDegrees>
              <LongitudeDegrees>2.13284826837480068206787109375</LongitudeDegrees>
            </Position>
            <AltitudeMeters>757.4000244140625</AltitudeMeters>
            <DistanceMeters>6097.0603416558</DistanceMeters>
          </Trackpoint>
          <Trackpoint>
            <Time>2021-08-31T07:57:29.000Z</Time>
            <Position>
              <LatitudeDegrees>42.01839384622871875762939453125</LatitudeDegrees>
              <LongitudeDegrees>2.132814489305019378662109375</LongitudeDegrees>
            </Position>
            <AltitudeMeters>757.5999755859375</AltitudeMeters>
            <DistanceMeters>6116.1758338886</DistanceMeters>
          </Trackpoint>
          <Trackpoint>
            <Time>2021-08-31T07:57:33.000Z</Time>
            <Position>
              <LatitudeDegrees>42.01842100359499454498291015625</LatitudeDegrees>
              <LongitudeDegrees>2.13280820287764072418212890625</LongitudeDegrees>
            </Position>
            <AltitudeMeters>757.79998779296875</AltitudeMeters>
            <DistanceMeters>6119.2432985836</DistanceMeters>
          </Trackpoint>
          <Trackpoint>
            <Time>2021-08-31T07:58:42.000Z</Time>
            <Position>
              <LatitudeDegrees>42.018453776836395263671875</LatitudeDegrees>
              <LongitudeDegrees>2.13284608907997608184814453125</LongitudeDegrees>
            </Position>
            <AltitudeMeters>758.20001220703125</AltitudeMeters>
            <DistanceMeters>6124.0522512526</DistanceMeters>
          </Trackpoint>
          <Trackpoint>
            <Time>2021-08-31T07:58:45.000Z</Time>
            <Position>
              <LatitudeDegrees>42.01849593780934810638427734375</LatitudeDegrees>
              <LongitudeDegrees>2.1329065226018428802490234375</LongitudeDegrees>
            </Position>
            <AltitudeMeters>758.79998779296875</AltitudeMeters>
            <DistanceMeters>6130.9073601368</DistanceMeters>
          </Trackpoint>
          <Trackpoint>
            <Time>2021-08-31T07:58:47.000Z</Time>
            <Position>
              <LatitudeDegrees>42.018501050770282745361328125</LatitudeDegrees>
              <LongitudeDegrees>2.1329663693904876708984375</LongitudeDegrees>
            </Position>
            <AltitudeMeters>759.4000244140625</AltitudeMeters>
            <DistanceMeters>6135.8887906611</DistanceMeters>
          </Trackpoint>
          <Trackpoint>
            <Time>2021-08-31T07:58:49.000Z</Time>
            <Position>
              <LatitudeDegrees>42.01848269440233707427978515625</LatitudeDegrees>
              <LongitudeDegrees>2.1330171637237071990966796875</LongitudeDegrees>
            </Position>
            <AltitudeMeters>760.20001220703125</AltitudeMeters>
            <DistanceMeters>6140.5596219242</DistanceMeters>
          </Trackpoint>
          <Trackpoint>
            <Time>2021-08-31T07:58:51.000Z</Time>
            <Position>
              <LatitudeDegrees>42.01845050789415836334228515625</LatitudeDegrees>
              <LongitudeDegrees>2.1330513618886470794677734375</LongitudeDegrees>
            </Position>
            <AltitudeMeters>760.5999755859375</AltitudeMeters>
            <DistanceMeters>6145.1228835077</DistanceMeters>
          </Trackpoint>
          <Trackpoint>
            <Time>2021-08-31T07:58:56.000Z</Time>
            <Position>
              <LatitudeDegrees>42.01831757090985774993896484375</LatitudeDegrees>
              <LongitudeDegrees>2.13315135799348354339599609375</LongitudeDegrees>
            </Position>
            <AltitudeMeters>761.20001220703125</AltitudeMeters>
            <DistanceMeters>6162.0728366681</DistanceMeters>
          </Trackpoint>
          <Trackpoint>
            <Time>2021-08-31T07:58:58.000Z</Time>
            <Position>
              <LatitudeDegrees>42.01824196614325046539306640625</LatitudeDegrees>
              <LongitudeDegrees>2.13321422226727008819580078125</LongitudeDegrees>
            </Position>
            <AltitudeMeters>760.4000244140625</AltitudeMeters>
            <DistanceMeters>6171.9642914788</DistanceMeters>
          </Trackpoint>
          <Trackpoint>
            <Time>2021-08-31T07:59:01.000Z</Time>
            <Position>
              <LatitudeDegrees>42.01813300140202045440673828125</LatitudeDegrees>
              <LongitudeDegrees>2.13335939683020114898681640625</LongitudeDegrees>
            </Position>
            <AltitudeMeters>761.20001220703125</AltitudeMeters>
            <DistanceMeters>6189.0286659205</DistanceMeters>
          </Trackpoint>
          <Trackpoint>
            <Time>2021-08-31T07:59:06.000Z</Time>
            <Position>
              <LatitudeDegrees>42.01800559647381305694580078125</LatitudeDegrees>
              <LongitudeDegrees>2.1336179785430431365966796875</LongitudeDegrees>
            </Position>
            <AltitudeMeters>761.79998779296875</AltitudeMeters>
            <DistanceMeters>6214.6855268472</DistanceMeters>
          </Trackpoint>
          <Trackpoint>
            <Time>2021-08-31T07:59:11.000Z</Time>
            <Position>
              <LatitudeDegrees>42.01796519570052623748779296875</LatitudeDegrees>
              <LongitudeDegrees>2.1337846107780933380126953125</LongitudeDegrees>
            </Position>
            <AltitudeMeters>762</AltitudeMeters>
            <DistanceMeters>6229.1795152007</DistanceMeters>
          </Trackpoint>
          <Trackpoint>
            <Time>2021-08-31T07:59:17.000Z</Time>
            <Position>
              <LatitudeDegrees>42.017970643937587738037109375</LatitudeDegrees>
              <LongitudeDegrees>2.13395920582115650177001953125</LongitudeDegrees>
            </Position>
            <AltitudeMeters>764</AltitudeMeters>
            <DistanceMeters>6243.6295137341</DistanceMeters>
          </Trackpoint>
          <Trackpoint>
            <Time>2021-08-31T07:59:20.000Z</Time>
            <Position>
              <LatitudeDegrees>42.017992772161960601806640625</LatitudeDegrees>
              <LongitudeDegrees>2.13405065238475799560546875</LongitudeDegrees>
            </Position>
            <AltitudeMeters>765.4000244140625</AltitudeMeters>
            <DistanceMeters>6251.5822903192</DistanceMeters>
          </Trackpoint>
          <Trackpoint>
            <Time>2021-08-31T07:59:21.000Z</Time>
            <Position>
              <LatitudeDegrees>42.01799671165645122528076171875</LatitudeDegrees>
              <LongitudeDegrees>2.13408594019711017608642578125</LongitudeDegrees>
            </Position>
            <AltitudeMeters>766.20001220703125</AltitudeMeters>
            <DistanceMeters>6254.5342428542</DistanceMeters>
          </Trackpoint>
          <Trackpoint>
            <Time>2021-08-31T07:59:27.000Z</Time>
            <Position>
              <LatitudeDegrees>42.01797408051788806915283203125</LatitudeDegrees>
              <LongitudeDegrees>2.13433488272130489349365234375</LongitudeDegrees>
            </Position>
            <AltitudeMeters>768.4000244140625</AltitudeMeters>
            <DistanceMeters>6275.2727211222</DistanceMeters>
          </Trackpoint>
          <Trackpoint>
            <Time>2021-08-31T07:59:28.000Z</Time>
            <Position>
              <LatitudeDegrees>42.01794876717031002044677734375</LatitudeDegrees>
              <LongitudeDegrees>2.1343718469142913818359375</LongitudeDegrees>
            </Position>
            <AltitudeMeters>767.5999755859375</AltitudeMeters>
            <DistanceMeters>6279.4278993567</DistanceMeters>
          </Trackpoint>
          <Trackpoint>
            <Time>2021-08-31T07:59:30.000Z</Time>
            <Position>
              <LatitudeDegrees>42.0178782753646373748779296875</LatitudeDegrees>
              <LongitudeDegrees>2.13441266678273677825927734375</LongitudeDegrees>
            </Position>
            <AltitudeMeters>767.4000244140625</AltitudeMeters>
            <DistanceMeters>6287.9686813768</DistanceMeters>
          </Trackpoint>
          <Trackpoint>
            <Time>2021-08-31T07:59:32.000Z</Time>
            <Position>
              <LatitudeDegrees>42.0177954621613025665283203125</LatitudeDegrees>
              <LongitudeDegrees>2.1343911252915859222412109375</LongitudeDegrees>
            </Position>
            <AltitudeMeters>766.5999755859375</AltitudeMeters>
            <DistanceMeters>6297.3566282286</DistanceMeters>
          </Trackpoint>
          <Trackpoint>
            <Time>2021-08-31T07:59:34.000Z</Time>
            <Position>
              <LatitudeDegrees>42.01771306805312633514404296875</LatitudeDegrees>
              <LongitudeDegrees>2.13433823548257350921630859375</LongitudeDegrees>
            </Position>
            <AltitudeMeters>765.20001220703125</AltitudeMeters>
            <DistanceMeters>6307.516490621</DistanceMeters>
          </Trackpoint>
          <Trackpoint>
            <Time>2021-08-31T07:59:42.000Z</Time>
            <Position>
              <LatitudeDegrees>42.01743193902075290679931640625</LatitudeDegrees>
              <LongitudeDegrees>2.13402424938976764678955078125</LongitudeDegrees>
            </Position>
            <AltitudeMeters>764.79998779296875</AltitudeMeters>
            <DistanceMeters>6348.1759332519</DistanceMeters>
          </Trackpoint>
          <Trackpoint>
            <Time>2021-08-31T07:59:43.000Z</Time>
            <Position>
              <LatitudeDegrees>42.01738885603845119476318359375</LatitudeDegrees>
              <LongitudeDegrees>2.13397018611431121826171875</LongitudeDegrees>
            </Position>
            <AltitudeMeters>764.79998779296875</AltitudeMeters>
            <DistanceMeters>6354.7307104198</DistanceMeters>
          </Trackpoint>
          <Trackpoint>
            <Time>2021-08-31T07:59:46.000Z</Time>
            <Position>
              <LatitudeDegrees>42.017227001488208770751953125</LatitudeDegrees>
              <LongitudeDegrees>2.13382258079946041107177734375</LongitudeDegrees>
            </Position>
            <AltitudeMeters>768.20001220703125</AltitudeMeters>
            <DistanceMeters>6376.4907905762</DistanceMeters>
          </Trackpoint>
          <Trackpoint>
            <Time>2021-08-31T07:59:51.000Z</Time>
            <Position>
              <LatitudeDegrees>42.01697730459272861480712890625</LatitudeDegrees>
              <LongitudeDegrees>2.133652679622173309326171875</LongitudeDegrees>
            </Position>
            <AltitudeMeters>773.20001220703125</AltitudeMeters>
            <DistanceMeters>6407.6317277726</DistanceMeters>
          </Trackpoint>
          <Trackpoint>
            <Time>2021-08-31T07:59:55.000Z</Time>
            <Position>
              <LatitudeDegrees>42.0168687589466571807861328125</LatitudeDegrees>
              <LongitudeDegrees>2.1335086785256862640380859375</LongitudeDegrees>
            </Position>
            <AltitudeMeters>773</AltitudeMeters>
            <DistanceMeters>6424.5949944381</DistanceMeters>
          </Trackpoint>
          <Trackpoint>
            <Time>2021-08-31T07:59:58.000Z</Time>
            <Position>
              <LatitudeDegrees>42.01688510365784168243408203125</LatitudeDegrees>
              <LongitudeDegrees>2.13331748731434345245361328125</LongitudeDegrees>
            </Position>
            <AltitudeMeters>769.20001220703125</AltitudeMeters>
            <DistanceMeters>6440.5090612957</DistanceMeters>
          </Trackpoint>
          <Trackpoint>
            <Time>2021-08-31T07:59:59.000Z</Time>
            <Position>
              <LatitudeDegrees>42.0168994367122650146484375</LatitudeDegrees>
              <LongitudeDegrees>2.1332542039453983306884765625</LongitudeDegrees>
            </Position>
            <AltitudeMeters>767.79998779296875</AltitudeMeters>
            <DistanceMeters>6445.9794975978</DistanceMeters>
          </Trackpoint>
          <Trackpoint>
            <Time>2021-08-31T08:00:01.000Z</Time>
            <Position>
              <LatitudeDegrees>42.01691611669957637786865234375</LatitudeDegrees>
              <LongitudeDegrees>2.1331187523901462554931640625</LongitudeDegrees>
            </Position>
            <AltitudeMeters>766.20001220703125</AltitudeMeters>
            <DistanceMeters>6457.3335000336</DistanceMeters>
          </Trackpoint>
          <Trackpoint>
            <Time>2021-08-31T08:00:02.000Z</Time>
            <Position>
              <LatitudeDegrees>42.01691209338605403900146484375</LatitudeDegrees>
              <LongitudeDegrees>2.13304490782320499420166015625</LongitudeDegrees>
            </Position>
            <AltitudeMeters>765.79998779296875</AltitudeMeters>
            <DistanceMeters>6463.4566428047</DistanceMeters>
          </Trackpoint>
          <Trackpoint>
            <Time>2021-08-31T08:00:03.000Z</Time>
            <Position>
              <LatitudeDegrees>42.01689281500875949859619140625</LatitudeDegrees>
              <LongitudeDegrees>2.13297550566494464874267578125</LongitudeDegrees>
            </Position>
            <AltitudeMeters>765.79998779296875</AltitudeMeters>
            <DistanceMeters>6469.5842082147</DistanceMeters>
          </Trackpoint>
          <Trackpoint>
            <Time>2021-08-31T08:00:05.000Z</Time>
            <Position>
              <LatitudeDegrees>42.01682039536535739898681640625</LatitudeDegrees>
              <LongitudeDegrees>2.132871486246585845947265625</LongitudeDegrees>
            </Position>
            <AltitudeMeters>766.79998779296875</AltitudeMeters>
            <DistanceMeters>6481.3717349377</DistanceMeters>
          </Trackpoint>
          <Trackpoint>
            <Time>2021-08-31T08:00:08.000Z</Time>
            <Position>
              <LatitudeDegrees>42.01672517694532871246337890625</LatitudeDegrees>
              <LongitudeDegrees>2.13275405578315258026123046875</LongitudeDegrees>
            </Position>
            <AltitudeMeters>768</AltitudeMeters>
            <DistanceMeters>6495.7456052946</DistanceMeters>
          </Trackpoint>
          <Trackpoint>
            <Time>2021-08-31T08:00:10.000Z</Time>
            <Position>
              <LatitudeDegrees>42.01667119748890399932861328125</LatitudeDegrees>
              <LongitudeDegrees>2.13265246711671352386474609375</LongitudeDegrees>
            </Position>
            <AltitudeMeters>768</AltitudeMeters>
            <DistanceMeters>6506.0733961017</DistanceMeters>
          </Trackpoint>
          <Trackpoint>
            <Time>2021-08-31T08:00:12.000Z</Time>
            <Position>
              <LatitudeDegrees>42.016608081758022308349609375</LatitudeDegrees>
              <LongitudeDegrees>2.13252573274075984954833984375</LongitudeDegrees>
            </Position>
            <AltitudeMeters>767.4000244140625</AltitudeMeters>
            <DistanceMeters>6518.6901384528</DistanceMeters>
          </Trackpoint>
          <Trackpoint>
            <Time>2021-08-31T08:00:14.000Z</Time>
            <Position>
              <LatitudeDegrees>42.01656022109091281890869140625</LatitudeDegrees>
              <LongitudeDegrees>2.13238156400620937347412109375</LongitudeDegrees>
            </Position>
            <AltitudeMeters>766.20001220703125</AltitudeMeters>
            <DistanceMeters>6531.7479293615</DistanceMeters>
          </Trackpoint>
          <Trackpoint>
            <Time>2021-08-31T08:00:19.000Z</Time>
            <Position>
              <LatitudeDegrees>42.01639191247522830963134765625</LatitudeDegrees>
              <LongitudeDegrees>2.1320736967027187347412109375</LongitudeDegrees>
            </Position>
            <AltitudeMeters>765.20001220703125</AltitudeMeters>
            <DistanceMeters>6563.355705896</DistanceMeters>
          </Trackpoint>
          <Trackpoint>
            <Time>2021-08-31T08:00:21.000Z</Time>
            <Position>
              <LatitudeDegrees>42.01630105264484882354736328125</LatitudeDegrees>
              <LongitudeDegrees>2.13200412690639495849609375</LongitudeDegrees>
            </Position>
            <AltitudeMeters>766</AltitudeMeters>
            <DistanceMeters>6574.9901739068</DistanceMeters>
          </Trackpoint>
          <Trackpoint>
            <Time>2021-08-31T08:00:23.000Z</Time>
            <Position>
              <LatitudeDegrees>42.0162022300064563751220703125</LatitudeDegrees>
              <LongitudeDegrees>2.13196523487567901611328125</LongitudeDegrees>
            </Position>
            <AltitudeMeters>767</AltitudeMeters>
            <DistanceMeters>6586.4494658417</DistanceMeters>
          </Trackpoint>
          <Trackpoint>
            <Time>2021-08-31T08:00:24.000Z</Time>
            <Position>
              <LatitudeDegrees>42.0161549560725688934326171875</LatitudeDegrees>
              <LongitudeDegrees>2.13194872252643108367919921875</LongitudeDegrees>
            </Position>
            <AltitudeMeters>767.4000244140625</AltitudeMeters>
            <DistanceMeters>6591.8851268065</DistanceMeters>
          </Trackpoint>
          <Trackpoint>
            <Time>2021-08-31T08:00:28.000Z</Time>
            <Position>
              <LatitudeDegrees>42.01598304323852062225341796875</LatitudeDegrees>
              <LongitudeDegrees>2.13191620074212551116943359375</LongitudeDegrees>
            </Position>
            <AltitudeMeters>769</AltitudeMeters>
            <DistanceMeters>6611.2075888818</DistanceMeters>
          </Trackpoint>
          <Trackpoint>
            <Time>2021-08-31T08:00:32.000Z</Time>
            <Position>
              <LatitudeDegrees>42.0158760063350200653076171875</LatitudeDegrees>
              <LongitudeDegrees>2.1318239159882068634033203125</LongitudeDegrees>
            </Position>
            <AltitudeMeters>768.79998779296875</AltitudeMeters>
            <DistanceMeters>6625.3557231946</DistanceMeters>
          </Trackpoint>
          <Trackpoint>
            <Time>2021-08-31T08:00:36.000Z</Time>
            <Position>
              <LatitudeDegrees>42.01581473462283611297607421875</LatitudeDegrees>
              <LongitudeDegrees>2.13165409862995147705078125</LongitudeDegrees>
            </Position>
            <AltitudeMeters>769</AltitudeMeters>
            <DistanceMeters>6640.9667354318</DistanceMeters>
          </Trackpoint>
          <Trackpoint>
            <Time>2021-08-31T08:00:39.000Z</Time>
            <Position>
              <LatitudeDegrees>42.01573058031499385833740234375</LatitudeDegrees>
              <LongitudeDegrees>2.13156064040958881378173828125</LongitudeDegrees>
            </Position>
            <AltitudeMeters>769.5999755859375</AltitudeMeters>
            <DistanceMeters>6653.11009363</DistanceMeters>
          </Trackpoint>
          <Trackpoint>
            <Time>2021-08-31T08:00:43.000Z</Time>
            <Position>
              <LatitudeDegrees>42.015666626393795013427734375</LatitudeDegrees>
              <LongitudeDegrees>2.1315821819007396697998046875</LongitudeDegrees>
            </Position>
            <AltitudeMeters>769.79998779296875</AltitudeMeters>
            <DistanceMeters>6660.448715838</DistanceMeters>
          </Trackpoint>
          <Trackpoint>
            <Time>2021-08-31T08:00:44.000Z</Time>
            <Position>
              <LatitudeDegrees>42.015666626393795013427734375</LatitudeDegrees>
              <LongitudeDegrees>2.1315821819007396697998046875</LongitudeDegrees>
            </Position>
            <AltitudeMeters>769.79998779296875</AltitudeMeters>
            <DistanceMeters>6660.5437425524</DistanceMeters>
          </Trackpoint>
          <Trackpoint>
            <Time>2021-08-31T08:01:01.000Z</Time>
            <Position>
              <LatitudeDegrees>42.01564743183553218841552734375</LatitudeDegrees>
              <LongitudeDegrees>2.13157438673079013824462890625</LongitudeDegrees>
            </Position>
            <AltitudeMeters>769.5999755859375</AltitudeMeters>
            <DistanceMeters>6662.7763648216</DistanceMeters>
          </Trackpoint>
          <Trackpoint>
            <Time>2021-08-31T08:01:03.000Z</Time>
            <Position>
              <LatitudeDegrees>42.01560191810131072998046875</LatitudeDegrees>
              <LongitudeDegrees>2.13153968565165996551513671875</LongitudeDegrees>
            </Position>
            <AltitudeMeters>769.4000244140625</AltitudeMeters>
            <DistanceMeters>6668.5994170322</DistanceMeters>
          </Trackpoint>
          <Trackpoint>
            <Time>2021-08-31T08:01:07.000Z</Time>
            <Position>
              <LatitudeDegrees>42.01544995419681072235107421875</LatitudeDegrees>
              <LongitudeDegrees>2.13142066262662410736083984375</LongitudeDegrees>
            </Position>
            <AltitudeMeters>769.20001220703125</AltitudeMeters>
            <DistanceMeters>6688.1689224421</DistanceMeters>
          </Trackpoint>
          <Trackpoint>
            <Time>2021-08-31T08:01:11.000Z</Time>
            <Position>
              <LatitudeDegrees>42.01526840217411518096923828125</LatitudeDegrees>
              <LongitudeDegrees>2.13129141367971897125244140625</LongitudeDegrees>
            </Position>
            <AltitudeMeters>767.20001220703125</AltitudeMeters>
            <DistanceMeters>6711.0285264136</DistanceMeters>
          </Trackpoint>
          <Trackpoint>
            <Time>2021-08-31T08:01:12.000Z</Time>
            <Position>
              <LatitudeDegrees>42.0152292586863040924072265625</LatitudeDegrees>
              <LongitudeDegrees>2.1312754042446613311767578125</LongitudeDegrees>
            </Position>
            <AltitudeMeters>766.5999755859375</AltitudeMeters>
            <DistanceMeters>6715.5818829245</DistanceMeters>
          </Trackpoint>
          <Trackpoint>
            <Time>2021-08-31T08:01:13.000Z</Time>
            <Position>
              <LatitudeDegrees>42.01518877409398555755615234375</LatitudeDegrees>
              <LongitudeDegrees>2.131264507770538330078125</LongitudeDegrees>
            </Position>
            <AltitudeMeters>766</AltitudeMeters>
            <DistanceMeters>6720.1776797872</DistanceMeters>
          </Trackpoint>
          <Trackpoint>
            <Time>2021-08-31T08:01:15.000Z</Time>
            <Position>
              <LatitudeDegrees>42.0151105709373950958251953125</LatitudeDegrees>
              <LongitudeDegrees>2.1312653459608554840087890625</LongitudeDegrees>
            </Position>
            <AltitudeMeters>764.5999755859375</AltitudeMeters>
            <DistanceMeters>6728.8828737263</DistanceMeters>
          </Trackpoint>
          <Trackpoint>
            <Time>2021-08-31T08:01:16.000Z</Time>
            <Position>
              <LatitudeDegrees>42.01507947407662868499755859375</LatitudeDegrees>
              <LongitudeDegrees>2.1312747336924076080322265625</LongitudeDegrees>
            </Position>
            <AltitudeMeters>764.20001220703125</AltitudeMeters>
            <DistanceMeters>6732.4320928854</DistanceMeters>
          </Trackpoint>
          <Trackpoint>
            <Time>2021-08-31T08:01:20.000Z</Time>
            <Position>
              <LatitudeDegrees>42.01503136195242404937744140625</LatitudeDegrees>
              <LongitudeDegrees>2.13129392825067043304443359375</LongitudeDegrees>
            </Position>
            <AltitudeMeters>763.4000244140625</AltitudeMeters>
            <DistanceMeters>6738.0184999767</DistanceMeters>
          </Trackpoint>
          <Trackpoint>
            <Time>2021-08-31T08:01:51.000Z</Time>
            <Position>
              <LatitudeDegrees>42.0150138437747955322265625</LatitudeDegrees>
              <LongitudeDegrees>2.131301723420619964599609375</LongitudeDegrees>
            </Position>
            <AltitudeMeters>763</AltitudeMeters>
            <DistanceMeters>6740.0698448095</DistanceMeters>
          </Trackpoint>
          <Trackpoint>
            <Time>2021-08-31T08:01:53.000Z</Time>
            <Position>
              <LatitudeDegrees>42.01496967114508152008056640625</LatitudeDegrees>
              <LongitudeDegrees>2.13126861490309238433837890625</LongitudeDegrees>
            </Position>
            <AltitudeMeters>762.5999755859375</AltitudeMeters>
            <DistanceMeters>6745.6965177174</DistanceMeters>
          </Trackpoint>
          <Trackpoint>
            <Time>2021-08-31T08:01:59.000Z</Time>
            <Position>
              <LatitudeDegrees>42.01478174887597560882568359375</LatitudeDegrees>
              <LongitudeDegrees>2.13105403818190097808837890625</LongitudeDegrees>
            </Position>
            <AltitudeMeters>760.5999755859375</AltitudeMeters>
            <DistanceMeters>6773.1251849991</DistanceMeters>
          </Trackpoint>
          <Trackpoint>
            <Time>2021-08-31T08:02:01.000Z</Time>
            <Position>
              <LatitudeDegrees>42.01470698229968547821044921875</LatitudeDegrees>
              <LongitudeDegrees>2.1309481747448444366455078125</LongitudeDegrees>
            </Position>
            <AltitudeMeters>759.79998779296875</AltitudeMeters>
            <DistanceMeters>6785.2036747652</DistanceMeters>
          </Trackpoint>
          <Trackpoint>
            <Time>2021-08-31T08:02:03.000Z</Time>
            <Position>
              <LatitudeDegrees>42.014607824385166168212890625</LatitudeDegrees>
              <LongitudeDegrees>2.13084566406905651092529296875</LongitudeDegrees>
            </Position>
            <AltitudeMeters>758.20001220703125</AltitudeMeters>
            <DistanceMeters>6799.1204660466</DistanceMeters>
          </Trackpoint>
          <Trackpoint>
            <Time>2021-08-31T08:02:05.000Z</Time>
            <Position>
              <LatitudeDegrees>42.01448251493275165557861328125</LatitudeDegrees>
              <LongitudeDegrees>2.1307696402072906494140625</LongitudeDegrees>
            </Position>
            <AltitudeMeters>756.4000244140625</AltitudeMeters>
            <DistanceMeters>6814.4188816925</DistanceMeters>
          </Trackpoint>
          <Trackpoint>
            <Time>2021-08-31T08:02:07.000Z</Time>
            <Position>
              <LatitudeDegrees>42.01433591544628143310546875</LatitudeDegrees>
              <LongitudeDegrees>2.1307235397398471832275390625</LongitudeDegrees>
            </Position>
            <AltitudeMeters>754.4000244140625</AltitudeMeters>
            <DistanceMeters>6831.1754086879</DistanceMeters>
          </Trackpoint>
          <Trackpoint>
            <Time>2021-08-31T08:02:08.000Z</Time>
            <Position>
              <LatitudeDegrees>42.01426626183092594146728515625</LatitudeDegrees>
              <LongitudeDegrees>2.13070065714418888092041015625</LongitudeDegrees>
            </Position>
            <AltitudeMeters>753.4000244140625</AltitudeMeters>
            <DistanceMeters>6839.1553898334</DistanceMeters>
          </Trackpoint>
          <Trackpoint>
            <Time>2021-08-31T08:02:11.000Z</Time>
            <Position>
              <LatitudeDegrees>42.01406903564929962158203125</LatitudeDegrees>
              <LongitudeDegrees>2.13057895191013813018798828125</LongitudeDegrees>
            </Position>
            <AltitudeMeters>750.20001220703125</AltitudeMeters>
            <DistanceMeters>6863.3041441854</DistanceMeters>
          </Trackpoint>
          <Trackpoint>
            <Time>2021-08-31T08:02:14.000Z</Time>
            <Position>
              <LatitudeDegrees>42.01387113891541957855224609375</LatitudeDegrees>
              <LongitudeDegrees>2.13035834021866321563720703125</LongitudeDegrees>
            </Position>
            <AltitudeMeters>748</AltitudeMeters>
            <DistanceMeters>6891.9045016062</DistanceMeters>
          </Trackpoint>
          <Trackpoint>
            <Time>2021-08-31T08:02:15.000Z</Time>
            <Position>
              <LatitudeDegrees>42.01381011866033077239990234375</LatitudeDegrees>
              <LongitudeDegrees>2.1302792988717555999755859375</LongitudeDegrees>
            </Position>
            <AltitudeMeters>747.4000244140625</AltitudeMeters>
            <DistanceMeters>6901.3303661359</DistanceMeters>
          </Trackpoint>
          <Trackpoint>
            <Time>2021-08-31T08:02:17.000Z</Time>
            <Position>
              <LatitudeDegrees>42.0136645250022411346435546875</LatitudeDegrees>
              <LongitudeDegrees>2.13012993335723876953125</LongitudeDegrees>
            </Position>
            <AltitudeMeters>745.5999755859375</AltitudeMeters>
            <DistanceMeters>6921.7060083243</DistanceMeters>
          </Trackpoint>
          <Trackpoint>
            <Time>2021-08-31T08:02:19.000Z</Time>
            <Position>
              <LatitudeDegrees>42.01348842121660709381103515625</LatitudeDegrees>
              <LongitudeDegrees>2.1300234831869602203369140625</LongitudeDegrees>
            </Position>
            <AltitudeMeters>742.79998779296875</AltitudeMeters>
            <DistanceMeters>6943.1927651375</DistanceMeters>
          </Trackpoint>
          <Trackpoint>
            <Time>2021-08-31T08:02:25.000Z</Time>
            <Position>
              <LatitudeDegrees>42.01293773017823696136474609375</LatitudeDegrees>
              <LongitudeDegrees>2.12975584901869297027587890625</LongitudeDegrees>
            </Position>
            <AltitudeMeters>738.5999755859375</AltitudeMeters>
            <DistanceMeters>7008.3592701855</DistanceMeters>
          </Trackpoint>
          <Trackpoint>
            <Time>2021-08-31T08:02:31.000Z</Time>
            <Position>
              <LatitudeDegrees>42.0123670063912868499755859375</LatitudeDegrees>
              <LongitudeDegrees>2.12953657843172550201416015625</LongitudeDegrees>
            </Position>
            <AltitudeMeters>734.79998779296875</AltitudeMeters>
            <DistanceMeters>7074.4193788206</DistanceMeters>
          </Trackpoint>
          <Trackpoint>
            <Time>2021-08-31T08:02:32.000Z</Time>
            <Position>
              <LatitudeDegrees>42.0122701115906238555908203125</LatitudeDegrees>
              <LongitudeDegrees>2.12951126508414745330810546875</LongitudeDegrees>
            </Position>
            <AltitudeMeters>734.20001220703125</AltitudeMeters>
            <DistanceMeters>7085.405141046</DistanceMeters>
          </Trackpoint>
          <Trackpoint>
            <Time>2021-08-31T08:02:37.000Z</Time>
            <Position>
              <LatitudeDegrees>42.01180382631719112396240234375</LatitudeDegrees>
              <LongitudeDegrees>2.12942359037697315216064453125</LongitudeDegrees>
            </Position>
            <AltitudeMeters>734.5999755859375</AltitudeMeters>
            <DistanceMeters>7137.8075276932</DistanceMeters>
          </Trackpoint>
          <Trackpoint>
            <Time>2021-08-31T08:02:43.000Z</Time>
            <Position>
              <LatitudeDegrees>42.01122329570353031158447265625</LatitudeDegrees>
              <LongitudeDegrees>2.12933893315494060516357421875</LongitudeDegrees>
            </Position>
            <AltitudeMeters>728.79998779296875</AltitudeMeters>
            <DistanceMeters>7202.7998956167</DistanceMeters>
          </Trackpoint>
          <Trackpoint>
            <Time>2021-08-31T08:02:50.000Z</Time>
            <Position>
              <LatitudeDegrees>42.01062432490289211273193359375</LatitudeDegrees>
              <LongitudeDegrees>2.129263244569301605224609375</LongitudeDegrees>
            </Position>
            <AltitudeMeters>728.4000244140625</AltitudeMeters>
            <DistanceMeters>7269.7596862077</DistanceMeters>
          </Trackpoint>
          <Trackpoint>
            <Time>2021-08-31T08:02:57.000Z</Time>
            <Position>
              <LatitudeDegrees>42.01008251868188381195068359375</LatitudeDegrees>
              <LongitudeDegrees>2.12926559150218963623046875</LongitudeDegrees>
            </Position>
            <AltitudeMeters>728.79998779296875</AltitudeMeters>
            <DistanceMeters>7330.0640015233</DistanceMeters>
          </Trackpoint>
          <Trackpoint>
            <Time>2021-08-31T08:03:03.000Z</Time>
            <Position>
              <LatitudeDegrees>42.0095701329410076141357421875</LatitudeDegrees>
              <LongitudeDegrees>2.12913391180336475372314453125</LongitudeDegrees>
            </Position>
            <AltitudeMeters>725.79998779296875</AltitudeMeters>
            <DistanceMeters>7388.1238464827</DistanceMeters>
          </Trackpoint>
          <Trackpoint>
            <Time>2021-08-31T08:03:04.000Z</Time>
            <Position>
              <LatitudeDegrees>42.00948304496705532073974609375</LatitudeDegrees>
              <LongitudeDegrees>2.1290837042033672332763671875</LongitudeDegrees>
            </Position>
            <AltitudeMeters>725.5999755859375</AltitudeMeters>
            <DistanceMeters>7398.6688150142</DistanceMeters>
          </Trackpoint>
          <Trackpoint>
            <Time>2021-08-31T08:03:06.000Z</Time>
            <Position>
              <LatitudeDegrees>42.00930803082883358001708984375</LatitudeDegrees>
              <LongitudeDegrees>2.12894548662006855010986328125</LongitudeDegrees>
            </Position>
            <AltitudeMeters>724.79998779296875</AltitudeMeters>
            <DistanceMeters>7421.2542082639</DistanceMeters>
          </Trackpoint>
          <Trackpoint>
            <Time>2021-08-31T08:03:08.000Z</Time>
            <Position>
              <LatitudeDegrees>42.00912899337708950042724609375</LatitudeDegrees>
              <LongitudeDegrees>2.12880684994161128997802734375</LongitudeDegrees>
            </Position>
            <AltitudeMeters>723.20001220703125</AltitudeMeters>
            <DistanceMeters>7444.244389525</DistanceMeters>
          </Trackpoint>
          <Trackpoint>
            <Time>2021-08-31T08:03:10.000Z</Time>
            <Position>
              <LatitudeDegrees>42.00894341804087162017822265625</LatitudeDegrees>
              <LongitudeDegrees>2.12869352661073207855224609375</LongitudeDegrees>
            </Position>
            <AltitudeMeters>721.20001220703125</AltitudeMeters>
            <DistanceMeters>7466.9261336194</DistanceMeters>
          </Trackpoint>
          <Trackpoint>
            <Time>2021-08-31T08:03:12.000Z</Time>
            <Position>
              <LatitudeDegrees>42.00878617353737354278564453125</LatitudeDegrees>
              <LongitudeDegrees>2.1285576559603214263916015625</LongitudeDegrees>
            </Position>
            <AltitudeMeters>719.20001220703125</AltitudeMeters>
            <DistanceMeters>7487.7246138998</DistanceMeters>
          </Trackpoint>
          <Trackpoint>
            <Time>2021-08-31T08:03:13.000Z</Time>
            <Position>
              <LatitudeDegrees>42.00872347690165042877197265625</LatitudeDegrees>
              <LongitudeDegrees>2.12847023271024227142333984375</LongitudeDegrees>
            </Position>
            <AltitudeMeters>718.79998779296875</AltitudeMeters>
            <DistanceMeters>7497.7727622227</DistanceMeters>
          </Trackpoint>
          <Trackpoint>
            <Time>2021-08-31T08:03:14.000Z</Time>
            <Position>
              <LatitudeDegrees>42.0086695812642574310302734375</LatitudeDegrees>
              <LongitudeDegrees>2.1283695660531520843505859375</LongitudeDegrees>
            </Position>
            <AltitudeMeters>718.4000244140625</AltitudeMeters>
            <DistanceMeters>7508.0338874698</DistanceMeters>
          </Trackpoint>
          <Trackpoint>
            <Time>2021-08-31T08:03:16.000Z</Time>
            <Position>
              <LatitudeDegrees>42.0085803978145122528076171875</LatitudeDegrees>
              <LongitudeDegrees>2.128149457275867462158203125</LongitudeDegrees>
            </Position>
            <AltitudeMeters>717.5999755859375</AltitudeMeters>
            <DistanceMeters>7528.7680110188</DistanceMeters>
          </Trackpoint>
          <Trackpoint>
            <Time>2021-08-31T08:03:17.000Z</Time>
            <Position>
              <LatitudeDegrees>42.00853873975574970245361328125</LatitudeDegrees>
              <LongitudeDegrees>2.12803001515567302703857421875</LongitudeDegrees>
            </Position>
            <AltitudeMeters>717</AltitudeMeters>
            <DistanceMeters>7539.6803718113</DistanceMeters>
          </Trackpoint>
          <Trackpoint>
            <Time>2021-08-31T08:03:20.000Z</Time>
            <Position>
              <LatitudeDegrees>42.0083909668028354644775390625</LatitudeDegrees>
              <LongitudeDegrees>2.1276770532131195068359375</LongitudeDegrees>
            </Position>
            <AltitudeMeters>714.4000244140625</AltitudeMeters>
            <DistanceMeters>7573.1860151209</DistanceMeters>
          </Trackpoint>
          <Trackpoint>
            <Time>2021-08-31T08:03:21.000Z</Time>
            <Position>
              <LatitudeDegrees>42.00832466594874858856201171875</LatitudeDegrees>
              <LongitudeDegrees>2.127574793994426727294921875</LongitudeDegrees>
            </Position>
            <AltitudeMeters>713.4000244140625</AltitudeMeters>
            <DistanceMeters>7584.4104361103</DistanceMeters>
          </Trackpoint>
          <Trackpoint>
            <Time>2021-08-31T08:03:26.000Z</Time>
            <Position>
              <LatitudeDegrees>42.00800011865794658660888671875</LatitudeDegrees>
              <LongitudeDegrees>2.126997448503971099853515625</LongitudeDegrees>
            </Position>
            <AltitudeMeters>706.79998779296875</AltitudeMeters>
            <DistanceMeters>7644.2831484807</DistanceMeters>
          </Trackpoint>
          <Trackpoint>
            <Time>2021-08-31T08:03:29.000Z</Time>
            <Position>
              <LatitudeDegrees>42.00783868320286273956298828125</LatitudeDegrees>
              <LongitudeDegrees>2.126661501824855804443359375</LongitudeDegrees>
            </Position>
            <AltitudeMeters>703.20001220703125</AltitudeMeters>
            <DistanceMeters>7677.3708718535</DistanceMeters>
          </Trackpoint>
          <Trackpoint>
            <Time>2021-08-31T08:03:30.000Z</Time>
            <Position>
              <LatitudeDegrees>42.00777799822390079498291015625</LatitudeDegrees>
              <LongitudeDegrees>2.12657558731734752655029296875</LongitudeDegrees>
            </Position>
            <AltitudeMeters>702</AltitudeMeters>
            <DistanceMeters>7687.1747554548</DistanceMeters>
          </Trackpoint>
          <Trackpoint>
            <Time>2021-08-31T08:03:31.000Z</Time>
            <Position>
              <LatitudeDegrees>42.0077106915414333343505859375</LatitudeDegrees>
              <LongitudeDegrees>2.1265047602355480194091796875</LongitudeDegrees>
            </Position>
            <AltitudeMeters>701.20001220703125</AltitudeMeters>
            <DistanceMeters>7696.6845512248</DistanceMeters>
          </Trackpoint>
          <Trackpoint>
            <Time>2021-08-31T08:03:33.000Z</Time>
            <Position>
              <LatitudeDegrees>42.00756610371172428131103515625</LatitudeDegrees>
              <LongitudeDegrees>2.1263922750949859619140625</LongitudeDegrees>
            </Position>
            <AltitudeMeters>699.79998779296875</AltitudeMeters>
            <DistanceMeters>7715.2729036276</DistanceMeters>
          </Trackpoint>
          <Trackpoint>
            <Time>2021-08-31T08:03:34.000Z</Time>
            <Position>
              <LatitudeDegrees>42.0074910856783390045166015625</LatitudeDegrees>
              <LongitudeDegrees>2.1263287402689456939697265625</LongitudeDegrees>
            </Position>
            <AltitudeMeters>699.20001220703125</AltitudeMeters>
            <DistanceMeters>7725.1383059972</DistanceMeters>
          </Trackpoint>
          <Trackpoint>
            <Time>2021-08-31T08:03:36.000Z</Time>
            <Position>
              <LatitudeDegrees>42.0073549635708332061767578125</LatitudeDegrees>
              <LongitudeDegrees>2.12617300450801849365234375</LongitudeDegrees>
            </Position>
            <AltitudeMeters>697.5999755859375</AltitudeMeters>
            <DistanceMeters>7745.0238806069</DistanceMeters>
          </Trackpoint>
          <Trackpoint>
            <Time>2021-08-31T08:03:37.000Z</Time>
            <Position>
              <LatitudeDegrees>42.00729905627667903900146484375</LatitudeDegrees>
              <LongitudeDegrees>2.12608323432505130767822265625</LongitudeDegrees>
            </Position>
            <AltitudeMeters>697.20001220703125</AltitudeMeters>
            <DistanceMeters>7754.7110140531</DistanceMeters>
          </Trackpoint>
          <Trackpoint>
            <Time>2021-08-31T08:03:39.000Z</Time>
            <Position>
              <LatitudeDegrees>42.00719679705798625946044921875</LatitudeDegrees>
              <LongitudeDegrees>2.125918865203857421875</LongitudeDegrees>
            </Position>
            <AltitudeMeters>696.5999755859375</AltitudeMeters>
            <DistanceMeters>7772.4405645554</DistanceMeters>
          </Trackpoint>
          <Trackpoint>
            <Time>2021-08-31T08:03:40.000Z</Time>
            <Position>
              <LatitudeDegrees>42.0071370340883731842041015625</LatitudeDegrees>
              <LongitudeDegrees>2.12586010806262493133544921875</LongitudeDegrees>
            </Position>
            <AltitudeMeters>696.4000244140625</AltitudeMeters>
            <DistanceMeters>7780.6783448679</DistanceMeters>
          </Trackpoint>
          <Trackpoint>
            <Time>2021-08-31T08:03:41.000Z</Time>
            <Position>
              <LatitudeDegrees>42.007070481777191162109375</LatitudeDegrees>
              <LongitudeDegrees>2.12582297623157501220703125</LongitudeDegrees>
            </Position>
            <AltitudeMeters>696.4000244140625</AltitudeMeters>
            <DistanceMeters>7788.6972708781</DistanceMeters>
          </Trackpoint>
          <Trackpoint>
            <Time>2021-08-31T08:03:43.000Z</Time>
            <Position>
              <LatitudeDegrees>42.00691918842494487762451171875</LatitudeDegrees>
              <LongitudeDegrees>2.125760279595851898193359375</LongitudeDegrees>
            </Position>
            <AltitudeMeters>696.20001220703125</AltitudeMeters>
            <DistanceMeters>7806.3167203039</DistanceMeters>
          </Trackpoint>
          <Trackpoint>
            <Time>2021-08-31T08:03:44.000Z</Time>
            <Position>
              <LatitudeDegrees>42.00684375129640102386474609375</LatitudeDegrees>
              <LongitudeDegrees>2.12571091018617153167724609375</LongitudeDegrees>
            </Position>
            <AltitudeMeters>695.79998779296875</AltitudeMeters>
            <DistanceMeters>7815.6525811553</DistanceMeters>
          </Trackpoint>
          <Trackpoint>
            <Time>2021-08-31T08:03:46.000Z</Time>
            <Position>
              <LatitudeDegrees>42.00671936385333538055419921875</LatitudeDegrees>
              <LongitudeDegrees>2.12554729543626308441162109375</LongitudeDegrees>
            </Position>
            <AltitudeMeters>694.4000244140625</AltitudeMeters>
            <DistanceMeters>7835.0119275474</DistanceMeters>
          </Trackpoint>
          <Trackpoint>
            <Time>2021-08-31T08:03:49.000Z</Time>
            <Position>
              <LatitudeDegrees>42.00658424757421016693115234375</LatitudeDegrees>
              <LongitudeDegrees>2.12520900182425975799560546875</LongitudeDegrees>
            </Position>
            <AltitudeMeters>691.4000244140625</AltitudeMeters>
            <DistanceMeters>7866.776161544</DistanceMeters>
          </Trackpoint>
          <Trackpoint>
            <Time>2021-08-31T08:03:53.000Z</Time>
            <Position>
              <LatitudeDegrees>42.00638056732714176177978515625</LatitudeDegrees>
              <LongitudeDegrees>2.12481605820357799530029296875</LongitudeDegrees>
            </Position>
            <AltitudeMeters>686.79998779296875</AltitudeMeters>
            <DistanceMeters>7906.4003643936</DistanceMeters>
          </Trackpoint>
          <Trackpoint>
            <Time>2021-08-31T08:03:54.000Z</Time>
            <Position>
              <LatitudeDegrees>42.0063487999141216278076171875</LatitudeDegrees>
              <LongitudeDegrees>2.12472452782094478607177734375</LongitudeDegrees>
            </Position>
            <AltitudeMeters>685.79998779296875</AltitudeMeters>
            <DistanceMeters>7914.7551528956</DistanceMeters>
          </Trackpoint>
          <Trackpoint>
            <Time>2021-08-31T08:03:56.000Z</Time>
            <Position>
              <LatitudeDegrees>42.00632139109075069427490234375</LatitudeDegrees>
              <LongitudeDegrees>2.12453509680926799774169921875</LongitudeDegrees>
            </Position>
            <AltitudeMeters>684</AltitudeMeters>
            <DistanceMeters>7930.7162467377</DistanceMeters>
          </Trackpoint>
          <Trackpoint>
            <Time>2021-08-31T08:03:58.000Z</Time>
            <Position>
              <LatitudeDegrees>42.0063544996082782745361328125</LatitudeDegrees>
              <LongitudeDegrees>2.1243496052920818328857421875</LongitudeDegrees>
            </Position>
            <AltitudeMeters>682.4000244140625</AltitudeMeters>
            <DistanceMeters>7946.4935433139</DistanceMeters>
          </Trackpoint>
          <Trackpoint>
            <Time>2021-08-31T08:03:59.000Z</Time>
            <Position>
              <LatitudeDegrees>42.00638727284967899322509765625</LatitudeDegrees>
              <LongitudeDegrees>2.12426318787038326263427734375</LongitudeDegrees>
            </Position>
            <AltitudeMeters>682</AltitudeMeters>
            <DistanceMeters>7954.5175351537</DistanceMeters>
          </Trackpoint>
          <Trackpoint>
            <Time>2021-08-31T08:04:03.000Z</Time>
            <Position>
              <LatitudeDegrees>42.0064951479434967041015625</LatitudeDegrees>
              <LongitudeDegrees>2.12399329058825969696044921875</LongitudeDegrees>
            </Position>
            <AltitudeMeters>679.20001220703125</AltitudeMeters>
            <DistanceMeters>7979.8636734879</DistanceMeters>
          </Trackpoint>
          <Trackpoint>
            <Time>2021-08-31T08:04:04.000Z</Time>
            <Position>
              <LatitudeDegrees>42.0065305195748805999755859375</LatitudeDegrees>
              <LongitudeDegrees>2.12397216819226741790771484375</LongitudeDegrees>
            </Position>
            <AltitudeMeters>679</AltitudeMeters>
            <DistanceMeters>7984.1703865054</DistanceMeters>
          </Trackpoint>
          <Trackpoint>
            <Time>2021-08-31T08:04:06.000Z</Time>
            <Position>
              <LatitudeDegrees>42.00660050846636295318603515625</LatitudeDegrees>
              <LongitudeDegrees>2.12398775853216648101806640625</LongitudeDegrees>
            </Position>
            <AltitudeMeters>678.5999755859375</AltitudeMeters>
            <DistanceMeters>7992.0661858804</DistanceMeters>
          </Trackpoint>
          <Trackpoint>
            <Time>2021-08-31T08:04:09.000Z</Time>
            <Position>
              <LatitudeDegrees>42.00666471384465694427490234375</LatitudeDegrees>
              <LongitudeDegrees>2.124095298349857330322265625</LongitudeDegrees>
            </Position>
            <AltitudeMeters>679.4000244140625</AltitudeMeters>
            <DistanceMeters>8003.4757249603</DistanceMeters>
          </Trackpoint>
          <Trackpoint>
            <Time>2021-08-31T08:04:12.000Z</Time>
            <Position>
              <LatitudeDegrees>42.00675121508538722991943359375</LatitudeDegrees>
              <LongitudeDegrees>2.12419697083532810211181640625</LongitudeDegrees>
            </Position>
            <AltitudeMeters>679.79998779296875</AltitudeMeters>
            <DistanceMeters>8016.2588491218</DistanceMeters>
          </Trackpoint>
          <Trackpoint>
            <Time>2021-08-31T08:04:13.000Z</Time>
            <Position>
              <LatitudeDegrees>42.0067950524389743804931640625</LatitudeDegrees>
              <LongitudeDegrees>2.12421633303165435791015625</LongitudeDegrees>
            </Position>
            <AltitudeMeters>679.79998779296875</AltitudeMeters>
            <DistanceMeters>8021.3938099996</DistanceMeters>
          </Trackpoint>
          <Trackpoint>
            <Time>2021-08-31T08:04:18.000Z</Time>
            <Position>
              <LatitudeDegrees>42.00706000439822673797607421875</LatitudeDegrees>
              <LongitudeDegrees>2.12428933940827846527099609375</LongitudeDegrees>
            </Position>
            <AltitudeMeters>679.5999755859375</AltitudeMeters>
            <DistanceMeters>8051.4952373834</DistanceMeters>
          </Trackpoint>
          <Trackpoint>
            <Time>2021-08-31T08:04:22.000Z</Time>
            <Position>
              <LatitudeDegrees>42.007353119552135467529296875</LatitudeDegrees>
              <LongitudeDegrees>2.1243519522249698638916015625</LongitudeDegrees>
            </Position>
            <AltitudeMeters>677.20001220703125</AltitudeMeters>
            <DistanceMeters>8084.5279229718</DistanceMeters>
          </Trackpoint>
          <Trackpoint>
            <Time>2021-08-31T08:04:25.000Z</Time>
            <Position>
              <LatitudeDegrees>42.007593847811222076416015625</LatitudeDegrees>
              <LongitudeDegrees>2.124393694102764129638671875</LongitudeDegrees>
            </Position>
            <AltitudeMeters>676.20001220703125</AltitudeMeters>
            <DistanceMeters>8111.5429332106</DistanceMeters>
          </Trackpoint>
          <Trackpoint>
            <Time>2021-08-31T08:04:26.000Z</Time>
            <Position>
              <LatitudeDegrees>42.0076538622379302978515625</LatitudeDegrees>
              <LongitudeDegrees>2.12438321672379970550537109375</LongitudeDegrees>
            </Position>
            <AltitudeMeters>675.5999755859375</AltitudeMeters>
            <DistanceMeters>8118.2784438857</DistanceMeters>
          </Trackpoint>
          <Trackpoint>
            <Time>2021-08-31T08:04:27.000Z</Time>
            <Position>
              <LatitudeDegrees>42.00770205818116664886474609375</LatitudeDegrees>
              <LongitudeDegrees>2.12435086257755756378173828125</LongitudeDegrees>
            </Position>
            <AltitudeMeters>675.4000244140625</AltitudeMeters>
            <DistanceMeters>8124.2734171339</DistanceMeters>
          </Trackpoint>
          <Trackpoint>
            <Time>2021-08-31T08:04:28.000Z</Time>
            <Position>
              <LatitudeDegrees>42.00773005373775959014892578125</LatitudeDegrees>
              <LongitudeDegrees>2.1242889203131198883056640625</LongitudeDegrees>
            </Position>
            <AltitudeMeters>674.79998779296875</AltitudeMeters>
            <DistanceMeters>8130.2683903822</DistanceMeters>
          </Trackpoint>
          <Trackpoint>
            <Time>2021-08-31T08:04:29.000Z</Time>
            <Position>
              <LatitudeDegrees>42.0077351666986942291259765625</LatitudeDegrees>
              <LongitudeDegrees>2.12420719675719738006591796875</LongitudeDegrees>
            </Position>
            <AltitudeMeters>674</AltitudeMeters>
            <DistanceMeters>8137.0506620816</DistanceMeters>
          </Trackpoint>
          <Trackpoint>
            <Time>2021-08-31T08:04:31.000Z</Time>
            <Position>
              <LatitudeDegrees>42.00770222581923007965087890625</LatitudeDegrees>
              <LongitudeDegrees>2.12402723729610443115234375</LongitudeDegrees>
            </Position>
            <AltitudeMeters>672.20001220703125</AltitudeMeters>
            <DistanceMeters>8152.3791515399</DistanceMeters>
          </Trackpoint>
          <Trackpoint>
            <Time>2021-08-31T08:04:36.000Z</Time>
            <Position>
              <LatitudeDegrees>42.0075698755681514739990234375</LatitudeDegrees>
              <LongitudeDegrees>2.12350311689078807830810546875</LongitudeDegrees>
            </Position>
            <AltitudeMeters>668.79998779296875</AltitudeMeters>
            <DistanceMeters>8198.1603361353</DistanceMeters>
          </Trackpoint>
          <Trackpoint>
            <Time>2021-08-31T08:04:37.000Z</Time>
            <Position>
              <LatitudeDegrees>42.0075541175901889801025390625</LatitudeDegrees>
              <LongitudeDegrees>2.12337948381900787353515625</LongitudeDegrees>
            </Position>
            <AltitudeMeters>667.79998779296875</AltitudeMeters>
            <DistanceMeters>8208.5343638516</DistanceMeters>
          </Trackpoint>
          <Trackpoint>
            <Time>2021-08-31T08:04:39.000Z</Time>
            <Position>
              <LatitudeDegrees>42.0075618289411067962646484375</LatitudeDegrees>
              <LongitudeDegrees>2.12311671115458011627197265625</LongitudeDegrees>
            </Position>
            <AltitudeMeters>666</AltitudeMeters>
            <DistanceMeters>8230.2834441624</DistanceMeters>
          </Trackpoint>
          <Trackpoint>
            <Time>2021-08-31T08:04:42.000Z</Time>
            <Position>
              <LatitudeDegrees>42.00757280923426151275634765625</LatitudeDegrees>
              <LongitudeDegrees>2.1227147988975048065185546875</LongitudeDegrees>
            </Position>
            <AltitudeMeters>664.4000244140625</AltitudeMeters>
            <DistanceMeters>8263.5455091301</DistanceMeters>
          </Trackpoint>
          <Trackpoint>
            <Time>2021-08-31T08:04:43.000Z</Time>
            <Position>
              <LatitudeDegrees>42.00755403377115726470947265625</LatitudeDegrees>
              <LongitudeDegrees>2.122591920197010040283203125</LongitudeDegrees>
            </Position>
            <AltitudeMeters>663.4000244140625</AltitudeMeters>
            <DistanceMeters>8273.9204072603</DistanceMeters>
          </Trackpoint>
          <Trackpoint>
            <Time>2021-08-31T08:04:45.000Z</Time>
            <Position>
              <LatitudeDegrees>42.00750860385596752166748046875</LatitudeDegrees>
              <LongitudeDegrees>2.1223872341215610504150390625</LongitudeDegrees>
            </Position>
            <AltitudeMeters>662.5999755859375</AltitudeMeters>
            <DistanceMeters>8291.5877110263</DistanceMeters>
          </Trackpoint>
          <Trackpoint>
            <Time>2021-08-31T08:04:46.000Z</Time>
            <Position>
              <LatitudeDegrees>42.00747482478618621826171875</LatitudeDegrees>
              <LongitudeDegrees>2.12229444645345211029052734375</LongitudeDegrees>
            </Position>
            <AltitudeMeters>662</AltitudeMeters>
            <DistanceMeters>8300.1327211566</DistanceMeters>
          </Trackpoint>
          <Trackpoint>
            <Time>2021-08-31T08:04:47.000Z</Time>
            <Position>
              <LatitudeDegrees>42.0074280537664890289306640625</LatitudeDegrees>
              <LongitudeDegrees>2.122200988233089447021484375</LongitudeDegrees>
            </Position>
            <AltitudeMeters>661.20001220703125</AltitudeMeters>
            <DistanceMeters>8309.4511553107</DistanceMeters>
          </Trackpoint>
          <Trackpoint>
            <Time>2021-08-31T08:04:49.000Z</Time>
            <Position>
              <LatitudeDegrees>42.00730676762759685516357421875</LatitudeDegrees>
              <LongitudeDegrees>2.1220227889716625213623046875</LongitudeDegrees>
            </Position>
            <AltitudeMeters>659.4000244140625</AltitudeMeters>
            <DistanceMeters>8329.4370603796</DistanceMeters>
          </Trackpoint>
          <Trackpoint>
            <Time>2021-08-31T08:04:50.000Z</Time>
            <Position>
              <LatitudeDegrees>42.0072490163147449493408203125</LatitudeDegrees>
              <LongitudeDegrees>2.1219362877309322357177734375</LongitudeDegrees>
            </Position>
            <AltitudeMeters>658.79998779296875</AltitudeMeters>
            <DistanceMeters>8339.0549657176</DistanceMeters>
          </Trackpoint>
          <Trackpoint>
            <Time>2021-08-31T08:04:52.000Z</Time>
            <Position>
              <LatitudeDegrees>42.007160671055316925048828125</LatitudeDegrees>
              <LongitudeDegrees>2.12175750173628330230712890625</LongitudeDegrees>
            </Position>
            <AltitudeMeters>657.5999755859375</AltitudeMeters>
            <DistanceMeters>8356.8122526542</DistanceMeters>
          </Trackpoint>
          <Trackpoint>
            <Time>2021-08-31T08:04:53.000Z</Time>
            <Position>
              <LatitudeDegrees>42.00713225640356540679931640625</LatitudeDegrees>
              <LongitudeDegrees>2.1216509677469730377197265625</LongitudeDegrees>
            </Position>
            <AltitudeMeters>656.79998779296875</AltitudeMeters>
            <DistanceMeters>8366.1732281275</DistanceMeters>
          </Trackpoint>
          <Trackpoint>
            <Time>2021-08-31T08:04:54.000Z</Time>
            <Position>
              <LatitudeDegrees>42.00711733661592006683349609375</LatitudeDegrees>
              <LongitudeDegrees>2.12153571657836437225341796875</LongitudeDegrees>
            </Position>
            <AltitudeMeters>656.4000244140625</AltitudeMeters>
            <DistanceMeters>8375.848235746</DistanceMeters>
          </Trackpoint>
          <Trackpoint>
            <Time>2021-08-31T08:04:56.000Z</Time>
            <Position>
              <LatitudeDegrees>42.00712622143328189849853515625</LatitudeDegrees>
              <LongitudeDegrees>2.12129834108054637908935546875</LongitudeDegrees>
            </Position>
            <AltitudeMeters>655.5999755859375</AltitudeMeters>
            <DistanceMeters>8395.5047591132</DistanceMeters>
          </Trackpoint>
          <Trackpoint>
            <Time>2021-08-31T08:04:58.000Z</Time>
            <Position>
              <LatitudeDegrees>42.00718246400356292724609375</LatitudeDegrees>
              <LongitudeDegrees>2.1210746280848979949951171875</LongitudeDegrees>
            </Position>
            <AltitudeMeters>653.20001220703125</AltitudeMeters>
            <DistanceMeters>8415.0368524369</DistanceMeters>
          </Trackpoint>
          <Trackpoint>
            <Time>2021-08-31T08:04:59.000Z</Time>
            <Position>
              <LatitudeDegrees>42.00722395442426204681396484375</LatitudeDegrees>
              <LongitudeDegrees>2.12098200805485248565673828125</LongitudeDegrees>
            </Position>
            <AltitudeMeters>652.79998779296875</AltitudeMeters>
            <DistanceMeters>8423.9814864312</DistanceMeters>
          </Trackpoint>
          <Trackpoint>
            <Time>2021-08-31T08:05:00.000Z</Time>
            <Position>
              <LatitudeDegrees>42.00727005489170551300048828125</LatitudeDegrees>
              <LongitudeDegrees>2.12090154178440570831298828125</LongitudeDegrees>
            </Position>
            <AltitudeMeters>652.79998779296875</AltitudeMeters>
            <DistanceMeters>8432.3847713718</DistanceMeters>
          </Trackpoint>
          <Trackpoint>
            <Time>2021-08-31T08:05:02.000Z</Time>
            <Position>
              <LatitudeDegrees>42.00739947147667407989501953125</LatitudeDegrees>
              <LongitudeDegrees>2.120803892612457275390625</LongitudeDegrees>
            </Position>
            <AltitudeMeters>652</AltitudeMeters>
            <DistanceMeters>8448.8986536714</DistanceMeters>
          </Trackpoint>
          <Trackpoint>
            <Time>2021-08-31T08:05:06.000Z</Time>
            <Position>
              <LatitudeDegrees>42.0077033154666423797607421875</LatitudeDegrees>
              <LongitudeDegrees>2.1207564510405063629150390625</LongitudeDegrees>
            </Position>
            <AltitudeMeters>651.20001220703125</AltitudeMeters>
            <DistanceMeters>8482.9439551416</DistanceMeters>
          </Trackpoint>
          <Trackpoint>
            <Time>2021-08-31T08:05:07.000Z</Time>
            <Position>
              <LatitudeDegrees>42.00776324607431888580322265625</LatitudeDegrees>
              <LongitudeDegrees>2.12073138915002346038818359375</LongitudeDegrees>
            </Position>
            <AltitudeMeters>650.5999755859375</AltitudeMeters>
            <DistanceMeters>8489.9295498266</DistanceMeters>
          </Trackpoint>
          <Trackpoint>
            <Time>2021-08-31T08:05:08.000Z</Time>
            <Position>
              <LatitudeDegrees>42.0077998749911785125732421875</LatitudeDegrees>
              <LongitudeDegrees>2.120693586766719818115234375</LongitudeDegrees>
            </Position>
            <AltitudeMeters>650</AltitudeMeters>
            <DistanceMeters>8495.0662689516</DistanceMeters>
          </Trackpoint>
          <Trackpoint>
            <Time>2021-08-31T08:05:09.000Z</Time>
            <Position>
              <LatitudeDegrees>42.0078136213123798370361328125</LatitudeDegrees>
              <LongitudeDegrees>2.12064404971897602081298828125</LongitudeDegrees>
            </Position>
            <AltitudeMeters>649.4000244140625</AltitudeMeters>
            <DistanceMeters>8499.4395631229</DistanceMeters>
          </Trackpoint>
          <Trackpoint>
            <Time>2021-08-31T08:05:10.000Z</Time>
            <Position>
              <LatitudeDegrees>42.007805071771144866943359375</LatitudeDegrees>
              <LongitudeDegrees>2.120597027242183685302734375</LongitudeDegrees>
            </Position>
            <AltitudeMeters>649</AltitudeMeters>
            <DistanceMeters>8503.4442373624</DistanceMeters>
          </Trackpoint>
          <Trackpoint>
            <Time>2021-08-31T08:05:12.000Z</Time>
            <Position>
              <LatitudeDegrees>42.007736004889011383056640625</LatitudeDegrees>
              <LongitudeDegrees>2.1205531060695648193359375</LongitudeDegrees>
            </Position>
            <AltitudeMeters>648.79998779296875</AltitudeMeters>
            <DistanceMeters>8511.9468717783</DistanceMeters>
          </Trackpoint>
          <Trackpoint>
            <Time>2021-08-31T08:05:13.000Z</Time>
            <Position>
              <LatitudeDegrees>42.00768680311739444732666015625</LatitudeDegrees>
              <LongitudeDegrees>2.1205455623567104339599609375</LongitudeDegrees>
            </Position>
            <AltitudeMeters>648.79998779296875</AltitudeMeters>
            <DistanceMeters>8517.4592403467</DistanceMeters>
          </Trackpoint>
          <Trackpoint>
            <Time>2021-08-31T08:05:18.000Z</Time>
            <Position>
              <LatitudeDegrees>42.00737365521490573883056640625</LatitudeDegrees>
              <LongitudeDegrees>2.12049879133701324462890625</LongitudeDegrees>
            </Position>
            <AltitudeMeters>650.20001220703125</AltitudeMeters>
            <DistanceMeters>8552.5273168636</DistanceMeters>
          </Trackpoint>
          <Trackpoint>
            <Time>2021-08-31T08:05:24.000Z</Time>
            <Position>
              <LatitudeDegrees>42.00701725669205188751220703125</LatitudeDegrees>
              <LongitudeDegrees>2.12043148465454578399658203125</LongitudeDegrees>
            </Position>
            <AltitudeMeters>647.4000244140625</AltitudeMeters>
            <DistanceMeters>8592.5839795202</DistanceMeters>
          </Trackpoint>
          <Trackpoint>
            <Time>2021-08-31T08:05:26.000Z</Time>
            <Position>
              <LatitudeDegrees>42.00691399164497852325439453125</LatitudeDegrees>
              <LongitudeDegrees>2.12035051546990871429443359375</LongitudeDegrees>
            </Position>
            <AltitudeMeters>646.79998779296875</AltitudeMeters>
            <DistanceMeters>8605.8863619382</DistanceMeters>
          </Trackpoint>
          <Trackpoint>
            <Time>2021-08-31T08:05:28.000Z</Time>
            <Position>
              <LatitudeDegrees>42.00683117844164371490478515625</LatitudeDegrees>
              <LongitudeDegrees>2.1202488429844379425048828125</LongitudeDegrees>
            </Position>
            <AltitudeMeters>646.79998779296875</AltitudeMeters>
            <DistanceMeters>8618.3631198431</DistanceMeters>
          </Trackpoint>
          <Trackpoint>
            <Time>2021-08-31T08:05:29.000Z</Time>
            <Position>
              <LatitudeDegrees>42.0068034343421459197998046875</LatitudeDegrees>
              <LongitudeDegrees>2.1202019043266773223876953125</LongitudeDegrees>
            </Position>
            <AltitudeMeters>646.79998779296875</AltitudeMeters>
            <DistanceMeters>8623.3236599659</DistanceMeters>
          </Trackpoint>
          <Trackpoint>
            <Time>2021-08-31T08:05:31.000Z</Time>
            <Position>
              <LatitudeDegrees>42.0067957229912281036376953125</LatitudeDegrees>
              <LongitudeDegrees>2.12010559625923633575439453125</LongitudeDegrees>
            </Position>
            <AltitudeMeters>647.79998779296875</AltitudeMeters>
            <DistanceMeters>8631.3346994295</DistanceMeters>
          </Trackpoint>
          <Trackpoint>
            <Time>2021-08-31T08:05:33.000Z</Time>
            <Position>
              <LatitudeDegrees>42.00686336494982242584228515625</LatitudeDegrees>
              <LongitudeDegrees>2.120073325932025909423828125</LongitudeDegrees>
            </Position>
            <AltitudeMeters>649</AltitudeMeters>
            <DistanceMeters>8639.3220325311</DistanceMeters>
          </Trackpoint>
          <Trackpoint>
            <Time>2021-08-31T08:05:34.000Z</Time>
            <Position>
              <LatitudeDegrees>42.00689588673412799835205078125</LatitudeDegrees>
              <LongitudeDegrees>2.12009537033736705780029296875</LongitudeDegrees>
            </Position>
            <AltitudeMeters>649</AltitudeMeters>
            <DistanceMeters>8643.3737826437</DistanceMeters>
          </Trackpoint>
          <Trackpoint>
            <Time>2021-08-31T08:05:36.000Z</Time>
            <Position>
              <LatitudeDegrees>42.0069459266960620880126953125</LatitudeDegrees>
              <LongitudeDegrees>2.120168209075927734375</LongitudeDegrees>
            </Position>
            <AltitudeMeters>648.5999755859375</AltitudeMeters>
            <DistanceMeters>8651.5780613941</DistanceMeters>
          </Trackpoint>
          <Trackpoint>
            <Time>2021-08-31T08:05:37.000Z</Time>
            <Position>
              <LatitudeDegrees>42.0069806277751922607421875</LatitudeDegrees>
              <LongitudeDegrees>2.1202022396028041839599609375</LongitudeDegrees>
            </Position>
            <AltitudeMeters>648.5999755859375</AltitudeMeters>
            <DistanceMeters>8656.3568754025</DistanceMeters>
          </Trackpoint>
          <Trackpoint>
            <Time>2021-08-31T08:05:39.000Z</Time>
            <Position>
              <LatitudeDegrees>42.00706536881625652313232421875</LatitudeDegrees>
              <LongitudeDegrees>2.1202253736555576324462890625</LongitudeDegrees>
            </Position>
            <AltitudeMeters>649.4000244140625</AltitudeMeters>
            <DistanceMeters>8665.9804123827</DistanceMeters>
          </Trackpoint>
          <Trackpoint>
            <Time>2021-08-31T08:05:41.000Z</Time>
            <Position>
              <LatitudeDegrees>42.0071537978947162628173828125</LatitudeDegrees>
              <LongitudeDegrees>2.12018237449228763580322265625</LongitudeDegrees>
            </Position>
            <AltitudeMeters>650</AltitudeMeters>
            <DistanceMeters>8676.4454382838</DistanceMeters>
          </Trackpoint>
          <Trackpoint>
            <Time>2021-08-31T08:05:42.000Z</Time>
            <Position>
              <LatitudeDegrees>42.00719193555414676666259765625</LatitudeDegrees>
              <LongitudeDegrees>2.12014230899512767791748046875</LongitudeDegrees>
            </Position>
            <AltitudeMeters>650.4000244140625</AltitudeMeters>
            <DistanceMeters>8681.8310306875</DistanceMeters>
          </Trackpoint>
          <Trackpoint>
            <Time>2021-08-31T08:05:44.000Z</Time>
            <Position>
              <LatitudeDegrees>42.00726871378719806671142578125</LatitudeDegrees>
              <LongitudeDegrees>2.12005379609763622283935546875</LongitudeDegrees>
            </Position>
            <AltitudeMeters>651.20001220703125</AltitudeMeters>
            <DistanceMeters>8693.0831727867</DistanceMeters>
          </Trackpoint>
          <Trackpoint>
            <Time>2021-08-31T08:05:46.000Z</Time>
            <Position>
              <LatitudeDegrees>42.007362507283687591552734375</LatitudeDegrees>
              <LongitudeDegrees>2.119976766407489776611328125</LongitudeDegrees>
            </Position>
            <AltitudeMeters>652.20001220703125</AltitudeMeters>
            <DistanceMeters>8705.3124869974</DistanceMeters>
          </Trackpoint>
          <Trackpoint>
            <Time>2021-08-31T08:05:47.000Z</Time>
            <Position>
              <LatitudeDegrees>42.007414139807224273681640625</LatitudeDegrees>
              <LongitudeDegrees>2.1199501119554042816162109375</LongitudeDegrees>
            </Position>
            <AltitudeMeters>652</AltitudeMeters>
            <DistanceMeters>8711.4679886633</DistanceMeters>
          </Trackpoint>
          <Trackpoint>
            <Time>2021-08-31T08:05:48.000Z</Time>
            <Position>
              <LatitudeDegrees>42.00746702961623668670654296875</LatitudeDegrees>
              <LongitudeDegrees>2.1199330128729343414306640625</LongitudeDegrees>
            </Position>
            <AltitudeMeters>652.4000244140625</AltitudeMeters>
            <DistanceMeters>8717.5221674091</DistanceMeters>
          </Trackpoint>
          <Trackpoint>
            <Time>2021-08-31T08:05:50.000Z</Time>
            <Position>
              <LatitudeDegrees>42.00757850892841815948486328125</LatitudeDegrees>
              <LongitudeDegrees>2.11993108503520488739013671875</LongitudeDegrees>
            </Position>
            <AltitudeMeters>652.4000244140625</AltitudeMeters>
            <DistanceMeters>8729.9310700005</DistanceMeters>
          </Trackpoint>
          <Trackpoint>
            <Time>2021-08-31T08:05:51.000Z</Time>
            <Position>
              <LatitudeDegrees>42.0076339133083820343017578125</LatitudeDegrees>
              <LongitudeDegrees>2.11993963457643985748291015625</LongitudeDegrees>
            </Position>
            <AltitudeMeters>652.20001220703125</AltitudeMeters>
            <DistanceMeters>8736.1377040407</DistanceMeters>
          </Trackpoint>
          <Trackpoint>
            <Time>2021-08-31T08:05:54.000Z</Time>
            <Position>
              <LatitudeDegrees>42.0077941752970218658447265625</LatitudeDegrees>
              <LongitudeDegrees>2.11996830068528652191162109375</LongitudeDegrees>
            </Position>
            <AltitudeMeters>652</AltitudeMeters>
            <DistanceMeters>8754.1321609964</DistanceMeters>
          </Trackpoint>
          <Trackpoint>
            <Time>2021-08-31T08:05:56.000Z</Time>
            <Position>
              <LatitudeDegrees>42.0078937523066997528076171875</LatitudeDegrees>
              <LongitudeDegrees>2.1199608407914638519287109375</LongitudeDegrees>
            </Position>
            <AltitudeMeters>652</AltitudeMeters>
            <DistanceMeters>8765.232810669</DistanceMeters>
          </Trackpoint>
          <Trackpoint>
            <Time>2021-08-31T08:05:57.000Z</Time>
            <Position>
              <LatitudeDegrees>42.007938511669635772705078125</LatitudeDegrees>
              <LongitudeDegrees>2.1199413947761058807373046875</LongitudeDegrees>
            </Position>
            <AltitudeMeters>652.4000244140625</AltitudeMeters>
            <DistanceMeters>8770.4679116238</DistanceMeters>
          </Trackpoint>
          <Trackpoint>
            <Time>2021-08-31T08:05:58.000Z</Time>
            <Position>
              <LatitudeDegrees>42.0079728774726390838623046875</LatitudeDegrees>
              <LongitudeDegrees>2.11990744806826114654541015625</LongitudeDegrees>
            </Position>
            <AltitudeMeters>653</AltitudeMeters>
            <DistanceMeters>8775.2116391137</DistanceMeters>
          </Trackpoint>
          <Trackpoint>
            <Time>2021-08-31T08:06:00.000Z</Time>
            <Position>
              <LatitudeDegrees>42.0079953409731388092041015625</LatitudeDegrees>
              <LongitudeDegrees>2.119823880493640899658203125</LongitudeDegrees>
            </Position>
            <AltitudeMeters>654.20001220703125</AltitudeMeters>
            <DistanceMeters>8782.561327358</DistanceMeters>
          </Trackpoint>
          <Trackpoint>
            <Time>2021-08-31T08:06:03.000Z</Time>
            <Position>
              <LatitudeDegrees>42.0079504139721393585205078125</LatitudeDegrees>
              <LongitudeDegrees>2.11973025463521480560302734375</LongitudeDegrees>
            </Position>
            <AltitudeMeters>655.4000244140625</AltitudeMeters>
            <DistanceMeters>8791.7789186519</DistanceMeters>
          </Trackpoint>
          <Trackpoint>
            <Time>2021-08-31T08:06:07.000Z</Time>
            <Position>
              <LatitudeDegrees>42.00780129991471767425537109375</LatitudeDegrees>
              <LongitudeDegrees>2.11969488300383090972900390625</LongitudeDegrees>
            </Position>
            <AltitudeMeters>655.79998779296875</AltitudeMeters>
            <DistanceMeters>8808.6310966761</DistanceMeters>
          </Trackpoint>
          <Trackpoint>
            <Time>2021-08-31T08:06:09.000Z</Time>
            <Position>
              <LatitudeDegrees>42.00771144591271877288818359375</LatitudeDegrees>
              <LongitudeDegrees>2.1196782030165195465087890625</LongitudeDegrees>
            </Position>
            <AltitudeMeters>656.20001220703125</AltitudeMeters>
            <DistanceMeters>8818.7263154824</DistanceMeters>
          </Trackpoint>
          <Trackpoint>
            <Time>2021-08-31T08:06:11.000Z</Time>
            <Position>
              <LatitudeDegrees>42.00762410648167133331298828125</LatitudeDegrees>
              <LongitudeDegrees>2.119639478623867034912109375</LongitudeDegrees>
            </Position>
            <AltitudeMeters>656.5999755859375</AltitudeMeters>
            <DistanceMeters>8828.9610058417</DistanceMeters>
          </Trackpoint>
          <Trackpoint>
            <Time>2021-08-31T08:06:12.000Z</Time>
            <Position>
              <LatitudeDegrees>42.0075849629938602447509765625</LatitudeDegrees>
              <LongitudeDegrees>2.11961123161017894744873046875</LongitudeDegrees>
            </Position>
            <AltitudeMeters>657</AltitudeMeters>
            <DistanceMeters>8833.9051353843</DistanceMeters>
          </Trackpoint>
          <Trackpoint>
            <Time>2021-08-31T08:06:17.000Z</Time>
            <Position>
              <LatitudeDegrees>42.007400058209896087646484375</LatitudeDegrees>
              <LongitudeDegrees>2.1194357983767986297607421875</LongitudeDegrees>
            </Position>
            <AltitudeMeters>659.5999755859375</AltitudeMeters>
            <DistanceMeters>8859.0856009794</DistanceMeters>
          </Trackpoint>
          <Trackpoint>
            <Time>2021-08-31T08:06:19.000Z</Time>
            <Position>
              <LatitudeDegrees>42.0073398761451244354248046875</LatitudeDegrees>
              <LongitudeDegrees>2.119357846677303314208984375</LongitudeDegrees>
            </Position>
            <AltitudeMeters>660.5999755859375</AltitudeMeters>
            <DistanceMeters>8868.3826914771</DistanceMeters>
          </Trackpoint>
          <Trackpoint>
            <Time>2021-08-31T08:06:24.000Z</Time>
            <Position>
              <LatitudeDegrees>42.00719579122960567474365234375</LatitudeDegrees>
              <LongitudeDegrees>2.1191985905170440673828125</LongitudeDegrees>
            </Position>
            <AltitudeMeters>661.79998779296875</AltitudeMeters>
            <DistanceMeters>8889.1350987053</DistanceMeters>
          </Trackpoint>
          <Trackpoint>
            <Time>2021-08-31T08:06:29.000Z</Time>
            <Position>
              <LatitudeDegrees>42.0070143230259418487548828125</LatitudeDegrees>
              <LongitudeDegrees>2.1190502308309078216552734375</LongitudeDegrees>
            </Position>
            <AltitudeMeters>662.5999755859375</AltitudeMeters>
            <DistanceMeters>8912.7675375956</DistanceMeters>
          </Trackpoint>
          <Trackpoint>
            <Time>2021-08-31T08:06:31.000Z</Time>
            <Position>
              <LatitudeDegrees>42.00696520507335662841796875</LatitudeDegrees>
              <LongitudeDegrees>2.11894637905061244964599609375</LongitudeDegrees>
            </Position>
            <AltitudeMeters>663</AltitudeMeters>
            <DistanceMeters>8922.9491522798</DistanceMeters>
          </Trackpoint>
          <Trackpoint>
            <Time>2021-08-31T08:06:32.000Z</Time>
            <Position>
              <LatitudeDegrees>42.00695313513278961181640625</LatitudeDegrees>
              <LongitudeDegrees>2.1188846044242382049560546875</LongitudeDegrees>
            </Position>
            <AltitudeMeters>663.4000244140625</AltitudeMeters>
            <DistanceMeters>8928.2314752737</DistanceMeters>
          </Trackpoint>
          <Trackpoint>
            <Time>2021-08-31T08:06:33.000Z</Time>
            <Position>
              <LatitudeDegrees>42.00694651342928409576416015625</LatitudeDegrees>
              <LongitudeDegrees>2.1188232488930225372314453125</LongitudeDegrees>
            </Position>
            <AltitudeMeters>664</AltitudeMeters>
            <DistanceMeters>8933.3585165772</DistanceMeters>
          </Trackpoint>
          <Trackpoint>
            <Time>2021-08-31T08:06:35.000Z</Time>
            <Position>
              <LatitudeDegrees>42.00695523060858249664306640625</LatitudeDegrees>
              <LongitudeDegrees>2.11870296858251094818115234375</LongitudeDegrees>
            </Position>
            <AltitudeMeters>664.5999755859375</AltitudeMeters>
            <DistanceMeters>8943.3530503644</DistanceMeters>
          </Trackpoint>
          <Trackpoint>
            <Time>2021-08-31T08:06:36.000Z</Time>
            <Position>
              <LatitudeDegrees>42.0069714076817035675048828125</LatitudeDegrees>
              <LongitudeDegrees>2.11865116842091083526611328125</LongitudeDegrees>
            </Position>
            <AltitudeMeters>664.79998779296875</AltitudeMeters>
            <DistanceMeters>8947.9996526475</DistanceMeters>
          </Trackpoint>
          <Trackpoint>
            <Time>2021-08-31T08:06:40.000Z</Time>
            <Position>
              <LatitudeDegrees>42.0070776902139186859130859375</LatitudeDegrees>
              <LongitudeDegrees>2.1185225062072277069091796875</LongitudeDegrees>
            </Position>
            <AltitudeMeters>667.79998779296875</AltitudeMeters>
            <DistanceMeters>8963.9108821155</DistanceMeters>
          </Trackpoint>
          <Trackpoint>
            <Time>2021-08-31T08:06:45.000Z</Time>
            <Position>
              <LatitudeDegrees>42.007284052670001983642578125</LatitudeDegrees>
              <LongitudeDegrees>2.118469364941120147705078125</LongitudeDegrees>
            </Position>
            <AltitudeMeters>670</AltitudeMeters>
            <DistanceMeters>8987.2959506304</DistanceMeters>
          </Trackpoint>
          <Trackpoint>
            <Time>2021-08-31T08:06:46.000Z</Time>
            <Position>
              <LatitudeDegrees>42.00732990168035030364990234375</LatitudeDegrees>
              <LongitudeDegrees>2.1184554509818553924560546875</LongitudeDegrees>
            </Position>
            <AltitudeMeters>670.4000244140625</AltitudeMeters>
            <DistanceMeters>8992.5267375335</DistanceMeters>
          </Trackpoint>
          <Trackpoint>
            <Time>2021-08-31T08:06:52.000Z</Time>
            <Position>
              <LatitudeDegrees>42.00759879313409328460693359375</LatitudeDegrees>
              <LongitudeDegrees>2.11835746653378009796142578125</LongitudeDegrees>
            </Position>
            <AltitudeMeters>670</AltitudeMeters>
            <DistanceMeters>9023.5325434153</DistanceMeters>
          </Trackpoint>
          <Trackpoint>
            <Time>2021-08-31T08:06:56.000Z</Time>
            <Position>
              <LatitudeDegrees>42.007794342935085296630859375</LatitudeDegrees>
              <LongitudeDegrees>2.1182878129184246063232421875</LongitudeDegrees>
            </Position>
            <AltitudeMeters>669.20001220703125</AltitudeMeters>
            <DistanceMeters>9046.0470574269</DistanceMeters>
          </Trackpoint>
          <Trackpoint>
            <Time>2021-08-31T08:06:58.000Z</Time>
            <Position>
              <LatitudeDegrees>42.00788444839417934417724609375</LatitudeDegrees>
              <LongitudeDegrees>2.11822151206433773040771484375</LongitudeDegrees>
            </Position>
            <AltitudeMeters>669.20001220703125</AltitudeMeters>
            <DistanceMeters>9057.4771556763</DistanceMeters>
          </Trackpoint>
          <Trackpoint>
            <Time>2021-08-31T08:06:59.000Z</Time>
            <Position>
              <LatitudeDegrees>42.007924430072307586669921875</LatitudeDegrees>
              <LongitudeDegrees>2.118180692195892333984375</LongitudeDegrees>
            </Position>
            <AltitudeMeters>669.4000244140625</AltitudeMeters>
            <DistanceMeters>9063.0635627677</DistanceMeters>
          </Trackpoint>
          <Trackpoint>
            <Time>2021-08-31T08:07:03.000Z</Time>
            <Position>
              <LatitudeDegrees>42.0080566965043544769287109375</LatitudeDegrees>
              <LongitudeDegrees>2.1179786883294582366943359375</LongitudeDegrees>
            </Position>
            <AltitudeMeters>671.5999755859375</AltitudeMeters>
            <DistanceMeters>9085.3306559185</DistanceMeters>
          </Trackpoint>
          <Trackpoint>
            <Time>2021-08-31T08:07:07.000Z</Time>
            <Position>
              <LatitudeDegrees>42.00817362405359745025634765625</LatitudeDegrees>
              <LongitudeDegrees>2.11774407885968685150146484375</LongitudeDegrees>
            </Position>
            <AltitudeMeters>674.4000244140625</AltitudeMeters>
            <DistanceMeters>9108.6937036805</DistanceMeters>
          </Trackpoint>
          <Trackpoint>
            <Time>2021-08-31T08:07:09.000Z</Time>
            <Position>
              <LatitudeDegrees>42.0082171261310577392578125</LatitudeDegrees>
              <LongitudeDegrees>2.117618434131145477294921875</LongitudeDegrees>
            </Position>
            <AltitudeMeters>675.4000244140625</AltitudeMeters>
            <DistanceMeters>9120.1569350056</DistanceMeters>
          </Trackpoint>
          <Trackpoint>
            <Time>2021-08-31T08:07:11.000Z</Time>
            <Position>
              <LatitudeDegrees>42.008237577974796295166015625</LatitudeDegrees>
              <LongitudeDegrees>2.11749027483165264129638671875</LongitudeDegrees>
            </Position>
            <AltitudeMeters>676</AltitudeMeters>
            <DistanceMeters>9130.9974799569</DistanceMeters>
          </Trackpoint>
          <Trackpoint>
            <Time>2021-08-31T08:07:13.000Z</Time>
            <Position>
              <LatitudeDegrees>42.0082343928515911102294921875</LatitudeDegrees>
              <LongitudeDegrees>2.11736018769443035125732421875</LongitudeDegrees>
            </Position>
            <AltitudeMeters>676.5999755859375</AltitudeMeters>
            <DistanceMeters>9141.761536388</DistanceMeters>
          </Trackpoint>
          <Trackpoint>
            <Time>2021-08-31T08:07:16.000Z</Time>
            <Position>
              <LatitudeDegrees>42.00817479752004146575927734375</LatitudeDegrees>
              <LongitudeDegrees>2.11717025376856327056884765625</LongitudeDegrees>
            </Position>
            <AltitudeMeters>676.5999755859375</AltitudeMeters>
            <DistanceMeters>9158.8126762698</DistanceMeters>
          </Trackpoint>
          <Trackpoint>
            <Time>2021-08-31T08:07:17.000Z</Time>
            <Position>
              <LatitudeDegrees>42.0081408508121967315673828125</LatitudeDegrees>
              <LongitudeDegrees>2.11710940115153789520263671875</LongitudeDegrees>
            </Position>
            <AltitudeMeters>676.5999755859375</AltitudeMeters>
            <DistanceMeters>9165.1059993413</DistanceMeters>
          </Trackpoint>
          <Trackpoint>
            <Time>2021-08-31T08:07:18.000Z</Time>
            <Position>
              <LatitudeDegrees>42.00809919275343418121337890625</LatitudeDegrees>
              <LongitudeDegrees>2.11705810390412807464599609375</LongitudeDegrees>
            </Position>
            <AltitudeMeters>677</AltitudeMeters>
            <DistanceMeters>9171.3907073191</DistanceMeters>
          </Trackpoint>
          <Trackpoint>
            <Time>2021-08-31T08:07:21.000Z</Time>
            <Position>
              <LatitudeDegrees>42.00794496573507785797119140625</LatitudeDegrees>
              <LongitudeDegrees>2.11694561876356601715087890625</LongitudeDegrees>
            </Position>
            <AltitudeMeters>677</AltitudeMeters>
            <DistanceMeters>9190.9154021223</DistanceMeters>
          </Trackpoint>
          <Trackpoint>
            <Time>2021-08-31T08:07:23.000Z</Time>
            <Position>
              <LatitudeDegrees>42.00783197768032550811767578125</LatitudeDegrees>
              <LongitudeDegrees>2.11688987910747528076171875</LongitudeDegrees>
            </Position>
            <AltitudeMeters>676.79998779296875</AltitudeMeters>
            <DistanceMeters>9204.3091132823</DistanceMeters>
          </Trackpoint>
          <Trackpoint>
            <Time>2021-08-31T08:07:26.000Z</Time>
            <Position>
              <LatitudeDegrees>42.0076419599354267120361328125</LatitudeDegrees>
              <LongitudeDegrees>2.1168662421405315399169921875</LongitudeDegrees>
            </Position>
            <AltitudeMeters>675.79998779296875</AltitudeMeters>
            <DistanceMeters>9225.5485937117</DistanceMeters>
          </Trackpoint>
          <Trackpoint>
            <Time>2021-08-31T08:07:30.000Z</Time>
            <Position>
              <LatitudeDegrees>42.007321603596210479736328125</LatitudeDegrees>
              <LongitudeDegrees>2.116894908249378204345703125</LongitudeDegrees>
            </Position>
            <AltitudeMeters>674.4000244140625</AltitudeMeters>
            <DistanceMeters>9261.2836925698</DistanceMeters>
          </Trackpoint>
          <Trackpoint>
            <Time>2021-08-31T08:07:34.000Z</Time>
            <Position>
              <LatitudeDegrees>42.006988339126110076904296875</LatitudeDegrees>
              <LongitudeDegrees>2.116872780025005340576171875</LongitudeDegrees>
            </Position>
            <AltitudeMeters>674.20001220703125</AltitudeMeters>
            <DistanceMeters>9298.4219999633</DistanceMeters>
          </Trackpoint>
          <Trackpoint>
            <Time>2021-08-31T08:07:35.000Z</Time>
            <Position>
              <LatitudeDegrees>42.00690946541726589202880859375</LatitudeDegrees>
              <LongitudeDegrees>2.1168769709765911102294921875</LongitudeDegrees>
            </Position>
            <AltitudeMeters>674</AltitudeMeters>
            <DistanceMeters>9307.2077323427</DistanceMeters>
          </Trackpoint>
          <Trackpoint>
            <Time>2021-08-31T08:07:37.000Z</Time>
            <Position>
              <LatitudeDegrees>42.0067632012069225311279296875</LatitudeDegrees>
              <LongitudeDegrees>2.1169051341712474822998046875</LongitudeDegrees>
            </Position>
            <AltitudeMeters>672.5999755859375</AltitudeMeters>
            <DistanceMeters>9323.6531204347</DistanceMeters>
          </Trackpoint>
          <Trackpoint>
            <Time>2021-08-31T08:07:39.000Z</Time>
            <Position>
              <LatitudeDegrees>42.006635963916778564453125</LatitudeDegrees>
              <LongitudeDegrees>2.11697462014853954315185546875</LongitudeDegrees>
            </Position>
            <AltitudeMeters>670.79998779296875</AltitudeMeters>
            <DistanceMeters>9338.9361815581</DistanceMeters>
          </Trackpoint>
          <Trackpoint>
            <Time>2021-08-31T08:07:43.000Z</Time>
            <Position>
              <LatitudeDegrees>42.00642230920493602752685546875</LatitudeDegrees>
              <LongitudeDegrees>2.117040418088436126708984375</LongitudeDegrees>
            </Position>
            <AltitudeMeters>668</AltitudeMeters>
            <DistanceMeters>9363.3308551121</DistanceMeters>
          </Trackpoint>
          <Trackpoint>
            <Time>2021-08-31T08:07:47.000Z</Time>
            <Position>
              <LatitudeDegrees>42.00628534890711307525634765625</LatitudeDegrees>
              <LongitudeDegrees>2.11696271784603595733642578125</LongitudeDegrees>
            </Position>
            <AltitudeMeters>668.79998779296875</AltitudeMeters>
            <DistanceMeters>9379.8739662702</DistanceMeters>
          </Trackpoint>
          <Trackpoint>
            <Time>2021-08-31T08:07:53.000Z</Time>
            <Position>
              <LatitudeDegrees>42.00612030923366546630859375</LatitudeDegrees>
              <LongitudeDegrees>2.1167886257171630859375</LongitudeDegrees>
            </Position>
            <AltitudeMeters>671.5999755859375</AltitudeMeters>
            <DistanceMeters>9403.2136183987</DistanceMeters>
          </Trackpoint>
          <Trackpoint>
            <Time>2021-08-31T08:07:54.000Z</Time>
            <Position>
              <LatitudeDegrees>42.00608049519360065460205078125</LatitudeDegrees>
              <LongitudeDegrees>2.11675836704671382904052734375</LongitudeDegrees>
            </Position>
            <AltitudeMeters>671.79998779296875</AltitudeMeters>
            <DistanceMeters>9408.3026516312</DistanceMeters>
          </Trackpoint>
          <Trackpoint>
            <Time>2021-08-31T08:07:56.000Z</Time>
            <Position>
              <LatitudeDegrees>42.005980499088764190673828125</LatitudeDegrees>
              <LongitudeDegrees>2.11671679280698299407958984375</LongitudeDegrees>
            </Position>
            <AltitudeMeters>672.4000244140625</AltitudeMeters>
            <DistanceMeters>9419.9514695422</DistanceMeters>
          </Trackpoint>
          <Trackpoint>
            <Time>2021-08-31T08:07:57.000Z</Time>
            <Position>
              <LatitudeDegrees>42.00592375360429286956787109375</LatitudeDegrees>
              <LongitudeDegrees>2.11670623160898685455322265625</LongitudeDegrees>
            </Position>
            <AltitudeMeters>672.20001220703125</AltitudeMeters>
            <DistanceMeters>9426.3274717497</DistanceMeters>
          </Trackpoint>
          <Trackpoint>
            <Time>2021-08-31T08:07:58.000Z</Time>
            <Position>
              <LatitudeDegrees>42.0058675110340118408203125</LatitudeDegrees>
              <LongitudeDegrees>2.11669516749680042266845703125</LongitudeDegrees>
            </Position>
            <AltitudeMeters>672.20001220703125</AltitudeMeters>
            <DistanceMeters>9432.6551379034</DistanceMeters>
          </Trackpoint>
          <Trackpoint>
            <Time>2021-08-31T08:08:00.000Z</Time>
            <Position>
              <LatitudeDegrees>42.00576332397758960723876953125</LatitudeDegrees>
              <LongitudeDegrees>2.11663364432752132415771484375</LongitudeDegrees>
            </Position>
            <AltitudeMeters>672.4000244140625</AltitudeMeters>
            <DistanceMeters>9445.3186732537</DistanceMeters>
          </Trackpoint>
          <Trackpoint>
            <Time>2021-08-31T08:08:01.000Z</Time>
            <Position>
              <LatitudeDegrees>42.0057174749672412872314453125</LatitudeDegrees>
              <LongitudeDegrees>2.116585783660411834716796875</LongitudeDegrees>
            </Position>
            <AltitudeMeters>672.79998779296875</AltitudeMeters>
            <DistanceMeters>9451.7776943228</DistanceMeters>
          </Trackpoint>
          <Trackpoint>
            <Time>2021-08-31T08:08:02.000Z</Time>
            <Position>
              <LatitudeDegrees>42.005672715604305267333984375</LatitudeDegrees>
              <LongitudeDegrees>2.11652819998562335968017578125</LongitudeDegrees>
            </Position>
            <AltitudeMeters>673</AltitudeMeters>
            <DistanceMeters>9458.6708983854</DistanceMeters>
          </Trackpoint>
          <Trackpoint>
            <Time>2021-08-31T08:08:05.000Z</Time>
            <Position>
              <LatitudeDegrees>42.00554522685706615447998046875</LatitudeDegrees>
              <LongitudeDegrees>2.11630440317094326019287109375</LongitudeDegrees>
            </Position>
            <AltitudeMeters>672.79998779296875</AltitudeMeters>
            <DistanceMeters>9481.993520767</DistanceMeters>
          </Trackpoint>
          <Trackpoint>
            <Time>2021-08-31T08:08:07.000Z</Time>
            <Position>
              <LatitudeDegrees>42.00543944723904132843017578125</LatitudeDegrees>
              <LongitudeDegrees>2.1161702089011669158935546875</LongitudeDegrees>
            </Position>
            <AltitudeMeters>671.79998779296875</AltitudeMeters>
            <DistanceMeters>9498.1737548896</DistanceMeters>
          </Trackpoint>
          <Trackpoint>
            <Time>2021-08-31T08:08:09.000Z</Time>
            <Position>
              <LatitudeDegrees>42.0053228549659252166748046875</LatitudeDegrees>
              <LongitudeDegrees>2.11608211509883403778076171875</LongitudeDegrees>
            </Position>
            <AltitudeMeters>670.20001220703125</AltitudeMeters>
            <DistanceMeters>9513.0556786518</DistanceMeters>
          </Trackpoint>
          <Trackpoint>
            <Time>2021-08-31T08:08:12.000Z</Time>
            <Position>
              <LatitudeDegrees>42.00513216666877269744873046875</LatitudeDegrees>
              <LongitudeDegrees>2.1160022355616092681884765625</LongitudeDegrees>
            </Position>
            <AltitudeMeters>667.79998779296875</AltitudeMeters>
            <DistanceMeters>9535.284212631</DistanceMeters>
          </Trackpoint>
          <Trackpoint>
            <Time>2021-08-31T08:08:13.000Z</Time>
            <Position>
              <LatitudeDegrees>42.00507248751819133758544921875</LatitudeDegrees>
              <LongitudeDegrees>2.1159495972096920013427734375</LongitudeDegrees>
            </Position>
            <AltitudeMeters>666.79998779296875</AltitudeMeters>
            <DistanceMeters>9543.2256264777</DistanceMeters>
          </Trackpoint>
          <Trackpoint>
            <Time>2021-08-31T08:08:14.000Z</Time>
            <Position>
              <LatitudeDegrees>42.00502035208046436309814453125</LatitudeDegrees>
              <LongitudeDegrees>2.115874327719211578369140625</LongitudeDegrees>
            </Position>
            <AltitudeMeters>665.79998779296875</AltitudeMeters>
            <DistanceMeters>9551.736222412</DistanceMeters>
          </Trackpoint>
          <Trackpoint>
            <Time>2021-08-31T08:08:16.000Z</Time>
            <Position>
              <LatitudeDegrees>42.00493787415325641632080078125</LatitudeDegrees>
              <LongitudeDegrees>2.1156907640397548675537109375</LongitudeDegrees>
            </Position>
            <AltitudeMeters>663.5999755859375</AltitudeMeters>
            <DistanceMeters>9569.4779924669</DistanceMeters>
          </Trackpoint>
          <Trackpoint>
            <Time>2021-08-31T08:08:18.000Z</Time>
            <Position>
              <LatitudeDegrees>42.00486126355826854705810546875</LatitudeDegrees>
              <LongitudeDegrees>2.1154865808784961700439453125</LongitudeDegrees>
            </Position>
            <AltitudeMeters>661.20001220703125</AltitudeMeters>
            <DistanceMeters>9588.3959474226</DistanceMeters>
          </Trackpoint>
          <Trackpoint>
            <Time>2021-08-31T08:08:20.000Z</Time>
            <Position>
              <LatitudeDegrees>42.0047445036470890045166015625</LatitudeDegrees>
              <LongitudeDegrees>2.11529706604778766632080078125</LongitudeDegrees>
            </Position>
            <AltitudeMeters>660</AltitudeMeters>
            <DistanceMeters>9608.7569594196</DistanceMeters>
          </Trackpoint>
          <Trackpoint>
            <Time>2021-08-31T08:08:23.000Z</Time>
            <Position>
              <LatitudeDegrees>42.004526741802692413330078125</LatitudeDegrees>
              <LongitudeDegrees>2.11507938802242279052734375</LongitudeDegrees>
            </Position>
            <AltitudeMeters>659.20001220703125</AltitudeMeters>
            <DistanceMeters>9638.9494455216</DistanceMeters>
          </Trackpoint>
          <Trackpoint>
            <Time>2021-08-31T08:08:24.000Z</Time>
            <Position>
              <LatitudeDegrees>42.00444971211254596710205078125</LatitudeDegrees>
              <LongitudeDegrees>2.11502708494663238525390625</LongitudeDegrees>
            </Position>
            <AltitudeMeters>659</AltitudeMeters>
            <DistanceMeters>9648.5523170008</DistanceMeters>
          </Trackpoint>
          <Trackpoint>
            <Time>2021-08-31T08:08:29.000Z</Time>
            <Position>
              <LatitudeDegrees>42.00408543460071086883544921875</LatitudeDegrees>
              <LongitudeDegrees>2.1148614585399627685546875</LongitudeDegrees>
            </Position>
            <AltitudeMeters>657.79998779296875</AltitudeMeters>
            <DistanceMeters>9691.3487454128</DistanceMeters>
          </Trackpoint>
          <Trackpoint>
            <Time>2021-08-31T08:08:35.000Z</Time>
            <Position>
              <LatitudeDegrees>42.00370506383478641510009765625</LatitudeDegrees>
              <LongitudeDegrees>2.1147439442574977874755859375</LongitudeDegrees>
            </Position>
            <AltitudeMeters>657.4000244140625</AltitudeMeters>
            <DistanceMeters>9734.7860376013</DistanceMeters>
          </Trackpoint>
          <Trackpoint>
            <Time>2021-08-31T08:08:41.000Z</Time>
            <Position>
              <LatitudeDegrees>42.00325361452996730804443359375</LatitudeDegrees>
              <LongitudeDegrees>2.11466942913830280303955078125</LongitudeDegrees>
            </Position>
            <AltitudeMeters>655.79998779296875</AltitudeMeters>
            <DistanceMeters>9785.4097749686</DistanceMeters>
          </Trackpoint>
          <Trackpoint>
            <Time>2021-08-31T08:08:42.000Z</Time>
            <Position>
              <LatitudeDegrees>42.00317800976336002349853515625</LatitudeDegrees>
              <LongitudeDegrees>2.11464294232428073883056640625</LongitudeDegrees>
            </Position>
            <AltitudeMeters>655.5999755859375</AltitudeMeters>
            <DistanceMeters>9794.1051087785</DistanceMeters>
          </Trackpoint>
          <Trackpoint>
            <Time>2021-08-31T08:08:44.000Z</Time>
            <Position>
              <LatitudeDegrees>42.0030436478555202484130859375</LatitudeDegrees>
              <LongitudeDegrees>2.114554010331630706787109375</LongitudeDegrees>
            </Position>
            <AltitudeMeters>655.20001220703125</AltitudeMeters>
            <DistanceMeters>9810.7705839048</DistanceMeters>
          </Trackpoint>
          <Trackpoint>
            <Time>2021-08-31T08:08:51.000Z</Time>
            <Position>
              <LatitudeDegrees>42.002594880759716033935546875</LatitudeDegrees>
              <LongitudeDegrees>2.11429391987621784210205078125</LongitudeDegrees>
            </Position>
            <AltitudeMeters>654.4000244140625</AltitudeMeters>
            <DistanceMeters>9865.1547635701</DistanceMeters>
          </Trackpoint>
          <Trackpoint>
            <Time>2021-08-31T08:08:55.000Z</Time>
            <Position>
              <LatitudeDegrees>42.00234350748360157012939453125</LatitudeDegrees>
              <LongitudeDegrees>2.11430297233164310455322265625</LongitudeDegrees>
            </Position>
            <AltitudeMeters>654.4000244140625</AltitudeMeters>
            <DistanceMeters>9893.1431558325</DistanceMeters>
          </Trackpoint>
          <Trackpoint>
            <Time>2021-08-31T08:08:59.000Z</Time>
            <Position>
              <LatitudeDegrees>42.00209674425423145294189453125</LatitudeDegrees>
              <LongitudeDegrees>2.11433415301144123077392578125</LongitudeDegrees>
            </Position>
            <AltitudeMeters>656</AltitudeMeters>
            <DistanceMeters>9920.7292326134</DistanceMeters>
          </Trackpoint>
          <Trackpoint>
            <Time>2021-08-31T08:09:00.000Z</Time>
            <Position>
              <LatitudeDegrees>42.002036981284618377685546875</LatitudeDegrees>
              <LongitudeDegrees>2.1143312193453311920166015625</LongitudeDegrees>
            </Position>
            <AltitudeMeters>656.20001220703125</AltitudeMeters>
            <DistanceMeters>9927.3858522594</DistanceMeters>
          </Trackpoint>
          <Trackpoint>
            <Time>2021-08-31T08:09:03.000Z</Time>
            <Position>
              <LatitudeDegrees>42.00186741538345813751220703125</LatitudeDegrees>
              <LongitudeDegrees>2.1142960153520107269287109375</LongitudeDegrees>
            </Position>
            <AltitudeMeters>657</AltitudeMeters>
            <DistanceMeters>9946.4822028823</DistanceMeters>
          </Trackpoint>
          <Trackpoint>
            <Time>2021-08-31T08:09:05.000Z</Time>
            <Position>
              <LatitudeDegrees>42.001759372651576995849609375</LatitudeDegrees>
              <LongitudeDegrees>2.11426977999508380889892578125</LongitudeDegrees>
            </Position>
            <AltitudeMeters>657.5999755859375</AltitudeMeters>
            <DistanceMeters>9958.7015446813</DistanceMeters>
          </Trackpoint>
          <Trackpoint>
            <Time>2021-08-31T08:09:13.000Z</Time>
            <Position>
              <LatitudeDegrees>42.001317478716373443603515625</LatitudeDegrees>
              <LongitudeDegrees>2.11423373781144618988037109375</LongitudeDegrees>
            </Position>
            <AltitudeMeters>660.20001220703125</AltitudeMeters>
            <DistanceMeters>10007.97543892</DistanceMeters>
          </Trackpoint>
          <Trackpoint>
            <Time>2021-08-31T08:09:19.000Z</Time>
            <Position>
              <LatitudeDegrees>42.000962086021900177001953125</LatitudeDegrees>
              <LongitudeDegrees>2.11418059654533863067626953125</LongitudeDegrees>
            </Position>
            <AltitudeMeters>662</AltitudeMeters>
            <DistanceMeters>10047.774619052</DistanceMeters>
          </Trackpoint>
          <Trackpoint>
            <Time>2021-08-31T08:09:26.000Z</Time>
            <Position>
              <LatitudeDegrees>42.00050485320389270782470703125</LatitudeDegrees>
              <LongitudeDegrees>2.11408185772597789764404296875</LongitudeDegrees>
            </Position>
            <AltitudeMeters>659.79998779296875</AltitudeMeters>
            <DistanceMeters>10099.316604357</DistanceMeters>
          </Trackpoint>
          <Trackpoint>
            <Time>2021-08-31T08:09:31.000Z</Time>
            <Position>
              <LatitudeDegrees>42.00017695315182209014892578125</LatitudeDegrees>
              <LongitudeDegrees>2.11395244114100933074951171875</LongitudeDegrees>
            </Position>
            <AltitudeMeters>658</AltitudeMeters>
            <DistanceMeters>10137.349852254</DistanceMeters>
          </Trackpoint>
          <Trackpoint>
            <Time>2021-08-31T08:09:36.000Z</Time>
            <Position>
              <LatitudeDegrees>41.999824158847332000732421875</LatitudeDegrees>
              <LongitudeDegrees>2.1138648502528667449951171875</LongitudeDegrees>
            </Position>
            <AltitudeMeters>654.4000244140625</AltitudeMeters>
            <DistanceMeters>10177.279281589</DistanceMeters>
          </Trackpoint>
          <Trackpoint>
            <Time>2021-08-31T08:09:40.000Z</Time>
            <Position>
              <LatitudeDegrees>41.99957261793315410614013671875</LatitudeDegrees>
              <LongitudeDegrees>2.1137065999209880828857421875</LongitudeDegrees>
            </Position>
            <AltitudeMeters>652.20001220703125</AltitudeMeters>
            <DistanceMeters>10208.185031312</DistanceMeters>
          </Trackpoint>
          <Trackpoint>
            <Time>2021-08-31T08:09:44.000Z</Time>
            <Position>
              <LatitudeDegrees>41.9993036426603794097900390625</LatitudeDegrees>
              <LongitudeDegrees>2.11349026300013065338134765625</LongitudeDegrees>
            </Position>
            <AltitudeMeters>651</AltitudeMeters>
            <DistanceMeters>10243.062683581</DistanceMeters>
          </Trackpoint>
          <Trackpoint>
            <Time>2021-08-31T08:09:45.000Z</Time>
            <Position>
              <LatitudeDegrees>41.9992473162710666656494140625</LatitudeDegrees>
              <LongitudeDegrees>2.1134202741086483001708984375</LongitudeDegrees>
            </Position>
            <AltitudeMeters>650.5999755859375</AltitudeMeters>
            <DistanceMeters>10251.595003095</DistanceMeters>
          </Trackpoint>
          <Trackpoint>
            <Time>2021-08-31T08:09:47.000Z</Time>
            <Position>
              <LatitudeDegrees>41.9991591386497020721435546875</LatitudeDegrees>
              <LongitudeDegrees>2.11326378397643566131591796875</LongitudeDegrees>
            </Position>
            <AltitudeMeters>650</AltitudeMeters>
            <DistanceMeters>10267.838735231</DistanceMeters>
          </Trackpoint>
          <Trackpoint>
            <Time>2021-08-31T08:09:48.000Z</Time>
            <Position>
              <LatitudeDegrees>41.99913608841598033905029296875</LatitudeDegrees>
              <LongitudeDegrees>2.11316772736608982086181640625</LongitudeDegrees>
            </Position>
            <AltitudeMeters>649.79998779296875</AltitudeMeters>
            <DistanceMeters>10276.187577071</DistanceMeters>
          </Trackpoint>
          <Trackpoint>
            <Time>2021-08-31T08:09:49.000Z</Time>
            <Position>
              <LatitudeDegrees>41.99913441203534603118896484375</LatitudeDegrees>
              <LongitudeDegrees>2.11306798271834850311279296875</LongitudeDegrees>
            </Position>
            <AltitudeMeters>649.79998779296875</AltitudeMeters>
            <DistanceMeters>10284.439595398</DistanceMeters>
          </Trackpoint>
          <Trackpoint>
            <Time>2021-08-31T08:09:51.000Z</Time>
            <Position>
              <LatitudeDegrees>41.99918839149177074432373046875</LatitudeDegrees>
              <LongitudeDegrees>2.11289078928530216217041015625</LongitudeDegrees>
            </Position>
            <AltitudeMeters>649.79998779296875</AltitudeMeters>
            <DistanceMeters>10300.279154859</DistanceMeters>
          </Trackpoint>
          <Trackpoint>
            <Time>2021-08-31T08:09:56.000Z</Time>
            <Position>
              <LatitudeDegrees>41.999430544674396514892578125</LatitudeDegrees>
              <LongitudeDegrees>2.11252517066895961761474609375</LongitudeDegrees>
            </Position>
            <AltitudeMeters>647.4000244140625</AltitudeMeters>
            <DistanceMeters>10340.788186095</DistanceMeters>
          </Trackpoint>
          <Trackpoint>
            <Time>2021-08-31T08:09:57.000Z</Time>
            <Position>
              <LatitudeDegrees>41.999485529959201812744140625</LatitudeDegrees>
              <LongitudeDegrees>2.112460546195507049560546875</LongitudeDegrees>
            </Position>
            <AltitudeMeters>646.5999755859375</AltitudeMeters>
            <DistanceMeters>10348.913942611</DistanceMeters>
          </Trackpoint>
          <Trackpoint>
            <Time>2021-08-31T08:10:00.000Z</Time>
            <Position>
              <LatitudeDegrees>41.99967906810343265533447265625</LatitudeDegrees>
              <LongitudeDegrees>2.11229114793241024017333984375</LongitudeDegrees>
            </Position>
            <AltitudeMeters>646.20001220703125</AltitudeMeters>
            <DistanceMeters>10374.611246559</DistanceMeters>
          </Trackpoint>
          <Trackpoint>
            <Time>2021-08-31T08:10:02.000Z</Time>
            <Position>
              <LatitudeDegrees>41.99978627264499664306640625</LatitudeDegrees>
              <LongitudeDegrees>2.1121351607143878936767578125</LongitudeDegrees>
            </Position>
            <AltitudeMeters>646.20001220703125</AltitudeMeters>
            <DistanceMeters>10392.185280659</DistanceMeters>
          </Trackpoint>
          <Trackpoint>
            <Time>2021-08-31T08:10:03.000Z</Time>
            <Position>
              <LatitudeDegrees>41.99982960708439350128173828125</LatitudeDegrees>
              <LongitudeDegrees>2.11203776299953460693359375</LongitudeDegrees>
            </Position>
            <AltitudeMeters>646</AltitudeMeters>
            <DistanceMeters>10401.57467022</DistanceMeters>
          </Trackpoint>
          <Trackpoint>
            <Time>2021-08-31T08:10:05.000Z</Time>
            <Position>
              <LatitudeDegrees>41.99989615939557552337646484375</LatitudeDegrees>
              <LongitudeDegrees>2.1118367649614810943603515625</LongitudeDegrees>
            </Position>
            <AltitudeMeters>655</AltitudeMeters>
            <DistanceMeters>10419.775449168</DistanceMeters>
          </Trackpoint>
          <Trackpoint>
            <Time>2021-08-31T08:10:07.000Z</Time>
            <Position>
              <LatitudeDegrees>41.9999041222035884857177734375</LatitudeDegrees>
              <LongitudeDegrees>2.1116382814943790435791015625</LongitudeDegrees>
            </Position>
            <AltitudeMeters>654.20001220703125</AltitudeMeters>
            <DistanceMeters>10436.216443915</DistanceMeters>
          </Trackpoint>
          <Trackpoint>
            <Time>2021-08-31T08:10:10.000Z</Time>
            <Position>
              <LatitudeDegrees>41.999785266816616058349609375</LatitudeDegrees>
              <LongitudeDegrees>2.11139269173145294189453125</LongitudeDegrees>
            </Position>
            <AltitudeMeters>643</AltitudeMeters>
            <DistanceMeters>10460.457943142</DistanceMeters>
          </Trackpoint>
          <Trackpoint>
            <Time>2021-08-31T08:10:11.000Z</Time>
            <Position>
              <LatitudeDegrees>41.9997472129762172698974609375</LatitudeDegrees>
              <LongitudeDegrees>2.1113040111958980560302734375</LongitudeDegrees>
            </Position>
            <AltitudeMeters>642.4000244140625</AltitudeMeters>
            <DistanceMeters>10468.928123621</DistanceMeters>
          </Trackpoint>
          <Trackpoint>
            <Time>2021-08-31T08:10:13.000Z</Time>
            <Position>
              <LatitudeDegrees>41.99971796013414859771728515625</LatitudeDegrees>
              <LongitudeDegrees>2.111077867448329925537109375</LongitudeDegrees>
            </Position>
            <AltitudeMeters>641.20001220703125</AltitudeMeters>
            <DistanceMeters>10487.91445164</DistanceMeters>
          </Trackpoint>
          <Trackpoint>
            <Time>2021-08-31T08:10:15.000Z</Time>
            <Position>
              <LatitudeDegrees>41.99971276335418224334716796875</LatitudeDegrees>
              <LongitudeDegrees>2.11082397960126399993896484375</LongitudeDegrees>
            </Position>
            <AltitudeMeters>640.79998779296875</AltitudeMeters>
            <DistanceMeters>10508.922449072</DistanceMeters>
          </Trackpoint>
          <Trackpoint>
            <Time>2021-08-31T08:10:17.000Z</Time>
            <Position>
              <LatitudeDegrees>41.99966230429708957672119140625</LatitudeDegrees>
              <LongitudeDegrees>2.11059984751045703887939453125</LongitudeDegrees>
            </Position>
            <AltitudeMeters>639.79998779296875</AltitudeMeters>
            <DistanceMeters>10528.293453087</DistanceMeters>
          </Trackpoint>
          <Trackpoint>
            <Time>2021-08-31T08:10:19.000Z</Time>
            <Position>
              <LatitudeDegrees>41.99954378418624401092529296875</LatitudeDegrees>
              <LongitudeDegrees>2.11045785807073116302490234375</LongitudeDegrees>
            </Position>
            <AltitudeMeters>638.79998779296875</AltitudeMeters>
            <DistanceMeters>10545.955644934</DistanceMeters>
          </Trackpoint>
          <Trackpoint>
            <Time>2021-08-31T08:10:24.000Z</Time>
            <Position>
              <LatitudeDegrees>41.99913910590112209320068359375</LatitudeDegrees>
              <LongitudeDegrees>2.11029893718659877777099609375</LongitudeDegrees>
            </Position>
            <AltitudeMeters>638</AltitudeMeters>
            <DistanceMeters>10592.876041426</DistanceMeters>
          </Trackpoint>
          <Trackpoint>
            <Time>2021-08-31T08:10:27.000Z</Time>
            <Position>
              <LatitudeDegrees>41.99890173040330410003662109375</LatitudeDegrees>
              <LongitudeDegrees>2.1102405153214931488037109375</LongitudeDegrees>
            </Position>
            <AltitudeMeters>637.4000244140625</AltitudeMeters>
            <DistanceMeters>10619.734666054</DistanceMeters>
          </Trackpoint>
          <Trackpoint>
            <Time>2021-08-31T08:10:29.000Z</Time>
            <Position>
              <LatitudeDegrees>41.998742558062076568603515625</LatitudeDegrees>
              <LongitudeDegrees>2.11023439653217792510986328125</LongitudeDegrees>
            </Position>
            <AltitudeMeters>636.20001220703125</AltitudeMeters>
            <DistanceMeters>10637.45810362</DistanceMeters>
          </Trackpoint>
          <Trackpoint>
            <Time>2021-08-31T08:10:32.000Z</Time>
            <Position>
              <LatitudeDegrees>41.99849135242402553558349609375</LatitudeDegrees>
              <LongitudeDegrees>2.11019583977758884429931640625</LongitudeDegrees>
            </Position>
            <AltitudeMeters>634</AltitudeMeters>
            <DistanceMeters>10665.598849592</DistanceMeters>
          </Trackpoint>
          <Trackpoint>
            <Time>2021-08-31T08:10:33.000Z</Time>
            <Position>
              <LatitudeDegrees>41.998400576412677764892578125</LatitudeDegrees>
              <LongitudeDegrees>2.1101560257375240325927734375</LongitudeDegrees>
            </Position>
            <AltitudeMeters>633.20001220703125</AltitudeMeters>
            <DistanceMeters>10676.225708771</DistanceMeters>
          </Trackpoint>
          <Trackpoint>
            <Time>2021-08-31T08:10:36.000Z</Time>
            <Position>
              <LatitudeDegrees>41.9981274940073490142822265625</LatitudeDegrees>
              <LongitudeDegrees>2.11001127026975154876708984375</LongitudeDegrees>
            </Position>
            <AltitudeMeters>631</AltitudeMeters>
            <DistanceMeters>10708.893759285</DistanceMeters>
          </Trackpoint>
          <Trackpoint>
            <Time>2021-08-31T08:10:37.000Z</Time>
            <Position>
              <LatitudeDegrees>41.99802942574024200439453125</LatitudeDegrees>
              <LongitudeDegrees>2.10998327471315860748291015625</LongitudeDegrees>
            </Position>
            <AltitudeMeters>630.4000244140625</AltitudeMeters>
            <DistanceMeters>10720.052016049</DistanceMeters>
          </Trackpoint>
          <Trackpoint>
            <Time>2021-08-31T08:10:39.000Z</Time>
            <Position>
              <LatitudeDegrees>41.9978384859859943389892578125</LatitudeDegrees>
              <LongitudeDegrees>2.10992694832384586334228515625</LongitudeDegrees>
            </Position>
            <AltitudeMeters>629</AltitudeMeters>
            <DistanceMeters>10741.808776083</DistanceMeters>
          </Trackpoint>
          <Trackpoint>
            <Time>2021-08-31T08:10:41.000Z</Time>
            <Position>
              <LatitudeDegrees>41.99766732752323150634765625</LatitudeDegrees>
              <LongitudeDegrees>2.10981152951717376708984375</LongitudeDegrees>
            </Position>
            <AltitudeMeters>627.79998779296875</AltitudeMeters>
            <DistanceMeters>10763.117232239</DistanceMeters>
          </Trackpoint>
          <Trackpoint>
            <Time>2021-08-31T08:10:45.000Z</Time>
            <Position>
              <LatitudeDegrees>41.9973623938858509063720703125</LatitudeDegrees>
              <LongitudeDegrees>2.10955261252820491790771484375</LongitudeDegrees>
            </Position>
            <AltitudeMeters>627.4000244140625</AltitudeMeters>
            <DistanceMeters>10803.249456255</DistanceMeters>
          </Trackpoint>
          <Trackpoint>
            <Time>2021-08-31T08:10:47.000Z</Time>
            <Position>
              <LatitudeDegrees>41.997197605669498443603515625</LatitudeDegrees>
              <LongitudeDegrees>2.1094837971031665802001953125</LongitudeDegrees>
            </Position>
            <AltitudeMeters>627.4000244140625</AltitudeMeters>
            <DistanceMeters>10822.453788634</DistanceMeters>
          </Trackpoint>
          <Trackpoint>
            <Time>2021-08-31T08:10:48.000Z</Time>
            <Position>
              <LatitudeDegrees>41.99711169116199016571044921875</LatitudeDegrees>
              <LongitudeDegrees>2.10947667248547077178955078125</LongitudeDegrees>
            </Position>
            <AltitudeMeters>627</AltitudeMeters>
            <DistanceMeters>10832.034536363</DistanceMeters>
          </Trackpoint>
          <Trackpoint>
            <Time>2021-08-31T08:10:49.000Z</Time>
            <Position>
              <LatitudeDegrees>41.99702837504446506500244140625</LatitudeDegrees>
              <LongitudeDegrees>2.10949025116860866546630859375</LongitudeDegrees>
            </Position>
            <AltitudeMeters>627</AltitudeMeters>
            <DistanceMeters>10841.375715554</DistanceMeters>
          </Trackpoint>
          <Trackpoint>
            <Time>2021-08-31T08:10:51.000Z</Time>
            <Position>
              <LatitudeDegrees>41.99687649495899677276611328125</LatitudeDegrees>
              <LongitudeDegrees>2.1095558814704418182373046875</LongitudeDegrees>
            </Position>
            <AltitudeMeters>627.5999755859375</AltitudeMeters>
            <DistanceMeters>10859.130713968</DistanceMeters>
          </Trackpoint>
          <Trackpoint>
            <Time>2021-08-31T08:10:58.000Z</Time>
            <Position>
              <LatitudeDegrees>41.9963793642818927764892578125</LatitudeDegrees>
              <LongitudeDegrees>2.109760232269763946533203125</LongitudeDegrees>
            </Position>
            <AltitudeMeters>627.4000244140625</AltitudeMeters>
            <DistanceMeters>10916.986689343</DistanceMeters>
          </Trackpoint>
          <Trackpoint>
            <Time>2021-08-31T08:11:00.000Z</Time>
            <Position>
              <LatitudeDegrees>41.996248774230480194091796875</LatitudeDegrees>
              <LongitudeDegrees>2.10979132913053035736083984375</LongitudeDegrees>
            </Position>
            <AltitudeMeters>627</AltitudeMeters>
            <DistanceMeters>10931.747369695</DistanceMeters>
          </Trackpoint>
          <Trackpoint>
            <Time>2021-08-31T08:11:02.000Z</Time>
            <Position>
              <LatitudeDegrees>41.99611566960811614990234375</LatitudeDegrees>
              <LongitudeDegrees>2.109838686883449554443359375</LongitudeDegrees>
            </Position>
            <AltitudeMeters>626.20001220703125</AltitudeMeters>
            <DistanceMeters>10947.071440235</DistanceMeters>
          </Trackpoint>
          <Trackpoint>
            <Time>2021-08-31T08:11:03.000Z</Time>
            <Position>
              <LatitudeDegrees>41.9960460998117923736572265625</LatitudeDegrees>
              <LongitudeDegrees>2.10985385812819004058837890625</LongitudeDegrees>
            </Position>
            <AltitudeMeters>626.20001220703125</AltitudeMeters>
            <DistanceMeters>10954.915606277</DistanceMeters>
          </Trackpoint>
          <Trackpoint>
            <Time>2021-08-31T08:11:06.000Z</Time>
            <Position>
              <LatitudeDegrees>41.9958365522325038909912109375</LatitudeDegrees>
              <LongitudeDegrees>2.10984815843403339385986328125</LongitudeDegrees>
            </Position>
            <AltitudeMeters>625.5999755859375</AltitudeMeters>
            <DistanceMeters>10978.243455016</DistanceMeters>
          </Trackpoint>
          <Trackpoint>
            <Time>2021-08-31T08:11:07.000Z</Time>
            <Position>
              <LatitudeDegrees>41.99576857499778270721435546875</LatitudeDegrees>
              <LongitudeDegrees>2.1098495833575725555419921875</LongitudeDegrees>
            </Position>
            <AltitudeMeters>625.4000244140625</AltitudeMeters>
            <DistanceMeters>10985.811066582</DistanceMeters>
          </Trackpoint>
          <Trackpoint>
            <Time>2021-08-31T08:11:09.000Z</Time>
            <Position>
              <LatitudeDegrees>41.99563396163284778594970703125</LatitudeDegrees>
              <LongitudeDegrees>2.10989601910114288330078125</LongitudeDegrees>
            </Position>
            <AltitudeMeters>624.79998779296875</AltitudeMeters>
            <DistanceMeters>11001.2785436</DistanceMeters>
          </Trackpoint>
          <Trackpoint>
            <Time>2021-08-31T08:11:10.000Z</Time>
            <Position>
              <LatitudeDegrees>41.9955700077116489410400390625</LatitudeDegrees>
              <LongitudeDegrees>2.10993549786508083343505859375</LongitudeDegrees>
            </Position>
            <AltitudeMeters>624.20001220703125</AltitudeMeters>
            <DistanceMeters>11009.110612885</DistanceMeters>
          </Trackpoint>
          <Trackpoint>
            <Time>2021-08-31T08:11:11.000Z</Time>
            <Position>
              <LatitudeDegrees>41.99551058001816272735595703125</LatitudeDegrees>
              <LongitudeDegrees>2.1099826879799365997314453125</LongitudeDegrees>
            </Position>
            <AltitudeMeters>623.5999755859375</AltitudeMeters>
            <DistanceMeters>11016.790746955</DistanceMeters>
          </Trackpoint>
          <Trackpoint>
            <Time>2021-08-31T08:11:14.000Z</Time>
            <Position>
              <LatitudeDegrees>41.99532031081616878509521484375</LatitudeDegrees>
              <LongitudeDegrees>2.1101117692887783050537109375</LongitudeDegrees>
            </Position>
            <AltitudeMeters>623.20001220703125</AltitudeMeters>
            <DistanceMeters>11040.507480745</DistanceMeters>
          </Trackpoint>
          <Trackpoint>
            <Time>2021-08-31T08:11:15.000Z</Time>
            <Position>
              <LatitudeDegrees>41.99525325559079647064208984375</LatitudeDegrees>
              <LongitudeDegrees>2.1101354062557220458984375</LongitudeDegrees>
            </Position>
            <AltitudeMeters>623.20001220703125</AltitudeMeters>
            <DistanceMeters>11048.222807305</DistanceMeters>
          </Trackpoint>
          <Trackpoint>
            <Time>2021-08-31T08:11:21.000Z</Time>
            <Position>
              <LatitudeDegrees>41.9948672689497470855712890625</LatitudeDegrees>
              <LongitudeDegrees>2.1102304570376873016357421875</LongitudeDegrees>
            </Position>
            <AltitudeMeters>622.4000244140625</AltitudeMeters>
            <DistanceMeters>11091.897482206</DistanceMeters>
          </Trackpoint>
          <Trackpoint>
            <Time>2021-08-31T08:11:27.000Z</Time>
            <Position>
              <LatitudeDegrees>41.99449318461120128631591796875</LatitudeDegrees>
              <LongitudeDegrees>2.110287956893444061279296875</LongitudeDegrees>
            </Position>
            <AltitudeMeters>620</AltitudeMeters>
            <DistanceMeters>11133.804478723</DistanceMeters>
          </Trackpoint>
          <Trackpoint>
            <Time>2021-08-31T08:11:31.000Z</Time>
            <Position>
              <LatitudeDegrees>41.99422714300453662872314453125</LatitudeDegrees>
              <LongitudeDegrees>2.1101851947605609893798828125</LongitudeDegrees>
            </Position>
            <AltitudeMeters>619</AltitudeMeters>
            <DistanceMeters>11164.611312936</DistanceMeters>
          </Trackpoint>
          <Trackpoint>
            <Time>2021-08-31T08:11:36.000Z</Time>
            <Position>
              <LatitudeDegrees>41.9938708283007144927978515625</LatitudeDegrees>
              <LongitudeDegrees>2.1099826879799365997314453125</LongitudeDegrees>
            </Position>
            <AltitudeMeters>616.5999755859375</AltitudeMeters>
            <DistanceMeters>11207.662714657</DistanceMeters>
          </Trackpoint>
          <Trackpoint>
            <Time>2021-08-31T08:11:38.000Z</Time>
            <Position>
              <LatitudeDegrees>41.9937233068048954010009765625</LatitudeDegrees>
              <LongitudeDegrees>2.1098995395004749298095703125</LongitudeDegrees>
            </Position>
            <AltitudeMeters>615.5999755859375</AltitudeMeters>
            <DistanceMeters>11225.464442178</DistanceMeters>
          </Trackpoint>
          <Trackpoint>
            <Time>2021-08-31T08:11:41.000Z</Time>
            <Position>
              <LatitudeDegrees>41.9935213029384613037109375</LatitudeDegrees>
              <LongitudeDegrees>2.109717987477779388427734375</LongitudeDegrees>
            </Position>
            <AltitudeMeters>614.79998779296875</AltitudeMeters>
            <DistanceMeters>11252.50250662</DistanceMeters>
          </Trackpoint>
          <Trackpoint>
            <Time>2021-08-31T08:11:45.000Z</Time>
            <Position>
              <LatitudeDegrees>41.993238665163516998291015625</LatitudeDegrees>
              <LongitudeDegrees>2.10948698222637176513671875</LongitudeDegrees>
            </Position>
            <AltitudeMeters>612.4000244140625</AltitudeMeters>
            <DistanceMeters>11289.309875025</DistanceMeters>
          </Trackpoint>
          <Trackpoint>
            <Time>2021-08-31T08:11:46.000Z</Time>
            <Position>
              <LatitudeDegrees>41.9931563548743724822998046875</LatitudeDegrees>
              <LongitudeDegrees>2.10945320315659046173095703125</LongitudeDegrees>
            </Position>
            <AltitudeMeters>611.5999755859375</AltitudeMeters>
            <DistanceMeters>11298.887323355</DistanceMeters>
          </Trackpoint>
          <Trackpoint>
            <Time>2021-08-31T08:11:52.000Z</Time>
            <Position>
              <LatitudeDegrees>41.9926410354673862457275390625</LatitudeDegrees>
              <LongitudeDegrees>2.10936552844941616058349609375</LongitudeDegrees>
            </Position>
            <AltitudeMeters>605.79998779296875</AltitudeMeters>
            <DistanceMeters>11356.700126905</DistanceMeters>
          </Trackpoint>
          <Trackpoint>
            <Time>2021-08-31T08:11:57.000Z</Time>
            <Position>
              <LatitudeDegrees>41.9922276400029659271240234375</LatitudeDegrees>
              <LongitudeDegrees>2.10918196476995944976806640625</LongitudeDegrees>
            </Position>
            <AltitudeMeters>605.5999755859375</AltitudeMeters>
            <DistanceMeters>11405.1527567</DistanceMeters>
          </Trackpoint>
          <Trackpoint>
            <Time>2021-08-31T08:11:58.000Z</Time>
            <Position>
              <LatitudeDegrees>41.9921721518039703369140625</LatitudeDegrees>
              <LongitudeDegrees>2.109135948121547698974609375</LongitudeDegrees>
            </Position>
            <AltitudeMeters>605.79998779296875</AltitudeMeters>
            <DistanceMeters>11412.407845645</DistanceMeters>
          </Trackpoint>
          <Trackpoint>
            <Time>2021-08-31T08:12:00.000Z</Time>
            <Position>
              <LatitudeDegrees>41.99209596030414104461669921875</LatitudeDegrees>
              <LongitudeDegrees>2.108990438282489776611328125</LongitudeDegrees>
            </Position>
            <AltitudeMeters>606</AltitudeMeters>
            <DistanceMeters>11427.132387587</DistanceMeters>
          </Trackpoint>
          <Trackpoint>
            <Time>2021-08-31T08:12:02.000Z</Time>
            <Position>
              <LatitudeDegrees>41.99205907993018627166748046875</LatitudeDegrees>
              <LongitudeDegrees>2.1088023483753204345703125</LongitudeDegrees>
            </Position>
            <AltitudeMeters>606</AltitudeMeters>
            <DistanceMeters>11443.22420141</DistanceMeters>
          </Trackpoint>
          <Trackpoint>
            <Time>2021-08-31T08:12:04.000Z</Time>
            <Position>
              <LatitudeDegrees>41.99204013682901859283447265625</LatitudeDegrees>
              <LongitudeDegrees>2.10858307778835296630859375</LongitudeDegrees>
            </Position>
            <AltitudeMeters>606.5999755859375</AltitudeMeters>
            <DistanceMeters>11461.485161487</DistanceMeters>
          </Trackpoint>
          <Trackpoint>
            <Time>2021-08-31T08:12:09.000Z</Time>
            <Position>
              <LatitudeDegrees>41.99195698834955692291259765625</LatitudeDegrees>
              <LongitudeDegrees>2.108046300709247589111328125</LongitudeDegrees>
            </Position>
            <AltitudeMeters>605.79998779296875</AltitudeMeters>
            <DistanceMeters>11506.843672892</DistanceMeters>
          </Trackpoint>
          <Trackpoint>
            <Time>2021-08-31T08:12:11.000Z</Time>
            <Position>
              <LatitudeDegrees>41.99196101166307926177978515625</LatitudeDegrees>
              <LongitudeDegrees>2.10783583112061023712158203125</LongitudeDegrees>
            </Position>
            <AltitudeMeters>604.20001220703125</AltitudeMeters>
            <DistanceMeters>11524.260283581</DistanceMeters>
          </Trackpoint>
          <Trackpoint>
            <Time>2021-08-31T08:12:12.000Z</Time>
            <Position>
              <LatitudeDegrees>41.991975009441375732421875</LatitudeDegrees>
              <LongitudeDegrees>2.107722423970699310302734375</LongitudeDegrees>
            </Position>
            <AltitudeMeters>603.79998779296875</AltitudeMeters>
            <DistanceMeters>11533.770554117</DistanceMeters>
          </Trackpoint>
          <Trackpoint>
            <Time>2021-08-31T08:12:14.000Z</Time>
            <Position>
              <LatitudeDegrees>41.99202052317559719085693359375</LatitudeDegrees>
              <LongitudeDegrees>2.107494771480560302734375</LongitudeDegrees>
            </Position>
            <AltitudeMeters>602.5999755859375</AltitudeMeters>
            <DistanceMeters>11553.272110452</DistanceMeters>
          </Trackpoint>
          <Trackpoint>
            <Time>2021-08-31T08:12:16.000Z</Time>
            <Position>
              <LatitudeDegrees>41.99209914542734622955322265625</LatitudeDegrees>
              <LongitudeDegrees>2.10727726109325885772705078125</LongitudeDegrees>
            </Position>
            <AltitudeMeters>601.5999755859375</AltitudeMeters>
            <DistanceMeters>11573.280368222</DistanceMeters>
          </Trackpoint>
          <Trackpoint>
            <Time>2021-08-31T08:12:19.000Z</Time>
            <Position>
              <LatitudeDegrees>41.99220911599695682525634765625</LatitudeDegrees>
              <LongitudeDegrees>2.106931507587432861328125</LongitudeDegrees>
            </Position>
            <AltitudeMeters>599</AltitudeMeters>
            <DistanceMeters>11604.391278586</DistanceMeters>
          </Trackpoint>
          <Trackpoint>
            <Time>2021-08-31T08:12:20.000Z</Time>
            <Position>
              <LatitudeDegrees>41.99222671799361705780029296875</LatitudeDegrees>
              <LongitudeDegrees>2.106810472905635833740234375</LongitudeDegrees>
            </Position>
            <AltitudeMeters>597.5999755859375</AltitudeMeters>
            <DistanceMeters>11614.594156672</DistanceMeters>
          </Trackpoint>
          <Trackpoint>
            <Time>2021-08-31T08:12:25.000Z</Time>
            <Position>
              <LatitudeDegrees>41.99226175434887409210205078125</LatitudeDegrees>
              <LongitudeDegrees>2.10621192120015621185302734375</LongitudeDegrees>
            </Position>
            <AltitudeMeters>592.79998779296875</AltitudeMeters>
            <DistanceMeters>11664.26186684</DistanceMeters>
          </Trackpoint>
          <Trackpoint>
            <Time>2021-08-31T08:12:26.000Z</Time>
            <Position>
              <LatitudeDegrees>41.9922633469104766845703125</LatitudeDegrees>
              <LongitudeDegrees>2.1060944907367229461669921875</LongitudeDegrees>
            </Position>
            <AltitudeMeters>592.4000244140625</AltitudeMeters>
            <DistanceMeters>11673.977854652</DistanceMeters>
          </Trackpoint>
          <Trackpoint>
            <Time>2021-08-31T08:12:28.000Z</Time>
            <Position>
              <LatitudeDegrees>41.99221163056790828704833984375</LatitudeDegrees>
              <LongitudeDegrees>2.1058708615601062774658203125</LongitudeDegrees>
            </Position>
            <AltitudeMeters>591</AltitudeMeters>
            <DistanceMeters>11693.352121544</DistanceMeters>
          </Trackpoint>
          <Trackpoint>
            <Time>2021-08-31T08:12:32.000Z</Time>
            <Position>
              <LatitudeDegrees>41.99199655093252658843994140625</LatitudeDegrees>
              <LongitudeDegrees>2.10549317300319671630859375</LongitudeDegrees>
            </Position>
            <AltitudeMeters>587.5999755859375</AltitudeMeters>
            <DistanceMeters>11732.712457354</DistanceMeters>
          </Trackpoint>
          <Trackpoint>
            <Time>2021-08-31T08:12:35.000Z</Time>
            <Position>
              <LatitudeDegrees>41.991819106042385101318359375</LatitudeDegrees>
              <LongitudeDegrees>2.1051768399775028228759765625</LongitudeDegrees>
            </Position>
            <AltitudeMeters>585.20001220703125</AltitudeMeters>
            <DistanceMeters>11765.497362403</DistanceMeters>
          </Trackpoint>
          <Trackpoint>
            <Time>2021-08-31T08:12:36.000Z</Time>
            <Position>
              <LatitudeDegrees>41.99174358509480953216552734375</LatitudeDegrees>
              <LongitudeDegrees>2.10509696044027805328369140625</LongitudeDegrees>
            </Position>
            <AltitudeMeters>584.5999755859375</AltitudeMeters>
            <DistanceMeters>11776.189451431</DistanceMeters>
          </Trackpoint>
          <Trackpoint>
            <Time>2021-08-31T08:12:41.000Z</Time>
            <Position>
              <LatitudeDegrees>41.99140042997896671295166015625</LatitudeDegrees>
              <LongitudeDegrees>2.1047151647508144378662109375</LongitudeDegrees>
            </Position>
            <AltitudeMeters>582.79998779296875</AltitudeMeters>
            <DistanceMeters>11825.750597643</DistanceMeters>
          </Trackpoint>
          <Trackpoint>
            <Time>2021-08-31T08:12:42.000Z</Time>
            <Position>
              <LatitudeDegrees>41.9913425110280513763427734375</LatitudeDegrees>
              <LongitudeDegrees>2.1046390570700168609619140625</LongitudeDegrees>
            </Position>
            <AltitudeMeters>582.5999755859375</AltitudeMeters>
            <DistanceMeters>11834.761615754</DistanceMeters>
          </Trackpoint>
          <Trackpoint>
            <Time>2021-08-31T08:12:45.000Z</Time>
            <Position>
              <LatitudeDegrees>41.9912063889205455780029296875</LatitudeDegrees>
              <LongitudeDegrees>2.10438433103263378143310546875</LongitudeDegrees>
            </Position>
            <AltitudeMeters>582.5999755859375</AltitudeMeters>
            <DistanceMeters>11860.714871081</DistanceMeters>
          </Trackpoint>
          <Trackpoint>
            <Time>2021-08-31T08:12:51.000Z</Time>
            <Position>
              <LatitudeDegrees>41.99091981165111064910888671875</LatitudeDegrees>
              <LongitudeDegrees>2.1039001084864139556884765625</LongitudeDegrees>
            </Position>
            <AltitudeMeters>581.4000244140625</AltitudeMeters>
            <DistanceMeters>11911.920252209</DistanceMeters>
          </Trackpoint>
          <Trackpoint>
            <Time>2021-08-31T08:12:58.000Z</Time>
            <Position>
              <LatitudeDegrees>41.99046953581273555755615234375</LatitudeDegrees>
              <LongitudeDegrees>2.10340431891381740570068359375</LongitudeDegrees>
            </Position>
            <AltitudeMeters>580</AltitudeMeters>
            <DistanceMeters>11976.680243431</DistanceMeters>
          </Trackpoint>
          <Trackpoint>
            <Time>2021-08-31T08:12:59.000Z</Time>
            <Position>
              <LatitudeDegrees>41.99040968902409076690673828125</LatitudeDegrees>
              <LongitudeDegrees>2.10333131253719329833984375</LongitudeDegrees>
            </Position>
            <AltitudeMeters>580</AltitudeMeters>
            <DistanceMeters>11985.671196902</DistanceMeters>
          </Trackpoint>
          <Trackpoint>
            <Time>2021-08-31T08:13:06.000Z</Time>
            <Position>
              <LatitudeDegrees>41.98996645398437976837158203125</LatitudeDegrees>
              <LongitudeDegrees>2.10277182050049304962158203125</LongitudeDegrees>
            </Position>
            <AltitudeMeters>576.20001220703125</AltitudeMeters>
            <DistanceMeters>12053.31740373</DistanceMeters>
          </Trackpoint>
          <Trackpoint>
            <Time>2021-08-31T08:13:11.000Z</Time>
            <Position>
              <LatitudeDegrees>41.9896828942000865936279296875</LatitudeDegrees>
              <LongitudeDegrees>2.1024081297218799591064453125</LongitudeDegrees>
            </Position>
            <AltitudeMeters>572.79998779296875</AltitudeMeters>
            <DistanceMeters>12096.921413701</DistanceMeters>
          </Trackpoint>
          <Trackpoint>
            <Time>2021-08-31T08:13:13.000Z</Time>
            <Position>
              <LatitudeDegrees>41.98959278874099254608154296875</LatitudeDegrees>
              <LongitudeDegrees>2.102280892431735992431640625</LongitudeDegrees>
            </Position>
            <AltitudeMeters>571.5999755859375</AltitudeMeters>
            <DistanceMeters>12111.460190451</DistanceMeters>
          </Trackpoint>
          <Trackpoint>
            <Time>2021-08-31T08:13:15.000Z</Time>
            <Position>
              <LatitudeDegrees>41.9895316846668720245361328125</LatitudeDegrees>
              <LongitudeDegrees>2.10213772952556610107421875</LongitudeDegrees>
            </Position>
            <AltitudeMeters>570.5999755859375</AltitudeMeters>
            <DistanceMeters>12125.116954302</DistanceMeters>
          </Trackpoint>
          <Trackpoint>
            <Time>2021-08-31T08:13:19.000Z</Time>
            <Position>
              <LatitudeDegrees>41.98943939991295337677001953125</LatitudeDegrees>
              <LongitudeDegrees>2.10190194658935070037841796875</LongitudeDegrees>
            </Position>
            <AltitudeMeters>568</AltitudeMeters>
            <DistanceMeters>12147.161718396</DistanceMeters>
          </Trackpoint>
          <Trackpoint>
            <Time>2021-08-31T08:13:22.000Z</Time>
            <Position>
              <LatitudeDegrees>41.98940721340477466583251953125</LatitudeDegrees>
              <LongitudeDegrees>2.10181586444377899169921875</LongitudeDegrees>
            </Position>
            <AltitudeMeters>567</AltitudeMeters>
            <DistanceMeters>12155.133774468</DistanceMeters>
          </Trackpoint>
          <Trackpoint>
            <Time>2021-08-31T08:13:24.000Z</Time>
            <Position>
              <LatitudeDegrees>41.98941207490861415863037109375</LatitudeDegrees>
              <LongitudeDegrees>2.10176029242575168609619140625</LongitudeDegrees>
            </Position>
            <AltitudeMeters>567</AltitudeMeters>
            <DistanceMeters>12159.762853361</DistanceMeters>
          </Trackpoint>
          <Trackpoint>
            <Time>2021-08-31T08:13:26.000Z</Time>
            <Position>
              <LatitudeDegrees>41.989441998302936553955078125</LatitudeDegrees>
              <LongitudeDegrees>2.10172542370855808258056640625</LongitudeDegrees>
            </Position>
            <AltitudeMeters>567.20001220703125</AltitudeMeters>
            <DistanceMeters>12164.168036023</DistanceMeters>
          </Trackpoint>
          <Trackpoint>
            <Time>2021-08-31T08:13:30.000Z</Time>
            <Position>
              <LatitudeDegrees>41.98949472047388553619384765625</LatitudeDegrees>
              <LongitudeDegrees>2.10168552584946155548095703125</LongitudeDegrees>
            </Position>
            <AltitudeMeters>567.4000244140625</AltitudeMeters>
            <DistanceMeters>12170.90086483</DistanceMeters>
          </Trackpoint>
          <Trackpoint>
            <Time>2021-08-31T08:13:31.000Z</Time>
            <Position>
              <LatitudeDegrees>41.989492960274219512939453125</LatitudeDegrees>
              <LongitudeDegrees>2.10165367461740970611572265625</LongitudeDegrees>
            </Position>
            <AltitudeMeters>567</AltitudeMeters>
            <DistanceMeters>12173.544589318</DistanceMeters>
          </Trackpoint>
          <Trackpoint>
            <Time>2021-08-31T08:13:33.000Z</Time>
            <Position>
              <LatitudeDegrees>41.98944090865552425384521484375</LatitudeDegrees>
              <LongitudeDegrees>2.1016007848083972930908203125</LongitudeDegrees>
            </Position>
            <AltitudeMeters>566.4000244140625</AltitudeMeters>
            <DistanceMeters>12180.804655172</DistanceMeters>
          </Trackpoint>
          <Trackpoint>
            <Time>2021-08-31T08:13:34.000Z</Time>
            <Position>
              <LatitudeDegrees>41.9893962331116199493408203125</LatitudeDegrees>
              <LongitudeDegrees>2.10158896632492542266845703125</LongitudeDegrees>
            </Position>
            <AltitudeMeters>566</AltitudeMeters>
            <DistanceMeters>12185.872350645</DistanceMeters>
          </Trackpoint>
          <Trackpoint>
            <Time>2021-08-31T08:13:35.000Z</Time>
            <Position>
              <LatitudeDegrees>41.989345438778400421142578125</LatitudeDegrees>
              <LongitudeDegrees>2.10156910121440887451171875</LongitudeDegrees>
            </Position>
            <AltitudeMeters>565.4000244140625</AltitudeMeters>
            <DistanceMeters>12191.759407073</DistanceMeters>
          </Trackpoint>
          <Trackpoint>
            <Time>2021-08-31T08:13:37.000Z</Time>
            <Position>
              <LatitudeDegrees>41.9892470352351665496826171875</LatitudeDegrees>
              <LongitudeDegrees>2.101463489234447479248046875</LongitudeDegrees>
            </Position>
            <AltitudeMeters>564.5999755859375</AltitudeMeters>
            <DistanceMeters>12205.769967438</DistanceMeters>
          </Trackpoint>
          <Trackpoint>
            <Time>2021-08-31T08:13:41.000Z</Time>
            <Position>
              <LatitudeDegrees>41.98901259340345859527587890625</LatitudeDegrees>
              <LongitudeDegrees>2.1011075936257839202880859375</LongitudeDegrees>
            </Position>
            <AltitudeMeters>562.4000244140625</AltitudeMeters>
            <DistanceMeters>12245.11125672</DistanceMeters>
          </Trackpoint>
          <Trackpoint>
            <Time>2021-08-31T08:13:43.000Z</Time>
            <Position>
              <LatitudeDegrees>41.98885182850062847137451171875</LatitudeDegrees>
              <LongitudeDegrees>2.10094858892261981964111328125</LongitudeDegrees>
            </Position>
            <AltitudeMeters>561</AltitudeMeters>
            <DistanceMeters>12267.319469507</DistanceMeters>
          </Trackpoint>
          <Trackpoint>
            <Time>2021-08-31T08:13:45.000Z</Time>
            <Position>
              <LatitudeDegrees>41.9886606372892856597900390625</LatitudeDegrees>
              <LongitudeDegrees>2.10084163583815097808837890625</LongitudeDegrees>
            </Position>
            <AltitudeMeters>560.20001220703125</AltitudeMeters>
            <DistanceMeters>12290.365945732</DistanceMeters>
          </Trackpoint>
          <Trackpoint>
            <Time>2021-08-31T08:13:50.000Z</Time>
            <Position>
              <LatitudeDegrees>41.988215558230876922607421875</LatitudeDegrees>
              <LongitudeDegrees>2.10063309408724308013916015625</LongitudeDegrees>
            </Position>
            <AltitudeMeters>558.79998779296875</AltitudeMeters>
            <DistanceMeters>12342.822413534</DistanceMeters>
          </Trackpoint>
          <Trackpoint>
            <Time>2021-08-31T08:13:53.000Z</Time>
            <Position>
              <LatitudeDegrees>41.98795504868030548095703125</LatitudeDegrees>
              <LongitudeDegrees>2.10052295587956905364990234375</LongitudeDegrees>
            </Position>
            <AltitudeMeters>555.79998779296875</AltitudeMeters>
            <DistanceMeters>12373.215813477</DistanceMeters>
          </Trackpoint>
          <Trackpoint>
            <Time>2021-08-31T08:13:54.000Z</Time>
            <Position>
              <LatitudeDegrees>41.98787366040050983428955078125</LatitudeDegrees>
              <LongitudeDegrees>2.10047702305018901824951171875</LongitudeDegrees>
            </Position>
            <AltitudeMeters>554.79998779296875</AltitudeMeters>
            <DistanceMeters>12383.039020533</DistanceMeters>
          </Trackpoint>
          <Trackpoint>
            <Time>2021-08-31T08:13:57.000Z</Time>
            <Position>
              <LatitudeDegrees>41.98765070177614688873291015625</LatitudeDegrees>
              <LongitudeDegrees>2.10033318959176540374755859375</LongitudeDegrees>
            </Position>
            <AltitudeMeters>551.79998779296875</AltitudeMeters>
            <DistanceMeters>12410.560043258</DistanceMeters>
          </Trackpoint>
          <Trackpoint>
            <Time>2021-08-31T08:13:58.000Z</Time>
            <Position>
              <LatitudeDegrees>41.98757207952439785003662109375</LatitudeDegrees>
              <LongitudeDegrees>2.10029999725520610809326171875</LongitudeDegrees>
            </Position>
            <AltitudeMeters>551.20001220703125</AltitudeMeters>
            <DistanceMeters>12419.730982796</DistanceMeters>
          </Trackpoint>
          <Trackpoint>
            <Time>2021-08-31T08:13:59.000Z</Time>
            <Position>
              <LatitudeDegrees>41.98748641647398471832275390625</LatitudeDegrees>
              <LongitudeDegrees>2.10027619265019893646240234375</LongitudeDegrees>
            </Position>
            <AltitudeMeters>550.79998779296875</AltitudeMeters>
            <DistanceMeters>12429.466468523</DistanceMeters>
          </Trackpoint>
          <Trackpoint>
            <Time>2021-08-31T08:14:01.000Z</Time>
            <Position>
              <LatitudeDegrees>41.98730989359319210052490234375</LatitudeDegrees>
              <LongitudeDegrees>2.1002908609807491302490234375</LongitudeDegrees>
            </Position>
            <AltitudeMeters>550</AltitudeMeters>
            <DistanceMeters>12449.151224308</DistanceMeters>
          </Trackpoint>
          <Trackpoint>
            <Time>2021-08-31T08:14:03.000Z</Time>
            <Position>
              <LatitudeDegrees>41.9871602766215801239013671875</LatitudeDegrees>
              <LongitudeDegrees>2.1003713272511959075927734375</LongitudeDegrees>
            </Position>
            <AltitudeMeters>550</AltitudeMeters>
            <DistanceMeters>12467.085361108</DistanceMeters>
          </Trackpoint>
          <Trackpoint>
            <Time>2021-08-31T08:14:04.000Z</Time>
            <Position>
              <LatitudeDegrees>41.98710705153644084930419921875</LatitudeDegrees>
              <LongitudeDegrees>2.10042522288858890533447265625</LongitudeDegrees>
            </Position>
            <AltitudeMeters>550</AltitudeMeters>
            <DistanceMeters>12474.500489932</DistanceMeters>
          </Trackpoint>
          <Trackpoint>
            <Time>2021-08-31T08:14:05.000Z</Time>
            <Position>
              <LatitudeDegrees>41.98705843649804592132568359375</LatitudeDegrees>
              <LongitudeDegrees>2.10047367028892040252685546875</LongitudeDegrees>
            </Position>
            <AltitudeMeters>550.4000244140625</AltitudeMeters>
            <DistanceMeters>12481.233318739</DistanceMeters>
          </Trackpoint>
          <Trackpoint>
            <Time>2021-08-31T08:14:07.000Z</Time>
            <Position>
              <LatitudeDegrees>41.986962296068668365478515625</LatitudeDegrees>
              <LongitudeDegrees>2.1005181781947612762451171875</LongitudeDegrees>
            </Position>
            <AltitudeMeters>551.4000244140625</AltitudeMeters>
            <DistanceMeters>12492.549879353</DistanceMeters>
          </Trackpoint>
          <Trackpoint>
            <Time>2021-08-31T08:14:09.000Z</Time>
            <Position>
              <LatitudeDegrees>41.986892223358154296875</LatitudeDegrees>
              <LongitudeDegrees>2.10045774467289447784423828125</LongitudeDegrees>
            </Position>
            <AltitudeMeters>551.4000244140625</AltitudeMeters>
            <DistanceMeters>12501.813887477</DistanceMeters>
          </Trackpoint>
          <Trackpoint>
            <Time>2021-08-31T08:14:11.000Z</Time>
            <Position>
              <LatitudeDegrees>41.98686548508703708648681640625</LatitudeDegrees>
              <LongitudeDegrees>2.10033394396305084228515625</LongitudeDegrees>
            </Position>
            <AltitudeMeters>551.20001220703125</AltitudeMeters>
            <DistanceMeters>12512.479763111</DistanceMeters>
          </Trackpoint>
          <Trackpoint>
            <Time>2021-08-31T08:14:12.000Z</Time>
            <Position>
              <LatitudeDegrees>41.986865736544132232666015625</LatitudeDegrees>
              <LongitudeDegrees>2.10025892592966556549072265625</LongitudeDegrees>
            </Position>
            <AltitudeMeters>550.79998779296875</AltitudeMeters>
            <DistanceMeters>12518.686397151</DistanceMeters>
          </Trackpoint>
          <Trackpoint>
            <Time>2021-08-31T08:14:18.000Z</Time>
            <Position>
              <LatitudeDegrees>41.9869225658476352691650390625</LatitudeDegrees>
              <LongitudeDegrees>2.09979088045656681060791015625</LongitudeDegrees>
            </Position>
            <AltitudeMeters>552</AltitudeMeters>
            <DistanceMeters>12557.921039133</DistanceMeters>
          </Trackpoint>
          <Trackpoint>
            <Time>2021-08-31T08:14:21.000Z</Time>
            <Position>
              <LatitudeDegrees>41.98692432604730129241943359375</LatitudeDegrees>
              <LongitudeDegrees>2.09955015219748020172119140625</LongitudeDegrees>
            </Position>
            <AltitudeMeters>552.4000244140625</AltitudeMeters>
            <DistanceMeters>12577.837242031</DistanceMeters>
          </Trackpoint>
          <Trackpoint>
            <Time>2021-08-31T08:14:22.000Z</Time>
            <Position>
              <LatitudeDegrees>41.98691007681190967559814453125</LatitudeDegrees>
              <LongitudeDegrees>2.099471278488636016845703125</LongitudeDegrees>
            </Position>
            <AltitudeMeters>552.4000244140625</AltitudeMeters>
            <DistanceMeters>12584.552612591</DistanceMeters>
          </Trackpoint>
          <Trackpoint>
            <Time>2021-08-31T08:14:23.000Z</Time>
            <Position>
              <LatitudeDegrees>41.986888535320758819580078125</LatitudeDegrees>
              <LongitudeDegrees>2.0993973501026630401611328125</LongitudeDegrees>
            </Position>
            <AltitudeMeters>552.4000244140625</AltitudeMeters>
            <DistanceMeters>12591.121838978</DistanceMeters>
          </Trackpoint>
          <Trackpoint>
            <Time>2021-08-31T08:14:25.000Z</Time>
            <Position>
              <LatitudeDegrees>41.986819803714752197265625</LatitudeDegrees>
              <LongitudeDegrees>2.09926751442253589630126953125</LongitudeDegrees>
            </Position>
            <AltitudeMeters>552.4000244140625</AltitudeMeters>
            <DistanceMeters>12604.308999861</DistanceMeters>
          </Trackpoint>
          <Trackpoint>
            <Time>2021-08-31T08:14:26.000Z</Time>
            <Position>
              <LatitudeDegrees>41.98678820393979549407958984375</LatitudeDegrees>
              <LongitudeDegrees>2.09921034984290599822998046875</LongitudeDegrees>
            </Position>
            <AltitudeMeters>552.4000244140625</AltitudeMeters>
            <DistanceMeters>12610.202188642</DistanceMeters>
          </Trackpoint>
          <Trackpoint>
            <Time>2021-08-31T08:14:29.000Z</Time>
            <Position>
              <LatitudeDegrees>41.98669030331075191497802734375</LatitudeDegrees>
              <LongitudeDegrees>2.0990486629307270050048828125</LongitudeDegrees>
            </Position>
            <AltitudeMeters>552.20001220703125</AltitudeMeters>
            <DistanceMeters>12627.45523011</DistanceMeters>
          </Trackpoint>
          <Trackpoint>
            <Time>2021-08-31T08:14:32.000Z</Time>
            <Position>
              <LatitudeDegrees>41.9865628145635128021240234375</LatitudeDegrees>
              <LongitudeDegrees>2.09889871068298816680908203125</LongitudeDegrees>
            </Position>
            <AltitudeMeters>552.4000244140625</AltitudeMeters>
            <DistanceMeters>12646.303126738</DistanceMeters>
          </Trackpoint>
          <Trackpoint>
            <Time>2021-08-31T08:14:40.000Z</Time>
            <Position>
              <LatitudeDegrees>41.9861906580626964569091796875</LatitudeDegrees>
              <LongitudeDegrees>2.09854030050337314605712890625</LongitudeDegrees>
            </Position>
            <AltitudeMeters>553.4000244140625</AltitudeMeters>
            <DistanceMeters>12697.244093531</DistanceMeters>
          </Trackpoint>
          <Trackpoint>
            <Time>2021-08-31T08:14:46.000Z</Time>
            <Position>
              <LatitudeDegrees>41.98592788539826869964599609375</LatitudeDegrees>
              <LongitudeDegrees>2.09838372655212879180908203125</LongitudeDegrees>
            </Position>
            <AltitudeMeters>554.20001220703125</AltitudeMeters>
            <DistanceMeters>12729.23155923</DistanceMeters>
          </Trackpoint>
          <Trackpoint>
            <Time>2021-08-31T08:14:51.000Z</Time>
            <Position>
              <LatitudeDegrees>41.9857843033969402313232421875</LatitudeDegrees>
              <LongitudeDegrees>2.09830024279654026031494140625</LongitudeDegrees>
            </Position>
            <AltitudeMeters>555.20001220703125</AltitudeMeters>
            <DistanceMeters>12746.641169101</DistanceMeters>
          </Trackpoint>
          <Trackpoint>
            <Time>2021-08-31T08:14:53.000Z</Time>
            <Position>
              <LatitudeDegrees>41.9857155717909336090087890625</LatitudeDegrees>
              <LongitudeDegrees>2.09824894554913043975830078125</LongitudeDegrees>
            </Position>
            <AltitudeMeters>555.5999755859375</AltitudeMeters>
            <DistanceMeters>12755.389822022</DistanceMeters>
          </Trackpoint>
          <Trackpoint>
            <Time>2021-08-31T08:14:56.000Z</Time>
            <Position>
              <LatitudeDegrees>41.98563083074986934661865234375</LatitudeDegrees>
              <LongitudeDegrees>2.0981303416192531585693359375</LongitudeDegrees>
            </Position>
            <AltitudeMeters>556.79998779296875</AltitudeMeters>
            <DistanceMeters>12769.000222022</DistanceMeters>
          </Trackpoint>
          <Trackpoint>
            <Time>2021-08-31T08:15:03.000Z</Time>
            <Position>
              <LatitudeDegrees>41.98549814522266387939453125</LatitudeDegrees>
              <LongitudeDegrees>2.09783035330474376678466796875</LongitudeDegrees>
            </Position>
            <AltitudeMeters>558.79998779296875</AltitudeMeters>
            <DistanceMeters>12797.880527437</DistanceMeters>
          </Trackpoint>
          <Trackpoint>
            <Time>2021-08-31T08:15:09.000Z</Time>
            <Position>
              <LatitudeDegrees>41.98542865924537181854248046875</LatitudeDegrees>
              <LongitudeDegrees>2.09760923869907855987548828125</LongitudeDegrees>
            </Position>
            <AltitudeMeters>559.4000244140625</AltitudeMeters>
            <DistanceMeters>12817.741792738</DistanceMeters>
          </Trackpoint>
          <Trackpoint>
            <Time>2021-08-31T08:15:14.000Z</Time>
            <Position>
              <LatitudeDegrees>41.9854007475078105926513671875</LatitudeDegrees>
              <LongitudeDegrees>2.0974121801555156707763671875</LongitudeDegrees>
            </Position>
            <AltitudeMeters>559.79998779296875</AltitudeMeters>
            <DistanceMeters>12834.338039052</DistanceMeters>
          </Trackpoint>
          <Trackpoint>
            <Time>2021-08-31T08:15:15.000Z</Time>
            <Position>
              <LatitudeDegrees>41.98539865203201770782470703125</LatitudeDegrees>
              <LongitudeDegrees>2.09737303666770458221435546875</LongitudeDegrees>
            </Position>
            <AltitudeMeters>560</AltitudeMeters>
            <DistanceMeters>12837.584282913</DistanceMeters>
          </Trackpoint>
          <Trackpoint>
            <Time>2021-08-31T08:15:20.000Z</Time>
            <Position>
              <LatitudeDegrees>41.98535053990781307220458984375</LatitudeDegrees>
              <LongitudeDegrees>2.09716667421162128448486328125</LongitudeDegrees>
            </Position>
            <AltitudeMeters>561</AltitudeMeters>
            <DistanceMeters>12855.477083987</DistanceMeters>
          </Trackpoint>
          <Trackpoint>
            <Time>2021-08-31T08:15:28.000Z</Time>
            <Position>
              <LatitudeDegrees>41.98528231121599674224853515625</LatitudeDegrees>
              <LongitudeDegrees>2.09679300896823406219482421875</LongitudeDegrees>
            </Position>
            <AltitudeMeters>563.4000244140625</AltitudeMeters>
            <DistanceMeters>12887.310324138</DistanceMeters>
          </Trackpoint>
          <Trackpoint>
            <Time>2021-08-31T08:15:30.000Z</Time>
            <Position>
              <LatitudeDegrees>41.98527107946574687957763671875</LatitudeDegrees>
              <LongitudeDegrees>2.09669862873852252960205078125</LongitudeDegrees>
            </Position>
            <AltitudeMeters>564</AltitudeMeters>
            <DistanceMeters>12895.21869372</DistanceMeters>
          </Trackpoint>
          <Trackpoint>
            <Time>2021-08-31T08:15:32.000Z</Time>
            <Position>
              <LatitudeDegrees>41.985310725867748260498046875</LatitudeDegrees>
              <LongitudeDegrees>2.09663995541632175445556640625</LongitudeDegrees>
            </Position>
            <AltitudeMeters>564.5999755859375</AltitudeMeters>
            <DistanceMeters>12901.779667307</DistanceMeters>
          </Trackpoint>
          <Trackpoint>
            <Time>2021-08-31T08:15:37.000Z</Time>
            <Position>
              <LatitudeDegrees>41.9854704849421977996826171875</LatitudeDegrees>
              <LongitudeDegrees>2.096610702574253082275390625</LongitudeDegrees>
            </Position>
            <AltitudeMeters>566</AltitudeMeters>
            <DistanceMeters>12919.725381177</DistanceMeters>
          </Trackpoint>
          <Trackpoint>
            <Time>2021-08-31T08:15:44.000Z</Time>
            <Position>
              <LatitudeDegrees>41.98571599088609218597412109375</LatitudeDegrees>
              <LongitudeDegrees>2.09659787826240062713623046875</LongitudeDegrees>
            </Position>
            <AltitudeMeters>567.79998779296875</AltitudeMeters>
            <DistanceMeters>12947.071289289</DistanceMeters>
          </Trackpoint>
          <Trackpoint>
            <Time>2021-08-31T08:15:51.000Z</Time>
            <Position>
              <LatitudeDegrees>41.9859687052667140960693359375</LatitudeDegrees>
              <LongitudeDegrees>2.0965511910617351531982421875</LongitudeDegrees>
            </Position>
            <AltitudeMeters>569</AltitudeMeters>
            <DistanceMeters>12975.462816262</DistanceMeters>
          </Trackpoint>
          <Trackpoint>
            <Time>2021-08-31T08:15:53.000Z</Time>
            <Position>
              <LatitudeDegrees>41.98602654039859771728515625</LatitudeDegrees>
              <LongitudeDegrees>2.0965022407472133636474609375</LongitudeDegrees>
            </Position>
            <AltitudeMeters>569.5999755859375</AltitudeMeters>
            <DistanceMeters>12983.067328708</DistanceMeters>
          </Trackpoint>
          <Trackpoint>
            <Time>2021-08-31T08:15:55.000Z</Time>
            <Position>
              <LatitudeDegrees>41.986036598682403564453125</LatitudeDegrees>
              <LongitudeDegrees>2.09642571397125720977783203125</LongitudeDegrees>
            </Position>
            <AltitudeMeters>570.20001220703125</AltitudeMeters>
            <DistanceMeters>12989.496221295</DistanceMeters>
          </Trackpoint>
          <Trackpoint>
            <Time>2021-08-31T08:16:02.000Z</Time>
            <Position>
              <LatitudeDegrees>41.9859801046550273895263671875</LatitudeDegrees>
              <LongitudeDegrees>2.09614156745374202728271484375</LongitudeDegrees>
            </Position>
            <AltitudeMeters>572</AltitudeMeters>
            <DistanceMeters>13013.830483003</DistanceMeters>
          </Trackpoint>
          <Trackpoint>
            <Time>2021-08-31T08:16:10.000Z</Time>
            <Position>
              <LatitudeDegrees>41.98590575717389583587646484375</LatitudeDegrees>
              <LongitudeDegrees>2.095876447856426239013671875</LongitudeDegrees>
            </Position>
            <AltitudeMeters>572.79998779296875</AltitudeMeters>
            <DistanceMeters>13037.273402027</DistanceMeters>
          </Trackpoint>
          <Trackpoint>
            <Time>2021-08-31T08:16:11.000Z</Time>
            <Position>
              <LatitudeDegrees>41.9858976267278194427490234375</LatitudeDegrees>
              <LongitudeDegrees>2.09585775621235370635986328125</LongitudeDegrees>
            </Position>
            <AltitudeMeters>572.79998779296875</AltitudeMeters>
            <DistanceMeters>13039.066362488</DistanceMeters>
          </Trackpoint>
          <Trackpoint>
            <Time>2021-08-31T08:16:13.000Z</Time>
            <Position>
              <LatitudeDegrees>41.9859006442129611968994140625</LatitudeDegrees>
              <LongitudeDegrees>2.0958353765308856964111328125</LongitudeDegrees>
            </Position>
            <AltitudeMeters>572.79998779296875</AltitudeMeters>
            <DistanceMeters>13040.947795444</DistanceMeters>
          </Trackpoint>
          <Trackpoint>
            <Time>2021-08-31T08:16:15.000Z</Time>
            <Position>
              <LatitudeDegrees>41.98590877465903759002685546875</LatitudeDegrees>
              <LongitudeDegrees>2.0958283357322216033935546875</LongitudeDegrees>
            </Position>
            <AltitudeMeters>573</AltitudeMeters>
            <DistanceMeters>13042.02289999</DistanceMeters>
          </Trackpoint>
          <Trackpoint>
            <Time>2021-08-31T08:16:17.000Z</Time>
            <Position>
              <LatitudeDegrees>41.98592134751379489898681640625</LatitudeDegrees>
              <LongitudeDegrees>2.09582758136093616485595703125</LongitudeDegrees>
            </Position>
            <AltitudeMeters>573.20001220703125</AltitudeMeters>
            <DistanceMeters>13043.425952613</DistanceMeters>
          </Trackpoint>
          <Trackpoint>
            <Time>2021-08-31T08:18:37.000Z</Time>
            <Position>
              <LatitudeDegrees>41.985918916761875152587890625</LatitudeDegrees>
              <LongitudeDegrees>2.0957934670150279998779296875</LongitudeDegrees>
            </Position>
            <AltitudeMeters>573.20001220703125</AltitudeMeters>
            <DistanceMeters>13046.260872019</DistanceMeters>
          </Trackpoint>
          <Trackpoint>
            <Time>2021-08-31T08:18:43.000Z</Time>
            <Position>
              <LatitudeDegrees>41.9859241135418415069580078125</LatitudeDegrees>
              <LongitudeDegrees>2.09570805542171001434326171875</LongitudeDegrees>
            </Position>
            <AltitudeMeters>573.5999755859375</AltitudeMeters>
            <DistanceMeters>13053.351036725</DistanceMeters>
          </Trackpoint>
          <Trackpoint>
            <Time>2021-08-31T08:18:51.000Z</Time>
            <Position>
              <LatitudeDegrees>41.9858889095485210418701171875</LatitudeDegrees>
              <LongitudeDegrees>2.09563178010284900665283203125</LongitudeDegrees>
            </Position>
            <AltitudeMeters>573.79998779296875</AltitudeMeters>
            <DistanceMeters>13060.778941347</DistanceMeters>
          </Trackpoint>
          <Trackpoint>
            <Time>2021-08-31T08:18:57.000Z</Time>
            <Position>
              <LatitudeDegrees>41.98591682128608226776123046875</LatitudeDegrees>
              <LongitudeDegrees>2.0957156829535961151123046875</LongitudeDegrees>
            </Position>
            <AltitudeMeters>573.4000244140625</AltitudeMeters>
            <DistanceMeters>13068.384641163</DistanceMeters>
          </Trackpoint>
          <Trackpoint>
            <Time>2021-08-31T08:18:59.000Z</Time>
            <Position>
              <LatitudeDegrees>41.9859207607805728912353515625</LatitudeDegrees>
              <LongitudeDegrees>2.095786593854427337646484375</LongitudeDegrees>
            </Position>
            <AltitudeMeters>573.20001220703125</AltitudeMeters>
            <DistanceMeters>13074.267861626</DistanceMeters>
          </Trackpoint>
          <Trackpoint>
            <Time>2021-08-31T08:19:02.000Z</Time>
            <Position>
              <LatitudeDegrees>41.98592872358858585357666015625</LatitudeDegrees>
              <LongitudeDegrees>2.0958125777542591094970703125</LongitudeDegrees>
            </Position>
            <AltitudeMeters>573.20001220703125</AltitudeMeters>
            <DistanceMeters>13076.593590714</DistanceMeters>
          </Trackpoint>
          <Trackpoint>
            <Time>2021-08-31T08:31:22.000Z</Time>
            <Position>
              <LatitudeDegrees>41.985966525971889495849609375</LatitudeDegrees>
              <LongitudeDegrees>2.09583546034991741180419921875</LongitudeDegrees>
            </Position>
            <AltitudeMeters>573.5999755859375</AltitudeMeters>
            <DistanceMeters>13081.208015949</DistanceMeters>
          </Trackpoint>
          <Trackpoint>
            <Time>2021-08-31T08:31:25.000Z</Time>
            <Position>
              <LatitudeDegrees>41.9860112853348255157470703125</LatitudeDegrees>
              <LongitudeDegrees>2.0958794653415679931640625</LongitudeDegrees>
            </Position>
            <AltitudeMeters>573.79998779296875</AltitudeMeters>
            <DistanceMeters>13087.378901815</DistanceMeters>
          </Trackpoint>
          <Trackpoint>
            <Time>2021-08-31T08:31:27.000Z</Time>
            <Position>
              <LatitudeDegrees>41.98603316210210323333740234375</LatitudeDegrees>
              <LongitudeDegrees>2.0958960615098476409912109375</LongitudeDegrees>
            </Position>
            <AltitudeMeters>573.79998779296875</AltitudeMeters>
            <DistanceMeters>13090.175336366</DistanceMeters>
          </Trackpoint>
          <Trackpoint>
            <Time>2021-08-31T08:31:28.000Z</Time>
            <Position>
              <LatitudeDegrees>41.9860434718430042266845703125</LatitudeDegrees>
              <LongitudeDegrees>2.095895893871784210205078125</LongitudeDegrees>
            </Position>
            <AltitudeMeters>574</AltitudeMeters>
            <DistanceMeters>13091.323548525</DistanceMeters>
          </Trackpoint>
          <Trackpoint>
            <Time>2021-08-31T08:31:31.000Z</Time>
            <Position>
              <LatitudeDegrees>41.98609971441328525543212890625</LatitudeDegrees>
              <LongitudeDegrees>2.09594526328146457672119140625</LongitudeDegrees>
            </Position>
            <AltitudeMeters>574.20001220703125</AltitudeMeters>
            <DistanceMeters>13098.798714947</DistanceMeters>
          </Trackpoint>
          <Trackpoint>
            <Time>2021-08-31T08:31:33.000Z</Time>
            <Position>
              <LatitudeDegrees>41.9861400313675403594970703125</LatitudeDegrees>
              <LongitudeDegrees>2.09598541259765625</LongitudeDegrees>
            </Position>
            <AltitudeMeters>574.20001220703125</AltitudeMeters>
            <DistanceMeters>13104.381888227</DistanceMeters>
          </Trackpoint>
          <Trackpoint>
            <Time>2021-08-31T08:31:38.000Z</Time>
            <Position>
              <LatitudeDegrees>41.98620717041194438934326171875</LatitudeDegrees>
              <LongitudeDegrees>2.09608130156993865966796875</LongitudeDegrees>
            </Position>
            <AltitudeMeters>574.20001220703125</AltitudeMeters>
            <DistanceMeters>13115.280586569</DistanceMeters>
          </Trackpoint>
          <Trackpoint>
            <Time>2021-08-31T08:31:41.000Z</Time>
            <Position>
              <LatitudeDegrees>41.98625679127871990203857421875</LatitudeDegrees>
              <LongitudeDegrees>2.0961619354784488677978515625</LongitudeDegrees>
            </Position>
            <AltitudeMeters>573.79998779296875</AltitudeMeters>
            <DistanceMeters>13123.94106086</DistanceMeters>
          </Trackpoint>
          <Trackpoint>
            <Time>2021-08-31T08:31:42.000Z</Time>
            <Position>
              <LatitudeDegrees>41.9862644188106060028076171875</LatitudeDegrees>
              <LongitudeDegrees>2.09620912559330463409423828125</LongitudeDegrees>
            </Position>
            <AltitudeMeters>573.4000244140625</AltitudeMeters>
            <DistanceMeters>13127.935575233</DistanceMeters>
          </Trackpoint>
          <Trackpoint>
            <Time>2021-08-31T08:31:47.000Z</Time>
            <Position>
              <LatitudeDegrees>41.9862738065421581268310546875</LatitudeDegrees>
              <LongitudeDegrees>2.0964308269321918487548828125</LongitudeDegrees>
            </Position>
            <AltitudeMeters>571.4000244140625</AltitudeMeters>
            <DistanceMeters>13146.306969768</DistanceMeters>
          </Trackpoint>
          <Trackpoint>
            <Time>2021-08-31T08:31:48.000Z</Time>
            <Position>
              <LatitudeDegrees>41.9862632453441619873046875</LatitudeDegrees>
              <LongitudeDegrees>2.096465863287448883056640625</LongitudeDegrees>
            </Position>
            <AltitudeMeters>571</AltitudeMeters>
            <DistanceMeters>13149.432756503</DistanceMeters>
          </Trackpoint>
          <Trackpoint>
            <Time>2021-08-31T08:31:50.000Z</Time>
            <Position>
              <LatitudeDegrees>41.98620951734483242034912109375</LatitudeDegrees>
              <LongitudeDegrees>2.09650517441332340240478515625</LongitudeDegrees>
            </Position>
            <AltitudeMeters>570.20001220703125</AltitudeMeters>
            <DistanceMeters>13156.239614974</DistanceMeters>
          </Trackpoint>
          <Trackpoint>
            <Time>2021-08-31T08:31:54.000Z</Time>
            <Position>
              <LatitudeDegrees>41.98607138358056545257568359375</LatitudeDegrees>
              <LongitudeDegrees>2.09653501398861408233642578125</LongitudeDegrees>
            </Position>
            <AltitudeMeters>569.5999755859375</AltitudeMeters>
            <DistanceMeters>13171.811243426</DistanceMeters>
          </Trackpoint>
          <Trackpoint>
            <Time>2021-08-31T08:31:55.000Z</Time>
            <Position>
              <LatitudeDegrees>41.9860352575778961181640625</LatitudeDegrees>
              <LongitudeDegrees>2.096553035080432891845703125</LongitudeDegrees>
            </Position>
            <AltitudeMeters>569.20001220703125</AltitudeMeters>
            <DistanceMeters>13176.100097086</DistanceMeters>
          </Trackpoint>
          <Trackpoint>
            <Time>2021-08-31T08:31:57.000Z</Time>
            <Position>
              <LatitudeDegrees>41.9860089384019374847412109375</LatitudeDegrees>
              <LongitudeDegrees>2.09664548747241497039794921875</LongitudeDegrees>
            </Position>
            <AltitudeMeters>568.4000244140625</AltitudeMeters>
            <DistanceMeters>13184.291157334</DistanceMeters>
          </Trackpoint>
          <Trackpoint>
            <Time>2021-08-31T08:32:00.000Z</Time>
            <Position>
              <LatitudeDegrees>41.98598136194050312042236328125</LatitudeDegrees>
              <LongitudeDegrees>2.09685486741364002227783203125</LongitudeDegrees>
            </Position>
            <AltitudeMeters>566.79998779296875</AltitudeMeters>
            <DistanceMeters>13201.883166312</DistanceMeters>
          </Trackpoint>
          <Trackpoint>
            <Time>2021-08-31T08:32:02.000Z</Time>
            <Position>
              <LatitudeDegrees>41.9859469123184680938720703125</LatitudeDegrees>
              <LongitudeDegrees>2.0970152132213115692138671875</LongitudeDegrees>
            </Position>
            <AltitudeMeters>565.5999755859375</AltitudeMeters>
            <DistanceMeters>13215.691826428</DistanceMeters>
          </Trackpoint>
          <Trackpoint>
            <Time>2021-08-31T08:32:04.000Z</Time>
            <Position>
              <LatitudeDegrees>41.98591615073382854461669921875</LatitudeDegrees>
              <LongitudeDegrees>2.0971805043518543243408203125</LongitudeDegrees>
            </Position>
            <AltitudeMeters>564.79998779296875</AltitudeMeters>
            <DistanceMeters>13229.788808101</DistanceMeters>
          </Trackpoint>
          <Trackpoint>
            <Time>2021-08-31T08:32:06.000Z</Time>
            <Position>
              <LatitudeDegrees>41.9858929328620433807373046875</LatitudeDegrees>
              <LongitudeDegrees>2.09728653542697429656982421875</LongitudeDegrees>
            </Position>
            <AltitudeMeters>564.4000244140625</AltitudeMeters>
            <DistanceMeters>13238.933123705</DistanceMeters>
          </Trackpoint>
          <Trackpoint>
            <Time>2021-08-31T08:32:12.000Z</Time>
            <Position>
              <LatitudeDegrees>41.98585295118391513824462890625</LatitudeDegrees>
              <LongitudeDegrees>2.09756749682128429412841796875</LongitudeDegrees>
            </Position>
            <AltitudeMeters>562.20001220703125</AltitudeMeters>
            <DistanceMeters>13262.599736298</DistanceMeters>
          </Trackpoint>
          <Trackpoint>
            <Time>2021-08-31T08:32:16.000Z</Time>
            <Position>
              <LatitudeDegrees>41.9858662784099578857421875</LatitudeDegrees>
              <LongitudeDegrees>2.097715102136135101318359375</LongitudeDegrees>
            </Position>
            <AltitudeMeters>561.20001220703125</AltitudeMeters>
            <DistanceMeters>13274.901200481</DistanceMeters>
          </Trackpoint>
          <Trackpoint>
            <Time>2021-08-31T08:32:18.000Z</Time>
            <Position>
              <LatitudeDegrees>41.9858865626156330108642578125</LatitudeDegrees>
              <LongitudeDegrees>2.09769465029239654541015625</LongitudeDegrees>
            </Position>
            <AltitudeMeters>561.4000244140625</AltitudeMeters>
            <DistanceMeters>13277.723349914</DistanceMeters>
          </Trackpoint>
          <Trackpoint>
            <Time>2021-08-31T08:32:19.000Z</Time>
            <Position>
              <LatitudeDegrees>41.98589754290878772735595703125</LatitudeDegrees>
              <LongitudeDegrees>2.097669504582881927490234375</LongitudeDegrees>
            </Position>
            <AltitudeMeters>561.79998779296875</AltitudeMeters>
            <DistanceMeters>13280.136729144</DistanceMeters>
          </Trackpoint>
          <Trackpoint>
            <Time>2021-08-31T08:32:23.000Z</Time>
            <Position>
              <LatitudeDegrees>41.985945068299770355224609375</LatitudeDegrees>
              <LongitudeDegrees>2.09750999696552753448486328125</LongitudeDegrees>
            </Position>
            <AltitudeMeters>563</AltitudeMeters>
            <DistanceMeters>13294.353627576</DistanceMeters>
          </Trackpoint>
          <Trackpoint>
            <Time>2021-08-31T08:32:31.000Z</Time>
            <Position>
              <LatitudeDegrees>41.98604087345302104949951171875</LatitudeDegrees>
              <LongitudeDegrees>2.09711001254618167877197265625</LongitudeDegrees>
            </Position>
            <AltitudeMeters>565</AltitudeMeters>
            <DistanceMeters>13329.120550687</DistanceMeters>
          </Trackpoint>
          <Trackpoint>
            <Time>2021-08-31T08:32:33.000Z</Time>
            <Position>
              <LatitudeDegrees>41.98597532697021961212158203125</LatitudeDegrees>
              <LongitudeDegrees>2.09707464091479778289794921875</LongitudeDegrees>
            </Position>
            <AltitudeMeters>565.20001220703125</AltitudeMeters>
            <DistanceMeters>13336.980816778</DistanceMeters>
          </Trackpoint>
          <Trackpoint>
            <Time>2021-08-31T08:32:36.000Z</Time>
            <Position>
              <LatitudeDegrees>41.98582109995186328887939453125</LatitudeDegrees>
              <LongitudeDegrees>2.0971617288887500762939453125</LongitudeDegrees>
            </Position>
            <AltitudeMeters>564.79998779296875</AltitudeMeters>
            <DistanceMeters>13355.597323806</DistanceMeters>
          </Trackpoint>
          <Trackpoint>
            <Time>2021-08-31T08:32:42.000Z</Time>
            <Position>
              <LatitudeDegrees>41.98551356792449951171875</LatitudeDegrees>
              <LongitudeDegrees>2.0973846875131130218505859375</LongitudeDegrees>
            </Position>
            <AltitudeMeters>561.20001220703125</AltitudeMeters>
            <DistanceMeters>13394.480090924</DistanceMeters>
          </Trackpoint>
          <Trackpoint>
            <Time>2021-08-31T08:32:44.000Z</Time>
            <Position>
              <LatitudeDegrees>41.98547065258026123046875</LatitudeDegrees>
              <LongitudeDegrees>2.0974324643611907958984375</LongitudeDegrees>
            </Position>
            <AltitudeMeters>560.4000244140625</AltitudeMeters>
            <DistanceMeters>13400.680174425</DistanceMeters>
          </Trackpoint>
          <Trackpoint>
            <Time>2021-08-31T08:32:45.000Z</Time>
            <Position>
              <LatitudeDegrees>41.98546201921999454498291015625</LatitudeDegrees>
              <LongitudeDegrees>2.09746188484132289886474609375</LongitudeDegrees>
            </Position>
            <AltitudeMeters>560</AltitudeMeters>
            <DistanceMeters>13403.2964309</DistanceMeters>
          </Trackpoint>
          <Trackpoint>
            <Time>2021-08-31T08:32:47.000Z</Time>
            <Position>
              <LatitudeDegrees>41.98544508777558803558349609375</LatitudeDegrees>
              <LongitudeDegrees>2.09756079129874706268310546875</LongitudeDegrees>
            </Position>
            <AltitudeMeters>559.5999755859375</AltitudeMeters>
            <DistanceMeters>13411.693265832</DistanceMeters>
          </Trackpoint>
          <Trackpoint>
            <Time>2021-08-31T08:32:48.000Z</Time>
            <Position>
              <LatitudeDegrees>41.98544458486139774322509765625</LatitudeDegrees>
              <LongitudeDegrees>2.09762935526669025421142578125</LongitudeDegrees>
            </Position>
            <AltitudeMeters>559.4000244140625</AltitudeMeters>
            <DistanceMeters>13417.364697071</DistanceMeters>
          </Trackpoint>
          <Trackpoint>
            <Time>2021-08-31T08:32:49.000Z</Time>
            <Position>
              <LatitudeDegrees>41.98546034283936023712158203125</LatitudeDegrees>
              <LongitudeDegrees>2.09770378656685352325439453125</LongitudeDegrees>
            </Position>
            <AltitudeMeters>559</AltitudeMeters>
            <DistanceMeters>13423.766141197</DistanceMeters>
          </Trackpoint>
          <Trackpoint>
            <Time>2021-08-31T08:32:51.000Z</Time>
            <Position>
              <LatitudeDegrees>41.98551683686673641204833984375</LatitudeDegrees>
              <LongitudeDegrees>2.09786371327936649322509765625</LongitudeDegrees>
            </Position>
            <AltitudeMeters>558.5999755859375</AltitudeMeters>
            <DistanceMeters>13438.415365296</DistanceMeters>
          </Trackpoint>
          <Trackpoint>
            <Time>2021-08-31T08:32:55.000Z</Time>
            <Position>
              <LatitudeDegrees>41.985668130218982696533203125</LatitudeDegrees>
              <LongitudeDegrees>2.0981980673968791961669921875</LongitudeDegrees>
            </Position>
            <AltitudeMeters>556.20001220703125</AltitudeMeters>
            <DistanceMeters>13470.799683231</DistanceMeters>
          </Trackpoint>
          <Trackpoint>
            <Time>2021-08-31T08:32:56.000Z</Time>
            <Position>
              <LatitudeDegrees>41.9857222773134708404541015625</LatitudeDegrees>
              <LongitudeDegrees>2.09826051257550716400146484375</LongitudeDegrees>
            </Position>
            <AltitudeMeters>555.5999755859375</AltitudeMeters>
            <DistanceMeters>13478.737685084</DistanceMeters>
          </Trackpoint>
          <Trackpoint>
            <Time>2021-08-31T08:32:57.000Z</Time>
            <Position>
              <LatitudeDegrees>41.9857832975685596466064453125</LatitudeDegrees>
              <LongitudeDegrees>2.09831231273710727691650390625</LongitudeDegrees>
            </Position>
            <AltitudeMeters>555</AltitudeMeters>
            <DistanceMeters>13486.768426393</DistanceMeters>
          </Trackpoint>
          <Trackpoint>
            <Time>2021-08-31T08:33:00.000Z</Time>
            <Position>
              <LatitudeDegrees>41.98598236776888370513916015625</LatitudeDegrees>
              <LongitudeDegrees>2.098431922495365142822265625</LongitudeDegrees>
            </Position>
            <AltitudeMeters>553.79998779296875</AltitudeMeters>
            <DistanceMeters>13511.034684549</DistanceMeters>
          </Trackpoint>
          <Trackpoint>
            <Time>2021-08-31T08:33:02.000Z</Time>
            <Position>
              <LatitudeDegrees>41.98612703941762447357177734375</LatitudeDegrees>
              <LongitudeDegrees>2.098514400422573089599609375</LongitudeDegrees>
            </Position>
            <AltitudeMeters>553.4000244140625</AltitudeMeters>
            <DistanceMeters>13528.522956593</DistanceMeters>
          </Trackpoint>
          <Trackpoint>
            <Time>2021-08-31T08:33:04.000Z</Time>
            <Position>
              <LatitudeDegrees>41.986266933381557464599609375</LatitudeDegrees>
              <LongitudeDegrees>2.0986248739063739776611328125</LongitudeDegrees>
            </Position>
            <AltitudeMeters>552.79998779296875</AltitudeMeters>
            <DistanceMeters>13546.578032323</DistanceMeters>
          </Trackpoint>
          <Trackpoint>
            <Time>2021-08-31T08:33:11.000Z</Time>
            <Position>
              <LatitudeDegrees>41.9867004454135894775390625</LatitudeDegrees>
              <LongitudeDegrees>2.09906953386962413787841796875</LongitudeDegrees>
            </Position>
            <AltitudeMeters>552.20001220703125</AltitudeMeters>
            <DistanceMeters>13607.252868501</DistanceMeters>
          </Trackpoint>
          <Trackpoint>
            <Time>2021-08-31T08:33:15.000Z</Time>
            <Position>
              <LatitudeDegrees>41.98687973432242870330810546875</LatitudeDegrees>
              <LongitudeDegrees>2.09940514527261257171630859375</LongitudeDegrees>
            </Position>
            <AltitudeMeters>552.4000244140625</AltitudeMeters>
            <DistanceMeters>13641.445323768</DistanceMeters>
          </Trackpoint>
          <Trackpoint>
            <Time>2021-08-31T08:33:16.000Z</Time>
            <Position>
              <LatitudeDegrees>41.9869068078696727752685546875</LatitudeDegrees>
              <LongitudeDegrees>2.09951092489063739776611328125</LongitudeDegrees>
            </Position>
            <AltitudeMeters>552.4000244140625</AltitudeMeters>
            <DistanceMeters>13650.701042823</DistanceMeters>
          </Trackpoint>
          <Trackpoint>
            <Time>2021-08-31T08:33:17.000Z</Time>
            <Position>
              <LatitudeDegrees>41.98692365549504756927490234375</LatitudeDegrees>
              <LongitudeDegrees>2.09962039254605770111083984375</LongitudeDegrees>
            </Position>
            <AltitudeMeters>552.4000244140625</AltitudeMeters>
            <DistanceMeters>13659.949441823</DistanceMeters>
          </Trackpoint>
          <Trackpoint>
            <Time>2021-08-31T08:33:19.000Z</Time>
            <Position>
              <LatitudeDegrees>41.986922733485698699951171875</LatitudeDegrees>
              <LongitudeDegrees>2.0998301915824413299560546875</LongitudeDegrees>
            </Position>
            <AltitudeMeters>552</AltitudeMeters>
            <DistanceMeters>13677.306845733</DistanceMeters>
          </Trackpoint>
          <Trackpoint>
            <Time>2021-08-31T08:33:21.000Z</Time>
            <Position>
              <LatitudeDegrees>41.98689314536750316619873046875</LatitudeDegrees>
              <LongitudeDegrees>2.10001233033835887908935546875</LongitudeDegrees>
            </Position>
            <AltitudeMeters>551.20001220703125</AltitudeMeters>
            <DistanceMeters>13692.73076754</DistanceMeters>
          </Trackpoint>
          <Trackpoint>
            <Time>2021-08-31T08:33:22.000Z</Time>
            <Position>
              <LatitudeDegrees>41.9868766330182552337646484375</LatitudeDegrees>
              <LongitudeDegrees>2.10007234476506710052490234375</LongitudeDegrees>
            </Position>
            <AltitudeMeters>551</AltitudeMeters>
            <DistanceMeters>13698.025043438</DistanceMeters>
          </Trackpoint>
          <Trackpoint>
            <Time>2021-08-31T08:33:26.000Z</Time>
            <Position>
              <LatitudeDegrees>41.98685131967067718505859375</LatitudeDegrees>
              <LongitudeDegrees>2.10021131671965122222900390625</LongitudeDegrees>
            </Position>
            <AltitudeMeters>550.79998779296875</AltitudeMeters>
            <DistanceMeters>13709.86226001</DistanceMeters>
          </Trackpoint>
          <Trackpoint>
            <Time>2021-08-31T08:33:31.000Z</Time>
            <Position>
              <LatitudeDegrees>41.9868876971304416656494140625</LatitudeDegrees>
              <LongitudeDegrees>2.1004621870815753936767578125</LongitudeDegrees>
            </Position>
            <AltitudeMeters>551.5999755859375</AltitudeMeters>
            <DistanceMeters>13731.008212941</DistanceMeters>
          </Trackpoint>
          <Trackpoint>
            <Time>2021-08-31T08:33:37.000Z</Time>
            <Position>
              <LatitudeDegrees>41.9869981706142425537109375</LatitudeDegrees>
              <LongitudeDegrees>2.1007076092064380645751953125</LongitudeDegrees>
            </Position>
            <AltitudeMeters>552.20001220703125</AltitudeMeters>
            <DistanceMeters>13754.745117748</DistanceMeters>
          </Trackpoint>
          <Trackpoint>
            <Time>2021-08-31T08:33:44.000Z</Time>
            <Position>
              <LatitudeDegrees>41.9870845042169094085693359375</LatitudeDegrees>
              <LongitudeDegrees>2.10096694529056549072265625</LongitudeDegrees>
            </Position>
            <AltitudeMeters>553.79998779296875</AltitudeMeters>
            <DistanceMeters>13778.253620645</DistanceMeters>
          </Trackpoint>
          <Trackpoint>
            <Time>2021-08-31T08:33:49.000Z</Time>
            <Position>
              <LatitudeDegrees>41.98709296993911266326904296875</LatitudeDegrees>
              <LongitudeDegrees>2.10118864662945270538330078125</LongitudeDegrees>
            </Position>
            <AltitudeMeters>554</AltitudeMeters>
            <DistanceMeters>13796.619115882</DistanceMeters>
          </Trackpoint>
          <Trackpoint>
            <Time>2021-08-31T08:33:55.000Z</Time>
            <Position>
              <LatitudeDegrees>41.9870187900960445404052734375</LatitudeDegrees>
              <LongitudeDegrees>2.10146172903478145599365234375</LongitudeDegrees>
            </Position>
            <AltitudeMeters>554.20001220703125</AltitudeMeters>
            <DistanceMeters>13820.672703098</DistanceMeters>
          </Trackpoint>
          <Trackpoint>
            <Time>2021-08-31T08:34:01.000Z</Time>
            <Position>
              <LatitudeDegrees>41.98690169490873813629150390625</LatitudeDegrees>
              <LongitudeDegrees>2.1017322130501270294189453125</LongitudeDegrees>
            </Position>
            <AltitudeMeters>554.20001220703125</AltitudeMeters>
            <DistanceMeters>13846.568659673</DistanceMeters>
          </Trackpoint>
          <Trackpoint>
            <Time>2021-08-31T08:34:08.000Z</Time>
            <Position>
              <LatitudeDegrees>41.9868115894496440887451171875</LatitudeDegrees>
              <LongitudeDegrees>2.10206137038767337799072265625</LongitudeDegrees>
            </Position>
            <AltitudeMeters>555.79998779296875</AltitudeMeters>
            <DistanceMeters>13875.588081945</DistanceMeters>
          </Trackpoint>
          <Trackpoint>
            <Time>2021-08-31T08:34:15.000Z</Time>
            <Position>
              <LatitudeDegrees>41.98673824779689311981201171875</LatitudeDegrees>
              <LongitudeDegrees>2.10247795097529888153076171875</LongitudeDegrees>
            </Position>
            <AltitudeMeters>557.4000244140625</AltitudeMeters>
            <DistanceMeters>13911.005648761</DistanceMeters>
          </Trackpoint>
          <Trackpoint>
            <Time>2021-08-31T08:34:23.000Z</Time>
            <Position>
              <LatitudeDegrees>41.986608915030956268310546875</LatitudeDegrees>
              <LongitudeDegrees>2.10298924706876277923583984375</LongitudeDegrees>
            </Position>
            <AltitudeMeters>559.20001220703125</AltitudeMeters>
            <DistanceMeters>13955.687913155</DistanceMeters>
          </Trackpoint>
          <Trackpoint>
            <Time>2021-08-31T08:34:24.000Z</Time>
            <Position>
              <LatitudeDegrees>41.986590810120105743408203125</LatitudeDegrees>
              <LongitudeDegrees>2.10305077023804187774658203125</LongitudeDegrees>
            </Position>
            <AltitudeMeters>559.4000244140625</AltitudeMeters>
            <DistanceMeters>13961.162474664</DistanceMeters>
          </Trackpoint>
          <Trackpoint>
            <Time>2021-08-31T08:34:27.000Z</Time>
            <Position>
              <LatitudeDegrees>41.9865557737648487091064453125</LatitudeDegrees>
              <LongitudeDegrees>2.1032419614493846893310546875</LongitudeDegrees>
            </Position>
            <AltitudeMeters>559.4000244140625</AltitudeMeters>
            <DistanceMeters>13977.453390743</DistanceMeters>
          </Trackpoint>
          <Trackpoint>
            <Time>2021-08-31T08:34:34.000Z</Time>
            <Position>
              <LatitudeDegrees>41.98653926141560077667236328125</LatitudeDegrees>
              <LongitudeDegrees>2.10363968275487422943115234375</LongitudeDegrees>
            </Position>
            <AltitudeMeters>559.79998779296875</AltitudeMeters>
            <DistanceMeters>14010.408348394</DistanceMeters>
          </Trackpoint>
          <Trackpoint>
            <Time>2021-08-31T08:34:39.000Z</Time>
            <Position>
              <LatitudeDegrees>41.9866268523037433624267578125</LatitudeDegrees>
              <LongitudeDegrees>2.10384822450578212738037109375</LongitudeDegrees>
            </Position>
            <AltitudeMeters>560</AltitudeMeters>
            <DistanceMeters>14030.225007153</DistanceMeters>
          </Trackpoint>
          <Trackpoint>
            <Time>2021-08-31T08:34:40.000Z</Time>
            <Position>
              <LatitudeDegrees>41.98664353229105472564697265625</LatitudeDegrees>
              <LongitudeDegrees>2.10386750288307666778564453125</LongitudeDegrees>
            </Position>
            <AltitudeMeters>560</AltitudeMeters>
            <DistanceMeters>14032.673674293</DistanceMeters>
          </Trackpoint>
          <Trackpoint>
            <Time>2021-08-31T08:34:42.000Z</Time>
            <Position>
              <LatitudeDegrees>41.9866737909615039825439453125</LatitudeDegrees>
              <LongitudeDegrees>2.10387957282364368438720703125</LongitudeDegrees>
            </Position>
            <AltitudeMeters>560</AltitudeMeters>
            <DistanceMeters>14036.183236127</DistanceMeters>
          </Trackpoint>
          <Trackpoint>
            <Time>2021-08-31T08:34:43.000Z</Time>
            <Position>
              <LatitudeDegrees>41.9866821728646755218505859375</LatitudeDegrees>
              <LongitudeDegrees>2.10389248095452785491943359375</LongitudeDegrees>
            </Position>
            <AltitudeMeters>560</AltitudeMeters>
            <DistanceMeters>14037.602287587</DistanceMeters>
          </Trackpoint>
          <Trackpoint>
            <Time>2021-08-31T08:34:44.000Z</Time>
            <Position>
              <LatitudeDegrees>41.98668678291141986846923828125</LatitudeDegrees>
              <LongitudeDegrees>2.10391066968441009521484375</LongitudeDegrees>
            </Position>
            <AltitudeMeters>560.20001220703125</AltitudeMeters>
            <DistanceMeters>14039.19522559</DistanceMeters>
          </Trackpoint>
          <Trackpoint>
            <Time>2021-08-31T08:34:46.000Z</Time>
            <Position>
              <LatitudeDegrees>41.9866647385060787200927734375</LatitudeDegrees>
              <LongitudeDegrees>2.103961966931819915771484375</LongitudeDegrees>
            </Position>
            <AltitudeMeters>560.79998779296875</AltitudeMeters>
            <DistanceMeters>14044.098088376</DistanceMeters>
          </Trackpoint>
          <Trackpoint>
            <Time>2021-08-31T08:34:50.000Z</Time>
            <Position>
              <LatitudeDegrees>41.98663137853145599365234375</LatitudeDegrees>
              <LongitudeDegrees>2.1040885336697101593017578125</LongitudeDegrees>
            </Position>
            <AltitudeMeters>561.79998779296875</AltitudeMeters>
            <DistanceMeters>14055.208495433</DistanceMeters>
          </Trackpoint>
          <Trackpoint>
            <Time>2021-08-31T08:34:56.000Z</Time>
            <Position>
              <LatitudeDegrees>41.98665375821292400360107421875</LatitudeDegrees>
              <LongitudeDegrees>2.1042786352336406707763671875</LongitudeDegrees>
            </Position>
            <AltitudeMeters>562.79998779296875</AltitudeMeters>
            <DistanceMeters>14071.131922089</DistanceMeters>
          </Trackpoint>
          <Trackpoint>
            <Time>2021-08-31T08:35:03.000Z</Time>
            <Position>
              <LatitudeDegrees>41.98665962554514408111572265625</LatitudeDegrees>
              <LongitudeDegrees>2.10450905375182628631591796875</LongitudeDegrees>
            </Position>
            <AltitudeMeters>564</AltitudeMeters>
            <DistanceMeters>14090.206034911</DistanceMeters>
          </Trackpoint>
          <Trackpoint>
            <Time>2021-08-31T08:35:09.000Z</Time>
            <Position>
              <LatitudeDegrees>41.98669315315783023834228515625</LatitudeDegrees>
              <LongitudeDegrees>2.10474072955548763275146484375</LongitudeDegrees>
            </Position>
            <AltitudeMeters>564.20001220703125</AltitudeMeters>
            <DistanceMeters>14109.733042053</DistanceMeters>
          </Trackpoint>
          <Trackpoint>
            <Time>2021-08-31T08:35:15.000Z</Time>
            <Position>
              <LatitudeDegrees>41.98674797080457210540771484375</LatitudeDegrees>
              <LongitudeDegrees>2.1050125546753406524658203125</LongitudeDegrees>
            </Position>
            <AltitudeMeters>565</AltitudeMeters>
            <DistanceMeters>14133.03416598</DistanceMeters>
          </Trackpoint>
          <Trackpoint>
            <Time>2021-08-31T08:35:21.000Z</Time>
            <Position>
              <LatitudeDegrees>41.98682248592376708984375</LatitudeDegrees>
              <LongitudeDegrees>2.1053213439881801605224609375</LongitudeDegrees>
            </Position>
            <AltitudeMeters>565.4000244140625</AltitudeMeters>
            <DistanceMeters>14159.893126813</DistanceMeters>
          </Trackpoint>
          <Trackpoint>
            <Time>2021-08-31T08:35:27.000Z</Time>
            <Position>
              <LatitudeDegrees>41.98685626499354839324951171875</LatitudeDegrees>
              <LongitudeDegrees>2.1056378446519374847412109375</LongitudeDegrees>
            </Position>
            <AltitudeMeters>566.4000244140625</AltitudeMeters>
            <DistanceMeters>14186.346079083</DistanceMeters>
          </Trackpoint>
          <Trackpoint>
            <Time>2021-08-31T08:35:34.000Z</Time>
            <Position>
              <LatitudeDegrees>41.98694712482392787933349609375</LatitudeDegrees>
              <LongitudeDegrees>2.1060981787741184234619140625</LongitudeDegrees>
            </Position>
            <AltitudeMeters>567.79998779296875</AltitudeMeters>
            <DistanceMeters>14225.749522382</DistanceMeters>
          </Trackpoint>
          <Trackpoint>
            <Time>2021-08-31T08:35:43.000Z</Time>
            <Position>
              <LatitudeDegrees>41.98709296993911266326904296875</LatitudeDegrees>
              <LongitudeDegrees>2.10669354535639286041259765625</LongitudeDegrees>
            </Position>
            <AltitudeMeters>567.5999755859375</AltitudeMeters>
            <DistanceMeters>14277.610433368</DistanceMeters>
          </Trackpoint>
          <Trackpoint>
            <Time>2021-08-31T08:35:46.000Z</Time>
            <Position>
              <LatitudeDegrees>41.98714326135814189910888671875</LatitudeDegrees>
              <LongitudeDegrees>2.10687325336039066314697265625</LongitudeDegrees>
            </Position>
            <AltitudeMeters>567.4000244140625</AltitudeMeters>
            <DistanceMeters>14293.496671956</DistanceMeters>
          </Trackpoint>
          <Trackpoint>
            <Time>2021-08-31T08:35:48.000Z</Time>
            <Position>
              <LatitudeDegrees>41.98716111481189727783203125</LatitudeDegrees>
              <LongitudeDegrees>2.106993533670902252197265625</LongitudeDegrees>
            </Position>
            <AltitudeMeters>567.4000244140625</AltitudeMeters>
            <DistanceMeters>14303.643638577</DistanceMeters>
          </Trackpoint>
          <Trackpoint>
            <Time>2021-08-31T08:35:49.000Z</Time>
            <Position>
              <LatitudeDegrees>41.98716689832508563995361328125</LatitudeDegrees>
              <LongitudeDegrees>2.10705748759210109710693359375</LongitudeDegrees>
            </Position>
            <AltitudeMeters>567.20001220703125</AltitudeMeters>
            <DistanceMeters>14308.972765186</DistanceMeters>
          </Trackpoint>
          <Trackpoint>
            <Time>2021-08-31T08:35:52.000Z</Time>
            <Position>
              <LatitudeDegrees>41.98719103820621967315673828125</LatitudeDegrees>
              <LongitudeDegrees>2.10725328885018825531005859375</LongitudeDegrees>
            </Position>
            <AltitudeMeters>567.20001220703125</AltitudeMeters>
            <DistanceMeters>14325.392875492</DistanceMeters>
          </Trackpoint>
          <Trackpoint>
            <Time>2021-08-31T08:35:54.000Z</Time>
            <Position>
              <LatitudeDegrees>41.98722875677049160003662109375</LatitudeDegrees>
              <LongitudeDegrees>2.10740558803081512451171875</LongitudeDegrees>
            </Position>
            <AltitudeMeters>567.5999755859375</AltitudeMeters>
            <DistanceMeters>14338.674197462</DistanceMeters>
          </Trackpoint>
          <Trackpoint>
            <Time>2021-08-31T08:36:00.000Z</Time>
            <Position>
              <LatitudeDegrees>41.9873986579477787017822265625</LatitudeDegrees>
              <LongitudeDegrees>2.10788746364414691925048828125</LongitudeDegrees>
            </Position>
            <AltitudeMeters>567.20001220703125</AltitudeMeters>
            <DistanceMeters>14382.797506735</DistanceMeters>
          </Trackpoint>
          <Trackpoint>
            <Time>2021-08-31T08:36:04.000Z</Time>
            <Position>
              <LatitudeDegrees>41.98756671510636806488037109375</LatitudeDegrees>
              <LongitudeDegrees>2.10818250663578510284423828125</LongitudeDegrees>
            </Position>
            <AltitudeMeters>568</AltitudeMeters>
            <DistanceMeters>14413.549185152</DistanceMeters>
          </Trackpoint>
          <Trackpoint>
            <Time>2021-08-31T08:36:05.000Z</Time>
            <Position>
              <LatitudeDegrees>41.9876085408031940460205078125</LatitudeDegrees>
              <LongitudeDegrees>2.10827462375164031982421875</LongitudeDegrees>
            </Position>
            <AltitudeMeters>568</AltitudeMeters>
            <DistanceMeters>14422.479168639</DistanceMeters>
          </Trackpoint>
          <Trackpoint>
            <Time>2021-08-31T08:36:07.000Z</Time>
            <Position>
              <LatitudeDegrees>41.9876658730208873748779296875</LatitudeDegrees>
              <LongitudeDegrees>2.10847503505647182464599609375</LongitudeDegrees>
            </Position>
            <AltitudeMeters>566.79998779296875</AltitudeMeters>
            <DistanceMeters>14440.24459016</DistanceMeters>
          </Trackpoint>
          <Trackpoint>
            <Time>2021-08-31T08:36:08.000Z</Time>
            <Position>
              <LatitudeDegrees>41.9876843132078647613525390625</LatitudeDegrees>
              <LongitudeDegrees>2.10857679136097431182861328125</LongitudeDegrees>
            </Position>
            <AltitudeMeters>566.4000244140625</AltitudeMeters>
            <DistanceMeters>14448.909234154</DistanceMeters>
          </Trackpoint>
          <Trackpoint>
            <Time>2021-08-31T08:36:13.000Z</Time>
            <Position>
              <LatitudeDegrees>41.98777290992438793182373046875</LatitudeDegrees>
              <LongitudeDegrees>2.10912530310451984405517578125</LongitudeDegrees>
            </Position>
            <AltitudeMeters>563.4000244140625</AltitudeMeters>
            <DistanceMeters>14495.346291716</DistanceMeters>
          </Trackpoint>
          <Trackpoint>
            <Time>2021-08-31T08:36:16.000Z</Time>
            <Position>
              <LatitudeDegrees>41.9877872429788112640380859375</LatitudeDegrees>
              <LongitudeDegrees>2.10941632278263568878173828125</LongitudeDegrees>
            </Position>
            <AltitudeMeters>562.4000244140625</AltitudeMeters>
            <DistanceMeters>14519.474845102</DistanceMeters>
          </Trackpoint>
          <Trackpoint>
            <Time>2021-08-31T08:36:17.000Z</Time>
            <Position>
              <LatitudeDegrees>41.987800486385822296142578125</LatitudeDegrees>
              <LongitudeDegrees>2.109507434070110321044921875</LongitudeDegrees>
            </Position>
            <AltitudeMeters>562.20001220703125</AltitudeMeters>
            <DistanceMeters>14527.155567035</DistanceMeters>
          </Trackpoint>
          <Trackpoint>
            <Time>2021-08-31T08:36:18.000Z</Time>
            <Position>
              <LatitudeDegrees>41.98782018385827541351318359375</LatitudeDegrees>
              <LongitudeDegrees>2.1095910854637622833251953125</LongitudeDegrees>
            </Position>
            <AltitudeMeters>562.79998779296875</AltitudeMeters>
            <DistanceMeters>14534.415010961</DistanceMeters>
          </Trackpoint>
          <Trackpoint>
            <Time>2021-08-31T08:36:20.000Z</Time>
            <Position>
              <LatitudeDegrees>41.98784700594842433929443359375</LatitudeDegrees>
              <LongitudeDegrees>2.10975545458495616912841796875</LongitudeDegrees>
            </Position>
            <AltitudeMeters>564</AltitudeMeters>
            <DistanceMeters>14548.336992171</DistanceMeters>
          </Trackpoint>
          <Trackpoint>
            <Time>2021-08-31T08:36:21.000Z</Time>
            <Position>
              <LatitudeDegrees>41.9878361932933330535888671875</LatitudeDegrees>
              <LongitudeDegrees>2.109833993017673492431640625</LongitudeDegrees>
            </Position>
            <AltitudeMeters>564.5999755859375</AltitudeMeters>
            <DistanceMeters>14554.945278611</DistanceMeters>
          </Trackpoint>
          <Trackpoint>
            <Time>2021-08-31T08:36:22.000Z</Time>
            <Position>
              <LatitudeDegrees>41.9878123886883258819580078125</LatitudeDegrees>
              <LongitudeDegrees>2.1099047362804412841796875</LongitudeDegrees>
            </Position>
            <AltitudeMeters>565.4000244140625</AltitudeMeters>
            <DistanceMeters>14561.369253187</DistanceMeters>
          </Trackpoint>
          <Trackpoint>
            <Time>2021-08-31T08:36:24.000Z</Time>
            <Position>
              <LatitudeDegrees>41.9877304136753082275390625</LatitudeDegrees>
              <LongitudeDegrees>2.1100064925849437713623046875</LongitudeDegrees>
            </Position>
            <AltitudeMeters>566.5999755859375</AltitudeMeters>
            <DistanceMeters>14573.7836124</DistanceMeters>
          </Trackpoint>
          <Trackpoint>
            <Time>2021-08-31T08:36:26.000Z</Time>
            <Position>
              <LatitudeDegrees>41.9876199401915073394775390625</LatitudeDegrees>
              <LongitudeDegrees>2.11004463024437427520751953125</LongitudeDegrees>
            </Position>
            <AltitudeMeters>567.79998779296875</AltitudeMeters>
            <DistanceMeters>14586.477773032</DistanceMeters>
          </Trackpoint>
          <Trackpoint>
            <Time>2021-08-31T08:36:27.000Z</Time>
            <Position>
              <LatitudeDegrees>41.98756210505962371826171875</LatitudeDegrees>
              <LongitudeDegrees>2.1100530959665775299072265625</LongitudeDegrees>
            </Position>
            <AltitudeMeters>568.5999755859375</AltitudeMeters>
            <DistanceMeters>14592.952154458</DistanceMeters>
          </Trackpoint>
          <Trackpoint>
            <Time>2021-08-31T08:36:28.000Z</Time>
            <Position>
              <LatitudeDegrees>41.98751005344092845916748046875</LatitudeDegrees>
              <LongitudeDegrees>2.11006776429712772369384765625</LongitudeDegrees>
            </Position>
            <AltitudeMeters>569.20001220703125</AltitudeMeters>
            <DistanceMeters>14598.871334858</DistanceMeters>
          </Trackpoint>
          <Trackpoint>
            <Time>2021-08-31T08:36:30.000Z</Time>
            <Position>
              <LatitudeDegrees>41.9874291680753231048583984375</LatitudeDegrees>
              <LongitudeDegrees>2.1101463027298450469970703125</LongitudeDegrees>
            </Position>
            <AltitudeMeters>571</AltitudeMeters>
            <DistanceMeters>14609.974018026</DistanceMeters>
          </Trackpoint>
          <Trackpoint>
            <Time>2021-08-31T08:36:32.000Z</Time>
            <Position>
              <LatitudeDegrees>41.9873949699103832244873046875</LatitudeDegrees>
              <LongitudeDegrees>2.110262475907802581787109375</LongitudeDegrees>
            </Position>
            <AltitudeMeters>572.20001220703125</AltitudeMeters>
            <DistanceMeters>14620.310985403</DistanceMeters>
          </Trackpoint>
          <Trackpoint>
            <Time>2021-08-31T08:36:34.000Z</Time>
            <Position>
              <LatitudeDegrees>41.987376026809215545654296875</LatitudeDegrees>
              <LongitudeDegrees>2.11038543842732906341552734375</LongitudeDegrees>
            </Position>
            <AltitudeMeters>573.4000244140625</AltitudeMeters>
            <DistanceMeters>14630.699800237</DistanceMeters>
          </Trackpoint>
          <Trackpoint>
            <Time>2021-08-31T08:36:37.000Z</Time>
            <Position>
              <LatitudeDegrees>41.98738885112106800079345703125</LatitudeDegrees>
              <LongitudeDegrees>2.11055424995720386505126953125</LongitudeDegrees>
            </Position>
            <AltitudeMeters>574</AltitudeMeters>
            <DistanceMeters>14644.738047575</DistanceMeters>
          </Trackpoint>
          <Trackpoint>
            <Time>2021-08-31T08:36:38.000Z</Time>
            <Position>
              <LatitudeDegrees>41.9874070398509502410888671875</LatitudeDegrees>
              <LongitudeDegrees>2.11060873232781887054443359375</LongitudeDegrees>
            </Position>
            <AltitudeMeters>574</AltitudeMeters>
            <DistanceMeters>14649.679436722</DistanceMeters>
          </Trackpoint>
          <Trackpoint>
            <Time>2021-08-31T08:36:40.000Z</Time>
            <Position>
              <LatitudeDegrees>41.9874514639377593994140625</LatitudeDegrees>
              <LongitudeDegrees>2.1107169426977634429931640625</LongitudeDegrees>
            </Position>
            <AltitudeMeters>574</AltitudeMeters>
            <DistanceMeters>14659.906183291</DistanceMeters>
          </Trackpoint>
          <Trackpoint>
            <Time>2021-08-31T08:36:42.000Z</Time>
            <Position>
              <LatitudeDegrees>41.9875012524425983428955078125</LatitudeDegrees>
              <LongitudeDegrees>2.11081802845001220703125</LongitudeDegrees>
            </Position>
            <AltitudeMeters>573.79998779296875</AltitudeMeters>
            <DistanceMeters>14669.938592376</DistanceMeters>
          </Trackpoint>
          <Trackpoint>
            <Time>2021-08-31T08:36:45.000Z</Time>
            <Position>
              <LatitudeDegrees>41.98756855912506580352783203125</LatitudeDegrees>
              <LongitudeDegrees>2.110967226326465606689453125</LongitudeDegrees>
            </Position>
            <AltitudeMeters>573.5999755859375</AltitudeMeters>
            <DistanceMeters>14684.377025282</DistanceMeters>
          </Trackpoint>
          <Trackpoint>
            <Time>2021-08-31T08:36:47.000Z</Time>
            <Position>
              <LatitudeDegrees>41.9876232929527759552001953125</LatitudeDegrees>
              <LongitudeDegrees>2.111083902418613433837890625</LongitudeDegrees>
            </Position>
            <AltitudeMeters>573.4000244140625</AltitudeMeters>
            <DistanceMeters>14695.791312072</DistanceMeters>
          </Trackpoint>
          <Trackpoint>
            <Time>2021-08-31T08:36:54.000Z</Time>
            <Position>
              <LatitudeDegrees>41.98781783692538738250732421875</LatitudeDegrees>
              <LongitudeDegrees>2.11147408001124858856201171875</LongitudeDegrees>
            </Position>
            <AltitudeMeters>572.79998779296875</AltitudeMeters>
            <DistanceMeters>14734.660374701</DistanceMeters>
          </Trackpoint>
          <Trackpoint>
            <Time>2021-08-31T08:37:01.000Z</Time>
            <Position>
              <LatitudeDegrees>41.98798145167529582977294921875</LatitudeDegrees>
              <LongitudeDegrees>2.11185671389102935791015625</LongitudeDegrees>
            </Position>
            <AltitudeMeters>574.4000244140625</AltitudeMeters>
            <DistanceMeters>14771.179945896</DistanceMeters>
          </Trackpoint>
          <Trackpoint>
            <Time>2021-08-31T08:37:07.000Z</Time>
            <Position>
              <LatitudeDegrees>41.9880678690969944000244140625</LatitudeDegrees>
              <LongitudeDegrees>2.11217229254543781280517578125</LongitudeDegrees>
            </Position>
            <AltitudeMeters>577.20001220703125</AltitudeMeters>
            <DistanceMeters>14799.003144731</DistanceMeters>
          </Trackpoint>
          <Trackpoint>
            <Time>2021-08-31T08:37:08.000Z</Time>
            <Position>
              <LatitudeDegrees>41.9880708865821361541748046875</LatitudeDegrees>
              <LongitudeDegrees>2.11219358257949352264404296875</LongitudeDegrees>
            </Position>
            <AltitudeMeters>577.4000244140625</AltitudeMeters>
            <DistanceMeters>14800.796105192</DistanceMeters>
          </Trackpoint>
          <Trackpoint>
            <Time>2021-08-31T08:37:10.000Z</Time>
            <Position>
              <LatitudeDegrees>41.98803761042654514312744140625</LatitudeDegrees>
              <LongitudeDegrees>2.11221118457615375518798828125</LongitudeDegrees>
            </Position>
            <AltitudeMeters>577.4000244140625</AltitudeMeters>
            <DistanceMeters>14804.777032742</DistanceMeters>
          </Trackpoint>
          <Trackpoint>
            <Time>2021-08-31T08:37:12.000Z</Time>
            <Position>
              <LatitudeDegrees>41.9879941083490848541259765625</LatitudeDegrees>
              <LongitudeDegrees>2.112242616713047027587890625</LongitudeDegrees>
            </Position>
            <AltitudeMeters>577.5999755859375</AltitudeMeters>
            <DistanceMeters>14810.273816873</DistanceMeters>
          </Trackpoint>
          <Trackpoint>
            <Time>2021-08-31T08:37:14.000Z</Time>
            <Position>
              <LatitudeDegrees>41.9879461638629436492919921875</LatitudeDegrees>
              <LongitudeDegrees>2.11229684762656688690185546875</LongitudeDegrees>
            </Position>
            <AltitudeMeters>577.5999755859375</AltitudeMeters>
            <DistanceMeters>14817.246472864</DistanceMeters>
          </Trackpoint>
          <Trackpoint>
            <Time>2021-08-31T08:37:19.000Z</Time>
            <Position>
              <LatitudeDegrees>41.98776586912572383880615234375</LatitudeDegrees>
              <LongitudeDegrees>2.11243531666696071624755859375</LongitudeDegrees>
            </Position>
            <AltitudeMeters>578.4000244140625</AltitudeMeters>
            <DistanceMeters>14840.353015224</DistanceMeters>
          </Trackpoint>
          <Trackpoint>
            <Time>2021-08-31T08:37:21.000Z</Time>
            <Position>
              <LatitudeDegrees>41.98768791742622852325439453125</LatitudeDegrees>
              <LongitudeDegrees>2.11251310072839260101318359375</LongitudeDegrees>
            </Position>
            <AltitudeMeters>578.5999755859375</AltitudeMeters>
            <DistanceMeters>14851.155174629</DistanceMeters>
          </Trackpoint>
          <Trackpoint>
            <Time>2021-08-31T08:37:23.000Z</Time>
            <Position>
              <LatitudeDegrees>41.98762622661888599395751953125</LatitudeDegrees>
              <LongitudeDegrees>2.11259909905493259429931640625</LongitudeDegrees>
            </Position>
            <AltitudeMeters>578.79998779296875</AltitudeMeters>
            <DistanceMeters>14861.04252046</DistanceMeters>
          </Trackpoint>
          <Trackpoint>
            <Time>2021-08-31T08:37:24.000Z</Time>
            <Position>
              <LatitudeDegrees>41.98760191909968852996826171875</LatitudeDegrees>
              <LongitudeDegrees>2.11264972575008869171142578125</LongitudeDegrees>
            </Position>
            <AltitudeMeters>579.20001220703125</AltitudeMeters>
            <DistanceMeters>14866.029386262</DistanceMeters>
          </Trackpoint>
          <Trackpoint>
            <Time>2021-08-31T08:37:25.000Z</Time>
            <Position>
              <LatitudeDegrees>41.98758297599852085113525390625</LatitudeDegrees>
              <LongitudeDegrees>2.11270353756844997406005859375</LongitudeDegrees>
            </Position>
            <AltitudeMeters>579.4000244140625</AltitudeMeters>
            <DistanceMeters>14870.955217705</DistanceMeters>
          </Trackpoint>
          <Trackpoint>
            <Time>2021-08-31T08:37:27.000Z</Time>
            <Position>
              <LatitudeDegrees>41.98756721802055835723876953125</LatitudeDegrees>
              <LongitudeDegrees>2.11281518451869487762451171875</LongitudeDegrees>
            </Position>
            <AltitudeMeters>579.79998779296875</AltitudeMeters>
            <DistanceMeters>14880.356621229</DistanceMeters>
          </Trackpoint>
          <Trackpoint>
            <Time>2021-08-31T08:37:28.000Z</Time>
            <Position>
              <LatitudeDegrees>41.9875703193247318267822265625</LatitudeDegrees>
              <LongitudeDegrees>2.11287704296410083770751953125</LongitudeDegrees>
            </Position>
            <AltitudeMeters>580</AltitudeMeters>
            <DistanceMeters>14885.486303749</DistanceMeters>
          </Trackpoint>
          <Trackpoint>
            <Time>2021-08-31T08:37:29.000Z</Time>
            <Position>
              <LatitudeDegrees>41.98757953941822052001953125</LatitudeDegrees>
              <LongitudeDegrees>2.1129374764859676361083984375</LongitudeDegrees>
            </Position>
            <AltitudeMeters>580.20001220703125</AltitudeMeters>
            <DistanceMeters>14890.589512589</DistanceMeters>
          </Trackpoint>
          <Trackpoint>
            <Time>2021-08-31T08:37:31.000Z</Time>
            <Position>
              <LatitudeDegrees>41.98760569095611572265625</LatitudeDegrees>
              <LongitudeDegrees>2.11305138655006885528564453125</LongitudeDegrees>
            </Position>
            <AltitudeMeters>580.4000244140625</AltitudeMeters>
            <DistanceMeters>14900.452626374</DistanceMeters>
          </Trackpoint>
          <Trackpoint>
            <Time>2021-08-31T08:37:33.000Z</Time>
            <Position>
              <LatitudeDegrees>41.98764349333941936492919921875</LatitudeDegrees>
              <LongitudeDegrees>2.113151215016841888427734375</LongitudeDegrees>
            </Position>
            <AltitudeMeters>580.79998779296875</AltitudeMeters>
            <DistanceMeters>14909.721506959</DistanceMeters>
          </Trackpoint>
          <Trackpoint>
            <Time>2021-08-31T08:37:39.000Z</Time>
            <Position>
              <LatitudeDegrees>41.9877376221120357513427734375</LatitudeDegrees>
              <LongitudeDegrees>2.1134175918996334075927734375</LongitudeDegrees>
            </Position>
            <AltitudeMeters>582</AltitudeMeters>
            <DistanceMeters>14934.122472522</DistanceMeters>
          </Trackpoint>
          <Trackpoint>
            <Time>2021-08-31T08:37:46.000Z</Time>
            <Position>
              <LatitudeDegrees>41.98778095655143260955810546875</LatitudeDegrees>
              <LongitudeDegrees>2.1137993037700653076171875</LongitudeDegrees>
            </Position>
            <AltitudeMeters>584.5999755859375</AltitudeMeters>
            <DistanceMeters>14966.067423748</DistanceMeters>
          </Trackpoint>
          <Trackpoint>
            <Time>2021-08-31T08:37:52.000Z</Time>
            <Position>
              <LatitudeDegrees>41.98770266957581043243408203125</LatitudeDegrees>
              <LongitudeDegrees>2.1141186542809009552001953125</LongitudeDegrees>
            </Position>
            <AltitudeMeters>586.4000244140625</AltitudeMeters>
            <DistanceMeters>14993.886727685</DistanceMeters>
          </Trackpoint>
          <Trackpoint>
            <Time>2021-08-31T08:37:56.000Z</Time>
            <Position>
              <LatitudeDegrees>41.98761968873441219329833984375</LatitudeDegrees>
              <LongitudeDegrees>2.11431168951094150543212890625</LongitudeDegrees>
            </Position>
            <AltitudeMeters>588.5999755859375</AltitudeMeters>
            <DistanceMeters>15012.3351309</DistanceMeters>
          </Trackpoint>
          <Trackpoint>
            <Time>2021-08-31T08:37:58.000Z</Time>
            <Position>
              <LatitudeDegrees>41.98756788857281208038330078125</LatitudeDegrees>
              <LongitudeDegrees>2.1143892221152782440185546875</LongitudeDegrees>
            </Position>
            <AltitudeMeters>590</AltitudeMeters>
            <DistanceMeters>15020.959557818</DistanceMeters>
          </Trackpoint>
          <Trackpoint>
            <Time>2021-08-31T08:38:02.000Z</Time>
            <Position>
              <LatitudeDegrees>41.9874563254415988922119140625</LatitudeDegrees>
              <LongitudeDegrees>2.11451168172061443328857421875</LongitudeDegrees>
            </Position>
            <AltitudeMeters>592.4000244140625</AltitudeMeters>
            <DistanceMeters>15036.985018001</DistanceMeters>
          </Trackpoint>
          <Trackpoint>
            <Time>2021-08-31T08:38:08.000Z</Time>
            <Position>
              <LatitudeDegrees>41.98732079006731510162353515625</LatitudeDegrees>
              <LongitudeDegrees>2.11471234448254108428955078125</LongitudeDegrees>
            </Position>
            <AltitudeMeters>596</AltitudeMeters>
            <DistanceMeters>15059.416153939</DistanceMeters>
          </Trackpoint>
          <Trackpoint>
            <Time>2021-08-31T08:38:14.000Z</Time>
            <Position>
              <LatitudeDegrees>41.9873077981173992156982421875</LatitudeDegrees>
              <LongitudeDegrees>2.114958353340625762939453125</LongitudeDegrees>
            </Position>
            <AltitudeMeters>598.5999755859375</AltitudeMeters>
            <DistanceMeters>15079.819697362</DistanceMeters>
          </Trackpoint>
          <Trackpoint>
            <Time>2021-08-31T08:38:19.000Z</Time>
            <Position>
              <LatitudeDegrees>41.98727988637983798980712890625</LatitudeDegrees>
              <LongitudeDegrees>2.11514937691390514373779296875</LongitudeDegrees>
            </Position>
            <AltitudeMeters>600.5999755859375</AltitudeMeters>
            <DistanceMeters>15095.925534066</DistanceMeters>
          </Trackpoint>
          <Trackpoint>
            <Time>2021-08-31T08:38:25.000Z</Time>
            <Position>
              <LatitudeDegrees>41.98724023997783660888671875</LatitudeDegrees>
              <LongitudeDegrees>2.11539831943809986114501953125</LongitudeDegrees>
            </Position>
            <AltitudeMeters>603.4000244140625</AltitudeMeters>
            <DistanceMeters>15116.988050429</DistanceMeters>
          </Trackpoint>
          <Trackpoint>
            <Time>2021-08-31T08:38:29.000Z</Time>
            <Position>
              <LatitudeDegrees>41.98720931075513362884521484375</LatitudeDegrees>
              <LongitudeDegrees>2.11556746624410152435302734375</LongitudeDegrees>
            </Position>
            <AltitudeMeters>605.20001220703125</AltitudeMeters>
            <DistanceMeters>15131.398938606</DistanceMeters>
          </Trackpoint>
          <Trackpoint>
            <Time>2021-08-31T08:38:35.000Z</Time>
            <Position>
              <LatitudeDegrees>41.987101100385189056396484375</LatitudeDegrees>
              <LongitudeDegrees>2.11576377041637897491455078125</LongitudeDegrees>
            </Position>
            <AltitudeMeters>607.20001220703125</AltitudeMeters>
            <DistanceMeters>15151.617756343</DistanceMeters>
          </Trackpoint>
          <Trackpoint>
            <Time>2021-08-31T08:38:42.000Z</Time>
            <Position>
              <LatitudeDegrees>41.98694544844329357147216796875</LatitudeDegrees>
              <LongitudeDegrees>2.115957476198673248291015625</LongitudeDegrees>
            </Position>
            <AltitudeMeters>609.79998779296875</AltitudeMeters>
            <DistanceMeters>15175.217311313</DistanceMeters>
          </Trackpoint>
          <Trackpoint>
            <Time>2021-08-31T08:38:48.000Z</Time>
            <Position>
              <LatitudeDegrees>41.98683748953044414520263671875</LatitudeDegrees>
              <LongitudeDegrees>2.11614447645843029022216796875</LongitudeDegrees>
            </Position>
            <AltitudeMeters>611.79998779296875</AltitudeMeters>
            <DistanceMeters>15194.806187452</DistanceMeters>
          </Trackpoint>
          <Trackpoint>
            <Time>2021-08-31T08:38:53.000Z</Time>
            <Position>
              <LatitudeDegrees>41.986751742660999298095703125</LatitudeDegrees>
              <LongitudeDegrees>2.11634094826877117156982421875</LongitudeDegrees>
            </Position>
            <AltitudeMeters>613.5999755859375</AltitudeMeters>
            <DistanceMeters>15213.655281799</DistanceMeters>
          </Trackpoint>
          <Trackpoint>
            <Time>2021-08-31T08:38:59.000Z</Time>
            <Position>
              <LatitudeDegrees>41.98668963275849819183349609375</LatitudeDegrees>
              <LongitudeDegrees>2.11660849861800670623779296875</LongitudeDegrees>
            </Position>
            <AltitudeMeters>616.4000244140625</AltitudeMeters>
            <DistanceMeters>15236.844526121</DistanceMeters>
          </Trackpoint>
          <Trackpoint>
            <Time>2021-08-31T08:39:04.000Z</Time>
            <Position>
              <LatitudeDegrees>41.98663900606334209442138671875</LatitudeDegrees>
              <LongitudeDegrees>2.1168565191328525543212890625</LongitudeDegrees>
            </Position>
            <AltitudeMeters>618.79998779296875</AltitudeMeters>
            <DistanceMeters>15258.123297069</DistanceMeters>
          </Trackpoint>
          <Trackpoint>
            <Time>2021-08-31T08:39:08.000Z</Time>
            <Position>
              <LatitudeDegrees>41.98663246817886829376220703125</LatitudeDegrees>
              <LongitudeDegrees>2.117048464715480804443359375</LongitudeDegrees>
            </Position>
            <AltitudeMeters>620.79998779296875</AltitudeMeters>
            <DistanceMeters>15274.020047972</DistanceMeters>
          </Trackpoint>
          <Trackpoint>
            <Time>2021-08-31T08:39:09.000Z</Time>
            <Position>
              <LatitudeDegrees>41.986621655523777008056640625</LatitudeDegrees>
              <LongitudeDegrees>2.11709347553551197052001953125</LongitudeDegrees>
            </Position>
            <AltitudeMeters>621.4000244140625</AltitudeMeters>
            <DistanceMeters>15277.933487591</DistanceMeters>
          </Trackpoint>
          <Trackpoint>
            <Time>2021-08-31T08:39:11.000Z</Time>
            <Position>
              <LatitudeDegrees>41.98656675405800342559814453125</LatitudeDegrees>
              <LongitudeDegrees>2.11715365760028362274169921875</LongitudeDegrees>
            </Position>
            <AltitudeMeters>622</AltitudeMeters>
            <DistanceMeters>15285.815551149</DistanceMeters>
          </Trackpoint>
          <Trackpoint>
            <Time>2021-08-31T08:39:16.000Z</Time>
            <Position>
              <LatitudeDegrees>41.986392997205257415771484375</LatitudeDegrees>
              <LongitudeDegrees>2.117222137749195098876953125</LongitudeDegrees>
            </Position>
            <AltitudeMeters>624</AltitudeMeters>
            <DistanceMeters>15305.967937062</DistanceMeters>
          </Trackpoint>
          <Trackpoint>
            <Time>2021-08-31T08:39:20.000Z</Time>
            <Position>
              <LatitudeDegrees>41.98625796474516391754150390625</LatitudeDegrees>
              <LongitudeDegrees>2.1172578446567058563232421875</LongitudeDegrees>
            </Position>
            <AltitudeMeters>626.4000244140625</AltitudeMeters>
            <DistanceMeters>15321.284639906</DistanceMeters>
          </Trackpoint>
          <Trackpoint>
            <Time>2021-08-31T08:39:24.000Z</Time>
            <Position>
              <LatitudeDegrees>41.98609887622296810150146484375</LatitudeDegrees>
              <LongitudeDegrees>2.1172474510967731475830078125</LongitudeDegrees>
            </Position>
            <AltitudeMeters>628</AltitudeMeters>
            <DistanceMeters>15339.012152998</DistanceMeters>
          </Trackpoint>
          <Trackpoint>
            <Time>2021-08-31T08:39:28.000Z</Time>
            <Position>
              <LatitudeDegrees>41.9859864749014377593994140625</LatitudeDegrees>
              <LongitudeDegrees>2.11716773919761180877685546875</LongitudeDegrees>
            </Position>
            <AltitudeMeters>627.79998779296875</AltitudeMeters>
            <DistanceMeters>15353.154222616</DistanceMeters>
          </Trackpoint>
          <Trackpoint>
            <Time>2021-08-31T08:39:32.000Z</Time>
            <Position>
              <LatitudeDegrees>41.985861249268054962158203125</LatitudeDegrees>
              <LongitudeDegrees>2.11709448136389255523681640625</LongitudeDegrees>
            </Position>
            <AltitudeMeters>627.20001220703125</AltitudeMeters>
            <DistanceMeters>15368.353150722</DistanceMeters>
          </Trackpoint>
          <Trackpoint>
            <Time>2021-08-31T08:39:35.000Z</Time>
            <Position>
              <LatitudeDegrees>41.98574381880462169647216796875</LatitudeDegrees>
              <LongitudeDegrees>2.1171091496944427490234375</LongitudeDegrees>
            </Position>
            <AltitudeMeters>627.79998779296875</AltitudeMeters>
            <DistanceMeters>15381.479914173</DistanceMeters>
          </Trackpoint>
          <Trackpoint>
            <Time>2021-08-31T08:39:38.000Z</Time>
            <Position>
              <LatitudeDegrees>41.9856424815952777862548828125</LatitudeDegrees>
              <LongitudeDegrees>2.1171860955655574798583984375</LongitudeDegrees>
            </Position>
            <AltitudeMeters>629.20001220703125</AltitudeMeters>
            <DistanceMeters>15394.431466205</DistanceMeters>
          </Trackpoint>
          <Trackpoint>
            <Time>2021-08-31T08:39:40.000Z</Time>
            <Position>
              <LatitudeDegrees>41.985556147992610931396484375</LatitudeDegrees>
              <LongitudeDegrees>2.117232196033000946044921875</LongitudeDegrees>
            </Position>
            <AltitudeMeters>630</AltitudeMeters>
            <DistanceMeters>15404.770180577</DistanceMeters>
          </Trackpoint>
          <Trackpoint>
            <Time>2021-08-31T08:39:43.000Z</Time>
            <Position>
              <LatitudeDegrees>41.98539596982300281524658203125</LatitudeDegrees>
              <LongitudeDegrees>2.11727209389209747314453125</LongitudeDegrees>
            </Position>
            <AltitudeMeters>629.5999755859375</AltitudeMeters>
            <DistanceMeters>15422.901616345</DistanceMeters>
          </Trackpoint>
          <Trackpoint>
            <Time>2021-08-31T08:39:45.000Z</Time>
            <Position>
              <LatitudeDegrees>41.9852842390537261962890625</LatitudeDegrees>
              <LongitudeDegrees>2.11728542111814022064208984375</LongitudeDegrees>
            </Position>
            <AltitudeMeters>629</AltitudeMeters>
            <DistanceMeters>15435.386694622</DistanceMeters>
          </Trackpoint>
          <Trackpoint>
            <Time>2021-08-31T08:39:49.000Z</Time>
            <Position>
              <LatitudeDegrees>41.9850795529782772064208984375</LatitudeDegrees>
              <LongitudeDegrees>2.1172913722693920135498046875</LongitudeDegrees>
            </Position>
            <AltitudeMeters>628.4000244140625</AltitudeMeters>
            <DistanceMeters>15458.174092802</DistanceMeters>
          </Trackpoint>
          <Trackpoint>
            <Time>2021-08-31T08:39:51.000Z</Time>
            <Position>
              <LatitudeDegrees>41.9849689118564128875732421875</LatitudeDegrees>
              <LongitudeDegrees>2.11725943721830844879150390625</LongitudeDegrees>
            </Position>
            <AltitudeMeters>627.4000244140625</AltitudeMeters>
            <DistanceMeters>15470.768628237</DistanceMeters>
          </Trackpoint>
          <Trackpoint>
            <Time>2021-08-31T08:39:57.000Z</Time>
            <Position>
              <LatitudeDegrees>41.98460890911519527435302734375</LatitudeDegrees>
              <LongitudeDegrees>2.11719271726906299591064453125</LongitudeDegrees>
            </Position>
            <AltitudeMeters>625</AltitudeMeters>
            <DistanceMeters>15511.216088102</DistanceMeters>
          </Trackpoint>
          <Trackpoint>
            <Time>2021-08-31T08:40:00.000Z</Time>
            <Position>
              <LatitudeDegrees>41.9844096712768077850341796875</LatitudeDegrees>
              <LongitudeDegrees>2.1171529032289981842041015625</LongitudeDegrees>
            </Position>
            <AltitudeMeters>624.4000244140625</AltitudeMeters>
            <DistanceMeters>15533.635143721</DistanceMeters>
          </Trackpoint>
          <Trackpoint>
            <Time>2021-08-31T08:40:02.000Z</Time>
            <Position>
              <LatitudeDegrees>41.98427028022706508636474609375</LatitudeDegrees>
              <LongitudeDegrees>2.11716354824602603912353515625</LongitudeDegrees>
            </Position>
            <AltitudeMeters>624.5999755859375</AltitudeMeters>
            <DistanceMeters>15549.174844628</DistanceMeters>
          </Trackpoint>
          <Trackpoint>
            <Time>2021-08-31T08:40:04.000Z</Time>
            <Position>
              <LatitudeDegrees>41.984126530587673187255859375</LatitudeDegrees>
              <LongitudeDegrees>2.11720847524702548980712890625</LongitudeDegrees>
            </Position>
            <AltitudeMeters>626</AltitudeMeters>
            <DistanceMeters>15565.600453414</DistanceMeters>
          </Trackpoint>
          <Trackpoint>
            <Time>2021-08-31T08:40:06.000Z</Time>
            <Position>
              <LatitudeDegrees>41.98400373570621013641357421875</LatitudeDegrees>
              <LongitudeDegrees>2.11719565093517303466796875</LongitudeDegrees>
            </Position>
            <AltitudeMeters>626.4000244140625</AltitudeMeters>
            <DistanceMeters>15579.308695124</DistanceMeters>
          </Trackpoint>
          <Trackpoint>
            <Time>2021-08-31T08:40:08.000Z</Time>
            <Position>
              <LatitudeDegrees>41.98392276652157306671142578125</LatitudeDegrees>
              <LongitudeDegrees>2.1170985884964466094970703125</LongitudeDegrees>
            </Position>
            <AltitudeMeters>627</AltitudeMeters>
            <DistanceMeters>15591.379332366</DistanceMeters>
          </Trackpoint>
          <Trackpoint>
            <Time>2021-08-31T08:40:09.000Z</Time>
            <Position>
              <LatitudeDegrees>41.98390030302107334136962890625</LatitudeDegrees>
              <LongitudeDegrees>2.11703765206038951873779296875</LongitudeDegrees>
            </Position>
            <AltitudeMeters>627</AltitudeMeters>
            <DistanceMeters>15597.006005274</DistanceMeters>
          </Trackpoint>
          <Trackpoint>
            <Time>2021-08-31T08:40:10.000Z</Time>
            <Position>
              <LatitudeDegrees>41.98388353921473026275634765625</LatitudeDegrees>
              <LongitudeDegrees>2.11697294376790523529052734375</LongitudeDegrees>
            </Position>
            <AltitudeMeters>627</AltitudeMeters>
            <DistanceMeters>15602.675047703</DistanceMeters>
          </Trackpoint>
          <Trackpoint>
            <Time>2021-08-31T08:40:13.000Z</Time>
            <Position>
              <LatitudeDegrees>41.98387398384511470794677734375</LatitudeDegrees>
              <LongitudeDegrees>2.11677161045372486114501953125</LongitudeDegrees>
            </Position>
            <AltitudeMeters>627</AltitudeMeters>
            <DistanceMeters>15619.365970038</DistanceMeters>
          </Trackpoint>
          <Trackpoint>
            <Time>2021-08-31T08:40:15.000Z</Time>
            <Position>
              <LatitudeDegrees>41.9838591478765010833740234375</LatitudeDegrees>
              <LongitudeDegrees>2.11664135567843914031982421875</LongitudeDegrees>
            </Position>
            <AltitudeMeters>627.20001220703125</AltitudeMeters>
            <DistanceMeters>15630.2683962</DistanceMeters>
          </Trackpoint>
          <Trackpoint>
            <Time>2021-08-31T08:40:17.000Z</Time>
            <Position>
              <LatitudeDegrees>41.98380541987717151641845703125</LatitudeDegrees>
              <LongitudeDegrees>2.11654328741133213043212890625</LongitudeDegrees>
            </Position>
            <AltitudeMeters>627.5999755859375</AltitudeMeters>
            <DistanceMeters>15640.347501319</DistanceMeters>
          </Trackpoint>
          <Trackpoint>
            <Time>2021-08-31T08:40:19.000Z</Time>
            <Position>
              <LatitudeDegrees>41.98371581733226776123046875</LatitudeDegrees>
              <LongitudeDegrees>2.11649400182068347930908203125</LongitudeDegrees>
            </Position>
            <AltitudeMeters>627.5999755859375</AltitudeMeters>
            <DistanceMeters>15651.121200898</DistanceMeters>
          </Trackpoint>
          <Trackpoint>
            <Time>2021-08-31T08:40:21.000Z</Time>
            <Position>
              <LatitudeDegrees>41.98361649177968502044677734375</LatitudeDegrees>
              <LongitudeDegrees>2.1164857037365436553955078125</LongitudeDegrees>
            </Position>
            <AltitudeMeters>627</AltitudeMeters>
            <DistanceMeters>15662.197419502</DistanceMeters>
          </Trackpoint>
          <Trackpoint>
            <Time>2021-08-31T08:40:23.000Z</Time>
            <Position>
              <LatitudeDegrees>41.98352328501641750335693359375</LatitudeDegrees>
              <LongitudeDegrees>2.11652778089046478271484375</LongitudeDegrees>
            </Position>
            <AltitudeMeters>627</AltitudeMeters>
            <DistanceMeters>15673.140767884</DistanceMeters>
          </Trackpoint>
          <Trackpoint>
            <Time>2021-08-31T08:40:24.000Z</Time>
            <Position>
              <LatitudeDegrees>41.98346980847418308258056640625</LatitudeDegrees>
              <LongitudeDegrees>2.11655653081834316253662109375</LongitudeDegrees>
            </Position>
            <AltitudeMeters>627</AltitudeMeters>
            <DistanceMeters>15679.550670209</DistanceMeters>
          </Trackpoint>
          <Trackpoint>
            <Time>2021-08-31T08:40:25.000Z</Time>
            <Position>
              <LatitudeDegrees>41.9834333471953868865966796875</LatitudeDegrees>
              <LongitudeDegrees>2.1165941655635833740234375</LongitudeDegrees>
            </Position>
            <AltitudeMeters>626.5999755859375</AltitudeMeters>
            <DistanceMeters>15684.666250482</DistanceMeters>
          </Trackpoint>
          <Trackpoint>
            <Time>2021-08-31T08:40:27.000Z</Time>
            <Position>
              <LatitudeDegrees>41.98335698805749416351318359375</LatitudeDegrees>
              <LongitudeDegrees>2.116648815572261810302734375</LongitudeDegrees>
            </Position>
            <AltitudeMeters>625.79998779296875</AltitudeMeters>
            <DistanceMeters>15694.293071066</DistanceMeters>
          </Trackpoint>
          <Trackpoint>
            <Time>2021-08-31T08:40:29.000Z</Time>
            <Position>
              <LatitudeDegrees>41.98326654732227325439453125</LatitudeDegrees>
              <LongitudeDegrees>2.116704471409320831298828125</LongitudeDegrees>
            </Position>
            <AltitudeMeters>625.20001220703125</AltitudeMeters>
            <DistanceMeters>15705.361949834</DistanceMeters>
          </Trackpoint>
          <Trackpoint>
            <Time>2021-08-31T08:40:31.000Z</Time>
            <Position>
              <LatitudeDegrees>41.98319136165082454681396484375</LatitudeDegrees>
              <LongitudeDegrees>2.11675685830414295196533203125</LongitudeDegrees>
            </Position>
            <AltitudeMeters>625.20001220703125</AltitudeMeters>
            <DistanceMeters>15714.785419033</DistanceMeters>
          </Trackpoint>
          <Trackpoint>
            <Time>2021-08-31T08:40:32.000Z</Time>
            <Position>
              <LatitudeDegrees>41.98316738940775394439697265625</LatitudeDegrees>
              <LongitudeDegrees>2.11679139174520969390869140625</LongitudeDegrees>
            </Position>
            <AltitudeMeters>625.20001220703125</AltitudeMeters>
            <DistanceMeters>15718.694241023</DistanceMeters>
          </Trackpoint>
          <Trackpoint>
            <Time>2021-08-31T08:40:33.000Z</Time>
            <Position>
              <LatitudeDegrees>41.98314509354531764984130859375</LatitudeDegrees>
              <LongitudeDegrees>2.1168374083936214447021484375</LongitudeDegrees>
            </Position>
            <AltitudeMeters>625.5999755859375</AltitudeMeters>
            <DistanceMeters>15723.238664509</DistanceMeters>
          </Trackpoint>
          <Trackpoint>
            <Time>2021-08-31T08:40:35.000Z</Time>
            <Position>
              <LatitudeDegrees>41.983108632266521453857421875</LatitudeDegrees>
              <LongitudeDegrees>2.116953916847705841064453125</LongitudeDegrees>
            </Position>
            <AltitudeMeters>626.20001220703125</AltitudeMeters>
            <DistanceMeters>15733.697648497</DistanceMeters>
          </Trackpoint>
          <Trackpoint>
            <Time>2021-08-31T08:40:36.000Z</Time>
            <Position>
              <LatitudeDegrees>41.9830990768969058990478515625</LatitudeDegrees>
              <LongitudeDegrees>2.1170152723789215087890625</LongitudeDegrees>
            </Position>
            <AltitudeMeters>626.5999755859375</AltitudeMeters>
            <DistanceMeters>15738.883356515</DistanceMeters>
          </Trackpoint>
          <Trackpoint>
            <Time>2021-08-31T08:40:42.000Z</Time>
            <Position>
              <LatitudeDegrees>41.98309957981109619140625</LatitudeDegrees>
              <LongitudeDegrees>2.11739824153482913970947265625</LongitudeDegrees>
            </Position>
            <AltitudeMeters>629</AltitudeMeters>
            <DistanceMeters>15770.568460884</DistanceMeters>
          </Trackpoint>
          <Trackpoint>
            <Time>2021-08-31T08:40:43.000Z</Time>
            <Position>
              <LatitudeDegrees>41.98309312574565410614013671875</LatitudeDegrees>
              <LongitudeDegrees>2.11745607666671276092529296875</LongitudeDegrees>
            </Position>
            <AltitudeMeters>629.20001220703125</AltitudeMeters>
            <DistanceMeters>15775.408297482</DistanceMeters>
          </Trackpoint>
          <Trackpoint>
            <Time>2021-08-31T08:40:45.000Z</Time>
            <Position>
              <LatitudeDegrees>41.9830873422324657440185546875</LatitudeDegrees>
              <LongitudeDegrees>2.1175874210894107818603515625</LongitudeDegrees>
            </Position>
            <AltitudeMeters>629.5999755859375</AltitudeMeters>
            <DistanceMeters>15786.294560535</DistanceMeters>
          </Trackpoint>
          <Trackpoint>
            <Time>2021-08-31T08:40:47.000Z</Time>
            <Position>
              <LatitudeDegrees>41.98309396393597126007080078125</LatitudeDegrees>
              <LongitudeDegrees>2.1177233755588531494140625</LongitudeDegrees>
            </Position>
            <AltitudeMeters>630.4000244140625</AltitudeMeters>
            <DistanceMeters>15797.566747795</DistanceMeters>
          </Trackpoint>
          <Trackpoint>
            <Time>2021-08-31T08:40:50.000Z</Time>
            <Position>
              <LatitudeDegrees>41.98309731669723987579345703125</LatitudeDegrees>
              <LongitudeDegrees>2.1179297380149364471435546875</LongitudeDegrees>
            </Position>
            <AltitudeMeters>631.5999755859375</AltitudeMeters>
            <DistanceMeters>15814.644610922</DistanceMeters>
          </Trackpoint>
          <Trackpoint>
            <Time>2021-08-31T08:40:53.000Z</Time>
            <Position>
              <LatitudeDegrees>41.98310469277203083038330078125</LatitudeDegrees>
              <LongitudeDegrees>2.1181205101311206817626953125</LongitudeDegrees>
            </Position>
            <AltitudeMeters>633</AltitudeMeters>
            <DistanceMeters>15830.449641915</DistanceMeters>
          </Trackpoint>
          <Trackpoint>
            <Time>2021-08-31T08:40:55.000Z</Time>
            <Position>
              <LatitudeDegrees>41.983119361102581024169921875</LatitudeDegrees>
              <LongitudeDegrees>2.118239700794219970703125</LongitudeDegrees>
            </Position>
            <AltitudeMeters>634</AltitudeMeters>
            <DistanceMeters>15840.445079163</DistanceMeters>
          </Trackpoint>
          <Trackpoint>
            <Time>2021-08-31T08:40:56.000Z</Time>
            <Position>
              <LatitudeDegrees>41.9831282459199428558349609375</LatitudeDegrees>
              <LongitudeDegrees>2.11830164305865764617919921875</LongitudeDegrees>
            </Position>
            <AltitudeMeters>634.5999755859375</AltitudeMeters>
            <DistanceMeters>15845.665497796</DistanceMeters>
          </Trackpoint>
          <Trackpoint>
            <Time>2021-08-31T08:40:58.000Z</Time>
            <Position>
              <LatitudeDegrees>41.98316990397870540618896484375</LatitudeDegrees>
              <LongitudeDegrees>2.11841513402760028839111328125</LongitudeDegrees>
            </Position>
            <AltitudeMeters>635.4000244140625</AltitudeMeters>
            <DistanceMeters>15856.137855621</DistanceMeters>
          </Trackpoint>
          <Trackpoint>
            <Time>2021-08-31T08:40:59.000Z</Time>
            <Position>
              <LatitudeDegrees>41.9831974804401397705078125</LatitudeDegrees>
              <LongitudeDegrees>2.11846726946532726287841796875</LongitudeDegrees>
            </Position>
            <AltitudeMeters>635.5999755859375</AltitudeMeters>
            <DistanceMeters>15861.432131519</DistanceMeters>
          </Trackpoint>
          <Trackpoint>
            <Time>2021-08-31T08:41:01.000Z</Time>
            <Position>
              <LatitudeDegrees>41.98325581848621368408203125</LatitudeDegrees>
              <LongitudeDegrees>2.118559218943119049072265625</LongitudeDegrees>
            </Position>
            <AltitudeMeters>636.4000244140625</AltitudeMeters>
            <DistanceMeters>15871.433890706</DistanceMeters>
          </Trackpoint>
          <Trackpoint>
            <Time>2021-08-31T08:41:04.000Z</Time>
            <Position>
              <LatitudeDegrees>41.98334944434463977813720703125</LatitudeDegrees>
              <LongitudeDegrees>2.11863608099520206451416015625</LongitudeDegrees>
            </Position>
            <AltitudeMeters>636.79998779296875</AltitudeMeters>
            <DistanceMeters>15883.641772653</DistanceMeters>
          </Trackpoint>
          <Trackpoint>
            <Time>2021-08-31T08:41:06.000Z</Time>
            <Position>
              <LatitudeDegrees>41.98340476490557193756103515625</LatitudeDegrees>
              <LongitudeDegrees>2.11867312900722026824951171875</LongitudeDegrees>
            </Position>
            <AltitudeMeters>637</AltitudeMeters>
            <DistanceMeters>15890.519895252</DistanceMeters>
          </Trackpoint>
          <Trackpoint>
            <Time>2021-08-31T08:41:08.000Z</Time>
            <Position>
              <LatitudeDegrees>41.98340862058103084564208984375</LatitudeDegrees>
              <LongitudeDegrees>2.1187307126820087432861328125</LongitudeDegrees>
            </Position>
            <AltitudeMeters>637.5999755859375</AltitudeMeters>
            <DistanceMeters>15895.304374721</DistanceMeters>
          </Trackpoint>
          <Trackpoint>
            <Time>2021-08-31T08:41:11.000Z</Time>
            <Position>
              <LatitudeDegrees>41.98334030807018280029296875</LatitudeDegrees>
              <LongitudeDegrees>2.118821404874324798583984375</LongitudeDegrees>
            </Position>
            <AltitudeMeters>637.5999755859375</AltitudeMeters>
            <DistanceMeters>15905.987169585</DistanceMeters>
          </Trackpoint>
          <Trackpoint>
            <Time>2021-08-31T08:41:12.000Z</Time>
            <Position>
              <LatitudeDegrees>41.9833087921142578125</LatitudeDegrees>
              <LongitudeDegrees>2.1188282780349254608154296875</LongitudeDegrees>
            </Position>
            <AltitudeMeters>637.5999755859375</AltitudeMeters>
            <DistanceMeters>15909.541473588</DistanceMeters>
          </Trackpoint>
          <Trackpoint>
            <Time>2021-08-31T08:41:14.000Z</Time>
            <Position>
              <LatitudeDegrees>41.98323528282344341278076171875</LatitudeDegrees>
              <LongitudeDegrees>2.1188074909150600433349609375</LongitudeDegrees>
            </Position>
            <AltitudeMeters>637.20001220703125</AltitudeMeters>
            <DistanceMeters>15917.901664475</DistanceMeters>
          </Trackpoint>
          <Trackpoint>
            <Time>2021-08-31T08:41:16.000Z</Time>
            <Position>
              <LatitudeDegrees>41.98315330781042575836181640625</LatitudeDegrees>
              <LongitudeDegrees>2.11877622641623020172119140625</LongitudeDegrees>
            </Position>
            <AltitudeMeters>637</AltitudeMeters>
            <DistanceMeters>15927.385311526</DistanceMeters>
          </Trackpoint>
          <Trackpoint>
            <Time>2021-08-31T08:41:18.000Z</Time>
            <Position>
              <LatitudeDegrees>41.98307585902512073516845703125</LatitudeDegrees>
              <LongitudeDegrees>2.118784524500370025634765625</LongitudeDegrees>
            </Position>
            <AltitudeMeters>637</AltitudeMeters>
            <DistanceMeters>15936.033264643</DistanceMeters>
          </Trackpoint>
          <Trackpoint>
            <Time>2021-08-31T08:41:19.000Z</Time>
            <Position>
              <LatitudeDegrees>41.98304216377437114715576171875</LatitudeDegrees>
              <LongitudeDegrees>2.1187991090118885040283203125</LongitudeDegrees>
            </Position>
            <AltitudeMeters>637</AltitudeMeters>
            <DistanceMeters>15939.972004458</DistanceMeters>
          </Trackpoint>
          <Trackpoint>
            <Time>2021-08-31T08:41:20.000Z</Time>
            <Position>
              <LatitudeDegrees>41.98303059674799442291259765625</LatitudeDegrees>
              <LongitudeDegrees>2.11882852949202060699462890625</LongitudeDegrees>
            </Position>
            <AltitudeMeters>637</AltitudeMeters>
            <DistanceMeters>15942.724500441</DistanceMeters>
          </Trackpoint>
          <Trackpoint>
            <Time>2021-08-31T08:41:21.000Z</Time>
            <Position>
              <LatitudeDegrees>41.98303126730024814605712890625</LatitudeDegrees>
              <LongitudeDegrees>2.118864990770816802978515625</LongitudeDegrees>
            </Position>
            <AltitudeMeters>637</AltitudeMeters>
            <DistanceMeters>15945.743001249</DistanceMeters>
          </Trackpoint>
          <Trackpoint>
            <Time>2021-08-31T08:41:24.000Z</Time>
            <Position>
              <LatitudeDegrees>41.9830507971346378326416015625</LatitudeDegrees>
              <LongitudeDegrees>2.11900555528700351715087890625</LongitudeDegrees>
            </Position>
            <AltitudeMeters>636.4000244140625</AltitudeMeters>
            <DistanceMeters>15957.574495028</DistanceMeters>
          </Trackpoint>
          <Trackpoint>
            <Time>2021-08-31T08:41:26.000Z</Time>
            <Position>
              <LatitudeDegrees>41.9830633699893951416015625</LatitudeDegrees>
              <LongitudeDegrees>2.1191216446459293365478515625</LongitudeDegrees>
            </Position>
            <AltitudeMeters>635.5999755859375</AltitudeMeters>
            <DistanceMeters>15967.280254012</DistanceMeters>
          </Trackpoint>
          <Trackpoint>
            <Time>2021-08-31T08:41:28.000Z</Time>
            <Position>
              <LatitudeDegrees>41.9830960594117641448974609375</LatitudeDegrees>
              <LongitudeDegrees>2.1192805655300617218017578125</LongitudeDegrees>
            </Position>
            <AltitudeMeters>634.5999755859375</AltitudeMeters>
            <DistanceMeters>15980.922794303</DistanceMeters>
          </Trackpoint>
          <Trackpoint>
            <Time>2021-08-31T08:41:29.000Z</Time>
            <Position>
              <LatitudeDegrees>41.9831094704568386077880859375</LatitudeDegrees>
              <LongitudeDegrees>2.11935910396277904510498046875</LongitudeDegrees>
            </Position>
            <AltitudeMeters>634</AltitudeMeters>
            <DistanceMeters>15987.590934704</DistanceMeters>
          </Trackpoint>
          <Trackpoint>
            <Time>2021-08-31T08:41:31.000Z</Time>
            <Position>
              <LatitudeDegrees>41.98312749154865741729736328125</LatitudeDegrees>
              <LongitudeDegrees>2.11949002929031848907470703125</LongitudeDegrees>
            </Position>
            <AltitudeMeters>633.20001220703125</AltitudeMeters>
            <DistanceMeters>15998.607478055</DistanceMeters>
          </Trackpoint>
          <Trackpoint>
            <Time>2021-08-31T08:41:34.000Z</Time>
            <Position>
              <LatitudeDegrees>41.9830963946878910064697265625</LatitudeDegrees>
              <LongitudeDegrees>2.11964844726026058197021484375</LongitudeDegrees>
            </Position>
            <AltitudeMeters>631</AltitudeMeters>
            <DistanceMeters>16012.163697503</DistanceMeters>
          </Trackpoint>
          <Trackpoint>
            <Time>2021-08-31T08:41:37.000Z</Time>
            <Position>
              <LatitudeDegrees>41.9830219633877277374267578125</LatitudeDegrees>
              <LongitudeDegrees>2.119664289057254791259765625</LongitudeDegrees>
            </Position>
            <AltitudeMeters>629.5999755859375</AltitudeMeters>
            <DistanceMeters>16020.550848122</DistanceMeters>
          </Trackpoint>
          <Trackpoint>
            <Time>2021-08-31T08:41:38.000Z</Time>
            <Position>
              <LatitudeDegrees>41.98300712741911411285400390625</LatitudeDegrees>
              <LongitudeDegrees>2.1196406520903110504150390625</LongitudeDegrees>
            </Position>
            <AltitudeMeters>629.5999755859375</AltitudeMeters>
            <DistanceMeters>16023.109520711</DistanceMeters>
          </Trackpoint>
          <Trackpoint>
            <Time>2021-08-31T08:41:40.000Z</Time>
            <Position>
              <LatitudeDegrees>41.98297611437737941741943359375</LatitudeDegrees>
              <LongitudeDegrees>2.1195578388869762420654296875</LongitudeDegrees>
            </Position>
            <AltitudeMeters>630</AltitudeMeters>
            <DistanceMeters>16030.781419972</DistanceMeters>
          </Trackpoint>
          <Trackpoint>
            <Time>2021-08-31T08:41:44.000Z</Time>
            <Position>
              <LatitudeDegrees>41.982882656157016754150390625</LatitudeDegrees>
              <LongitudeDegrees>2.119388021528720855712890625</LongitudeDegrees>
            </Position>
            <AltitudeMeters>631</AltitudeMeters>
            <DistanceMeters>16048.262978172</DistanceMeters>
          </Trackpoint>
          <Trackpoint>
            <Time>2021-08-31T08:41:45.000Z</Time>
            <Position>
              <LatitudeDegrees>41.98284938000142574310302734375</LatitudeDegrees>
              <LongitudeDegrees>2.119359187781810760498046875</LongitudeDegrees>
            </Position>
            <AltitudeMeters>631</AltitudeMeters>
            <DistanceMeters>16052.669185651</DistanceMeters>
          </Trackpoint>
          <Trackpoint>
            <Time>2021-08-31T08:41:47.000Z</Time>
            <Position>
              <LatitudeDegrees>41.982760615646839141845703125</LatitudeDegrees>
              <LongitudeDegrees>2.1193248219788074493408203125</LongitudeDegrees>
            </Position>
            <AltitudeMeters>630.5999755859375</AltitudeMeters>
            <DistanceMeters>16062.949653282</DistanceMeters>
          </Trackpoint>
          <Trackpoint>
            <Time>2021-08-31T08:41:48.000Z</Time>
            <Position>
              <LatitudeDegrees>41.98272163979709148406982421875</LatitudeDegrees>
              <LongitudeDegrees>2.11932398378849029541015625</LongitudeDegrees>
            </Position>
            <AltitudeMeters>630.20001220703125</AltitudeMeters>
            <DistanceMeters>16067.287703455</DistanceMeters>
          </Trackpoint>
          <Trackpoint>
            <Time>2021-08-31T08:41:49.000Z</Time>
            <Position>
              <LatitudeDegrees>41.98269791901111602783203125</LatitudeDegrees>
              <LongitudeDegrees>2.11934133432805538177490234375</LongitudeDegrees>
            </Position>
            <AltitudeMeters>629.5999755859375</AltitudeMeters>
            <DistanceMeters>16070.292712015</DistanceMeters>
          </Trackpoint>
          <Trackpoint>
            <Time>2021-08-31T08:41:51.000Z</Time>
            <Position>
              <LatitudeDegrees>41.9826798141002655029296875</LatitudeDegrees>
              <LongitudeDegrees>2.11940453387796878814697265625</LongitudeDegrees>
            </Position>
            <AltitudeMeters>628.4000244140625</AltitudeMeters>
            <DistanceMeters>16075.896871709</DistanceMeters>
          </Trackpoint>
          <Trackpoint>
            <Time>2021-08-31T08:41:52.000Z</Time>
            <Position>
              <LatitudeDegrees>41.9826903752982616424560546875</LatitudeDegrees>
              <LongitudeDegrees>2.11943822912871837615966796875</LongitudeDegrees>
            </Position>
            <AltitudeMeters>628</AltitudeMeters>
            <DistanceMeters>16078.922842217</DistanceMeters>
          </Trackpoint>
          <Trackpoint>
            <Time>2021-08-31T08:41:57.000Z</Time>
            <Position>
              <LatitudeDegrees>41.98280210606753826141357421875</LatitudeDegrees>
              <LongitudeDegrees>2.11960494518280029296875</LongitudeDegrees>
            </Position>
            <AltitudeMeters>626.5999755859375</AltitudeMeters>
            <DistanceMeters>16097.49467034</DistanceMeters>
          </Trackpoint>
          <Trackpoint>
            <Time>2021-08-31T08:41:59.000Z</Time>
            <Position>
              <LatitudeDegrees>41.982823312282562255859375</LatitudeDegrees>
              <LongitudeDegrees>2.1197160892188549041748046875</LongitudeDegrees>
            </Position>
            <AltitudeMeters>625</AltitudeMeters>
            <DistanceMeters>16106.988785521</DistanceMeters>
          </Trackpoint>
          <Trackpoint>
            <Time>2021-08-31T08:42:00.000Z</Time>
            <Position>
              <LatitudeDegrees>41.9828278385102748870849609375</LatitudeDegrees>
              <LongitudeDegrees>2.1197794564068317413330078125</LongitudeDegrees>
            </Position>
            <AltitudeMeters>623.79998779296875</AltitudeMeters>
            <DistanceMeters>16112.255700637</DistanceMeters>
          </Trackpoint>
          <Trackpoint>
            <Time>2021-08-31T08:42:01.000Z</Time>
            <Position>
              <LatitudeDegrees>41.9828368909657001495361328125</LatitudeDegrees>
              <LongitudeDegrees>2.11984508670866489410400390625</LongitudeDegrees>
            </Position>
            <AltitudeMeters>622.79998779296875</AltitudeMeters>
            <DistanceMeters>16117.777889347</DistanceMeters>
          </Trackpoint>
          <Trackpoint>
            <Time>2021-08-31T08:42:03.000Z</Time>
            <Position>
              <LatitudeDegrees>41.98283328674733638763427734375</LatitudeDegrees>
              <LongitudeDegrees>2.119970060884952545166015625</LongitudeDegrees>
            </Position>
            <AltitudeMeters>620.79998779296875</AltitudeMeters>
            <DistanceMeters>16128.125770602</DistanceMeters>
          </Trackpoint>
          <Trackpoint>
            <Time>2021-08-31T08:42:04.000Z</Time>
            <Position>
              <LatitudeDegrees>41.9828425906598567962646484375</LatitudeDegrees>
              <LongitudeDegrees>2.12004415690898895263671875</LongitudeDegrees>
            </Position>
            <AltitudeMeters>620.20001220703125</AltitudeMeters>
            <DistanceMeters>16134.344033007</DistanceMeters>
          </Trackpoint>
          <Trackpoint>
            <Time>2021-08-31T08:42:06.000Z</Time>
            <Position>
              <LatitudeDegrees>41.98288106359541416168212890625</LatitudeDegrees>
              <LongitudeDegrees>2.12021238170564174652099609375</LongitudeDegrees>
            </Position>
            <AltitudeMeters>619</AltitudeMeters>
            <DistanceMeters>16148.906082489</DistanceMeters>
          </Trackpoint>
          <Trackpoint>
            <Time>2021-08-31T08:42:10.000Z</Time>
            <Position>
              <LatitudeDegrees>41.98294870555400848388671875</LatitudeDegrees>
              <LongitudeDegrees>2.12052267976105213165283203125</LongitudeDegrees>
            </Position>
            <AltitudeMeters>618.79998779296875</AltitudeMeters>
            <DistanceMeters>16175.66011096</DistanceMeters>
          </Trackpoint>
          <Trackpoint>
            <Time>2021-08-31T08:42:12.000Z</Time>
            <Position>
              <LatitudeDegrees>41.9829713366925716400146484375</LatitudeDegrees>
              <LongitudeDegrees>2.1206738054752349853515625</LongitudeDegrees>
            </Position>
            <AltitudeMeters>619.20001220703125</AltitudeMeters>
            <DistanceMeters>16188.414593589</DistanceMeters>
          </Trackpoint>
          <Trackpoint>
            <Time>2021-08-31T08:42:15.000Z</Time>
            <Position>
              <LatitudeDegrees>41.9829532317817211151123046875</LatitudeDegrees>
              <LongitudeDegrees>2.12089416570961475372314453125</LongitudeDegrees>
            </Position>
            <AltitudeMeters>617.79998779296875</AltitudeMeters>
            <DistanceMeters>16206.756964977</DistanceMeters>
          </Trackpoint>
          <Trackpoint>
            <Time>2021-08-31T08:42:16.000Z</Time>
            <Position>
              <LatitudeDegrees>41.9829612784087657928466796875</LatitudeDegrees>
              <LongitudeDegrees>2.12096708826720714569091796875</LongitudeDegrees>
            </Position>
            <AltitudeMeters>617.5999755859375</AltitudeMeters>
            <DistanceMeters>16212.856466182</DistanceMeters>
          </Trackpoint>
          <Trackpoint>
            <Time>2021-08-31T08:42:18.000Z</Time>
            <Position>
              <LatitudeDegrees>41.982978880405426025390625</LatitudeDegrees>
              <LongitudeDegrees>2.12110388092696666717529296875</LongitudeDegrees>
            </Position>
            <AltitudeMeters>617</AltitudeMeters>
            <DistanceMeters>16224.342519327</DistanceMeters>
          </Trackpoint>
          <Trackpoint>
            <Time>2021-08-31T08:42:20.000Z</Time>
            <Position>
              <LatitudeDegrees>41.98296479880809783935546875</LatitudeDegrees>
              <LongitudeDegrees>2.12124050594866275787353515625</LongitudeDegrees>
            </Position>
            <AltitudeMeters>615.5999755859375</AltitudeMeters>
            <DistanceMeters>16235.754432509</DistanceMeters>
          </Trackpoint>
          <Trackpoint>
            <Time>2021-08-31T08:42:23.000Z</Time>
            <Position>
              <LatitudeDegrees>41.982911489903926849365234375</LatitudeDegrees>
              <LongitudeDegrees>2.12141937576234340667724609375</LongitudeDegrees>
            </Position>
            <AltitudeMeters>613.5999755859375</AltitudeMeters>
            <DistanceMeters>16251.698544653</DistanceMeters>
          </Trackpoint>
          <Trackpoint>
            <Time>2021-08-31T08:42:25.000Z</Time>
            <Position>
              <LatitudeDegrees>41.98288039304316043853759765625</LatitudeDegrees>
              <LongitudeDegrees>2.1214400790631771087646484375</LongitudeDegrees>
            </Position>
            <AltitudeMeters>613</AltitudeMeters>
            <DistanceMeters>16255.560886726</DistanceMeters>
          </Trackpoint>
          <Trackpoint>
            <Time>2021-08-31T08:42:26.000Z</Time>
            <Position>
              <LatitudeDegrees>41.982874609529972076416015625</LatitudeDegrees>
              <LongitudeDegrees>2.12141015566885471343994140625</LongitudeDegrees>
            </Position>
            <AltitudeMeters>613</AltitudeMeters>
            <DistanceMeters>16258.117794105</DistanceMeters>
          </Trackpoint>
          <Trackpoint>
            <Time>2021-08-31T08:42:29.000Z</Time>
            <Position>
              <LatitudeDegrees>41.982845775783061981201171875</LatitudeDegrees>
              <LongitudeDegrees>2.12127487175166606903076171875</LongitudeDegrees>
            </Position>
            <AltitudeMeters>613</AltitudeMeters>
            <DistanceMeters>16269.761572174</DistanceMeters>
          </Trackpoint>
          <Trackpoint>
            <Time>2021-08-31T08:42:30.000Z</Time>
            <Position>
              <LatitudeDegrees>41.98282289318740367889404296875</LatitudeDegrees>
              <LongitudeDegrees>2.12125249207019805908203125</LongitudeDegrees>
            </Position>
            <AltitudeMeters>612.79998779296875</AltitudeMeters>
            <DistanceMeters>16272.910385274</DistanceMeters>
          </Trackpoint>
          <Trackpoint>
            <Time>2021-08-31T08:42:31.000Z</Time>
            <Position>
              <LatitudeDegrees>41.9827936403453350067138671875</LatitudeDegrees>
              <LongitudeDegrees>2.12124285288155078887939453125</LongitudeDegrees>
            </Position>
            <AltitudeMeters>612.4000244140625</AltitudeMeters>
            <DistanceMeters>16276.262013996</DistanceMeters>
          </Trackpoint>
          <Trackpoint>
            <Time>2021-08-31T08:42:33.000Z</Time>
            <Position>
              <LatitudeDegrees>41.98273672722280025482177734375</LatitudeDegrees>
              <LongitudeDegrees>2.12128962390124797821044921875</LongitudeDegrees>
            </Position>
            <AltitudeMeters>611.4000244140625</AltitudeMeters>
            <DistanceMeters>16283.68505424</DistanceMeters>
          </Trackpoint>
          <Trackpoint>
            <Time>2021-08-31T08:42:35.000Z</Time>
            <Position>
              <LatitudeDegrees>41.98270596563816070556640625</LatitudeDegrees>
              <LongitudeDegrees>2.121379561722278594970703125</LongitudeDegrees>
            </Position>
            <AltitudeMeters>610.5999755859375</AltitudeMeters>
            <DistanceMeters>16291.876114488</DistanceMeters>
          </Trackpoint>
          <Trackpoint>
            <Time>2021-08-31T08:42:36.000Z</Time>
            <Position>
              <LatitudeDegrees>41.98269045911729335784912109375</LatitudeDegrees>
              <LongitudeDegrees>2.1214514784514904022216796875</LongitudeDegrees>
            </Position>
            <AltitudeMeters>609.79998779296875</AltitudeMeters>
            <DistanceMeters>16298.071098337</DistanceMeters>
          </Trackpoint>
          <Trackpoint>
            <Time>2021-08-31T08:42:39.000Z</Time>
            <Position>
              <LatitudeDegrees>41.98263748548924922943115234375</LatitudeDegrees>
              <LongitudeDegrees>2.1217037737369537353515625</LongitudeDegrees>
            </Position>
            <AltitudeMeters>607.5999755859375</AltitudeMeters>
            <DistanceMeters>16319.761973675</DistanceMeters>
          </Trackpoint>
          <Trackpoint>
            <Time>2021-08-31T08:42:40.000Z</Time>
            <Position>
              <LatitudeDegrees>41.98263413272798061370849609375</LatitudeDegrees>
              <LongitudeDegrees>2.121791280806064605712890625</LongitudeDegrees>
            </Position>
            <AltitudeMeters>607.20001220703125</AltitudeMeters>
            <DistanceMeters>16327.011459513</DistanceMeters>
          </Trackpoint>
          <Trackpoint>
            <Time>2021-08-31T08:42:42.000Z</Time>
            <Position>
              <LatitudeDegrees>41.98265240527689456939697265625</LatitudeDegrees>
              <LongitudeDegrees>2.121921367943286895751953125</LongitudeDegrees>
            </Position>
            <AltitudeMeters>607.20001220703125</AltitudeMeters>
            <DistanceMeters>16337.964705407</DistanceMeters>
          </Trackpoint>
          <Trackpoint>
            <Time>2021-08-31T08:42:43.000Z</Time>
            <Position>
              <LatitudeDegrees>41.98267512023448944091796875</LatitudeDegrees>
              <LongitudeDegrees>2.12197476066648960113525390625</LongitudeDegrees>
            </Position>
            <AltitudeMeters>607.4000244140625</AltitudeMeters>
            <DistanceMeters>16343.05551275</DistanceMeters>
          </Trackpoint>
          <Trackpoint>
            <Time>2021-08-31T08:42:44.000Z</Time>
            <Position>
              <LatitudeDegrees>41.9827088154852390289306640625</LatitudeDegrees>
              <LongitudeDegrees>2.12203578092157840728759765625</LongitudeDegrees>
            </Position>
            <AltitudeMeters>607.79998779296875</AltitudeMeters>
            <DistanceMeters>16349.345247633</DistanceMeters>
          </Trackpoint>
          <Trackpoint>
            <Time>2021-08-31T08:42:46.000Z</Time>
            <Position>
              <LatitudeDegrees>41.9828020222485065460205078125</LatitudeDegrees>
              <LongitudeDegrees>2.12218145839869976043701171875</LongitudeDegrees>
            </Position>
            <AltitudeMeters>608.20001220703125</AltitudeMeters>
            <DistanceMeters>16365.247677976</DistanceMeters>
          </Trackpoint>
          <Trackpoint>
            <Time>2021-08-31T08:42:47.000Z</Time>
            <Position>
              <LatitudeDegrees>41.982853151857852935791015625</LatitudeDegrees>
              <LongitudeDegrees>2.1222628466784954071044921875</LongitudeDegrees>
            </Position>
            <AltitudeMeters>608.5999755859375</AltitudeMeters>
            <DistanceMeters>16374.06419078</DistanceMeters>
          </Trackpoint>
          <Trackpoint>
            <Time>2021-08-31T08:42:49.000Z</Time>
            <Position>
              <LatitudeDegrees>41.98293403722345829010009765625</LatitudeDegrees>
              <LongitudeDegrees>2.12246082723140716552734375</LongitudeDegrees>
            </Position>
            <AltitudeMeters>609.5999755859375</AltitudeMeters>
            <DistanceMeters>16392.754764268</DistanceMeters>
          </Trackpoint>
          <Trackpoint>
            <Time>2021-08-31T08:42:50.000Z</Time>
            <Position>
              <LatitudeDegrees>41.98297058232128620147705078125</LatitudeDegrees>
              <LongitudeDegrees>2.1225669421255588531494140625</LongitudeDegrees>
            </Position>
            <AltitudeMeters>610.4000244140625</AltitudeMeters>
            <DistanceMeters>16402.430705182</DistanceMeters>
          </Trackpoint>
          <Trackpoint>
            <Time>2021-08-31T08:42:52.000Z</Time>
            <Position>
              <LatitudeDegrees>41.98304518125951290130615234375</LatitudeDegrees>
              <LongitudeDegrees>2.122759558260440826416015625</LongitudeDegrees>
            </Position>
            <AltitudeMeters>611.5999755859375</AltitudeMeters>
            <DistanceMeters>16420.400053347</DistanceMeters>
          </Trackpoint>
          <Trackpoint>
            <Time>2021-08-31T08:42:54.000Z</Time>
            <Position>
              <LatitudeDegrees>41.9830655492842197418212890625</LatitudeDegrees>
              <LongitudeDegrees>2.1229206584393978118896484375</LongitudeDegrees>
            </Position>
            <AltitudeMeters>613.4000244140625</AltitudeMeters>
            <DistanceMeters>16433.920254435</DistanceMeters>
          </Trackpoint>
          <Trackpoint>
            <Time>2021-08-31T08:42:56.000Z</Time>
            <Position>
              <LatitudeDegrees>41.9830266572535037994384765625</LatitudeDegrees>
              <LongitudeDegrees>2.123019732534885406494140625</LongitudeDegrees>
            </Position>
            <AltitudeMeters>614.79998779296875</AltitudeMeters>
            <DistanceMeters>16443.190109204</DistanceMeters>
          </Trackpoint>
          <Trackpoint>
            <Time>2021-08-31T08:42:57.000Z</Time>
            <Position>
              <LatitudeDegrees>41.9829907827079296112060546875</LatitudeDegrees>
              <LongitudeDegrees>2.1230346523225307464599609375</LongitudeDegrees>
            </Position>
            <AltitudeMeters>615.5999755859375</AltitudeMeters>
            <DistanceMeters>16447.370204648</DistanceMeters>
          </Trackpoint>
          <Trackpoint>
            <Time>2021-08-31T08:42:58.000Z</Time>
            <Position>
              <LatitudeDegrees>41.98295650072395801544189453125</LatitudeDegrees>
              <LongitudeDegrees>2.1230209060013294219970703125</LongitudeDegrees>
            </Position>
            <AltitudeMeters>616.4000244140625</AltitudeMeters>
            <DistanceMeters>16451.352266204</DistanceMeters>
          </Trackpoint>
          <Trackpoint>
            <Time>2021-08-31T08:43:00.000Z</Time>
            <Position>
              <LatitudeDegrees>41.98289698921144008636474609375</LatitudeDegrees>
              <LongitudeDegrees>2.12295527569949626922607421875</LongitudeDegrees>
            </Position>
            <AltitudeMeters>616.4000244140625</AltitudeMeters>
            <DistanceMeters>16459.917331354</DistanceMeters>
          </Trackpoint>
          <Trackpoint>
            <Time>2021-08-31T08:43:02.000Z</Time>
            <Position>
              <LatitudeDegrees>41.9828449375927448272705078125</LatitudeDegrees>
              <LongitudeDegrees>2.12288185022771358489990234375</LongitudeDegrees>
            </Position>
            <AltitudeMeters>615.79998779296875</AltitudeMeters>
            <DistanceMeters>16468.312015182</DistanceMeters>
          </Trackpoint>
          <Trackpoint>
            <Time>2021-08-31T08:43:04.000Z</Time>
            <Position>
              <LatitudeDegrees>41.98278316296637058258056640625</LatitudeDegrees>
              <LongitudeDegrees>2.12282854132354259490966796875</LongitudeDegrees>
            </Position>
            <AltitudeMeters>615.5999755859375</AltitudeMeters>
            <DistanceMeters>16476.480444336</DistanceMeters>
          </Trackpoint>
          <Trackpoint>
            <Time>2021-08-31T08:43:05.000Z</Time>
            <Position>
              <LatitudeDegrees>41.98274695314466953277587890625</LatitudeDegrees>
              <LongitudeDegrees>2.12280926294624805450439453125</LongitudeDegrees>
            </Position>
            <AltitudeMeters>616</AltitudeMeters>
            <DistanceMeters>16480.814329314</DistanceMeters>
          </Trackpoint>
          <Trackpoint>
            <Time>2021-08-31T08:43:08.000Z</Time>
            <Position>
              <LatitudeDegrees>41.98262239806354045867919921875</LatitudeDegrees>
              <LongitudeDegrees>2.1227808482944965362548828125</LongitudeDegrees>
            </Position>
            <AltitudeMeters>617.79998779296875</AltitudeMeters>
            <DistanceMeters>16494.875072313</DistanceMeters>
          </Trackpoint>
          <Trackpoint>
            <Time>2021-08-31T08:43:14.000Z</Time>
            <Position>
              <LatitudeDegrees>41.982415281236171722412109375</LatitudeDegrees>
              <LongitudeDegrees>2.12277489714324474334716796875</LongitudeDegrees>
            </Position>
            <AltitudeMeters>620.79998779296875</AltitudeMeters>
            <DistanceMeters>16517.93271271</DistanceMeters>
          </Trackpoint>
          <Trackpoint>
            <Time>2021-08-31T08:43:19.000Z</Time>
            <Position>
              <LatitudeDegrees>41.9822394289076328277587890625</LatitudeDegrees>
              <LongitudeDegrees>2.1227707900106906890869140625</LongitudeDegrees>
            </Position>
            <AltitudeMeters>623</AltitudeMeters>
            <DistanceMeters>16537.508215871</DistanceMeters>
          </Trackpoint>
          <Trackpoint>
            <Time>2021-08-31T08:43:23.000Z</Time>
            <Position>
              <LatitudeDegrees>41.98211797513067722320556640625</LatitudeDegrees>
              <LongitudeDegrees>2.1227543614804744720458984375</LongitudeDegrees>
            </Position>
            <AltitudeMeters>623.5999755859375</AltitudeMeters>
            <DistanceMeters>16551.094045345</DistanceMeters>
          </Trackpoint>
          <Trackpoint>
            <Time>2021-08-31T08:43:28.000Z</Time>
            <Position>
              <LatitudeDegrees>41.98196827434003353118896484375</LatitudeDegrees>
              <LongitudeDegrees>2.12269811891019344329833984375</LongitudeDegrees>
            </Position>
            <AltitudeMeters>621.79998779296875</AltitudeMeters>
            <DistanceMeters>16568.393605846</DistanceMeters>
          </Trackpoint>
          <Trackpoint>
            <Time>2021-08-31T08:43:33.000Z</Time>
            <Position>
              <LatitudeDegrees>41.981834582984447479248046875</LatitudeDegrees>
              <LongitudeDegrees>2.12265151552855968475341796875</LongitudeDegrees>
            </Position>
            <AltitudeMeters>619.79998779296875</AltitudeMeters>
            <DistanceMeters>16583.765039749</DistanceMeters>
          </Trackpoint>
          <Trackpoint>
            <Time>2021-08-31T08:43:37.000Z</Time>
            <Position>
              <LatitudeDegrees>41.981675662100315093994140625</LatitudeDegrees>
              <LongitudeDegrees>2.12265989743173122406005859375</LongitudeDegrees>
            </Position>
            <AltitudeMeters>618.5999755859375</AltitudeMeters>
            <DistanceMeters>16601.466555294</DistanceMeters>
          </Trackpoint>
          <Trackpoint>
            <Time>2021-08-31T08:43:42.000Z</Time>
            <Position>
              <LatitudeDegrees>41.98159192688763141632080078125</LatitudeDegrees>
              <LongitudeDegrees>2.12281060405075550079345703125</LongitudeDegrees>
            </Position>
            <AltitudeMeters>619.79998779296875</AltitudeMeters>
            <DistanceMeters>16617.033833846</DistanceMeters>
          </Trackpoint>
          <Trackpoint>
            <Time>2021-08-31T08:43:48.000Z</Time>
            <Position>
              <LatitudeDegrees>41.98161656968295574188232421875</LatitudeDegrees>
              <LongitudeDegrees>2.12303071282804012298583984375</LongitudeDegrees>
            </Position>
            <AltitudeMeters>622</AltitudeMeters>
            <DistanceMeters>16635.450393548</DistanceMeters>
          </Trackpoint>
          <Trackpoint>
            <Time>2021-08-31T08:43:54.000Z</Time>
            <Position>
              <LatitudeDegrees>41.9816718064248561859130859375</LatitudeDegrees>
              <LongitudeDegrees>2.1232737042009830474853515625</LongitudeDegrees>
            </Position>
            <AltitudeMeters>626</AltitudeMeters>
            <DistanceMeters>16656.47364476</DistanceMeters>
          </Trackpoint>
          <Trackpoint>
            <Time>2021-08-31T08:44:00.000Z</Time>
            <Position>
              <LatitudeDegrees>41.98169209063053131103515625</LatitudeDegrees>
              <LongitudeDegrees>2.12354603223502635955810546875</LongitudeDegrees>
            </Position>
            <AltitudeMeters>628.4000244140625</AltitudeMeters>
            <DistanceMeters>16679.118333342</DistanceMeters>
          </Trackpoint>
          <Trackpoint>
            <Time>2021-08-31T08:44:06.000Z</Time>
            <Position>
              <LatitudeDegrees>41.98171732015907764434814453125</LatitudeDegrees>
              <LongitudeDegrees>2.1237937174737453460693359375</LongitudeDegrees>
            </Position>
            <AltitudeMeters>630.5999755859375</AltitudeMeters>
            <DistanceMeters>16699.802530011</DistanceMeters>
          </Trackpoint>
          <Trackpoint>
            <Time>2021-08-31T08:44:10.000Z</Time>
            <Position>
              <LatitudeDegrees>41.98173844255506992340087890625</LatitudeDegrees>
              <LongitudeDegrees>2.1239439211785793304443359375</LongitudeDegrees>
            </Position>
            <AltitudeMeters>632</AltitudeMeters>
            <DistanceMeters>16712.450724913</DistanceMeters>
          </Trackpoint>
          <Trackpoint>
            <Time>2021-08-31T08:44:17.000Z</Time>
            <Position>
              <LatitudeDegrees>41.981782950460910797119140625</LatitudeDegrees>
              <LongitudeDegrees>2.12424860335886478424072265625</LongitudeDegrees>
            </Position>
            <AltitudeMeters>635.5999755859375</AltitudeMeters>
            <DistanceMeters>16738.141527107</DistanceMeters>
          </Trackpoint>
          <Trackpoint>
            <Time>2021-08-31T08:44:22.000Z</Time>
            <Position>
              <LatitudeDegrees>41.9818558730185031890869140625</LatitudeDegrees>
              <LongitudeDegrees>2.1244116313755512237548828125</LongitudeDegrees>
            </Position>
            <AltitudeMeters>638.5999755859375</AltitudeMeters>
            <DistanceMeters>16753.883871847</DistanceMeters>
          </Trackpoint>
          <Trackpoint>
            <Time>2021-08-31T08:44:27.000Z</Time>
            <Position>
              <LatitudeDegrees>41.9819826073944568634033203125</LatitudeDegrees>
              <LongitudeDegrees>2.1245470829308032989501953125</LongitudeDegrees>
            </Position>
            <AltitudeMeters>641.79998779296875</AltitudeMeters>
            <DistanceMeters>16771.89964376</DistanceMeters>
          </Trackpoint>
          <Trackpoint>
            <Time>2021-08-31T08:44:34.000Z</Time>
            <Position>
              <LatitudeDegrees>41.982199363410472869873046875</LatitudeDegrees>
              <LongitudeDegrees>2.1247190795838832855224609375</LongitudeDegrees>
            </Position>
            <AltitudeMeters>645.5999755859375</AltitudeMeters>
            <DistanceMeters>16799.90916074</DistanceMeters>
          </Trackpoint>
          <Trackpoint>
            <Time>2021-08-31T08:44:40.000Z</Time>
            <Position>
              <LatitudeDegrees>41.982382424175739288330078125</LatitudeDegrees>
              <LongitudeDegrees>2.1248920820653438568115234375</LongitudeDegrees>
            </Position>
            <AltitudeMeters>648</AltitudeMeters>
            <DistanceMeters>16824.809423968</DistanceMeters>
          </Trackpoint>
          <Trackpoint>
            <Time>2021-08-31T08:44:47.000Z</Time>
            <Position>
              <LatitudeDegrees>41.9825958274304866790771484375</LatitudeDegrees>
              <LongitudeDegrees>2.12509400211274623870849609375</LongitudeDegrees>
            </Position>
            <AltitudeMeters>652.4000244140625</AltitudeMeters>
            <DistanceMeters>16853.848132591</DistanceMeters>
          </Trackpoint>
          <Trackpoint>
            <Time>2021-08-31T08:44:49.000Z</Time>
            <Position>
              <LatitudeDegrees>41.98260295204818248748779296875</LatitudeDegrees>
              <LongitudeDegrees>2.1251772344112396240234375</LongitudeDegrees>
            </Position>
            <AltitudeMeters>653.79998779296875</AltitudeMeters>
            <DistanceMeters>16860.780525167</DistanceMeters>
          </Trackpoint>
          <Trackpoint>
            <Time>2021-08-31T08:44:50.000Z</Time>
            <Position>
              <LatitudeDegrees>41.98259197175502777099609375</LatitudeDegrees>
              <LongitudeDegrees>2.12521168403327465057373046875</LongitudeDegrees>
            </Position>
            <AltitudeMeters>654.4000244140625</AltitudeMeters>
            <DistanceMeters>16863.883114648</DistanceMeters>
          </Trackpoint>
          <Trackpoint>
            <Time>2021-08-31T08:44:55.000Z</Time>
            <Position>
              <LatitudeDegrees>41.982493735849857330322265625</LatitudeDegrees>
              <LongitudeDegrees>2.12538217194378376007080078125</LongitudeDegrees>
            </Position>
            <AltitudeMeters>656.79998779296875</AltitudeMeters>
            <DistanceMeters>16881.730184055</DistanceMeters>
          </Trackpoint>
          <Trackpoint>
            <Time>2021-08-31T08:45:01.000Z</Time>
            <Position>
              <LatitudeDegrees>41.98235057294368743896484375</LatitudeDegrees>
              <LongitudeDegrees>2.1255914680659770965576171875</LongitudeDegrees>
            </Position>
            <AltitudeMeters>658</AltitudeMeters>
            <DistanceMeters>16905.262298449</DistanceMeters>
          </Trackpoint>
          <Trackpoint>
            <Time>2021-08-31T08:45:06.000Z</Time>
            <Position>
              <LatitudeDegrees>41.98221537284553050994873046875</LatitudeDegrees>
              <LongitudeDegrees>2.12576220743358135223388671875</LongitudeDegrees>
            </Position>
            <AltitudeMeters>657.79998779296875</AltitudeMeters>
            <DistanceMeters>16925.901917056</DistanceMeters>
          </Trackpoint>
          <Trackpoint>
            <Time>2021-08-31T08:45:11.000Z</Time>
            <Position>
              <LatitudeDegrees>41.98211361654102802276611328125</LatitudeDegrees>
              <LongitudeDegrees>2.12590704672038555145263671875</LongitudeDegrees>
            </Position>
            <AltitudeMeters>657.20001220703125</AltitudeMeters>
            <DistanceMeters>16942.390626574</DistanceMeters>
          </Trackpoint>
          <Trackpoint>
            <Time>2021-08-31T08:45:15.000Z</Time>
            <Position>
              <LatitudeDegrees>41.98211411945521831512451171875</LatitudeDegrees>
              <LongitudeDegrees>2.12609698064625263214111328125</LongitudeDegrees>
            </Position>
            <AltitudeMeters>658</AltitudeMeters>
            <DistanceMeters>16958.105413579</DistanceMeters>
          </Trackpoint>
          <Trackpoint>
            <Time>2021-08-31T08:45:22.000Z</Time>
            <Position>
              <LatitudeDegrees>41.98218251578509807586669921875</LatitudeDegrees>
              <LongitudeDegrees>2.12636469863355159759521484375</LongitudeDegrees>
            </Position>
            <AltitudeMeters>660.20001220703125</AltitudeMeters>
            <DistanceMeters>16981.52713734</DistanceMeters>
          </Trackpoint>
          <Trackpoint>
            <Time>2021-08-31T08:45:28.000Z</Time>
            <Position>
              <LatitudeDegrees>41.9822377525269985198974609375</LatitudeDegrees>
              <LongitudeDegrees>2.12669226340949535369873046875</LongitudeDegrees>
            </Position>
            <AltitudeMeters>661.5999755859375</AltitudeMeters>
            <DistanceMeters>17009.317374617</DistanceMeters>
          </Trackpoint>
          <Trackpoint>
            <Time>2021-08-31T08:45:33.000Z</Time>
            <Position>
              <LatitudeDegrees>41.98230187408626079559326171875</LatitudeDegrees>
              <LongitudeDegrees>2.12695914320647716522216796875</LongitudeDegrees>
            </Position>
            <AltitudeMeters>664</AltitudeMeters>
            <DistanceMeters>17032.52296831</DistanceMeters>
          </Trackpoint>
          <Trackpoint>
            <Time>2021-08-31T08:45:34.000Z</Time>
            <Position>
              <LatitudeDegrees>41.98230765759944915771484375</LatitudeDegrees>
              <LongitudeDegrees>2.12701546959578990936279296875</LongitudeDegrees>
            </Position>
            <AltitudeMeters>664.79998779296875</AltitudeMeters>
            <DistanceMeters>17037.226550699</DistanceMeters>
          </Trackpoint>
          <Trackpoint>
            <Time>2021-08-31T08:45:35.000Z</Time>
            <Position>
              <LatitudeDegrees>41.982310675084590911865234375</LatitudeDegrees>
              <LongitudeDegrees>2.12707263417541980743408203125</LongitudeDegrees>
            </Position>
            <AltitudeMeters>665.4000244140625</AltitudeMeters>
            <DistanceMeters>17041.968374224</DistanceMeters>
          </Trackpoint>
          <Trackpoint>
            <Time>2021-08-31T08:45:37.000Z</Time>
            <Position>
              <LatitudeDegrees>41.98230229318141937255859375</LatitudeDegrees>
              <LongitudeDegrees>2.127183191478252410888671875</LongitudeDegrees>
            </Position>
            <AltitudeMeters>667</AltitudeMeters>
            <DistanceMeters>17051.16291476</DistanceMeters>
          </Trackpoint>
          <Trackpoint>
            <Time>2021-08-31T08:45:38.000Z</Time>
            <Position>
              <LatitudeDegrees>41.98228762485086917877197265625</LatitudeDegrees>
              <LongitudeDegrees>2.12723641656339168548583984375</LongitudeDegrees>
            </Position>
            <AltitudeMeters>667.5999755859375</AltitudeMeters>
            <DistanceMeters>17055.858811551</DistanceMeters>
          </Trackpoint>
          <Trackpoint>
            <Time>2021-08-31T08:45:39.000Z</Time>
            <Position>
              <LatitudeDegrees>41.9822679273784160614013671875</LatitudeDegrees>
              <LongitudeDegrees>2.12728654034435749053955078125</LongitudeDegrees>
            </Position>
            <AltitudeMeters>668.4000244140625</AltitudeMeters>
            <DistanceMeters>17060.550860823</DistanceMeters>
          </Trackpoint>
          <Trackpoint>
            <Time>2021-08-31T08:45:42.000Z</Time>
            <Position>
              <LatitudeDegrees>41.98221419937908649444580078125</LatitudeDegrees>
              <LongitudeDegrees>2.12744093500077724456787109375</LongitudeDegrees>
            </Position>
            <AltitudeMeters>672.20001220703125</AltitudeMeters>
            <DistanceMeters>17074.655207106</DistanceMeters>
          </Trackpoint>
          <Trackpoint>
            <Time>2021-08-31T08:45:43.000Z</Time>
            <Position>
              <LatitudeDegrees>41.98219810612499713897705078125</LatitudeDegrees>
              <LongitudeDegrees>2.127498351037502288818359375</LongitudeDegrees>
            </Position>
            <AltitudeMeters>673.20001220703125</AltitudeMeters>
            <DistanceMeters>17079.732693516</DistanceMeters>
          </Trackpoint>
          <Trackpoint>
            <Time>2021-08-31T08:45:46.000Z</Time>
            <Position>
              <LatitudeDegrees>41.982189305126667022705078125</LatitudeDegrees>
              <LongitudeDegrees>2.12765634991228580474853515625</LongitudeDegrees>
            </Position>
            <AltitudeMeters>675.5999755859375</AltitudeMeters>
            <DistanceMeters>17092.841559018</DistanceMeters>
          </Trackpoint>
          <Trackpoint>
            <Time>2021-08-31T08:45:49.000Z</Time>
            <Position>
              <LatitudeDegrees>41.9822504930198192596435546875</LatitudeDegrees>
              <LongitudeDegrees>2.12779280729591846466064453125</LongitudeDegrees>
            </Position>
            <AltitudeMeters>676</AltitudeMeters>
            <DistanceMeters>17106.026665452</DistanceMeters>
          </Trackpoint>
          <Trackpoint>
            <Time>2021-08-31T08:45:50.000Z</Time>
            <Position>
              <LatitudeDegrees>41.98228326626121997833251953125</LatitudeDegrees>
              <LongitudeDegrees>2.12782650254666805267333984375</LongitudeDegrees>
            </Position>
            <AltitudeMeters>675.79998779296875</AltitudeMeters>
            <DistanceMeters>17110.617547549</DistanceMeters>
          </Trackpoint>
          <Trackpoint>
            <Time>2021-08-31T08:45:54.000Z</Time>
            <Position>
              <LatitudeDegrees>41.9824359007179737091064453125</LatitudeDegrees>
              <LongitudeDegrees>2.127939574420452117919921875</LongitudeDegrees>
            </Position>
            <AltitudeMeters>675</AltitudeMeters>
            <DistanceMeters>17130.011612984</DistanceMeters>
          </Trackpoint>
          <Trackpoint>
            <Time>2021-08-31T08:45:58.000Z</Time>
            <Position>
              <LatitudeDegrees>41.9825907982885837554931640625</LatitudeDegrees>
              <LongitudeDegrees>2.12804309092462062835693359375</LongitudeDegrees>
            </Position>
            <AltitudeMeters>674.20001220703125</AltitudeMeters>
            <DistanceMeters>17149.261970828</DistanceMeters>
          </Trackpoint>
          <Trackpoint>
            <Time>2021-08-31T08:46:00.000Z</Time>
            <Position>
              <LatitudeDegrees>41.982647962868213653564453125</LatitudeDegrees>
              <LongitudeDegrees>2.12813177146017551422119140625</LongitudeDegrees>
            </Position>
            <AltitudeMeters>674.20001220703125</AltitudeMeters>
            <DistanceMeters>17158.973310508</DistanceMeters>
          </Trackpoint>
          <Trackpoint>
            <Time>2021-08-31T08:46:02.000Z</Time>
            <Position>
              <LatitudeDegrees>41.98267771862447261810302734375</LatitudeDegrees>
              <LongitudeDegrees>2.12824543006718158721923828125</LongitudeDegrees>
            </Position>
            <AltitudeMeters>674.79998779296875</AltitudeMeters>
            <DistanceMeters>17168.94341991</DistanceMeters>
          </Trackpoint>
          <Trackpoint>
            <Time>2021-08-31T08:46:04.000Z</Time>
            <Position>
              <LatitudeDegrees>41.98268895037472248077392578125</LatitudeDegrees>
              <LongitudeDegrees>2.128363363444805145263671875</LongitudeDegrees>
            </Position>
            <AltitudeMeters>675.4000244140625</AltitudeMeters>
            <DistanceMeters>17178.78086517</DistanceMeters>
          </Trackpoint>
          <Trackpoint>
            <Time>2021-08-31T08:46:09.000Z</Time>
            <Position>
              <LatitudeDegrees>41.98267646133899688720703125</LatitudeDegrees>
              <LongitudeDegrees>2.12871967814862728118896484375</LongitudeDegrees>
            </Position>
            <AltitudeMeters>676.5999755859375</AltitudeMeters>
            <DistanceMeters>17208.293659912</DistanceMeters>
          </Trackpoint>
          <Trackpoint>
            <Time>2021-08-31T08:46:10.000Z</Time>
            <Position>
              <LatitudeDegrees>41.9826689176261425018310546875</LatitudeDegrees>
              <LongitudeDegrees>2.12879092432558536529541015625</LongitudeDegrees>
            </Position>
            <AltitudeMeters>676.5999755859375</AltitudeMeters>
            <DistanceMeters>17214.248583102</DistanceMeters>
          </Trackpoint>
          <Trackpoint>
            <Time>2021-08-31T08:46:12.000Z</Time>
            <Position>
              <LatitudeDegrees>41.98262860067188739776611328125</LatitudeDegrees>
              <LongitudeDegrees>2.12891665287315845489501953125</LongitudeDegrees>
            </Position>
            <AltitudeMeters>676.5999755859375</AltitudeMeters>
            <DistanceMeters>17225.577505226</DistanceMeters>
          </Trackpoint>
          <Trackpoint>
            <Time>2021-08-31T08:46:13.000Z</Time>
            <Position>
              <LatitudeDegrees>41.982600353658199310302734375</LatitudeDegrees>
              <LongitudeDegrees>2.1289700455963611602783203125</LongitudeDegrees>
            </Position>
            <AltitudeMeters>676.20001220703125</AltitudeMeters>
            <DistanceMeters>17230.99985978</DistanceMeters>
          </Trackpoint>
          <Trackpoint>
            <Time>2021-08-31T08:46:19.000Z</Time>
            <Position>
              <LatitudeDegrees>41.9823753833770751953125</LatitudeDegrees>
              <LongitudeDegrees>2.1292862109839916229248046875</LongitudeDegrees>
            </Position>
            <AltitudeMeters>675.20001220703125</AltitudeMeters>
            <DistanceMeters>17267.210774021</DistanceMeters>
          </Trackpoint>
          <Trackpoint>
            <Time>2021-08-31T08:46:21.000Z</Time>
            <Position>
              <LatitudeDegrees>41.98233959265053272247314453125</LatitudeDegrees>
              <LongitudeDegrees>2.12942786514759063720703125</LongitudeDegrees>
            </Position>
            <AltitudeMeters>675.20001220703125</AltitudeMeters>
            <DistanceMeters>17279.58907508</DistanceMeters>
          </Trackpoint>
          <Trackpoint>
            <Time>2021-08-31T08:46:22.000Z</Time>
            <Position>
              <LatitudeDegrees>41.982343196868896484375</LatitudeDegrees>
              <LongitudeDegrees>2.12950070388615131378173828125</LongitudeDegrees>
            </Position>
            <AltitudeMeters>675.4000244140625</AltitudeMeters>
            <DistanceMeters>17285.629067533</DistanceMeters>
          </Trackpoint>
          <Trackpoint>
            <Time>2021-08-31T08:46:25.000Z</Time>
            <Position>
              <LatitudeDegrees>41.9823587872087955474853515625</LatitudeDegrees>
              <LongitudeDegrees>2.1297116763889789581298828125</LongitudeDegrees>
            </Position>
            <AltitudeMeters>677</AltitudeMeters>
            <DistanceMeters>17303.170185649</DistanceMeters>
          </Trackpoint>
          <Trackpoint>
            <Time>2021-08-31T08:46:27.000Z</Time>
            <Position>
              <LatitudeDegrees>41.98235048912465572357177734375</LatitudeDegrees>
              <LongitudeDegrees>2.12986397556960582733154296875</LongitudeDegrees>
            </Position>
            <AltitudeMeters>678.5999755859375</AltitudeMeters>
            <DistanceMeters>17315.804808373</DistanceMeters>
          </Trackpoint>
          <Trackpoint>
            <Time>2021-08-31T08:46:29.000Z</Time>
            <Position>
              <LatitudeDegrees>41.98235602118074893951416015625</LatitudeDegrees>
              <LongitudeDegrees>2.1300177834928035736083984375</LongitudeDegrees>
            </Position>
            <AltitudeMeters>680.79998779296875</AltitudeMeters>
            <DistanceMeters>17328.545477671</DistanceMeters>
          </Trackpoint>
          <Trackpoint>
            <Time>2021-08-31T08:46:31.000Z</Time>
            <Position>
              <LatitudeDegrees>41.982396505773067474365234375</LatitudeDegrees>
              <LongitudeDegrees>2.13016706518828868865966796875</LongitudeDegrees>
            </Position>
            <AltitudeMeters>682.4000244140625</AltitudeMeters>
            <DistanceMeters>17341.692862326</DistanceMeters>
          </Trackpoint>
          <Trackpoint>
            <Time>2021-08-31T08:46:32.000Z</Time>
            <Position>
              <LatitudeDegrees>41.9824285246431827545166015625</LatitudeDegrees>
              <LongitudeDegrees>2.13023931719362735748291015625</LongitudeDegrees>
            </Position>
            <AltitudeMeters>682.79998779296875</AltitudeMeters>
            <DistanceMeters>17348.65255557</DistanceMeters>
          </Trackpoint>
          <Trackpoint>
            <Time>2021-08-31T08:46:34.000Z</Time>
            <Position>
              <LatitudeDegrees>41.98250345885753631591796875</LatitudeDegrees>
              <LongitudeDegrees>2.13037326000630855560302734375</LongitudeDegrees>
            </Position>
            <AltitudeMeters>683.79998779296875</AltitudeMeters>
            <DistanceMeters>17362.521899044</DistanceMeters>
          </Trackpoint>
          <Trackpoint>
            <Time>2021-08-31T08:46:35.000Z</Time>
            <Position>
              <LatitudeDegrees>41.9825301133096218109130859375</LatitudeDegrees>
              <LongitudeDegrees>2.13044014759361743927001953125</LongitudeDegrees>
            </Position>
            <AltitudeMeters>684.4000244140625</AltitudeMeters>
            <DistanceMeters>17368.800857059</DistanceMeters>
          </Trackpoint>
          <Trackpoint>
            <Time>2021-08-31T08:46:36.000Z</Time>
            <Position>
              <LatitudeDegrees>41.98254276998341083526611328125</LatitudeDegrees>
              <LongitudeDegrees>2.13050468824803829193115234375</LongitudeDegrees>
            </Position>
            <AltitudeMeters>684.5999755859375</AltitudeMeters>
            <DistanceMeters>17374.323863327</DistanceMeters>
          </Trackpoint>
          <Trackpoint>
            <Time>2021-08-31T08:46:38.000Z</Time>
            <Position>
              <LatitudeDegrees>41.98253187350928783416748046875</LatitudeDegrees>
              <LongitudeDegrees>2.130636870861053466796875</LongitudeDegrees>
            </Position>
            <AltitudeMeters>685.79998779296875</AltitudeMeters>
            <DistanceMeters>17385.327283929</DistanceMeters>
          </Trackpoint>
          <Trackpoint>
            <Time>2021-08-31T08:46:41.000Z</Time>
            <Position>
              <LatitudeDegrees>41.98252818547189235687255859375</LatitudeDegrees>
              <LongitudeDegrees>2.13082839734852313995361328125</LongitudeDegrees>
            </Position>
            <AltitudeMeters>687.5999755859375</AltitudeMeters>
            <DistanceMeters>17401.178526059</DistanceMeters>
          </Trackpoint>
          <Trackpoint>
            <Time>2021-08-31T08:46:42.000Z</Time>
            <Position>
              <LatitudeDegrees>41.982537321746349334716796875</LatitudeDegrees>
              <LongitudeDegrees>2.130893357098102569580078125</LongitudeDegrees>
            </Position>
            <AltitudeMeters>688.20001220703125</AltitudeMeters>
            <DistanceMeters>17406.648136946</DistanceMeters>
          </Trackpoint>
          <Trackpoint>
            <Time>2021-08-31T08:46:43.000Z</Time>
            <Position>
              <LatitudeDegrees>41.9825510680675506591796875</LatitudeDegrees>
              <LongitudeDegrees>2.13095177896320819854736328125</LongitudeDegrees>
            </Position>
            <AltitudeMeters>688.20001220703125</AltitudeMeters>
            <DistanceMeters>17411.717613996</DistanceMeters>
          </Trackpoint>
          <Trackpoint>
            <Time>2021-08-31T08:46:45.000Z</Time>
            <Position>
              <LatitudeDegrees>41.9826176203787326812744140625</LatitudeDegrees>
              <LongitudeDegrees>2.131067030131816864013671875</LongitudeDegrees>
            </Position>
            <AltitudeMeters>688</AltitudeMeters>
            <DistanceMeters>17423.791617231</DistanceMeters>
          </Trackpoint>
          <Trackpoint>
            <Time>2021-08-31T08:46:47.000Z</Time>
            <Position>
              <LatitudeDegrees>41.98270889930427074432373046875</LatitudeDegrees>
              <LongitudeDegrees>2.13115788996219635009765625</LongitudeDegrees>
            </Position>
            <AltitudeMeters>688</AltitudeMeters>
            <DistanceMeters>17436.429812994</DistanceMeters>
          </Trackpoint>
          <Trackpoint>
            <Time>2021-08-31T08:46:49.000Z</Time>
            <Position>
              <LatitudeDegrees>41.982816271483898162841796875</LatitudeDegrees>
              <LongitudeDegrees>2.13121396489441394805908203125</LongitudeDegrees>
            </Position>
            <AltitudeMeters>688</AltitudeMeters>
            <DistanceMeters>17449.249617644</DistanceMeters>
          </Trackpoint>
          <Trackpoint>
            <Time>2021-08-31T08:46:51.000Z</Time>
            <Position>
              <LatitudeDegrees>41.98292179964482784271240234375</LatitudeDegrees>
              <LongitudeDegrees>2.13121077977120876312255859375</LongitudeDegrees>
            </Position>
            <AltitudeMeters>687</AltitudeMeters>
            <DistanceMeters>17460.997625491</DistanceMeters>
          </Trackpoint>
          <Trackpoint>
            <Time>2021-08-31T08:46:52.000Z</Time>
            <Position>
              <LatitudeDegrees>41.9829770363867282867431640625</LatitudeDegrees>
              <LongitudeDegrees>2.13118496350944042205810546875</LongitudeDegrees>
            </Position>
            <AltitudeMeters>686.20001220703125</AltitudeMeters>
            <DistanceMeters>17467.505394581</DistanceMeters>
          </Trackpoint>
          <Trackpoint>
            <Time>2021-08-31T08:46:53.000Z</Time>
            <Position>
              <LatitudeDegrees>41.98303109966218471527099609375</LatitudeDegrees>
              <LongitudeDegrees>2.13114372454583644866943359375</LongitudeDegrees>
            </Position>
            <AltitudeMeters>685.20001220703125</AltitudeMeters>
            <DistanceMeters>17474.423443811</DistanceMeters>
          </Trackpoint>
          <Trackpoint>
            <Time>2021-08-31T08:46:55.000Z</Time>
            <Position>
              <LatitudeDegrees>41.98314626701176166534423828125</LatitudeDegrees>
              <LongitudeDegrees>2.13102537207305431365966796875</LongitudeDegrees>
            </Position>
            <AltitudeMeters>683.4000244140625</AltitudeMeters>
            <DistanceMeters>17490.553931177</DistanceMeters>
          </Trackpoint>
          <Trackpoint>
            <Time>2021-08-31T08:46:57.000Z</Time>
            <Position>
              <LatitudeDegrees>41.9832462631165981292724609375</LatitudeDegrees>
              <LongitudeDegrees>2.13094926439225673675537109375</LongitudeDegrees>
            </Position>
            <AltitudeMeters>681.4000244140625</AltitudeMeters>
            <DistanceMeters>17503.341293072</DistanceMeters>
          </Trackpoint>
          <Trackpoint>
            <Time>2021-08-31T08:46:58.000Z</Time>
            <Position>
              <LatitudeDegrees>41.983280964195728302001953125</LatitudeDegrees>
              <LongitudeDegrees>2.1309548802673816680908203125</LongitudeDegrees>
            </Position>
            <AltitudeMeters>681</AltitudeMeters>
            <DistanceMeters>17507.231589735</DistanceMeters>
          </Trackpoint>
          <Trackpoint>
            <Time>2021-08-31T08:47:00.000Z</Time>
            <Position>
              <LatitudeDegrees>41.9833315908908843994140625</LatitudeDegrees>
              <LongitudeDegrees>2.13100978173315525054931640625</LongitudeDegrees>
            </Position>
            <AltitudeMeters>681.4000244140625</AltitudeMeters>
            <DistanceMeters>17514.469856345</DistanceMeters>
          </Trackpoint>
          <Trackpoint>
            <Time>2021-08-31T08:47:01.000Z</Time>
            <Position>
              <LatitudeDegrees>41.9833455048501491546630859375</LatitudeDegrees>
              <LongitudeDegrees>2.1310588158667087554931640625</LongitudeDegrees>
            </Position>
            <AltitudeMeters>681.5999755859375</AltitudeMeters>
            <DistanceMeters>17518.812067719</DistanceMeters>
          </Trackpoint>
          <Trackpoint>
            <Time>2021-08-31T08:47:02.000Z</Time>
            <Position>
              <LatitudeDegrees>41.98334910906851291656494140625</LatitudeDegrees>
              <LongitudeDegrees>2.1311154775321483612060546875</LongitudeDegrees>
            </Position>
            <AltitudeMeters>682</AltitudeMeters>
            <DistanceMeters>17523.516609925</DistanceMeters>
          </Trackpoint>
          <Trackpoint>
            <Time>2021-08-31T08:47:04.000Z</Time>
            <Position>
              <LatitudeDegrees>41.983334608376026153564453125</LatitudeDegrees>
              <LongitudeDegrees>2.13124464266002178192138671875</LongitudeDegrees>
            </Position>
            <AltitudeMeters>683.20001220703125</AltitudeMeters>
            <DistanceMeters>17534.324201645</DistanceMeters>
          </Trackpoint>
          <Trackpoint>
            <Time>2021-08-31T08:47:05.000Z</Time>
            <Position>
              <LatitudeDegrees>41.9833310879766941070556640625</LatitudeDegrees>
              <LongitudeDegrees>2.1313154697418212890625</LongitudeDegrees>
            </Position>
            <AltitudeMeters>683.5999755859375</AltitudeMeters>
            <DistanceMeters>17540.197436871</DistanceMeters>
          </Trackpoint>
          <Trackpoint>
            <Time>2021-08-31T08:47:07.000Z</Time>
            <Position>
              <LatitudeDegrees>41.98332714848220348358154296875</LatitudeDegrees>
              <LongitudeDegrees>2.131458632647991180419921875</LongitudeDegrees>
            </Position>
            <AltitudeMeters>684.20001220703125</AltitudeMeters>
            <DistanceMeters>17552.050281648</DistanceMeters>
          </Trackpoint>
          <Trackpoint>
            <Time>2021-08-31T08:47:09.000Z</Time>
            <Position>
              <LatitudeDegrees>41.9833411462604999542236328125</LatitudeDegrees>
              <LongitudeDegrees>2.13159651495516300201416015625</LongitudeDegrees>
            </Position>
            <AltitudeMeters>684.4000244140625</AltitudeMeters>
            <DistanceMeters>17563.563818125</DistanceMeters>
          </Trackpoint>
          <Trackpoint>
            <Time>2021-08-31T08:47:11.000Z</Time>
            <Position>
              <LatitudeDegrees>41.98336889035999774932861328125</LatitudeDegrees>
              <LongitudeDegrees>2.13173800148069858551025390625</LongitudeDegrees>
            </Position>
            <AltitudeMeters>684</AltitudeMeters>
            <DistanceMeters>17575.67068398</DistanceMeters>
          </Trackpoint>
          <Trackpoint>
            <Time>2021-08-31T08:47:14.000Z</Time>
            <Position>
              <LatitudeDegrees>41.98340962640941143035888671875</LatitudeDegrees>
              <LongitudeDegrees>2.13195341639220714569091796875</LongitudeDegrees>
            </Position>
            <AltitudeMeters>683.20001220703125</AltitudeMeters>
            <DistanceMeters>17594.060992652</DistanceMeters>
          </Trackpoint>
          <Trackpoint>
            <Time>2021-08-31T08:47:16.000Z</Time>
            <Position>
              <LatitudeDegrees>41.98341113515198230743408203125</LatitudeDegrees>
              <LongitudeDegrees>2.1320988424122333526611328125</LongitudeDegrees>
            </Position>
            <AltitudeMeters>682.5999755859375</AltitudeMeters>
            <DistanceMeters>17606.0937914</DistanceMeters>
          </Trackpoint>
          <Trackpoint>
            <Time>2021-08-31T08:47:21.000Z</Time>
            <Position>
              <LatitudeDegrees>41.98331608437001705169677734375</LatitudeDegrees>
              <LongitudeDegrees>2.13245046325027942657470703125</LongitudeDegrees>
            </Position>
            <AltitudeMeters>683</AltitudeMeters>
            <DistanceMeters>17637.049172062</DistanceMeters>
          </Trackpoint>
          <Trackpoint>
            <Time>2021-08-31T08:47:28.000Z</Time>
            <Position>
              <LatitudeDegrees>41.9831071235239505767822265625</LatitudeDegrees>
              <LongitudeDegrees>2.1328830532729625701904296875</LongitudeDegrees>
            </Position>
            <AltitudeMeters>685</AltitudeMeters>
            <DistanceMeters>17679.732671604</DistanceMeters>
          </Trackpoint>
          <Trackpoint>
            <Time>2021-08-31T08:47:30.000Z</Time>
            <Position>
              <LatitudeDegrees>41.98302556760609149932861328125</LatitudeDegrees>
              <LongitudeDegrees>2.13297374546527862548828125</LongitudeDegrees>
            </Position>
            <AltitudeMeters>686.20001220703125</AltitudeMeters>
            <DistanceMeters>17691.509851834</DistanceMeters>
          </Trackpoint>
          <Trackpoint>
            <Time>2021-08-31T08:47:32.000Z</Time>
            <Position>
              <LatitudeDegrees>41.98293940164148807525634765625</LatitudeDegrees>
              <LongitudeDegrees>2.13304893113672733306884765625</LongitudeDegrees>
            </Position>
            <AltitudeMeters>687.4000244140625</AltitudeMeters>
            <DistanceMeters>17702.940740082</DistanceMeters>
          </Trackpoint>
          <Trackpoint>
            <Time>2021-08-31T08:47:34.000Z</Time>
            <Position>
              <LatitudeDegrees>41.98288156650960445404052734375</LatitudeDegrees>
              <LongitudeDegrees>2.13315202854573726654052734375</LongitudeDegrees>
            </Position>
            <AltitudeMeters>688.4000244140625</AltitudeMeters>
            <DistanceMeters>17713.626915577</DistanceMeters>
          </Trackpoint>
          <Trackpoint>
            <Time>2021-08-31T08:47:35.000Z</Time>
            <Position>
              <LatitudeDegrees>41.98286765255033969879150390625</LatitudeDegrees>
              <LongitudeDegrees>2.13321380317211151123046875</LongitudeDegrees>
            </Position>
            <AltitudeMeters>688.79998779296875</AltitudeMeters>
            <DistanceMeters>17718.967044921</DistanceMeters>
          </Trackpoint>
          <Trackpoint>
            <Time>2021-08-31T08:47:36.000Z</Time>
            <Position>
              <LatitudeDegrees>41.98286094702780246734619140625</LatitudeDegrees>
              <LongitudeDegrees>2.1332827024161815643310546875</LongitudeDegrees>
            </Position>
            <AltitudeMeters>689.79998779296875</AltitudeMeters>
            <DistanceMeters>17724.715964801</DistanceMeters>
          </Trackpoint>
          <Trackpoint>
            <Time>2021-08-31T08:47:40.000Z</Time>
            <Position>
              <LatitudeDegrees>41.9828687421977519989013671875</LatitudeDegrees>
              <LongitudeDegrees>2.13356492109596729278564453125</LongitudeDegrees>
            </Position>
            <AltitudeMeters>693.5999755859375</AltitudeMeters>
            <DistanceMeters>17748.081717984</DistanceMeters>
          </Trackpoint>
          <Trackpoint>
            <Time>2021-08-31T08:47:43.000Z</Time>
            <Position>
              <LatitudeDegrees>41.982901431620121002197265625</LatitudeDegrees>
              <LongitudeDegrees>2.13376876898109912872314453125</LongitudeDegrees>
            </Position>
            <AltitudeMeters>696.5999755859375</AltitudeMeters>
            <DistanceMeters>17765.335282834</DistanceMeters>
          </Trackpoint>
          <Trackpoint>
            <Time>2021-08-31T08:47:45.000Z</Time>
            <Position>
              <LatitudeDegrees>41.98296303860843181610107421875</LatitudeDegrees>
              <LongitudeDegrees>2.1338660828769207000732421875</LongitudeDegrees>
            </Position>
            <AltitudeMeters>697.5999755859375</AltitudeMeters>
            <DistanceMeters>17775.911034667</DistanceMeters>
          </Trackpoint>
          <Trackpoint>
            <Time>2021-08-31T08:47:51.000Z</Time>
            <Position>
              <LatitudeDegrees>41.98322036303579807281494140625</LatitudeDegrees>
              <LongitudeDegrees>2.1340950764715671539306640625</LongitudeDegrees>
            </Position>
            <AltitudeMeters>699.20001220703125</AltitudeMeters>
            <DistanceMeters>17810.251064994</DistanceMeters>
          </Trackpoint>
          <Trackpoint>
            <Time>2021-08-31T08:47:53.000Z</Time>
            <Position>
              <LatitudeDegrees>41.98332329280674457550048828125</LatitudeDegrees>
              <LongitudeDegrees>2.1341356448829174041748046875</LongitudeDegrees>
            </Position>
            <AltitudeMeters>699</AltitudeMeters>
            <DistanceMeters>17822.188931907</DistanceMeters>
          </Trackpoint>
          <Trackpoint>
            <Time>2021-08-31T08:47:55.000Z</Time>
            <Position>
              <LatitudeDegrees>41.98343058116734027862548828125</LatitudeDegrees>
              <LongitudeDegrees>2.1341500617563724517822265625</LongitudeDegrees>
            </Position>
            <AltitudeMeters>698.4000244140625</AltitudeMeters>
            <DistanceMeters>17834.189417694</DistanceMeters>
          </Trackpoint>
          <Trackpoint>
            <Time>2021-08-31T08:47:57.000Z</Time>
            <Position>
              <LatitudeDegrees>41.9835335947573184967041015625</LatitudeDegrees>
              <LongitudeDegrees>2.13416724465787410736083984375</LongitudeDegrees>
            </Position>
            <AltitudeMeters>698.20001220703125</AltitudeMeters>
            <DistanceMeters>17845.742884273</DistanceMeters>
          </Trackpoint>
          <Trackpoint>
            <Time>2021-08-31T08:47:59.000Z</Time>
            <Position>
              <LatitudeDegrees>41.98362420313060283660888671875</LatitudeDegrees>
              <LongitudeDegrees>2.13422231376171112060546875</LongitudeDegrees>
            </Position>
            <AltitudeMeters>698.79998779296875</AltitudeMeters>
            <DistanceMeters>17856.809315348</DistanceMeters>
          </Trackpoint>
          <Trackpoint>
            <Time>2021-08-31T08:48:00.000Z</Time>
            <Position>
              <LatitudeDegrees>41.98365974240005016326904296875</LatitudeDegrees>
              <LongitudeDegrees>2.13426883332431316375732421875</LongitudeDegrees>
            </Position>
            <AltitudeMeters>699.20001220703125</AltitudeMeters>
            <DistanceMeters>17862.329050661</DistanceMeters>
          </Trackpoint>
          <Trackpoint>
            <Time>2021-08-31T08:48:01.000Z</Time>
            <Position>
              <LatitudeDegrees>41.983690001070499420166015625</LatitudeDegrees>
              <LongitudeDegrees>2.134319879114627838134765625</LongitudeDegrees>
            </Position>
            <AltitudeMeters>699.79998779296875</AltitudeMeters>
            <DistanceMeters>17867.731384144</DistanceMeters>
          </Trackpoint>
          <Trackpoint>
            <Time>2021-08-31T08:48:03.000Z</Time>
            <Position>
              <LatitudeDegrees>41.98373987339437007904052734375</LatitudeDegrees>
              <LongitudeDegrees>2.13443395681679248809814453125</LongitudeDegrees>
            </Position>
            <AltitudeMeters>700</AltitudeMeters>
            <DistanceMeters>17878.681331862</DistanceMeters>
          </Trackpoint>
          <Trackpoint>
            <Time>2021-08-31T08:48:04.000Z</Time>
            <Position>
              <LatitudeDegrees>41.9837478362023830413818359375</LatitudeDegrees>
              <LongitudeDegrees>2.13450117968022823333740234375</LongitudeDegrees>
            </Position>
            <AltitudeMeters>700</AltitudeMeters>
            <DistanceMeters>17884.313619013</DistanceMeters>
          </Trackpoint>
          <Trackpoint>
            <Time>2021-08-31T08:48:05.000Z</Time>
            <Position>
              <LatitudeDegrees>41.98373719118535518646240234375</LatitudeDegrees>
              <LongitudeDegrees>2.13456689380109310150146484375</LongitudeDegrees>
            </Position>
            <AltitudeMeters>700</AltitudeMeters>
            <DistanceMeters>17889.878161413</DistanceMeters>
          </Trackpoint>
          <Trackpoint>
            <Time>2021-08-31T08:48:07.000Z</Time>
            <Position>
              <LatitudeDegrees>41.9836791045963764190673828125</LatitudeDegrees>
              <LongitudeDegrees>2.134661190211772918701171875</LongitudeDegrees>
            </Position>
            <AltitudeMeters>701.20001220703125</AltitudeMeters>
            <DistanceMeters>17900.009987952</DistanceMeters>
          </Trackpoint>
          <Trackpoint>
            <Time>2021-08-31T08:48:11.000Z</Time>
            <Position>
              <LatitudeDegrees>41.98350333608686923980712890625</LatitudeDegrees>
              <LongitudeDegrees>2.1347508765757083892822265625</LongitudeDegrees>
            </Position>
            <AltitudeMeters>704</AltitudeMeters>
            <DistanceMeters>17920.933135564</DistanceMeters>
          </Trackpoint>
          <Trackpoint>
            <Time>2021-08-31T08:48:13.000Z</Time>
            <Position>
              <LatitudeDegrees>41.983451955020427703857421875</LatitudeDegrees>
              <LongitudeDegrees>2.13482983410358428955078125</LongitudeDegrees>
            </Position>
            <AltitudeMeters>704.79998779296875</AltitudeMeters>
            <DistanceMeters>17929.614958419</DistanceMeters>
          </Trackpoint>
          <Trackpoint>
            <Time>2021-08-31T08:48:14.000Z</Time>
            <Position>
              <LatitudeDegrees>41.98343359865248203277587890625</LatitudeDegrees>
              <LongitudeDegrees>2.1348816342651844024658203125</LongitudeDegrees>
            </Position>
            <AltitudeMeters>705.20001220703125</AltitudeMeters>
            <DistanceMeters>17934.361540424</DistanceMeters>
          </Trackpoint>
          <Trackpoint>
            <Time>2021-08-31T08:48:15.000Z</Time>
            <Position>
              <LatitudeDegrees>41.9834120571613311767578125</LatitudeDegrees>
              <LongitudeDegrees>2.13493402116000652313232421875</LongitudeDegrees>
            </Position>
            <AltitudeMeters>705.20001220703125</AltitudeMeters>
            <DistanceMeters>17939.314793668</DistanceMeters>
          </Trackpoint>
          <Trackpoint>
            <Time>2021-08-31T08:48:18.000Z</Time>
            <Position>
              <LatitudeDegrees>41.9833696447312831878662109375</LatitudeDegrees>
              <LongitudeDegrees>2.13511976413428783416748046875</LongitudeDegrees>
            </Position>
            <AltitudeMeters>704.79998779296875</AltitudeMeters>
            <DistanceMeters>17955.390887342</DistanceMeters>
          </Trackpoint>
          <Trackpoint>
            <Time>2021-08-31T08:48:20.000Z</Time>
            <Position>
              <LatitudeDegrees>41.9833471812307834625244140625</LatitudeDegrees>
              <LongitudeDegrees>2.13525186292827129364013671875</LongitudeDegrees>
            </Position>
            <AltitudeMeters>703.79998779296875</AltitudeMeters>
            <DistanceMeters>17966.602026179</DistanceMeters>
          </Trackpoint>
          <Trackpoint>
            <Time>2021-08-31T08:48:22.000Z</Time>
            <Position>
              <LatitudeDegrees>41.9832995720207691192626953125</LatitudeDegrees>
              <LongitudeDegrees>2.13538178242743015289306640625</LongitudeDegrees>
            </Position>
            <AltitudeMeters>702.4000244140625</AltitudeMeters>
            <DistanceMeters>17978.585946062</DistanceMeters>
          </Trackpoint>
          <Trackpoint>
            <Time>2021-08-31T08:48:23.000Z</Time>
            <Position>
              <LatitudeDegrees>41.98327451013028621673583984375</LatitudeDegrees>
              <LongitudeDegrees>2.13543995283544063568115234375</LongitudeDegrees>
            </Position>
            <AltitudeMeters>701.5999755859375</AltitudeMeters>
            <DistanceMeters>17984.148865437</DistanceMeters>
          </Trackpoint>
          <Trackpoint>
            <Time>2021-08-31T08:48:24.000Z</Time>
            <Position>
              <LatitudeDegrees>41.98325254954397678375244140625</LatitudeDegrees>
              <LongitudeDegrees>2.13550097309052944183349609375</LongitudeDegrees>
            </Position>
            <AltitudeMeters>700.79998779296875</AltitudeMeters>
            <DistanceMeters>17989.757856998</DistanceMeters>
          </Trackpoint>
          <Trackpoint>
            <Time>2021-08-31T08:48:26.000Z</Time>
            <Position>
              <LatitudeDegrees>41.98321332223713397979736328125</LatitudeDegrees>
              <LongitudeDegrees>2.1356410346925258636474609375</LongitudeDegrees>
            </Position>
            <AltitudeMeters>699.20001220703125</AltitudeMeters>
            <DistanceMeters>18002.140898955</DistanceMeters>
          </Trackpoint>
          <Trackpoint>
            <Time>2021-08-31T08:48:27.000Z</Time>
            <Position>
              <LatitudeDegrees>41.9832053594291210174560546875</LatitudeDegrees>
              <LongitudeDegrees>2.13572091422975063323974609375</LongitudeDegrees>
            </Position>
            <AltitudeMeters>698.20001220703125</AltitudeMeters>
            <DistanceMeters>18008.809039356</DistanceMeters>
          </Trackpoint>
          <Trackpoint>
            <Time>2021-08-31T08:48:28.000Z</Time>
            <Position>
              <LatitudeDegrees>41.983209215104579925537109375</LatitudeDegrees>
              <LongitudeDegrees>2.135804481804370880126953125</LongitudeDegrees>
            </Position>
            <AltitudeMeters>697.5999755859375</AltitudeMeters>
            <DistanceMeters>18015.736219606</DistanceMeters>
          </Trackpoint>
          <Trackpoint>
            <Time>2021-08-31T08:48:30.000Z</Time>
            <Position>
              <LatitudeDegrees>41.983248107135295867919921875</LatitudeDegrees>
              <LongitudeDegrees>2.13596164248883724212646484375</LongitudeDegrees>
            </Position>
            <AltitudeMeters>696.79998779296875</AltitudeMeters>
            <DistanceMeters>18029.440508347</DistanceMeters>
          </Trackpoint>
          <Trackpoint>
            <Time>2021-08-31T08:48:36.000Z</Time>
            <Position>
              <LatitudeDegrees>41.98338590562343597412109375</LatitudeDegrees>
              <LongitudeDegrees>2.136392891407012939453125</LongitudeDegrees>
            </Position>
            <AltitudeMeters>696.20001220703125</AltitudeMeters>
            <DistanceMeters>18068.276799984</DistanceMeters>
          </Trackpoint>
          <Trackpoint>
            <Time>2021-08-31T08:48:40.000Z</Time>
            <Position>
              <LatitudeDegrees>41.9835258834064006805419921875</LatitudeDegrees>
              <LongitudeDegrees>2.1366850845515727996826171875</LongitudeDegrees>
            </Position>
            <AltitudeMeters>697.20001220703125</AltitudeMeters>
            <DistanceMeters>18097.036788546</DistanceMeters>
          </Trackpoint>
          <Trackpoint>
            <Time>2021-08-31T08:48:42.000Z</Time>
            <Position>
              <LatitudeDegrees>41.9835741631686687469482421875</LatitudeDegrees>
              <LongitudeDegrees>2.1368554048240184783935546875</LongitudeDegrees>
            </Position>
            <AltitudeMeters>697.20001220703125</AltitudeMeters>
            <DistanceMeters>18112.117920314</DistanceMeters>
          </Trackpoint>
          <Trackpoint>
            <Time>2021-08-31T08:48:44.000Z</Time>
            <Position>
              <LatitudeDegrees>41.98359243571758270263671875</LatitudeDegrees>
              <LongitudeDegrees>2.13703217916190624237060546875</LongitudeDegrees>
            </Position>
            <AltitudeMeters>697.4000244140625</AltitudeMeters>
            <DistanceMeters>18126.88410553</DistanceMeters>
          </Trackpoint>
          <Trackpoint>
            <Time>2021-08-31T08:48:50.000Z</Time>
            <Position>
              <LatitudeDegrees>41.98363660834729671478271484375</LatitudeDegrees>
              <LongitudeDegrees>2.13749821297824382781982421875</LongitudeDegrees>
            </Position>
            <AltitudeMeters>698.4000244140625</AltitudeMeters>
            <DistanceMeters>18165.753632797</DistanceMeters>
          </Trackpoint>
          <Trackpoint>
            <Time>2021-08-31T08:48:56.000Z</Time>
            <Position>
              <LatitudeDegrees>41.9837223552167415618896484375</LatitudeDegrees>
              <LongitudeDegrees>2.1379306353628635406494140625</LongitudeDegrees>
            </Position>
            <AltitudeMeters>699.5999755859375</AltitudeMeters>
            <DistanceMeters>18202.781142928</DistanceMeters>
          </Trackpoint>
          <Trackpoint>
            <Time>2021-08-31T08:48:57.000Z</Time>
            <Position>
              <LatitudeDegrees>41.98374004103243350982666015625</LatitudeDegrees>
              <LongitudeDegrees>2.1379993669688701629638671875</LongitudeDegrees>
            </Position>
            <AltitudeMeters>699.5999755859375</AltitudeMeters>
            <DistanceMeters>18208.798667879</DistanceMeters>
          </Trackpoint>
          <Trackpoint>
            <Time>2021-08-31T08:48:59.000Z</Time>
            <Position>
              <LatitudeDegrees>41.98377826251089572906494140625</LatitudeDegrees>
              <LongitudeDegrees>2.13813372887670993804931640625</LongitudeDegrees>
            </Position>
            <AltitudeMeters>699.20001220703125</AltitudeMeters>
            <DistanceMeters>18220.700929818</DistanceMeters>
          </Trackpoint>
          <Trackpoint>
            <Time>2021-08-31T08:49:02.000Z</Time>
            <Position>
              <LatitudeDegrees>41.983849592506885528564453125</LatitudeDegrees>
              <LongitudeDegrees>2.13832433335483074188232421875</LongitudeDegrees>
            </Position>
            <AltitudeMeters>699.4000244140625</AltitudeMeters>
            <DistanceMeters>18238.356473957</DistanceMeters>
          </Trackpoint>
          <Trackpoint>
            <Time>2021-08-31T08:49:05.000Z</Time>
            <Position>
              <LatitudeDegrees>41.98391807265579700469970703125</LatitudeDegrees>
              <LongitudeDegrees>2.13849917985498905181884765625</LongitudeDegrees>
            </Position>
            <AltitudeMeters>700.4000244140625</AltitudeMeters>
            <DistanceMeters>18254.707697255</DistanceMeters>
          </Trackpoint>
          <Trackpoint>
            <Time>2021-08-31T08:49:06.000Z</Time>
            <Position>
              <LatitudeDegrees>41.98395227082073688507080078125</LatitudeDegrees>
              <LongitudeDegrees>2.13855936191976070404052734375</LongitudeDegrees>
            </Position>
            <AltitudeMeters>701.20001220703125</AltitudeMeters>
            <DistanceMeters>18260.975859873</DistanceMeters>
          </Trackpoint>
          <Trackpoint>
            <Time>2021-08-31T08:49:08.000Z</Time>
            <Position>
              <LatitudeDegrees>41.98400775901973247528076171875</LatitudeDegrees>
              <LongitudeDegrees>2.138676457107067108154296875</LongitudeDegrees>
            </Position>
            <AltitudeMeters>702.4000244140625</AltitudeMeters>
            <DistanceMeters>18272.46466431</DistanceMeters>
          </Trackpoint>
          <Trackpoint>
            <Time>2021-08-31T08:49:09.000Z</Time>
            <Position>
              <LatitudeDegrees>41.98400893248617649078369140625</LatitudeDegrees>
              <LongitudeDegrees>2.13872968219220638275146484375</LongitudeDegrees>
            </Position>
            <AltitudeMeters>702.5999755859375</AltitudeMeters>
            <DistanceMeters>18276.868821914</DistanceMeters>
          </Trackpoint>
          <Trackpoint>
            <Time>2021-08-31T08:49:11.000Z</Time>
            <Position>
              <LatitudeDegrees>41.98398076929152011871337890625</LatitudeDegrees>
              <LongitudeDegrees>2.1388041973114013671875</LongitudeDegrees>
            </Position>
            <AltitudeMeters>702.5999755859375</AltitudeMeters>
            <DistanceMeters>18283.785565729</DistanceMeters>
          </Trackpoint>
          <Trackpoint>
            <Time>2021-08-31T08:49:12.000Z</Time>
            <Position>
              <LatitudeDegrees>41.9839650951325893402099609375</LatitudeDegrees>
              <LongitudeDegrees>2.1388271637260913848876953125</LongitudeDegrees>
            </Position>
            <AltitudeMeters>702.5999755859375</AltitudeMeters>
            <DistanceMeters>18286.36707622</DistanceMeters>
          </Trackpoint>
          <Trackpoint>
            <Time>2021-08-31T08:49:17.000Z</Time>
            <Position>
              <LatitudeDegrees>41.9838464073836803436279296875</LatitudeDegrees>
              <LongitudeDegrees>2.13894308544695377349853515625</LongitudeDegrees>
            </Position>
            <AltitudeMeters>702.4000244140625</AltitudeMeters>
            <DistanceMeters>18302.691769663</DistanceMeters>
          </Trackpoint>
          <Trackpoint>
            <Time>2021-08-31T08:49:20.000Z</Time>
            <Position>
              <LatitudeDegrees>41.9837044179439544677734375</LatitudeDegrees>
              <LongitudeDegrees>2.1390779502689838409423828125</LongitudeDegrees>
            </Position>
            <AltitudeMeters>702.5999755859375</AltitudeMeters>
            <DistanceMeters>18322.037584412</DistanceMeters>
          </Trackpoint>
          <Trackpoint>
            <Time>2021-08-31T08:49:21.000Z</Time>
            <Position>
              <LatitudeDegrees>41.98365387506783008575439453125</LatitudeDegrees>
              <LongitudeDegrees>2.13911600410938262939453125</LongitudeDegrees>
            </Position>
            <AltitudeMeters>702.5999755859375</AltitudeMeters>
            <DistanceMeters>18328.484010693</DistanceMeters>
          </Trackpoint>
          <Trackpoint>
            <Time>2021-08-31T08:49:23.000Z</Time>
            <Position>
              <LatitudeDegrees>41.9835527054965496063232421875</LatitudeDegrees>
              <LongitudeDegrees>2.139191441237926483154296875</LongitudeDegrees>
            </Position>
            <AltitudeMeters>702.4000244140625</AltitudeMeters>
            <DistanceMeters>18341.358640132</DistanceMeters>
          </Trackpoint>
          <Trackpoint>
            <Time>2021-08-31T08:49:25.000Z</Time>
            <Position>
              <LatitudeDegrees>41.98342706076800823211669921875</LatitudeDegrees>
              <LongitudeDegrees>2.13926964439451694488525390625</LongitudeDegrees>
            </Position>
            <AltitudeMeters>701.4000244140625</AltitudeMeters>
            <DistanceMeters>18356.767039461</DistanceMeters>
          </Trackpoint>
          <Trackpoint>
            <Time>2021-08-31T08:49:28.000Z</Time>
            <Position>
              <LatitudeDegrees>41.98325171135365962982177734375</LatitudeDegrees>
              <LongitudeDegrees>2.1393921039998531341552734375</LongitudeDegrees>
            </Position>
            <AltitudeMeters>698.79998779296875</AltitudeMeters>
            <DistanceMeters>18378.75684536</DistanceMeters>
          </Trackpoint>
          <Trackpoint>
            <Time>2021-08-31T08:49:29.000Z</Time>
            <Position>
              <LatitudeDegrees>41.9832043536007404327392578125</LatitudeDegrees>
              <LongitudeDegrees>2.13944348506629467010498046875</LongitudeDegrees>
            </Position>
            <AltitudeMeters>698</AltitudeMeters>
            <DistanceMeters>18385.528457294</DistanceMeters>
          </Trackpoint>
          <Trackpoint>
            <Time>2021-08-31T08:49:30.000Z</Time>
            <Position>
              <LatitudeDegrees>41.98316152207553386688232421875</LatitudeDegrees>
              <LongitudeDegrees>2.13949360884726047515869140625</LongitudeDegrees>
            </Position>
            <AltitudeMeters>697.5999755859375</AltitudeMeters>
            <DistanceMeters>18391.846840628</DistanceMeters>
          </Trackpoint>
          <Trackpoint>
            <Time>2021-08-31T08:49:32.000Z</Time>
            <Position>
              <LatitudeDegrees>41.9831047765910625457763671875</LatitudeDegrees>
              <LongitudeDegrees>2.139592431485652923583984375</LongitudeDegrees>
            </Position>
            <AltitudeMeters>697</AltitudeMeters>
            <DistanceMeters>18402.178128233</DistanceMeters>
          </Trackpoint>
          <Trackpoint>
            <Time>2021-08-31T08:49:33.000Z</Time>
            <Position>
              <LatitudeDegrees>41.98309010826051235198974609375</LatitudeDegrees>
              <LongitudeDegrees>2.13963978923857212066650390625</LongitudeDegrees>
            </Position>
            <AltitudeMeters>697</AltitudeMeters>
            <DistanceMeters>18406.421472719</DistanceMeters>
          </Trackpoint>
          <Trackpoint>
            <Time>2021-08-31T08:49:37.000Z</Time>
            <Position>
              <LatitudeDegrees>41.983090527355670928955078125</LatitudeDegrees>
              <LongitudeDegrees>2.13986492715775966644287109375</LongitudeDegrees>
            </Position>
            <AltitudeMeters>698.5999755859375</AltitudeMeters>
            <DistanceMeters>18425.048163169</DistanceMeters>
          </Trackpoint>
          <Trackpoint>
            <Time>2021-08-31T08:49:38.000Z</Time>
            <Position>
              <LatitudeDegrees>41.9830960594117641448974609375</LatitudeDegrees>
              <LongitudeDegrees>2.13992326520383358001708984375</LongitudeDegrees>
            </Position>
            <AltitudeMeters>699</AltitudeMeters>
            <DistanceMeters>18429.914050595</DistanceMeters>
          </Trackpoint>
          <Trackpoint>
            <Time>2021-08-31T08:49:41.000Z</Time>
            <Position>
              <LatitudeDegrees>41.9831225462257862091064453125</LatitudeDegrees>
              <LongitudeDegrees>2.14012091048061847686767578125</LongitudeDegrees>
            </Position>
            <AltitudeMeters>699.5999755859375</AltitudeMeters>
            <DistanceMeters>18446.530416544</DistanceMeters>
          </Trackpoint>
          <Trackpoint>
            <Time>2021-08-31T08:49:43.000Z</Time>
            <Position>
              <LatitudeDegrees>41.98315850459039211273193359375</LatitudeDegrees>
              <LongitudeDegrees>2.14025728404521942138671875</LongitudeDegrees>
            </Position>
            <AltitudeMeters>699.79998779296875</AltitudeMeters>
            <DistanceMeters>18458.502274099</DistanceMeters>
          </Trackpoint>
          <Trackpoint>
            <Time>2021-08-31T08:49:44.000Z</Time>
            <Position>
              <LatitudeDegrees>41.98318549431860446929931640625</LatitudeDegrees>
              <LongitudeDegrees>2.14032492600381374359130859375</LongitudeDegrees>
            </Position>
            <AltitudeMeters>699.79998779296875</AltitudeMeters>
            <DistanceMeters>18464.853443399</DistanceMeters>
          </Trackpoint>
          <Trackpoint>
            <Time>2021-08-31T08:49:46.000Z</Time>
            <Position>
              <LatitudeDegrees>41.98325179517269134521484375</LatitudeDegrees>
              <LongitudeDegrees>2.1404390037059783935546875</LongitudeDegrees>
            </Position>
            <AltitudeMeters>700.5999755859375</AltitudeMeters>
            <DistanceMeters>18476.834348838</DistanceMeters>
          </Trackpoint>
          <Trackpoint>
            <Time>2021-08-31T08:49:48.000Z</Time>
            <Position>
              <LatitudeDegrees>41.9833123125135898590087890625</LatitudeDegrees>
              <LongitudeDegrees>2.14054637588560581207275390625</LongitudeDegrees>
            </Position>
            <AltitudeMeters>701.4000244140625</AltitudeMeters>
            <DistanceMeters>18487.982890096</DistanceMeters>
          </Trackpoint>
          <Trackpoint>
            <Time>2021-08-31T08:49:49.000Z</Time>
            <Position>
              <LatitudeDegrees>41.98333335109055042266845703125</LatitudeDegrees>
              <LongitudeDegrees>2.140604294836521148681640625</LongitudeDegrees>
            </Position>
            <AltitudeMeters>701.5999755859375</AltitudeMeters>
            <DistanceMeters>18493.316251212</DistanceMeters>
          </Trackpoint>
          <Trackpoint>
            <Time>2021-08-31T08:49:51.000Z</Time>
            <Position>
              <LatitudeDegrees>41.98336981236934661865234375</LatitudeDegrees>
              <LongitudeDegrees>2.140724994242191314697265625</LongitudeDegrees>
            </Position>
            <AltitudeMeters>702</AltitudeMeters>
            <DistanceMeters>18504.094978574</DistanceMeters>
          </Trackpoint>
          <Trackpoint>
            <Time>2021-08-31T08:49:54.000Z</Time>
            <Position>
              <LatitudeDegrees>41.983418427407741546630859375</LatitudeDegrees>
              <LongitudeDegrees>2.1409072168171405792236328125</LongitudeDegrees>
            </Position>
            <AltitudeMeters>703</AltitudeMeters>
            <DistanceMeters>18520.11254805</DistanceMeters>
          </Trackpoint>
          <Trackpoint>
            <Time>2021-08-31T08:49:55.000Z</Time>
            <Position>
              <LatitudeDegrees>41.9834256358444690704345703125</LatitudeDegrees>
              <LongitudeDegrees>2.14097209274768829345703125</LongitudeDegrees>
            </Position>
            <AltitudeMeters>703.20001220703125</AltitudeMeters>
            <DistanceMeters>18525.539896331</DistanceMeters>
          </Trackpoint>
          <Trackpoint>
            <Time>2021-08-31T08:49:59.000Z</Time>
            <Position>
              <LatitudeDegrees>41.98345161974430084228515625</LatitudeDegrees>
              <LongitudeDegrees>2.1412357874214649200439453125</LongitudeDegrees>
            </Position>
            <AltitudeMeters>704.5999755859375</AltitudeMeters>
            <DistanceMeters>18547.547763338</DistanceMeters>
          </Trackpoint>
          <Trackpoint>
            <Time>2021-08-31T08:50:01.000Z</Time>
            <Position>
              <LatitudeDegrees>41.9834712333977222442626953125</LatitudeDegrees>
              <LongitudeDegrees>2.141372077167034149169921875</LongitudeDegrees>
            </Position>
            <AltitudeMeters>705.4000244140625</AltitudeMeters>
            <DistanceMeters>18559.033030279</DistanceMeters>
          </Trackpoint>
          <Trackpoint>
            <Time>2021-08-31T08:50:03.000Z</Time>
            <Position>
              <LatitudeDegrees>41.98350065387785434722900390625</LatitudeDegrees>
              <LongitudeDegrees>2.14150451123714447021484375</LongitudeDegrees>
            </Position>
            <AltitudeMeters>706.20001220703125</AltitudeMeters>
            <DistanceMeters>18570.468657374</DistanceMeters>
          </Trackpoint>
          <Trackpoint>
            <Time>2021-08-31T08:50:07.000Z</Time>
            <Position>
              <LatitudeDegrees>41.98358883149921894073486328125</LatitudeDegrees>
              <LongitudeDegrees>2.141754291951656341552734375</LongitudeDegrees>
            </Position>
            <AltitudeMeters>708</AltitudeMeters>
            <DistanceMeters>18593.346425201</DistanceMeters>
          </Trackpoint>
          <Trackpoint>
            <Time>2021-08-31T08:50:11.000Z</Time>
            <Position>
              <LatitudeDegrees>41.9836883246898651123046875</LatitudeDegrees>
              <LongitudeDegrees>2.141990996897220611572265625</LongitudeDegrees>
            </Position>
            <AltitudeMeters>710</AltitudeMeters>
            <DistanceMeters>18615.844288318</DistanceMeters>
          </Trackpoint>
          <Trackpoint>
            <Time>2021-08-31T08:50:12.000Z</Time>
            <Position>
              <LatitudeDegrees>41.98370131663978099822998046875</LatitudeDegrees>
              <LongitudeDegrees>2.142050005495548248291015625</LongitudeDegrees>
            </Position>
            <AltitudeMeters>710.20001220703125</AltitudeMeters>
            <DistanceMeters>18620.936869152</DistanceMeters>
          </Trackpoint>
          <Trackpoint>
            <Time>2021-08-31T08:50:13.000Z</Time>
            <Position>
              <LatitudeDegrees>41.98370567522943019866943359375</LatitudeDegrees>
              <LongitudeDegrees>2.142114378511905670166015625</LongitudeDegrees>
            </Position>
            <AltitudeMeters>710.4000244140625</AltitudeMeters>
            <DistanceMeters>18626.283758156</DistanceMeters>
          </Trackpoint>
          <Trackpoint>
            <Time>2021-08-31T08:50:16.000Z</Time>
            <Position>
              <LatitudeDegrees>41.9836955331265926361083984375</LatitudeDegrees>
              <LongitudeDegrees>2.1422897279262542724609375</LongitudeDegrees>
            </Position>
            <AltitudeMeters>710.79998779296875</AltitudeMeters>
            <DistanceMeters>18640.835261946</DistanceMeters>
          </Trackpoint>
          <Trackpoint>
            <Time>2021-08-31T08:50:22.000Z</Time>
            <Position>
              <LatitudeDegrees>41.98363560251891613006591796875</LatitudeDegrees>
              <LongitudeDegrees>2.1426731161773204803466796875</LongitudeDegrees>
            </Position>
            <AltitudeMeters>712.4000244140625</AltitudeMeters>
            <DistanceMeters>18673.248566375</DistanceMeters>
          </Trackpoint>
          <Trackpoint>
            <Time>2021-08-31T08:50:23.000Z</Time>
            <Position>
              <LatitudeDegrees>41.98362604714930057525634765625</LatitudeDegrees>
              <LongitudeDegrees>2.14273489080369472503662109375</LongitudeDegrees>
            </Position>
            <AltitudeMeters>712.4000244140625</AltitudeMeters>
            <DistanceMeters>18678.469849817</DistanceMeters>
          </Trackpoint>
          <Trackpoint>
            <Time>2021-08-31T08:50:26.000Z</Time>
            <Position>
              <LatitudeDegrees>41.98359486646950244903564453125</LatitudeDegrees>
              <LongitudeDegrees>2.142915017902851104736328125</LongitudeDegrees>
            </Position>
            <AltitudeMeters>712.5999755859375</AltitudeMeters>
            <DistanceMeters>18693.771806626</DistanceMeters>
          </Trackpoint>
          <Trackpoint>
            <Time>2021-08-31T08:50:27.000Z</Time>
            <Position>
              <LatitudeDegrees>41.98359335772693157196044921875</LatitudeDegrees>
              <LongitudeDegrees>2.142977379262447357177734375</LongitudeDegrees>
            </Position>
            <AltitudeMeters>712.79998779296875</AltitudeMeters>
            <DistanceMeters>18698.934827609</DistanceMeters>
          </Trackpoint>
          <Trackpoint>
            <Time>2021-08-31T08:50:28.000Z</Time>
            <Position>
              <LatitudeDegrees>41.98360039852559566497802734375</LatitudeDegrees>
              <LongitudeDegrees>2.14304317720234394073486328125</LongitudeDegrees>
            </Position>
            <AltitudeMeters>713</AltitudeMeters>
            <DistanceMeters>18704.434896343</DistanceMeters>
          </Trackpoint>
          <Trackpoint>
            <Time>2021-08-31T08:50:31.000Z</Time>
            <Position>
              <LatitudeDegrees>41.98366024531424045562744140625</LatitudeDegrees>
              <LongitudeDegrees>2.143237888813018798828125</LongitudeDegrees>
            </Position>
            <AltitudeMeters>713.4000244140625</AltitudeMeters>
            <DistanceMeters>18721.867313346</DistanceMeters>
          </Trackpoint>
          <Trackpoint>
            <Time>2021-08-31T08:50:32.000Z</Time>
            <Position>
              <LatitudeDegrees>41.9836821220815181732177734375</LatitudeDegrees>
              <LongitudeDegrees>2.14330025017261505126953125</LongitudeDegrees>
            </Position>
            <AltitudeMeters>713.79998779296875</AltitudeMeters>
            <DistanceMeters>18727.572874281</DistanceMeters>
          </Trackpoint>
          <Trackpoint>
            <Time>2021-08-31T08:50:36.000Z</Time>
            <Position>
              <LatitudeDegrees>41.9837672822177410125732421875</LatitudeDegrees>
              <LongitudeDegrees>2.14352765120565891265869140625</LongitudeDegrees>
            </Position>
            <AltitudeMeters>715.5999755859375</AltitudeMeters>
            <DistanceMeters>18748.639677481</DistanceMeters>
          </Trackpoint>
          <Trackpoint>
            <Time>2021-08-31T08:50:41.000Z</Time>
            <Position>
              <LatitudeDegrees>41.9838514365255832672119140625</LatitudeDegrees>
              <LongitudeDegrees>2.14384876191616058349609375</LongitudeDegrees>
            </Position>
            <AltitudeMeters>719.20001220703125</AltitudeMeters>
            <DistanceMeters>18776.809449004</DistanceMeters>
          </Trackpoint>
          <Trackpoint>
            <Time>2021-08-31T08:50:42.000Z</Time>
            <Position>
              <LatitudeDegrees>41.983860991895198822021484375</LatitudeDegrees>
              <LongitudeDegrees>2.14392562396824359893798828125</LongitudeDegrees>
            </Position>
            <AltitudeMeters>720.4000244140625</AltitudeMeters>
            <DistanceMeters>18783.257275921</DistanceMeters>
          </Trackpoint>
          <Trackpoint>
            <Time>2021-08-31T08:50:43.000Z</Time>
            <Position>
              <LatitudeDegrees>41.9838594831526279449462890625</LatitudeDegrees>
              <LongitudeDegrees>2.1440011449158191680908203125</LongitudeDegrees>
            </Position>
            <AltitudeMeters>721.5999755859375</AltitudeMeters>
            <DistanceMeters>18789.507404775</DistanceMeters>
          </Trackpoint>
          <Trackpoint>
            <Time>2021-08-31T08:50:45.000Z</Time>
            <Position>
              <LatitudeDegrees>41.9838266260921955108642578125</LatitudeDegrees>
              <LongitudeDegrees>2.14414179325103759765625</LongitudeDegrees>
            </Position>
            <AltitudeMeters>723.4000244140625</AltitudeMeters>
            <DistanceMeters>18801.704926634</DistanceMeters>
          </Trackpoint>
          <Trackpoint>
            <Time>2021-08-31T08:50:46.000Z</Time>
            <Position>
              <LatitudeDegrees>41.983799636363983154296875</LatitudeDegrees>
              <LongitudeDegrees>2.1442083455622196197509765625</LongitudeDegrees>
            </Position>
            <AltitudeMeters>724.20001220703125</AltitudeMeters>
            <DistanceMeters>18807.976689782</DistanceMeters>
          </Trackpoint>
          <Trackpoint>
            <Time>2021-08-31T08:50:47.000Z</Time>
            <Position>
              <LatitudeDegrees>41.98376636020839214324951171875</LatitudeDegrees>
              <LongitudeDegrees>2.14426643215119838714599609375</LongitudeDegrees>
            </Position>
            <AltitudeMeters>724.79998779296875</AltitudeMeters>
            <DistanceMeters>18814.045021657</DistanceMeters>
          </Trackpoint>
          <Trackpoint>
            <Time>2021-08-31T08:50:49.000Z</Time>
            <Position>
              <LatitudeDegrees>41.9836871512234210968017578125</LatitudeDegrees>
              <LongitudeDegrees>2.14436718262732028961181640625</LongitudeDegrees>
            </Position>
            <AltitudeMeters>725.20001220703125</AltitudeMeters>
            <DistanceMeters>18826.177592535</DistanceMeters>
          </Trackpoint>
          <Trackpoint>
            <Time>2021-08-31T08:50:50.000Z</Time>
            <Position>
              <LatitudeDegrees>41.9836452417075634002685546875</LatitudeDegrees>
              <LongitudeDegrees>2.144410349428653717041015625</LongitudeDegrees>
            </Position>
            <AltitudeMeters>725.20001220703125</AltitudeMeters>
            <DistanceMeters>18832.052365056</DistanceMeters>
          </Trackpoint>
          <Trackpoint>
            <Time>2021-08-31T08:50:54.000Z</Time>
            <Position>
              <LatitudeDegrees>41.98351272381842136383056640625</LatitudeDegrees>
              <LongitudeDegrees>2.144547812640666961669921875</LongitudeDegrees>
            </Position>
            <AltitudeMeters>724.79998779296875</AltitudeMeters>
            <DistanceMeters>18850.677601072</DistanceMeters>
          </Trackpoint>
          <Trackpoint>
            <Time>2021-08-31T08:50:58.000Z</Time>
            <Position>
              <LatitudeDegrees>41.983382888138294219970703125</LatitudeDegrees>
              <LongitudeDegrees>2.14467261917889118194580078125</LongitudeDegrees>
            </Position>
            <AltitudeMeters>723.79998779296875</AltitudeMeters>
            <DistanceMeters>18868.438447348</DistanceMeters>
          </Trackpoint>
          <Trackpoint>
            <Time>2021-08-31T08:50:59.000Z</Time>
            <Position>
              <LatitudeDegrees>41.9833672977983951568603515625</LatitudeDegrees>
              <LongitudeDegrees>2.1447082422673702239990234375</LongitudeDegrees>
            </Position>
            <AltitudeMeters>723.79998779296875</AltitudeMeters>
            <DistanceMeters>18871.859409065</DistanceMeters>
          </Trackpoint>
          <Trackpoint>
            <Time>2021-08-31T08:51:01.000Z</Time>
            <Position>
              <LatitudeDegrees>41.98333762586116790771484375</LatitudeDegrees>
              <LongitudeDegrees>2.1447950787842273712158203125</LongitudeDegrees>
            </Position>
            <AltitudeMeters>724</AltitudeMeters>
            <DistanceMeters>18879.766636727</DistanceMeters>
          </Trackpoint>
          <Trackpoint>
            <Time>2021-08-31T08:51:05.000Z</Time>
            <Position>
              <LatitudeDegrees>41.98326931335031986236572265625</LatitudeDegrees>
              <LongitudeDegrees>2.145015858113765716552734375</LongitudeDegrees>
            </Position>
            <AltitudeMeters>724.20001220703125</AltitudeMeters>
            <DistanceMeters>18899.551828509</DistanceMeters>
          </Trackpoint>
          <Trackpoint>
            <Time>2021-08-31T08:51:06.000Z</Time>
            <Position>
              <LatitudeDegrees>41.9832618534564971923828125</LatitudeDegrees>
              <LongitudeDegrees>2.1450817398726940155029296875</LongitudeDegrees>
            </Position>
            <AltitudeMeters>724.4000244140625</AltitudeMeters>
            <DistanceMeters>18905.06501609</DistanceMeters>
          </Trackpoint>
          <Trackpoint>
            <Time>2021-08-31T08:51:09.000Z</Time>
            <Position>
              <LatitudeDegrees>41.9832576625049114227294921875</LatitudeDegrees>
              <LongitudeDegrees>2.14527167379856109619140625</LongitudeDegrees>
            </Position>
            <AltitudeMeters>725.4000244140625</AltitudeMeters>
            <DistanceMeters>18920.785835477</DistanceMeters>
          </Trackpoint>
          <Trackpoint>
            <Time>2021-08-31T08:51:11.000Z</Time>
            <Position>
              <LatitudeDegrees>41.983270905911922454833984375</LatitudeDegrees>
              <LongitudeDegrees>2.14540000073611736297607421875</LongitudeDegrees>
            </Position>
            <AltitudeMeters>727.20001220703125</AltitudeMeters>
            <DistanceMeters>18931.504916253</DistanceMeters>
          </Trackpoint>
          <Trackpoint>
            <Time>2021-08-31T08:51:13.000Z</Time>
            <Position>
              <LatitudeDegrees>41.9833143241703510284423828125</LatitudeDegrees>
              <LongitudeDegrees>2.14550636708736419677734375</LongitudeDegrees>
            </Position>
            <AltitudeMeters>728.79998779296875</AltitudeMeters>
            <DistanceMeters>18941.54452348</DistanceMeters>
          </Trackpoint>
          <Trackpoint>
            <Time>2021-08-31T08:51:15.000Z</Time>
            <Position>
              <LatitudeDegrees>41.98337090201675891876220703125</LatitudeDegrees>
              <LongitudeDegrees>2.14559462852776050567626953125</LongitudeDegrees>
            </Position>
            <AltitudeMeters>730.4000244140625</AltitudeMeters>
            <DistanceMeters>18951.186808845</DistanceMeters>
          </Trackpoint>
          <Trackpoint>
            <Time>2021-08-31T08:51:19.000Z</Time>
            <Position>
              <LatitudeDegrees>41.9835166633129119873046875</LatitudeDegrees>
              <LongitudeDegrees>2.1457207761704921722412109375</LongitudeDegrees>
            </Position>
            <AltitudeMeters>734.20001220703125</AltitudeMeters>
            <DistanceMeters>18970.477465917</DistanceMeters>
          </Trackpoint>
          <Trackpoint>
            <Time>2021-08-31T08:51:23.000Z</Time>
            <Position>
              <LatitudeDegrees>41.98360391892492771148681640625</LatitudeDegrees>
              <LongitudeDegrees>2.14589436538517475128173828125</LongitudeDegrees>
            </Position>
            <AltitudeMeters>737</AltitudeMeters>
            <DistanceMeters>18987.814828882</DistanceMeters>
          </Trackpoint>
          <Trackpoint>
            <Time>2021-08-31T08:51:26.000Z</Time>
            <Position>
              <LatitudeDegrees>41.9836221076548099517822265625</LatitudeDegrees>
              <LongitudeDegrees>2.146053202450275421142578125</LongitudeDegrees>
            </Position>
            <AltitudeMeters>737.4000244140625</AltitudeMeters>
            <DistanceMeters>19001.111100413</DistanceMeters>
          </Trackpoint>
          <Trackpoint>
            <Time>2021-08-31T08:51:27.000Z</Time>
            <Position>
              <LatitudeDegrees>41.983618922531604766845703125</LatitudeDegrees>
              <LongitudeDegrees>2.1461065113544464111328125</LongitudeDegrees>
            </Position>
            <AltitudeMeters>737.4000244140625</AltitudeMeters>
            <DistanceMeters>19005.535714038</DistanceMeters>
          </Trackpoint>
          <Trackpoint>
            <Time>2021-08-31T08:51:29.000Z</Time>
            <Position>
              <LatitudeDegrees>41.9836159050464630126953125</LatitudeDegrees>
              <LongitudeDegrees>2.14621338061988353729248046875</LongitudeDegrees>
            </Position>
            <AltitudeMeters>737.20001220703125</AltitudeMeters>
            <DistanceMeters>19014.3834105</DistanceMeters>
          </Trackpoint>
          <Trackpoint>
            <Time>2021-08-31T08:51:32.000Z</Time>
            <Position>
              <LatitudeDegrees>41.98359084315598011016845703125</LatitudeDegrees>
              <LongitudeDegrees>2.14638906531035900115966796875</LongitudeDegrees>
            </Position>
            <AltitudeMeters>736.20001220703125</AltitudeMeters>
            <DistanceMeters>19029.183802197</DistanceMeters>
          </Trackpoint>
          <Trackpoint>
            <Time>2021-08-31T08:51:35.000Z</Time>
            <Position>
              <LatitudeDegrees>41.98357768356800079345703125</LatitudeDegrees>
              <LongitudeDegrees>2.14657656848430633544921875</LongitudeDegrees>
            </Position>
            <AltitudeMeters>735.79998779296875</AltitudeMeters>
            <DistanceMeters>19044.766155212</DistanceMeters>
          </Trackpoint>
          <Trackpoint>
            <Time>2021-08-31T08:51:36.000Z</Time>
            <Position>
              <LatitudeDegrees>41.98357810266315937042236328125</LatitudeDegrees>
              <LongitudeDegrees>2.14664437808096408843994140625</LongitudeDegrees>
            </Position>
            <AltitudeMeters>735.79998779296875</AltitudeMeters>
            <DistanceMeters>19050.376756471</DistanceMeters>
          </Trackpoint>
          <Trackpoint>
            <Time>2021-08-31T08:51:42.000Z</Time>
            <Position>
              <LatitudeDegrees>41.98356016539037227630615234375</LatitudeDegrees>
              <LongitudeDegrees>2.147033549845218658447265625</LongitudeDegrees>
            </Position>
            <AltitudeMeters>736.5999755859375</AltitudeMeters>
            <DistanceMeters>19082.636611555</DistanceMeters>
          </Trackpoint>
          <Trackpoint>
            <Time>2021-08-31T08:51:45.000Z</Time>
            <Position>
              <LatitudeDegrees>41.98355262167751789093017578125</LatitudeDegrees>
              <LongitudeDegrees>2.147215940058231353759765625</LongitudeDegrees>
            </Position>
            <AltitudeMeters>737.79998779296875</AltitudeMeters>
            <DistanceMeters>19097.750042126</DistanceMeters>
          </Trackpoint>
          <Trackpoint>
            <Time>2021-08-31T08:51:47.000Z</Time>
            <Position>
              <LatitudeDegrees>41.98355664499104022979736328125</LatitudeDegrees>
              <LongitudeDegrees>2.14733655564486980438232421875</LongitudeDegrees>
            </Position>
            <AltitudeMeters>738.79998779296875</AltitudeMeters>
            <DistanceMeters>19107.739153434</DistanceMeters>
          </Trackpoint>
          <Trackpoint>
            <Time>2021-08-31T08:51:49.000Z</Time>
            <Position>
              <LatitudeDegrees>41.98359310626983642578125</LatitudeDegrees>
              <LongitudeDegrees>2.14745490811765193939208984375</LongitudeDegrees>
            </Position>
            <AltitudeMeters>740.20001220703125</AltitudeMeters>
            <DistanceMeters>19118.338360057</DistanceMeters>
          </Trackpoint>
          <Trackpoint>
            <Time>2021-08-31T08:51:51.000Z</Time>
            <Position>
              <LatitudeDegrees>41.9836371950805187225341796875</LatitudeDegrees>
              <LongitudeDegrees>2.1475761942565441131591796875</LongitudeDegrees>
            </Position>
            <AltitudeMeters>741.20001220703125</AltitudeMeters>
            <DistanceMeters>19129.50874932</DistanceMeters>
          </Trackpoint>
          <Trackpoint>
            <Time>2021-08-31T08:51:52.000Z</Time>
            <Position>
              <LatitudeDegrees>41.98365169577300548553466796875</LatitudeDegrees>
              <LongitudeDegrees>2.1476388908922672271728515625</LongitudeDegrees>
            </Position>
            <AltitudeMeters>741.79998779296875</AltitudeMeters>
            <DistanceMeters>19134.941086738</DistanceMeters>
          </Trackpoint>
          <Trackpoint>
            <Time>2021-08-31T08:51:53.000Z</Time>
            <Position>
              <LatitudeDegrees>41.9836660288274288177490234375</LatitudeDegrees>
              <LongitudeDegrees>2.14770318008959293365478515625</LongitudeDegrees>
            </Position>
            <AltitudeMeters>742.20001220703125</AltitudeMeters>
            <DistanceMeters>19140.495070996</DistanceMeters>
          </Trackpoint>
          <Trackpoint>
            <Time>2021-08-31T08:51:57.000Z</Time>
            <Position>
              <LatitudeDegrees>41.98369578458368778228759765625</LatitudeDegrees>
              <LongitudeDegrees>2.14796603657305240631103515625</LongitudeDegrees>
            </Position>
            <AltitudeMeters>743.4000244140625</AltitudeMeters>
            <DistanceMeters>19162.493293574</DistanceMeters>
          </Trackpoint>
          <Trackpoint>
            <Time>2021-08-31T08:51:58.000Z</Time>
            <Position>
              <LatitudeDegrees>41.98370232246816158294677734375</LatitudeDegrees>
              <LongitudeDegrees>2.14802906848490238189697265625</LongitudeDegrees>
            </Position>
            <AltitudeMeters>743.79998779296875</AltitudeMeters>
            <DistanceMeters>19167.75849392</DistanceMeters>
          </Trackpoint>
          <Trackpoint>
            <Time>2021-08-31T08:52:04.000Z</Time>
            <Position>
              <LatitudeDegrees>41.98374590836465358734130859375</LatitudeDegrees>
              <LongitudeDegrees>2.1483962796628475189208984375</LongitudeDegrees>
            </Position>
            <AltitudeMeters>747.20001220703125</AltitudeMeters>
            <DistanceMeters>19198.524557578</DistanceMeters>
          </Trackpoint>
          <Trackpoint>
            <Time>2021-08-31T08:52:05.000Z</Time>
            <Position>
              <LatitudeDegrees>41.98375831358134746551513671875</LatitudeDegrees>
              <LongitudeDegrees>2.1484526060521602630615234375</LongitudeDegrees>
            </Position>
            <AltitudeMeters>747.79998779296875</AltitudeMeters>
            <DistanceMeters>19203.384874438</DistanceMeters>
          </Trackpoint>
          <Trackpoint>
            <Time>2021-08-31T08:52:06.000Z</Time>
            <Position>
              <LatitudeDegrees>41.98377373628318309783935546875</LatitudeDegrees>
              <LongitudeDegrees>2.14850985445082187652587890625</LongitudeDegrees>
            </Position>
            <AltitudeMeters>748.4000244140625</AltitudeMeters>
            <DistanceMeters>19208.422186698</DistanceMeters>
          </Trackpoint>
          <Trackpoint>
            <Time>2021-08-31T08:52:08.000Z</Time>
            <Position>
              <LatitudeDegrees>41.98380701243877410888671875</LatitudeDegrees>
              <LongitudeDegrees>2.1486309729516506195068359375</LongitudeDegrees>
            </Position>
            <AltitudeMeters>749.20001220703125</AltitudeMeters>
            <DistanceMeters>19219.10582682</DistanceMeters>
          </Trackpoint>
          <Trackpoint>
            <Time>2021-08-31T08:52:10.000Z</Time>
            <Position>
              <LatitudeDegrees>41.98382444679737091064453125</LatitudeDegrees>
              <LongitudeDegrees>2.14875896461308002471923828125</LongitudeDegrees>
            </Position>
            <AltitudeMeters>750.4000244140625</AltitudeMeters>
            <DistanceMeters>19229.871560941</DistanceMeters>
          </Trackpoint>
          <Trackpoint>
            <Time>2021-08-31T08:52:12.000Z</Time>
            <Position>
              <LatitudeDegrees>41.98384749703109264373779296875</LatitudeDegrees>
              <LongitudeDegrees>2.1488877944648265838623046875</LongitudeDegrees>
            </Position>
            <AltitudeMeters>751.79998779296875</AltitudeMeters>
            <DistanceMeters>19240.834695414</DistanceMeters>
          </Trackpoint>
          <Trackpoint>
            <Time>2021-08-31T08:52:15.000Z</Time>
            <Position>
              <LatitudeDegrees>41.9839258678257465362548828125</LatitudeDegrees>
              <LongitudeDegrees>2.14904663152992725372314453125</LongitudeDegrees>
            </Position>
            <AltitudeMeters>754</AltitudeMeters>
            <DistanceMeters>19256.607412555</DistanceMeters>
          </Trackpoint>
          <Trackpoint>
            <Time>2021-08-31T08:52:17.000Z</Time>
            <Position>
              <LatitudeDegrees>41.98399267159402370452880859375</LatitudeDegrees>
              <LongitudeDegrees>2.149138413369655609130859375</LongitudeDegrees>
            </Position>
            <AltitudeMeters>755.5999755859375</AltitudeMeters>
            <DistanceMeters>19267.235121441</DistanceMeters>
          </Trackpoint>
          <Trackpoint>
            <Time>2021-08-31T08:52:22.000Z</Time>
            <Position>
              <LatitudeDegrees>41.9841394387185573577880859375</LatitudeDegrees>
              <LongitudeDegrees>2.14936112053692340850830078125</LongitudeDegrees>
            </Position>
            <AltitudeMeters>758</AltitudeMeters>
            <DistanceMeters>19291.859328496</DistanceMeters>
          </Trackpoint>
          <Trackpoint>
            <Time>2021-08-31T08:52:23.000Z</Time>
            <Position>
              <LatitudeDegrees>41.98416567407548427581787109375</LatitudeDegrees>
              <LongitudeDegrees>2.149406634271144866943359375</LongitudeDegrees>
            </Position>
            <AltitudeMeters>758.20001220703125</AltitudeMeters>
            <DistanceMeters>19296.623949381</DistanceMeters>
          </Trackpoint>
          <Trackpoint>
            <Time>2021-08-31T08:52:25.000Z</Time>
            <Position>
              <LatitudeDegrees>41.9842001236975193023681640625</LatitudeDegrees>
              <LongitudeDegrees>2.14951333589851856231689453125</LongitudeDegrees>
            </Position>
            <AltitudeMeters>758.5999755859375</AltitudeMeters>
            <DistanceMeters>19306.248424648</DistanceMeters>
          </Trackpoint>
          <Trackpoint>
            <Time>2021-08-31T08:52:26.000Z</Time>
            <Position>
              <LatitudeDegrees>41.9842064939439296722412109375</LatitudeDegrees>
              <LongitudeDegrees>2.14957284741103649139404296875</LongitudeDegrees>
            </Position>
            <AltitudeMeters>759.20001220703125</AltitudeMeters>
            <DistanceMeters>19311.222598896</DistanceMeters>
          </Trackpoint>
          <Trackpoint>
            <Time>2021-08-31T08:52:27.000Z</Time>
            <Position>
              <LatitudeDegrees>41.98420607484877109527587890625</LatitudeDegrees>
              <LongitudeDegrees>2.14963386766612529754638671875</LongitudeDegrees>
            </Position>
            <AltitudeMeters>760</AltitudeMeters>
            <DistanceMeters>19316.270655525</DistanceMeters>
          </Trackpoint>
          <Trackpoint>
            <Time>2021-08-31T08:52:29.000Z</Time>
            <Position>
              <LatitudeDegrees>41.98418579064309597015380859375</LatitudeDegrees>
              <LongitudeDegrees>2.14975020848214626312255859375</LongitudeDegrees>
            </Position>
            <AltitudeMeters>761.20001220703125</AltitudeMeters>
            <DistanceMeters>19326.158001356</DistanceMeters>
          </Trackpoint>
          <Trackpoint>
            <Time>2021-08-31T08:52:30.000Z</Time>
            <Position>
              <LatitudeDegrees>41.98416349478065967559814453125</LatitudeDegrees>
              <LongitudeDegrees>2.1497990749776363372802734375</LongitudeDegrees>
            </Position>
            <AltitudeMeters>762.20001220703125</AltitudeMeters>
            <DistanceMeters>19330.902680542</DistanceMeters>
          </Trackpoint>
          <Trackpoint>
            <Time>2021-08-31T08:52:31.000Z</Time>
            <Position>
              <LatitudeDegrees>41.98413650505244731903076171875</LatitudeDegrees>
              <LongitudeDegrees>2.1498403139412403106689453125</LongitudeDegrees>
            </Position>
            <AltitudeMeters>763.4000244140625</AltitudeMeters>
            <DistanceMeters>19335.449090662</DistanceMeters>
          </Trackpoint>
          <Trackpoint>
            <Time>2021-08-31T08:52:33.000Z</Time>
            <Position>
              <LatitudeDegrees>41.98406207375228404998779296875</LatitudeDegrees>
              <LongitudeDegrees>2.14988331310451030731201171875</LongitudeDegrees>
            </Position>
            <AltitudeMeters>765.79998779296875</AltitudeMeters>
            <DistanceMeters>19344.465117955</DistanceMeters>
          </Trackpoint>
          <Trackpoint>
            <Time>2021-08-31T08:52:34.000Z</Time>
            <Position>
              <LatitudeDegrees>41.98402049951255321502685546875</LatitudeDegrees>
              <LongitudeDegrees>2.14988700114190578460693359375</LongitudeDegrees>
            </Position>
            <AltitudeMeters>766.79998779296875</AltitudeMeters>
            <DistanceMeters>19349.101019371</DistanceMeters>
          </Trackpoint>
          <Trackpoint>
            <Time>2021-08-31T08:52:39.000Z</Time>
            <Position>
              <LatitudeDegrees>41.98381497524678707122802734375</LatitudeDegrees>
              <LongitudeDegrees>2.1499258093535900115966796875</LongitudeDegrees>
            </Position>
            <AltitudeMeters>768.20001220703125</AltitudeMeters>
            <DistanceMeters>19372.200526228</DistanceMeters>
          </Trackpoint>
          <Trackpoint>
            <Time>2021-08-31T08:52:43.000Z</Time>
            <Position>
              <LatitudeDegrees>41.98369008488953113555908203125</LatitudeDegrees>
              <LongitudeDegrees>2.14996662922203540802001953125</LongitudeDegrees>
            </Position>
            <AltitudeMeters>770.20001220703125</AltitudeMeters>
            <DistanceMeters>19386.505124518</DistanceMeters>
          </Trackpoint>
          <Trackpoint>
            <Time>2021-08-31T08:52:44.000Z</Time>
            <Position>
              <LatitudeDegrees>41.98367600329220294952392578125</LatitudeDegrees>
              <LongitudeDegrees>2.14999194256961345672607421875</LongitudeDegrees>
            </Position>
            <AltitudeMeters>771</AltitudeMeters>
            <DistanceMeters>19389.121380993</DistanceMeters>
          </Trackpoint>
          <Trackpoint>
            <Time>2021-08-31T08:52:46.000Z</Time>
            <Position>
              <LatitudeDegrees>41.983665861189365386962890625</LatitudeDegrees>
              <LongitudeDegrees>2.15004558674991130828857421875</LongitudeDegrees>
            </Position>
            <AltitudeMeters>772.5999755859375</AltitudeMeters>
            <DistanceMeters>19393.701432039</DistanceMeters>
          </Trackpoint>
          <Trackpoint>
            <Time>2021-08-31T08:52:47.000Z</Time>
            <Position>
              <LatitudeDegrees>41.983673572540283203125</LatitudeDegrees>
              <LongitudeDegrees>2.15007291175425052642822265625</LongitudeDegrees>
            </Position>
            <AltitudeMeters>773.4000244140625</AltitudeMeters>
            <DistanceMeters>19396.120417267</DistanceMeters>
          </Trackpoint>
          <Trackpoint>
            <Time>2021-08-31T08:52:52.000Z</Time>
            <Position>
              <LatitudeDegrees>41.98376921005547046661376953125</LatitudeDegrees>
              <LongitudeDegrees>2.15021356008946895599365234375</LongitudeDegrees>
            </Position>
            <AltitudeMeters>776.5999755859375</AltitudeMeters>
            <DistanceMeters>19411.890844193</DistanceMeters>
          </Trackpoint>
          <Trackpoint>
            <Time>2021-08-31T08:52:58.000Z</Time>
            <Position>
              <LatitudeDegrees>41.9839345850050449371337890625</LatitudeDegrees>
              <LongitudeDegrees>2.15036862529814243316650390625</LongitudeDegrees>
            </Position>
            <AltitudeMeters>778.5999755859375</AltitudeMeters>
            <DistanceMeters>19434.327011677</DistanceMeters>
          </Trackpoint>
          <Trackpoint>
            <Time>2021-08-31T08:52:59.000Z</Time>
            <Position>
              <LatitudeDegrees>41.98396467603743076324462890625</LatitudeDegrees>
              <LongitudeDegrees>2.15039871633052825927734375</LongitudeDegrees>
            </Position>
            <AltitudeMeters>779.20001220703125</AltitudeMeters>
            <DistanceMeters>19438.499539374</DistanceMeters>
          </Trackpoint>
          <Trackpoint>
            <Time>2021-08-31T08:53:04.000Z</Time>
            <Position>
              <LatitudeDegrees>41.98408956639468669891357421875</LatitudeDegrees>
              <LongitudeDegrees>2.15059225447475910186767578125</LongitudeDegrees>
            </Position>
            <AltitudeMeters>781</AltitudeMeters>
            <DistanceMeters>19459.703915486</DistanceMeters>
          </Trackpoint>
          <Trackpoint>
            <Time>2021-08-31T08:53:09.000Z</Time>
            <Position>
              <LatitudeDegrees>41.9842048175632953643798828125</LatitudeDegrees>
              <LongitudeDegrees>2.15082091279327869415283203125</LongitudeDegrees>
            </Position>
            <AltitudeMeters>782.20001220703125</AltitudeMeters>
            <DistanceMeters>19482.560754127</DistanceMeters>
          </Trackpoint>
          <Trackpoint>
            <Time>2021-08-31T08:53:13.000Z</Time>
            <Position>
              <LatitudeDegrees>41.98430079035460948944091796875</LatitudeDegrees>
              <LongitudeDegrees>2.1510161273181438446044921875</LongitudeDegrees>
            </Position>
            <AltitudeMeters>783</AltitudeMeters>
            <DistanceMeters>19501.924531243</DistanceMeters>
          </Trackpoint>
          <Trackpoint>
            <Time>2021-08-31T08:53:14.000Z</Time>
            <Position>
              <LatitudeDegrees>41.984318308532238006591796875</LatitudeDegrees>
              <LongitudeDegrees>2.15106918476521968841552734375</LongitudeDegrees>
            </Position>
            <AltitudeMeters>783</AltitudeMeters>
            <DistanceMeters>19506.727847317</DistanceMeters>
          </Trackpoint>
          <Trackpoint>
            <Time>2021-08-31T08:53:15.000Z</Time>
            <Position>
              <LatitudeDegrees>41.984330378472805023193359375</LatitudeDegrees>
              <LongitudeDegrees>2.15112668462097644805908203125</LongitudeDegrees>
            </Position>
            <AltitudeMeters>783.20001220703125</AltitudeMeters>
            <DistanceMeters>19511.671063564</DistanceMeters>
          </Trackpoint>
          <Trackpoint>
            <Time>2021-08-31T08:53:17.000Z</Time>
            <Position>
              <LatitudeDegrees>41.9843476451933383941650390625</LatitudeDegrees>
              <LongitudeDegrees>2.1512447856366634368896484375</LongitudeDegrees>
            </Position>
            <AltitudeMeters>783.79998779296875</AltitudeMeters>
            <DistanceMeters>19521.629845095</DistanceMeters>
          </Trackpoint>
          <Trackpoint>
            <Time>2021-08-31T08:53:18.000Z</Time>
            <Position>
              <LatitudeDegrees>41.98434907011687755584716796875</LatitudeDegrees>
              <LongitudeDegrees>2.15131091885268688201904296875</LongitudeDegrees>
            </Position>
            <AltitudeMeters>784.20001220703125</AltitudeMeters>
            <DistanceMeters>19527.103581811</DistanceMeters>
          </Trackpoint>
          <Trackpoint>
            <Time>2021-08-31T08:53:23.000Z</Time>
            <Position>
              <LatitudeDegrees>41.98434747755527496337890625</LatitudeDegrees>
              <LongitudeDegrees>2.15163915418088436126708984375</LongitudeDegrees>
            </Position>
            <AltitudeMeters>785.20001220703125</AltitudeMeters>
            <DistanceMeters>19554.260281596</DistanceMeters>
          </Trackpoint>
          <Trackpoint>
            <Time>2021-08-31T08:53:24.000Z</Time>
            <Position>
              <LatitudeDegrees>41.98432928882539272308349609375</LatitudeDegrees>
              <LongitudeDegrees>2.1516855061054229736328125</LongitudeDegrees>
            </Position>
            <AltitudeMeters>786</AltitudeMeters>
            <DistanceMeters>19558.596249672</DistanceMeters>
          </Trackpoint>
          <Trackpoint>
            <Time>2021-08-31T08:53:25.000Z</Time>
            <Position>
              <LatitudeDegrees>41.98430146090686321258544921875</LatitudeDegrees>
              <LongitudeDegrees>2.15171576477587223052978515625</LongitudeDegrees>
            </Position>
            <AltitudeMeters>787</AltitudeMeters>
            <DistanceMeters>19562.578311228</DistanceMeters>
          </Trackpoint>
          <Trackpoint>
            <Time>2021-08-31T08:53:27.000Z</Time>
            <Position>
              <LatitudeDegrees>41.98424899019300937652587890625</LatitudeDegrees>
              <LongitudeDegrees>2.15170654468238353729248046875</LongitudeDegrees>
            </Position>
            <AltitudeMeters>788.5999755859375</AltitudeMeters>
            <DistanceMeters>19568.46843463</DistanceMeters>
          </Trackpoint>
          <Trackpoint>
            <Time>2021-08-31T08:53:30.000Z</Time>
            <Position>
              <LatitudeDegrees>41.9842259399592876434326171875</LatitudeDegrees>
              <LongitudeDegrees>2.15158349834382534027099609375</LongitudeDegrees>
            </Position>
            <AltitudeMeters>788.5999755859375</AltitudeMeters>
            <DistanceMeters>19578.967058972</DistanceMeters>
          </Trackpoint>
          <Trackpoint>
            <Time>2021-08-31T08:53:33.000Z</Time>
            <Position>
              <LatitudeDegrees>41.9841974414885044097900390625</LatitudeDegrees>
              <LongitudeDegrees>2.15143865905702114105224609375</LongitudeDegrees>
            </Position>
            <AltitudeMeters>788.5999755859375</AltitudeMeters>
            <DistanceMeters>19591.362855872</DistanceMeters>
          </Trackpoint>
          <Trackpoint>
            <Time>2021-08-31T08:53:34.000Z</Time>
            <Position>
              <LatitudeDegrees>41.984175480902194976806640625</LatitudeDegrees>
              <LongitudeDegrees>2.15138819999992847442626953125</LongitudeDegrees>
            </Position>
            <AltitudeMeters>789</AltitudeMeters>
            <DistanceMeters>19596.200826329</DistanceMeters>
          </Trackpoint>
          <Trackpoint>
            <Time>2021-08-31T08:53:40.000Z</Time>
            <Position>
              <LatitudeDegrees>41.9839878939092159271240234375</LatitudeDegrees>
              <LongitudeDegrees>2.1510704420506954193115234375</LongitudeDegrees>
            </Position>
            <AltitudeMeters>791.4000244140625</AltitudeMeters>
            <DistanceMeters>19629.772568927</DistanceMeters>
          </Trackpoint>
          <Trackpoint>
            <Time>2021-08-31T08:53:43.000Z</Time>
            <Position>
              <LatitudeDegrees>41.9838775880634784698486328125</LatitudeDegrees>
              <LongitudeDegrees>2.15091294609010219573974609375</LongitudeDegrees>
            </Position>
            <AltitudeMeters>791</AltitudeMeters>
            <DistanceMeters>19647.675460685</DistanceMeters>
          </Trackpoint>
          <Trackpoint>
            <Time>2021-08-31T08:53:45.000Z</Time>
            <Position>
              <LatitudeDegrees>41.983803324401378631591796875</LatitudeDegrees>
              <LongitudeDegrees>2.150868438184261322021484375</LongitudeDegrees>
            </Position>
            <AltitudeMeters>791.5999755859375</AltitudeMeters>
            <DistanceMeters>19656.724479041</DistanceMeters>
          </Trackpoint>
          <Trackpoint>
            <Time>2021-08-31T08:53:47.000Z</Time>
            <Position>
              <LatitudeDegrees>41.98373400606215000152587890625</LatitudeDegrees>
              <LongitudeDegrees>2.1508806757628917694091796875</LongitudeDegrees>
            </Position>
            <AltitudeMeters>793.20001220703125</AltitudeMeters>
            <DistanceMeters>19664.505652638</DistanceMeters>
          </Trackpoint>
          <Trackpoint>
            <Time>2021-08-31T08:53:48.000Z</Time>
            <Position>
              <LatitudeDegrees>41.98371179401874542236328125</LatitudeDegrees>
              <LongitudeDegrees>2.15090624056756496429443359375</LongitudeDegrees>
            </Position>
            <AltitudeMeters>793.79998779296875</AltitudeMeters>
            <DistanceMeters>19667.760230901</DistanceMeters>
          </Trackpoint>
          <Trackpoint>
            <Time>2021-08-31T08:53:49.000Z</Time>
            <Position>
              <LatitudeDegrees>41.98370031081140041351318359375</LatitudeDegrees>
              <LongitudeDegrees>2.150934822857379913330078125</LongitudeDegrees>
            </Position>
            <AltitudeMeters>794.4000244140625</AltitudeMeters>
            <DistanceMeters>19670.447992266</DistanceMeters>
          </Trackpoint>
          <Trackpoint>
            <Time>2021-08-31T08:53:51.000Z</Time>
            <Position>
              <LatitudeDegrees>41.983724534511566162109375</LatitudeDegrees>
              <LongitudeDegrees>2.15101034380495548248291015625</LongitudeDegrees>
            </Position>
            <AltitudeMeters>796.20001220703125</AltitudeMeters>
            <DistanceMeters>19677.252860524</DistanceMeters>
          </Trackpoint>
          <Trackpoint>
            <Time>2021-08-31T08:53:55.000Z</Time>
            <Position>
              <LatitudeDegrees>41.98380977846682071685791015625</LatitudeDegrees>
              <LongitudeDegrees>2.1511891297996044158935546875</LongitudeDegrees>
            </Position>
            <AltitudeMeters>797.5999755859375</AltitudeMeters>
            <DistanceMeters>19694.825866932</DistanceMeters>
          </Trackpoint>
          <Trackpoint>
            <Time>2021-08-31T08:53:56.000Z</Time>
            <Position>
              <LatitudeDegrees>41.9838276319205760955810546875</LatitudeDegrees>
              <LongitudeDegrees>2.15124067850410938262939453125</LongitudeDegrees>
            </Position>
            <AltitudeMeters>798.20001220703125</AltitudeMeters>
            <DistanceMeters>19699.529449321</DistanceMeters>
          </Trackpoint>
          <Trackpoint>
            <Time>2021-08-31T08:53:59.000Z</Time>
            <Position>
              <LatitudeDegrees>41.98388370685279369354248046875</LatitudeDegrees>
              <LongitudeDegrees>2.151402533054351806640625</LongitudeDegrees>
            </Position>
            <AltitudeMeters>798.4000244140625</AltitudeMeters>
            <DistanceMeters>19714.303582385</DistanceMeters>
          </Trackpoint>
          <Trackpoint>
            <Time>2021-08-31T08:54:01.000Z</Time>
            <Position>
              <LatitudeDegrees>41.9839002192020416259765625</LatitudeDegrees>
              <LongitudeDegrees>2.1515039540827274322509765625</LongitudeDegrees>
            </Position>
            <AltitudeMeters>799.4000244140625</AltitudeMeters>
            <DistanceMeters>19722.892862015</DistanceMeters>
          </Trackpoint>
          <Trackpoint>
            <Time>2021-08-31T08:54:02.000Z</Time>
            <Position>
              <LatitudeDegrees>41.98390130884945392608642578125</LatitudeDegrees>
              <LongitudeDegrees>2.1515572629868984222412109375</LongitudeDegrees>
            </Position>
            <AltitudeMeters>800.4000244140625</AltitudeMeters>
            <DistanceMeters>19727.305213407</DistanceMeters>
          </Trackpoint>
          <Trackpoint>
            <Time>2021-08-31T08:54:06.000Z</Time>
            <Position>
              <LatitudeDegrees>41.9838749058544635772705078125</LatitudeDegrees>
              <LongitudeDegrees>2.1518020145595073699951171875</LongitudeDegrees>
            </Position>
            <AltitudeMeters>803.5999755859375</AltitudeMeters>
            <DistanceMeters>19747.766651877</DistanceMeters>
          </Trackpoint>
          <Trackpoint>
            <Time>2021-08-31T08:54:08.000Z</Time>
            <Position>
              <LatitudeDegrees>41.983869038522243499755859375</LatitudeDegrees>
              <LongitudeDegrees>2.15193335898220539093017578125</LongitudeDegrees>
            </Position>
            <AltitudeMeters>804.5999755859375</AltitudeMeters>
            <DistanceMeters>19758.65291493</DistanceMeters>
          </Trackpoint>
          <Trackpoint>
            <Time>2021-08-31T08:54:10.000Z</Time>
            <Position>
              <LatitudeDegrees>41.983838193118572235107421875</LatitudeDegrees>
              <LongitudeDegrees>2.15205288492143154144287109375</LongitudeDegrees>
            </Position>
            <AltitudeMeters>806.4000244140625</AltitudeMeters>
            <DistanceMeters>19769.120529155</DistanceMeters>
          </Trackpoint>
          <Trackpoint>
            <Time>2021-08-31T08:54:12.000Z</Time>
            <Position>
              <LatitudeDegrees>41.9837870635092258453369140625</LatitudeDegrees>
              <LongitudeDegrees>2.15216805227100849151611328125</LongitudeDegrees>
            </Position>
            <AltitudeMeters>809.4000244140625</AltitudeMeters>
            <DistanceMeters>19780.218738141</DistanceMeters>
          </Trackpoint>
          <Trackpoint>
            <Time>2021-08-31T08:54:14.000Z</Time>
            <Position>
              <LatitudeDegrees>41.98376543819904327392578125</LatitudeDegrees>
              <LongitudeDegrees>2.1522988937795162200927734375</LongitudeDegrees>
            </Position>
            <AltitudeMeters>810.20001220703125</AltitudeMeters>
            <DistanceMeters>19791.308400493</DistanceMeters>
          </Trackpoint>
          <Trackpoint>
            <Time>2021-08-31T08:54:16.000Z</Time>
            <Position>
              <LatitudeDegrees>41.98378010652959346771240234375</LatitudeDegrees>
              <LongitudeDegrees>2.15244130231440067291259765625</LongitudeDegrees>
            </Position>
            <AltitudeMeters>810</AltitudeMeters>
            <DistanceMeters>19803.203073155</DistanceMeters>
          </Trackpoint>
          <Trackpoint>
            <Time>2021-08-31T08:54:18.000Z</Time>
            <Position>
              <LatitudeDegrees>41.98380860500037670135498046875</LatitudeDegrees>
              <LongitudeDegrees>2.1525741554796695709228515625</LongitudeDegrees>
            </Position>
            <AltitudeMeters>809.20001220703125</AltitudeMeters>
            <DistanceMeters>19814.643042469</DistanceMeters>
          </Trackpoint>
          <Trackpoint>
            <Time>2021-08-31T08:54:19.000Z</Time>
            <Position>
              <LatitudeDegrees>41.98381832800805568695068359375</LatitudeDegrees>
              <LongitudeDegrees>2.1526457369327545166015625</LongitudeDegrees>
            </Position>
            <AltitudeMeters>809</AltitudeMeters>
            <DistanceMeters>19820.662817944</DistanceMeters>
          </Trackpoint>
          <Trackpoint>
            <Time>2021-08-31T08:54:22.000Z</Time>
            <Position>
              <LatitudeDegrees>41.98382033966481685638427734375</LatitudeDegrees>
              <LongitudeDegrees>2.15285570360720157623291015625</LongitudeDegrees>
            </Position>
            <AltitudeMeters>809.4000244140625</AltitudeMeters>
            <DistanceMeters>19838.035822147</DistanceMeters>
          </Trackpoint>
          <Trackpoint>
            <Time>2021-08-31T08:54:25.000Z</Time>
            <Position>
              <LatitudeDegrees>41.9838943518698215484619140625</LatitudeDegrees>
              <LongitudeDegrees>2.15302870608866214752197265625</LongitudeDegrees>
            </Position>
            <AltitudeMeters>808.5999755859375</AltitudeMeters>
            <DistanceMeters>19854.550524653</DistanceMeters>
          </Trackpoint>
          <Trackpoint>
            <Time>2021-08-31T08:54:32.000Z</Time>
            <Position>
              <LatitudeDegrees>41.98406450450420379638671875</LatitudeDegrees>
              <LongitudeDegrees>2.153399772942066192626953125</LongitudeDegrees>
            </Position>
            <AltitudeMeters>808.79998779296875</AltitudeMeters>
            <DistanceMeters>19890.621894391</DistanceMeters>
          </Trackpoint>
          <Trackpoint>
            <Time>2021-08-31T08:54:37.000Z</Time>
            <Position>
              <LatitudeDegrees>41.984145641326904296875</LatitudeDegrees>
              <LongitudeDegrees>2.15364125557243824005126953125</LongitudeDegrees>
            </Position>
            <AltitudeMeters>810</AltitudeMeters>
            <DistanceMeters>19912.546927787</DistanceMeters>
          </Trackpoint>
          <Trackpoint>
            <Time>2021-08-31T08:54:38.000Z</Time>
            <Position>
              <LatitudeDegrees>41.984156034886837005615234375</LatitudeDegrees>
              <LongitudeDegrees>2.15369372628629207611083984375</LongitudeDegrees>
            </Position>
            <AltitudeMeters>810.4000244140625</AltitudeMeters>
            <DistanceMeters>19917.039390458</DistanceMeters>
          </Trackpoint>
          <Trackpoint>
            <Time>2021-08-31T08:54:40.000Z</Time>
            <Position>
              <LatitudeDegrees>41.98416986502707004547119140625</LatitudeDegrees>
              <LongitudeDegrees>2.153806127607822418212890625</LongitudeDegrees>
            </Position>
            <AltitudeMeters>811</AltitudeMeters>
            <DistanceMeters>19926.465733981</DistanceMeters>
          </Trackpoint>
          <Trackpoint>
            <Time>2021-08-31T08:54:42.000Z</Time>
            <Position>
              <LatitudeDegrees>41.9841670989990234375</LatitudeDegrees>
              <LongitudeDegrees>2.15391836129128932952880859375</LongitudeDegrees>
            </Position>
            <AltitudeMeters>811.79998779296875</AltitudeMeters>
            <DistanceMeters>19935.756023032</DistanceMeters>
          </Trackpoint>
          <Trackpoint>
            <Time>2021-08-31T08:54:45.000Z</Time>
            <Position>
              <LatitudeDegrees>41.984119825065135955810546875</LatitudeDegrees>
              <LongitudeDegrees>2.1540681459009647369384765625</LongitudeDegrees>
            </Position>
            <AltitudeMeters>812</AltitudeMeters>
            <DistanceMeters>19949.218997978</DistanceMeters>
          </Trackpoint>
          <Trackpoint>
            <Time>2021-08-31T08:54:47.000Z</Time>
            <Position>
              <LatitudeDegrees>41.98406944982707500457763671875</LatitudeDegrees>
              <LongitudeDegrees>2.15415758080780506134033203125</LongitudeDegrees>
            </Position>
            <AltitudeMeters>812</AltitudeMeters>
            <DistanceMeters>19958.502480599</DistanceMeters>
          </Trackpoint>
          <Trackpoint>
            <Time>2021-08-31T08:54:52.000Z</Time>
            <Position>
              <LatitudeDegrees>41.98398412205278873443603515625</LatitudeDegrees>
              <LongitudeDegrees>2.1543631888926029205322265625</LongitudeDegrees>
            </Position>
            <AltitudeMeters>810.79998779296875</AltitudeMeters>
            <DistanceMeters>19977.985042885</DistanceMeters>
          </Trackpoint>
          <Trackpoint>
            <Time>2021-08-31T08:54:56.000Z</Time>
            <Position>
              <LatitudeDegrees>41.984064169228076934814453125</LatitudeDegrees>
              <LongitudeDegrees>2.15450651943683624267578125</LongitudeDegrees>
            </Position>
            <AltitudeMeters>810.79998779296875</AltitudeMeters>
            <DistanceMeters>19992.817127106</DistanceMeters>
          </Trackpoint>
          <Trackpoint>
            <Time>2021-08-31T08:55:01.000Z</Time>
            <Position>
              <LatitudeDegrees>41.9842088408768177032470703125</LatitudeDegrees>
              <LongitudeDegrees>2.15466032736003398895263671875</LongitudeDegrees>
            </Position>
            <AltitudeMeters>811.79998779296875</AltitudeMeters>
            <DistanceMeters>20013.340257609</DistanceMeters>
          </Trackpoint>
          <Trackpoint>
            <Time>2021-08-31T08:55:07.000Z</Time>
            <Position>
              <LatitudeDegrees>41.9843888841569423675537109375</LatitudeDegrees>
              <LongitudeDegrees>2.154840789735317230224609375</LongitudeDegrees>
            </Position>
            <AltitudeMeters>813.20001220703125</AltitudeMeters>
            <DistanceMeters>20038.329934809</DistanceMeters>
          </Trackpoint>
          <Trackpoint>
            <Time>2021-08-31T08:55:10.000Z</Time>
            <Position>
              <LatitudeDegrees>41.9844903051853179931640625</LatitudeDegrees>
              <LongitudeDegrees>2.1549365110695362091064453125</LongitudeDegrees>
            </Position>
            <AltitudeMeters>814</AltitudeMeters>
            <DistanceMeters>20052.118962679</DistanceMeters>
          </Trackpoint>
          <Trackpoint>
            <Time>2021-08-31T08:55:13.000Z</Time>
            <Position>
              <LatitudeDegrees>41.98459348641335964202880859375</LatitudeDegrees>
              <LongitudeDegrees>2.15504698455333709716796875</LongitudeDegrees>
            </Position>
            <AltitudeMeters>815</AltitudeMeters>
            <DistanceMeters>20066.796207095</DistanceMeters>
          </Trackpoint>
          <Trackpoint>
            <Time>2021-08-31T08:55:19.000Z</Time>
            <Position>
              <LatitudeDegrees>41.9847788102924823760986328125</LatitudeDegrees>
              <LongitudeDegrees>2.15529617853462696075439453125</LongitudeDegrees>
            </Position>
            <AltitudeMeters>816.20001220703125</AltitudeMeters>
            <DistanceMeters>20095.959811297</DistanceMeters>
          </Trackpoint>
          <Trackpoint>
            <Time>2021-08-31T08:55:23.000Z</Time>
            <Position>
              <LatitudeDegrees>41.98490814305841922760009765625</LatitudeDegrees>
              <LongitudeDegrees>2.15546381659805774688720703125</LongitudeDegrees>
            </Position>
            <AltitudeMeters>817.20001220703125</AltitudeMeters>
            <DistanceMeters>20115.949104746</DistanceMeters>
          </Trackpoint>
          <Trackpoint>
            <Time>2021-08-31T08:55:26.000Z</Time>
            <Position>
              <LatitudeDegrees>41.9849950633943080902099609375</LatitudeDegrees>
              <LongitudeDegrees>2.15559507720172405242919921875</LongitudeDegrees>
            </Position>
            <AltitudeMeters>819</AltitudeMeters>
            <DistanceMeters>20130.49284947</DistanceMeters>
          </Trackpoint>
          <Trackpoint>
            <Time>2021-08-31T08:55:30.000Z</Time>
            <Position>
              <LatitudeDegrees>41.98512121103703975677490234375</LatitudeDegrees>
              <LongitudeDegrees>2.1557649783790111541748046875</LongitudeDegrees>
            </Position>
            <AltitudeMeters>821.20001220703125</AltitudeMeters>
            <DistanceMeters>20150.36047896</DistanceMeters>
          </Trackpoint>
          <Trackpoint>
            <Time>2021-08-31T08:55:32.000Z</Time>
            <Position>
              <LatitudeDegrees>41.98520134203135967254638671875</LatitudeDegrees>
              <LongitudeDegrees>2.15582323260605335235595703125</LongitudeDegrees>
            </Position>
            <AltitudeMeters>821.5999755859375</AltitudeMeters>
            <DistanceMeters>20160.498542388</DistanceMeters>
          </Trackpoint>
          <Trackpoint>
            <Time>2021-08-31T08:55:37.000Z</Time>
            <Position>
              <LatitudeDegrees>41.9854097999632358551025390625</LatitudeDegrees>
              <LongitudeDegrees>2.15589188039302825927734375</LongitudeDegrees>
            </Position>
            <AltitudeMeters>821.5999755859375</AltitudeMeters>
            <DistanceMeters>20184.385241829</DistanceMeters>
          </Trackpoint>
          <Trackpoint>
            <Time>2021-08-31T08:55:41.000Z</Time>
            <Position>
              <LatitudeDegrees>41.9855596683919429779052734375</LatitudeDegrees>
              <LongitudeDegrees>2.15594795532524585723876953125</LongitudeDegrees>
            </Position>
            <AltitudeMeters>821.79998779296875</AltitudeMeters>
            <DistanceMeters>20201.699411685</DistanceMeters>
          </Trackpoint>
          <Trackpoint>
            <Time>2021-08-31T08:55:43.000Z</Time>
            <Position>
              <LatitudeDegrees>41.98565882630646228790283203125</LatitudeDegrees>
              <LongitudeDegrees>2.155969329178333282470703125</LongitudeDegrees>
            </Position>
            <AltitudeMeters>821.5999755859375</AltitudeMeters>
            <DistanceMeters>20212.876670186</DistanceMeters>
          </Trackpoint>
          <Trackpoint>
            <Time>2021-08-31T08:55:44.000Z</Time>
            <Position>
              <LatitudeDegrees>41.9857105426490306854248046875</LatitudeDegrees>
              <LongitudeDegrees>2.15596455149352550506591796875</LongitudeDegrees>
            </Position>
            <AltitudeMeters>821.20001220703125</AltitudeMeters>
            <DistanceMeters>20218.645973591</DistanceMeters>
          </Trackpoint>
          <Trackpoint>
            <Time>2021-08-31T08:55:46.000Z</Time>
            <Position>
              <LatitudeDegrees>41.98580735363066196441650390625</LatitudeDegrees>
              <LongitudeDegrees>2.155937142670154571533203125</LongitudeDegrees>
            </Position>
            <AltitudeMeters>820.4000244140625</AltitudeMeters>
            <DistanceMeters>20229.657597744</DistanceMeters>
          </Trackpoint>
          <Trackpoint>
            <Time>2021-08-31T08:55:49.000Z</Time>
            <Position>
              <LatitudeDegrees>41.98596057482063770294189453125</LatitudeDegrees>
              <LongitudeDegrees>2.1558823250234127044677734375</LongitudeDegrees>
            </Position>
            <AltitudeMeters>819.5999755859375</AltitudeMeters>
            <DistanceMeters>20247.30393323</DistanceMeters>
          </Trackpoint>
          <Trackpoint>
            <Time>2021-08-31T08:55:55.000Z</Time>
            <Position>
              <LatitudeDegrees>41.9862543605268001556396484375</LatitudeDegrees>
              <LongitudeDegrees>2.1557633019983768463134765625</LongitudeDegrees>
            </Position>
            <AltitudeMeters>822.20001220703125</AltitudeMeters>
            <DistanceMeters>20281.453313785</DistanceMeters>
          </Trackpoint>
          <Trackpoint>
            <Time>2021-08-31T08:55:56.000Z</Time>
            <Position>
              <LatitudeDegrees>41.98631060309708118438720703125</LatitudeDegrees>
              <LongitudeDegrees>2.1557535789906978607177734375</LongitudeDegrees>
            </Position>
            <AltitudeMeters>822.4000244140625</AltitudeMeters>
            <DistanceMeters>20287.764547198</DistanceMeters>
          </Trackpoint>
          <Trackpoint>
            <Time>2021-08-31T08:55:59.000Z</Time>
            <Position>
              <LatitudeDegrees>41.9864766485989093780517578125</LatitudeDegrees>
              <LongitudeDegrees>2.15571627952158451080322265625</LongitudeDegrees>
            </Position>
            <AltitudeMeters>822.5999755859375</AltitudeMeters>
            <DistanceMeters>20306.501926207</DistanceMeters>
          </Trackpoint>
          <Trackpoint>
            <Time>2021-08-31T08:56:02.000Z</Time>
            <Position>
              <LatitudeDegrees>41.986638419330120086669921875</LatitudeDegrees>
              <LongitudeDegrees>2.15565073303878307342529296875</LongitudeDegrees>
            </Position>
            <AltitudeMeters>822</AltitudeMeters>
            <DistanceMeters>20325.306173956</DistanceMeters>
          </Trackpoint>
          <Trackpoint>
            <Time>2021-08-31T08:56:03.000Z</Time>
            <Position>
              <LatitudeDegrees>41.9866929017007350921630859375</LatitudeDegrees>
              <LongitudeDegrees>2.1556405909359455108642578125</LongitudeDegrees>
            </Position>
            <AltitudeMeters>822</AltitudeMeters>
            <DistanceMeters>20331.427841804</DistanceMeters>
          </Trackpoint>
          <Trackpoint>
            <Time>2021-08-31T08:56:05.000Z</Time>
            <Position>
              <LatitudeDegrees>41.98680597357451915740966796875</LatitudeDegrees>
              <LongitudeDegrees>2.15564704500138759613037109375</LongitudeDegrees>
            </Position>
            <AltitudeMeters>821.79998779296875</AltitudeMeters>
            <DistanceMeters>20344.023811124</DistanceMeters>
          </Trackpoint>
          <Trackpoint>
            <Time>2021-08-31T08:56:06.000Z</Time>
            <Position>
              <LatitudeDegrees>41.986863054335117340087890625</LatitudeDegrees>
              <LongitudeDegrees>2.15566079132258892059326171875</LongitudeDegrees>
            </Position>
            <AltitudeMeters>822.4000244140625</AltitudeMeters>
            <DistanceMeters>20350.478636661</DistanceMeters>
          </Trackpoint>
          <Trackpoint>
            <Time>2021-08-31T08:56:09.000Z</Time>
            <Position>
              <LatitudeDegrees>41.987021304666996002197265625</LatitudeDegrees>
              <LongitudeDegrees>2.15571929700672626495361328125</LongitudeDegrees>
            </Position>
            <AltitudeMeters>824.4000244140625</AltitudeMeters>
            <DistanceMeters>20368.745035447</DistanceMeters>
          </Trackpoint>
          <Trackpoint>
            <Time>2021-08-31T08:56:11.000Z</Time>
            <Position>
              <LatitudeDegrees>41.98711090721189975738525390625</LatitudeDegrees>
              <LongitudeDegrees>2.15579255484044551849365234375</LongitudeDegrees>
            </Position>
            <AltitudeMeters>826</AltitudeMeters>
            <DistanceMeters>20380.415151682</DistanceMeters>
          </Trackpoint>
          <Trackpoint>
            <Time>2021-08-31T08:56:14.000Z</Time>
            <Position>
              <LatitudeDegrees>41.98723018169403076171875</LatitudeDegrees>
              <LongitudeDegrees>2.155903279781341552734375</LongitudeDegrees>
            </Position>
            <AltitudeMeters>828.4000244140625</AltitudeMeters>
            <DistanceMeters>20396.544239451</DistanceMeters>
          </Trackpoint>
          <Trackpoint>
            <Time>2021-08-31T08:56:15.000Z</Time>
            <Position>
              <LatitudeDegrees>41.98727644979953765869140625</LatitudeDegrees>
              <LongitudeDegrees>2.15592079795897006988525390625</LongitudeDegrees>
            </Position>
            <AltitudeMeters>829.20001220703125</AltitudeMeters>
            <DistanceMeters>20401.893661126</DistanceMeters>
          </Trackpoint>
          <Trackpoint>
            <Time>2021-08-31T08:56:16.000Z</Time>
            <Position>
              <LatitudeDegrees>41.9873255677521228790283203125</LatitudeDegrees>
              <LongitudeDegrees>2.155923061072826385498046875</LongitudeDegrees>
            </Position>
            <AltitudeMeters>829.5999755859375</AltitudeMeters>
            <DistanceMeters>20407.364097428</DistanceMeters>
          </Trackpoint>
          <Trackpoint>
            <Time>2021-08-31T08:56:19.000Z</Time>
            <Position>
              <LatitudeDegrees>41.98746931739151477813720703125</LatitudeDegrees>
              <LongitudeDegrees>2.15589364059269428253173828125</LongitudeDegrees>
            </Position>
            <AltitudeMeters>829.5999755859375</AltitudeMeters>
            <DistanceMeters>20423.547679762</DistanceMeters>
          </Trackpoint>
          <Trackpoint>
            <Time>2021-08-31T08:56:24.000Z</Time>
            <Position>
              <LatitudeDegrees>41.9877255521714687347412109375</LatitudeDegrees>
              <LongitudeDegrees>2.15584904886782169342041015625</LongitudeDegrees>
            </Position>
            <AltitudeMeters>830.4000244140625</AltitudeMeters>
            <DistanceMeters>20452.304528348</DistanceMeters>
          </Trackpoint>
          <Trackpoint>
            <Time>2021-08-31T08:56:25.000Z</Time>
            <Position>
              <LatitudeDegrees>41.9877748377621173858642578125</LatitudeDegrees>
              <LongitudeDegrees>2.1558670699596405029296875</LongitudeDegrees>
            </Position>
            <AltitudeMeters>831</AltitudeMeters>
            <DistanceMeters>20457.988682948</DistanceMeters>
          </Trackpoint>
          <Trackpoint>
            <Time>2021-08-31T08:56:26.000Z</Time>
            <Position>
              <LatitudeDegrees>41.987816579639911651611328125</LatitudeDegrees>
              <LongitudeDegrees>2.155898250639438629150390625</LongitudeDegrees>
            </Position>
            <AltitudeMeters>831.4000244140625</AltitudeMeters>
            <DistanceMeters>20463.302537391</DistanceMeters>
          </Trackpoint>
          <Trackpoint>
            <Time>2021-08-31T08:56:28.000Z</Time>
            <Position>
              <LatitudeDegrees>41.9878861494362354278564453125</LatitudeDegrees>
              <LongitudeDegrees>2.15598617680370807647705078125</LongitudeDegrees>
            </Position>
            <AltitudeMeters>832.5999755859375</AltitudeMeters>
            <DistanceMeters>20473.926847041</DistanceMeters>
          </Trackpoint>
          <Trackpoint>
            <Time>2021-08-31T08:56:30.000Z</Time>
            <Position>
              <LatitudeDegrees>41.98795999400317668914794921875</LatitudeDegrees>
              <LongitudeDegrees>2.1560583449900150299072265625</LongitudeDegrees>
            </Position>
            <AltitudeMeters>833.5999755859375</AltitudeMeters>
            <DistanceMeters>20484.085376148</DistanceMeters>
          </Trackpoint>
          <Trackpoint>
            <Time>2021-08-31T08:56:32.000Z</Time>
            <Position>
              <LatitudeDegrees>41.98804364539682865142822265625</LatitudeDegrees>
              <LongitudeDegrees>2.15609832666814327239990234375</LongitudeDegrees>
            </Position>
            <AltitudeMeters>834.79998779296875</AltitudeMeters>
            <DistanceMeters>20493.966326836</DistanceMeters>
          </Trackpoint>
          <Trackpoint>
            <Time>2021-08-31T08:56:35.000Z</Time>
            <Position>
              <LatitudeDegrees>41.98818312026560306549072265625</LatitudeDegrees>
              <LongitudeDegrees>2.15615649707615375518798828125</LongitudeDegrees>
            </Position>
            <AltitudeMeters>836.4000244140625</AltitudeMeters>
            <DistanceMeters>20510.218951121</DistanceMeters>
          </Trackpoint>
          <Trackpoint>
            <Time>2021-08-31T08:56:37.000Z</Time>
            <Position>
              <LatitudeDegrees>41.98828135617077350616455078125</LatitudeDegrees>
              <LongitudeDegrees>2.156218104064464569091796875</LongitudeDegrees>
            </Position>
            <AltitudeMeters>837.4000244140625</AltitudeMeters>
            <DistanceMeters>20522.282479294</DistanceMeters>
          </Trackpoint>
          <Trackpoint>
            <Time>2021-08-31T08:56:38.000Z</Time>
            <Position>
              <LatitudeDegrees>41.988324858248233795166015625</LatitudeDegrees>
              <LongitudeDegrees>2.1562544815242290496826171875</LongitudeDegrees>
            </Position>
            <AltitudeMeters>837.79998779296875</AltitudeMeters>
            <DistanceMeters>20527.984082156</DistanceMeters>
          </Trackpoint>
          <Trackpoint>
            <Time>2021-08-31T08:56:40.000Z</Time>
            <Position>
              <LatitudeDegrees>41.9884044863283634185791015625</LatitudeDegrees>
              <LongitudeDegrees>2.15634928084909915924072265625</LongitudeDegrees>
            </Position>
            <AltitudeMeters>838.79998779296875</AltitudeMeters>
            <DistanceMeters>20539.818628435</DistanceMeters>
          </Trackpoint>
          <Trackpoint>
            <Time>2021-08-31T08:56:41.000Z</Time>
            <Position>
              <LatitudeDegrees>41.9884433783590793609619140625</LatitudeDegrees>
              <LongitudeDegrees>2.15640124864876270294189453125</LongitudeDegrees>
            </Position>
            <AltitudeMeters>839.20001220703125</AltitudeMeters>
            <DistanceMeters>20545.919609922</DistanceMeters>
          </Trackpoint>
          <Trackpoint>
            <Time>2021-08-31T08:56:48.000Z</Time>
            <Position>
              <LatitudeDegrees>41.9887233339250087738037109375</LatitudeDegrees>
              <LongitudeDegrees>2.15673250146210193634033203125</LongitudeDegrees>
            </Position>
            <AltitudeMeters>838.20001220703125</AltitudeMeters>
            <DistanceMeters>20587.415394367</DistanceMeters>
          </Trackpoint>
          <Trackpoint>
            <Time>2021-08-31T08:56:52.000Z</Time>
            <Position>
              <LatitudeDegrees>41.988865993916988372802734375</LatitudeDegrees>
              <LongitudeDegrees>2.15692277066409587860107421875</LongitudeDegrees>
            </Position>
            <AltitudeMeters>835.79998779296875</AltitudeMeters>
            <DistanceMeters>20609.773748552</DistanceMeters>
          </Trackpoint>
          <Trackpoint>
            <Time>2021-08-31T08:56:54.000Z</Time>
            <Position>
              <LatitudeDegrees>41.98895811103284358978271484375</LatitudeDegrees>
              <LongitudeDegrees>2.15700876899063587188720703125</LongitudeDegrees>
            </Position>
            <AltitudeMeters>834.20001220703125</AltitudeMeters>
            <DistanceMeters>20622.253039332</DistanceMeters>
          </Trackpoint>
          <Trackpoint>
            <Time>2021-08-31T08:56:59.000Z</Time>
            <Position>
              <LatitudeDegrees>41.9892289303243160247802734375</LatitudeDegrees>
              <LongitudeDegrees>2.15719954110682010650634765625</LongitudeDegrees>
            </Position>
            <AltitudeMeters>830.79998779296875</AltitudeMeters>
            <DistanceMeters>20656.27738062</DistanceMeters>
          </Trackpoint>
          <Trackpoint>
            <Time>2021-08-31T08:57:04.000Z</Time>
            <Position>
              <LatitudeDegrees>41.989474184811115264892578125</LatitudeDegrees>
              <LongitudeDegrees>2.15734706260263919830322265625</LongitudeDegrees>
            </Position>
            <AltitudeMeters>830.5999755859375</AltitudeMeters>
            <DistanceMeters>20686.178650307</DistanceMeters>
          </Trackpoint>
          <Trackpoint>
            <Time>2021-08-31T08:57:10.000Z</Time>
            <Position>
              <LatitudeDegrees>41.98976822197437286376953125</LatitudeDegrees>
              <LongitudeDegrees>2.157445885241031646728515625</LongitudeDegrees>
            </Position>
            <AltitudeMeters>832.20001220703125</AltitudeMeters>
            <DistanceMeters>20719.911393937</DistanceMeters>
          </Trackpoint>
          <Trackpoint>
            <Time>2021-08-31T08:57:16.000Z</Time>
            <Position>
              <LatitudeDegrees>41.99010056443512439727783203125</LatitudeDegrees>
              <LongitudeDegrees>2.15758209116756916046142578125</LongitudeDegrees>
            </Position>
            <AltitudeMeters>835.5999755859375</AltitudeMeters>
            <DistanceMeters>20758.579911339</DistanceMeters>
          </Trackpoint>
          <Trackpoint>
            <Time>2021-08-31T08:57:22.000Z</Time>
            <Position>
              <LatitudeDegrees>41.9904107786715030670166015625</LatitudeDegrees>
              <LongitudeDegrees>2.15770547278225421905517578125</LongitudeDegrees>
            </Position>
            <AltitudeMeters>838.20001220703125</AltitudeMeters>
            <DistanceMeters>20794.584378479</DistanceMeters>
          </Trackpoint>
          <Trackpoint>
            <Time>2021-08-31T08:57:26.000Z</Time>
            <Position>
              <LatitudeDegrees>41.990601718425750732421875</LatitudeDegrees>
              <LongitudeDegrees>2.157762385904788970947265625</LongitudeDegrees>
            </Position>
            <AltitudeMeters>839.5999755859375</AltitudeMeters>
            <DistanceMeters>20816.351512213</DistanceMeters>
          </Trackpoint>
          <Trackpoint>
            <Time>2021-08-31T08:57:28.000Z</Time>
            <Position>
              <LatitudeDegrees>41.9906565360724925994873046875</LatitudeDegrees>
              <LongitudeDegrees>2.15784125961363315582275390625</LongitudeDegrees>
            </Position>
            <AltitudeMeters>840.4000244140625</AltitudeMeters>
            <DistanceMeters>20825.284023364</DistanceMeters>
          </Trackpoint>
          <Trackpoint>
            <Time>2021-08-31T08:57:30.000Z</Time>
            <Position>
              <LatitudeDegrees>41.990649998188018798828125</LatitudeDegrees>
              <LongitudeDegrees>2.15794804506003856658935546875</LongitudeDegrees>
            </Position>
            <AltitudeMeters>840.79998779296875</AltitudeMeters>
            <DistanceMeters>20834.147525215</DistanceMeters>
          </Trackpoint>
          <Trackpoint>
            <Time>2021-08-31T08:57:31.000Z</Time>
            <Position>
              <LatitudeDegrees>41.9906313903629779815673828125</LatitudeDegrees>
              <LongitudeDegrees>2.1580056287348270416259765625</LongitudeDegrees>
            </Position>
            <AltitudeMeters>841.20001220703125</AltitudeMeters>
            <DistanceMeters>20839.341932632</DistanceMeters>
          </Trackpoint>
          <Trackpoint>
            <Time>2021-08-31T08:57:39.000Z</Time>
            <Position>
              <LatitudeDegrees>41.99046559631824493408203125</LatitudeDegrees>
              <LongitudeDegrees>2.15850326232612133026123046875</LongitudeDegrees>
            </Position>
            <AltitudeMeters>842.5999755859375</AltitudeMeters>
            <DistanceMeters>20884.455708903</DistanceMeters>
          </Trackpoint>
          <Trackpoint>
            <Time>2021-08-31T08:57:44.000Z</Time>
            <Position>
              <LatitudeDegrees>41.9903806038200855255126953125</LatitudeDegrees>
              <LongitudeDegrees>2.1588267199695110321044921875</LongitudeDegrees>
            </Position>
            <AltitudeMeters>842.20001220703125</AltitudeMeters>
            <DistanceMeters>20912.83705628</DistanceMeters>
          </Trackpoint>
          <Trackpoint>
            <Time>2021-08-31T08:57:46.000Z</Time>
            <Position>
              <LatitudeDegrees>41.990368366241455078125</LatitudeDegrees>
              <LongitudeDegrees>2.1589682064950466156005859375</LongitudeDegrees>
            </Position>
            <AltitudeMeters>843.5999755859375</AltitudeMeters>
            <DistanceMeters>20924.620368862</DistanceMeters>
          </Trackpoint>
          <Trackpoint>
            <Time>2021-08-31T08:57:52.000Z</Time>
            <Position>
              <LatitudeDegrees>41.990419328212738037109375</LatitudeDegrees>
              <LongitudeDegrees>2.15937196277081966400146484375</LongitudeDegrees>
            </Position>
            <AltitudeMeters>847.20001220703125</AltitudeMeters>
            <DistanceMeters>20958.499624856</DistanceMeters>
          </Trackpoint>
          <Trackpoint>
            <Time>2021-08-31T08:58:01.000Z</Time>
            <Position>
              <LatitudeDegrees>41.99055385775864124298095703125</LatitudeDegrees>
              <LongitudeDegrees>2.15998685918748378753662109375</LongitudeDegrees>
            </Position>
            <AltitudeMeters>850.79998779296875</AltitudeMeters>
            <DistanceMeters>21011.525382962</DistanceMeters>
          </Trackpoint>
          <Trackpoint>
            <Time>2021-08-31T08:58:09.000Z</Time>
            <Position>
              <LatitudeDegrees>41.9906364195048809051513671875</LatitudeDegrees>
              <LongitudeDegrees>2.16054777614772319793701171875</LongitudeDegrees>
            </Position>
            <AltitudeMeters>850.5999755859375</AltitudeMeters>
            <DistanceMeters>21058.828837619</DistanceMeters>
          </Trackpoint>
          <Trackpoint>
            <Time>2021-08-31T08:58:15.000Z</Time>
            <Position>
              <LatitudeDegrees>41.99066483415663242340087890625</LatitudeDegrees>
              <LongitudeDegrees>2.1609828807413578033447265625</LongitudeDegrees>
            </Position>
            <AltitudeMeters>851.5999755859375</AltitudeMeters>
            <DistanceMeters>21094.961738311</DistanceMeters>
          </Trackpoint>
          <Trackpoint>
            <Time>2021-08-31T08:58:16.000Z</Time>
            <Position>
              <LatitudeDegrees>41.9906588830053806304931640625</LatitudeDegrees>
              <LongitudeDegrees>2.161059491336345672607421875</LongitudeDegrees>
            </Position>
            <AltitudeMeters>851.5999755859375</AltitudeMeters>
            <DistanceMeters>21101.334198885</DistanceMeters>
          </Trackpoint>
          <Trackpoint>
            <Time>2021-08-31T08:58:24.000Z</Time>
            <Position>
              <LatitudeDegrees>41.9905494153499603271484375</LatitudeDegrees>
              <LongitudeDegrees>2.16167413629591464996337890625</LongitudeDegrees>
            </Position>
            <AltitudeMeters>848.5999755859375</AltitudeMeters>
            <DistanceMeters>21153.620484309</DistanceMeters>
          </Trackpoint>
          <Trackpoint>
            <Time>2021-08-31T08:58:25.000Z</Time>
            <Position>
              <LatitudeDegrees>41.9905413687229156494140625</LatitudeDegrees>
              <LongitudeDegrees>2.1617523394525051116943359375</LongitudeDegrees>
            </Position>
            <AltitudeMeters>848.4000244140625</AltitudeMeters>
            <DistanceMeters>21160.151108402</DistanceMeters>
          </Trackpoint>
          <Trackpoint>
            <Time>2021-08-31T08:58:27.000Z</Time>
            <Position>
              <LatitudeDegrees>41.99054078198969364166259765625</LatitudeDegrees>
              <LongitudeDegrees>2.16191218234598636627197265625</LongitudeDegrees>
            </Position>
            <AltitudeMeters>848</AltitudeMeters>
            <DistanceMeters>21173.37417046</DistanceMeters>
          </Trackpoint>
          <Trackpoint>
            <Time>2021-08-31T08:58:28.000Z</Time>
            <Position>
              <LatitudeDegrees>41.99055100791156291961669921875</LatitudeDegrees>
              <LongitudeDegrees>2.1619954146444797515869140625</LongitudeDegrees>
            </Position>
            <AltitudeMeters>847.4000244140625</AltitudeMeters>
            <DistanceMeters>21180.353298797</DistanceMeters>
          </Trackpoint>
          <Trackpoint>
            <Time>2021-08-31T08:58:29.000Z</Time>
            <Position>
              <LatitudeDegrees>41.99056886136531829833984375</LatitudeDegrees>
              <LongitudeDegrees>2.16207529418170452117919921875</LongitudeDegrees>
            </Position>
            <AltitudeMeters>847</AltitudeMeters>
            <DistanceMeters>21187.253704081</DistanceMeters>
          </Trackpoint>
          <Trackpoint>
            <Time>2021-08-31T08:58:33.000Z</Time>
            <Position>
              <LatitudeDegrees>41.99066332541406154632568359375</LatitudeDegrees>
              <LongitudeDegrees>2.16240570880472660064697265625</LongitudeDegrees>
            </Position>
            <AltitudeMeters>846.5999755859375</AltitudeMeters>
            <DistanceMeters>21216.539821281</DistanceMeters>
          </Trackpoint>
          <Trackpoint>
            <Time>2021-08-31T08:58:39.000Z</Time>
            <Position>
              <LatitudeDegrees>41.9907678477466106414794921875</LatitudeDegrees>
              <LongitudeDegrees>2.16293376870453357696533203125</LongitudeDegrees>
            </Position>
            <AltitudeMeters>846.5999755859375</AltitudeMeters>
            <DistanceMeters>21261.746477322</DistanceMeters>
          </Trackpoint>
          <Trackpoint>
            <Time>2021-08-31T08:58:40.000Z</Time>
            <Position>
              <LatitudeDegrees>41.99076793156564235687255859375</LatitudeDegrees>
              <LongitudeDegrees>2.16301993466913700103759765625</LongitudeDegrees>
            </Position>
            <AltitudeMeters>846.5999755859375</AltitudeMeters>
            <DistanceMeters>21268.87474781</DistanceMeters>
          </Trackpoint>
          <Trackpoint>
            <Time>2021-08-31T08:58:42.000Z</Time>
            <Position>
              <LatitudeDegrees>41.99074588716030120849609375</LatitudeDegrees>
              <LongitudeDegrees>2.1631893329322338104248046875</LongitudeDegrees>
            </Position>
            <AltitudeMeters>847</AltitudeMeters>
            <DistanceMeters>21283.101487894</DistanceMeters>
          </Trackpoint>
          <Trackpoint>
            <Time>2021-08-31T08:58:43.000Z</Time>
            <Position>
              <LatitudeDegrees>41.9907209090888500213623046875</LatitudeDegrees>
              <LongitudeDegrees>2.1632677875459194183349609375</LongitudeDegrees>
            </Position>
            <AltitudeMeters>847</AltitudeMeters>
            <DistanceMeters>21290.161659419</DistanceMeters>
          </Trackpoint>
          <Trackpoint>
            <Time>2021-08-31T08:58:44.000Z</Time>
            <Position>
              <LatitudeDegrees>41.9906870462000370025634765625</LatitudeDegrees>
              <LongitudeDegrees>2.16334163211286067962646484375</LongitudeDegrees>
            </Position>
            <AltitudeMeters>847</AltitudeMeters>
            <DistanceMeters>21297.339794009</DistanceMeters>
          </Trackpoint>
          <Trackpoint>
            <Time>2021-08-31T08:58:47.000Z</Time>
            <Position>
              <LatitudeDegrees>41.9905552826821804046630859375</LatitudeDegrees>
              <LongitudeDegrees>2.163539193570613861083984375</LongitudeDegrees>
            </Position>
            <AltitudeMeters>847</AltitudeMeters>
            <DistanceMeters>21319.298574075</DistanceMeters>
          </Trackpoint>
          <Trackpoint>
            <Time>2021-08-31T08:58:54.000Z</Time>
            <Position>
              <LatitudeDegrees>41.9902407936751842498779296875</LatitudeDegrees>
              <LongitudeDegrees>2.1639477275311946868896484375</LongitudeDegrees>
            </Position>
            <AltitudeMeters>849</AltitudeMeters>
            <DistanceMeters>21367.954757355</DistanceMeters>
          </Trackpoint>
          <Trackpoint>
            <Time>2021-08-31T08:59:01.000Z</Time>
            <Position>
              <LatitudeDegrees>41.9899708963930606842041015625</LatitudeDegrees>
              <LongitudeDegrees>2.16442356817424297332763671875</LongitudeDegrees>
            </Position>
            <AltitudeMeters>850.5999755859375</AltitudeMeters>
            <DistanceMeters>21417.472247267</DistanceMeters>
          </Trackpoint>
          <Trackpoint>
            <Time>2021-08-31T08:59:08.000Z</Time>
            <Position>
              <LatitudeDegrees>41.98977652005851268768310546875</LatitudeDegrees>
              <LongitudeDegrees>2.16496101580560207366943359375</LongitudeDegrees>
            </Position>
            <AltitudeMeters>850</AltitudeMeters>
            <DistanceMeters>21466.91774329</DistanceMeters>
          </Trackpoint>
          <Trackpoint>
            <Time>2021-08-31T08:59:16.000Z</Time>
            <Position>
              <LatitudeDegrees>41.98961173184216022491455078125</LatitudeDegrees>
              <LongitudeDegrees>2.16556367464363574981689453125</LongitudeDegrees>
            </Position>
            <AltitudeMeters>857</AltitudeMeters>
            <DistanceMeters>21520.040481452</DistanceMeters>
          </Trackpoint>
          <Trackpoint>
            <Time>2021-08-31T08:59:21.000Z</Time>
            <Position>
              <LatitudeDegrees>41.9895112328231334686279296875</LatitudeDegrees>
              <LongitudeDegrees>2.1659033931791782379150390625</LongitudeDegrees>
            </Position>
            <AltitudeMeters>859</AltitudeMeters>
            <DistanceMeters>21550.288545943</DistanceMeters>
          </Trackpoint>
          <Trackpoint>
            <Time>2021-08-31T08:59:28.000Z</Time>
            <Position>
              <LatitudeDegrees>41.98931216262280941009521484375</LatitudeDegrees>
              <LongitudeDegrees>2.1663952432572841644287109375</LongitudeDegrees>
            </Position>
            <AltitudeMeters>856.5999755859375</AltitudeMeters>
            <DistanceMeters>21596.619405006</DistanceMeters>
          </Trackpoint>
          <Trackpoint>
            <Time>2021-08-31T08:59:30.000Z</Time>
            <Position>
              <LatitudeDegrees>41.98922239243984222412109375</LatitudeDegrees>
              <LongitudeDegrees>2.1665072254836559295654296875</LongitudeDegrees>
            </Position>
            <AltitudeMeters>855.5999755859375</AltitudeMeters>
            <DistanceMeters>21610.245056245</DistanceMeters>
          </Trackpoint>
          <Trackpoint>
            <Time>2021-08-31T08:59:32.000Z</Time>
            <Position>
              <LatitudeDegrees>41.98911510407924652099609375</LatitudeDegrees>
              <LongitudeDegrees>2.166599594056606292724609375</LongitudeDegrees>
            </Position>
            <AltitudeMeters>855</AltitudeMeters>
            <DistanceMeters>21624.421882809</DistanceMeters>
          </Trackpoint>
          <Trackpoint>
            <Time>2021-08-31T08:59:38.000Z</Time>
            <Position>
              <LatitudeDegrees>41.9887967593967914581298828125</LatitudeDegrees>
              <LongitudeDegrees>2.16688432730734348297119140625</LongitudeDegrees>
            </Position>
            <AltitudeMeters>852.79998779296875</AltitudeMeters>
            <DistanceMeters>21666.969556953</DistanceMeters>
          </Trackpoint>
          <Trackpoint>
            <Time>2021-08-31T08:59:39.000Z</Time>
            <Position>
              <LatitudeDegrees>41.9887511618435382843017578125</LatitudeDegrees>
              <LongitudeDegrees>2.16694450937211513519287109375</LongitudeDegrees>
            </Position>
            <AltitudeMeters>852.5999755859375</AltitudeMeters>
            <DistanceMeters>21674.079435147</DistanceMeters>
          </Trackpoint>
          <Trackpoint>
            <Time>2021-08-31T08:59:41.000Z</Time>
            <Position>
              <LatitudeDegrees>41.98867061175405979156494140625</LatitudeDegrees>
              <LongitudeDegrees>2.16708046384155750274658203125</LongitudeDegrees>
            </Position>
            <AltitudeMeters>851.5999755859375</AltitudeMeters>
            <DistanceMeters>21688.462725846</DistanceMeters>
          </Trackpoint>
          <Trackpoint>
            <Time>2021-08-31T08:59:42.000Z</Time>
            <Position>
              <LatitudeDegrees>41.98863993398845195770263671875</LatitudeDegrees>
              <LongitudeDegrees>2.1671600081026554107666015625</LongitudeDegrees>
            </Position>
            <AltitudeMeters>851.5999755859375</AltitudeMeters>
            <DistanceMeters>21695.876027758</DistanceMeters>
          </Trackpoint>
          <Trackpoint>
            <Time>2021-08-31T08:59:48.000Z</Time>
            <Position>
              <LatitudeDegrees>41.988501213490962982177734375</LatitudeDegrees>
              <LongitudeDegrees>2.1676773391664028167724609375</LongitudeDegrees>
            </Position>
            <AltitudeMeters>852.5999755859375</AltitudeMeters>
            <DistanceMeters>21741.373881818</DistanceMeters>
          </Trackpoint>
          <Trackpoint>
            <Time>2021-08-31T08:59:50.000Z</Time>
            <Position>
              <LatitudeDegrees>41.9884433783590793609619140625</LatitudeDegrees>
              <LongitudeDegrees>2.16785981319844722747802734375</LongitudeDegrees>
            </Position>
            <AltitudeMeters>852.20001220703125</AltitudeMeters>
            <DistanceMeters>21757.78464048</DistanceMeters>
          </Trackpoint>
          <Trackpoint>
            <Time>2021-08-31T08:59:52.000Z</Time>
            <Position>
              <LatitudeDegrees>41.98835645802319049835205078125</LatitudeDegrees>
              <LongitudeDegrees>2.1680394373834133148193359375</LongitudeDegrees>
            </Position>
            <AltitudeMeters>850.79998779296875</AltitudeMeters>
            <DistanceMeters>21775.51648279</DistanceMeters>
          </Trackpoint>
          <Trackpoint>
            <Time>2021-08-31T08:59:57.000Z</Time>
            <Position>
              <LatitudeDegrees>41.988065354526042938232421875</LatitudeDegrees>
              <LongitudeDegrees>2.168514020740985870361328125</LongitudeDegrees>
            </Position>
            <AltitudeMeters>845.5999755859375</AltitudeMeters>
            <DistanceMeters>21826.421008486</DistanceMeters>
          </Trackpoint>
          <Trackpoint>
            <Time>2021-08-31T09:00:04.000Z</Time>
            <Position>
              <LatitudeDegrees>41.9876675494015216827392578125</LatitudeDegrees>
              <LongitudeDegrees>2.1691528894007205963134765625</LongitudeDegrees>
            </Position>
            <AltitudeMeters>846.20001220703125</AltitudeMeters>
            <DistanceMeters>21895.369291161</DistanceMeters>
          </Trackpoint>
          <Trackpoint>
            <Time>2021-08-31T09:00:05.000Z</Time>
            <Position>
              <LatitudeDegrees>41.9876199401915073394775390625</LatitudeDegrees>
              <LongitudeDegrees>2.1692311763763427734375</LongitudeDegrees>
            </Position>
            <AltitudeMeters>846.4000244140625</AltitudeMeters>
            <DistanceMeters>21903.737039529</DistanceMeters>
          </Trackpoint>
          <Trackpoint>
            <Time>2021-08-31T09:00:08.000Z</Time>
            <Position>
              <LatitudeDegrees>41.98748700320720672607421875</LatitudeDegrees>
              <LongitudeDegrees>2.1694432385265827178955078125</LongitudeDegrees>
            </Position>
            <AltitudeMeters>847</AltitudeMeters>
            <DistanceMeters>21926.687122292</DistanceMeters>
          </Trackpoint>
          <Trackpoint>
            <Time>2021-08-31T09:00:10.000Z</Time>
            <Position>
              <LatitudeDegrees>41.98739404790103435516357421875</LatitudeDegrees>
              <LongitudeDegrees>2.16955664567649364471435546875</LongitudeDegrees>
            </Position>
            <AltitudeMeters>847.5999755859375</AltitudeMeters>
            <DistanceMeters>21940.65378658</DistanceMeters>
          </Trackpoint>
          <Trackpoint>
            <Time>2021-08-31T09:00:15.000Z</Time>
            <Position>
              <LatitudeDegrees>41.98714929632842540740966796875</LatitudeDegrees>
              <LongitudeDegrees>2.169808857142925262451171875</LongitudeDegrees>
            </Position>
            <AltitudeMeters>848</AltitudeMeters>
            <DistanceMeters>21974.967905507</DistanceMeters>
          </Trackpoint>
          <Trackpoint>
            <Time>2021-08-31T09:00:16.000Z</Time>
            <Position>
              <LatitudeDegrees>41.98711878620088100433349609375</LatitudeDegrees>
              <LongitudeDegrees>2.169868536293506622314453125</LongitudeDegrees>
            </Position>
            <AltitudeMeters>848</AltitudeMeters>
            <DistanceMeters>21980.959865449</DistanceMeters>
          </Trackpoint>
          <Trackpoint>
            <Time>2021-08-31T09:00:17.000Z</Time>
            <Position>
              <LatitudeDegrees>41.98711015284061431884765625</LatitudeDegrees>
              <LongitudeDegrees>2.16992695815861225128173828125</LongitudeDegrees>
            </Position>
            <AltitudeMeters>847.79998779296875</AltitudeMeters>
            <DistanceMeters>21985.888445938</DistanceMeters>
          </Trackpoint>
          <Trackpoint>
            <Time>2021-08-31T09:00:19.000Z</Time>
            <Position>
              <LatitudeDegrees>41.98714594356715679168701171875</LatitudeDegrees>
              <LongitudeDegrees>2.17000968754291534423828125</LongitudeDegrees>
            </Position>
            <AltitudeMeters>847.20001220703125</AltitudeMeters>
            <DistanceMeters>21993.807085393</DistanceMeters>
          </Trackpoint>
          <Trackpoint>
            <Time>2021-08-31T09:00:21.000Z</Time>
            <Position>
              <LatitudeDegrees>41.9872249849140644073486328125</LatitudeDegrees>
              <LongitudeDegrees>2.1700289659202098846435546875</LongitudeDegrees>
            </Position>
            <AltitudeMeters>847.20001220703125</AltitudeMeters>
            <DistanceMeters>22002.748185256</DistanceMeters>
          </Trackpoint>
          <Trackpoint>
            <Time>2021-08-31T09:00:22.000Z</Time>
            <Position>
              <LatitudeDegrees>41.98727510869503021240234375</LatitudeDegrees>
              <LongitudeDegrees>2.1700175665318965911865234375</LongitudeDegrees>
            </Position>
            <AltitudeMeters>847.20001220703125</AltitudeMeters>
            <DistanceMeters>22008.406066573</DistanceMeters>
          </Trackpoint>
          <Trackpoint>
            <Time>2021-08-31T09:00:27.000Z</Time>
            <Position>
              <LatitudeDegrees>41.9875830598175525665283203125</LatitudeDegrees>
              <LongitudeDegrees>2.16996140778064727783203125</LongitudeDegrees>
            </Position>
            <AltitudeMeters>845.20001220703125</AltitudeMeters>
            <DistanceMeters>22042.995007407</DistanceMeters>
          </Trackpoint>
          <Trackpoint>
            <Time>2021-08-31T09:00:32.000Z</Time>
            <Position>
              <LatitudeDegrees>41.9879310764372348785400390625</LatitudeDegrees>
              <LongitudeDegrees>2.1698445640504360198974609375</LongitudeDegrees>
            </Position>
            <AltitudeMeters>842.5999755859375</AltitudeMeters>
            <DistanceMeters>22082.917764733</DistanceMeters>
          </Trackpoint>
          <Trackpoint>
            <Time>2021-08-31T09:00:34.000Z</Time>
            <Position>
              <LatitudeDegrees>41.98805370368063449859619140625</LatitudeDegrees>
              <LongitudeDegrees>2.16971104033291339874267578125</LongitudeDegrees>
            </Position>
            <AltitudeMeters>842.5999755859375</AltitudeMeters>
            <DistanceMeters>22100.476377149</DistanceMeters>
          </Trackpoint>
          <Trackpoint>
            <Time>2021-08-31T09:00:35.000Z</Time>
            <Position>
              <LatitudeDegrees>41.98810600675642490386962890625</LatitudeDegrees>
              <LongitudeDegrees>2.16962470673024654388427734375</LongitudeDegrees>
            </Position>
            <AltitudeMeters>842.20001220703125</AltitudeMeters>
            <DistanceMeters>22109.690539006</DistanceMeters>
          </Trackpoint>
          <Trackpoint>
            <Time>2021-08-31T09:00:40.000Z</Time>
            <Position>
              <LatitudeDegrees>41.9883954338729381561279296875</LatitudeDegrees>
              <LongitudeDegrees>2.16923913918435573577880859375</LongitudeDegrees>
            </Position>
            <AltitudeMeters>840.5999755859375</AltitudeMeters>
            <DistanceMeters>22155.02465627</DistanceMeters>
          </Trackpoint>
          <Trackpoint>
            <Time>2021-08-31T09:00:41.000Z</Time>
            <Position>
              <LatitudeDegrees>41.98846089653670787811279296875</LatitudeDegrees>
              <LongitudeDegrees>2.169183902442455291748046875</LongitudeDegrees>
            </Position>
            <AltitudeMeters>840.4000244140625</AltitudeMeters>
            <DistanceMeters>22163.624967668</DistanceMeters>
          </Trackpoint>
          <Trackpoint>
            <Time>2021-08-31T09:00:44.000Z</Time>
            <Position>
              <LatitudeDegrees>41.9886663369834423065185546875</LatitudeDegrees>
              <LongitudeDegrees>2.1690662205219268798828125</LongitudeDegrees>
            </Position>
            <AltitudeMeters>840.4000244140625</AltitudeMeters>
            <DistanceMeters>22188.476951663</DistanceMeters>
          </Trackpoint>
          <Trackpoint>
            <Time>2021-08-31T09:00:50.000Z</Time>
            <Position>
              <LatitudeDegrees>41.98904846794903278350830078125</LatitudeDegrees>
              <LongitudeDegrees>2.1687850914895534515380859375</LongitudeDegrees>
            </Position>
            <AltitudeMeters>838.79998779296875</AltitudeMeters>
            <DistanceMeters>22236.952313165</DistanceMeters>
          </Trackpoint>
          <Trackpoint>
            <Time>2021-08-31T09:00:51.000Z</Time>
            <Position>
              <LatitudeDegrees>41.989110745489597320556640625</LatitudeDegrees>
              <LongitudeDegrees>2.16871761716902256011962890625</LongitudeDegrees>
            </Position>
            <AltitudeMeters>838.5999755859375</AltitudeMeters>
            <DistanceMeters>22245.851908688</DistanceMeters>
          </Trackpoint>
          <Trackpoint>
            <Time>2021-08-31T09:00:54.000Z</Time>
            <Position>
              <LatitudeDegrees>41.98927980847656726837158203125</LatitudeDegrees>
              <LongitudeDegrees>2.16845056973397731781005859375</LongitudeDegrees>
            </Position>
            <AltitudeMeters>837.79998779296875</AltitudeMeters>
            <DistanceMeters>22274.871642133</DistanceMeters>
          </Trackpoint>
          <Trackpoint>
            <Time>2021-08-31T09:00:55.000Z</Time>
            <Position>
              <LatitudeDegrees>41.98933663778007030487060546875</LatitudeDegrees>
              <LongitudeDegrees>2.1683609671890735626220703125</LongitudeDegrees>
            </Position>
            <AltitudeMeters>837.79998779296875</AltitudeMeters>
            <DistanceMeters>22284.616398871</DistanceMeters>
          </Trackpoint>
          <Trackpoint>
            <Time>2021-08-31T09:00:57.000Z</Time>
            <Position>
              <LatitudeDegrees>41.9894659705460071563720703125</LatitudeDegrees>
              <LongitudeDegrees>2.16823968105018138885498046875</LongitudeDegrees>
            </Position>
            <AltitudeMeters>837.79998779296875</AltitudeMeters>
            <DistanceMeters>22302.163178815</DistanceMeters>
          </Trackpoint>
          <Trackpoint>
            <Time>2021-08-31T09:00:59.000Z</Time>
            <Position>
              <LatitudeDegrees>41.989616341888904571533203125</LatitudeDegrees>
              <LongitudeDegrees>2.16822392307221889495849609375</LongitudeDegrees>
            </Position>
            <AltitudeMeters>837</AltitudeMeters>
            <DistanceMeters>22318.950394953</DistanceMeters>
          </Trackpoint>
          <Trackpoint>
            <Time>2021-08-31T09:01:00.000Z</Time>
            <Position>
              <LatitudeDegrees>41.98969203047454357147216796875</LatitudeDegrees>
              <LongitudeDegrees>2.16822526417672634124755859375</LongitudeDegrees>
            </Position>
            <AltitudeMeters>836.79998779296875</AltitudeMeters>
            <DistanceMeters>22327.375144258</DistanceMeters>
          </Trackpoint>
          <Trackpoint>
            <Time>2021-08-31T09:01:03.000Z</Time>
            <Position>
              <LatitudeDegrees>41.98991163633763790130615234375</LatitudeDegrees>
              <LongitudeDegrees>2.16819877736270427703857421875</LongitudeDegrees>
            </Position>
            <AltitudeMeters>837</AltitudeMeters>
            <DistanceMeters>22351.915413779</DistanceMeters>
          </Trackpoint>
          <Trackpoint>
            <Time>2021-08-31T09:01:04.000Z</Time>
            <Position>
              <LatitudeDegrees>41.98998489417135715484619140625</LatitudeDegrees>
              <LongitudeDegrees>2.16820565052330493927001953125</LongitudeDegrees>
            </Position>
            <AltitudeMeters>837</AltitudeMeters>
            <DistanceMeters>22360.088816101</DistanceMeters>
          </Trackpoint>
          <Trackpoint>
            <Time>2021-08-31T09:01:09.000Z</Time>
            <Position>
              <LatitudeDegrees>41.9903145544230937957763671875</LatitudeDegrees>
              <LongitudeDegrees>2.16833598911762237548828125</LongitudeDegrees>
            </Position>
            <AltitudeMeters>836.20001220703125</AltitudeMeters>
            <DistanceMeters>22398.332080883</DistanceMeters>
          </Trackpoint>
          <Trackpoint>
            <Time>2021-08-31T09:01:11.000Z</Time>
            <Position>
              <LatitudeDegrees>41.9904305599629878997802734375</LatitudeDegrees>
              <LongitudeDegrees>2.1684333868324756622314453125</LongitudeDegrees>
            </Position>
            <AltitudeMeters>835.20001220703125</AltitudeMeters>
            <DistanceMeters>22413.551195864</DistanceMeters>
          </Trackpoint>
          <Trackpoint>
            <Time>2021-08-31T09:01:13.000Z</Time>
            <Position>
              <LatitudeDegrees>41.99052083306014537811279296875</LatitudeDegrees>
              <LongitudeDegrees>2.168556936085224151611328125</LongitudeDegrees>
            </Position>
            <AltitudeMeters>833.79998779296875</AltitudeMeters>
            <DistanceMeters>22427.88322813</DistanceMeters>
          </Trackpoint>
          <Trackpoint>
            <Time>2021-08-31T09:01:14.000Z</Time>
            <Position>
              <LatitudeDegrees>41.99056693352758884429931640625</LatitudeDegrees>
              <LongitudeDegrees>2.16861368156969547271728515625</LongitudeDegrees>
            </Position>
            <AltitudeMeters>833.20001220703125</AltitudeMeters>
            <DistanceMeters>22434.837729509</DistanceMeters>
          </Trackpoint>
          <Trackpoint>
            <Time>2021-08-31T09:01:16.000Z</Time>
            <Position>
              <LatitudeDegrees>41.99067539535462856292724609375</LatitudeDegrees>
              <LongitudeDegrees>2.1686801500618457794189453125</LongitudeDegrees>
            </Position>
            <AltitudeMeters>832.5999755859375</AltitudeMeters>
            <DistanceMeters>22448.103064019</DistanceMeters>
          </Trackpoint>
          <Trackpoint>
            <Time>2021-08-31T09:01:21.000Z</Time>
            <Position>
              <LatitudeDegrees>41.9909867830574512481689453125</LatitudeDegrees>
              <LongitudeDegrees>2.16869800351560115814208984375</LongitudeDegrees>
            </Position>
            <AltitudeMeters>831.79998779296875</AltitudeMeters>
            <DistanceMeters>22482.792630852</DistanceMeters>
          </Trackpoint>
          <Trackpoint>
            <Time>2021-08-31T09:01:27.000Z</Time>
            <Position>
              <LatitudeDegrees>41.9913461990654468536376953125</LatitudeDegrees>
              <LongitudeDegrees>2.16872147284448146820068359375</LongitudeDegrees>
            </Position>
            <AltitudeMeters>831.4000244140625</AltitudeMeters>
            <DistanceMeters>22522.843431833</DistanceMeters>
          </Trackpoint>
          <Trackpoint>
            <Time>2021-08-31T09:01:31.000Z</Time>
            <Position>
              <LatitudeDegrees>41.99158164672553539276123046875</LatitudeDegrees>
              <LongitudeDegrees>2.16873102821409702301025390625</LongitudeDegrees>
            </Position>
            <AltitudeMeters>829.79998779296875</AltitudeMeters>
            <DistanceMeters>22549.061162835</DistanceMeters>
          </Trackpoint>
          <Trackpoint>
            <Time>2021-08-31T09:01:33.000Z</Time>
            <Position>
              <LatitudeDegrees>41.9917002506554126739501953125</LatitudeDegrees>
              <LongitudeDegrees>2.1687019430100917816162109375</LongitudeDegrees>
            </Position>
            <AltitudeMeters>829.79998779296875</AltitudeMeters>
            <DistanceMeters>22562.479796309</DistanceMeters>
          </Trackpoint>
          <Trackpoint>
            <Time>2021-08-31T09:01:39.000Z</Time>
            <Position>
              <LatitudeDegrees>41.99202102608978748321533203125</LatitudeDegrees>
              <LongitudeDegrees>2.16850035823881626129150390625</LongitudeDegrees>
            </Position>
            <AltitudeMeters>829.5999755859375</AltitudeMeters>
            <DistanceMeters>22601.885302081</DistanceMeters>
          </Trackpoint>
          <Trackpoint>
            <Time>2021-08-31T09:01:42.000Z</Time>
            <Position>
              <LatitudeDegrees>41.992122195661067962646484375</LatitudeDegrees>
              <LongitudeDegrees>2.16841938905417919158935546875</LongitudeDegrees>
            </Position>
            <AltitudeMeters>829.4000244140625</AltitudeMeters>
            <DistanceMeters>22614.987277245</DistanceMeters>
          </Trackpoint>
          <Trackpoint>
            <Time>2021-08-31T09:01:45.000Z</Time>
            <Position>
              <LatitudeDegrees>41.99216050095856189727783203125</LatitudeDegrees>
              <LongitudeDegrees>2.16839474625885486602783203125</LongitudeDegrees>
            </Position>
            <AltitudeMeters>829.4000244140625</AltitudeMeters>
            <DistanceMeters>22619.713841443</DistanceMeters>
          </Trackpoint>
          <Trackpoint>
            <Time>2021-08-31T09:01:47.000Z</Time>
            <Position>
              <LatitudeDegrees>41.9921679608523845672607421875</LatitudeDegrees>
              <LongitudeDegrees>2.1683941595256328582763671875</LongitudeDegrees>
            </Position>
            <AltitudeMeters>829.20001220703125</AltitudeMeters>
            <DistanceMeters>22620.542265133</DistanceMeters>
          </Trackpoint>
          <Trackpoint>
            <Time>2021-08-31T09:01:56.000Z</Time>
            <Position>
              <LatitudeDegrees>41.99218623340129852294921875</LatitudeDegrees>
              <LongitudeDegrees>2.1683663316071033477783203125</LongitudeDegrees>
            </Position>
            <AltitudeMeters>829.4000244140625</AltitudeMeters>
            <DistanceMeters>22623.615611837</DistanceMeters>
          </Trackpoint>
          <Trackpoint>
            <Time>2021-08-31T09:01:58.000Z</Time>
            <Position>
              <LatitudeDegrees>41.9922346808016300201416015625</LatitudeDegrees>
              <LongitudeDegrees>2.16832299716770648956298828125</LongitudeDegrees>
            </Position>
            <AltitudeMeters>829</AltitudeMeters>
            <DistanceMeters>22630.090690595</DistanceMeters>
          </Trackpoint>
          <Trackpoint>
            <Time>2021-08-31T09:02:03.000Z</Time>
            <Position>
              <LatitudeDegrees>41.99239050038158893585205078125</LatitudeDegrees>
              <LongitudeDegrees>2.16820213012397289276123046875</LongitudeDegrees>
            </Position>
            <AltitudeMeters>827.4000244140625</AltitudeMeters>
            <DistanceMeters>22650.109551516</DistanceMeters>
          </Trackpoint>
          <Trackpoint>
            <Time>2021-08-31T09:02:05.000Z</Time>
            <Position>
              <LatitudeDegrees>41.9924311526119709014892578125</LatitudeDegrees>
              <LongitudeDegrees>2.16818712651729583740234375</LongitudeDegrees>
            </Position>
            <AltitudeMeters>826.79998779296875</AltitudeMeters>
            <DistanceMeters>22654.801600788</DistanceMeters>
          </Trackpoint>
          <Trackpoint>
            <Time>2021-08-31T09:02:07.000Z</Time>
            <Position>
              <LatitudeDegrees>41.9924643449485301971435546875</LatitudeDegrees>
              <LongitudeDegrees>2.16820858418941497802734375</LongitudeDegrees>
            </Position>
            <AltitudeMeters>826.20001220703125</AltitudeMeters>
            <DistanceMeters>22658.899886062</DistanceMeters>
          </Trackpoint>
          <Trackpoint>
            <Time>2021-08-31T09:02:10.000Z</Time>
            <Position>
              <LatitudeDegrees>41.9925136305391788482666015625</LatitudeDegrees>
              <LongitudeDegrees>2.16831109486520290374755859375</LongitudeDegrees>
            </Position>
            <AltitudeMeters>825</AltitudeMeters>
            <DistanceMeters>22668.999129273</DistanceMeters>
          </Trackpoint>
          <Trackpoint>
            <Time>2021-08-31T09:02:11.000Z</Time>
            <Position>
              <LatitudeDegrees>41.9925208389759063720703125</LatitudeDegrees>
              <LongitudeDegrees>2.16837127692997455596923828125</LongitudeDegrees>
            </Position>
            <AltitudeMeters>824.5999755859375</AltitudeMeters>
            <DistanceMeters>22674.041816579</DistanceMeters>
          </Trackpoint>
          <Trackpoint>
            <Time>2021-08-31T09:02:12.000Z</Time>
            <Position>
              <LatitudeDegrees>41.992522180080413818359375</LatitudeDegrees>
              <LongitudeDegrees>2.16843732632696628570556640625</LongitudeDegrees>
            </Position>
            <AltitudeMeters>824.4000244140625</AltitudeMeters>
            <DistanceMeters>22679.507298523</DistanceMeters>
          </Trackpoint>
          <Trackpoint>
            <Time>2021-08-31T09:02:14.000Z</Time>
            <Position>
              <LatitudeDegrees>41.99251656420528888702392578125</LatitudeDegrees>
              <LongitudeDegrees>2.16857747174799442291259765625</LongitudeDegrees>
            </Position>
            <AltitudeMeters>824.20001220703125</AltitudeMeters>
            <DistanceMeters>22691.117680995</DistanceMeters>
          </Trackpoint>
          <Trackpoint>
            <Time>2021-08-31T09:02:15.000Z</Time>
            <Position>
              <LatitudeDegrees>41.992524527013301849365234375</LatitudeDegrees>
              <LongitudeDegrees>2.16864922083914279937744140625</LongitudeDegrees>
            </Position>
            <AltitudeMeters>824</AltitudeMeters>
            <DistanceMeters>22697.118676318</DistanceMeters>
          </Trackpoint>
          <Trackpoint>
            <Time>2021-08-31T09:02:16.000Z</Time>
            <Position>
              <LatitudeDegrees>41.992544643580913543701171875</LatitudeDegrees>
              <LongitudeDegrees>2.16872214339673519134521484375</LongitudeDegrees>
            </Position>
            <AltitudeMeters>823.4000244140625</AltitudeMeters>
            <DistanceMeters>22703.553184884</DistanceMeters>
          </Trackpoint>
          <Trackpoint>
            <Time>2021-08-31T09:02:19.000Z</Time>
            <Position>
              <LatitudeDegrees>41.99263324029743671417236328125</LatitudeDegrees>
              <LongitudeDegrees>2.1689701639115810394287109375</LongitudeDegrees>
            </Position>
            <AltitudeMeters>820.20001220703125</AltitudeMeters>
            <DistanceMeters>22726.316794147</DistanceMeters>
          </Trackpoint>
          <Trackpoint>
            <Time>2021-08-31T09:02:23.000Z</Time>
            <Position>
              <LatitudeDegrees>41.99278428219258785247802734375</LatitudeDegrees>
              <LongitudeDegrees>2.16936939395964145660400390625</LongitudeDegrees>
            </Position>
            <AltitudeMeters>815.4000244140625</AltitudeMeters>
            <DistanceMeters>22763.375019762</DistanceMeters>
          </Trackpoint>
          <Trackpoint>
            <Time>2021-08-31T09:02:24.000Z</Time>
            <Position>
              <LatitudeDegrees>41.9928076677024364471435546875</LatitudeDegrees>
              <LongitudeDegrees>2.16948305256664752960205078125</LongitudeDegrees>
            </Position>
            <AltitudeMeters>815</AltitudeMeters>
            <DistanceMeters>22773.130890083</DistanceMeters>
          </Trackpoint>
          <Trackpoint>
            <Time>2021-08-31T09:02:27.000Z</Time>
            <Position>
              <LatitudeDegrees>41.99289425276219844818115234375</LatitudeDegrees>
              <LongitudeDegrees>2.169833667576313018798828125</LongitudeDegrees>
            </Position>
            <AltitudeMeters>814.20001220703125</AltitudeMeters>
            <DistanceMeters>22803.694057911</DistanceMeters>
          </Trackpoint>
          <Trackpoint>
            <Time>2021-08-31T09:02:28.000Z</Time>
            <Position>
              <LatitudeDegrees>41.99294202961027622222900390625</LatitudeDegrees>
              <LongitudeDegrees>2.16993617825210094451904296875</LongitudeDegrees>
            </Position>
            <AltitudeMeters>813.5999755859375</AltitudeMeters>
            <DistanceMeters>22813.703488372</DistanceMeters>
          </Trackpoint>
          <Trackpoint>
            <Time>2021-08-31T09:02:32.000Z</Time>
            <Position>
              <LatitudeDegrees>41.99318678118288516998291015625</LatitudeDegrees>
              <LongitudeDegrees>2.17031386680901050567626953125</LongitudeDegrees>
            </Position>
            <AltitudeMeters>810</AltitudeMeters>
            <DistanceMeters>22855.155182496</DistanceMeters>
          </Trackpoint>
          <Trackpoint>
            <Time>2021-08-31T09:02:38.000Z</Time>
            <Position>
              <LatitudeDegrees>41.99354351498186588287353515625</LatitudeDegrees>
              <LongitudeDegrees>2.17090244404971599578857421875</LongitudeDegrees>
            </Position>
            <AltitudeMeters>805.79998779296875</AltitudeMeters>
            <DistanceMeters>22917.980849813</DistanceMeters>
          </Trackpoint>
          <Trackpoint>
            <Time>2021-08-31T09:02:43.000Z</Time>
            <Position>
              <LatitudeDegrees>41.993891112506389617919921875</LatitudeDegrees>
              <LongitudeDegrees>2.17143771238625049591064453125</LongitudeDegrees>
            </Position>
            <AltitudeMeters>804.4000244140625</AltitudeMeters>
            <DistanceMeters>22976.780045114</DistanceMeters>
          </Trackpoint>
          <Trackpoint>
            <Time>2021-08-31T09:02:44.000Z</Time>
            <Position>
              <LatitudeDegrees>41.993959844112396240234375</LatitudeDegrees>
              <LongitudeDegrees>2.17156696133315563201904296875</LongitudeDegrees>
            </Position>
            <AltitudeMeters>804.4000244140625</AltitudeMeters>
            <DistanceMeters>22989.926742918</DistanceMeters>
          </Trackpoint>
          <Trackpoint>
            <Time>2021-08-31T09:02:47.000Z</Time>
            <Position>
              <LatitudeDegrees>41.99414290487766265869140625</LatitudeDegrees>
              <LongitudeDegrees>2.17193962074816226959228515625</LongitudeDegrees>
            </Position>
            <AltitudeMeters>804</AltitudeMeters>
            <DistanceMeters>23026.878574525</DistanceMeters>
          </Trackpoint>
          <Trackpoint>
            <Time>2021-08-31T09:02:49.000Z</Time>
            <Position>
              <LatitudeDegrees>41.99426385574042797088623046875</LatitudeDegrees>
              <LongitudeDegrees>2.172110863029956817626953125</LongitudeDegrees>
            </Position>
            <AltitudeMeters>803.4000244140625</AltitudeMeters>
            <DistanceMeters>23046.420374156</DistanceMeters>
          </Trackpoint>
          <Trackpoint>
            <Time>2021-08-31T09:02:50.000Z</Time>
            <Position>
              <LatitudeDegrees>41.994329988956451416015625</LatitudeDegrees>
              <LongitudeDegrees>2.17218738980591297149658203125</LongitudeDegrees>
            </Position>
            <AltitudeMeters>802.79998779296875</AltitudeMeters>
            <DistanceMeters>23056.128923889</DistanceMeters>
          </Trackpoint>
          <Trackpoint>
            <Time>2021-08-31T09:02:52.000Z</Time>
            <Position>
              <LatitudeDegrees>41.99447725899517536163330078125</LatitudeDegrees>
              <LongitudeDegrees>2.17238034121692180633544921875</LongitudeDegrees>
            </Position>
            <AltitudeMeters>800.79998779296875</AltitudeMeters>
            <DistanceMeters>23079.007678469</DistanceMeters>
          </Trackpoint>
          <Trackpoint>
            <Time>2021-08-31T09:02:53.000Z</Time>
            <Position>
              <LatitudeDegrees>41.9945460744202136993408203125</LatitudeDegrees>
              <LongitudeDegrees>2.17249349690973758697509765625</LongitudeDegrees>
            </Position>
            <AltitudeMeters>800.20001220703125</AltitudeMeters>
            <DistanceMeters>23091.102604612</DistanceMeters>
          </Trackpoint>
          <Trackpoint>
            <Time>2021-08-31T09:02:56.000Z</Time>
            <Position>
              <LatitudeDegrees>41.9947743974626064300537109375</LatitudeDegrees>
              <LongitudeDegrees>2.17280077748000621795654296875</LongitudeDegrees>
            </Position>
            <AltitudeMeters>798</AltitudeMeters>
            <DistanceMeters>23127.045697781</DistanceMeters>
          </Trackpoint>
          <Trackpoint>
            <Time>2021-08-31T09:02:57.000Z</Time>
            <Position>
              <LatitudeDegrees>41.994863413274288177490234375</LatitudeDegrees>
              <LongitudeDegrees>2.17288367450237274169921875</LongitudeDegrees>
            </Position>
            <AltitudeMeters>797</AltitudeMeters>
            <DistanceMeters>23139.094620513</DistanceMeters>
          </Trackpoint>
          <Trackpoint>
            <Time>2021-08-31T09:02:59.000Z</Time>
            <Position>
              <LatitudeDegrees>41.99503197334706783294677734375</LatitudeDegrees>
              <LongitudeDegrees>2.17304083518683910369873046875</LongitudeDegrees>
            </Position>
            <AltitudeMeters>794.79998779296875</AltitudeMeters>
            <DistanceMeters>23161.919633774</DistanceMeters>
          </Trackpoint>
          <Trackpoint>
            <Time>2021-08-31T09:03:01.000Z</Time>
            <Position>
              <LatitudeDegrees>41.9951767288148403167724609375</LatitudeDegrees>
              <LongitudeDegrees>2.1731792204082012176513671875</LongitudeDegrees>
            </Position>
            <AltitudeMeters>793</AltitudeMeters>
            <DistanceMeters>23181.683591291</DistanceMeters>
          </Trackpoint>
          <Trackpoint>
            <Time>2021-08-31T09:03:03.000Z</Time>
            <Position>
              <LatitudeDegrees>41.995341517031192779541015625</LatitudeDegrees>
              <LongitudeDegrees>2.17325239442288875579833984375</LongitudeDegrees>
            </Position>
            <AltitudeMeters>791.20001220703125</AltitudeMeters>
            <DistanceMeters>23200.998107025</DistanceMeters>
          </Trackpoint>
          <Trackpoint>
            <Time>2021-08-31T09:03:04.000Z</Time>
            <Position>
              <LatitudeDegrees>41.9954399205744266510009765625</LatitudeDegrees>
              <LongitudeDegrees>2.17326094396412372589111328125</LongitudeDegrees>
            </Position>
            <AltitudeMeters>790</AltitudeMeters>
            <DistanceMeters>23211.973589692</DistanceMeters>
          </Trackpoint>
          <Trackpoint>
            <Time>2021-08-31T09:03:05.000Z</Time>
            <Position>
              <LatitudeDegrees>41.995536647737026214599609375</LatitudeDegrees>
              <LongitudeDegrees>2.1732844971120357513427734375</LongitudeDegrees>
            </Position>
            <AltitudeMeters>789.4000244140625</AltitudeMeters>
            <DistanceMeters>23222.914049612</DistanceMeters>
          </Trackpoint>
          <Trackpoint>
            <Time>2021-08-31T09:03:07.000Z</Time>
            <Position>
              <LatitudeDegrees>41.995719373226165771484375</LatitudeDegrees>
              <LongitudeDegrees>2.17338918708264827728271484375</LongitudeDegrees>
            </Position>
            <AltitudeMeters>789.20001220703125</AltitudeMeters>
            <DistanceMeters>23245.018946501</DistanceMeters>
          </Trackpoint>
          <Trackpoint>
            <Time>2021-08-31T09:03:10.000Z</Time>
            <Position>
              <LatitudeDegrees>41.99598248116672039031982421875</LatitudeDegrees>
              <LongitudeDegrees>2.173668555915355682373046875</LongitudeDegrees>
            </Position>
            <AltitudeMeters>788.20001220703125</AltitudeMeters>
            <DistanceMeters>23282.323316897</DistanceMeters>
          </Trackpoint>
          <Trackpoint>
            <Time>2021-08-31T09:03:13.000Z</Time>
            <Position>
              <LatitudeDegrees>41.996266879141330718994140625</LatitudeDegrees>
              <LongitudeDegrees>2.173917330801486968994140625</LongitudeDegrees>
            </Position>
            <AltitudeMeters>782.4000244140625</AltitudeMeters>
            <DistanceMeters>23320.078352549</DistanceMeters>
          </Trackpoint>
          <Trackpoint>
            <Time>2021-08-31T09:03:14.000Z</Time>
            <Position>
              <LatitudeDegrees>41.996345333755016326904296875</LatitudeDegrees>
              <LongitudeDegrees>2.1740026585757732391357421875</LongitudeDegrees>
            </Position>
            <AltitudeMeters>781.79998779296875</AltitudeMeters>
            <DistanceMeters>23331.305991088</DistanceMeters>
          </Trackpoint>
          <Trackpoint>
            <Time>2021-08-31T09:03:15.000Z</Time>
            <Position>
              <LatitudeDegrees>41.99642655439674854278564453125</LatitudeDegrees>
              <LongitudeDegrees>2.1740841306746006011962890625</LongitudeDegrees>
            </Position>
            <AltitudeMeters>781.4000244140625</AltitudeMeters>
            <DistanceMeters>23342.581382268</DistanceMeters>
          </Trackpoint>
          <Trackpoint>
            <Time>2021-08-31T09:03:17.000Z</Time>
            <Position>
              <LatitudeDegrees>41.996630989015102386474609375</LatitudeDegrees>
              <LongitudeDegrees>2.17420005239546298980712890625</LongitudeDegrees>
            </Position>
            <AltitudeMeters>778.20001220703125</AltitudeMeters>
            <DistanceMeters>23367.273338475</DistanceMeters>
          </Trackpoint>
          <Trackpoint>
            <Time>2021-08-31T09:03:21.000Z</Time>
            <Position>
              <LatitudeDegrees>41.99704178608953952789306640625</LatitudeDegrees>
              <LongitudeDegrees>2.17449207790195941925048828125</LongitudeDegrees>
            </Position>
            <AltitudeMeters>771.20001220703125</AltitudeMeters>
            <DistanceMeters>23418.984463168</DistanceMeters>
          </Trackpoint>
          <Trackpoint>
            <Time>2021-08-31T09:03:25.000Z</Time>
            <Position>
              <LatitudeDegrees>41.997353173792362213134765625</LatitudeDegrees>
              <LongitudeDegrees>2.17485643923282623291015625</LongitudeDegrees>
            </Position>
            <AltitudeMeters>768.20001220703125</AltitudeMeters>
            <DistanceMeters>23464.914227465</DistanceMeters>
          </Trackpoint>
          <Trackpoint>
            <Time>2021-08-31T09:03:27.000Z</Time>
            <Position>
              <LatitudeDegrees>41.99747798033058643341064453125</LatitudeDegrees>
              <LongitudeDegrees>2.1750825829803943634033203125</LongitudeDegrees>
            </Position>
            <AltitudeMeters>768.5999755859375</AltitudeMeters>
            <DistanceMeters>23488.213801187</DistanceMeters>
          </Trackpoint>
          <Trackpoint>
            <Time>2021-08-31T09:03:28.000Z</Time>
            <Position>
              <LatitudeDegrees>41.99756096117198467254638671875</LatitudeDegrees>
              <LongitudeDegrees>2.1751841716468334197998046875</LongitudeDegrees>
            </Position>
            <AltitudeMeters>768</AltitudeMeters>
            <DistanceMeters>23500.700325919</DistanceMeters>
          </Trackpoint>
          <Trackpoint>
            <Time>2021-08-31T09:03:31.000Z</Time>
            <Position>
              <LatitudeDegrees>41.99780403636395931243896484375</LatitudeDegrees>
              <LongitudeDegrees>2.17543202452361583709716796875</LongitudeDegrees>
            </Position>
            <AltitudeMeters>761</AltitudeMeters>
            <DistanceMeters>23534.64548573</DistanceMeters>
          </Trackpoint>
          <Trackpoint>
            <Time>2021-08-31T09:03:33.000Z</Time>
            <Position>
              <LatitudeDegrees>41.99796815402805805206298828125</LatitudeDegrees>
              <LongitudeDegrees>2.17559404671192169189453125</LongitudeDegrees>
            </Position>
            <AltitudeMeters>753</AltitudeMeters>
            <DistanceMeters>23557.300938607</DistanceMeters>
          </Trackpoint>
          <Trackpoint>
            <Time>2021-08-31T09:03:35.000Z</Time>
            <Position>
              <LatitudeDegrees>41.998087428510189056396484375</LatitudeDegrees>
              <LongitudeDegrees>2.17576797120273113250732421875</LongitudeDegrees>
            </Position>
            <AltitudeMeters>747.20001220703125</AltitudeMeters>
            <DistanceMeters>23576.876672413</DistanceMeters>
          </Trackpoint>
          <Trackpoint>
            <Time>2021-08-31T09:03:38.000Z</Time>
            <Position>
              <LatitudeDegrees>41.998187005519866943359375</LatitudeDegrees>
              <LongitudeDegrees>2.176038958132266998291015625</LongitudeDegrees>
            </Position>
            <AltitudeMeters>744.79998779296875</AltitudeMeters>
            <DistanceMeters>23601.881702368</DistanceMeters>
          </Trackpoint>
          <Trackpoint>
            <Time>2021-08-31T09:03:40.000Z</Time>
            <Position>
              <LatitudeDegrees>41.9982956349849700927734375</LatitudeDegrees>
              <LongitudeDegrees>2.17610777355730533599853515625</LongitudeDegrees>
            </Position>
            <AltitudeMeters>745</AltitudeMeters>
            <DistanceMeters>23615.245039966</DistanceMeters>
          </Trackpoint>
          <Trackpoint>
            <Time>2021-08-31T09:03:43.000Z</Time>
            <Position>
              <LatitudeDegrees>41.99841566383838653564453125</LatitudeDegrees>
              <LongitudeDegrees>2.17610157094895839691162109375</LongitudeDegrees>
            </Position>
            <AltitudeMeters>742.5999755859375</AltitudeMeters>
            <DistanceMeters>23628.614457797</DistanceMeters>
          </Trackpoint>
          <Trackpoint>
            <Time>2021-08-31T09:03:47.000Z</Time>
            <Position>
              <LatitudeDegrees>41.9986015744507312774658203125</LatitudeDegrees>
              <LongitudeDegrees>2.17622562311589717864990234375</LongitudeDegrees>
            </Position>
            <AltitudeMeters>742.79998779296875</AltitudeMeters>
            <DistanceMeters>23651.711228047</DistanceMeters>
          </Trackpoint>
          <Trackpoint>
            <Time>2021-08-31T09:03:52.000Z</Time>
            <Position>
              <LatitudeDegrees>41.99891698546707630157470703125</LatitudeDegrees>
              <LongitudeDegrees>2.1764769963920116424560546875</LongitudeDegrees>
            </Position>
            <AltitudeMeters>742.4000244140625</AltitudeMeters>
            <DistanceMeters>23692.512561027</DistanceMeters>
          </Trackpoint>
          <Trackpoint>
            <Time>2021-08-31T09:03:55.000Z</Time>
            <Position>
              <LatitudeDegrees>41.99915570206940174102783203125</LatitudeDegrees>
              <LongitudeDegrees>2.17670992948114871978759765625</LongitudeDegrees>
            </Position>
            <AltitudeMeters>740.5999755859375</AltitudeMeters>
            <DistanceMeters>23725.332702689</DistanceMeters>
          </Trackpoint>
          <Trackpoint>
            <Time>2021-08-31T09:03:56.000Z</Time>
            <Position>
              <LatitudeDegrees>41.9992463104426860809326171875</LatitudeDegrees>
              <LongitudeDegrees>2.17678151093423366546630859375</LongitudeDegrees>
            </Position>
            <AltitudeMeters>739.4000244140625</AltitudeMeters>
            <DistanceMeters>23737.026781433</DistanceMeters>
          </Trackpoint>
          <Trackpoint>
            <Time>2021-08-31T09:03:59.000Z</Time>
            <Position>
              <LatitudeDegrees>41.9994900561869144439697265625</LatitudeDegrees>
              <LongitudeDegrees>2.17702358029782772064208984375</LongitudeDegrees>
            </Position>
            <AltitudeMeters>734.20001220703125</AltitudeMeters>
            <DistanceMeters>23770.744932546</DistanceMeters>
          </Trackpoint>
          <Trackpoint>
            <Time>2021-08-31T09:04:00.000Z</Time>
            <Position>
              <LatitudeDegrees>41.99954881332814693450927734375</LatitudeDegrees>
              <LongitudeDegrees>2.17712164856493473052978515625</LongitudeDegrees>
            </Position>
            <AltitudeMeters>733.20001220703125</AltitudeMeters>
            <DistanceMeters>23781.164558695</DistanceMeters>
          </Trackpoint>
          <Trackpoint>
            <Time>2021-08-31T09:04:03.000Z</Time>
            <Position>
              <LatitudeDegrees>41.999680660665035247802734375</LatitudeDegrees>
              <LongitudeDegrees>2.177386097609996795654296875</LongitudeDegrees>
            </Position>
            <AltitudeMeters>732.20001220703125</AltitudeMeters>
            <DistanceMeters>23807.504791485</DistanceMeters>
          </Trackpoint>
          <Trackpoint>
            <Time>2021-08-31T09:04:04.000Z</Time>
            <Position>
              <LatitudeDegrees>41.99973438866436481475830078125</LatitudeDegrees>
              <LongitudeDegrees>2.17744284309446811676025390625</LongitudeDegrees>
            </Position>
            <AltitudeMeters>731.79998779296875</AltitudeMeters>
            <DistanceMeters>23815.107522528</DistanceMeters>
          </Trackpoint>
          <Trackpoint>
            <Time>2021-08-31T09:04:05.000Z</Time>
            <Position>
              <LatitudeDegrees>41.9997958280146121978759765625</LatitudeDegrees>
              <LongitudeDegrees>2.17748676426708698272705078125</LongitudeDegrees>
            </Position>
            <AltitudeMeters>731.20001220703125</AltitudeMeters>
            <DistanceMeters>23822.85088792</DistanceMeters>
          </Trackpoint>
          <Trackpoint>
            <Time>2021-08-31T09:04:08.000Z</Time>
            <Position>
              <LatitudeDegrees>41.9999819062650203704833984375</LatitudeDegrees>
              <LongitudeDegrees>2.17760503292083740234375</LongitudeDegrees>
            </Position>
            <AltitudeMeters>718.5999755859375</AltitudeMeters>
            <DistanceMeters>23845.755677403</DistanceMeters>
          </Trackpoint>
          <Trackpoint>
            <Time>2021-08-31T09:04:10.000Z</Time>
            <Position>
              <LatitudeDegrees>42.00005860067903995513916015625</LatitudeDegrees>
              <LongitudeDegrees>2.1777369640767574310302734375</LongitudeDegrees>
            </Position>
            <AltitudeMeters>718</AltitudeMeters>
            <DistanceMeters>23859.610689674</DistanceMeters>
          </Trackpoint>
          <Trackpoint>
            <Time>2021-08-31T09:04:11.000Z</Time>
            <Position>
              <LatitudeDegrees>42.000073604285717010498046875</LatitudeDegrees>
              <LongitudeDegrees>2.1778207831084728240966796875</LongitudeDegrees>
            </Position>
            <AltitudeMeters>718</AltitudeMeters>
            <DistanceMeters>23866.742126453</DistanceMeters>
          </Trackpoint>
          <Trackpoint>
            <Time>2021-08-31T09:04:17.000Z</Time>
            <Position>
              <LatitudeDegrees>42.000166140496730804443359375</LatitudeDegrees>
              <LongitudeDegrees>2.178348004817962646484375</LongitudeDegrees>
            </Position>
            <AltitudeMeters>720.4000244140625</AltitudeMeters>
            <DistanceMeters>23911.550220105</DistanceMeters>
          </Trackpoint>
          <Trackpoint>
            <Time>2021-08-31T09:04:22.000Z</Time>
            <Position>
              <LatitudeDegrees>42.0003577508032321929931640625</LatitudeDegrees>
              <LongitudeDegrees>2.17874027788639068603515625</LongitudeDegrees>
            </Position>
            <AltitudeMeters>718.20001220703125</AltitudeMeters>
            <DistanceMeters>23950.377791396</DistanceMeters>
          </Trackpoint>
          <Trackpoint>
            <Time>2021-08-31T09:04:23.000Z</Time>
            <Position>
              <LatitudeDegrees>42.00039437972009181976318359375</LatitudeDegrees>
              <LongitudeDegrees>2.17880926094949245452880859375</LongitudeDegrees>
            </Position>
            <AltitudeMeters>718.20001220703125</AltitudeMeters>
            <DistanceMeters>23957.390479634</DistanceMeters>
          </Trackpoint>
          <Trackpoint>
            <Time>2021-08-31T09:04:25.000Z</Time>
            <Position>
              <LatitudeDegrees>42.00042463839054107666015625</LatitudeDegrees>
              <LongitudeDegrees>2.17894303612411022186279296875</LongitudeDegrees>
            </Position>
            <AltitudeMeters>718.79998779296875</AltitudeMeters>
            <DistanceMeters>23968.956444896</DistanceMeters>
          </Trackpoint>
          <Trackpoint>
            <Time>2021-08-31T09:04:28.000Z</Time>
            <Position>
              <LatitudeDegrees>42.0004284940659999847412109375</LatitudeDegrees>
              <LongitudeDegrees>2.17918979935348033905029296875</LongitudeDegrees>
            </Position>
            <AltitudeMeters>722.4000244140625</AltitudeMeters>
            <DistanceMeters>23989.371270835</DistanceMeters>
          </Trackpoint>
          <Trackpoint>
            <Time>2021-08-31T09:04:30.000Z</Time>
            <Position>
              <LatitudeDegrees>42.0004707388579845428466796875</LatitudeDegrees>
              <LongitudeDegrees>2.17932642437517642974853515625</LongitudeDegrees>
            </Position>
            <AltitudeMeters>723</AltitudeMeters>
            <DistanceMeters>24001.611287104</DistanceMeters>
          </Trackpoint>
          <Trackpoint>
            <Time>2021-08-31T09:04:31.000Z</Time>
            <Position>
              <LatitudeDegrees>42.0005133189260959625244140625</LatitudeDegrees>
              <LongitudeDegrees>2.1793902106583118438720703125</LongitudeDegrees>
            </Position>
            <AltitudeMeters>721.5999755859375</AltitudeMeters>
            <DistanceMeters>24008.703361962</DistanceMeters>
          </Trackpoint>
          <Trackpoint>
            <Time>2021-08-31T09:04:32.000Z</Time>
            <Position>
              <LatitudeDegrees>42.0005642808973789215087890625</LatitudeDegrees>
              <LongitudeDegrees>2.17946388758718967437744140625</LongitudeDegrees>
            </Position>
            <AltitudeMeters>719.4000244140625</AltitudeMeters>
            <DistanceMeters>24017.028917006</DistanceMeters>
          </Trackpoint>
          <Trackpoint>
            <Time>2021-08-31T09:04:34.000Z</Time>
            <Position>
              <LatitudeDegrees>42.00064198113977909088134765625</LatitudeDegrees>
              <LongitudeDegrees>2.1796084754168987274169921875</LongitudeDegrees>
            </Position>
            <AltitudeMeters>716.79998779296875</AltitudeMeters>
            <DistanceMeters>24031.787761947</DistanceMeters>
          </Trackpoint>
          <Trackpoint>
            <Time>2021-08-31T09:04:36.000Z</Time>
            <Position>
              <LatitudeDegrees>42.00071406550705432891845703125</LatitudeDegrees>
              <LongitudeDegrees>2.179803438484668731689453125</LongitudeDegrees>
            </Position>
            <AltitudeMeters>715.79998779296875</AltitudeMeters>
            <DistanceMeters>24049.799272886</DistanceMeters>
          </Trackpoint>
          <Trackpoint>
            <Time>2021-08-31T09:04:37.000Z</Time>
            <Position>
              <LatitudeDegrees>42.00073619373142719268798828125</LatitudeDegrees>
              <LongitudeDegrees>2.17991508543491363525390625</LongitudeDegrees>
            </Position>
            <AltitudeMeters>717</AltitudeMeters>
            <DistanceMeters>24059.356900903</DistanceMeters>
          </Trackpoint>
          <Trackpoint>
            <Time>2021-08-31T09:04:39.000Z</Time>
            <Position>
              <LatitudeDegrees>42.000766955316066741943359375</LatitudeDegrees>
              <LongitudeDegrees>2.180146090686321258544921875</LongitudeDegrees>
            </Position>
            <AltitudeMeters>719.79998779296875</AltitudeMeters>
            <DistanceMeters>24078.768418872</DistanceMeters>
          </Trackpoint>
          <Trackpoint>
            <Time>2021-08-31T09:04:40.000Z</Time>
            <Position>
              <LatitudeDegrees>42.0007808692753314971923828125</LatitudeDegrees>
              <LongitudeDegrees>2.18025916256010532379150390625</LongitudeDegrees>
            </Position>
            <AltitudeMeters>722</AltitudeMeters>
            <DistanceMeters>24088.248256464</DistanceMeters>
          </Trackpoint>
          <Trackpoint>
            <Time>2021-08-31T09:04:42.000Z</Time>
            <Position>
              <LatitudeDegrees>42.0007972978055477142333984375</LatitudeDegrees>
              <LongitudeDegrees>2.1804617531597614288330078125</LongitudeDegrees>
            </Position>
            <AltitudeMeters>726.5999755859375</AltitudeMeters>
            <DistanceMeters>24105.104452811</DistanceMeters>
          </Trackpoint>
          <Trackpoint>
            <Time>2021-08-31T09:04:43.000Z</Time>
            <Position>
              <LatitudeDegrees>42.00083007104694843292236328125</LatitudeDegrees>
              <LongitudeDegrees>2.180533669888973236083984375</LongitudeDegrees>
            </Position>
            <AltitudeMeters>728.4000244140625</AltitudeMeters>
            <DistanceMeters>24112.081640075</DistanceMeters>
          </Trackpoint>
          <Trackpoint>
            <Time>2021-08-31T09:04:44.000Z</Time>
            <Position>
              <LatitudeDegrees>42.00088120065629482269287109375</LatitudeDegrees>
              <LongitudeDegrees>2.18056912533938884735107421875</LongitudeDegrees>
            </Position>
            <AltitudeMeters>729.20001220703125</AltitudeMeters>
            <DistanceMeters>24118.483789478</DistanceMeters>
          </Trackpoint>
          <Trackpoint>
            <Time>2021-08-31T09:04:45.000Z</Time>
            <Position>
              <LatitudeDegrees>42.00093333609402179718017578125</LatitudeDegrees>
              <LongitudeDegrees>2.18056015670299530029296875</LongitudeDegrees>
            </Position>
            <AltitudeMeters>728.79998779296875</AltitudeMeters>
            <DistanceMeters>24124.333144968</DistanceMeters>
          </Trackpoint>
          <Trackpoint>
            <Time>2021-08-31T09:04:46.000Z</Time>
            <Position>
              <LatitudeDegrees>42.00098647736012935638427734375</LatitudeDegrees>
              <LongitudeDegrees>2.180520258843898773193359375</LongitudeDegrees>
            </Position>
            <AltitudeMeters>727.79998779296875</AltitudeMeters>
            <DistanceMeters>24131.10609029</DistanceMeters>
          </Trackpoint>
          <Trackpoint>
            <Time>2021-08-31T09:04:48.000Z</Time>
            <Position>
              <LatitudeDegrees>42.00108856894075870513916015625</LatitudeDegrees>
              <LongitudeDegrees>2.1803812868893146514892578125</LongitudeDegrees>
            </Position>
            <AltitudeMeters>724.79998779296875</AltitudeMeters>
            <DistanceMeters>24147.269572949</DistanceMeters>
          </Trackpoint>
          <Trackpoint>
            <Time>2021-08-31T09:04:51.000Z</Time>
            <Position>
              <LatitudeDegrees>42.001194097101688385009765625</LatitudeDegrees>
              <LongitudeDegrees>2.18009085394442081451416015625</LongitudeDegrees>
            </Position>
            <AltitudeMeters>715.79998779296875</AltitudeMeters>
            <DistanceMeters>24174.009421733</DistanceMeters>
          </Trackpoint>
          <Trackpoint>
            <Time>2021-08-31T09:04:53.000Z</Time>
            <Position>
              <LatitudeDegrees>42.00130398385226726531982421875</LatitudeDegrees>
              <LongitudeDegrees>2.17994484119117259979248046875</LongitudeDegrees>
            </Position>
            <AltitudeMeters>711.4000244140625</AltitudeMeters>
            <DistanceMeters>24191.197440262</DistanceMeters>
          </Trackpoint>
          <Trackpoint>
            <Time>2021-08-31T09:04:54.000Z</Time>
            <Position>
              <LatitudeDegrees>42.001369111239910125732421875</LatitudeDegrees>
              <LongitudeDegrees>2.17990611679852008819580078125</LongitudeDegrees>
            </Position>
            <AltitudeMeters>710.4000244140625</AltitudeMeters>
            <DistanceMeters>24199.122349199</DistanceMeters>
          </Trackpoint>
          <Trackpoint>
            <Time>2021-08-31T09:04:55.000Z</Time>
            <Position>
              <LatitudeDegrees>42.00143960304558277130126953125</LatitudeDegrees>
              <LongitudeDegrees>2.1798847429454326629638671875</LongitudeDegrees>
            </Position>
            <AltitudeMeters>710.20001220703125</AltitudeMeters>
            <DistanceMeters>24207.164888448</DistanceMeters>
          </Trackpoint>
          <Trackpoint>
            <Time>2021-08-31T09:04:57.000Z</Time>
            <Position>
              <LatitudeDegrees>42.001582346856594085693359375</LatitudeDegrees>
              <LongitudeDegrees>2.17989203520119190216064453125</LongitudeDegrees>
            </Position>
            <AltitudeMeters>709.4000244140625</AltitudeMeters>
            <DistanceMeters>24223.06419535</DistanceMeters>
          </Trackpoint>
          <Trackpoint>
            <Time>2021-08-31T09:05:01.000Z</Time>
            <Position>
              <LatitudeDegrees>42.00187529437243938446044921875</LatitudeDegrees>
              <LongitudeDegrees>2.17998038046061992645263671875</LongitudeDegrees>
            </Position>
            <AltitudeMeters>704.20001220703125</AltitudeMeters>
            <DistanceMeters>24256.47875553</DistanceMeters>
          </Trackpoint>
          <Trackpoint>
            <Time>2021-08-31T09:05:02.000Z</Time>
            <Position>
              <LatitudeDegrees>42.0019493065774440765380859375</LatitudeDegrees>
              <LongitudeDegrees>2.1800262294709682464599609375</LongitudeDegrees>
            </Position>
            <AltitudeMeters>703</AltitudeMeters>
            <DistanceMeters>24265.547710059</DistanceMeters>
          </Trackpoint>
          <Trackpoint>
            <Time>2021-08-31T09:05:04.000Z</Time>
            <Position>
              <LatitudeDegrees>42.00210101902484893798828125</LatitudeDegrees>
              <LongitudeDegrees>2.1801479347050189971923828125</LongitudeDegrees>
            </Position>
            <AltitudeMeters>701.20001220703125</AltitudeMeters>
            <DistanceMeters>24285.206530259</DistanceMeters>
          </Trackpoint>
          <Trackpoint>
            <Time>2021-08-31T09:05:05.000Z</Time>
            <Position>
              <LatitudeDegrees>42.0021853409707546234130859375</LatitudeDegrees>
              <LongitudeDegrees>2.180222533643245697021484375</LongitudeDegrees>
            </Position>
            <AltitudeMeters>700.5999755859375</AltitudeMeters>
            <DistanceMeters>24296.438189438</DistanceMeters>
          </Trackpoint>
          <Trackpoint>
            <Time>2021-08-31T09:05:09.000Z</Time>
            <Position>
              <LatitudeDegrees>42.0024911127984523773193359375</LatitudeDegrees>
              <LongitudeDegrees>2.18047625385224819183349609375</LongitudeDegrees>
            </Position>
            <AltitudeMeters>698.20001220703125</AltitudeMeters>
            <DistanceMeters>24336.421067688</DistanceMeters>
          </Trackpoint>
          <Trackpoint>
            <Time>2021-08-31T09:05:11.000Z</Time>
            <Position>
              <LatitudeDegrees>42.00262228958308696746826171875</LatitudeDegrees>
              <LongitudeDegrees>2.1806062571704387664794921875</LongitudeDegrees>
            </Position>
            <AltitudeMeters>698.20001220703125</AltitudeMeters>
            <DistanceMeters>24354.553499498</DistanceMeters>
          </Trackpoint>
          <Trackpoint>
            <Time>2021-08-31T09:05:12.000Z</Time>
            <Position>
              <LatitudeDegrees>42.0026952959597110748291015625</LatitudeDegrees>
              <LongitudeDegrees>2.180641628801822662353515625</LongitudeDegrees>
            </Position>
            <AltitudeMeters>698.20001220703125</AltitudeMeters>
            <DistanceMeters>24363.18943612</DistanceMeters>
          </Trackpoint>
          <Trackpoint>
            <Time>2021-08-31T09:05:13.000Z</Time>
            <Position>
              <LatitudeDegrees>42.00277886353433132171630859375</LatitudeDegrees>
              <LongitudeDegrees>2.1806528605520725250244140625</LongitudeDegrees>
            </Position>
            <AltitudeMeters>697.5999755859375</AltitudeMeters>
            <DistanceMeters>24372.536896721</DistanceMeters>
          </Trackpoint>
          <Trackpoint>
            <Time>2021-08-31T09:05:15.000Z</Time>
            <Position>
              <LatitudeDegrees>42.00295488350093364715576171875</LatitudeDegrees>
              <LongitudeDegrees>2.18065830878913402557373046875</LongitudeDegrees>
            </Position>
            <AltitudeMeters>696.4000244140625</AltitudeMeters>
            <DistanceMeters>24392.13360795</DistanceMeters>
          </Trackpoint>
          <Trackpoint>
            <Time>2021-08-31T09:05:19.000Z</Time>
            <Position>
              <LatitudeDegrees>42.0033769123256206512451171875</LatitudeDegrees>
              <LongitudeDegrees>2.18076811172068119049072265625</LongitudeDegrees>
            </Position>
            <AltitudeMeters>692.5999755859375</AltitudeMeters>
            <DistanceMeters>24439.97613774</DistanceMeters>
          </Trackpoint>
          <Trackpoint>
            <Time>2021-08-31T09:05:22.000Z</Time>
            <Position>
              <LatitudeDegrees>42.00365846045315265655517578125</LatitudeDegrees>
              <LongitudeDegrees>2.1808419562876224517822265625</LongitudeDegrees>
            </Position>
            <AltitudeMeters>689.4000244140625</AltitudeMeters>
            <DistanceMeters>24471.902709728</DistanceMeters>
          </Trackpoint>
          <Trackpoint>
            <Time>2021-08-31T09:05:23.000Z</Time>
            <Position>
              <LatitudeDegrees>42.00373406521975994110107421875</LatitudeDegrees>
              <LongitudeDegrees>2.1808691136538982391357421875</LongitudeDegrees>
            </Position>
            <AltitudeMeters>688.5999755859375</AltitudeMeters>
            <DistanceMeters>24480.612051961</DistanceMeters>
          </Trackpoint>
          <Trackpoint>
            <Time>2021-08-31T09:05:25.000Z</Time>
            <Position>
              <LatitudeDegrees>42.00387873686850070953369140625</LatitudeDegrees>
              <LongitudeDegrees>2.18097179196774959564208984375</LongitudeDegrees>
            </Position>
            <AltitudeMeters>688.4000244140625</AltitudeMeters>
            <DistanceMeters>24498.816303537</DistanceMeters>
          </Trackpoint>
          <Trackpoint>
            <Time>2021-08-31T09:05:29.000Z</Time>
            <Position>
              <LatitudeDegrees>42.0041591115295886993408203125</LatitudeDegrees>
              <LongitudeDegrees>2.18130254186689853668212890625</LongitudeDegrees>
            </Position>
            <AltitudeMeters>688.5999755859375</AltitudeMeters>
            <DistanceMeters>24540.315352068</DistanceMeters>
          </Trackpoint>
          <Trackpoint>
            <Time>2021-08-31T09:05:30.000Z</Time>
            <Position>
              <LatitudeDegrees>42.0042234845459461212158203125</LatitudeDegrees>
              <LongitudeDegrees>2.18139926902949810028076171875</LongitudeDegrees>
            </Position>
            <AltitudeMeters>688</AltitudeMeters>
            <DistanceMeters>24551.054632134</DistanceMeters>
          </Trackpoint>
          <Trackpoint>
            <Time>2021-08-31T09:05:32.000Z</Time>
            <Position>
              <LatitudeDegrees>42.0043277554214000701904296875</LatitudeDegrees>
              <LongitudeDegrees>2.18160060234367847442626953125</LongitudeDegrees>
            </Position>
            <AltitudeMeters>687</AltitudeMeters>
            <DistanceMeters>24571.351679888</DistanceMeters>
          </Trackpoint>
          <Trackpoint>
            <Time>2021-08-31T09:05:35.000Z</Time>
            <Position>
              <LatitudeDegrees>42.0045399852097034454345703125</LatitudeDegrees>
              <LongitudeDegrees>2.18182624317705631256103515625</LongitudeDegrees>
            </Position>
            <AltitudeMeters>686.4000244140625</AltitudeMeters>
            <DistanceMeters>24601.455957026</DistanceMeters>
          </Trackpoint>
          <Trackpoint>
            <Time>2021-08-31T09:05:39.000Z</Time>
            <Position>
              <LatitudeDegrees>42.0048455893993377685546875</LatitudeDegrees>
              <LongitudeDegrees>2.18196068890392780303955078125</LongitudeDegrees>
            </Position>
            <AltitudeMeters>687.4000244140625</AltitudeMeters>
            <DistanceMeters>24637.24181151</DistanceMeters>
          </Trackpoint>
          <Trackpoint>
            <Time>2021-08-31T09:05:42.000Z</Time>
            <Position>
              <LatitudeDegrees>42.005085311830043792724609375</LatitudeDegrees>
              <LongitudeDegrees>2.18198600225150585174560546875</LongitudeDegrees>
            </Position>
            <AltitudeMeters>685.4000244140625</AltitudeMeters>
            <DistanceMeters>24664.005288931</DistanceMeters>
          </Trackpoint>
          <Trackpoint>
            <Time>2021-08-31T09:05:43.000Z</Time>
            <Position>
              <LatitudeDegrees>42.0051594078540802001953125</LatitudeDegrees>
              <LongitudeDegrees>2.18197711743414402008056640625</LongitudeDegrees>
            </Position>
            <AltitudeMeters>684.4000244140625</AltitudeMeters>
            <DistanceMeters>24672.285164556</DistanceMeters>
          </Trackpoint>
          <Trackpoint>
            <Time>2021-08-31T09:05:44.000Z</Time>
            <Position>
              <LatitudeDegrees>42.00523786246776580810546875</LatitudeDegrees>
              <LongitudeDegrees>2.18195222318172454833984375</LongitudeDegrees>
            </Position>
            <AltitudeMeters>683.4000244140625</AltitudeMeters>
            <DistanceMeters>24681.256511799</DistanceMeters>
          </Trackpoint>
          <Trackpoint>
            <Time>2021-08-31T09:05:46.000Z</Time>
            <Position>
              <LatitudeDegrees>42.00541949830949306488037109375</LatitudeDegrees>
              <LongitudeDegrees>2.1818514727056026458740234375</LongitudeDegrees>
            </Position>
            <AltitudeMeters>679</AltitudeMeters>
            <DistanceMeters>24703.122982655</DistanceMeters>
          </Trackpoint>
          <Trackpoint>
            <Time>2021-08-31T09:05:50.000Z</Time>
            <Position>
              <LatitudeDegrees>42.0058214105665683746337890625</LatitudeDegrees>
              <LongitudeDegrees>2.18156288377940654754638671875</LongitudeDegrees>
            </Position>
            <AltitudeMeters>674.79998779296875</AltitudeMeters>
            <DistanceMeters>24753.825946306</DistanceMeters>
          </Trackpoint>
          <Trackpoint>
            <Time>2021-08-31T09:05:52.000Z</Time>
            <Position>
              <LatitudeDegrees>42.00601167976856231689453125</LatitudeDegrees>
              <LongitudeDegrees>2.1814850158989429473876953125</LongitudeDegrees>
            </Position>
            <AltitudeMeters>674</AltitudeMeters>
            <DistanceMeters>24775.960848332</DistanceMeters>
          </Trackpoint>
          <Trackpoint>
            <Time>2021-08-31T09:05:53.000Z</Time>
            <Position>
              <LatitudeDegrees>42.00610564090311527252197265625</LatitudeDegrees>
              <LongitudeDegrees>2.181477807462215423583984375</LongitudeDegrees>
            </Position>
            <AltitudeMeters>673</AltitudeMeters>
            <DistanceMeters>24786.435361628</DistanceMeters>
          </Trackpoint>
          <Trackpoint>
            <Time>2021-08-31T09:05:57.000Z</Time>
            <Position>
              <LatitudeDegrees>42.0063732750713825225830078125</LatitudeDegrees>
              <LongitudeDegrees>2.181454338133335113525390625</LongitudeDegrees>
            </Position>
            <AltitudeMeters>671</AltitudeMeters>
            <DistanceMeters>24816.286760316</DistanceMeters>
          </Trackpoint>
          <Trackpoint>
            <Time>2021-08-31T09:06:01.000Z</Time>
            <Position>
              <LatitudeDegrees>42.00657854788005352020263671875</LatitudeDegrees>
              <LongitudeDegrees>2.18145006336271762847900390625</LongitudeDegrees>
            </Position>
            <AltitudeMeters>669.20001220703125</AltitudeMeters>
            <DistanceMeters>24839.136881762</DistanceMeters>
          </Trackpoint>
          <Trackpoint>
            <Time>2021-08-31T09:06:03.000Z</Time>
            <Position>
              <LatitudeDegrees>42.00667041353881359100341796875</LatitudeDegrees>
              <LongitudeDegrees>2.1814591996371746063232421875</LongitudeDegrees>
            </Position>
            <AltitudeMeters>668.5999755859375</AltitudeMeters>
            <DistanceMeters>24849.389202953</DistanceMeters>
          </Trackpoint>
          <Trackpoint>
            <Time>2021-08-31T09:06:08.000Z</Time>
            <Position>
              <LatitudeDegrees>42.006901167333126068115234375</LatitudeDegrees>
              <LongitudeDegrees>2.1815138496458530426025390625</LongitudeDegrees>
            </Position>
            <AltitudeMeters>665.5999755859375</AltitudeMeters>
            <DistanceMeters>24875.467068222</DistanceMeters>
          </Trackpoint>
          <Trackpoint>
            <Time>2021-08-31T09:06:09.000Z</Time>
            <Position>
              <LatitudeDegrees>42.00694684870541095733642578125</LatitudeDegrees>
              <LongitudeDegrees>2.18151208944618701934814453125</LongitudeDegrees>
            </Position>
            <AltitudeMeters>665</AltitudeMeters>
            <DistanceMeters>24880.552551379</DistanceMeters>
          </Trackpoint>
          <Trackpoint>
            <Time>2021-08-31T09:06:11.000Z</Time>
            <Position>
              <LatitudeDegrees>42.0070310868322849273681640625</LatitudeDegrees>
              <LongitudeDegrees>2.1814709343016147613525390625</LongitudeDegrees>
            </Position>
            <AltitudeMeters>664.4000244140625</AltitudeMeters>
            <DistanceMeters>24890.527188327</DistanceMeters>
          </Trackpoint>
          <Trackpoint>
            <Time>2021-08-31T09:06:12.000Z</Time>
            <Position>
              <LatitudeDegrees>42.00706779956817626953125</LatitudeDegrees>
              <LongitudeDegrees>2.1814312040805816650390625</LongitudeDegrees>
            </Position>
            <AltitudeMeters>664.4000244140625</AltitudeMeters>
            <DistanceMeters>24895.76918438</DistanceMeters>
          </Trackpoint>
          <Trackpoint>
            <Time>2021-08-31T09:06:13.000Z</Time>
            <Position>
              <LatitudeDegrees>42.007097639143466949462890625</LatitudeDegrees>
              <LongitudeDegrees>2.18138099648058414459228515625</LongitudeDegrees>
            </Position>
            <AltitudeMeters>664.4000244140625</AltitudeMeters>
            <DistanceMeters>24901.085587231</DistanceMeters>
          </Trackpoint>
          <Trackpoint>
            <Time>2021-08-31T09:06:15.000Z</Time>
            <Position>
              <LatitudeDegrees>42.0071145705878734588623046875</LatitudeDegrees>
              <LongitudeDegrees>2.181253172457218170166015625</LongitudeDegrees>
            </Position>
            <AltitudeMeters>664.5999755859375</AltitudeMeters>
            <DistanceMeters>24911.823605955</DistanceMeters>
          </Trackpoint>
          <Trackpoint>
            <Time>2021-08-31T09:06:17.000Z</Time>
            <Position>
              <LatitudeDegrees>42.007077522575855255126953125</LatitudeDegrees>
              <LongitudeDegrees>2.1811185590922832489013671875</LongitudeDegrees>
            </Position>
            <AltitudeMeters>664.79998779296875</AltitudeMeters>
            <DistanceMeters>24923.696242279</DistanceMeters>
          </Trackpoint>
          <Trackpoint>
            <Time>2021-08-31T09:06:18.000Z</Time>
            <Position>
              <LatitudeDegrees>42.0070387981832027435302734375</LatitudeDegrees>
              <LongitudeDegrees>2.18105158768594264984130859375</LongitudeDegrees>
            </Position>
            <AltitudeMeters>665</AltitudeMeters>
            <DistanceMeters>24930.71472267</DistanceMeters>
          </Trackpoint>
          <Trackpoint>
            <Time>2021-08-31T09:06:22.000Z</Time>
            <Position>
              <LatitudeDegrees>42.00683922506868839263916015625</LatitudeDegrees>
              <LongitudeDegrees>2.1807396970689296722412109375</LongitudeDegrees>
            </Position>
            <AltitudeMeters>662</AltitudeMeters>
            <DistanceMeters>24964.755780082</DistanceMeters>
          </Trackpoint>
          <Trackpoint>
            <Time>2021-08-31T09:06:26.000Z</Time>
            <Position>
              <LatitudeDegrees>42.00649590231478214263916015625</LatitudeDegrees>
              <LongitudeDegrees>2.180320434272289276123046875</LongitudeDegrees>
            </Position>
            <AltitudeMeters>660</AltitudeMeters>
            <DistanceMeters>25016.355723492</DistanceMeters>
          </Trackpoint>
          <Trackpoint>
            <Time>2021-08-31T09:06:30.000Z</Time>
            <Position>
              <LatitudeDegrees>42.00621695257723331451416015625</LatitudeDegrees>
              <LongitudeDegrees>2.17994970269501209259033203125</LongitudeDegrees>
            </Position>
            <AltitudeMeters>652.5999755859375</AltitudeMeters>
            <DistanceMeters>25059.991407156</DistanceMeters>
          </Trackpoint>
          <Trackpoint>
            <Time>2021-08-31T09:06:32.000Z</Time>
            <Position>
              <LatitudeDegrees>42.00604864396154880523681640625</LatitudeDegrees>
              <LongitudeDegrees>2.17985247261822223663330078125</LongitudeDegrees>
            </Position>
            <AltitudeMeters>652.20001220703125</AltitudeMeters>
            <DistanceMeters>25080.377461414</DistanceMeters>
          </Trackpoint>
          <Trackpoint>
            <Time>2021-08-31T09:06:33.000Z</Time>
            <Position>
              <LatitudeDegrees>42.00597102753818035125732421875</LatitudeDegrees>
              <LongitudeDegrees>2.1798150055110454559326171875</LongitudeDegrees>
            </Position>
            <AltitudeMeters>652.5999755859375</AltitudeMeters>
            <DistanceMeters>25089.555290845</DistanceMeters>
          </Trackpoint>
          <Trackpoint>
            <Time>2021-08-31T09:06:34.000Z</Time>
            <Position>
              <LatitudeDegrees>42.005906738340854644775390625</LatitudeDegrees>
              <LongitudeDegrees>2.17976110987365245819091796875</LongitudeDegrees>
            </Position>
            <AltitudeMeters>653.20001220703125</AltitudeMeters>
            <DistanceMeters>25097.985397702</DistanceMeters>
          </Trackpoint>
          <Trackpoint>
            <Time>2021-08-31T09:06:36.000Z</Time>
            <Position>
              <LatitudeDegrees>42.00578662566840648651123046875</LatitudeDegrees>
              <LongitudeDegrees>2.179603278636932373046875</LongitudeDegrees>
            </Position>
            <AltitudeMeters>652.4000244140625</AltitudeMeters>
            <DistanceMeters>25116.670172666</DistanceMeters>
          </Trackpoint>
          <Trackpoint>
            <Time>2021-08-31T09:06:38.000Z</Time>
            <Position>
              <LatitudeDegrees>42.00566240586340427398681640625</LatitudeDegrees>
              <LongitudeDegrees>2.17942583374679088592529296875</LongitudeDegrees>
            </Position>
            <AltitudeMeters>652</AltitudeMeters>
            <DistanceMeters>25136.832862008</DistanceMeters>
          </Trackpoint>
          <Trackpoint>
            <Time>2021-08-31T09:06:39.000Z</Time>
            <Position>
              <LatitudeDegrees>42.00561496429145336151123046875</LatitudeDegrees>
              <LongitudeDegrees>2.17933245934545993804931640625</LongitudeDegrees>
            </Position>
            <AltitudeMeters>651.4000244140625</AltitudeMeters>
            <DistanceMeters>25146.187565147</DistanceMeters>
          </Trackpoint>
          <Trackpoint>
            <Time>2021-08-31T09:06:40.000Z</Time>
            <Position>
              <LatitudeDegrees>42.00558562763035297393798828125</LatitudeDegrees>
              <LongitudeDegrees>2.179232798516750335693359375</LongitudeDegrees>
            </Position>
            <AltitudeMeters>650.20001220703125</AltitudeMeters>
            <DistanceMeters>25155.053104351</DistanceMeters>
          </Trackpoint>
          <Trackpoint>
            <Time>2021-08-31T09:06:42.000Z</Time>
            <Position>
              <LatitudeDegrees>42.00555436313152313232421875</LatitudeDegrees>
              <LongitudeDegrees>2.17899668030440807342529296875</LongitudeDegrees>
            </Position>
            <AltitudeMeters>646.5999755859375</AltitudeMeters>
            <DistanceMeters>25174.889347719</DistanceMeters>
          </Trackpoint>
          <Trackpoint>
            <Time>2021-08-31T09:06:44.000Z</Time>
            <Position>
              <LatitudeDegrees>42.005531899631023406982421875</LatitudeDegrees>
              <LongitudeDegrees>2.1788212470710277557373046875</LongitudeDegrees>
            </Position>
            <AltitudeMeters>644.4000244140625</AltitudeMeters>
            <DistanceMeters>25189.612663077</DistanceMeters>
          </Trackpoint>
          <Trackpoint>
            <Time>2021-08-31T09:06:46.000Z</Time>
            <Position>
              <LatitudeDegrees>42.005525194108486175537109375</LatitudeDegrees>
              <LongitudeDegrees>2.17873902060091495513916015625</LongitudeDegrees>
            </Position>
            <AltitudeMeters>643.20001220703125</AltitudeMeters>
            <DistanceMeters>25196.453926572</DistanceMeters>
          </Trackpoint>
          <Trackpoint>
            <Time>2021-08-31T09:06:47.000Z</Time>
            <Position>
              <LatitudeDegrees>42.00554640032351016998291015625</LatitudeDegrees>
              <LongitudeDegrees>2.17873868532478809356689453125</LongitudeDegrees>
            </Position>
            <AltitudeMeters>642.4000244140625</AltitudeMeters>
            <DistanceMeters>25198.81625323</DistanceMeters>
          </Trackpoint>
          <Trackpoint>
            <Time>2021-08-31T09:06:49.000Z</Time>
            <Position>
              <LatitudeDegrees>42.0055805146694183349609375</LatitudeDegrees>
              <LongitudeDegrees>2.17878813855350017547607421875</LongitudeDegrees>
            </Position>
            <AltitudeMeters>641.79998779296875</AltitudeMeters>
            <DistanceMeters>25204.397808903</DistanceMeters>
          </Trackpoint>
          <Trackpoint>
            <Time>2021-08-31T09:06:50.000Z</Time>
            <Position>
              <LatitudeDegrees>42.0055860467255115509033203125</LatitudeDegrees>
              <LongitudeDegrees>2.17883641831576824188232421875</LongitudeDegrees>
            </Position>
            <AltitudeMeters>642.4000244140625</AltitudeMeters>
            <DistanceMeters>25208.438400223</DistanceMeters>
          </Trackpoint>
          <Trackpoint>
            <Time>2021-08-31T09:06:52.000Z</Time>
            <Position>
              <LatitudeDegrees>42.0055987872183322906494140625</LatitudeDegrees>
              <LongitudeDegrees>2.17895309440791606903076171875</LongitudeDegrees>
            </Position>
            <AltitudeMeters>644</AltitudeMeters>
            <DistanceMeters>25218.191956258</DistanceMeters>
          </Trackpoint>
          <Trackpoint>
            <Time>2021-08-31T09:06:54.000Z</Time>
            <Position>
              <LatitudeDegrees>42.00563172809779644012451171875</LatitudeDegrees>
              <LongitudeDegrees>2.17908452264964580535888671875</LongitudeDegrees>
            </Position>
            <AltitudeMeters>645</AltitudeMeters>
            <DistanceMeters>25229.66384948</DistanceMeters>
          </Trackpoint>
          <Trackpoint>
            <Time>2021-08-31T09:06:56.000Z</Time>
            <Position>
              <LatitudeDegrees>42.0056832768023014068603515625</LatitudeDegrees>
              <LongitudeDegrees>2.17921234667301177978515625</LongitudeDegrees>
            </Position>
            <AltitudeMeters>645.4000244140625</AltitudeMeters>
            <DistanceMeters>25241.692520016</DistanceMeters>
          </Trackpoint>
          <Trackpoint>
            <Time>2021-08-31T09:06:58.000Z</Time>
            <Position>
              <LatitudeDegrees>42.00575142167508602142333984375</LatitudeDegrees>
              <LongitudeDegrees>2.1793375723063945770263671875</LongitudeDegrees>
            </Position>
            <AltitudeMeters>646</AltitudeMeters>
            <DistanceMeters>25254.529922211</DistanceMeters>
          </Trackpoint>
          <Trackpoint>
            <Time>2021-08-31T09:07:01.000Z</Time>
            <Position>
              <LatitudeDegrees>42.0058576203882694244384765625</LatitudeDegrees>
              <LongitudeDegrees>2.1795038692653179168701171875</LongitudeDegrees>
            </Position>
            <AltitudeMeters>646.5999755859375</AltitudeMeters>
            <DistanceMeters>25272.664843884</DistanceMeters>
          </Trackpoint>
          <Trackpoint>
            <Time>2021-08-31T09:07:03.000Z</Time>
            <Position>
              <LatitudeDegrees>42.0059518329799175262451171875</LatitudeDegrees>
              <LongitudeDegrees>2.17958391644060611724853515625</LongitudeDegrees>
            </Position>
            <AltitudeMeters>645.5999755859375</AltitudeMeters>
            <DistanceMeters>25285.066467245</DistanceMeters>
          </Trackpoint>
          <Trackpoint>
            <Time>2021-08-31T09:07:07.000Z</Time>
            <Position>
              <LatitudeDegrees>42.0061761327087879180908203125</LatitudeDegrees>
              <LongitudeDegrees>2.17968617565929889678955078125</LongitudeDegrees>
            </Position>
            <AltitudeMeters>644</AltitudeMeters>
            <DistanceMeters>25311.425206055</DistanceMeters>
          </Trackpoint>
          <Trackpoint>
            <Time>2021-08-31T09:07:08.000Z</Time>
            <Position>
              <LatitudeDegrees>42.00623136945068836212158203125</LatitudeDegrees>
              <LongitudeDegrees>2.179724313318729400634765625</LongitudeDegrees>
            </Position>
            <AltitudeMeters>644.4000244140625</AltitudeMeters>
            <DistanceMeters>25318.335419094</DistanceMeters>
          </Trackpoint>
          <Trackpoint>
            <Time>2021-08-31T09:07:14.000Z</Time>
            <Position>
              <LatitudeDegrees>42.00652490369975566864013671875</LatitudeDegrees>
              <LongitudeDegrees>2.18001055531203746795654296875</LongitudeDegrees>
            </Position>
            <AltitudeMeters>648.4000244140625</AltitudeMeters>
            <DistanceMeters>25358.681841741</DistanceMeters>
          </Trackpoint>
          <Trackpoint>
            <Time>2021-08-31T09:07:15.000Z</Time>
            <Position>
              <LatitudeDegrees>42.00657318346202373504638671875</LatitudeDegrees>
              <LongitudeDegrees>2.18006202019751071929931640625</LongitudeDegrees>
            </Position>
            <AltitudeMeters>648.4000244140625</AltitudeMeters>
            <DistanceMeters>25365.537609232</DistanceMeters>
          </Trackpoint>
          <Trackpoint>
            <Time>2021-08-31T09:07:19.000Z</Time>
            <Position>
              <LatitudeDegrees>42.0067687332630157470703125</LatitudeDegrees>
              <LongitudeDegrees>2.180239297449588775634765625</LongitudeDegrees>
            </Position>
            <AltitudeMeters>647.79998779296875</AltitudeMeters>
            <DistanceMeters>25391.78047131</DistanceMeters>
          </Trackpoint>
          <Trackpoint>
            <Time>2021-08-31T09:07:24.000Z</Time>
            <Position>
              <LatitudeDegrees>42.007046677172183990478515625</LatitudeDegrees>
              <LongitudeDegrees>2.18040551058948040008544921875</LongitudeDegrees>
            </Position>
            <AltitudeMeters>645.20001220703125</AltitudeMeters>
            <DistanceMeters>25425.632929734</DistanceMeters>
          </Trackpoint>
          <Trackpoint>
            <Time>2021-08-31T09:07:29.000Z</Time>
            <Position>
              <LatitudeDegrees>42.0073495991528034210205078125</LatitudeDegrees>
              <LongitudeDegrees>2.1806052513420581817626953125</LongitudeDegrees>
            </Position>
            <AltitudeMeters>643.4000244140625</AltitudeMeters>
            <DistanceMeters>25463.178223892</DistanceMeters>
          </Trackpoint>
          <Trackpoint>
            <Time>2021-08-31T09:07:33.000Z</Time>
            <Position>
              <LatitudeDegrees>42.00761404819786548614501953125</LatitudeDegrees>
              <LongitudeDegrees>2.18083064071834087371826171875</LongitudeDegrees>
            </Position>
            <AltitudeMeters>637.4000244140625</AltitudeMeters>
            <DistanceMeters>25498.018055199</DistanceMeters>
          </Trackpoint>
          <Trackpoint>
            <Time>2021-08-31T09:07:34.000Z</Time>
            <Position>
              <LatitudeDegrees>42.00767976231873035430908203125</LatitudeDegrees>
              <LongitudeDegrees>2.18090088106691837310791015625</LongitudeDegrees>
            </Position>
            <AltitudeMeters>635.79998779296875</AltitudeMeters>
            <DistanceMeters>25507.35875103</DistanceMeters>
          </Trackpoint>
          <Trackpoint>
            <Time>2021-08-31T09:07:36.000Z</Time>
            <Position>
              <LatitudeDegrees>42.0077955164015293121337890625</LatitudeDegrees>
              <LongitudeDegrees>2.18107740394771099090576171875</LongitudeDegrees>
            </Position>
            <AltitudeMeters>633.20001220703125</AltitudeMeters>
            <DistanceMeters>25526.829722485</DistanceMeters>
          </Trackpoint>
          <Trackpoint>
            <Time>2021-08-31T09:07:38.000Z</Time>
            <Position>
              <LatitudeDegrees>42.007880844175815582275390625</LatitudeDegrees>
              <LongitudeDegrees>2.181266583502292633056640625</LongitudeDegrees>
            </Position>
            <AltitudeMeters>629.5999755859375</AltitudeMeters>
            <DistanceMeters>25545.13242026</DistanceMeters>
          </Trackpoint>
          <Trackpoint>
            <Time>2021-08-31T09:07:40.000Z</Time>
            <Position>
              <LatitudeDegrees>42.00792384333908557891845703125</LatitudeDegrees>
              <LongitudeDegrees>2.1814447827637195587158203125</LongitudeDegrees>
            </Position>
            <AltitudeMeters>627.20001220703125</AltitudeMeters>
            <DistanceMeters>25560.627894846</DistanceMeters>
          </Trackpoint>
          <Trackpoint>
            <Time>2021-08-31T09:07:42.000Z</Time>
            <Position>
              <LatitudeDegrees>42.00791680254042148590087890625</LatitudeDegrees>
              <LongitudeDegrees>2.181613929569721221923828125</LongitudeDegrees>
            </Position>
            <AltitudeMeters>626</AltitudeMeters>
            <DistanceMeters>25574.638455211</DistanceMeters>
          </Trackpoint>
          <Trackpoint>
            <Time>2021-08-31T09:07:43.000Z</Time>
            <Position>
              <LatitudeDegrees>42.0078880526125431060791015625</LatitudeDegrees>
              <LongitudeDegrees>2.1816881932318210601806640625</LongitudeDegrees>
            </Position>
            <AltitudeMeters>625.4000244140625</AltitudeMeters>
            <DistanceMeters>25581.563679828</DistanceMeters>
          </Trackpoint>
          <Trackpoint>
            <Time>2021-08-31T09:07:44.000Z</Time>
            <Position>
              <LatitudeDegrees>42.00784220360219478607177734375</LatitudeDegrees>
              <LongitudeDegrees>2.1817569248378276824951171875</LongitudeDegrees>
            </Position>
            <AltitudeMeters>625.79998779296875</AltitudeMeters>
            <DistanceMeters>25589.202551078</DistanceMeters>
          </Trackpoint>
          <Trackpoint>
            <Time>2021-08-31T09:07:46.000Z</Time>
            <Position>
              <LatitudeDegrees>42.007725946605205535888671875</LatitudeDegrees>
              <LongitudeDegrees>2.181872427463531494140625</LongitudeDegrees>
            </Position>
            <AltitudeMeters>632</AltitudeMeters>
            <DistanceMeters>25605.285945304</DistanceMeters>
          </Trackpoint>
          <Trackpoint>
            <Time>2021-08-31T09:07:48.000Z</Time>
            <Position>
              <LatitudeDegrees>42.00761295855045318603515625</LatitudeDegrees>
              <LongitudeDegrees>2.181994803249835968017578125</LongitudeDegrees>
            </Position>
            <AltitudeMeters>634.5999755859375</AltitudeMeters>
            <DistanceMeters>25621.428743885</DistanceMeters>
          </Trackpoint>
          <Trackpoint>
            <Time>2021-08-31T09:07:50.000Z</Time>
            <Position>
              <LatitudeDegrees>42.00752402655780315399169921875</LatitudeDegrees>
              <LongitudeDegrees>2.18213436193764209747314453125</LongitudeDegrees>
            </Position>
            <AltitudeMeters>633.5999755859375</AltitudeMeters>
            <DistanceMeters>25636.633612089</DistanceMeters>
          </Trackpoint>
          <Trackpoint>
            <Time>2021-08-31T09:07:51.000Z</Time>
            <Position>
              <LatitudeDegrees>42.00748546980321407318115234375</LatitudeDegrees>
              <LongitudeDegrees>2.1822021715342998504638671875</LongitudeDegrees>
            </Position>
            <AltitudeMeters>632</AltitudeMeters>
            <DistanceMeters>25643.696341185</DistanceMeters>
          </Trackpoint>
          <Trackpoint>
            <Time>2021-08-31T09:07:53.000Z</Time>
            <Position>
              <LatitudeDegrees>42.007395364344120025634765625</LatitudeDegrees>
              <LongitudeDegrees>2.18227945268154144287109375</LongitudeDegrees>
            </Position>
            <AltitudeMeters>631.5999755859375</AltitudeMeters>
            <DistanceMeters>25655.588736119</DistanceMeters>
          </Trackpoint>
          <Trackpoint>
            <Time>2021-08-31T09:07:55.000Z</Time>
            <Position>
              <LatitudeDegrees>42.0072822086513042449951171875</LatitudeDegrees>
              <LongitudeDegrees>2.182308621704578399658203125</LongitudeDegrees>
            </Position>
            <AltitudeMeters>633.79998779296875</AltitudeMeters>
            <DistanceMeters>25668.411710109</DistanceMeters>
          </Trackpoint>
          <Trackpoint>
            <Time>2021-08-31T09:07:57.000Z</Time>
            <Position>
              <LatitudeDegrees>42.0071645267307758331298828125</LatitudeDegrees>
              <LongitudeDegrees>2.1823496930301189422607421875</LongitudeDegrees>
            </Position>
            <AltitudeMeters>637.5999755859375</AltitudeMeters>
            <DistanceMeters>25681.943260651</DistanceMeters>
          </Trackpoint>
          <Trackpoint>
            <Time>2021-08-31T09:07:59.000Z</Time>
            <Position>
              <LatitudeDegrees>42.0070589147508144378662109375</LatitudeDegrees>
              <LongitudeDegrees>2.18231423757970333099365234375</LongitudeDegrees>
            </Position>
            <AltitudeMeters>643</AltitudeMeters>
            <DistanceMeters>25694.058328233</DistanceMeters>
          </Trackpoint>
          <Trackpoint>
            <Time>2021-08-31T09:08:00.000Z</Time>
            <Position>
              <LatitudeDegrees>42.00701273046433925628662109375</LatitudeDegrees>
              <LongitudeDegrees>2.1822953782975673675537109375</LongitudeDegrees>
            </Position>
            <AltitudeMeters>644.79998779296875</AltitudeMeters>
            <DistanceMeters>25699.430490211</DistanceMeters>
          </Trackpoint>
          <Trackpoint>
            <Time>2021-08-31T09:08:01.000Z</Time>
            <Position>
              <LatitudeDegrees>42.00697434134781360626220703125</LatitudeDegrees>
              <LongitudeDegrees>2.18230283819139003753662109375</LongitudeDegrees>
            </Position>
            <AltitudeMeters>645.4000244140625</AltitudeMeters>
            <DistanceMeters>25703.747674221</DistanceMeters>
          </Trackpoint>
          <Trackpoint>
            <Time>2021-08-31T09:08:02.000Z</Time>
            <Position>
              <LatitudeDegrees>42.0069543085992336273193359375</LatitudeDegrees>
              <LongitudeDegrees>2.18233971856534481048583984375</LongitudeDegrees>
            </Position>
            <AltitudeMeters>646.20001220703125</AltitudeMeters>
            <DistanceMeters>25707.52491141</DistanceMeters>
          </Trackpoint>
          <Trackpoint>
            <Time>2021-08-31T09:08:05.000Z</Time>
            <Position>
              <LatitudeDegrees>42.006993032991886138916015625</LatitudeDegrees>
              <LongitudeDegrees>2.18248573131859302520751953125</LongitudeDegrees>
            </Position>
            <AltitudeMeters>641.5999755859375</AltitudeMeters>
            <DistanceMeters>25720.346829041</DistanceMeters>
          </Trackpoint>
          <Trackpoint>
            <Time>2021-08-31T09:08:07.000Z</Time>
            <Position>
              <LatitudeDegrees>42.00703762471675872802734375</LatitudeDegrees>
              <LongitudeDegrees>2.1825863979756832122802734375</LongitudeDegrees>
            </Position>
            <AltitudeMeters>636.4000244140625</AltitudeMeters>
            <DistanceMeters>25730.039553907</DistanceMeters>
          </Trackpoint>
          <Trackpoint>
            <Time>2021-08-31T09:08:09.000Z</Time>
            <Position>
              <LatitudeDegrees>42.00705237686634063720703125</LatitudeDegrees>
              <LongitudeDegrees>2.18269209377467632293701171875</LongitudeDegrees>
            </Position>
            <AltitudeMeters>633</AltitudeMeters>
            <DistanceMeters>25738.934074677</DistanceMeters>
          </Trackpoint>
          <Trackpoint>
            <Time>2021-08-31T09:08:14.000Z</Time>
            <Position>
              <LatitudeDegrees>42.007094286382198333740234375</LatitudeDegrees>
              <LongitudeDegrees>2.18300121836364269256591796875</LongitudeDegrees>
            </Position>
            <AltitudeMeters>624.20001220703125</AltitudeMeters>
            <DistanceMeters>25764.921926595</DistanceMeters>
          </Trackpoint>
          <Trackpoint>
            <Time>2021-08-31T09:08:16.000Z</Time>
            <Position>
              <LatitudeDegrees>42.00710845179855823516845703125</LatitudeDegrees>
              <LongitudeDegrees>2.18313700519502162933349609375</LongitudeDegrees>
            </Position>
            <AltitudeMeters>622</AltitudeMeters>
            <DistanceMeters>25776.261604217</DistanceMeters>
          </Trackpoint>
          <Trackpoint>
            <Time>2021-08-31T09:08:18.000Z</Time>
            <Position>
              <LatitudeDegrees>42.00710275210440158843994140625</LatitudeDegrees>
              <LongitudeDegrees>2.18329223804175853729248046875</LongitudeDegrees>
            </Position>
            <AltitudeMeters>620.5999755859375</AltitudeMeters>
            <DistanceMeters>25789.115877388</DistanceMeters>
          </Trackpoint>
          <Trackpoint>
            <Time>2021-08-31T09:08:20.000Z</Time>
            <Position>
              <LatitudeDegrees>42.00706704519689083099365234375</LatitudeDegrees>
              <LongitudeDegrees>2.18343816697597503662109375</LongitudeDegrees>
            </Position>
            <AltitudeMeters>621.20001220703125</AltitudeMeters>
            <DistanceMeters>25801.822125329</DistanceMeters>
          </Trackpoint>
          <Trackpoint>
            <Time>2021-08-31T09:08:22.000Z</Time>
            <Position>
              <LatitudeDegrees>42.00701725669205188751220703125</LatitudeDegrees>
              <LongitudeDegrees>2.1835731156170368194580078125</LongitudeDegrees>
            </Position>
            <AltitudeMeters>622.20001220703125</AltitudeMeters>
            <DistanceMeters>25814.282588177</DistanceMeters>
          </Trackpoint>
          <Trackpoint>
            <Time>2021-08-31T09:08:25.000Z</Time>
            <Position>
              <LatitudeDegrees>42.0069398917257785797119140625</LatitudeDegrees>
              <LongitudeDegrees>2.18378811143338680267333984375</LongitudeDegrees>
            </Position>
            <AltitudeMeters>623.5999755859375</AltitudeMeters>
            <DistanceMeters>25834.039005469</DistanceMeters>
          </Trackpoint>
          <Trackpoint>
            <Time>2021-08-31T09:08:26.000Z</Time>
            <Position>
              <LatitudeDegrees>42.00689814984798431396484375</LatitudeDegrees>
              <LongitudeDegrees>2.1838586032390594482421875</LongitudeDegrees>
            </Position>
            <AltitudeMeters>625.79998779296875</AltitudeMeters>
            <DistanceMeters>25841.494213079</DistanceMeters>
          </Trackpoint>
          <Trackpoint>
            <Time>2021-08-31T09:08:27.000Z</Time>
            <Position>
              <LatitudeDegrees>42.0068503729999065399169921875</LatitudeDegrees>
              <LongitudeDegrees>2.18392632901668548583984375</LongitudeDegrees>
            </Position>
            <AltitudeMeters>629.20001220703125</AltitudeMeters>
            <DistanceMeters>25849.217728146</DistanceMeters>
          </Trackpoint>
          <Trackpoint>
            <Time>2021-08-31T09:08:30.000Z</Time>
            <Position>
              <LatitudeDegrees>42.00671969912946224212646484375</LatitudeDegrees>
              <LongitudeDegrees>2.1840874291956424713134765625</LongitudeDegrees>
            </Position>
            <AltitudeMeters>639.79998779296875</AltitudeMeters>
            <DistanceMeters>25868.94212455</DistanceMeters>
          </Trackpoint>
          <Trackpoint>
            <Time>2021-08-31T09:08:32.000Z</Time>
            <Position>
              <LatitudeDegrees>42.00668516568839550018310546875</LatitudeDegrees>
              <LongitudeDegrees>2.18422329984605312347412109375</LongitudeDegrees>
            </Position>
            <AltitudeMeters>639.5999755859375</AltitudeMeters>
            <DistanceMeters>25880.81856316</DistanceMeters>
          </Trackpoint>
          <Trackpoint>
            <Time>2021-08-31T09:08:33.000Z</Time>
            <Position>
              <LatitudeDegrees>42.0066921226680278778076171875</LatitudeDegrees>
              <LongitudeDegrees>2.18430242501199245452880859375</LongitudeDegrees>
            </Position>
            <AltitudeMeters>637.5999755859375</AltitudeMeters>
            <DistanceMeters>25887.407691141</DistanceMeters>
          </Trackpoint>
          <Trackpoint>
            <Time>2021-08-31T09:08:34.000Z</Time>
            <Position>
              <LatitudeDegrees>42.00671383179724216461181640625</LatitudeDegrees>
              <LongitudeDegrees>2.1843898482620716094970703125</LongitudeDegrees>
            </Position>
            <AltitudeMeters>633.5999755859375</AltitudeMeters>
            <DistanceMeters>25895.031179318</DistanceMeters>
          </Trackpoint>
          <Trackpoint>
            <Time>2021-08-31T09:08:36.000Z</Time>
            <Position>
              <LatitudeDegrees>42.00677334330976009368896484375</LatitudeDegrees>
              <LongitudeDegrees>2.18457802198827266693115234375</LongitudeDegrees>
            </Position>
            <AltitudeMeters>622.5999755859375</AltitudeMeters>
            <DistanceMeters>25911.94540061</DistanceMeters>
          </Trackpoint>
          <Trackpoint>
            <Time>2021-08-31T09:08:39.000Z</Time>
            <Position>
              <LatitudeDegrees>42.00680066831409931182861328125</LatitudeDegrees>
              <LongitudeDegrees>2.184913717210292816162109375</LongitudeDegrees>
            </Position>
            <AltitudeMeters>612.5999755859375</AltitudeMeters>
            <DistanceMeters>25939.875172963</DistanceMeters>
          </Trackpoint>
          <Trackpoint>
            <Time>2021-08-31T09:08:41.000Z</Time>
            <Position>
              <LatitudeDegrees>42.006810642778873443603515625</LatitudeDegrees>
              <LongitudeDegrees>2.18515922315418720245361328125</LongitudeDegrees>
            </Position>
            <AltitudeMeters>606.5999755859375</AltitudeMeters>
            <DistanceMeters>25960.210001718</DistanceMeters>
          </Trackpoint>
          <Trackpoint>
            <Time>2021-08-31T09:08:42.000Z</Time>
            <Position>
              <LatitudeDegrees>42.00680418871343135833740234375</LatitudeDegrees>
              <LongitudeDegrees>2.18530255369842052459716796875</LongitudeDegrees>
            </Position>
            <AltitudeMeters>605</AltitudeMeters>
            <DistanceMeters>25972.085679969</DistanceMeters>
          </Trackpoint>
          <Trackpoint>
            <Time>2021-08-31T09:08:43.000Z</Time>
            <Position>
              <LatitudeDegrees>42.0067846588790416717529296875</LatitudeDegrees>
              <LongitudeDegrees>2.18545644544064998626708984375</LongitudeDegrees>
            </Position>
            <AltitudeMeters>605</AltitudeMeters>
            <DistanceMeters>25984.99742932</DistanceMeters>
          </Trackpoint>
          <Trackpoint>
            <Time>2021-08-31T09:08:45.000Z</Time>
            <Position>
              <LatitudeDegrees>42.00672690756618976593017578125</LatitudeDegrees>
              <LongitudeDegrees>2.1857014484703540802001953125</LongitudeDegrees>
            </Position>
            <AltitudeMeters>603.79998779296875</AltitudeMeters>
            <DistanceMeters>26006.255395957</DistanceMeters>
          </Trackpoint>
          <Trackpoint>
            <Time>2021-08-31T09:08:46.000Z</Time>
            <Position>
              <LatitudeDegrees>42.00670293532311916351318359375</LatitudeDegrees>
              <LongitudeDegrees>2.1857839263975620269775390625</LongitudeDegrees>
            </Position>
            <AltitudeMeters>604.20001220703125</AltitudeMeters>
            <DistanceMeters>26013.580470307</DistanceMeters>
          </Trackpoint>
          <Trackpoint>
            <Time>2021-08-31T09:08:48.000Z</Time>
            <Position>
              <LatitudeDegrees>42.00663127005100250244140625</LatitudeDegrees>
              <LongitudeDegrees>2.18591845594346523284912109375</LongitudeDegrees>
            </Position>
            <AltitudeMeters>607.5999755859375</AltitudeMeters>
            <DistanceMeters>26027.270584864</DistanceMeters>
          </Trackpoint>
          <Trackpoint>
            <Time>2021-08-31T09:08:50.000Z</Time>
            <Position>
              <LatitudeDegrees>42.0065251551568508148193359375</LatitudeDegrees>
              <LongitudeDegrees>2.1860420890152454376220703125</LongitudeDegrees>
            </Position>
            <AltitudeMeters>610.20001220703125</AltitudeMeters>
            <DistanceMeters>26042.892583647</DistanceMeters>
          </Trackpoint>
          <Trackpoint>
            <Time>2021-08-31T09:08:51.000Z</Time>
            <Position>
              <LatitudeDegrees>42.00649959035217761993408203125</LatitudeDegrees>
              <LongitudeDegrees>2.18612439930438995361328125</LongitudeDegrees>
            </Position>
            <AltitudeMeters>611.4000244140625</AltitudeMeters>
            <DistanceMeters>26050.270476355</DistanceMeters>
          </Trackpoint>
          <Trackpoint>
            <Time>2021-08-31T09:08:52.000Z</Time>
            <Position>
              <LatitudeDegrees>42.00649338774383068084716796875</LatitudeDegrees>
              <LongitudeDegrees>2.18619774095714092254638671875</LongitudeDegrees>
            </Position>
            <AltitudeMeters>611.5999755859375</AltitudeMeters>
            <DistanceMeters>26056.375896534</DistanceMeters>
          </Trackpoint>
          <Trackpoint>
            <Time>2021-08-31T09:08:54.000Z</Time>
            <Position>
              <LatitudeDegrees>42.00655105523765087127685546875</LatitudeDegrees>
              <LongitudeDegrees>2.18631072901189327239990234375</LongitudeDegrees>
            </Position>
            <AltitudeMeters>608</AltitudeMeters>
            <DistanceMeters>26067.712786673</DistanceMeters>
          </Trackpoint>
          <Trackpoint>
            <Time>2021-08-31T09:08:56.000Z</Time>
            <Position>
              <LatitudeDegrees>42.00662548653781414031982421875</LatitudeDegrees>
              <LongitudeDegrees>2.18644483946263790130615234375</LongitudeDegrees>
            </Position>
            <AltitudeMeters>604.4000244140625</AltitudeMeters>
            <DistanceMeters>26081.556714672</DistanceMeters>
          </Trackpoint>
          <Trackpoint>
            <Time>2021-08-31T09:08:57.000Z</Time>
            <Position>
              <LatitudeDegrees>42.00663604773581027984619140625</LatitudeDegrees>
              <LongitudeDegrees>2.18653586693108081817626953125</LongitudeDegrees>
            </Position>
            <AltitudeMeters>603.5999755859375</AltitudeMeters>
            <DistanceMeters>26089.1766485</DistanceMeters>
          </Trackpoint>
          <Trackpoint>
            <Time>2021-08-31T09:08:59.000Z</Time>
            <Position>
              <LatitudeDegrees>42.0066414959728717803955078125</LatitudeDegrees>
              <LongitudeDegrees>2.1867203526198863983154296875</LongitudeDegrees>
            </Position>
            <AltitudeMeters>602.20001220703125</AltitudeMeters>
            <DistanceMeters>26104.446409593</DistanceMeters>
          </Trackpoint>
          <Trackpoint>
            <Time>2021-08-31T09:09:00.000Z</Time>
            <Position>
              <LatitudeDegrees>42.00667778961360454559326171875</LatitudeDegrees>
              <LongitudeDegrees>2.1868035010993480682373046875</LongitudeDegrees>
            </Position>
            <AltitudeMeters>599.79998779296875</AltitudeMeters>
            <DistanceMeters>26112.42186309</DistanceMeters>
          </Trackpoint>
          <Trackpoint>
            <Time>2021-08-31T09:09:01.000Z</Time>
            <Position>
              <LatitudeDegrees>42.0067258179187774658203125</LatitudeDegrees>
              <LongitudeDegrees>2.18686468899250030517578125</LongitudeDegrees>
            </Position>
            <AltitudeMeters>597.20001220703125</AltitudeMeters>
            <DistanceMeters>26119.783214103</DistanceMeters>
          </Trackpoint>
          <Trackpoint>
            <Time>2021-08-31T09:09:03.000Z</Time>
            <Position>
              <LatitudeDegrees>42.00684727169573307037353515625</LatitudeDegrees>
              <LongitudeDegrees>2.18695462681353092193603515625</LongitudeDegrees>
            </Position>
            <AltitudeMeters>591.5999755859375</AltitudeMeters>
            <DistanceMeters>26135.21269677</DistanceMeters>
          </Trackpoint>
          <Trackpoint>
            <Time>2021-08-31T09:09:04.000Z</Time>
            <Position>
              <LatitudeDegrees>42.006903849542140960693359375</LatitudeDegrees>
              <LongitudeDegrees>2.1869993023574352264404296875</LongitudeDegrees>
            </Position>
            <AltitudeMeters>588.20001220703125</AltitudeMeters>
            <DistanceMeters>26142.514311066</DistanceMeters>
          </Trackpoint>
          <Trackpoint>
            <Time>2021-08-31T09:09:06.000Z</Time>
            <Position>
              <LatitudeDegrees>42.00696051120758056640625</LatitudeDegrees>
              <LongitudeDegrees>2.1870941855013370513916015625</LongitudeDegrees>
            </Position>
            <AltitudeMeters>583.79998779296875</AltitudeMeters>
            <DistanceMeters>26152.581762481</DistanceMeters>
          </Trackpoint>
          <Trackpoint>
            <Time>2021-08-31T09:09:08.000Z</Time>
            <Position>
              <LatitudeDegrees>42.00694047845900058746337890625</LatitudeDegrees>
              <LongitudeDegrees>2.18720273114740848541259765625</LongitudeDegrees>
            </Position>
            <AltitudeMeters>583.5999755859375</AltitudeMeters>
            <DistanceMeters>26161.832114063</DistanceMeters>
          </Trackpoint>
          <Trackpoint>
            <Time>2021-08-31T09:09:09.000Z</Time>
            <Position>
              <LatitudeDegrees>42.0069073699414730072021484375</LatitudeDegrees>
              <LongitudeDegrees>2.1872624941170215606689453125</LongitudeDegrees>
            </Position>
            <AltitudeMeters>584.20001220703125</AltitudeMeters>
            <DistanceMeters>26167.997876127</DistanceMeters>
          </Trackpoint>
          <Trackpoint>
            <Time>2021-08-31T09:09:11.000Z</Time>
            <Position>
              <LatitudeDegrees>42.006801925599575042724609375</LatitudeDegrees>
              <LongitudeDegrees>2.18739853240549564361572265625</LongitudeDegrees>
            </Position>
            <AltitudeMeters>584.4000244140625</AltitudeMeters>
            <DistanceMeters>26184.255500108</DistanceMeters>
          </Trackpoint>
          <Trackpoint>
            <Time>2021-08-31T09:09:12.000Z</Time>
            <Position>
              <LatitudeDegrees>42.00672925449907779693603515625</LatitudeDegrees>
              <LongitudeDegrees>2.18746491707861423492431640625</LongitudeDegrees>
            </Position>
            <AltitudeMeters>584.4000244140625</AltitudeMeters>
            <DistanceMeters>26194.030788796</DistanceMeters>
          </Trackpoint>
          <Trackpoint>
            <Time>2021-08-31T09:09:14.000Z</Time>
            <Position>
              <LatitudeDegrees>42.00656547211110591888427734375</LatitudeDegrees>
              <LongitudeDegrees>2.187588550150394439697265625</LongitudeDegrees>
            </Position>
            <AltitudeMeters>582.79998779296875</AltitudeMeters>
            <DistanceMeters>26214.931914081</DistanceMeters>
          </Trackpoint>
          <Trackpoint>
            <Time>2021-08-31T09:09:16.000Z</Time>
            <Position>
              <LatitudeDegrees>42.00640001334249973297119140625</LatitudeDegrees>
              <LongitudeDegrees>2.18767764978110790252685546875</LongitudeDegrees>
            </Position>
            <AltitudeMeters>581</AltitudeMeters>
            <DistanceMeters>26234.767246967</DistanceMeters>
          </Trackpoint>
          <Trackpoint>
            <Time>2021-08-31T09:09:21.000Z</Time>
            <Position>
              <LatitudeDegrees>42.00602509081363677978515625</LatitudeDegrees>
              <LongitudeDegrees>2.18787646852433681488037109375</LongitudeDegrees>
            </Position>
            <AltitudeMeters>577.4000244140625</AltitudeMeters>
            <DistanceMeters>26279.619755485</DistanceMeters>
          </Trackpoint>
          <Trackpoint>
            <Time>2021-08-31T09:09:22.000Z</Time>
            <Position>
              <LatitudeDegrees>42.00595594011247158050537109375</LatitudeDegrees>
              <LongitudeDegrees>2.18792910687625408172607421875</LongitudeDegrees>
            </Position>
            <AltitudeMeters>576</AltitudeMeters>
            <DistanceMeters>26288.462347409</DistanceMeters>
          </Trackpoint>
          <Trackpoint>
            <Time>2021-08-31T09:09:24.000Z</Time>
            <Position>
              <LatitudeDegrees>42.0058291219174861907958984375</LatitudeDegrees>
              <LongitudeDegrees>2.18805869109928607940673828125</LongitudeDegrees>
            </Position>
            <AltitudeMeters>573.4000244140625</AltitudeMeters>
            <DistanceMeters>26306.18502071</DistanceMeters>
          </Trackpoint>
          <Trackpoint>
            <Time>2021-08-31T09:09:25.000Z</Time>
            <Position>
              <LatitudeDegrees>42.00577606447041034698486328125</LatitudeDegrees>
              <LongitudeDegrees>2.18813111074268817901611328125</LongitudeDegrees>
            </Position>
            <AltitudeMeters>571.5999755859375</AltitudeMeters>
            <DistanceMeters>26314.595824409</DistanceMeters>
          </Trackpoint>
          <Trackpoint>
            <Time>2021-08-31T09:09:26.000Z</Time>
            <Position>
              <LatitudeDegrees>42.0057241804897785186767578125</LatitudeDegrees>
              <LongitudeDegrees>2.18822130002081394195556640625</LongitudeDegrees>
            </Position>
            <AltitudeMeters>568.79998779296875</AltitudeMeters>
            <DistanceMeters>26324.029349909</DistanceMeters>
          </Trackpoint>
          <Trackpoint>
            <Time>2021-08-31T09:09:27.000Z</Time>
            <Position>
              <LatitudeDegrees>42.00566693209111690521240234375</LatitudeDegrees>
              <LongitudeDegrees>2.18834099359810352325439453125</LongitudeDegrees>
            </Position>
            <AltitudeMeters>567.5999755859375</AltitudeMeters>
            <DistanceMeters>26335.80192878</DistanceMeters>
          </Trackpoint>
          <Trackpoint>
            <Time>2021-08-31T09:09:31.000Z</Time>
            <Position>
              <LatitudeDegrees>42.0054663531482219696044921875</LatitudeDegrees>
              <LongitudeDegrees>2.18884575180709362030029296875</LongitudeDegrees>
            </Position>
            <AltitudeMeters>567.20001220703125</AltitudeMeters>
            <DistanceMeters>26383.143070535</DistanceMeters>
          </Trackpoint>
          <Trackpoint>
            <Time>2021-08-31T09:09:35.000Z</Time>
            <Position>
              <LatitudeDegrees>42.005313299596309661865234375</LatitudeDegrees>
              <LongitudeDegrees>2.1894585527479648590087890625</LongitudeDegrees>
            </Position>
            <AltitudeMeters>570.4000244140625</AltitudeMeters>
            <DistanceMeters>26436.611960576</DistanceMeters>
          </Trackpoint>
          <Trackpoint>
            <Time>2021-08-31T09:09:39.000Z</Time>
            <Position>
              <LatitudeDegrees>42.0051848888397216796875</LatitudeDegrees>
              <LongitudeDegrees>2.19001050107181072235107421875</LongitudeDegrees>
            </Position>
            <AltitudeMeters>567.79998779296875</AltitudeMeters>
            <DistanceMeters>26484.446939938</DistanceMeters>
          </Trackpoint>
          <Trackpoint>
            <Time>2021-08-31T09:09:40.000Z</Time>
            <Position>
              <LatitudeDegrees>42.0051567256450653076171875</LatitudeDegrees>
              <LongitudeDegrees>2.19010957516729831695556640625</LongitudeDegrees>
            </Position>
            <AltitudeMeters>567.20001220703125</AltitudeMeters>
            <DistanceMeters>26493.22032991</DistanceMeters>
          </Trackpoint>
          <Trackpoint>
            <Time>2021-08-31T09:09:42.000Z</Time>
            <Position>
              <LatitudeDegrees>42.00510132126510143280029296875</LatitudeDegrees>
              <LongitudeDegrees>2.1902578510344028472900390625</LongitudeDegrees>
            </Position>
            <AltitudeMeters>566.4000244140625</AltitudeMeters>
            <DistanceMeters>26506.947003764</DistanceMeters>
          </Trackpoint>
          <Trackpoint>
            <Time>2021-08-31T09:09:45.000Z</Time>
            <Position>
              <LatitudeDegrees>42.0050843060016632080078125</LatitudeDegrees>
              <LongitudeDegrees>2.19034812413156032562255859375</LongitudeDegrees>
            </Position>
            <AltitudeMeters>566.20001220703125</AltitudeMeters>
            <DistanceMeters>26514.649445081</DistanceMeters>
          </Trackpoint>
          <Trackpoint>
            <Time>2021-08-31T09:09:48.000Z</Time>
            <Position>
              <LatitudeDegrees>42.005102746188640594482421875</LatitudeDegrees>
              <LongitudeDegrees>2.19027721323072910308837890625</LongitudeDegrees>
            </Position>
            <AltitudeMeters>566.4000244140625</AltitudeMeters>
            <DistanceMeters>26520.863349399</DistanceMeters>
          </Trackpoint>
          <Trackpoint>
            <Time>2021-08-31T09:09:49.000Z</Time>
            <Position>
              <LatitudeDegrees>42.00510266236960887908935546875</LatitudeDegrees>
              <LongitudeDegrees>2.19025441445410251617431640625</LongitudeDegrees>
            </Position>
            <AltitudeMeters>566.4000244140625</AltitudeMeters>
            <DistanceMeters>26522.749575822</DistanceMeters>
          </Trackpoint>
          <Trackpoint>
            <Time>2021-08-31T09:09:52.000Z</Time>
            <Position>
              <LatitudeDegrees>42.0050720684230327606201171875</LatitudeDegrees>
              <LongitudeDegrees>2.19015819020569324493408203125</LongitudeDegrees>
            </Position>
            <AltitudeMeters>566.20001220703125</AltitudeMeters>
            <DistanceMeters>26531.4058784</DistanceMeters>
          </Trackpoint>
          <Trackpoint>
            <Time>2021-08-31T09:09:53.000Z</Time>
            <Position>
              <LatitudeDegrees>42.005074582993984222412109375</LatitudeDegrees>
              <LongitudeDegrees>2.19010412693023681640625</LongitudeDegrees>
            </Position>
            <AltitudeMeters>566.20001220703125</AltitudeMeters>
            <DistanceMeters>26535.88525669</DistanceMeters>
          </Trackpoint>
          <Trackpoint>
            <Time>2021-08-31T09:09:55.000Z</Time>
            <Position>
              <LatitudeDegrees>42.005080282688140869140625</LatitudeDegrees>
              <LongitudeDegrees>2.1900221519172191619873046875</LongitudeDegrees>
            </Position>
            <AltitudeMeters>566</AltitudeMeters>
            <DistanceMeters>26542.694767872</DistanceMeters>
          </Trackpoint>
          <Trackpoint>
            <Time>2021-08-31T09:09:56.000Z</Time>
            <Position>
              <LatitudeDegrees>42.00507081113755702972412109375</LatitudeDegrees>
              <LongitudeDegrees>2.1900087408721446990966796875</LongitudeDegrees>
            </Position>
            <AltitudeMeters>565.79998779296875</AltitudeMeters>
            <DistanceMeters>26544.221122916</DistanceMeters>
          </Trackpoint>
          <Trackpoint>
            <Time>2021-08-31T09:09:58.000Z</Time>
            <Position>
              <LatitudeDegrees>42.00502253137528896331787109375</LatitudeDegrees>
              <LongitudeDegrees>2.190017290413379669189453125</LongitudeDegrees>
            </Position>
            <AltitudeMeters>565.5999755859375</AltitudeMeters>
            <DistanceMeters>26549.640978881</DistanceMeters>
          </Trackpoint>
          <Trackpoint>
            <Time>2021-08-31T09:10:00.000Z</Time>
            <Position>
              <LatitudeDegrees>42.00497894547879695892333984375</LatitudeDegrees>
              <LongitudeDegrees>2.190101109445095062255859375</LongitudeDegrees>
            </Position>
            <AltitudeMeters>565</AltitudeMeters>
            <DistanceMeters>26558.10209264</DistanceMeters>
          </Trackpoint>
          <Trackpoint>
            <Time>2021-08-31T09:10:01.000Z</Time>
            <Position>
              <LatitudeDegrees>42.00494223274290561676025390625</LatitudeDegrees>
              <LongitudeDegrees>2.190156765282154083251953125</LongitudeDegrees>
            </Position>
            <AltitudeMeters>564.20001220703125</AltitudeMeters>
            <DistanceMeters>26564.256860766</DistanceMeters>
          </Trackpoint>
          <Trackpoint>
            <Time>2021-08-31T09:10:02.000Z</Time>
            <Position>
              <LatitudeDegrees>42.00490300543606281280517578125</LatitudeDegrees>
              <LongitudeDegrees>2.1902199648320674896240234375</LongitudeDegrees>
            </Position>
            <AltitudeMeters>563.5999755859375</AltitudeMeters>
            <DistanceMeters>26571.067034964</DistanceMeters>
          </Trackpoint>
          <Trackpoint>
            <Time>2021-08-31T09:10:04.000Z</Time>
            <Position>
              <LatitudeDegrees>42.00486461631953716278076171875</LatitudeDegrees>
              <LongitudeDegrees>2.19036228954792022705078125</LongitudeDegrees>
            </Position>
            <AltitudeMeters>561.79998779296875</AltitudeMeters>
            <DistanceMeters>26583.589666777</DistanceMeters>
          </Trackpoint>
          <Trackpoint>
            <Time>2021-08-31T09:10:06.000Z</Time>
            <Position>
              <LatitudeDegrees>42.00480879284441471099853515625</LatitudeDegrees>
              <LongitudeDegrees>2.1904901973903179168701171875</LongitudeDegrees>
            </Position>
            <AltitudeMeters>561.4000244140625</AltitudeMeters>
            <DistanceMeters>26595.857685529</DistanceMeters>
          </Trackpoint>
          <Trackpoint>
            <Time>2021-08-31T09:10:08.000Z</Time>
            <Position>
              <LatitudeDegrees>42.004747353494167327880859375</LatitudeDegrees>
              <LongitudeDegrees>2.1906209550797939300537109375</LongitudeDegrees>
            </Position>
            <AltitudeMeters>560.5999755859375</AltitudeMeters>
            <DistanceMeters>26608.652812958</DistanceMeters>
          </Trackpoint>
          <Trackpoint>
            <Time>2021-08-31T09:10:11.000Z</Time>
            <Position>
              <LatitudeDegrees>42.0046972297132015228271484375</LatitudeDegrees>
              <LongitudeDegrees>2.1908489428460597991943359375</LongitudeDegrees>
            </Position>
            <AltitudeMeters>559.20001220703125</AltitudeMeters>
            <DistanceMeters>26628.317144462</DistanceMeters>
          </Trackpoint>
          <Trackpoint>
            <Time>2021-08-31T09:10:12.000Z</Time>
            <Position>
              <LatitudeDegrees>42.00470678508281707763671875</LatitudeDegrees>
              <LongitudeDegrees>2.190919183194637298583984375</LongitudeDegrees>
            </Position>
            <AltitudeMeters>558.79998779296875</AltitudeMeters>
            <DistanceMeters>26634.22334335</DistanceMeters>
          </Trackpoint>
          <Trackpoint>
            <Time>2021-08-31T09:10:13.000Z</Time>
            <Position>
              <LatitudeDegrees>42.00473603792488574981689453125</LatitudeDegrees>
              <LongitudeDegrees>2.1909843944013118743896484375</LongitudeDegrees>
            </Position>
            <AltitudeMeters>557.79998779296875</AltitudeMeters>
            <DistanceMeters>26640.523836668</DistanceMeters>
          </Trackpoint>
          <Trackpoint>
            <Time>2021-08-31T09:10:15.000Z</Time>
            <Position>
              <LatitudeDegrees>42.00482857413589954376220703125</LatitudeDegrees>
              <LongitudeDegrees>2.1911295689642429351806640625</LongitudeDegrees>
            </Position>
            <AltitudeMeters>555.79998779296875</AltitudeMeters>
            <DistanceMeters>26656.343144759</DistanceMeters>
          </Trackpoint>
          <Trackpoint>
            <Time>2021-08-31T09:10:16.000Z</Time>
            <Position>
              <LatitudeDegrees>42.0048745907843112945556640625</LatitudeDegrees>
              <LongitudeDegrees>2.19121464528143405914306640625</LongitudeDegrees>
            </Position>
            <AltitudeMeters>555</AltitudeMeters>
            <DistanceMeters>26665.04626381</DistanceMeters>
          </Trackpoint>
          <Trackpoint>
            <Time>2021-08-31T09:10:19.000Z</Time>
            <Position>
              <LatitudeDegrees>42.00496503151953220367431640625</LatitudeDegrees>
              <LongitudeDegrees>2.19141966663300991058349609375</LongitudeDegrees>
            </Position>
            <AltitudeMeters>555.20001220703125</AltitudeMeters>
            <DistanceMeters>26684.765623633</DistanceMeters>
          </Trackpoint>
          <Trackpoint>
            <Time>2021-08-31T09:10:23.000Z</Time>
            <Position>
              <LatitudeDegrees>42.00501532293856143951416015625</LatitudeDegrees>
              <LongitudeDegrees>2.19157573767006397247314453125</LongitudeDegrees>
            </Position>
            <AltitudeMeters>556.20001220703125</AltitudeMeters>
            <DistanceMeters>26698.835354824</DistanceMeters>
          </Trackpoint>
          <Trackpoint>
            <Time>2021-08-31T09:10:24.000Z</Time>
            <Position>
              <LatitudeDegrees>42.00501632876694202423095703125</LatitudeDegrees>
              <LongitudeDegrees>2.1915825270116329193115234375</LongitudeDegrees>
            </Position>
            <AltitudeMeters>556.4000244140625</AltitudeMeters>
            <DistanceMeters>26699.405515111</DistanceMeters>
          </Trackpoint>
          <Trackpoint>
            <Time>2021-08-31T09:10:49.000Z</Time>
            <Position>
              <LatitudeDegrees>42.005018927156925201416015625</LatitudeDegrees>
              <LongitudeDegrees>2.1915352530777454376220703125</LongitudeDegrees>
            </Position>
            <AltitudeMeters>555.79998779296875</AltitudeMeters>
            <DistanceMeters>26703.325870976</DistanceMeters>
          </Trackpoint>
          <Trackpoint>
            <Time>2021-08-31T09:10:50.000Z</Time>
            <Position>
              <LatitudeDegrees>42.00500895269215106964111328125</LatitudeDegrees>
              <LongitudeDegrees>2.19149644486606121063232421875</LongitudeDegrees>
            </Position>
            <AltitudeMeters>555.5999755859375</AltitudeMeters>
            <DistanceMeters>26706.722992948</DistanceMeters>
          </Trackpoint>
          <Trackpoint>
            <Time>2021-08-31T09:10:52.000Z</Time>
            <Position>
              <LatitudeDegrees>42.0049842260777950286865234375</LatitudeDegrees>
              <LongitudeDegrees>2.191414721310138702392578125</LongitudeDegrees>
            </Position>
            <AltitudeMeters>555</AltitudeMeters>
            <DistanceMeters>26714.020896131</DistanceMeters>
          </Trackpoint>
          <Trackpoint>
            <Time>2021-08-31T09:10:54.000Z</Time>
            <Position>
              <LatitudeDegrees>42.00494005344808101654052734375</LatitudeDegrees>
              <LongitudeDegrees>2.1913366019725799560546875</LongitudeDegrees>
            </Position>
            <AltitudeMeters>555.4000244140625</AltitudeMeters>
            <DistanceMeters>26722.138869886</DistanceMeters>
          </Trackpoint>
          <Trackpoint>
            <Time>2021-08-31T09:10:59.000Z</Time>
            <Position>
              <LatitudeDegrees>42.00483460910618305206298828125</LatitudeDegrees>
              <LongitudeDegrees>2.1911443211138248443603515625</LongitudeDegrees>
            </Position>
            <AltitudeMeters>555.5999755859375</AltitudeMeters>
            <DistanceMeters>26741.903512735</DistanceMeters>
          </Trackpoint>
          <Trackpoint>
            <Time>2021-08-31T09:11:03.000Z</Time>
            <Position>
              <LatitudeDegrees>42.00478498823940753936767578125</LatitudeDegrees>
              <LongitudeDegrees>2.19098397530615329742431640625</LongitudeDegrees>
            </Position>
            <AltitudeMeters>556.79998779296875</AltitudeMeters>
            <DistanceMeters>26756.269528088</DistanceMeters>
          </Trackpoint>
          <Trackpoint>
            <Time>2021-08-31T09:11:05.000Z</Time>
            <Position>
              <LatitudeDegrees>42.00478456914424896240234375</LatitudeDegrees>
              <LongitudeDegrees>2.1908472664654254913330078125</LongitudeDegrees>
            </Position>
            <AltitudeMeters>558</AltitudeMeters>
            <DistanceMeters>26767.576509219</DistanceMeters>
          </Trackpoint>
          <Trackpoint>
            <Time>2021-08-31T09:11:06.000Z</Time>
            <Position>
              <LatitudeDegrees>42.0047937892377376556396484375</LatitudeDegrees>
              <LongitudeDegrees>2.19077342189848423004150390625</LongitudeDegrees>
            </Position>
            <AltitudeMeters>558.79998779296875</AltitudeMeters>
            <DistanceMeters>26773.770035253</DistanceMeters>
          </Trackpoint>
          <Trackpoint>
            <Time>2021-08-31T09:11:07.000Z</Time>
            <Position>
              <LatitudeDegrees>42.00482320971786975860595703125</LatitudeDegrees>
              <LongitudeDegrees>2.19071206636726856231689453125</LongitudeDegrees>
            </Position>
            <AltitudeMeters>558.79998779296875</AltitudeMeters>
            <DistanceMeters>26779.810027706</DistanceMeters>
          </Trackpoint>
          <Trackpoint>
            <Time>2021-08-31T09:11:09.000Z</Time>
            <Position>
              <LatitudeDegrees>42.00487148948013782501220703125</LatitudeDegrees>
              <LongitudeDegrees>2.19058357179164886474609375</LongitudeDegrees>
            </Position>
            <AltitudeMeters>560</AltitudeMeters>
            <DistanceMeters>26791.718736728</DistanceMeters>
          </Trackpoint>
          <Trackpoint>
            <Time>2021-08-31T09:11:11.000Z</Time>
            <Position>
              <LatitudeDegrees>42.00491599738597869873046875</LatitudeDegrees>
              <LongitudeDegrees>2.190439403057098388671875</LongitudeDegrees>
            </Position>
            <AltitudeMeters>562.4000244140625</AltitudeMeters>
            <DistanceMeters>26804.630486079</DistanceMeters>
          </Trackpoint>
          <Trackpoint>
            <Time>2021-08-31T09:11:13.000Z</Time>
            <Position>
              <LatitudeDegrees>42.00495363213121891021728515625</LatitudeDegrees>
              <LongitudeDegrees>2.19029121100902557373046875</LongitudeDegrees>
            </Position>
            <AltitudeMeters>564.20001220703125</AltitudeMeters>
            <DistanceMeters>26817.582735311</DistanceMeters>
          </Trackpoint>
          <Trackpoint>
            <Time>2021-08-31T09:11:14.000Z</Time>
            <Position>
              <LatitudeDegrees>42.004983387887477874755859375</LatitudeDegrees>
              <LongitudeDegrees>2.19022340141236782073974609375</LongitudeDegrees>
            </Position>
            <AltitudeMeters>564.79998779296875</AltitudeMeters>
            <DistanceMeters>26824.094665822</DistanceMeters>
          </Trackpoint>
          <Trackpoint>
            <Time>2021-08-31T09:11:16.000Z</Time>
            <Position>
              <LatitudeDegrees>42.0050050131976604461669921875</LatitudeDegrees>
              <LongitudeDegrees>2.1900895424187183380126953125</LongitudeDegrees>
            </Position>
            <AltitudeMeters>565.4000244140625</AltitudeMeters>
            <DistanceMeters>26835.424783506</DistanceMeters>
          </Trackpoint>
          <Trackpoint>
            <Time>2021-08-31T09:11:18.000Z</Time>
            <Position>
              <LatitudeDegrees>42.00504013337194919586181640625</LatitudeDegrees>
              <LongitudeDegrees>2.19002676196396350860595703125</LongitudeDegrees>
            </Position>
            <AltitudeMeters>565.5999755859375</AltitudeMeters>
            <DistanceMeters>26841.924221759</DistanceMeters>
          </Trackpoint>
          <Trackpoint>
            <Time>2021-08-31T09:11:19.000Z</Time>
            <Position>
              <LatitudeDegrees>42.0050536282360553741455078125</LatitudeDegrees>
              <LongitudeDegrees>2.1900244988501071929931640625</LongitudeDegrees>
            </Position>
            <AltitudeMeters>565.79998779296875</AltitudeMeters>
            <DistanceMeters>26843.438698374</DistanceMeters>
          </Trackpoint>
          <Trackpoint>
            <Time>2021-08-31T09:11:21.000Z</Time>
            <Position>
              <LatitudeDegrees>42.0050636865198612213134765625</LatitudeDegrees>
              <LongitudeDegrees>2.190054170787334442138671875</LongitudeDegrees>
            </Position>
            <AltitudeMeters>566</AltitudeMeters>
            <DistanceMeters>26846.136520016</DistanceMeters>
          </Trackpoint>
          <Trackpoint>
            <Time>2021-08-31T09:11:22.000Z</Time>
            <Position>
              <LatitudeDegrees>42.0050536282360553741455078125</LatitudeDegrees>
              <LongitudeDegrees>2.19007906503975391387939453125</LongitudeDegrees>
            </Position>
            <AltitudeMeters>566</AltitudeMeters>
            <DistanceMeters>26848.479656051</DistanceMeters>
          </Trackpoint>
          <Trackpoint>
            <Time>2021-08-31T09:11:24.000Z</Time>
            <Position>
              <LatitudeDegrees>42.00505287386476993560791015625</LatitudeDegrees>
              <LongitudeDegrees>2.19015466980636119842529296875</LongitudeDegrees>
            </Position>
            <AltitudeMeters>565.79998779296875</AltitudeMeters>
            <DistanceMeters>26854.733395818</DistanceMeters>
          </Trackpoint>
          <Trackpoint>
            <Time>2021-08-31T09:11:26.000Z</Time>
            <Position>
              <LatitudeDegrees>42.0050737448036670684814453125</LatitudeDegrees>
              <LongitudeDegrees>2.19022088684141635894775390625</LongitudeDegrees>
            </Position>
            <AltitudeMeters>566</AltitudeMeters>
            <DistanceMeters>26860.681491271</DistanceMeters>
          </Trackpoint>
          <Trackpoint>
            <Time>2021-08-31T09:11:30.000Z</Time>
            <Position>
              <LatitudeDegrees>42.00519586913287639617919921875</LatitudeDegrees>
              <LongitudeDegrees>2.190337479114532470703125</LongitudeDegrees>
            </Position>
            <AltitudeMeters>568.4000244140625</AltitudeMeters>
            <DistanceMeters>26877.347237316</DistanceMeters>
          </Trackpoint>
          <Trackpoint>
            <Time>2021-08-31T09:11:33.000Z</Time>
            <Position>
              <LatitudeDegrees>42.00529552996158599853515625</LatitudeDegrees>
              <LongitudeDegrees>2.19043848104774951934814453125</LongitudeDegrees>
            </Position>
            <AltitudeMeters>571</AltitudeMeters>
            <DistanceMeters>26891.233498598</DistanceMeters>
          </Trackpoint>
          <Trackpoint>
            <Time>2021-08-31T09:11:35.000Z</Time>
            <Position>
              <LatitudeDegrees>42.00534976087510585784912109375</LatitudeDegrees>
              <LongitudeDegrees>2.19052028842270374298095703125</LongitudeDegrees>
            </Position>
            <AltitudeMeters>571.79998779296875</AltitudeMeters>
            <DistanceMeters>26900.300461482</DistanceMeters>
          </Trackpoint>
          <Trackpoint>
            <Time>2021-08-31T09:11:41.000Z</Time>
            <Position>
              <LatitudeDegrees>42.0055213384330272674560546875</LatitudeDegrees>
              <LongitudeDegrees>2.19074542634189128875732421875</LongitudeDegrees>
            </Position>
            <AltitudeMeters>574.4000244140625</AltitudeMeters>
            <DistanceMeters>26926.972684532</DistanceMeters>
          </Trackpoint>
          <Trackpoint>
            <Time>2021-08-31T09:11:47.000Z</Time>
            <Position>
              <LatitudeDegrees>42.00567766092717647552490234375</LatitudeDegrees>
              <LongitudeDegrees>2.1909475140273571014404296875</LongitudeDegrees>
            </Position>
            <AltitudeMeters>575.79998779296875</AltitudeMeters>
            <DistanceMeters>26951.098992322</DistanceMeters>
          </Trackpoint>
          <Trackpoint>
            <Time>2021-08-31T09:11:54.000Z</Time>
            <Position>
              <LatitudeDegrees>42.00587362982332706451416015625</LatitudeDegrees>
              <LongitudeDegrees>2.1911272220313549041748046875</LongitudeDegrees>
            </Position>
            <AltitudeMeters>578.20001220703125</AltitudeMeters>
            <DistanceMeters>26977.493506859</DistanceMeters>
          </Trackpoint>
          <Trackpoint>
            <Time>2021-08-31T09:12:00.000Z</Time>
            <Position>
              <LatitudeDegrees>42.00606356374919414520263671875</LatitudeDegrees>
              <LongitudeDegrees>2.19128756783902645111083984375</LongitudeDegrees>
            </Position>
            <AltitudeMeters>580</AltitudeMeters>
            <DistanceMeters>27002.448831983</DistanceMeters>
          </Trackpoint>
          <Trackpoint>
            <Time>2021-08-31T09:12:05.000Z</Time>
            <Position>
              <LatitudeDegrees>42.00621762312948703765869140625</LatitudeDegrees>
              <LongitudeDegrees>2.19148621894419193267822265625</LongitudeDegrees>
            </Position>
            <AltitudeMeters>580.79998779296875</AltitudeMeters>
            <DistanceMeters>27026.196386259</DistanceMeters>
          </Trackpoint>
          <Trackpoint>
            <Time>2021-08-31T09:12:10.000Z</Time>
            <Position>
              <LatitudeDegrees>42.00638643465936183929443359375</LatitudeDegrees>
              <LongitudeDegrees>2.1916531026363372802734375</LongitudeDegrees>
            </Position>
            <AltitudeMeters>582.5999755859375</AltitudeMeters>
            <DistanceMeters>27049.510101776</DistanceMeters>
          </Trackpoint>
          <Trackpoint>
            <Time>2021-08-31T09:12:11.000Z</Time>
            <Position>
              <LatitudeDegrees>42.0064155198633670806884765625</LatitudeDegrees>
              <LongitudeDegrees>2.191698364913463592529296875</LongitudeDegrees>
            </Position>
            <AltitudeMeters>582.5999755859375</AltitudeMeters>
            <DistanceMeters>27054.458795272</DistanceMeters>
          </Trackpoint>
          <Trackpoint>
            <Time>2021-08-31T09:12:13.000Z</Time>
            <Position>
              <LatitudeDegrees>42.00646757148206233978271484375</LatitudeDegrees>
              <LongitudeDegrees>2.1918034739792346954345703125</LongitudeDegrees>
            </Position>
            <AltitudeMeters>582.20001220703125</AltitudeMeters>
            <DistanceMeters>27064.90525275</DistanceMeters>
          </Trackpoint>
          <Trackpoint>
            <Time>2021-08-31T09:12:15.000Z</Time>
            <Position>
              <LatitudeDegrees>42.0065171085298061370849609375</LatitudeDegrees>
              <LongitudeDegrees>2.19192559830844402313232421875</LongitudeDegrees>
            </Position>
            <AltitudeMeters>582.20001220703125</AltitudeMeters>
            <DistanceMeters>27076.412513109</DistanceMeters>
          </Trackpoint>
          <Trackpoint>
            <Time>2021-08-31T09:12:19.000Z</Time>
            <Position>
              <LatitudeDegrees>42.00661660172045230865478515625</LatitudeDegrees>
              <LongitudeDegrees>2.1921424381434917449951171875</LongitudeDegrees>
            </Position>
            <AltitudeMeters>584.20001220703125</AltitudeMeters>
            <DistanceMeters>27097.48960116</DistanceMeters>
          </Trackpoint>
          <Trackpoint>
            <Time>2021-08-31T09:12:21.000Z</Time>
            <Position>
              <LatitudeDegrees>42.00667594559490680694580078125</LatitudeDegrees>
              <LongitudeDegrees>2.19224159605801105499267578125</LongitudeDegrees>
            </Position>
            <AltitudeMeters>586.20001220703125</AltitudeMeters>
            <DistanceMeters>27108.020001852</DistanceMeters>
          </Trackpoint>
          <Trackpoint>
            <Time>2021-08-31T09:12:23.000Z</Time>
            <Position>
              <LatitudeDegrees>42.006723470985889434814453125</LatitudeDegrees>
              <LongitudeDegrees>2.19234921969473361968994140625</LongitudeDegrees>
            </Position>
            <AltitudeMeters>588</AltitudeMeters>
            <DistanceMeters>27118.374425912</DistanceMeters>
          </Trackpoint>
          <Trackpoint>
            <Time>2021-08-31T09:12:25.000Z</Time>
            <Position>
              <LatitudeDegrees>42.00675859116017818450927734375</LatitudeDegrees>
              <LongitudeDegrees>2.19246706925332546234130859375</LongitudeDegrees>
            </Position>
            <AltitudeMeters>589.20001220703125</AltitudeMeters>
            <DistanceMeters>27128.876060243</DistanceMeters>
          </Trackpoint>
          <Trackpoint>
            <Time>2021-08-31T09:12:28.000Z</Time>
            <Position>
              <LatitudeDegrees>42.0067906938493251800537109375</LatitudeDegrees>
              <LongitudeDegrees>2.192633114755153656005859375</LongitudeDegrees>
            </Position>
            <AltitudeMeters>591.20001220703125</AltitudeMeters>
            <DistanceMeters>27143.066256669</DistanceMeters>
          </Trackpoint>
          <Trackpoint>
            <Time>2021-08-31T09:12:33.000Z</Time>
            <Position>
              <LatitudeDegrees>42.00681039132177829742431640625</LatitudeDegrees>
              <LongitudeDegrees>2.19290091656148433685302734375</LongitudeDegrees>
            </Position>
            <AltitudeMeters>593</AltitudeMeters>
            <DistanceMeters>27165.323006286</DistanceMeters>
          </Trackpoint>
          <Trackpoint>
            <Time>2021-08-31T09:12:38.000Z</Time>
            <Position>
              <LatitudeDegrees>42.0068574137985706329345703125</LatitudeDegrees>
              <LongitudeDegrees>2.19327877275645732879638671875</LongitudeDegrees>
            </Position>
            <AltitudeMeters>596.20001220703125</AltitudeMeters>
            <DistanceMeters>27197.008680639</DistanceMeters>
          </Trackpoint>
          <Trackpoint>
            <Time>2021-08-31T09:12:40.000Z</Time>
            <Position>
              <LatitudeDegrees>42.00685791671276092529296875</LatitudeDegrees>
              <LongitudeDegrees>2.19344624318182468414306640625</LongitudeDegrees>
            </Position>
            <AltitudeMeters>594.4000244140625</AltitudeMeters>
            <DistanceMeters>27210.859129872</DistanceMeters>
          </Trackpoint>
          <Trackpoint>
            <Time>2021-08-31T09:12:42.000Z</Time>
            <Position>
              <LatitudeDegrees>42.00683872215449810028076171875</LatitudeDegrees>
              <LongitudeDegrees>2.193637602031230926513671875</LongitudeDegrees>
            </Position>
            <AltitudeMeters>591.5999755859375</AltitudeMeters>
            <DistanceMeters>27226.829273237</DistanceMeters>
          </Trackpoint>
          <Trackpoint>
            <Time>2021-08-31T09:12:43.000Z</Time>
            <Position>
              <LatitudeDegrees>42.00682103633880615234375</LatitudeDegrees>
              <LongitudeDegrees>2.1937353350222110748291015625</LongitudeDegrees>
            </Position>
            <AltitudeMeters>589.5999755859375</AltitudeMeters>
            <DistanceMeters>27235.148860723</DistanceMeters>
          </Trackpoint>
          <Trackpoint>
            <Time>2021-08-31T09:12:46.000Z</Time>
            <Position>
              <LatitudeDegrees>42.0067548193037509918212890625</LatitudeDegrees>
              <LongitudeDegrees>2.1940176375210285186767578125</LongitudeDegrees>
            </Position>
            <AltitudeMeters>587.5999755859375</AltitudeMeters>
            <DistanceMeters>27259.632212914</DistanceMeters>
          </Trackpoint>
          <Trackpoint>
            <Time>2021-08-31T09:12:53.000Z</Time>
            <Position>
              <LatitudeDegrees>42.00669354759156703948974609375</LatitudeDegrees>
              <LongitudeDegrees>2.1946893632411956787109375</LongitudeDegrees>
            </Position>
            <AltitudeMeters>585.5999755859375</AltitudeMeters>
            <DistanceMeters>27315.604077017</DistanceMeters>
          </Trackpoint>
          <Trackpoint>
            <Time>2021-08-31T09:12:59.000Z</Time>
            <Position>
              <LatitudeDegrees>42.0066917873919010162353515625</LatitudeDegrees>
              <LongitudeDegrees>2.19521381892263889312744140625</LongitudeDegrees>
            </Position>
            <AltitudeMeters>584.5999755859375</AltitudeMeters>
            <DistanceMeters>27358.979478538</DistanceMeters>
          </Trackpoint>
          <Trackpoint>
            <Time>2021-08-31T09:13:00.000Z</Time>
            <Position>
              <LatitudeDegrees>42.00670980848371982574462890625</LatitudeDegrees>
              <LongitudeDegrees>2.195298559963703155517578125</LongitudeDegrees>
            </Position>
            <AltitudeMeters>584.79998779296875</AltitudeMeters>
            <DistanceMeters>27366.269334495</DistanceMeters>
          </Trackpoint>
          <Trackpoint>
            <Time>2021-08-31T09:13:01.000Z</Time>
            <Position>
              <LatitudeDegrees>42.0067373849451541900634765625</LatitudeDegrees>
              <LongitudeDegrees>2.19537726603448390960693359375</LongitudeDegrees>
            </Position>
            <AltitudeMeters>585.20001220703125</AltitudeMeters>
            <DistanceMeters>27373.465686933</DistanceMeters>
          </Trackpoint>
          <Trackpoint>
            <Time>2021-08-31T09:13:03.000Z</Time>
            <Position>
              <LatitudeDegrees>42.0068124867975711822509765625</LatitudeDegrees>
              <LongitudeDegrees>2.195521853864192962646484375</LongitudeDegrees>
            </Position>
            <AltitudeMeters>587.20001220703125</AltitudeMeters>
            <DistanceMeters>27388.055924151</DistanceMeters>
          </Trackpoint>
          <Trackpoint>
            <Time>2021-08-31T09:13:04.000Z</Time>
            <Position>
              <LatitudeDegrees>42.00685163028538227081298828125</LatitudeDegrees>
              <LongitudeDegrees>2.19558656215667724609375</LongitudeDegrees>
            </Position>
            <AltitudeMeters>588.5999755859375</AltitudeMeters>
            <DistanceMeters>27394.95567509</DistanceMeters>
          </Trackpoint>
          <Trackpoint>
            <Time>2021-08-31T09:13:05.000Z</Time>
            <Position>
              <LatitudeDegrees>42.0068902708590030670166015625</LatitudeDegrees>
              <LongitudeDegrees>2.19566074199974536895751953125</LongitudeDegrees>
            </Position>
            <AltitudeMeters>590</AltitudeMeters>
            <DistanceMeters>27402.447734565</DistanceMeters>
          </Trackpoint>
          <Trackpoint>
            <Time>2021-08-31T09:13:07.000Z</Time>
            <Position>
              <LatitudeDegrees>42.00692187063395977020263671875</LatitudeDegrees>
              <LongitudeDegrees>2.1958304755389690399169921875</LongitudeDegrees>
            </Position>
            <AltitudeMeters>590.79998779296875</AltitudeMeters>
            <DistanceMeters>27416.919276739</DistanceMeters>
          </Trackpoint>
          <Trackpoint>
            <Time>2021-08-31T09:13:12.000Z</Time>
            <Position>
              <LatitudeDegrees>42.00695581734180450439453125</LatitudeDegrees>
              <LongitudeDegrees>2.19614655710756778717041015625</LongitudeDegrees>
            </Position>
            <AltitudeMeters>591</AltitudeMeters>
            <DistanceMeters>27443.332259264</DistanceMeters>
          </Trackpoint>
          <Trackpoint>
            <Time>2021-08-31T09:13:19.000Z</Time>
            <Position>
              <LatitudeDegrees>42.00696310959756374359130859375</LatitudeDegrees>
              <LongitudeDegrees>2.19657562673091888427734375</LongitudeDegrees>
            </Position>
            <AltitudeMeters>587.4000244140625</AltitudeMeters>
            <DistanceMeters>27478.827503816</DistanceMeters>
          </Trackpoint>
          <Trackpoint>
            <Time>2021-08-31T09:13:24.000Z</Time>
            <Position>
              <LatitudeDegrees>42.00706888921558856964111328125</LatitudeDegrees>
              <LongitudeDegrees>2.19696982763707637786865234375</LongitudeDegrees>
            </Position>
            <AltitudeMeters>585.5999755859375</AltitudeMeters>
            <DistanceMeters>27513.4903785</DistanceMeters>
          </Trackpoint>
          <Trackpoint>
            <Time>2021-08-31T09:13:26.000Z</Time>
            <Position>
              <LatitudeDegrees>42.0071469247341156005859375</LatitudeDegrees>
              <LongitudeDegrees>2.19710670411586761474609375</LongitudeDegrees>
            </Position>
            <AltitudeMeters>585.5999755859375</AltitudeMeters>
            <DistanceMeters>27527.7583161</DistanceMeters>
          </Trackpoint>
          <Trackpoint>
            <Time>2021-08-31T09:13:27.000Z</Time>
            <Position>
              <LatitudeDegrees>42.00719855725765228271484375</LatitudeDegrees>
              <LongitudeDegrees>2.19716143794357776641845703125</LongitudeDegrees>
            </Position>
            <AltitudeMeters>586</AltitudeMeters>
            <DistanceMeters>27535.073521703</DistanceMeters>
          </Trackpoint>
          <Trackpoint>
            <Time>2021-08-31T09:13:32.000Z</Time>
            <Position>
              <LatitudeDegrees>42.0074451528489589691162109375</LatitudeDegrees>
              <LongitudeDegrees>2.1974180079996585845947265625</LongitudeDegrees>
            </Position>
            <AltitudeMeters>584.5999755859375</AltitudeMeters>
            <DistanceMeters>27569.765951839</DistanceMeters>
          </Trackpoint>
          <Trackpoint>
            <Time>2021-08-31T09:13:34.000Z</Time>
            <Position>
              <LatitudeDegrees>42.0075668580830097198486328125</LatitudeDegrees>
              <LongitudeDegrees>2.1974562294781208038330078125</LongitudeDegrees>
            </Position>
            <AltitudeMeters>584.4000244140625</AltitudeMeters>
            <DistanceMeters>27583.675603808</DistanceMeters>
          </Trackpoint>
          <Trackpoint>
            <Time>2021-08-31T09:13:35.000Z</Time>
            <Position>
              <LatitudeDegrees>42.00762863270938396453857421875</LatitudeDegrees>
              <LongitudeDegrees>2.1974555589258670806884765625</LongitudeDegrees>
            </Position>
            <AltitudeMeters>585</AltitudeMeters>
            <DistanceMeters>27590.551756821</DistanceMeters>
          </Trackpoint>
          <Trackpoint>
            <Time>2021-08-31T09:13:36.000Z</Time>
            <Position>
              <LatitudeDegrees>42.007691748440265655517578125</LatitudeDegrees>
              <LongitudeDegrees>2.19745899550616741180419921875</LongitudeDegrees>
            </Position>
            <AltitudeMeters>585.20001220703125</AltitudeMeters>
            <DistanceMeters>27597.582449422</DistanceMeters>
          </Trackpoint>
          <Trackpoint>
            <Time>2021-08-31T09:13:40.000Z</Time>
            <Position>
              <LatitudeDegrees>42.00793524272739887237548828125</LatitudeDegrees>
              <LongitudeDegrees>2.1975175850093364715576171875</LongitudeDegrees>
            </Position>
            <AltitudeMeters>585.20001220703125</AltitudeMeters>
            <DistanceMeters>27625.113641851</DistanceMeters>
          </Trackpoint>
          <Trackpoint>
            <Time>2021-08-31T09:13:41.000Z</Time>
            <Position>
              <LatitudeDegrees>42.00799441896378993988037109375</LatitudeDegrees>
              <LongitudeDegrees>2.1975269727408885955810546875</LongitudeDegrees>
            </Position>
            <AltitudeMeters>585</AltitudeMeters>
            <DistanceMeters>27631.746479286</DistanceMeters>
          </Trackpoint>
          <Trackpoint>
            <Time>2021-08-31T09:13:43.000Z</Time>
            <Position>
              <LatitudeDegrees>42.00811327435076236724853515625</LatitudeDegrees>
              <LongitudeDegrees>2.1975138969719409942626953125</LongitudeDegrees>
            </Position>
            <AltitudeMeters>585.5999755859375</AltitudeMeters>
            <DistanceMeters>27645.019639852</DistanceMeters>
          </Trackpoint>
          <Trackpoint>
            <Time>2021-08-31T09:13:44.000Z</Time>
            <Position>
              <LatitudeDegrees>42.00817010365426540374755859375</LatitudeDegrees>
              <LongitudeDegrees>2.19749989919364452362060546875</LongitudeDegrees>
            </Position>
            <AltitudeMeters>585.79998779296875</AltitudeMeters>
            <DistanceMeters>27651.449936893</DistanceMeters>
          </Trackpoint>
          <Trackpoint>
            <Time>2021-08-31T09:13:50.000Z</Time>
            <Position>
              <LatitudeDegrees>42.0085398294031620025634765625</LatitudeDegrees>
              <LongitudeDegrees>2.197418175637722015380859375</LongitudeDegrees>
            </Position>
            <AltitudeMeters>588.5999755859375</AltitudeMeters>
            <DistanceMeters>27693.152592114</DistanceMeters>
          </Trackpoint>
          <Trackpoint>
            <Time>2021-08-31T09:13:56.000Z</Time>
            <Position>
              <LatitudeDegrees>42.0088657177984714508056640625</LatitudeDegrees>
              <LongitudeDegrees>2.19724877737462520599365234375</LongitudeDegrees>
            </Position>
            <AltitudeMeters>590</AltitudeMeters>
            <DistanceMeters>27732.036172057</DistanceMeters>
          </Trackpoint>
          <Trackpoint>
            <Time>2021-08-31T09:13:58.000Z</Time>
            <Position>
              <LatitudeDegrees>42.00896990485489368438720703125</LatitudeDegrees>
              <LongitudeDegrees>2.19716127030551433563232421875</LongitudeDegrees>
            </Position>
            <AltitudeMeters>589.4000244140625</AltitudeMeters>
            <DistanceMeters>27745.705493247</DistanceMeters>
          </Trackpoint>
          <Trackpoint>
            <Time>2021-08-31T09:14:02.000Z</Time>
            <Position>
              <LatitudeDegrees>42.0091574080288410186767578125</LatitudeDegrees>
              <LongitudeDegrees>2.196940071880817413330078125</LongitudeDegrees>
            </Position>
            <AltitudeMeters>590.79998779296875</AltitudeMeters>
            <DistanceMeters>27773.457849544</DistanceMeters>
          </Trackpoint>
          <Trackpoint>
            <Time>2021-08-31T09:14:03.000Z</Time>
            <Position>
              <LatitudeDegrees>42.00919940136373043060302734375</LatitudeDegrees>
              <LongitudeDegrees>2.19688030891120433807373046875</LongitudeDegrees>
            </Position>
            <AltitudeMeters>590.4000244140625</AltitudeMeters>
            <DistanceMeters>27780.260063279</DistanceMeters>
          </Trackpoint>
          <Trackpoint>
            <Time>2021-08-31T09:14:07.000Z</Time>
            <Position>
              <LatitudeDegrees>42.0093843899667263031005859375</LatitudeDegrees>
              <LongitudeDegrees>2.1966609545052051544189453125</LongitudeDegrees>
            </Position>
            <AltitudeMeters>591.4000244140625</AltitudeMeters>
            <DistanceMeters>27807.701402619</DistanceMeters>
          </Trackpoint>
          <Trackpoint>
            <Time>2021-08-31T09:14:09.000Z</Time>
            <Position>
              <LatitudeDegrees>42.00950332917273044586181640625</LatitudeDegrees>
              <LongitudeDegrees>2.19660957343876361846923828125</LongitudeDegrees>
            </Position>
            <AltitudeMeters>590.5999755859375</AltitudeMeters>
            <DistanceMeters>27821.605210605</DistanceMeters>
          </Trackpoint>
          <Trackpoint>
            <Time>2021-08-31T09:14:10.000Z</Time>
            <Position>
              <LatitudeDegrees>42.00956024229526519775390625</LatitudeDegrees>
              <LongitudeDegrees>2.19661292620003223419189453125</LongitudeDegrees>
            </Position>
            <AltitudeMeters>590.20001220703125</AltitudeMeters>
            <DistanceMeters>27827.944995321</DistanceMeters>
          </Trackpoint>
          <Trackpoint>
            <Time>2021-08-31T09:14:11.000Z</Time>
            <Position>
              <LatitudeDegrees>42.00960877351462841033935546875</LatitudeDegrees>
              <LongitudeDegrees>2.19664528034627437591552734375</LongitudeDegrees>
            </Position>
            <AltitudeMeters>590.20001220703125</AltitudeMeters>
            <DistanceMeters>27833.973015528</DistanceMeters>
          </Trackpoint>
          <Trackpoint>
            <Time>2021-08-31T09:14:13.000Z</Time>
            <Position>
              <LatitudeDegrees>42.00965537689626216888427734375</LatitudeDegrees>
              <LongitudeDegrees>2.19675374217331409454345703125</LongitudeDegrees>
            </Position>
            <AltitudeMeters>590.79998779296875</AltitudeMeters>
            <DistanceMeters>27844.334849773</DistanceMeters>
          </Trackpoint>
          <Trackpoint>
            <Time>2021-08-31T09:14:15.000Z</Time>
            <Position>
              <LatitudeDegrees>42.00964850373566150665283203125</LatitudeDegrees>
              <LongitudeDegrees>2.19689346849918365478515625</LongitudeDegrees>
            </Position>
            <AltitudeMeters>591</AltitudeMeters>
            <DistanceMeters>27855.9156397</DistanceMeters>
          </Trackpoint>
          <Trackpoint>
            <Time>2021-08-31T09:14:16.000Z</Time>
            <Position>
              <LatitudeDegrees>42.009626291692256927490234375</LatitudeDegrees>
              <LongitudeDegrees>2.1969593502581119537353515625</LongitudeDegrees>
            </Position>
            <AltitudeMeters>591</AltitudeMeters>
            <DistanceMeters>27861.898550616</DistanceMeters>
          </Trackpoint>
          <Trackpoint>
            <Time>2021-08-31T09:14:20.000Z</Time>
            <Position>
              <LatitudeDegrees>42.0095091126859188079833984375</LatitudeDegrees>
              <LongitudeDegrees>2.1972346119582653045654296875</LongitudeDegrees>
            </Position>
            <AltitudeMeters>590.79998779296875</AltitudeMeters>
            <DistanceMeters>27888.134529862</DistanceMeters>
          </Trackpoint>
          <Trackpoint>
            <Time>2021-08-31T09:14:21.000Z</Time>
            <Position>
              <LatitudeDegrees>42.00949746184051036834716796875</LatitudeDegrees>
              <LongitudeDegrees>2.19731449149549007415771484375</LongitudeDegrees>
            </Position>
            <AltitudeMeters>591.4000244140625</AltitudeMeters>
            <DistanceMeters>27894.866688036</DistanceMeters>
          </Trackpoint>
          <Trackpoint>
            <Time>2021-08-31T09:14:22.000Z</Time>
            <Position>
              <LatitudeDegrees>42.00949586927890777587890625</LatitudeDegrees>
              <LongitudeDegrees>2.1973983943462371826171875</LongitudeDegrees>
            </Position>
            <AltitudeMeters>591.4000244140625</AltitudeMeters>
            <DistanceMeters>27901.806891761</DistanceMeters>
          </Trackpoint>
          <Trackpoint>
            <Time>2021-08-31T09:14:25.000Z</Time>
            <Position>
              <LatitudeDegrees>42.0095111243426799774169921875</LatitudeDegrees>
              <LongitudeDegrees>2.19764423556625843048095703125</LongitudeDegrees>
            </Position>
            <AltitudeMeters>592.4000244140625</AltitudeMeters>
            <DistanceMeters>27922.208886117</DistanceMeters>
          </Trackpoint>
          <Trackpoint>
            <Time>2021-08-31T09:14:26.000Z</Time>
            <Position>
              <LatitudeDegrees>42.00951154343783855438232421875</LatitudeDegrees>
              <LongitudeDegrees>2.19772227108478546142578125</LongitudeDegrees>
            </Position>
            <AltitudeMeters>592.79998779296875</AltitudeMeters>
            <DistanceMeters>27928.662312537</DistanceMeters>
          </Trackpoint>
          <Trackpoint>
            <Time>2021-08-31T09:14:28.000Z</Time>
            <Position>
              <LatitudeDegrees>42.00948170386254787445068359375</LatitudeDegrees>
              <LongitudeDegrees>2.19787473790347576141357421875</LongitudeDegrees>
            </Position>
            <AltitudeMeters>594.20001220703125</AltitudeMeters>
            <DistanceMeters>27941.701764571</DistanceMeters>
          </Trackpoint>
          <Trackpoint>
            <Time>2021-08-31T09:14:29.000Z</Time>
            <Position>
              <LatitudeDegrees>42.009452283382415771484375</LatitudeDegrees>
              <LongitudeDegrees>2.19794355332851409912109375</LongitudeDegrees>
            </Position>
            <AltitudeMeters>594</AltitudeMeters>
            <DistanceMeters>27948.267553552</DistanceMeters>
          </Trackpoint>
          <Trackpoint>
            <Time>2021-08-31T09:14:30.000Z</Time>
            <Position>
              <LatitudeDegrees>42.0094125531613826751708984375</LatitudeDegrees>
              <LongitudeDegrees>2.19799518585205078125</LongitudeDegrees>
            </Position>
            <AltitudeMeters>593.5999755859375</AltitudeMeters>
            <DistanceMeters>27954.41424696</DistanceMeters>
          </Trackpoint>
          <Trackpoint>
            <Time>2021-08-31T09:14:32.000Z</Time>
            <Position>
              <LatitudeDegrees>42.00931658037006855010986328125</LatitudeDegrees>
              <LongitudeDegrees>2.198059894144535064697265625</LongitudeDegrees>
            </Position>
            <AltitudeMeters>591.79998779296875</AltitudeMeters>
            <DistanceMeters>27966.361943324</DistanceMeters>
          </Trackpoint>
          <Trackpoint>
            <Time>2021-08-31T09:14:33.000Z</Time>
            <Position>
              <LatitudeDegrees>42.0092710666358470916748046875</LatitudeDegrees>
              <LongitudeDegrees>2.19809367321431636810302734375</LongitudeDegrees>
            </Position>
            <AltitudeMeters>592</AltitudeMeters>
            <DistanceMeters>27972.14687749</DistanceMeters>
          </Trackpoint>
          <Trackpoint>
            <Time>2021-08-31T09:14:36.000Z</Time>
            <Position>
              <LatitudeDegrees>42.00915480963885784149169921875</LatitudeDegrees>
              <LongitudeDegrees>2.1982203237712383270263671875</LongitudeDegrees>
            </Position>
            <AltitudeMeters>593</AltitudeMeters>
            <DistanceMeters>27988.794462184</DistanceMeters>
          </Trackpoint>
          <Trackpoint>
            <Time>2021-08-31T09:14:43.000Z</Time>
            <Position>
              <LatitudeDegrees>42.0088206231594085693359375</LatitudeDegrees>
              <LongitudeDegrees>2.198604382574558258056640625</LongitudeDegrees>
            </Position>
            <AltitudeMeters>592.79998779296875</AltitudeMeters>
            <DistanceMeters>28037.706273054</DistanceMeters>
          </Trackpoint>
          <Trackpoint>
            <Time>2021-08-31T09:14:47.000Z</Time>
            <Position>
              <LatitudeDegrees>42.0086414180696010589599609375</LatitudeDegrees>
              <LongitudeDegrees>2.1988110803067684173583984375</LongitudeDegrees>
            </Position>
            <AltitudeMeters>590.4000244140625</AltitudeMeters>
            <DistanceMeters>28063.97510157</DistanceMeters>
          </Trackpoint>
          <Trackpoint>
            <Time>2021-08-31T09:14:48.000Z</Time>
            <Position>
              <LatitudeDegrees>42.00861384160816669464111328125</LatitudeDegrees>
              <LongitudeDegrees>2.1988697536289691925048828125</LongitudeDegrees>
            </Position>
            <AltitudeMeters>590.20001220703125</AltitudeMeters>
            <DistanceMeters>28069.71773504</DistanceMeters>
          </Trackpoint>
          <Trackpoint>
            <Time>2021-08-31T09:14:49.000Z</Time>
            <Position>
              <LatitudeDegrees>42.00860965065658092498779296875</LatitudeDegrees>
              <LongitudeDegrees>2.1989257447421550750732421875</LongitudeDegrees>
            </Position>
            <AltitudeMeters>590.4000244140625</AltitudeMeters>
            <DistanceMeters>28074.37210432</DistanceMeters>
          </Trackpoint>
          <Trackpoint>
            <Time>2021-08-31T09:14:51.000Z</Time>
            <Position>
              <LatitudeDegrees>42.00864720158278942108154296875</LatitudeDegrees>
              <LongitudeDegrees>2.19901065342128276824951171875</LongitudeDegrees>
            </Position>
            <AltitudeMeters>591.4000244140625</AltitudeMeters>
            <DistanceMeters>28082.544401755</DistanceMeters>
          </Trackpoint>
          <Trackpoint>
            <Time>2021-08-31T09:14:52.000Z</Time>
            <Position>
              <LatitudeDegrees>42.00867368839681148529052734375</LatitudeDegrees>
              <LongitudeDegrees>2.1990541554987430572509765625</LongitudeDegrees>
            </Position>
            <AltitudeMeters>592</AltitudeMeters>
            <DistanceMeters>28087.195859931</DistanceMeters>
          </Trackpoint>
          <Trackpoint>
            <Time>2021-08-31T09:14:55.000Z</Time>
            <Position>
              <LatitudeDegrees>42.0087433420121669769287109375</LatitudeDegrees>
              <LongitudeDegrees>2.199198491871356964111328125</LongitudeDegrees>
            </Position>
            <AltitudeMeters>593.4000244140625</AltitudeMeters>
            <DistanceMeters>28101.429580284</DistanceMeters>
          </Trackpoint>
          <Trackpoint>
            <Time>2021-08-31T09:14:56.000Z</Time>
            <Position>
              <LatitudeDegrees>42.008755914866924285888671875</LatitudeDegrees>
              <LongitudeDegrees>2.1992512978613376617431640625</LongitudeDegrees>
            </Position>
            <AltitudeMeters>593.5999755859375</AltitudeMeters>
            <DistanceMeters>28106.016526776</DistanceMeters>
          </Trackpoint>
          <Trackpoint>
            <Time>2021-08-31T09:14:57.000Z</Time>
            <Position>
              <LatitudeDegrees>42.00875298120081424713134765625</LatitudeDegrees>
              <LongitudeDegrees>2.19931240193545818328857421875</LongitudeDegrees>
            </Position>
            <AltitudeMeters>593.79998779296875</AltitudeMeters>
            <DistanceMeters>28111.080657214</DistanceMeters>
          </Trackpoint>
          <Trackpoint>
            <Time>2021-08-31T09:14:59.000Z</Time>
            <Position>
              <LatitudeDegrees>42.00870621018111705780029296875</LatitudeDegrees>
              <LongitudeDegrees>2.1994444169104099273681640625</LongitudeDegrees>
            </Position>
            <AltitudeMeters>594</AltitudeMeters>
            <DistanceMeters>28123.175583357</DistanceMeters>
          </Trackpoint>
          <Trackpoint>
            <Time>2021-08-31T09:15:01.000Z</Time>
            <Position>
              <LatitudeDegrees>42.00866430066525936126708984375</LatitudeDegrees>
              <LongitudeDegrees>2.19960249960422515869140625</LongitudeDegrees>
            </Position>
            <AltitudeMeters>594.20001220703125</AltitudeMeters>
            <DistanceMeters>28137.056641356</DistanceMeters>
          </Trackpoint>
          <Trackpoint>
            <Time>2021-08-31T09:15:03.000Z</Time>
            <Position>
              <LatitudeDegrees>42.00866245664656162261962890625</LatitudeDegrees>
              <LongitudeDegrees>2.19977013766765594482421875</LongitudeDegrees>
            </Position>
            <AltitudeMeters>594.4000244140625</AltitudeMeters>
            <DistanceMeters>28150.922729039</DistanceMeters>
          </Trackpoint>
          <Trackpoint>
            <Time>2021-08-31T09:15:05.000Z</Time>
            <Position>
              <LatitudeDegrees>42.0087004266679286956787109375</LatitudeDegrees>
              <LongitudeDegrees>2.199920676648616790771484375</LongitudeDegrees>
            </Position>
            <AltitudeMeters>595.4000244140625</AltitudeMeters>
            <DistanceMeters>28164.070800511</DistanceMeters>
          </Trackpoint>
          <Trackpoint>
            <Time>2021-08-31T09:15:07.000Z</Time>
            <Position>
              <LatitudeDegrees>42.0087601058185100555419921875</LatitudeDegrees>
              <LongitudeDegrees>2.2000537812709808349609375</LongitudeDegrees>
            </Position>
            <AltitudeMeters>596.5999755859375</AltitudeMeters>
            <DistanceMeters>28176.927532184</DistanceMeters>
          </Trackpoint>
          <Trackpoint>
            <Time>2021-08-31T09:15:09.000Z</Time>
            <Position>
              <LatitudeDegrees>42.0088439248502254486083984375</LatitudeDegrees>
              <LongitudeDegrees>2.20015176571905612945556640625</LongitudeDegrees>
            </Position>
            <AltitudeMeters>598.4000244140625</AltitudeMeters>
            <DistanceMeters>28189.284659385</DistanceMeters>
          </Trackpoint>
          <Trackpoint>
            <Time>2021-08-31T09:15:11.000Z</Time>
            <Position>
              <LatitudeDegrees>42.00891676358878612518310546875</LatitudeDegrees>
              <LongitudeDegrees>2.20026223920285701751708984375</LongitudeDegrees>
            </Position>
            <AltitudeMeters>600.4000244140625</AltitudeMeters>
            <DistanceMeters>28201.499196749</DistanceMeters>
          </Trackpoint>
          <Trackpoint>
            <Time>2021-08-31T09:15:13.000Z</Time>
            <Position>
              <LatitudeDegrees>42.0089012570679187774658203125</LatitudeDegrees>
              <LongitudeDegrees>2.2003815136849880218505859375</LongitudeDegrees>
            </Position>
            <AltitudeMeters>601.4000244140625</AltitudeMeters>
            <DistanceMeters>28211.513587843</DistanceMeters>
          </Trackpoint>
          <Trackpoint>
            <Time>2021-08-31T09:15:15.000Z</Time>
            <Position>
              <LatitudeDegrees>42.00882825069129467010498046875</LatitudeDegrees>
              <LongitudeDegrees>2.2004354931414127349853515625</LongitudeDegrees>
            </Position>
            <AltitudeMeters>601.79998779296875</AltitudeMeters>
            <DistanceMeters>28220.784903697</DistanceMeters>
          </Trackpoint>
          <Trackpoint>
            <Time>2021-08-31T09:15:16.000Z</Time>
            <Position>
              <LatitudeDegrees>42.00878240168094635009765625</LatitudeDegrees>
              <LongitudeDegrees>2.2004435397684574127197265625</LongitudeDegrees>
            </Position>
            <AltitudeMeters>601.5999755859375</AltitudeMeters>
            <DistanceMeters>28225.932159693</DistanceMeters>
          </Trackpoint>
          <Trackpoint>
            <Time>2021-08-31T09:15:17.000Z</Time>
            <Position>
              <LatitudeDegrees>42.008734457194805145263671875</LatitudeDegrees>
              <LongitudeDegrees>2.20044697634875774383544921875</LongitudeDegrees>
            </Position>
            <AltitudeMeters>601.4000244140625</AltitudeMeters>
            <DistanceMeters>28231.275669936</DistanceMeters>
          </Trackpoint>
          <Trackpoint>
            <Time>2021-08-31T09:15:19.000Z</Time>
            <Position>
              <LatitudeDegrees>42.00863881967961788177490234375</LatitudeDegrees>
              <LongitudeDegrees>2.20047262497246265411376953125</LongitudeDegrees>
            </Position>
            <AltitudeMeters>602</AltitudeMeters>
            <DistanceMeters>28242.12870256</DistanceMeters>
          </Trackpoint>
          <Trackpoint>
            <Time>2021-08-31T09:15:21.000Z</Time>
            <Position>
              <LatitudeDegrees>42.0085368119180202484130859375</LatitudeDegrees>
              <LongitudeDegrees>2.20051310956478118896484375</LongitudeDegrees>
            </Position>
            <AltitudeMeters>603.20001220703125</AltitudeMeters>
            <DistanceMeters>28253.965537699</DistanceMeters>
          </Trackpoint>
          <Trackpoint>
            <Time>2021-08-31T09:15:24.000Z</Time>
            <Position>
              <LatitudeDegrees>42.0083651505410671234130859375</LatitudeDegrees>
              <LongitudeDegrees>2.20056851394474506378173828125</LongitudeDegrees>
            </Position>
            <AltitudeMeters>605</AltitudeMeters>
            <DistanceMeters>28273.613330653</DistanceMeters>
          </Trackpoint>
          <Trackpoint>
            <Time>2021-08-31T09:15:26.000Z</Time>
            <Position>
              <LatitudeDegrees>42.0082478038966655731201171875</LatitudeDegrees>
              <LongitudeDegrees>2.20056616701185703277587890625</LongitudeDegrees>
            </Position>
            <AltitudeMeters>604</AltitudeMeters>
            <DistanceMeters>28286.675961494</DistanceMeters>
          </Trackpoint>
          <Trackpoint>
            <Time>2021-08-31T09:15:32.000Z</Time>
            <Position>
              <LatitudeDegrees>42.0078682713210582733154296875</LatitudeDegrees>
              <LongitudeDegrees>2.200532890856266021728515625</LongitudeDegrees>
            </Position>
            <AltitudeMeters>600.5999755859375</AltitudeMeters>
            <DistanceMeters>28329.008202993</DistanceMeters>
          </Trackpoint>
          <Trackpoint>
            <Time>2021-08-31T09:15:33.000Z</Time>
            <Position>
              <LatitudeDegrees>42.00780808925628662109375</LatitudeDegrees>
              <LongitudeDegrees>2.2005471400916576385498046875</LongitudeDegrees>
            </Position>
            <AltitudeMeters>600.79998779296875</AltitudeMeters>
            <DistanceMeters>28335.809089078</DistanceMeters>
          </Trackpoint>
          <Trackpoint>
            <Time>2021-08-31T09:15:34.000Z</Time>
            <Position>
              <LatitudeDegrees>42.0077515952289104461669921875</LatitudeDegrees>
              <LongitudeDegrees>2.2005726210772991180419921875</LongitudeDegrees>
            </Position>
            <AltitudeMeters>601.20001220703125</AltitudeMeters>
            <DistanceMeters>28342.440564953</DistanceMeters>
          </Trackpoint>
          <Trackpoint>
            <Time>2021-08-31T09:15:36.000Z</Time>
            <Position>
              <LatitudeDegrees>42.00765528716146945953369140625</LatitudeDegrees>
              <LongitudeDegrees>2.20065652392804622650146484375</LongitudeDegrees>
            </Position>
            <AltitudeMeters>601.5999755859375</AltitudeMeters>
            <DistanceMeters>28355.209906767</DistanceMeters>
          </Trackpoint>
          <Trackpoint>
            <Time>2021-08-31T09:15:42.000Z</Time>
            <Position>
              <LatitudeDegrees>42.007381953299045562744140625</LatitudeDegrees>
              <LongitudeDegrees>2.200975455343723297119140625</LongitudeDegrees>
            </Position>
            <AltitudeMeters>604.5999755859375</AltitudeMeters>
            <DistanceMeters>28395.474778861</DistanceMeters>
          </Trackpoint>
          <Trackpoint>
            <Time>2021-08-31T09:15:44.000Z</Time>
            <Position>
              <LatitudeDegrees>42.007263600826263427734375</LatitudeDegrees>
              <LongitudeDegrees>2.20103479921817779541015625</LongitudeDegrees>
            </Position>
            <AltitudeMeters>603.79998779296875</AltitudeMeters>
            <DistanceMeters>28409.532310397</DistanceMeters>
          </Trackpoint>
          <Trackpoint>
            <Time>2021-08-31T09:15:46.000Z</Time>
            <Position>
              <LatitudeDegrees>42.007133178412914276123046875</LatitudeDegrees>
              <LongitudeDegrees>2.2010408341884613037109375</LongitudeDegrees>
            </Position>
            <AltitudeMeters>602</AltitudeMeters>
            <DistanceMeters>28424.05710561</DistanceMeters>
          </Trackpoint>
          <Trackpoint>
            <Time>2021-08-31T09:15:50.000Z</Time>
            <Position>
              <LatitudeDegrees>42.00689169578254222869873046875</LatitudeDegrees>
              <LongitudeDegrees>2.2009417600929737091064453125</LongitudeDegrees>
            </Position>
            <AltitudeMeters>598.20001220703125</AltitudeMeters>
            <DistanceMeters>28452.155783582</DistanceMeters>
          </Trackpoint>
          <Trackpoint>
            <Time>2021-08-31T09:15:52.000Z</Time>
            <Position>
              <LatitudeDegrees>42.006754986941814422607421875</LatitudeDegrees>
              <LongitudeDegrees>2.20094854943454265594482421875</LongitudeDegrees>
            </Position>
            <AltitudeMeters>598.4000244140625</AltitudeMeters>
            <DistanceMeters>28467.382016952</DistanceMeters>
          </Trackpoint>
          <Trackpoint>
            <Time>2021-08-31T09:15:53.000Z</Time>
            <Position>
              <LatitudeDegrees>42.00669337995350360870361328125</LatitudeDegrees>
              <LongitudeDegrees>2.20097285695374011993408203125</LongitudeDegrees>
            </Position>
            <AltitudeMeters>599.4000244140625</AltitudeMeters>
            <DistanceMeters>28474.528000599</DistanceMeters>
          </Trackpoint>
          <Trackpoint>
            <Time>2021-08-31T09:15:55.000Z</Time>
            <Position>
              <LatitudeDegrees>42.00657418929040431976318359375</LatitudeDegrees>
              <LongitudeDegrees>2.20104360021650791168212890625</LongitudeDegrees>
            </Position>
            <AltitudeMeters>602.20001220703125</AltitudeMeters>
            <DistanceMeters>28489.026972274</DistanceMeters>
          </Trackpoint>
          <Trackpoint>
            <Time>2021-08-31T09:15:57.000Z</Time>
            <Position>
              <LatitudeDegrees>42.00647545047104358673095703125</LatitudeDegrees>
              <LongitudeDegrees>2.2011348791420459747314453125</LongitudeDegrees>
            </Position>
            <AltitudeMeters>603.5999755859375</AltitudeMeters>
            <DistanceMeters>28502.359189821</DistanceMeters>
          </Trackpoint>
          <Trackpoint>
            <Time>2021-08-31T09:15:59.000Z</Time>
            <Position>
              <LatitudeDegrees>42.00635097920894622802734375</LatitudeDegrees>
              <LongitudeDegrees>2.20117838121950626373291015625</LongitudeDegrees>
            </Position>
            <AltitudeMeters>603.5999755859375</AltitudeMeters>
            <DistanceMeters>28516.671992279</DistanceMeters>
          </Trackpoint>
          <Trackpoint>
            <Time>2021-08-31T09:16:00.000Z</Time>
            <Position>
              <LatitudeDegrees>42.006283588707447052001953125</LatitudeDegrees>
              <LongitudeDegrees>2.20117771066725254058837890625</LongitudeDegrees>
            </Position>
            <AltitudeMeters>603.4000244140625</AltitudeMeters>
            <DistanceMeters>28524.173085954</DistanceMeters>
          </Trackpoint>
          <Trackpoint>
            <Time>2021-08-31T09:16:04.000Z</Time>
            <Position>
              <LatitudeDegrees>42.00600271113216876983642578125</LatitudeDegrees>
              <LongitudeDegrees>2.20112356357276439666748046875</LongitudeDegrees>
            </Position>
            <AltitudeMeters>601.4000244140625</AltitudeMeters>
            <DistanceMeters>28555.754567924</DistanceMeters>
          </Trackpoint>
          <Trackpoint>
            <Time>2021-08-31T09:16:05.000Z</Time>
            <Position>
              <LatitudeDegrees>42.00593364425003528594970703125</LatitudeDegrees>
              <LongitudeDegrees>2.20113714225590229034423828125</LongitudeDegrees>
            </Position>
            <AltitudeMeters>601</AltitudeMeters>
            <DistanceMeters>28563.523546682</DistanceMeters>
          </Trackpoint>
          <Trackpoint>
            <Time>2021-08-31T09:16:06.000Z</Time>
            <Position>
              <LatitudeDegrees>42.0058713667094707489013671875</LatitudeDegrees>
              <LongitudeDegrees>2.20116899348795413970947265625</LongitudeDegrees>
            </Position>
            <AltitudeMeters>601.20001220703125</AltitudeMeters>
            <DistanceMeters>28570.938675505</DistanceMeters>
          </Trackpoint>
          <Trackpoint>
            <Time>2021-08-31T09:16:09.000Z</Time>
            <Position>
              <LatitudeDegrees>42.0056836120784282684326171875</LatitudeDegrees>
              <LongitudeDegrees>2.2012974880635738372802734375</LongitudeDegrees>
            </Position>
            <AltitudeMeters>600.79998779296875</AltitudeMeters>
            <DistanceMeters>28594.383135256</DistanceMeters>
          </Trackpoint>
          <Trackpoint>
            <Time>2021-08-31T09:16:15.000Z</Time>
            <Position>
              <LatitudeDegrees>42.00527884997427463531494140625</LatitudeDegrees>
              <LongitudeDegrees>2.2016455046832561492919921875</LongitudeDegrees>
            </Position>
            <AltitudeMeters>599.4000244140625</AltitudeMeters>
            <DistanceMeters>28647.843833762</DistanceMeters>
          </Trackpoint>
          <Trackpoint>
            <Time>2021-08-31T09:16:18.000Z</Time>
            <Position>
              <LatitudeDegrees>42.0050660334527492523193359375</LatitudeDegrees>
              <LongitudeDegrees>2.2017719037830829620361328125</LongitudeDegrees>
            </Position>
            <AltitudeMeters>596.4000244140625</AltitudeMeters>
            <DistanceMeters>28673.735082378</DistanceMeters>
          </Trackpoint>
          <Trackpoint>
            <Time>2021-08-31T09:16:19.000Z</Time>
            <Position>
              <LatitudeDegrees>42.0050026662647724151611328125</LatitudeDegrees>
              <LongitudeDegrees>2.20183384604752063751220703125</LongitudeDegrees>
            </Position>
            <AltitudeMeters>595.4000244140625</AltitudeMeters>
            <DistanceMeters>28682.452197341</DistanceMeters>
          </Trackpoint>
          <Trackpoint>
            <Time>2021-08-31T09:16:20.000Z</Time>
            <Position>
              <LatitudeDegrees>42.004949189722537994384765625</LatitudeDegrees>
              <LongitudeDegrees>2.201912216842174530029296875</LongitudeDegrees>
            </Position>
            <AltitudeMeters>595.4000244140625</AltitudeMeters>
            <DistanceMeters>28691.252307316</DistanceMeters>
          </Trackpoint>
          <Trackpoint>
            <Time>2021-08-31T09:16:22.000Z</Time>
            <Position>
              <LatitudeDegrees>42.0048621855676174163818359375</LatitudeDegrees>
              <LongitudeDegrees>2.20209418796002864837646484375</LongitudeDegrees>
            </Position>
            <AltitudeMeters>596.20001220703125</AltitudeMeters>
            <DistanceMeters>28709.148640777</DistanceMeters>
          </Trackpoint>
          <Trackpoint>
            <Time>2021-08-31T09:16:27.000Z</Time>
            <Position>
              <LatitudeDegrees>42.00465708039700984954833984375</LatitudeDegrees>
              <LongitudeDegrees>2.20255167223513126373291015625</LongitudeDegrees>
            </Position>
            <AltitudeMeters>595.5999755859375</AltitudeMeters>
            <DistanceMeters>28753.339230402</DistanceMeters>
          </Trackpoint>
          <Trackpoint>
            <Time>2021-08-31T09:16:33.000Z</Time>
            <Position>
              <LatitudeDegrees>42.00437016785144805908203125</LatitudeDegrees>
              <LongitudeDegrees>2.20320143736898899078369140625</LongitudeDegrees>
            </Position>
            <AltitudeMeters>589.20001220703125</AltitudeMeters>
            <DistanceMeters>28815.851787234</DistanceMeters>
          </Trackpoint>
          <Trackpoint>
            <Time>2021-08-31T09:16:36.000Z</Time>
            <Position>
              <LatitudeDegrees>42.00419775210320949554443359375</LatitudeDegrees>
              <LongitudeDegrees>2.2035555727779865264892578125</LongitudeDegrees>
            </Position>
            <AltitudeMeters>583.4000244140625</AltitudeMeters>
            <DistanceMeters>28850.868325612</DistanceMeters>
          </Trackpoint>
          <Trackpoint>
            <Time>2021-08-31T09:16:37.000Z</Time>
            <Position>
              <LatitudeDegrees>42.0041312836110591888427734375</LatitudeDegrees>
              <LongitudeDegrees>2.203619778156280517578125</LongitudeDegrees>
            </Position>
            <AltitudeMeters>581.5999755859375</AltitudeMeters>
            <DistanceMeters>28859.975038634</DistanceMeters>
          </Trackpoint>
          <Trackpoint>
            <Time>2021-08-31T09:16:38.000Z</Time>
            <Position>
              <LatitudeDegrees>42.004049979150295257568359375</LatitudeDegrees>
              <LongitudeDegrees>2.20364936627447605133056640625</LongitudeDegrees>
            </Position>
            <AltitudeMeters>579.20001220703125</AltitudeMeters>
            <DistanceMeters>28869.349991116</DistanceMeters>
          </Trackpoint>
          <Trackpoint>
            <Time>2021-08-31T09:16:39.000Z</Time>
            <Position>
              <LatitudeDegrees>42.00395752675831317901611328125</LatitudeDegrees>
              <LongitudeDegrees>2.2036571614444255828857421875</LongitudeDegrees>
            </Position>
            <AltitudeMeters>577.5999755859375</AltitudeMeters>
            <DistanceMeters>28879.660280146</DistanceMeters>
          </Trackpoint>
          <Trackpoint>
            <Time>2021-08-31T09:16:42.000Z</Time>
            <Position>
              <LatitudeDegrees>42.00363901443779468536376953125</LatitudeDegrees>
              <LongitudeDegrees>2.2037034295499324798583984375</LongitudeDegrees>
            </Position>
            <AltitudeMeters>572.20001220703125</AltitudeMeters>
            <DistanceMeters>28915.317210793</DistanceMeters>
          </Trackpoint>
          <Trackpoint>
            <Time>2021-08-31T09:16:43.000Z</Time>
            <Position>
              <LatitudeDegrees>42.00353465974330902099609375</LatitudeDegrees>
              <LongitudeDegrees>2.203766964375972747802734375</LongitudeDegrees>
            </Position>
            <AltitudeMeters>570.20001220703125</AltitudeMeters>
            <DistanceMeters>28928.064965721</DistanceMeters>
          </Trackpoint>
          <Trackpoint>
            <Time>2021-08-31T09:16:44.000Z</Time>
            <Position>
              <LatitudeDegrees>42.00343600474298000335693359375</LatitudeDegrees>
              <LongitudeDegrees>2.20386628992855548858642578125</LongitudeDegrees>
            </Position>
            <AltitudeMeters>568</AltitudeMeters>
            <DistanceMeters>28941.778476286</DistanceMeters>
          </Trackpoint>
          <Trackpoint>
            <Time>2021-08-31T09:16:45.000Z</Time>
            <Position>
              <LatitudeDegrees>42.00334900058805942535400390625</LatitudeDegrees>
              <LongitudeDegrees>2.2039951197803020477294921875</LongitudeDegrees>
            </Position>
            <AltitudeMeters>565.79998779296875</AltitudeMeters>
            <DistanceMeters>28956.176826712</DistanceMeters>
          </Trackpoint>
          <Trackpoint>
            <Time>2021-08-31T09:16:49.000Z</Time>
            <Position>
              <LatitudeDegrees>42.002964355051517486572265625</LatitudeDegrees>
              <LongitudeDegrees>2.20453374087810516357421875</LongitudeDegrees>
            </Position>
            <AltitudeMeters>557.79998779296875</AltitudeMeters>
            <DistanceMeters>29017.962462719</DistanceMeters>
          </Trackpoint>
          <Trackpoint>
            <Time>2021-08-31T09:16:52.000Z</Time>
            <Position>
              <LatitudeDegrees>42.00258188880980014801025390625</LatitudeDegrees>
              <LongitudeDegrees>2.2047880478203296661376953125</LongitudeDegrees>
            </Position>
            <AltitudeMeters>555.5999755859375</AltitudeMeters>
            <DistanceMeters>29065.444736</DistanceMeters>
          </Trackpoint>
          <Trackpoint>
            <Time>2021-08-31T09:16:53.000Z</Time>
            <Position>
              <LatitudeDegrees>42.00246856547892093658447265625</LatitudeDegrees>
              <LongitudeDegrees>2.20488502644002437591552734375</LongitudeDegrees>
            </Position>
            <AltitudeMeters>555.20001220703125</AltitudeMeters>
            <DistanceMeters>29080.392048514</DistanceMeters>
          </Trackpoint>
          <Trackpoint>
            <Time>2021-08-31T09:16:54.000Z</Time>
            <Position>
              <LatitudeDegrees>42.0023764483630657196044921875</LatitudeDegrees>
              <LongitudeDegrees>2.20500656403601169586181640625</LongitudeDegrees>
            </Position>
            <AltitudeMeters>555.4000244140625</AltitudeMeters>
            <DistanceMeters>29094.750204566</DistanceMeters>
          </Trackpoint>
          <Trackpoint>
            <Time>2021-08-31T09:16:58.000Z</Time>
            <Position>
              <LatitudeDegrees>42.00209322385489940643310546875</LatitudeDegrees>
              <LongitudeDegrees>2.20549221150577068328857421875</LongitudeDegrees>
            </Position>
            <AltitudeMeters>556.20001220703125</AltitudeMeters>
            <DistanceMeters>29145.81103908</DistanceMeters>
          </Trackpoint>
          <Trackpoint>
            <Time>2021-08-31T09:17:02.000Z</Time>
            <Position>
              <LatitudeDegrees>42.0018943212926387786865234375</LatitudeDegrees>
              <LongitudeDegrees>2.20588481985032558441162109375</LongitudeDegrees>
            </Position>
            <AltitudeMeters>557.20001220703125</AltitudeMeters>
            <DistanceMeters>29185.112369538</DistanceMeters>
          </Trackpoint>
          <Trackpoint>
            <Time>2021-08-31T09:17:03.000Z</Time>
            <Position>
              <LatitudeDegrees>42.00185299851000308990478515625</LatitudeDegrees>
              <LongitudeDegrees>2.20597299747169017791748046875</LongitudeDegrees>
            </Position>
            <AltitudeMeters>557.20001220703125</AltitudeMeters>
            <DistanceMeters>29193.735225761</DistanceMeters>
          </Trackpoint>
          <Trackpoint>
            <Time>2021-08-31T09:17:05.000Z</Time>
            <Position>
              <LatitudeDegrees>42.00179717503488063812255859375</LatitudeDegrees>
              <LongitudeDegrees>2.20615874044597148895263671875</LongitudeDegrees>
            </Position>
            <AltitudeMeters>556.4000244140625</AltitudeMeters>
            <DistanceMeters>29210.306969327</DistanceMeters>
          </Trackpoint>
          <Trackpoint>
            <Time>2021-08-31T09:17:06.000Z</Time>
            <Position>
              <LatitudeDegrees>42.0017771422863006591796875</LatitudeDegrees>
              <LongitudeDegrees>2.20624976791441440582275390625</LongitudeDegrees>
            </Position>
            <AltitudeMeters>555.79998779296875</AltitudeMeters>
            <DistanceMeters>29218.15918952</DistanceMeters>
          </Trackpoint>
          <Trackpoint>
            <Time>2021-08-31T09:17:11.000Z</Time>
            <Position>
              <LatitudeDegrees>42.0017508231103420257568359375</LatitudeDegrees>
              <LongitudeDegrees>2.20676106400787830352783203125</LongitudeDegrees>
            </Position>
            <AltitudeMeters>553.79998779296875</AltitudeMeters>
            <DistanceMeters>29260.550690942</DistanceMeters>
          </Trackpoint>
          <Trackpoint>
            <Time>2021-08-31T09:17:16.000Z</Time>
            <Position>
              <LatitudeDegrees>42.001808993518352508544921875</LatitudeDegrees>
              <LongitudeDegrees>2.20731225796043872833251953125</LongitudeDegrees>
            </Position>
            <AltitudeMeters>552.4000244140625</AltitudeMeters>
            <DistanceMeters>29306.598169808</DistanceMeters>
          </Trackpoint>
          <Trackpoint>
            <Time>2021-08-31T09:17:23.000Z</Time>
            <Position>
              <LatitudeDegrees>42.00191720388829708099365234375</LatitudeDegrees>
              <LongitudeDegrees>2.2081398032605648040771484375</LongitudeDegrees>
            </Position>
            <AltitudeMeters>549.79998779296875</AltitudeMeters>
            <DistanceMeters>29376.096813456</DistanceMeters>
          </Trackpoint>
          <Trackpoint>
            <Time>2021-08-31T09:17:27.000Z</Time>
            <Position>
              <LatitudeDegrees>42.00195240788161754608154296875</LatitudeDegrees>
              <LongitudeDegrees>2.2086038254201412200927734375</LongitudeDegrees>
            </Position>
            <AltitudeMeters>550.79998779296875</AltitudeMeters>
            <DistanceMeters>29414.67590403</DistanceMeters>
          </Trackpoint>
          <Trackpoint>
            <Time>2021-08-31T09:17:28.000Z</Time>
            <Position>
              <LatitudeDegrees>42.00194352306425571441650390625</LatitudeDegrees>
              <LongitudeDegrees>2.2087101079523563385009765625</LongitudeDegrees>
            </Position>
            <AltitudeMeters>551.20001220703125</AltitudeMeters>
            <DistanceMeters>29423.522069441</DistanceMeters>
          </Trackpoint>
          <Trackpoint>
            <Time>2021-08-31T09:17:29.000Z</Time>
            <Position>
              <LatitudeDegrees>42.00192742981016635894775390625</LatitudeDegrees>
              <LongitudeDegrees>2.20881345681846141815185546875</LongitudeDegrees>
            </Position>
            <AltitudeMeters>552</AltitudeMeters>
            <DistanceMeters>29432.256260061</DistanceMeters>
          </Trackpoint>
          <Trackpoint>
            <Time>2021-08-31T09:17:31.000Z</Time>
            <Position>
              <LatitudeDegrees>42.00187831185758113861083984375</LatitudeDegrees>
              <LongitudeDegrees>2.209001295268535614013671875</LongitudeDegrees>
            </Position>
            <AltitudeMeters>553</AltitudeMeters>
            <DistanceMeters>29448.726338882</DistanceMeters>
          </Trackpoint>
          <Trackpoint>
            <Time>2021-08-31T09:17:32.000Z</Time>
            <Position>
              <LatitudeDegrees>42.001842521131038665771484375</LatitudeDegrees>
              <LongitudeDegrees>2.2090820968151092529296875</LongitudeDegrees>
            </Position>
            <AltitudeMeters>553.20001220703125</AltitudeMeters>
            <DistanceMeters>29456.506932207</DistanceMeters>
          </Trackpoint>
          <Trackpoint>
            <Time>2021-08-31T09:17:38.000Z</Time>
            <Position>
              <LatitudeDegrees>42.00159165076911449432373046875</LatitudeDegrees>
              <LongitudeDegrees>2.20948166213929653167724609375</LongitudeDegrees>
            </Position>
            <AltitudeMeters>555.20001220703125</AltitudeMeters>
            <DistanceMeters>29499.771959726</DistanceMeters>
          </Trackpoint>
          <Trackpoint>
            <Time>2021-08-31T09:17:44.000Z</Time>
            <Position>
              <LatitudeDegrees>42.0012824423611164093017578125</LatitudeDegrees>
              <LongitudeDegrees>2.20982548780739307403564453125</LongitudeDegrees>
            </Position>
            <AltitudeMeters>557.4000244140625</AltitudeMeters>
            <DistanceMeters>29544.416921963</DistanceMeters>
          </Trackpoint>
          <Trackpoint>
            <Time>2021-08-31T09:17:51.000Z</Time>
            <Position>
              <LatitudeDegrees>42.00086929835379123687744140625</LatitudeDegrees>
              <LongitudeDegrees>2.21019588410854339599609375</LongitudeDegrees>
            </Position>
            <AltitudeMeters>555.79998779296875</AltitudeMeters>
            <DistanceMeters>29599.671667514</DistanceMeters>
          </Trackpoint>
          <Trackpoint>
            <Time>2021-08-31T09:17:57.000Z</Time>
            <Position>
              <LatitudeDegrees>42.00042757205665111541748046875</LatitudeDegrees>
              <LongitudeDegrees>2.21046385355293750762939453125</LongitudeDegrees>
            </Position>
            <AltitudeMeters>552.20001220703125</AltitudeMeters>
            <DistanceMeters>29653.60181865</DistanceMeters>
          </Trackpoint>
          <Trackpoint>
            <Time>2021-08-31T09:18:04.000Z</Time>
            <Position>
              <LatitudeDegrees>41.99988551437854766845703125</LatitudeDegrees>
              <LongitudeDegrees>2.21078236587345600128173828125</LongitudeDegrees>
            </Position>
            <AltitudeMeters>548</AltitudeMeters>
            <DistanceMeters>29719.435102858</DistanceMeters>
          </Trackpoint>
          <Trackpoint>
            <Time>2021-08-31T09:18:05.000Z</Time>
            <Position>
              <LatitudeDegrees>41.99981686659157276153564453125</LatitudeDegrees>
              <LongitudeDegrees>2.2108253650367259979248046875</LongitudeDegrees>
            </Position>
            <AltitudeMeters>547.5999755859375</AltitudeMeters>
            <DistanceMeters>29727.863067103</DistanceMeters>
          </Trackpoint>
          <Trackpoint>
            <Time>2021-08-31T09:18:12.000Z</Time>
            <Position>
              <LatitudeDegrees>41.9993831031024456024169921875</LatitudeDegrees>
              <LongitudeDegrees>2.211085371673107147216796875</LongitudeDegrees>
            </Position>
            <AltitudeMeters>546.79998779296875</AltitudeMeters>
            <DistanceMeters>29780.715179521</DistanceMeters>
          </Trackpoint>
          <Trackpoint>
            <Time>2021-08-31T09:18:20.000Z</Time>
            <Position>
              <LatitudeDegrees>41.99890575371682643890380859375</LatitudeDegrees>
              <LongitudeDegrees>2.21136239357292652130126953125</LongitudeDegrees>
            </Position>
            <AltitudeMeters>550.5999755859375</AltitudeMeters>
            <DistanceMeters>29838.575602964</DistanceMeters>
          </Trackpoint>
          <Trackpoint>
            <Time>2021-08-31T09:18:29.000Z</Time>
            <Position>
              <LatitudeDegrees>41.99836327694356441497802734375</LatitudeDegrees>
              <LongitudeDegrees>2.2116803191602230072021484375</LongitudeDegrees>
            </Position>
            <AltitudeMeters>551.5999755859375</AltitudeMeters>
            <DistanceMeters>29904.432544025</DistanceMeters>
          </Trackpoint>
          <Trackpoint>
            <Time>2021-08-31T09:18:30.000Z</Time>
            <Position>
              <LatitudeDegrees>41.99830376543104648590087890625</LatitudeDegrees>
              <LongitudeDegrees>2.211713008582592010498046875</LongitudeDegrees>
            </Position>
            <AltitudeMeters>551.5999755859375</AltitudeMeters>
            <DistanceMeters>29911.586736732</DistanceMeters>
          </Trackpoint>
          <Trackpoint>
            <Time>2021-08-31T09:18:38.000Z</Time>
            <Position>
              <LatitudeDegrees>41.99783119373023509979248046875</LatitudeDegrees>
              <LongitudeDegrees>2.21206161193549633026123046875</LongitudeDegrees>
            </Position>
            <AltitudeMeters>550.79998779296875</AltitudeMeters>
            <DistanceMeters>29971.57035082</DistanceMeters>
          </Trackpoint>
          <Trackpoint>
            <Time>2021-08-31T09:18:44.000Z</Time>
            <Position>
              <LatitudeDegrees>41.99749859981238842010498046875</LatitudeDegrees>
              <LongitudeDegrees>2.21243930049240589141845703125</LongitudeDegrees>
            </Position>
            <AltitudeMeters>548.5999755859375</AltitudeMeters>
            <DistanceMeters>30020.009560177</DistanceMeters>
          </Trackpoint>
          <Trackpoint>
            <Time>2021-08-31T09:18:45.000Z</Time>
            <Position>
              <LatitudeDegrees>41.99743439443409442901611328125</LatitudeDegrees>
              <LongitudeDegrees>2.2124916873872280120849609375</LongitudeDegrees>
            </Position>
            <AltitudeMeters>548.4000244140625</AltitudeMeters>
            <DistanceMeters>30028.366510052</DistanceMeters>
          </Trackpoint>
          <Trackpoint>
            <Time>2021-08-31T09:18:48.000Z</Time>
            <Position>
              <LatitudeDegrees>41.997222416102886199951171875</LatitudeDegrees>
              <LongitudeDegrees>2.21263124607503414154052734375</LongitudeDegrees>
            </Position>
            <AltitudeMeters>546.5999755859375</AltitudeMeters>
            <DistanceMeters>30054.632760269</DistanceMeters>
          </Trackpoint>
          <Trackpoint>
            <Time>2021-08-31T09:18:53.000Z</Time>
            <Position>
              <LatitudeDegrees>41.99682771228253841400146484375</LatitudeDegrees>
              <LongitudeDegrees>2.21290432848036289215087890625</LongitudeDegrees>
            </Position>
            <AltitudeMeters>541.4000244140625</AltitudeMeters>
            <DistanceMeters>30104.031298887</DistanceMeters>
          </Trackpoint>
          <Trackpoint>
            <Time>2021-08-31T09:18:54.000Z</Time>
            <Position>
              <LatitudeDegrees>41.9967518560588359832763671875</LatitudeDegrees>
              <LongitudeDegrees>2.2129798494279384613037109375</LongitudeDegrees>
            </Position>
            <AltitudeMeters>539.79998779296875</AltitudeMeters>
            <DistanceMeters>30114.533793056</DistanceMeters>
          </Trackpoint>
          <Trackpoint>
            <Time>2021-08-31T09:18:56.000Z</Time>
            <Position>
              <LatitudeDegrees>41.9966073520481586456298828125</LatitudeDegrees>
              <LongitudeDegrees>2.21316634677350521087646484375</LongitudeDegrees>
            </Position>
            <AltitudeMeters>537.79998779296875</AltitudeMeters>
            <DistanceMeters>30136.819938182</DistanceMeters>
          </Trackpoint>
          <Trackpoint>
            <Time>2021-08-31T09:18:59.000Z</Time>
            <Position>
              <LatitudeDegrees>41.9964175857603549957275390625</LatitudeDegrees>
              <LongitudeDegrees>2.2135198116302490234375</LongitudeDegrees>
            </Position>
            <AltitudeMeters>535</AltitudeMeters>
            <DistanceMeters>30172.888804442</DistanceMeters>
          </Trackpoint>
          <Trackpoint>
            <Time>2021-08-31T09:19:00.000Z</Time>
            <Position>
              <LatitudeDegrees>41.99636788107454776763916015625</LatitudeDegrees>
              <LongitudeDegrees>2.21365685574710369110107421875</LongitudeDegrees>
            </Position>
            <AltitudeMeters>534.20001220703125</AltitudeMeters>
            <DistanceMeters>30185.502683581</DistanceMeters>
          </Trackpoint>
          <Trackpoint>
            <Time>2021-08-31T09:19:05.000Z</Time>
            <Position>
              <LatitudeDegrees>41.99612698517739772796630859375</LatitudeDegrees>
              <LongitudeDegrees>2.21438205800950527191162109375</LongitudeDegrees>
            </Position>
            <AltitudeMeters>529.5999755859375</AltitudeMeters>
            <DistanceMeters>30251.209516626</DistanceMeters>
          </Trackpoint>
          <Trackpoint>
            <Time>2021-08-31T09:19:06.000Z</Time>
            <Position>
              <LatitudeDegrees>41.99607552029192447662353515625</LatitudeDegrees>
              <LongitudeDegrees>2.21452773548662662506103515625</LongitudeDegrees>
            </Position>
            <AltitudeMeters>528.5999755859375</AltitudeMeters>
            <DistanceMeters>30264.552228386</DistanceMeters>
          </Trackpoint>
          <Trackpoint>
            <Time>2021-08-31T09:19:11.000Z</Time>
            <Position>
              <LatitudeDegrees>41.99576606042683124542236328125</LatitudeDegrees>
              <LongitudeDegrees>2.215246818959712982177734375</LongitudeDegrees>
            </Position>
            <AltitudeMeters>525.20001220703125</AltitudeMeters>
            <DistanceMeters>30333.286700338</DistanceMeters>
          </Trackpoint>
          <Trackpoint>
            <Time>2021-08-31T09:19:15.000Z</Time>
            <Position>
              <LatitudeDegrees>41.99542231857776641845703125</LatitudeDegrees>
              <LongitudeDegrees>2.21577060408890247344970703125</LongitudeDegrees>
            </Position>
            <AltitudeMeters>522</AltitudeMeters>
            <DistanceMeters>30391.088100522</DistanceMeters>
          </Trackpoint>
          <Trackpoint>
            <Time>2021-08-31T09:19:20.000Z</Time>
            <Position>
              <LatitudeDegrees>41.99494195170700550079345703125</LatitudeDegrees>
              <LongitudeDegrees>2.2163607738912105560302734375</LongitudeDegrees>
            </Position>
            <AltitudeMeters>518</AltitudeMeters>
            <DistanceMeters>30463.488729075</DistanceMeters>
          </Trackpoint>
          <Trackpoint>
            <Time>2021-08-31T09:19:21.000Z</Time>
            <Position>
              <LatitudeDegrees>41.99485042132437229156494140625</LatitudeDegrees>
              <LongitudeDegrees>2.21647552214562892913818359375</LongitudeDegrees>
            </Position>
            <AltitudeMeters>518.20001220703125</AltitudeMeters>
            <DistanceMeters>30477.413304523</DistanceMeters>
          </Trackpoint>
          <Trackpoint>
            <Time>2021-08-31T09:19:26.000Z</Time>
            <Position>
              <LatitudeDegrees>41.99444473721086978912353515625</LatitudeDegrees>
              <LongitudeDegrees>2.21698262728750705718994140625</LongitudeDegrees>
            </Position>
            <AltitudeMeters>518.79998779296875</AltitudeMeters>
            <DistanceMeters>30539.044997148</DistanceMeters>
          </Trackpoint>
          <Trackpoint>
            <Time>2021-08-31T09:19:31.000Z</Time>
            <Position>
              <LatitudeDegrees>41.9941149093210697174072265625</LatitudeDegrees>
              <LongitudeDegrees>2.21740222536027431488037109375</LongitudeDegrees>
            </Position>
            <AltitudeMeters>519.79998779296875</AltitudeMeters>
            <DistanceMeters>30589.566510858</DistanceMeters>
          </Trackpoint>
          <Trackpoint>
            <Time>2021-08-31T09:19:33.000Z</Time>
            <Position>
              <LatitudeDegrees>41.99400401674211025238037109375</LatitudeDegrees>
              <LongitudeDegrees>2.21754823811352252960205078125</LongitudeDegrees>
            </Position>
            <AltitudeMeters>519</AltitudeMeters>
            <DistanceMeters>30606.836031254</DistanceMeters>
          </Trackpoint>
          <Trackpoint>
            <Time>2021-08-31T09:19:35.000Z</Time>
            <Position>
              <LatitudeDegrees>41.9939110614359378814697265625</LatitudeDegrees>
              <LongitudeDegrees>2.21769860945641994476318359375</LongitudeDegrees>
            </Position>
            <AltitudeMeters>518</AltitudeMeters>
            <DistanceMeters>30623.015149152</DistanceMeters>
          </Trackpoint>
          <Trackpoint>
            <Time>2021-08-31T09:19:41.000Z</Time>
            <Position>
              <LatitudeDegrees>41.99370126239955425262451171875</LatitudeDegrees>
              <LongitudeDegrees>2.218135893344879150390625</LongitudeDegrees>
            </Position>
            <AltitudeMeters>514.4000244140625</AltitudeMeters>
            <DistanceMeters>30666.070116493</DistanceMeters>
          </Trackpoint>
          <Trackpoint>
            <Time>2021-08-31T09:19:46.000Z</Time>
            <Position>
              <LatitudeDegrees>41.993587352335453033447265625</LatitudeDegrees>
              <LongitudeDegrees>2.21854551695287227630615234375</LongitudeDegrees>
            </Position>
            <AltitudeMeters>516.5999755859375</AltitudeMeters>
            <DistanceMeters>30702.249221522</DistanceMeters>
          </Trackpoint>
          <Trackpoint>
            <Time>2021-08-31T09:19:54.000Z</Time>
            <Position>
              <LatitudeDegrees>41.99341175146400928497314453125</LatitudeDegrees>
              <LongitudeDegrees>2.219213135540485382080078125</LongitudeDegrees>
            </Position>
            <AltitudeMeters>523.4000244140625</AltitudeMeters>
            <DistanceMeters>30760.832400964</DistanceMeters>
          </Trackpoint>
          <Trackpoint>
            <Time>2021-08-31T09:20:02.000Z</Time>
            <Position>
              <LatitudeDegrees>41.993123330175876617431640625</LatitudeDegrees>
              <LongitudeDegrees>2.219789139926433563232421875</LongitudeDegrees>
            </Position>
            <AltitudeMeters>522.4000244140625</AltitudeMeters>
            <DistanceMeters>30818.285854243</DistanceMeters>
          </Trackpoint>
          <Trackpoint>
            <Time>2021-08-31T09:20:08.000Z</Time>
            <Position>
              <LatitudeDegrees>41.99282954446971416473388671875</LatitudeDegrees>
              <LongitudeDegrees>2.22016188316047191619873046875</LongitudeDegrees>
            </Position>
            <AltitudeMeters>520.20001220703125</AltitudeMeters>
            <DistanceMeters>30863.230074674</DistanceMeters>
          </Trackpoint>
          <Trackpoint>
            <Time>2021-08-31T09:20:14.000Z</Time>
            <Position>
              <LatitudeDegrees>41.99245638214051723480224609375</LatitudeDegrees>
              <LongitudeDegrees>2.220583744347095489501953125</LongitudeDegrees>
            </Position>
            <AltitudeMeters>514.79998779296875</AltitudeMeters>
            <DistanceMeters>30917.478511361</DistanceMeters>
          </Trackpoint>
          <Trackpoint>
            <Time>2021-08-31T09:20:19.000Z</Time>
            <Position>
              <LatitudeDegrees>41.992153711616992950439453125</LatitudeDegrees>
              <LongitudeDegrees>2.22105480730533599853515625</LongitudeDegrees>
            </Position>
            <AltitudeMeters>512.20001220703125</AltitudeMeters>
            <DistanceMeters>30968.989301901</DistanceMeters>
          </Trackpoint>
          <Trackpoint>
            <Time>2021-08-31T09:20:25.000Z</Time>
            <Position>
              <LatitudeDegrees>41.99181868694722652435302734375</LatitudeDegrees>
              <LongitudeDegrees>2.22173768095672130584716796875</LongitudeDegrees>
            </Position>
            <AltitudeMeters>509.600006103515625</AltitudeMeters>
            <DistanceMeters>31036.67661109</DistanceMeters>
          </Trackpoint>
          <Trackpoint>
            <Time>2021-08-31T09:20:31.000Z</Time>
            <Position>
              <LatitudeDegrees>41.99150738306343555450439453125</LatitudeDegrees>
              <LongitudeDegrees>2.22250177524983882904052734375</LongitudeDegrees>
            </Position>
            <AltitudeMeters>503.399993896484375</AltitudeMeters>
            <DistanceMeters>31108.759494677</DistanceMeters>
          </Trackpoint>
          <Trackpoint>
            <Time>2021-08-31T09:20:36.000Z</Time>
            <Position>
              <LatitudeDegrees>41.99130102060735225677490234375</LatitudeDegrees>
              <LongitudeDegrees>2.22314416430890560150146484375</LongitudeDegrees>
            </Position>
            <AltitudeMeters>504.600006103515625</AltitudeMeters>
            <DistanceMeters>31166.652214881</DistanceMeters>
          </Trackpoint>
          <Trackpoint>
            <Time>2021-08-31T09:20:41.000Z</Time>
            <Position>
              <LatitudeDegrees>41.9912110827863216400146484375</LatitudeDegrees>
              <LongitudeDegrees>2.2237606532871723175048828125</LongitudeDegrees>
            </Position>
            <AltitudeMeters>502.399993896484375</AltitudeMeters>
            <DistanceMeters>31218.624356997</DistanceMeters>
          </Trackpoint>
          <Trackpoint>
            <Time>2021-08-31T09:20:44.000Z</Time>
            <Position>
              <LatitudeDegrees>41.991186439990997314453125</LatitudeDegrees>
              <LongitudeDegrees>2.2241227515041828155517578125</LongitudeDegrees>
            </Position>
            <AltitudeMeters>502.399993896484375</AltitudeMeters>
            <DistanceMeters>31248.704177468</DistanceMeters>
          </Trackpoint>
          <Trackpoint>
            <Time>2021-08-31T09:20:45.000Z</Time>
            <Position>
              <LatitudeDegrees>41.9911902956664562225341796875</LatitudeDegrees>
              <LongitudeDegrees>2.2242431156337261199951171875</LongitudeDegrees>
            </Position>
            <AltitudeMeters>502.399993896484375</AltitudeMeters>
            <DistanceMeters>31258.670663352</DistanceMeters>
          </Trackpoint>
          <Trackpoint>
            <Time>2021-08-31T09:20:46.000Z</Time>
            <Position>
              <LatitudeDegrees>41.99120311997830867767333984375</LatitudeDegrees>
              <LongitudeDegrees>2.2243591211736202239990234375</LongitudeDegrees>
            </Position>
            <AltitudeMeters>502.399993896484375</AltitudeMeters>
            <DistanceMeters>31268.372700089</DistanceMeters>
          </Trackpoint>
          <Trackpoint>
            <Time>2021-08-31T09:20:49.000Z</Time>
            <Position>
              <LatitudeDegrees>41.9912446103990077972412109375</LatitudeDegrees>
              <LongitudeDegrees>2.224700935184955596923828125</LongitudeDegrees>
            </Position>
            <AltitudeMeters>502</AltitudeMeters>
            <DistanceMeters>31297.023845428</DistanceMeters>
          </Trackpoint>
          <Trackpoint>
            <Time>2021-08-31T09:20:52.000Z</Time>
            <Position>
              <LatitudeDegrees>41.99126891791820526123046875</LatitudeDegrees>
              <LongitudeDegrees>2.2249921225011348724365234375</LongitudeDegrees>
            </Position>
            <AltitudeMeters>502.20001220703125</AltitudeMeters>
            <DistanceMeters>31321.263668325</DistanceMeters>
          </Trackpoint>
          <Trackpoint>
            <Time>2021-08-31T09:20:53.000Z</Time>
            <Position>
              <LatitudeDegrees>41.99126766063272953033447265625</LatitudeDegrees>
              <LongitudeDegrees>2.225065715610980987548828125</LongitudeDegrees>
            </Position>
            <AltitudeMeters>502.20001220703125</AltitudeMeters>
            <DistanceMeters>31327.352797481</DistanceMeters>
          </Trackpoint>
          <Trackpoint>
            <Time>2021-08-31T09:20:54.000Z</Time>
            <Position>
              <LatitudeDegrees>41.991267241537570953369140625</LatitudeDegrees>
              <LongitudeDegrees>2.2251309268176555633544921875</LongitudeDegrees>
            </Position>
            <AltitudeMeters>502.20001220703125</AltitudeMeters>
            <DistanceMeters>31332.746766919</DistanceMeters>
          </Trackpoint>
          <Trackpoint>
            <Time>2021-08-31T09:20:58.000Z</Time>
            <Position>
              <LatitudeDegrees>41.991311497986316680908203125</LatitudeDegrees>
              <LongitudeDegrees>2.225411050021648406982421875</LongitudeDegrees>
            </Position>
            <AltitudeMeters>502.600006103515625</AltitudeMeters>
            <DistanceMeters>31356.437786344</DistanceMeters>
          </Trackpoint>
          <Trackpoint>
            <Time>2021-08-31T09:21:03.000Z</Time>
            <Position>
              <LatitudeDegrees>41.99137151241302490234375</LatitudeDegrees>
              <LongitudeDegrees>2.22574372775852680206298828125</LongitudeDegrees>
            </Position>
            <AltitudeMeters>503.79998779296875</AltitudeMeters>
            <DistanceMeters>31384.75750102</DistanceMeters>
          </Trackpoint>
          <Trackpoint>
            <Time>2021-08-31T09:21:04.000Z</Time>
            <Position>
              <LatitudeDegrees>41.99138785712420940399169921875</LatitudeDegrees>
              <LongitudeDegrees>2.225812040269374847412109375</LongitudeDegrees>
            </Position>
            <AltitudeMeters>504.399993896484375</AltitudeMeters>
            <DistanceMeters>31390.69419946</DistanceMeters>
          </Trackpoint>
          <Trackpoint>
            <Time>2021-08-31T09:21:06.000Z</Time>
            <Position>
              <LatitudeDegrees>41.99142993427813053131103515625</LatitudeDegrees>
              <LongitudeDegrees>2.225940115749835968017578125</LongitudeDegrees>
            </Position>
            <AltitudeMeters>506</AltitudeMeters>
            <DistanceMeters>31402.278107952</DistanceMeters>
          </Trackpoint>
          <Trackpoint>
            <Time>2021-08-31T09:21:09.000Z</Time>
            <Position>
              <LatitudeDegrees>41.99152599088847637176513671875</LatitudeDegrees>
              <LongitudeDegrees>2.226121835410594940185546875</LongitudeDegrees>
            </Position>
            <AltitudeMeters>508.399993896484375</AltitudeMeters>
            <DistanceMeters>31420.725042676</DistanceMeters>
          </Trackpoint>
          <Trackpoint>
            <Time>2021-08-31T09:21:11.000Z</Time>
            <Position>
              <LatitudeDegrees>41.991574354469776153564453125</LatitudeDegrees>
              <LongitudeDegrees>2.22625284455716609954833984375</LongitudeDegrees>
            </Position>
            <AltitudeMeters>509.399993896484375</AltitudeMeters>
            <DistanceMeters>31432.825940148</DistanceMeters>
          </Trackpoint>
          <Trackpoint>
            <Time>2021-08-31T09:21:13.000Z</Time>
            <Position>
              <LatitudeDegrees>41.9916088879108428955078125</LatitudeDegrees>
              <LongitudeDegrees>2.226375974714756011962890625</LongitudeDegrees>
            </Position>
            <AltitudeMeters>510</AltitudeMeters>
            <DistanceMeters>31443.713032661</DistanceMeters>
          </Trackpoint>
          <Trackpoint>
            <Time>2021-08-31T09:21:14.000Z</Time>
            <Position>
              <LatitudeDegrees>41.9916187785565853118896484375</LatitudeDegrees>
              <LongitudeDegrees>2.2264371626079082489013671875</LongitudeDegrees>
            </Position>
            <AltitudeMeters>510.20001220703125</AltitudeMeters>
            <DistanceMeters>31448.892642407</DistanceMeters>
          </Trackpoint>
          <Trackpoint>
            <Time>2021-08-31T09:21:16.000Z</Time>
            <Position>
              <LatitudeDegrees>41.9916571676731109619140625</LatitudeDegrees>
              <LongitudeDegrees>2.226595245301723480224609375</LongitudeDegrees>
            </Position>
            <AltitudeMeters>511</AltitudeMeters>
            <DistanceMeters>31462.650200412</DistanceMeters>
          </Trackpoint>
          <Trackpoint>
            <Time>2021-08-31T09:21:17.000Z</Time>
            <Position>
              <LatitudeDegrees>41.99168843217194080352783203125</LatitudeDegrees>
              <LongitudeDegrees>2.22667898051440715789794921875</LongitudeDegrees>
            </Position>
            <AltitudeMeters>511.399993896484375</AltitudeMeters>
            <DistanceMeters>31470.402307141</DistanceMeters>
          </Trackpoint>
          <Trackpoint>
            <Time>2021-08-31T09:21:21.000Z</Time>
            <Position>
              <LatitudeDegrees>41.9918085448443889617919921875</LatitudeDegrees>
              <LongitudeDegrees>2.226933538913726806640625</LongitudeDegrees>
            </Position>
            <AltitudeMeters>513.20001220703125</AltitudeMeters>
            <DistanceMeters>31495.345326341</DistanceMeters>
          </Trackpoint>
          <Trackpoint>
            <Time>2021-08-31T09:21:22.000Z</Time>
            <Position>
              <LatitudeDegrees>41.991814412176609039306640625</LatitudeDegrees>
              <LongitudeDegrees>2.22696849144995212554931640625</LongitudeDegrees>
            </Position>
            <AltitudeMeters>513.4000244140625</AltitudeMeters>
            <DistanceMeters>31498.307966094</DistanceMeters>
          </Trackpoint>
          <Trackpoint>
            <Time>2021-08-31T09:21:24.000Z</Time>
            <Position>
              <LatitudeDegrees>41.99179605580866336822509765625</LatitudeDegrees>
              <LongitudeDegrees>2.2270426712930202484130859375</LongitudeDegrees>
            </Position>
            <AltitudeMeters>513.5999755859375</AltitudeMeters>
            <DistanceMeters>31504.775370062</DistanceMeters>
          </Trackpoint>
          <Trackpoint>
            <Time>2021-08-31T09:21:29.000Z</Time>
            <Position>
              <LatitudeDegrees>41.99171525426208972930908203125</LatitudeDegrees>
              <LongitudeDegrees>2.22716982476413249969482421875</LongitudeDegrees>
            </Position>
            <AltitudeMeters>513.20001220703125</AltitudeMeters>
            <DistanceMeters>31518.614405119</DistanceMeters>
          </Trackpoint>
          <Trackpoint>
            <Time>2021-08-31T09:21:33.000Z</Time>
            <Position>
              <LatitudeDegrees>41.991483159363269805908203125</LatitudeDegrees>
              <LongitudeDegrees>2.227135710418224334716796875</LongitudeDegrees>
            </Position>
            <AltitudeMeters>510.399993896484375</AltitudeMeters>
            <DistanceMeters>31544.600693361</DistanceMeters>
          </Trackpoint>
          <Trackpoint>
            <Time>2021-08-31T09:21:35.000Z</Time>
            <Position>
              <LatitudeDegrees>41.9913733564317226409912109375</LatitudeDegrees>
              <LongitudeDegrees>2.2271633706986904144287109375</LongitudeDegrees>
            </Position>
            <AltitudeMeters>509</AltitudeMeters>
            <DistanceMeters>31557.034313459</DistanceMeters>
          </Trackpoint>
          <Trackpoint>
            <Time>2021-08-31T09:21:36.000Z</Time>
            <Position>
              <LatitudeDegrees>41.99132348410785198211669921875</LatitudeDegrees>
              <LongitudeDegrees>2.22719077952206134796142578125</LongitudeDegrees>
            </Position>
            <AltitudeMeters>508.399993896484375</AltitudeMeters>
            <DistanceMeters>31563.030039797</DistanceMeters>
          </Trackpoint>
          <Trackpoint>
            <Time>2021-08-31T09:21:41.000Z</Time>
            <Position>
              <LatitudeDegrees>41.9910521619021892547607421875</LatitudeDegrees>
              <LongitudeDegrees>2.2273920290172100067138671875</LongitudeDegrees>
            </Position>
            <AltitudeMeters>506.600006103515625</AltitudeMeters>
            <DistanceMeters>31597.513871466</DistanceMeters>
          </Trackpoint>
          <Trackpoint>
            <Time>2021-08-31T09:21:43.000Z</Time>
            <Position>
              <LatitudeDegrees>41.9909452088177204132080078125</LatitudeDegrees>
              <LongitudeDegrees>2.22749554552137851715087890625</LongitudeDegrees>
            </Position>
            <AltitudeMeters>506.20001220703125</AltitudeMeters>
            <DistanceMeters>31612.178190081</DistanceMeters>
          </Trackpoint>
          <Trackpoint>
            <Time>2021-08-31T09:21:45.000Z</Time>
            <Position>
              <LatitudeDegrees>41.99085761792957782745361328125</LatitudeDegrees>
              <LongitudeDegrees>2.22761238925158977508544921875</LongitudeDegrees>
            </Position>
            <AltitudeMeters>506</AltitudeMeters>
            <DistanceMeters>31625.906508458</DistanceMeters>
          </Trackpoint>
          <Trackpoint>
            <Time>2021-08-31T09:21:46.000Z</Time>
            <Position>
              <LatitudeDegrees>41.9908188097178936004638671875</LatitudeDegrees>
              <LongitudeDegrees>2.227679193019866943359375</LongitudeDegrees>
            </Position>
            <AltitudeMeters>505.79998779296875</AltitudeMeters>
            <DistanceMeters>31632.920484254</DistanceMeters>
          </Trackpoint>
          <Trackpoint>
            <Time>2021-08-31T09:21:47.000Z</Time>
            <Position>
              <LatitudeDegrees>41.99078335426747798919677734375</LatitudeDegrees>
              <LongitudeDegrees>2.227749265730381011962890625</LongitudeDegrees>
            </Position>
            <AltitudeMeters>506</AltitudeMeters>
            <DistanceMeters>31639.933172491</DistanceMeters>
          </Trackpoint>
          <Trackpoint>
            <Time>2021-08-31T09:21:50.000Z</Time>
            <Position>
              <LatitudeDegrees>41.99069760739803314208984375</LatitudeDegrees>
              <LongitudeDegrees>2.2279777564108371734619140625</LongitudeDegrees>
            </Position>
            <AltitudeMeters>508</AltitudeMeters>
            <DistanceMeters>31661.107930711</DistanceMeters>
          </Trackpoint>
          <Trackpoint>
            <Time>2021-08-31T09:21:54.000Z</Time>
            <Position>
              <LatitudeDegrees>41.99056508950889110565185546875</LatitudeDegrees>
              <LongitudeDegrees>2.22830389626324176788330078125</LongitudeDegrees>
            </Position>
            <AltitudeMeters>509.399993896484375</AltitudeMeters>
            <DistanceMeters>31691.856378865</DistanceMeters>
          </Trackpoint>
          <Trackpoint>
            <Time>2021-08-31T09:21:55.000Z</Time>
            <Position>
              <LatitudeDegrees>41.99052217416465282440185546875</LatitudeDegrees>
              <LongitudeDegrees>2.2283805906772613525390625</LongitudeDegrees>
            </Position>
            <AltitudeMeters>509.600006103515625</AltitudeMeters>
            <DistanceMeters>31699.797792711</DistanceMeters>
          </Trackpoint>
          <Trackpoint>
            <Time>2021-08-31T09:21:58.000Z</Time>
            <Position>
              <LatitudeDegrees>41.99038647115230560302734375</LatitudeDegrees>
              <LongitudeDegrees>2.2285805828869342803955078125</LongitudeDegrees>
            </Position>
            <AltitudeMeters>507.79998779296875</AltitudeMeters>
            <DistanceMeters>31722.199924941</DistanceMeters>
          </Trackpoint>
          <Trackpoint>
            <Time>2021-08-31T09:22:00.000Z</Time>
            <Position>
              <LatitudeDegrees>41.9903189130127429962158203125</LatitudeDegrees>
              <LongitudeDegrees>2.22872382961213588714599609375</LongitudeDegrees>
            </Position>
            <AltitudeMeters>508</AltitudeMeters>
            <DistanceMeters>31736.234633968</DistanceMeters>
          </Trackpoint>
          <Trackpoint>
            <Time>2021-08-31T09:22:02.000Z</Time>
            <Position>
              <LatitudeDegrees>41.99026132933795452117919921875</LatitudeDegrees>
              <LongitudeDegrees>2.22886397503316402435302734375</LongitudeDegrees>
            </Position>
            <AltitudeMeters>507.79998779296875</AltitudeMeters>
            <DistanceMeters>31749.48191692</DistanceMeters>
          </Trackpoint>
          <Trackpoint>
            <Time>2021-08-31T09:22:04.000Z</Time>
            <Position>
              <LatitudeDegrees>41.99017298407852649688720703125</LatitudeDegrees>
              <LongitudeDegrees>2.22897495143115520477294921875</LongitudeDegrees>
            </Position>
            <AltitudeMeters>507.20001220703125</AltitudeMeters>
            <DistanceMeters>31762.93449147</DistanceMeters>
          </Trackpoint>
          <Trackpoint>
            <Time>2021-08-31T09:22:05.000Z</Time>
            <Position>
              <LatitudeDegrees>41.99013140983879566192626953125</LatitudeDegrees>
              <LongitudeDegrees>2.22903496585786342620849609375</LongitudeDegrees>
            </Position>
            <AltitudeMeters>507.20001220703125</AltitudeMeters>
            <DistanceMeters>31769.721421552</DistanceMeters>
          </Trackpoint>
          <Trackpoint>
            <Time>2021-08-31T09:22:09.000Z</Time>
            <Position>
              <LatitudeDegrees>41.98999646119773387908935546875</LatitudeDegrees>
              <LongitudeDegrees>2.22928516566753387451171875</LongitudeDegrees>
            </Position>
            <AltitudeMeters>507</AltitudeMeters>
            <DistanceMeters>31795.295086063</DistanceMeters>
          </Trackpoint>
          <Trackpoint>
            <Time>2021-08-31T09:22:14.000Z</Time>
            <Position>
              <LatitudeDegrees>41.9898364506661891937255859375</LatitudeDegrees>
              <LongitudeDegrees>2.22963259555399417877197265625</LongitudeDegrees>
            </Position>
            <AltitudeMeters>506.79998779296875</AltitudeMeters>
            <DistanceMeters>31829.107241544</DistanceMeters>
          </Trackpoint>
          <Trackpoint>
            <Time>2021-08-31T09:22:20.000Z</Time>
            <Position>
              <LatitudeDegrees>41.9896694831550121307373046875</LatitudeDegrees>
              <LongitudeDegrees>2.23010189831256866455078125</LongitudeDegrees>
            </Position>
            <AltitudeMeters>505.600006103515625</AltitudeMeters>
            <DistanceMeters>31872.149623025</DistanceMeters>
          </Trackpoint>
          <Trackpoint>
            <Time>2021-08-31T09:22:21.000Z</Time>
            <Position>
              <LatitudeDegrees>41.98965950869023799896240234375</LatitudeDegrees>
              <LongitudeDegrees>2.23018663935363292694091796875</LongitudeDegrees>
            </Position>
            <AltitudeMeters>505.79998779296875</AltitudeMeters>
            <DistanceMeters>31879.246789108</DistanceMeters>
          </Trackpoint>
          <Trackpoint>
            <Time>2021-08-31T09:22:26.000Z</Time>
            <Position>
              <LatitudeDegrees>41.989646516740322113037109375</LatitudeDegrees>
              <LongitudeDegrees>2.23061830736696720123291015625</LongitudeDegrees>
            </Position>
            <AltitudeMeters>507.79998779296875</AltitudeMeters>
            <DistanceMeters>31914.986562516</DistanceMeters>
          </Trackpoint>
          <Trackpoint>
            <Time>2021-08-31T09:22:27.000Z</Time>
            <Position>
              <LatitudeDegrees>41.98964039795100688934326171875</LatitudeDegrees>
              <LongitudeDegrees>2.230700366199016571044921875</LongitudeDegrees>
            </Position>
            <AltitudeMeters>508.20001220703125</AltitudeMeters>
            <DistanceMeters>31921.808659993</DistanceMeters>
          </Trackpoint>
          <Trackpoint>
            <Time>2021-08-31T09:22:31.000Z</Time>
            <Position>
              <LatitudeDegrees>41.98960972018539905548095703125</LatitudeDegrees>
              <LongitudeDegrees>2.23104343749582767486572265625</LongitudeDegrees>
            </Position>
            <AltitudeMeters>509.399993896484375</AltitudeMeters>
            <DistanceMeters>31950.394805898</DistanceMeters>
          </Trackpoint>
          <Trackpoint>
            <Time>2021-08-31T09:22:35.000Z</Time>
            <Position>
              <LatitudeDegrees>41.98955825529992580413818359375</LatitudeDegrees>
              <LongitudeDegrees>2.23138810135424137115478515625</LongitudeDegrees>
            </Position>
            <AltitudeMeters>509.79998779296875</AltitudeMeters>
            <DistanceMeters>31979.477638295</DistanceMeters>
          </Trackpoint>
          <Trackpoint>
            <Time>2021-08-31T09:22:36.000Z</Time>
            <Position>
              <LatitudeDegrees>41.989555321633815765380859375</LatitudeDegrees>
              <LongitudeDegrees>2.23147560842335224151611328125</LongitudeDegrees>
            </Position>
            <AltitudeMeters>509.79998779296875</AltitudeMeters>
            <DistanceMeters>31986.724632472</DistanceMeters>
          </Trackpoint>
          <Trackpoint>
            <Time>2021-08-31T09:22:39.000Z</Time>
            <Position>
              <LatitudeDegrees>41.98955423198640346527099609375</LatitudeDegrees>
              <LongitudeDegrees>2.231734693050384521484375</LongitudeDegrees>
            </Position>
            <AltitudeMeters>508.20001220703125</AltitudeMeters>
            <DistanceMeters>32008.158581458</DistanceMeters>
          </Trackpoint>
          <Trackpoint>
            <Time>2021-08-31T09:22:41.000Z</Time>
            <Position>
              <LatitudeDegrees>41.9895571656525135040283203125</LatitudeDegrees>
              <LongitudeDegrees>2.23191834054887294769287109375</LongitudeDegrees>
            </Position>
            <AltitudeMeters>506.79998779296875</AltitudeMeters>
            <DistanceMeters>32023.354538645</DistanceMeters>
          </Trackpoint>
          <Trackpoint>
            <Time>2021-08-31T09:22:42.000Z</Time>
            <Position>
              <LatitudeDegrees>41.98954065330326557159423828125</LatitudeDegrees>
              <LongitudeDegrees>2.23200651817023754119873046875</LongitudeDegrees>
            </Position>
            <AltitudeMeters>506.399993896484375</AltitudeMeters>
            <DistanceMeters>32030.876669925</DistanceMeters>
          </Trackpoint>
          <Trackpoint>
            <Time>2021-08-31T09:22:47.000Z</Time>
            <Position>
              <LatitudeDegrees>41.98941241018474102020263671875</LatitudeDegrees>
              <LongitudeDegrees>2.232410274446010589599609375</LongitudeDegrees>
            </Position>
            <AltitudeMeters>507.20001220703125</AltitudeMeters>
            <DistanceMeters>32067.200250825</DistanceMeters>
          </Trackpoint>
          <Trackpoint>
            <Time>2021-08-31T09:22:49.000Z</Time>
            <Position>
              <LatitudeDegrees>41.9893435947597026824951171875</LatitudeDegrees>
              <LongitudeDegrees>2.23256525583565235137939453125</LongitudeDegrees>
            </Position>
            <AltitudeMeters>507.600006103515625</AltitudeMeters>
            <DistanceMeters>32082.135475909</DistanceMeters>
          </Trackpoint>
          <Trackpoint>
            <Time>2021-08-31T09:22:51.000Z</Time>
            <Position>
              <LatitudeDegrees>41.9892634637653827667236328125</LatitudeDegrees>
              <LongitudeDegrees>2.23268394358456134796142578125</LongitudeDegrees>
            </Position>
            <AltitudeMeters>507.600006103515625</AltitudeMeters>
            <DistanceMeters>32095.400470051</DistanceMeters>
          </Trackpoint>
          <Trackpoint>
            <Time>2021-08-31T09:22:53.000Z</Time>
            <Position>
              <LatitudeDegrees>41.9891692511737346649169921875</LatitudeDegrees>
              <LongitudeDegrees>2.23279072903096675872802734375</LongitudeDegrees>
            </Position>
            <AltitudeMeters>506.20001220703125</AltitudeMeters>
            <DistanceMeters>32109.112005033</DistanceMeters>
          </Trackpoint>
          <Trackpoint>
            <Time>2021-08-31T09:22:54.000Z</Time>
            <Position>
              <LatitudeDegrees>41.98913262225687503814697265625</LatitudeDegrees>
              <LongitudeDegrees>2.23286029882729053497314453125</LongitudeDegrees>
            </Position>
            <AltitudeMeters>505.600006103515625</AltitudeMeters>
            <DistanceMeters>32116.164498284</DistanceMeters>
          </Trackpoint>
          <Trackpoint>
            <Time>2021-08-31T09:22:56.000Z</Time>
            <Position>
              <LatitudeDegrees>41.9890830852091312408447265625</LatitudeDegrees>
              <LongitudeDegrees>2.23301771096885204315185546875</LongitudeDegrees>
            </Position>
            <AltitudeMeters>504.20001220703125</AltitudeMeters>
            <DistanceMeters>32130.305929362</DistanceMeters>
          </Trackpoint>
          <Trackpoint>
            <Time>2021-08-31T09:22:58.000Z</Time>
            <Position>
              <LatitudeDegrees>41.98906355537474155426025390625</LatitudeDegrees>
              <LongitudeDegrees>2.23319741897284984588623046875</LongitudeDegrees>
            </Position>
            <AltitudeMeters>502.79998779296875</AltitudeMeters>
            <DistanceMeters>32145.330671657</DistanceMeters>
          </Trackpoint>
          <Trackpoint>
            <Time>2021-08-31T09:23:03.000Z</Time>
            <Position>
              <LatitudeDegrees>41.989003457129001617431640625</LatitudeDegrees>
              <LongitudeDegrees>2.23371173255145549774169921875</LongitudeDegrees>
            </Position>
            <AltitudeMeters>498.600006103515625</AltitudeMeters>
            <DistanceMeters>32188.401261322</DistanceMeters>
          </Trackpoint>
          <Trackpoint>
            <Time>2021-08-31T09:23:04.000Z</Time>
            <Position>
              <LatitudeDegrees>41.9889895431697368621826171875</LatitudeDegrees>
              <LongitudeDegrees>2.23383276723325252532958984375</LongitudeDegrees>
            </Position>
            <AltitudeMeters>497.79998779296875</AltitudeMeters>
            <DistanceMeters>32198.533087861</DistanceMeters>
          </Trackpoint>
          <Trackpoint>
            <Time>2021-08-31T09:23:07.000Z</Time>
            <Position>
              <LatitudeDegrees>41.98893715627491474151611328125</LatitudeDegrees>
              <LongitudeDegrees>2.23417558707296848297119140625</LongitudeDegrees>
            </Position>
            <AltitudeMeters>497.600006103515625</AltitudeMeters>
            <DistanceMeters>32227.487089949</DistanceMeters>
          </Trackpoint>
          <Trackpoint>
            <Time>2021-08-31T09:23:09.000Z</Time>
            <Position>
              <LatitudeDegrees>41.98888535611331462860107421875</LatitudeDegrees>
              <LongitudeDegrees>2.23433735780417919158935546875</LongitudeDegrees>
            </Position>
            <AltitudeMeters>497.79998779296875</AltitudeMeters>
            <DistanceMeters>32242.059367659</DistanceMeters>
          </Trackpoint>
          <Trackpoint>
            <Time>2021-08-31T09:23:10.000Z</Time>
            <Position>
              <LatitudeDegrees>41.9888882897794246673583984375</LatitudeDegrees>
              <LongitudeDegrees>2.23439804278314113616943359375</LongitudeDegrees>
            </Position>
            <AltitudeMeters>498</AltitudeMeters>
            <DistanceMeters>32247.091299132</DistanceMeters>
          </Trackpoint>
          <Trackpoint>
            <Time>2021-08-31T09:23:12.000Z</Time>
            <Position>
              <LatitudeDegrees>41.98896079324185848236083984375</LatitudeDegrees>
              <LongitudeDegrees>2.23444850184023380279541015625</LongitudeDegrees>
            </Position>
            <AltitudeMeters>498</AltitudeMeters>
            <DistanceMeters>32256.176668072</DistanceMeters>
          </Trackpoint>
          <Trackpoint>
            <Time>2021-08-31T09:23:13.000Z</Time>
            <Position>
              <LatitudeDegrees>41.9890071451663970947265625</LatitudeDegrees>
              <LongitudeDegrees>2.23443240858614444732666015625</LongitudeDegrees>
            </Position>
            <AltitudeMeters>498</AltitudeMeters>
            <DistanceMeters>32261.504947376</DistanceMeters>
          </Trackpoint>
          <Trackpoint>
            <Time>2021-08-31T09:23:16.000Z</Time>
            <Position>
              <LatitudeDegrees>41.98916950263082981109619140625</LatitudeDegrees>
              <LongitudeDegrees>2.23437457345426082611083984375</LongitudeDegrees>
            </Position>
            <AltitudeMeters>497.399993896484375</AltitudeMeters>
            <DistanceMeters>32280.198419451</DistanceMeters>
          </Trackpoint>
          <Trackpoint>
            <Time>2021-08-31T09:23:19.000Z</Time>
            <Position>
              <LatitudeDegrees>41.98936899192631244659423828125</LatitudeDegrees>
              <LongitudeDegrees>2.234344482421875</LongitudeDegrees>
            </Position>
            <AltitudeMeters>497</AltitudeMeters>
            <DistanceMeters>32302.540814708</DistanceMeters>
          </Trackpoint>
          <Trackpoint>
            <Time>2021-08-31T09:23:20.000Z</Time>
            <Position>
              <LatitudeDegrees>41.9894425012171268463134765625</LatitudeDegrees>
              <LongitudeDegrees>2.23434456624090671539306640625</LongitudeDegrees>
            </Position>
            <AltitudeMeters>497</AltitudeMeters>
            <DistanceMeters>32310.723050757</DistanceMeters>
          </Trackpoint>
          <Trackpoint>
            <Time>2021-08-31T09:23:25.000Z</Time>
            <Position>
              <LatitudeDegrees>41.98978297412395477294921875</LatitudeDegrees>
              <LongitudeDegrees>2.2343456558883190155029296875</LongitudeDegrees>
            </Position>
            <AltitudeMeters>496.399993896484375</AltitudeMeters>
            <DistanceMeters>32348.618579741</DistanceMeters>
          </Trackpoint>
          <Trackpoint>
            <Time>2021-08-31T09:23:26.000Z</Time>
            <Position>
              <LatitudeDegrees>41.98984575457870960235595703125</LatitudeDegrees>
              <LongitudeDegrees>2.2343610785901546478271484375</LongitudeDegrees>
            </Position>
            <AltitudeMeters>496.20001220703125</AltitudeMeters>
            <DistanceMeters>32355.72146909</DistanceMeters>
          </Trackpoint>
          <Trackpoint>
            <Time>2021-08-31T09:23:29.000Z</Time>
            <Position>
              <LatitudeDegrees>41.990034766495227813720703125</LatitudeDegrees>
              <LongitudeDegrees>2.234416566789150238037109375</LongitudeDegrees>
            </Position>
            <AltitudeMeters>495.399993896484375</AltitudeMeters>
            <DistanceMeters>32377.253776094</DistanceMeters>
          </Trackpoint>
          <Trackpoint>
            <Time>2021-08-31T09:23:31.000Z</Time>
            <Position>
              <LatitudeDegrees>41.99015915393829345703125</LatitudeDegrees>
              <LongitudeDegrees>2.23445353098213672637939453125</LongitudeDegrees>
            </Position>
            <AltitudeMeters>494.79998779296875</AltitudeMeters>
            <DistanceMeters>32391.431876521</DistanceMeters>
          </Trackpoint>
          <Trackpoint>
            <Time>2021-08-31T09:23:33.000Z</Time>
            <Position>
              <LatitudeDegrees>41.9902857206761837005615234375</LatitudeDegrees>
              <LongitudeDegrees>2.23452217876911163330078125</LongitudeDegrees>
            </Position>
            <AltitudeMeters>494.399993896484375</AltitudeMeters>
            <DistanceMeters>32406.62070113</DistanceMeters>
          </Trackpoint>
          <Trackpoint>
            <Time>2021-08-31T09:23:38.000Z</Time>
            <Position>
              <LatitudeDegrees>41.99062476865947246551513671875</LatitudeDegrees>
              <LongitudeDegrees>2.23463885486125946044921875</LongitudeDegrees>
            </Position>
            <AltitudeMeters>493.79998779296875</AltitudeMeters>
            <DistanceMeters>32445.572150191</DistanceMeters>
          </Trackpoint>
          <Trackpoint>
            <Time>2021-08-31T09:23:43.000Z</Time>
            <Position>
              <LatitudeDegrees>41.99095786549150943756103515625</LatitudeDegrees>
              <LongitudeDegrees>2.23472443409264087677001953125</LongitudeDegrees>
            </Position>
            <AltitudeMeters>494.20001220703125</AltitudeMeters>
            <DistanceMeters>32483.316301792</DistanceMeters>
          </Trackpoint>
          <Trackpoint>
            <Time>2021-08-31T09:23:48.000Z</Time>
            <Position>
              <LatitudeDegrees>41.99129641056060791015625</LatitudeDegrees>
              <LongitudeDegrees>2.2347701154649257659912109375</LongitudeDegrees>
            </Position>
            <AltitudeMeters>494.600006103515625</AltitudeMeters>
            <DistanceMeters>32521.186086853</DistanceMeters>
          </Trackpoint>
          <Trackpoint>
            <Time>2021-08-31T09:23:53.000Z</Time>
            <Position>
              <LatitudeDegrees>41.9916150905191898345947265625</LatitudeDegrees>
              <LongitudeDegrees>2.23485209047794342041015625</LongitudeDegrees>
            </Position>
            <AltitudeMeters>494.20001220703125</AltitudeMeters>
            <DistanceMeters>32557.298363848</DistanceMeters>
          </Trackpoint>
          <Trackpoint>
            <Time>2021-08-31T09:23:57.000Z</Time>
            <Position>
              <LatitudeDegrees>41.9918779470026493072509765625</LatitudeDegrees>
              <LongitudeDegrees>2.2349283657968044281005859375</LongitudeDegrees>
            </Position>
            <AltitudeMeters>494</AltitudeMeters>
            <DistanceMeters>32587.22740431</DistanceMeters>
          </Trackpoint>
          <Trackpoint>
            <Time>2021-08-31T09:23:59.000Z</Time>
            <Position>
              <LatitudeDegrees>41.99199370108544826507568359375</LatitudeDegrees>
              <LongitudeDegrees>2.2350027970969676971435546875</LongitudeDegrees>
            </Position>
            <AltitudeMeters>493.20001220703125</AltitudeMeters>
            <DistanceMeters>32601.506729438</DistanceMeters>
          </Trackpoint>
          <Trackpoint>
            <Time>2021-08-31T09:24:02.000Z</Time>
            <Position>
              <LatitudeDegrees>41.99216050095856189727783203125</LatitudeDegrees>
              <LongitudeDegrees>2.23513732664287090301513671875</LongitudeDegrees>
            </Position>
            <AltitudeMeters>492</AltitudeMeters>
            <DistanceMeters>32623.151971091</DistanceMeters>
          </Trackpoint>
          <Trackpoint>
            <Time>2021-08-31T09:24:04.000Z</Time>
            <Position>
              <LatitudeDegrees>41.99227868579328060150146484375</LatitudeDegrees>
              <LongitudeDegrees>2.23520211875438690185546875</LongitudeDegrees>
            </Position>
            <AltitudeMeters>491.79998779296875</AltitudeMeters>
            <DistanceMeters>32637.356160543</DistanceMeters>
          </Trackpoint>
          <Trackpoint>
            <Time>2021-08-31T09:24:10.000Z</Time>
            <Position>
              <LatitudeDegrees>41.99264899827539920806884765625</LatitudeDegrees>
              <LongitudeDegrees>2.2353615425527095794677734375</LongitudeDegrees>
            </Position>
            <AltitudeMeters>493.399993896484375</AltitudeMeters>
            <DistanceMeters>32680.63120524</DistanceMeters>
          </Trackpoint>
          <Trackpoint>
            <Time>2021-08-31T09:24:12.000Z</Time>
            <Position>
              <LatitudeDegrees>41.992770619690418243408203125</LatitudeDegrees>
              <LongitudeDegrees>2.23541879095137119293212890625</LongitudeDegrees>
            </Position>
            <AltitudeMeters>493.20001220703125</AltitudeMeters>
            <DistanceMeters>32694.972370503</DistanceMeters>
          </Trackpoint>
          <Trackpoint>
            <Time>2021-08-31T09:24:15.000Z</Time>
            <Position>
              <LatitudeDegrees>41.99293591082096099853515625</LatitudeDegrees>
              <LongitudeDegrees>2.2355318628251552581787109375</LongitudeDegrees>
            </Position>
            <AltitudeMeters>492.79998779296875</AltitudeMeters>
            <DistanceMeters>32715.610895301</DistanceMeters>
          </Trackpoint>
          <Trackpoint>
            <Time>2021-08-31T09:24:16.000Z</Time>
            <Position>
              <LatitudeDegrees>41.992996595799922943115234375</LatitudeDegrees>
              <LongitudeDegrees>2.23557268269360065460205078125</LongitudeDegrees>
            </Position>
            <AltitudeMeters>493</AltitudeMeters>
            <DistanceMeters>32723.162978644</DistanceMeters>
          </Trackpoint>
          <Trackpoint>
            <Time>2021-08-31T09:24:19.000Z</Time>
            <Position>
              <LatitudeDegrees>41.9931996054947376251220703125</LatitudeDegrees>
              <LongitudeDegrees>2.2356666438281536102294921875</LongitudeDegrees>
            </Position>
            <AltitudeMeters>493.600006103515625</AltitudeMeters>
            <DistanceMeters>32747.05799347</DistanceMeters>
          </Trackpoint>
          <Trackpoint>
            <Time>2021-08-31T09:24:25.000Z</Time>
            <Position>
              <LatitudeDegrees>41.993612162768840789794921875</LatitudeDegrees>
              <LongitudeDegrees>2.2357276640832424163818359375</LongitudeDegrees>
            </Position>
            <AltitudeMeters>494.20001220703125</AltitudeMeters>
            <DistanceMeters>32793.253097813</DistanceMeters>
          </Trackpoint>
          <Trackpoint>
            <Time>2021-08-31T09:24:30.000Z</Time>
            <Position>
              <LatitudeDegrees>41.993974260985851287841796875</LatitudeDegrees>
              <LongitudeDegrees>2.23570914007723331451416015625</LongitudeDegrees>
            </Position>
            <AltitudeMeters>493.600006103515625</AltitudeMeters>
            <DistanceMeters>32833.584522164</DistanceMeters>
          </Trackpoint>
          <Trackpoint>
            <Time>2021-08-31T09:24:36.000Z</Time>
            <Position>
              <LatitudeDegrees>41.9943573139607906341552734375</LatitudeDegrees>
              <LongitudeDegrees>2.23567779175937175750732421875</LongitudeDegrees>
            </Position>
            <AltitudeMeters>492</AltitudeMeters>
            <DistanceMeters>32876.297946807</DistanceMeters>
          </Trackpoint>
          <Trackpoint>
            <Time>2021-08-31T09:24:37.000Z</Time>
            <Position>
              <LatitudeDegrees>41.9944112934172153472900390625</LatitudeDegrees>
              <LongitudeDegrees>2.23569354973733425140380859375</LongitudeDegrees>
            </Position>
            <AltitudeMeters>491.399993896484375</AltitudeMeters>
            <DistanceMeters>32882.446109134</DistanceMeters>
          </Trackpoint>
          <Trackpoint>
            <Time>2021-08-31T09:24:38.000Z</Time>
            <Position>
              <LatitudeDegrees>41.99445663951337337493896484375</LatitudeDegrees>
              <LongitudeDegrees>2.23573395051062107086181640625</LongitudeDegrees>
            </Position>
            <AltitudeMeters>491</AltitudeMeters>
            <DistanceMeters>32888.499542061</DistanceMeters>
          </Trackpoint>
          <Trackpoint>
            <Time>2021-08-31T09:24:39.000Z</Time>
            <Position>
              <LatitudeDegrees>41.99448647908866405487060546875</LatitudeDegrees>
              <LongitudeDegrees>2.23580184392631053924560546875</LongitudeDegrees>
            </Position>
            <AltitudeMeters>490.600006103515625</AltitudeMeters>
            <DistanceMeters>32895.023940912</DistanceMeters>
          </Trackpoint>
          <Trackpoint>
            <Time>2021-08-31T09:24:40.000Z</Time>
            <Position>
              <LatitudeDegrees>41.9944974593818187713623046875</LatitudeDegrees>
              <LongitudeDegrees>2.23588205873966217041015625</LongitudeDegrees>
            </Position>
            <AltitudeMeters>490.20001220703125</AltitudeMeters>
            <DistanceMeters>32901.771506801</DistanceMeters>
          </Trackpoint>
          <Trackpoint>
            <Time>2021-08-31T09:24:42.000Z</Time>
            <Position>
              <LatitudeDegrees>41.9945122115314006805419921875</LatitudeDegrees>
              <LongitudeDegrees>2.23606252111494541168212890625</LongitudeDegrees>
            </Position>
            <AltitudeMeters>489</AltitudeMeters>
            <DistanceMeters>32916.789335847</DistanceMeters>
          </Trackpoint>
          <Trackpoint>
            <Time>2021-08-31T09:24:44.000Z</Time>
            <Position>
              <LatitudeDegrees>41.99458010494709014892578125</LatitudeDegrees>
              <LongitudeDegrees>2.23622194491326808929443359375</LongitudeDegrees>
            </Position>
            <AltitudeMeters>487.600006103515625</AltitudeMeters>
            <DistanceMeters>32931.988561014</DistanceMeters>
          </Trackpoint>
          <Trackpoint>
            <Time>2021-08-31T09:24:45.000Z</Time>
            <Position>
              <LatitudeDegrees>41.9946342520415782928466796875</LatitudeDegrees>
              <LongitudeDegrees>2.2362892515957355499267578125</LongitudeDegrees>
            </Position>
            <AltitudeMeters>487.20001220703125</AltitudeMeters>
            <DistanceMeters>32940.193940345</DistanceMeters>
          </Trackpoint>
          <Trackpoint>
            <Time>2021-08-31T09:24:47.000Z</Time>
            <Position>
              <LatitudeDegrees>41.99473257176578044891357421875</LatitudeDegrees>
              <LongitudeDegrees>2.2364267148077487945556640625</LongitudeDegrees>
            </Position>
            <AltitudeMeters>486.600006103515625</AltitudeMeters>
            <DistanceMeters>32955.975815027</DistanceMeters>
          </Trackpoint>
          <Trackpoint>
            <Time>2021-08-31T09:24:49.000Z</Time>
            <Position>
              <LatitudeDegrees>41.9948022253811359405517578125</LatitudeDegrees>
              <LongitudeDegrees>2.236607931554317474365234375</LongitudeDegrees>
            </Position>
            <AltitudeMeters>485.79998779296875</AltitudeMeters>
            <DistanceMeters>32972.852088639</DistanceMeters>
          </Trackpoint>
          <Trackpoint>
            <Time>2021-08-31T09:24:53.000Z</Time>
            <Position>
              <LatitudeDegrees>41.994853354990482330322265625</LatitudeDegrees>
              <LongitudeDegrees>2.23700062371790409088134765625</LongitudeDegrees>
            </Position>
            <AltitudeMeters>484.399993896484375</AltitudeMeters>
            <DistanceMeters>33005.830329144</DistanceMeters>
          </Trackpoint>
          <Trackpoint>
            <Time>2021-08-31T09:24:55.000Z</Time>
            <Position>
              <LatitudeDegrees>41.99488461948931217193603515625</LatitudeDegrees>
              <LongitudeDegrees>2.2371809184551239013671875</LongitudeDegrees>
            </Position>
            <AltitudeMeters>483.79998779296875</AltitudeMeters>
            <DistanceMeters>33021.144968398</DistanceMeters>
          </Trackpoint>
          <Trackpoint>
            <Time>2021-08-31T09:24:57.000Z</Time>
            <Position>
              <LatitudeDegrees>41.99495829641819000244140625</LatitudeDegrees>
              <LongitudeDegrees>2.23728443495929241180419921875</LongitudeDegrees>
            </Position>
            <AltitudeMeters>483.600006103515625</AltitudeMeters>
            <DistanceMeters>33033.001240999</DistanceMeters>
          </Trackpoint>
          <Trackpoint>
            <Time>2021-08-31T09:25:00.000Z</Time>
            <Position>
              <LatitudeDegrees>41.9951304607093334197998046875</LatitudeDegrees>
              <LongitudeDegrees>2.2373096644878387451171875</LongitudeDegrees>
            </Position>
            <AltitudeMeters>483.399993896484375</AltitudeMeters>
            <DistanceMeters>33052.276912852</DistanceMeters>
          </Trackpoint>
          <Trackpoint>
            <Time>2021-08-31T09:25:04.000Z</Time>
            <Position>
              <LatitudeDegrees>41.99539289809763431549072265625</LatitudeDegrees>
              <LongitudeDegrees>2.23734830506145954132080078125</LongitudeDegrees>
            </Position>
            <AltitudeMeters>483</AltitudeMeters>
            <DistanceMeters>33081.661072178</DistanceMeters>
          </Trackpoint>
          <Trackpoint>
            <Time>2021-08-31T09:25:11.000Z</Time>
            <Position>
              <LatitudeDegrees>41.99585055001080036163330078125</LatitudeDegrees>
              <LongitudeDegrees>2.2374062240123748779296875</LongitudeDegrees>
            </Position>
            <AltitudeMeters>480.79998779296875</AltitudeMeters>
            <DistanceMeters>33132.823405776</DistanceMeters>
          </Trackpoint>
          <Trackpoint>
            <Time>2021-08-31T09:25:17.000Z</Time>
            <Position>
              <LatitudeDegrees>41.996257491409778594970703125</LatitudeDegrees>
              <LongitudeDegrees>2.23746481351554393768310546875</LongitudeDegrees>
            </Position>
            <AltitudeMeters>480</AltitudeMeters>
            <DistanceMeters>33178.375410625</DistanceMeters>
          </Trackpoint>
          <Trackpoint>
            <Time>2021-08-31T09:25:24.000Z</Time>
            <Position>
              <LatitudeDegrees>41.9967086054384708404541015625</LatitudeDegrees>
              <LongitudeDegrees>2.23758098669350147247314453125</LongitudeDegrees>
            </Position>
            <AltitudeMeters>480.600006103515625</AltitudeMeters>
            <DistanceMeters>33229.496603525</DistanceMeters>
          </Trackpoint>
          <Trackpoint>
            <Time>2021-08-31T09:25:26.000Z</Time>
            <Position>
              <LatitudeDegrees>41.996834836900234222412109375</LatitudeDegrees>
              <LongitudeDegrees>2.2376508079469203948974609375</LongitudeDegrees>
            </Position>
            <AltitudeMeters>481.20001220703125</AltitudeMeters>
            <DistanceMeters>33244.687211592</DistanceMeters>
          </Trackpoint>
          <Trackpoint>
            <Time>2021-08-31T09:25:28.000Z</Time>
            <Position>
              <LatitudeDegrees>41.99693650938570499420166015625</LatitudeDegrees>
              <LongitudeDegrees>2.23775382153689861297607421875</LongitudeDegrees>
            </Position>
            <AltitudeMeters>482</AltitudeMeters>
            <DistanceMeters>33258.852886964</DistanceMeters>
          </Trackpoint>
          <Trackpoint>
            <Time>2021-08-31T09:25:32.000Z</Time>
            <Position>
              <LatitudeDegrees>41.99706223793327808380126953125</LatitudeDegrees>
              <LongitudeDegrees>2.23804199136793613433837890625</LongitudeDegrees>
            </Position>
            <AltitudeMeters>483.20001220703125</AltitudeMeters>
            <DistanceMeters>33286.493739117</DistanceMeters>
          </Trackpoint>
          <Trackpoint>
            <Time>2021-08-31T09:25:34.000Z</Time>
            <Position>
              <LatitudeDegrees>41.99715594761073589324951171875</LatitudeDegrees>
              <LongitudeDegrees>2.23815447650849819183349609375</LongitudeDegrees>
            </Position>
            <AltitudeMeters>484.399993896484375</AltitudeMeters>
            <DistanceMeters>33300.470744297</DistanceMeters>
          </Trackpoint>
          <Trackpoint>
            <Time>2021-08-31T09:25:35.000Z</Time>
            <Position>
              <LatitudeDegrees>41.9972101785242557525634765625</LatitudeDegrees>
              <LongitudeDegrees>2.23819051869213581085205078125</LongitudeDegrees>
            </Position>
            <AltitudeMeters>485.20001220703125</AltitudeMeters>
            <DistanceMeters>33307.202231769</DistanceMeters>
          </Trackpoint>
          <Trackpoint>
            <Time>2021-08-31T09:25:36.000Z</Time>
            <Position>
              <LatitudeDegrees>41.997264660894870758056640625</LatitudeDegrees>
              <LongitudeDegrees>2.23821482621133327484130859375</LongitudeDegrees>
            </Position>
            <AltitudeMeters>485.79998779296875</AltitudeMeters>
            <DistanceMeters>33313.590967601</DistanceMeters>
          </Trackpoint>
          <Trackpoint>
            <Time>2021-08-31T09:25:38.000Z</Time>
            <Position>
              <LatitudeDegrees>41.9973756372928619384765625</LatitudeDegrees>
              <LongitudeDegrees>2.23822630941867828369140625</LongitudeDegrees>
            </Position>
            <AltitudeMeters>487</AltitudeMeters>
            <DistanceMeters>33325.97911311</DistanceMeters>
          </Trackpoint>
          <Trackpoint>
            <Time>2021-08-31T09:25:39.000Z</Time>
            <Position>
              <LatitudeDegrees>41.9974284432828426361083984375</LatitudeDegrees>
              <LongitudeDegrees>2.2382207773625850677490234375</LongitudeDegrees>
            </Position>
            <AltitudeMeters>487.79998779296875</AltitudeMeters>
            <DistanceMeters>33331.873833982</DistanceMeters>
          </Trackpoint>
          <Trackpoint>
            <Time>2021-08-31T09:25:41.000Z</Time>
            <Position>
              <LatitudeDegrees>41.99752927757799625396728515625</LatitudeDegrees>
              <LongitudeDegrees>2.23821633495390415191650390625</LongitudeDegrees>
            </Position>
            <AltitudeMeters>489.20001220703125</AltitudeMeters>
            <DistanceMeters>33343.102678864</DistanceMeters>
          </Trackpoint>
          <Trackpoint>
            <Time>2021-08-31T09:25:44.000Z</Time>
            <Position>
              <LatitudeDegrees>41.997672356665134429931640625</LatitudeDegrees>
              <LongitudeDegrees>2.23824382759630680084228515625</LongitudeDegrees>
            </Position>
            <AltitudeMeters>491</AltitudeMeters>
            <DistanceMeters>33359.189441458</DistanceMeters>
          </Trackpoint>
          <Trackpoint>
            <Time>2021-08-31T09:25:45.000Z</Time>
            <Position>
              <LatitudeDegrees>41.99772289954125881195068359375</LatitudeDegrees>
              <LongitudeDegrees>2.23825673572719097137451171875</LongitudeDegrees>
            </Position>
            <AltitudeMeters>491.20001220703125</AltitudeMeters>
            <DistanceMeters>33364.914751711</DistanceMeters>
          </Trackpoint>
          <Trackpoint>
            <Time>2021-08-31T09:25:47.000Z</Time>
            <Position>
              <LatitudeDegrees>41.99781426228582859039306640625</LatitudeDegrees>
              <LongitudeDegrees>2.2383039258420467376708984375</LongitudeDegrees>
            </Position>
            <AltitudeMeters>491.79998779296875</AltitudeMeters>
            <DistanceMeters>33375.806819665</DistanceMeters>
          </Trackpoint>
          <Trackpoint>
            <Time>2021-08-31T09:25:48.000Z</Time>
            <Position>
              <LatitudeDegrees>41.99785600416362285614013671875</LatitudeDegrees>
              <LongitudeDegrees>2.238336615264415740966796875</LongitudeDegrees>
            </Position>
            <AltitudeMeters>492</AltitudeMeters>
            <DistanceMeters>33381.182342395</DistanceMeters>
          </Trackpoint>
          <Trackpoint>
            <Time>2021-08-31T09:25:49.000Z</Time>
            <Position>
              <LatitudeDegrees>41.99789724312722682952880859375</LatitudeDegrees>
              <LongitudeDegrees>2.238384224474430084228515625</LongitudeDegrees>
            </Position>
            <AltitudeMeters>492.399993896484375</AltitudeMeters>
            <DistanceMeters>33387.229805466</DistanceMeters>
          </Trackpoint>
          <Trackpoint>
            <Time>2021-08-31T09:25:53.000Z</Time>
            <Position>
              <LatitudeDegrees>41.99806152842938899993896484375</LatitudeDegrees>
              <LongitudeDegrees>2.23862285725772380828857421875</LongitudeDegrees>
            </Position>
            <AltitudeMeters>493.20001220703125</AltitudeMeters>
            <DistanceMeters>33414.136297037</DistanceMeters>
          </Trackpoint>
          <Trackpoint>
            <Time>2021-08-31T09:26:00.000Z</Time>
            <Position>
              <LatitudeDegrees>41.9983038492500782012939453125</LatitudeDegrees>
              <LongitudeDegrees>2.23905754275619983673095703125</LongitudeDegrees>
            </Position>
            <AltitudeMeters>492.600006103515625</AltitudeMeters>
            <DistanceMeters>33459.083028865</DistanceMeters>
          </Trackpoint>
          <Trackpoint>
            <Time>2021-08-31T09:26:02.000Z</Time>
            <Position>
              <LatitudeDegrees>41.99839630164206027984619140625</LatitudeDegrees>
              <LongitudeDegrees>2.2391414456069469451904296875</LongitudeDegrees>
            </Position>
            <AltitudeMeters>492.20001220703125</AltitudeMeters>
            <DistanceMeters>33471.494841954</DistanceMeters>
          </Trackpoint>
          <Trackpoint>
            <Time>2021-08-31T09:26:03.000Z</Time>
            <Position>
              <LatitudeDegrees>41.99843636713922023773193359375</LatitudeDegrees>
              <LongitudeDegrees>2.2391897253692150115966796875</LongitudeDegrees>
            </Position>
            <AltitudeMeters>491.79998779296875</AltitudeMeters>
            <DistanceMeters>33477.480770731</DistanceMeters>
          </Trackpoint>
          <Trackpoint>
            <Time>2021-08-31T09:26:04.000Z</Time>
            <Position>
              <LatitudeDegrees>41.99846503324806690216064453125</LatitudeDegrees>
              <LongitudeDegrees>2.239238508045673370361328125</LongitudeDegrees>
            </Position>
            <AltitudeMeters>491.600006103515625</AltitudeMeters>
            <DistanceMeters>33482.624516835</DistanceMeters>
          </Trackpoint>
          <Trackpoint>
            <Time>2021-08-31T09:26:06.000Z</Time>
            <Position>
              <LatitudeDegrees>41.99851918034255504608154296875</LatitudeDegrees>
              <LongitudeDegrees>2.2393687628209590911865234375</LongitudeDegrees>
            </Position>
            <AltitudeMeters>491</AltitudeMeters>
            <DistanceMeters>33494.969946363</DistanceMeters>
          </Trackpoint>
          <Trackpoint>
            <Time>2021-08-31T09:26:07.000Z</Time>
            <Position>
              <LatitudeDegrees>41.99855723418295383453369140625</LatitudeDegrees>
              <LongitudeDegrees>2.239439673721790313720703125</LongitudeDegrees>
            </Position>
            <AltitudeMeters>491</AltitudeMeters>
            <DistanceMeters>33502.204469365</DistanceMeters>
          </Trackpoint>
          <Trackpoint>
            <Time>2021-08-31T09:26:11.000Z</Time>
            <Position>
              <LatitudeDegrees>41.99875119142234325408935546875</LatitudeDegrees>
              <LongitudeDegrees>2.23977687768638134002685546875</LongitudeDegrees>
            </Position>
            <AltitudeMeters>491.399993896484375</AltitudeMeters>
            <DistanceMeters>33537.474617237</DistanceMeters>
          </Trackpoint>
          <Trackpoint>
            <Time>2021-08-31T09:26:13.000Z</Time>
            <Position>
              <LatitudeDegrees>41.99888295494019985198974609375</LatitudeDegrees>
              <LongitudeDegrees>2.23996060900390148162841796875</LongitudeDegrees>
            </Position>
            <AltitudeMeters>490</AltitudeMeters>
            <DistanceMeters>33558.594291144</DistanceMeters>
          </Trackpoint>
          <Trackpoint>
            <Time>2021-08-31T09:26:14.000Z</Time>
            <Position>
              <LatitudeDegrees>41.9989713840186595916748046875</LatitudeDegrees>
              <LongitudeDegrees>2.24002833478152751922607421875</LongitudeDegrees>
            </Position>
            <AltitudeMeters>488.399993896484375</AltitudeMeters>
            <DistanceMeters>33569.919227159</DistanceMeters>
          </Trackpoint>
          <Trackpoint>
            <Time>2021-08-31T09:26:15.000Z</Time>
            <Position>
              <LatitudeDegrees>41.9990659318864345550537109375</LatitudeDegrees>
              <LongitudeDegrees>2.240062616765499114990234375</LongitudeDegrees>
            </Position>
            <AltitudeMeters>486.600006103515625</AltitudeMeters>
            <DistanceMeters>33580.8179255</DistanceMeters>
          </Trackpoint>
          <Trackpoint>
            <Time>2021-08-31T09:26:17.000Z</Time>
            <Position>
              <LatitudeDegrees>41.9992620684206485748291015625</LatitudeDegrees>
              <LongitudeDegrees>2.2400825656950473785400390625</LongitudeDegrees>
            </Position>
            <AltitudeMeters>482.600006103515625</AltitudeMeters>
            <DistanceMeters>33602.710810132</DistanceMeters>
          </Trackpoint>
          <Trackpoint>
            <Time>2021-08-31T09:26:19.000Z</Time>
            <Position>
              <LatitudeDegrees>41.99945636093616485595703125</LatitudeDegrees>
              <LongitudeDegrees>2.2401781193912029266357421875</LongitudeDegrees>
            </Position>
            <AltitudeMeters>479.600006103515625</AltitudeMeters>
            <DistanceMeters>33625.735137869</DistanceMeters>
          </Trackpoint>
          <Trackpoint>
            <Time>2021-08-31T09:26:20.000Z</Time>
            <Position>
              <LatitudeDegrees>41.99954219162464141845703125</LatitudeDegrees>
              <LongitudeDegrees>2.2402619384229183197021484375</LongitudeDegrees>
            </Position>
            <AltitudeMeters>478.20001220703125</AltitudeMeters>
            <DistanceMeters>33637.539123616</DistanceMeters>
          </Trackpoint>
          <Trackpoint>
            <Time>2021-08-31T09:26:21.000Z</Time>
            <Position>
              <LatitudeDegrees>41.99961461126804351806640625</LatitudeDegrees>
              <LongitudeDegrees>2.24036595784127712249755859375</LongitudeDegrees>
            </Position>
            <AltitudeMeters>477.399993896484375</AltitudeMeters>
            <DistanceMeters>33649.328948327</DistanceMeters>
          </Trackpoint>
          <Trackpoint>
            <Time>2021-08-31T09:26:23.000Z</Time>
            <Position>
              <LatitudeDegrees>41.9997163675725460052490234375</LatitudeDegrees>
              <LongitudeDegrees>2.24060274660587310791015625</LongitudeDegrees>
            </Position>
            <AltitudeMeters>476.600006103515625</AltitudeMeters>
            <DistanceMeters>33671.953689503</DistanceMeters>
          </Trackpoint>
          <Trackpoint>
            <Time>2021-08-31T09:26:24.000Z</Time>
            <Position>
              <LatitudeDegrees>41.99975869618356227874755859375</LatitudeDegrees>
              <LongitudeDegrees>2.24071313627064228057861328125</LongitudeDegrees>
            </Position>
            <AltitudeMeters>476.399993896484375</AltitudeMeters>
            <DistanceMeters>33682.22756723</DistanceMeters>
          </Trackpoint>
          <Trackpoint>
            <Time>2021-08-31T09:26:26.000Z</Time>
            <Position>
              <LatitudeDegrees>41.99986514635384082794189453125</LatitudeDegrees>
              <LongitudeDegrees>2.24086669273674488067626953125</LongitudeDegrees>
            </Position>
            <AltitudeMeters>484</AltitudeMeters>
            <DistanceMeters>33699.597192559</DistanceMeters>
          </Trackpoint>
          <Trackpoint>
            <Time>2021-08-31T09:26:27.000Z</Time>
            <Position>
              <LatitudeDegrees>41.9999245740473270416259765625</LatitudeDegrees>
              <LongitudeDegrees>2.240940369665622711181640625</LongitudeDegrees>
            </Position>
            <AltitudeMeters>484</AltitudeMeters>
            <DistanceMeters>33708.59115858</DistanceMeters>
          </Trackpoint>
          <Trackpoint>
            <Time>2021-08-31T09:26:29.000Z</Time>
            <Position>
              <LatitudeDegrees>41.999979726970195770263671875</LatitudeDegrees>
              <LongitudeDegrees>2.2411318123340606689453125</LongitudeDegrees>
            </Position>
            <AltitudeMeters>482.79998779296875</AltitudeMeters>
            <DistanceMeters>33725.574110079</DistanceMeters>
          </Trackpoint>
          <Trackpoint>
            <Time>2021-08-31T09:26:32.000Z</Time>
            <Position>
              <LatitudeDegrees>41.99990965425968170166015625</LatitudeDegrees>
              <LongitudeDegrees>2.2414407692849636077880859375</LongitudeDegrees>
            </Position>
            <AltitudeMeters>479.600006103515625</AltitudeMeters>
            <DistanceMeters>33752.292675223</DistanceMeters>
          </Trackpoint>
          <Trackpoint>
            <Time>2021-08-31T09:26:34.000Z</Time>
            <Position>
              <LatitudeDegrees>41.99987612664699554443359375</LatitudeDegrees>
              <LongitudeDegrees>2.2416831739246845245361328125</LongitudeDegrees>
            </Position>
            <AltitudeMeters>474.79998779296875</AltitudeMeters>
            <DistanceMeters>33772.687143863</DistanceMeters>
          </Trackpoint>
          <Trackpoint>
            <Time>2021-08-31T09:26:35.000Z</Time>
            <Position>
              <LatitudeDegrees>41.9998861849308013916015625</LatitudeDegrees>
              <LongitudeDegrees>2.24181451834738254547119140625</LongitudeDegrees>
            </Position>
            <AltitudeMeters>474.79998779296875</AltitudeMeters>
            <DistanceMeters>33783.608190043</DistanceMeters>
          </Trackpoint>
          <Trackpoint>
            <Time>2021-08-31T09:26:36.000Z</Time>
            <Position>
              <LatitudeDegrees>41.99991275556385517120361328125</LatitudeDegrees>
              <LongitudeDegrees>2.24193370901048183441162109375</LongitudeDegrees>
            </Position>
            <AltitudeMeters>468.600006103515625</AltitudeMeters>
            <DistanceMeters>33793.900947537</DistanceMeters>
          </Trackpoint>
          <Trackpoint>
            <Time>2021-08-31T09:26:37.000Z</Time>
            <Position>
              <LatitudeDegrees>41.99996656738221645355224609375</LatitudeDegrees>
              <LongitudeDegrees>2.2420419193804264068603515625</LongitudeDegrees>
            </Position>
            <AltitudeMeters>468.20001220703125</AltitudeMeters>
            <DistanceMeters>33804.670455504</DistanceMeters>
          </Trackpoint>
          <Trackpoint>
            <Time>2021-08-31T09:26:38.000Z</Time>
            <Position>
              <LatitudeDegrees>42.0000452734529972076416015625</LatitudeDegrees>
              <LongitudeDegrees>2.2421321086585521697998046875</LongitudeDegrees>
            </Position>
            <AltitudeMeters>467.600006103515625</AltitudeMeters>
            <DistanceMeters>33816.176931108</DistanceMeters>
          </Trackpoint>
          <Trackpoint>
            <Time>2021-08-31T09:26:39.000Z</Time>
            <Position>
              <LatitudeDegrees>42.000143341720104217529296875</LatitudeDegrees>
              <LongitudeDegrees>2.24218952469527721405029296875</LongitudeDegrees>
            </Position>
            <AltitudeMeters>466.399993896484375</AltitudeMeters>
            <DistanceMeters>33828.080710321</DistanceMeters>
          </Trackpoint>
          <Trackpoint>
            <Time>2021-08-31T09:26:40.000Z</Time>
            <Position>
              <LatitudeDegrees>42.0002467744052410125732421875</LatitudeDegrees>
              <LongitudeDegrees>2.242218442261219024658203125</LongitudeDegrees>
            </Position>
            <AltitudeMeters>466</AltitudeMeters>
            <DistanceMeters>33839.838706339</DistanceMeters>
          </Trackpoint>
          <Trackpoint>
            <Time>2021-08-31T09:26:43.000Z</Time>
            <Position>
              <LatitudeDegrees>42.0005500316619873046875</LatitudeDegrees>
              <LongitudeDegrees>2.24228474311530590057373046875</LongitudeDegrees>
            </Position>
            <AltitudeMeters>466</AltitudeMeters>
            <DistanceMeters>33874.034330607</DistanceMeters>
          </Trackpoint>
          <Trackpoint>
            <Time>2021-08-31T09:26:45.000Z</Time>
            <Position>
              <LatitudeDegrees>42.0007466711103916168212890625</LatitudeDegrees>
              <LongitudeDegrees>2.24230326712131500244140625</LongitudeDegrees>
            </Position>
            <AltitudeMeters>466.20001220703125</AltitudeMeters>
            <DistanceMeters>33895.974186005</DistanceMeters>
          </Trackpoint>
          <Trackpoint>
            <Time>2021-08-31T09:26:47.000Z</Time>
            <Position>
              <LatitudeDegrees>42.00094590894877910614013671875</LatitudeDegrees>
              <LongitudeDegrees>2.2422930411994457244873046875</LongitudeDegrees>
            </Position>
            <AltitudeMeters>466</AltitudeMeters>
            <DistanceMeters>33918.165924987</DistanceMeters>
          </Trackpoint>
          <Trackpoint>
            <Time>2021-08-31T09:26:52.000Z</Time>
            <Position>
              <LatitudeDegrees>42.00137992389500141143798828125</LatitudeDegrees>
              <LongitudeDegrees>2.242292203009128570556640625</LongitudeDegrees>
            </Position>
            <AltitudeMeters>464</AltitudeMeters>
            <DistanceMeters>33966.472781174</DistanceMeters>
          </Trackpoint>
          <Trackpoint>
            <Time>2021-08-31T09:26:54.000Z</Time>
            <Position>
              <LatitudeDegrees>42.00148335658013820648193359375</LatitudeDegrees>
              <LongitudeDegrees>2.24238046444952487945556640625</LongitudeDegrees>
            </Position>
            <AltitudeMeters>462.600006103515625</AltitudeMeters>
            <DistanceMeters>33980.104395644</DistanceMeters>
          </Trackpoint>
          <Trackpoint>
            <Time>2021-08-31T09:26:57.000Z</Time>
            <Position>
              <LatitudeDegrees>42.00153012759983539581298828125</LatitudeDegrees>
              <LongitudeDegrees>2.24253402091562747955322265625</LongitudeDegrees>
            </Position>
            <AltitudeMeters>461.20001220703125</AltitudeMeters>
            <DistanceMeters>33993.830411633</DistanceMeters>
          </Trackpoint>
          <Trackpoint>
            <Time>2021-08-31T09:26:59.000Z</Time>
            <Position>
              <LatitudeDegrees>42.00153213925659656524658203125</LatitudeDegrees>
              <LongitudeDegrees>2.2425438277423381805419921875</LongitudeDegrees>
            </Position>
            <AltitudeMeters>461.20001220703125</AltitudeMeters>
            <DistanceMeters>33994.66966485</DistanceMeters>
          </Trackpoint>
          <Trackpoint>
            <Time>2021-08-31T09:27:11.000Z</Time>
            <Position>
              <LatitudeDegrees>42.00156080536544322967529296875</LatitudeDegrees>
              <LongitudeDegrees>2.24259696900844573974609375</LongitudeDegrees>
            </Position>
            <AltitudeMeters>461</AltitudeMeters>
            <DistanceMeters>34000.100339731</DistanceMeters>
          </Trackpoint>
          <Trackpoint>
            <Time>2021-08-31T09:27:13.000Z</Time>
            <Position>
              <LatitudeDegrees>42.00163724832236766815185546875</LatitudeDegrees>
              <LongitudeDegrees>2.2426256351172924041748046875</LongitudeDegrees>
            </Position>
            <AltitudeMeters>461</AltitudeMeters>
            <DistanceMeters>34008.932713727</DistanceMeters>
          </Trackpoint>
          <Trackpoint>
            <Time>2021-08-31T09:27:14.000Z</Time>
            <Position>
              <LatitudeDegrees>42.00168527662754058837890625</LatitudeDegrees>
              <LongitudeDegrees>2.24263192154467105865478515625</LongitudeDegrees>
            </Position>
            <AltitudeMeters>461.20001220703125</AltitudeMeters>
            <DistanceMeters>34014.30319454</DistanceMeters>
          </Trackpoint>
          <Trackpoint>
            <Time>2021-08-31T09:27:20.000Z</Time>
            <Position>
              <LatitudeDegrees>42.00201543979346752166748046875</LatitudeDegrees>
              <LongitudeDegrees>2.24265597760677337646484375</LongitudeDegrees>
            </Position>
            <AltitudeMeters>463.600006103515625</AltitudeMeters>
            <DistanceMeters>34051.104919844</DistanceMeters>
          </Trackpoint>
          <Trackpoint>
            <Time>2021-08-31T09:27:27.000Z</Time>
            <Position>
              <LatitudeDegrees>42.00246370397508144378662109375</LatitudeDegrees>
              <LongitudeDegrees>2.24264231510460376739501953125</LongitudeDegrees>
            </Position>
            <AltitudeMeters>462.79998779296875</AltitudeMeters>
            <DistanceMeters>34101.010322996</DistanceMeters>
          </Trackpoint>
          <Trackpoint>
            <Time>2021-08-31T09:27:28.000Z</Time>
            <Position>
              <LatitudeDegrees>42.00252489186823368072509765625</LatitudeDegrees>
              <LongitudeDegrees>2.242663018405437469482421875</LongitudeDegrees>
            </Position>
            <AltitudeMeters>462.20001220703125</AltitudeMeters>
            <DistanceMeters>34108.033305093</DistanceMeters>
          </Trackpoint>
          <Trackpoint>
            <Time>2021-08-31T09:27:29.000Z</Time>
            <Position>
              <LatitudeDegrees>42.00257903896272182464599609375</LatitudeDegrees>
              <LongitudeDegrees>2.24271205253899097442626953125</LongitudeDegrees>
            </Position>
            <AltitudeMeters>461.399993896484375</AltitudeMeters>
            <DistanceMeters>34115.297722946</DistanceMeters>
          </Trackpoint>
          <Trackpoint>
            <Time>2021-08-31T09:27:31.000Z</Time>
            <Position>
              <LatitudeDegrees>42.00263871811330318450927734375</LatitudeDegrees>
              <LongitudeDegrees>2.24286426790058612823486328125</LongitudeDegrees>
            </Position>
            <AltitudeMeters>460.399993896484375</AltitudeMeters>
            <DistanceMeters>34129.532394889</DistanceMeters>
          </Trackpoint>
          <Trackpoint>
            <Time>2021-08-31T09:27:33.000Z</Time>
            <Position>
              <LatitudeDegrees>42.0026366226375102996826171875</LatitudeDegrees>
              <LongitudeDegrees>2.24304162897169589996337890625</LongitudeDegrees>
            </Position>
            <AltitudeMeters>459.79998779296875</AltitudeMeters>
            <DistanceMeters>34144.203793329</DistanceMeters>
          </Trackpoint>
          <Trackpoint>
            <Time>2021-08-31T09:27:34.000Z</Time>
            <Position>
              <LatitudeDegrees>42.00262497179210186004638671875</LatitudeDegrees>
              <LongitudeDegrees>2.2431312315165996551513671875</LongitudeDegrees>
            </Position>
            <AltitudeMeters>459.600006103515625</AltitudeMeters>
            <DistanceMeters>34151.727124981</DistanceMeters>
          </Trackpoint>
          <Trackpoint>
            <Time>2021-08-31T09:27:42.000Z</Time>
            <Position>
              <LatitudeDegrees>42.0025601796805858612060546875</LatitudeDegrees>
              <LongitudeDegrees>2.2438503988087177276611328125</LongitudeDegrees>
            </Position>
            <AltitudeMeters>457.399993896484375</AltitudeMeters>
            <DistanceMeters>34211.645066639</DistanceMeters>
          </Trackpoint>
          <Trackpoint>
            <Time>2021-08-31T09:27:43.000Z</Time>
            <Position>
              <LatitudeDegrees>42.00255087576806545257568359375</LatitudeDegrees>
              <LongitudeDegrees>2.2439352236688137054443359375</LongitudeDegrees>
            </Position>
            <AltitudeMeters>457.79998779296875</AltitudeMeters>
            <DistanceMeters>34218.737141497</DistanceMeters>
          </Trackpoint>
          <Trackpoint>
            <Time>2021-08-31T09:27:46.000Z</Time>
            <Position>
              <LatitudeDegrees>42.0025102235376834869384765625</LatitudeDegrees>
              <LongitudeDegrees>2.24419615231454372406005859375</LongitudeDegrees>
            </Position>
            <AltitudeMeters>459.20001220703125</AltitudeMeters>
            <DistanceMeters>34240.787639589</DistanceMeters>
          </Trackpoint>
          <Trackpoint>
            <Time>2021-08-31T09:27:48.000Z</Time>
            <Position>
              <LatitudeDegrees>42.00245448388159275054931640625</LatitudeDegrees>
              <LongitudeDegrees>2.24435943178832530975341796875</LongitudeDegrees>
            </Position>
            <AltitudeMeters>460</AltitudeMeters>
            <DistanceMeters>34255.649222269</DistanceMeters>
          </Trackpoint>
          <Trackpoint>
            <Time>2021-08-31T09:27:51.000Z</Time>
            <Position>
              <LatitudeDegrees>42.00236043892800807952880859375</LatitudeDegrees>
              <LongitudeDegrees>2.24459177814424037933349609375</LongitudeDegrees>
            </Position>
            <AltitudeMeters>460.79998779296875</AltitudeMeters>
            <DistanceMeters>34277.53261812</DistanceMeters>
          </Trackpoint>
          <Trackpoint>
            <Time>2021-08-31T09:27:53.000Z</Time>
            <Position>
              <LatitudeDegrees>42.00236328877508640289306640625</LatitudeDegrees>
              <LongitudeDegrees>2.24475002847611904144287109375</LongitudeDegrees>
            </Position>
            <AltitudeMeters>461</AltitudeMeters>
            <DistanceMeters>34290.625285577</DistanceMeters>
          </Trackpoint>
          <Trackpoint>
            <Time>2021-08-31T09:27:55.000Z</Time>
            <Position>
              <LatitudeDegrees>42.002472169697284698486328125</LatitudeDegrees>
              <LongitudeDegrees>2.24486687220633029937744140625</LongitudeDegrees>
            </Position>
            <AltitudeMeters>461.79998779296875</AltitudeMeters>
            <DistanceMeters>34306.125421507</DistanceMeters>
          </Trackpoint>
          <Trackpoint>
            <Time>2021-08-31T09:28:02.000Z</Time>
            <Position>
              <LatitudeDegrees>42.00296293012797832489013671875</LatitudeDegrees>
              <LongitudeDegrees>2.245120592415332794189453125</LongitudeDegrees>
            </Position>
            <AltitudeMeters>464</AltitudeMeters>
            <DistanceMeters>34364.640430914</DistanceMeters>
          </Trackpoint>
          <Trackpoint>
            <Time>2021-08-31T09:28:09.000Z</Time>
            <Position>
              <LatitudeDegrees>42.003398872911930084228515625</LatitudeDegrees>
              <LongitudeDegrees>2.24533022381365299224853515625</LongitudeDegrees>
            </Position>
            <AltitudeMeters>464</AltitudeMeters>
            <DistanceMeters>34416.166470693</DistanceMeters>
          </Trackpoint>
          <Trackpoint>
            <Time>2021-08-31T09:28:16.000Z</Time>
            <Position>
              <LatitudeDegrees>42.00382509268820285797119140625</LatitudeDegrees>
              <LongitudeDegrees>2.24552988074719905853271484375</LongitudeDegrees>
            </Position>
            <AltitudeMeters>464.20001220703125</AltitudeMeters>
            <DistanceMeters>34466.397505619</DistanceMeters>
          </Trackpoint>
          <Trackpoint>
            <Time>2021-08-31T09:28:24.000Z</Time>
            <Position>
              <LatitudeDegrees>42.0043257437646389007568359375</LatitudeDegrees>
              <LongitudeDegrees>2.24572869949042797088623046875</LongitudeDegrees>
            </Position>
            <AltitudeMeters>464.399993896484375</AltitudeMeters>
            <DistanceMeters>34524.496608756</DistanceMeters>
          </Trackpoint>
          <Trackpoint>
            <Time>2021-08-31T09:28:29.000Z</Time>
            <Position>
              <LatitudeDegrees>42.00462506152689456939697265625</LatitudeDegrees>
              <LongitudeDegrees>2.2459012828767299652099609375</LongitudeDegrees>
            </Position>
            <AltitudeMeters>464</AltitudeMeters>
            <DistanceMeters>34560.740425476</DistanceMeters>
          </Trackpoint>
          <Trackpoint>
            <Time>2021-08-31T09:28:34.000Z</Time>
            <Position>
              <LatitudeDegrees>42.0049118064343929290771484375</LatitudeDegrees>
              <LongitudeDegrees>2.24610923789441585540771484375</LongitudeDegrees>
            </Position>
            <AltitudeMeters>462.79998779296875</AltitudeMeters>
            <DistanceMeters>34596.995078515</DistanceMeters>
          </Trackpoint>
          <Trackpoint>
            <Time>2021-08-31T09:28:35.000Z</Time>
            <Position>
              <LatitudeDegrees>42.00495329685509204864501953125</LatitudeDegrees>
              <LongitudeDegrees>2.24617294035851955413818359375</LongitudeDegrees>
            </Position>
            <AltitudeMeters>462.600006103515625</AltitudeMeters>
            <DistanceMeters>34604.00132541</DistanceMeters>
          </Trackpoint>
          <Trackpoint>
            <Time>2021-08-31T09:28:36.000Z</Time>
            <Position>
              <LatitudeDegrees>42.00497508980333805084228515625</LatitudeDegrees>
              <LongitudeDegrees>2.2462496347725391387939453125</LongitudeDegrees>
            </Position>
            <AltitudeMeters>462.20001220703125</AltitudeMeters>
            <DistanceMeters>34610.79291068</DistanceMeters>
          </Trackpoint>
          <Trackpoint>
            <Time>2021-08-31T09:28:37.000Z</Time>
            <Position>
              <LatitudeDegrees>42.0049734972417354583740234375</LatitudeDegrees>
              <LongitudeDegrees>2.2463280893862247467041015625</LongitudeDegrees>
            </Position>
            <AltitudeMeters>462</AltitudeMeters>
            <DistanceMeters>34617.284007404</DistanceMeters>
          </Trackpoint>
          <Trackpoint>
            <Time>2021-08-31T09:28:38.000Z</Time>
            <Position>
              <LatitudeDegrees>42.00495782308280467987060546875</LatitudeDegrees>
              <LongitudeDegrees>2.24640729837119579315185546875</LongitudeDegrees>
            </Position>
            <AltitudeMeters>462</AltitudeMeters>
            <DistanceMeters>34624.063615734</DistanceMeters>
          </Trackpoint>
          <Trackpoint>
            <Time>2021-08-31T09:28:42.000Z</Time>
            <Position>
              <LatitudeDegrees>42.00487534515559673309326171875</LatitudeDegrees>
              <LongitudeDegrees>2.2467388026416301727294921875</LongitudeDegrees>
            </Position>
            <AltitudeMeters>462.399993896484375</AltitudeMeters>
            <DistanceMeters>34652.977513901</DistanceMeters>
          </Trackpoint>
          <Trackpoint>
            <Time>2021-08-31T09:28:51.000Z</Time>
            <Position>
              <LatitudeDegrees>42.00473654083907604217529296875</LatitudeDegrees>
              <LongitudeDegrees>2.24749334156513214111328125</LongitudeDegrees>
            </Position>
            <AltitudeMeters>466.79998779296875</AltitudeMeters>
            <DistanceMeters>34717.267282523</DistanceMeters>
          </Trackpoint>
          <Trackpoint>
            <Time>2021-08-31T09:28:52.000Z</Time>
            <Position>
              <LatitudeDegrees>42.0047243870794773101806640625</LatitudeDegrees>
              <LongitudeDegrees>2.24757724441587924957275390625</LongitudeDegrees>
            </Position>
            <AltitudeMeters>467</AltitudeMeters>
            <DistanceMeters>34724.337678777</DistanceMeters>
          </Trackpoint>
          <Trackpoint>
            <Time>2021-08-31T09:29:01.000Z</Time>
            <Position>
              <LatitudeDegrees>42.00463662855327129364013671875</LatitudeDegrees>
              <LongitudeDegrees>2.2483424283564090728759765625</LongitudeDegrees>
            </Position>
            <AltitudeMeters>467</AltitudeMeters>
            <DistanceMeters>34788.373417028</DistanceMeters>
          </Trackpoint>
          <Trackpoint>
            <Time>2021-08-31T09:29:08.000Z</Time>
            <Position>
              <LatitudeDegrees>42.00456286780536174774169921875</LatitudeDegrees>
              <LongitudeDegrees>2.2489194385707378387451171875</LongitudeDegrees>
            </Position>
            <AltitudeMeters>471.600006103515625</AltitudeMeters>
            <DistanceMeters>34836.797523945</DistanceMeters>
          </Trackpoint>
          <Trackpoint>
            <Time>2021-08-31T09:29:09.000Z</Time>
            <Position>
              <LatitudeDegrees>42.0045666396617889404296875</LatitudeDegrees>
              <LongitudeDegrees>2.2489982284605503082275390625</LongitudeDegrees>
            </Position>
            <AltitudeMeters>472.20001220703125</AltitudeMeters>
            <DistanceMeters>34843.327456637</DistanceMeters>
          </Trackpoint>
          <Trackpoint>
            <Time>2021-08-31T09:29:11.000Z</Time>
            <Position>
              <LatitudeDegrees>42.0046147517859935760498046875</LatitudeDegrees>
              <LongitudeDegrees>2.249092273414134979248046875</LongitudeDegrees>
            </Position>
            <AltitudeMeters>473.20001220703125</AltitudeMeters>
            <DistanceMeters>34852.771027729</DistanceMeters>
          </Trackpoint>
          <Trackpoint>
            <Time>2021-08-31T09:29:13.000Z</Time>
            <Position>
              <LatitudeDegrees>42.0047052763402462005615234375</LatitudeDegrees>
              <LongitudeDegrees>2.24909537471830844879150390625</LongitudeDegrees>
            </Position>
            <AltitudeMeters>473.79998779296875</AltitudeMeters>
            <DistanceMeters>34862.850132848</DistanceMeters>
          </Trackpoint>
          <Trackpoint>
            <Time>2021-08-31T09:29:14.000Z</Time>
            <Position>
              <LatitudeDegrees>42.0047602616250514984130859375</LatitudeDegrees>
              <LongitudeDegrees>2.24908447824418544769287109375</LongitudeDegrees>
            </Position>
            <AltitudeMeters>474.20001220703125</AltitudeMeters>
            <DistanceMeters>34869.036364655</DistanceMeters>
          </Trackpoint>
          <Trackpoint>
            <Time>2021-08-31T09:29:15.000Z</Time>
            <Position>
              <LatitudeDegrees>42.00481885112822055816650390625</LatitudeDegrees>
              <LongitudeDegrees>2.24907978437840938568115234375</LongitudeDegrees>
            </Position>
            <AltitudeMeters>474.600006103515625</AltitudeMeters>
            <DistanceMeters>34875.56906251</DistanceMeters>
          </Trackpoint>
          <Trackpoint>
            <Time>2021-08-31T09:29:18.000Z</Time>
            <Position>
              <LatitudeDegrees>42.0050040073692798614501953125</LatitudeDegrees>
              <LongitudeDegrees>2.249096296727657318115234375</LongitudeDegrees>
            </Position>
            <AltitudeMeters>475</AltitudeMeters>
            <DistanceMeters>34896.222895356</DistanceMeters>
          </Trackpoint>
          <Trackpoint>
            <Time>2021-08-31T09:29:22.000Z</Time>
            <Position>
              <LatitudeDegrees>42.00524188578128814697265625</LatitudeDegrees>
              <LongitudeDegrees>2.24909218959510326385498046875</LongitudeDegrees>
            </Position>
            <AltitudeMeters>474.600006103515625</AltitudeMeters>
            <DistanceMeters>34922.701437522</DistanceMeters>
          </Trackpoint>
          <Trackpoint>
            <Time>2021-08-31T09:29:23.000Z</Time>
            <Position>
              <LatitudeDegrees>42.0052993856370449066162109375</LatitudeDegrees>
              <LongitudeDegrees>2.249109707772731781005859375</LongitudeDegrees>
            </Position>
            <AltitudeMeters>474.600006103515625</AltitudeMeters>
            <DistanceMeters>34929.263099239</DistanceMeters>
          </Trackpoint>
          <Trackpoint>
            <Time>2021-08-31T09:29:24.000Z</Time>
            <Position>
              <LatitudeDegrees>42.005350850522518157958984375</LatitudeDegrees>
              <LongitudeDegrees>2.24914583377540111541748046875</LongitudeDegrees>
            </Position>
            <AltitudeMeters>475</AltitudeMeters>
            <DistanceMeters>34935.723518213</DistanceMeters>
          </Trackpoint>
          <Trackpoint>
            <Time>2021-08-31T09:29:26.000Z</Time>
            <Position>
              <LatitudeDegrees>42.0054254494607448577880859375</LatitudeDegrees>
              <LongitudeDegrees>2.24925748072564601898193359375</LongitudeDegrees>
            </Position>
            <AltitudeMeters>476.20001220703125</AltitudeMeters>
            <DistanceMeters>34948.141150248</DistanceMeters>
          </Trackpoint>
          <Trackpoint>
            <Time>2021-08-31T09:29:28.000Z</Time>
            <Position>
              <LatitudeDegrees>42.00543944723904132843017578125</LatitudeDegrees>
              <LongitudeDegrees>2.24939343519508838653564453125</LongitudeDegrees>
            </Position>
            <AltitudeMeters>477.79998779296875</AltitudeMeters>
            <DistanceMeters>34959.492766471</DistanceMeters>
          </Trackpoint>
          <Trackpoint>
            <Time>2021-08-31T09:29:29.000Z</Time>
            <Position>
              <LatitudeDegrees>42.00543366372585296630859375</LatitudeDegrees>
              <LongitudeDegrees>2.24946920759975910186767578125</LongitudeDegrees>
            </Position>
            <AltitudeMeters>477.79998779296875</AltitudeMeters>
            <DistanceMeters>34965.793259788</DistanceMeters>
          </Trackpoint>
          <Trackpoint>
            <Time>2021-08-31T09:29:30.000Z</Time>
            <Position>
              <LatitudeDegrees>42.0054328255355358123779296875</LatitudeDegrees>
              <LongitudeDegrees>2.24954682402312755584716796875</LongitudeDegrees>
            </Position>
            <AltitudeMeters>477.79998779296875</AltitudeMeters>
            <DistanceMeters>34972.214422381</DistanceMeters>
          </Trackpoint>
          <Trackpoint>
            <Time>2021-08-31T09:29:33.000Z</Time>
            <Position>
              <LatitudeDegrees>42.0054732263088226318359375</LatitudeDegrees>
              <LongitudeDegrees>2.249759137630462646484375</LongitudeDegrees>
            </Position>
            <AltitudeMeters>477.79998779296875</AltitudeMeters>
            <DistanceMeters>34990.340877122</DistanceMeters>
          </Trackpoint>
          <Trackpoint>
            <Time>2021-08-31T09:29:35.000Z</Time>
            <Position>
              <LatitudeDegrees>42.0055213384330272674560546875</LatitudeDegrees>
              <LongitudeDegrees>2.24989794194698333740234375</LongitudeDegrees>
            </Position>
            <AltitudeMeters>477.79998779296875</AltitudeMeters>
            <DistanceMeters>35003.008333789</DistanceMeters>
          </Trackpoint>
          <Trackpoint>
            <Time>2021-08-31T09:29:37.000Z</Time>
            <Position>
              <LatitudeDegrees>42.005584537982940673828125</LatitudeDegrees>
              <LongitudeDegrees>2.25002308376133441925048828125</LongitudeDegrees>
            </Position>
            <AltitudeMeters>477.79998779296875</AltitudeMeters>
            <DistanceMeters>35015.522309404</DistanceMeters>
          </Trackpoint>
          <Trackpoint>
            <Time>2021-08-31T09:29:38.000Z</Time>
            <Position>
              <LatitudeDegrees>42.0056162215769290924072265625</LatitudeDegrees>
              <LongitudeDegrees>2.25007723085582256317138671875</LongitudeDegrees>
            </Position>
            <AltitudeMeters>478</AltitudeMeters>
            <DistanceMeters>35021.221536104</DistanceMeters>
          </Trackpoint>
          <Trackpoint>
            <Time>2021-08-31T09:29:40.000Z</Time>
            <Position>
              <LatitudeDegrees>42.00568067841231822967529296875</LatitudeDegrees>
              <LongitudeDegrees>2.2501896321773529052734375</LongitudeDegrees>
            </Position>
            <AltitudeMeters>478</AltitudeMeters>
            <DistanceMeters>35032.964162185</DistanceMeters>
          </Trackpoint>
          <Trackpoint>
            <Time>2021-08-31T09:29:44.000Z</Time>
            <Position>
              <LatitudeDegrees>42.005839012563228607177734375</LatitudeDegrees>
              <LongitudeDegrees>2.2503949888050556182861328125</LongitudeDegrees>
            </Position>
            <AltitudeMeters>479</AltitudeMeters>
            <DistanceMeters>35057.439398878</DistanceMeters>
          </Trackpoint>
          <Trackpoint>
            <Time>2021-08-31T09:29:46.000Z</Time>
            <Position>
              <LatitudeDegrees>42.00592643581330776214599609375</LatitudeDegrees>
              <LongitudeDegrees>2.25050772540271282196044921875</LongitudeDegrees>
            </Position>
            <AltitudeMeters>479.399993896484375</AltitudeMeters>
            <DistanceMeters>35070.916116858</DistanceMeters>
          </Trackpoint>
          <Trackpoint>
            <Time>2021-08-31T09:29:49.000Z</Time>
            <Position>
              <LatitudeDegrees>42.006079740822315216064453125</LatitudeDegrees>
              <LongitudeDegrees>2.250667400658130645751953125</LongitudeDegrees>
            </Position>
            <AltitudeMeters>478.79998779296875</AltitudeMeters>
            <DistanceMeters>35092.492831648</DistanceMeters>
          </Trackpoint>
          <Trackpoint>
            <Time>2021-08-31T09:29:55.000Z</Time>
            <Position>
              <LatitudeDegrees>42.00639934279024600982666015625</LatitudeDegrees>
              <LongitudeDegrees>2.25092749111354351043701171875</LongitudeDegrees>
            </Position>
            <AltitudeMeters>476.600006103515625</AltitudeMeters>
            <DistanceMeters>35134.063408013</DistanceMeters>
          </Trackpoint>
          <Trackpoint>
            <Time>2021-08-31T09:29:57.000Z</Time>
            <Position>
              <LatitudeDegrees>42.00651132501661777496337890625</LatitudeDegrees>
              <LongitudeDegrees>2.2510189376771450042724609375</LongitudeDegrees>
            </Position>
            <AltitudeMeters>476</AltitudeMeters>
            <DistanceMeters>35148.642500555</DistanceMeters>
          </Trackpoint>
          <Trackpoint>
            <Time>2021-08-31T09:29:59.000Z</Time>
            <Position>
              <LatitudeDegrees>42.0066051185131072998046875</LatitudeDegrees>
              <LongitudeDegrees>2.25115749053657054901123046875</LongitudeDegrees>
            </Position>
            <AltitudeMeters>475.399993896484375</AltitudeMeters>
            <DistanceMeters>35164.143801603</DistanceMeters>
          </Trackpoint>
          <Trackpoint>
            <Time>2021-08-31T09:30:01.000Z</Time>
            <Position>
              <LatitudeDegrees>42.00667527504265308380126953125</LatitudeDegrees>
              <LongitudeDegrees>2.2513186745345592498779296875</LongitudeDegrees>
            </Position>
            <AltitudeMeters>474.79998779296875</AltitudeMeters>
            <DistanceMeters>35179.593169893</DistanceMeters>
          </Trackpoint>
          <Trackpoint>
            <Time>2021-08-31T09:30:03.000Z</Time>
            <Position>
              <LatitudeDegrees>42.00672380626201629638671875</LatitudeDegrees>
              <LongitudeDegrees>2.251505590975284576416015625</LongitudeDegrees>
            </Position>
            <AltitudeMeters>475.600006103515625</AltitudeMeters>
            <DistanceMeters>35195.968674468</DistanceMeters>
          </Trackpoint>
          <Trackpoint>
            <Time>2021-08-31T09:30:05.000Z</Time>
            <Position>
              <LatitudeDegrees>42.00677770189940929412841796875</LatitudeDegrees>
              <LongitudeDegrees>2.2517042420804500579833984375</LongitudeDegrees>
            </Position>
            <AltitudeMeters>476</AltitudeMeters>
            <DistanceMeters>35213.459269934</DistanceMeters>
          </Trackpoint>
          <Trackpoint>
            <Time>2021-08-31T09:30:07.000Z</Time>
            <Position>
              <LatitudeDegrees>42.00684911571443080902099609375</LatitudeDegrees>
              <LongitudeDegrees>2.25187179632484912872314453125</LongitudeDegrees>
            </Position>
            <AltitudeMeters>476.600006103515625</AltitudeMeters>
            <DistanceMeters>35229.434784027</DistanceMeters>
          </Trackpoint>
          <Trackpoint>
            <Time>2021-08-31T09:30:11.000Z</Time>
            <Position>
              <LatitudeDegrees>42.00698724947869777679443359375</LatitudeDegrees>
              <LongitudeDegrees>2.2521515004336833953857421875</LongitudeDegrees>
            </Position>
            <AltitudeMeters>477.600006103515625</AltitudeMeters>
            <DistanceMeters>35257.210882947</DistanceMeters>
          </Trackpoint>
          <Trackpoint>
            <Time>2021-08-31T09:30:12.000Z</Time>
            <Position>
              <LatitudeDegrees>42.0070297457277774810791015625</LatitudeDegrees>
              <LongitudeDegrees>2.25221000611782073974609375</LongitudeDegrees>
            </Position>
            <AltitudeMeters>478</AltitudeMeters>
            <DistanceMeters>35263.9771587</DistanceMeters>
          </Trackpoint>
          <Trackpoint>
            <Time>2021-08-31T09:30:18.000Z</Time>
            <Position>
              <LatitudeDegrees>42.00729922391474246978759765625</LatitudeDegrees>
              <LongitudeDegrees>2.2524777241051197052001953125</LongitudeDegrees>
            </Position>
            <AltitudeMeters>477.600006103515625</AltitudeMeters>
            <DistanceMeters>35301.257920305</DistanceMeters>
          </Trackpoint>
          <Trackpoint>
            <Time>2021-08-31T09:30:23.000Z</Time>
            <Position>
              <LatitudeDegrees>42.0074726454913616180419921875</LatitudeDegrees>
              <LongitudeDegrees>2.2526477091014385223388671875</LongitudeDegrees>
            </Position>
            <AltitudeMeters>478</AltitudeMeters>
            <DistanceMeters>35325.137057792</DistanceMeters>
          </Trackpoint>
          <Trackpoint>
            <Time>2021-08-31T09:30:26.000Z</Time>
            <Position>
              <LatitudeDegrees>42.0075098611414432525634765625</LatitudeDegrees>
              <LongitudeDegrees>2.25279430858790874481201171875</LongitudeDegrees>
            </Position>
            <AltitudeMeters>480</AltitudeMeters>
            <DistanceMeters>35337.949816658</DistanceMeters>
          </Trackpoint>
          <Trackpoint>
            <Time>2021-08-31T09:30:27.000Z</Time>
            <Position>
              <LatitudeDegrees>42.0075088553130626678466796875</LatitudeDegrees>
              <LongitudeDegrees>2.25285247899591922760009765625</LongitudeDegrees>
            </Position>
            <AltitudeMeters>481</AltitudeMeters>
            <DistanceMeters>35342.761585148</DistanceMeters>
          </Trackpoint>
          <Trackpoint>
            <Time>2021-08-31T09:30:28.000Z</Time>
            <Position>
              <LatitudeDegrees>42.007499635219573974609375</LatitudeDegrees>
              <LongitudeDegrees>2.25291400216519832611083984375</LongitudeDegrees>
            </Position>
            <AltitudeMeters>481.79998779296875</AltitudeMeters>
            <DistanceMeters>35347.951644688</DistanceMeters>
          </Trackpoint>
          <Trackpoint>
            <Time>2021-08-31T09:30:31.000Z</Time>
            <Position>
              <LatitudeDegrees>42.0074334181845188140869140625</LatitudeDegrees>
              <LongitudeDegrees>2.25310812704265117645263671875</LongitudeDegrees>
            </Position>
            <AltitudeMeters>484.600006103515625</AltitudeMeters>
            <DistanceMeters>35365.617415034</DistanceMeters>
          </Trackpoint>
          <Trackpoint>
            <Time>2021-08-31T09:30:37.000Z</Time>
            <Position>
              <LatitudeDegrees>42.007286734879016876220703125</LatitudeDegrees>
              <LongitudeDegrees>2.2535361908376216888427734375</LongitudeDegrees>
            </Position>
            <AltitudeMeters>491.399993896484375</AltitudeMeters>
            <DistanceMeters>35404.60304388</DistanceMeters>
          </Trackpoint>
          <Trackpoint>
            <Time>2021-08-31T09:30:38.000Z</Time>
            <Position>
              <LatitudeDegrees>42.0072785206139087677001953125</LatitudeDegrees>
              <LongitudeDegrees>2.253605425357818603515625</LongitudeDegrees>
            </Position>
            <AltitudeMeters>491.79998779296875</AltitudeMeters>
            <DistanceMeters>35410.401231062</DistanceMeters>
          </Trackpoint>
          <Trackpoint>
            <Time>2021-08-31T09:30:39.000Z</Time>
            <Position>
              <LatitudeDegrees>42.00729109346866607666015625</LatitudeDegrees>
              <LongitudeDegrees>2.25367038510739803314208984375</LongitudeDegrees>
            </Position>
            <AltitudeMeters>492</AltitudeMeters>
            <DistanceMeters>35415.953589208</DistanceMeters>
          </Trackpoint>
          <Trackpoint>
            <Time>2021-08-31T09:30:40.000Z</Time>
            <Position>
              <LatitudeDegrees>42.00732420198619365692138671875</LatitudeDegrees>
              <LongitudeDegrees>2.253723107278347015380859375</LongitudeDegrees>
            </Position>
            <AltitudeMeters>492</AltitudeMeters>
            <DistanceMeters>35421.663105471</DistanceMeters>
          </Trackpoint>
          <Trackpoint>
            <Time>2021-08-31T09:30:41.000Z</Time>
            <Position>
              <LatitudeDegrees>42.0073703862726688385009765625</LatitudeDegrees>
              <LongitudeDegrees>2.253760993480682373046875</LongitudeDegrees>
            </Position>
            <AltitudeMeters>491.79998779296875</AltitudeMeters>
            <DistanceMeters>35427.682880946</DistanceMeters>
          </Trackpoint>
          <Trackpoint>
            <Time>2021-08-31T09:30:43.000Z</Time>
            <Position>
              <LatitudeDegrees>42.00748261995613574981689453125</LatitudeDegrees>
              <LongitudeDegrees>2.25382159464061260223388671875</LongitudeDegrees>
            </Position>
            <AltitudeMeters>491.20001220703125</AltitudeMeters>
            <DistanceMeters>35441.14283725</DistanceMeters>
          </Trackpoint>
          <Trackpoint>
            <Time>2021-08-31T09:30:50.000Z</Time>
            <Position>
              <LatitudeDegrees>42.0079048164188861846923828125</LatitudeDegrees>
              <LongitudeDegrees>2.25404262542724609375</LongitudeDegrees>
            </Position>
            <AltitudeMeters>490.79998779296875</AltitudeMeters>
            <DistanceMeters>35491.564427389</DistanceMeters>
          </Trackpoint>
          <Trackpoint>
            <Time>2021-08-31T09:30:58.000Z</Time>
            <Position>
              <LatitudeDegrees>42.00835132040083408355712890625</LatitudeDegrees>
              <LongitudeDegrees>2.2542692720890045166015625</LongitudeDegrees>
            </Position>
            <AltitudeMeters>491</AltitudeMeters>
            <DistanceMeters>35544.678495601</DistanceMeters>
          </Trackpoint>
          <Trackpoint>
            <Time>2021-08-31T09:30:59.000Z</Time>
            <Position>
              <LatitudeDegrees>42.00840295292437076568603515625</LatitudeDegrees>
              <LongitudeDegrees>2.2543133608996868133544921875</LongitudeDegrees>
            </Position>
            <AltitudeMeters>491</AltitudeMeters>
            <DistanceMeters>35551.484027327</DistanceMeters>
          </Trackpoint>
          <Trackpoint>
            <Time>2021-08-31T09:31:02.000Z</Time>
            <Position>
              <LatitudeDegrees>42.00853270478546619415283203125</LatitudeDegrees>
              <LongitudeDegrees>2.25449231453239917755126953125</LongitudeDegrees>
            </Position>
            <AltitudeMeters>492</AltitudeMeters>
            <DistanceMeters>35572.162329476</DistanceMeters>
          </Trackpoint>
          <Trackpoint>
            <Time>2021-08-31T09:31:03.000Z</Time>
            <Position>
              <LatitudeDegrees>42.008570171892642974853515625</LatitudeDegrees>
              <LongitudeDegrees>2.2545621357858180999755859375</LongitudeDegrees>
            </Position>
            <AltitudeMeters>492.600006103515625</AltitudeMeters>
            <DistanceMeters>35579.285530971</DistanceMeters>
          </Trackpoint>
          <Trackpoint>
            <Time>2021-08-31T09:31:05.000Z</Time>
            <Position>
              <LatitudeDegrees>42.00862423516809940338134765625</LatitudeDegrees>
              <LongitudeDegrees>2.25472281686961650848388671875</LongitudeDegrees>
            </Position>
            <AltitudeMeters>494.20001220703125</AltitudeMeters>
            <DistanceMeters>35593.872982819</DistanceMeters>
          </Trackpoint>
          <Trackpoint>
            <Time>2021-08-31T09:31:06.000Z</Time>
            <Position>
              <LatitudeDegrees>42.00863647274672985076904296875</LatitudeDegrees>
              <LongitudeDegrees>2.2548088990151882171630859375</LongitudeDegrees>
            </Position>
            <AltitudeMeters>495.20001220703125</AltitudeMeters>
            <DistanceMeters>35601.121845821</DistanceMeters>
          </Trackpoint>
          <Trackpoint>
            <Time>2021-08-31T09:31:07.000Z</Time>
            <Position>
              <LatitudeDegrees>42.008636891841888427734375</LatitudeDegrees>
              <LongitudeDegrees>2.254895232617855072021484375</LongitudeDegrees>
            </Position>
            <AltitudeMeters>495.600006103515625</AltitudeMeters>
            <DistanceMeters>35608.260875969</DistanceMeters>
          </Trackpoint>
          <Trackpoint>
            <Time>2021-08-31T09:31:09.000Z</Time>
            <Position>
              <LatitudeDegrees>42.00859707780182361602783203125</LatitudeDegrees>
              <LongitudeDegrees>2.25505541078746318817138671875</LongitudeDegrees>
            </Position>
            <AltitudeMeters>497</AltitudeMeters>
            <DistanceMeters>35622.229479757</DistanceMeters>
          </Trackpoint>
          <Trackpoint>
            <Time>2021-08-31T09:31:13.000Z</Time>
            <Position>
              <LatitudeDegrees>42.00843463651835918426513671875</LatitudeDegrees>
              <LongitudeDegrees>2.2552937082946300506591796875</LongitudeDegrees>
            </Position>
            <AltitudeMeters>499.79998779296875</AltitudeMeters>
            <DistanceMeters>35648.974393578</DistanceMeters>
          </Trackpoint>
          <Trackpoint>
            <Time>2021-08-31T09:31:18.000Z</Time>
            <Position>
              <LatitudeDegrees>42.00821536593139171600341796875</LatitudeDegrees>
              <LongitudeDegrees>2.2555699758231639862060546875</LongitudeDegrees>
            </Position>
            <AltitudeMeters>501.79998779296875</AltitudeMeters>
            <DistanceMeters>35682.405704672</DistanceMeters>
          </Trackpoint>
          <Trackpoint>
            <Time>2021-08-31T09:31:20.000Z</Time>
            <Position>
              <LatitudeDegrees>42.0081378333270549774169921875</LatitudeDegrees>
              <LongitudeDegrees>2.25570115260779857635498046875</LongitudeDegrees>
            </Position>
            <AltitudeMeters>503.20001220703125</AltitudeMeters>
            <DistanceMeters>35696.267884397</DistanceMeters>
          </Trackpoint>
          <Trackpoint>
            <Time>2021-08-31T09:31:22.000Z</Time>
            <Position>
              <LatitudeDegrees>42.008073963224887847900390625</LatitudeDegrees>
              <LongitudeDegrees>2.25584305822849273681640625</LongitudeDegrees>
            </Position>
            <AltitudeMeters>503.20001220703125</AltitudeMeters>
            <DistanceMeters>35709.988965396</DistanceMeters>
          </Trackpoint>
          <Trackpoint>
            <Time>2021-08-31T09:31:24.000Z</Time>
            <Position>
              <LatitudeDegrees>42.0080265216529369354248046875</LatitudeDegrees>
              <LongitudeDegrees>2.25599535740911960601806640625</LongitudeDegrees>
            </Position>
            <AltitudeMeters>503.399993896484375</AltitudeMeters>
            <DistanceMeters>35723.646721036</DistanceMeters>
          </Trackpoint>
          <Trackpoint>
            <Time>2021-08-31T09:31:25.000Z</Time>
            <Position>
              <LatitudeDegrees>42.0080114342272281646728515625</LatitudeDegrees>
              <LongitudeDegrees>2.2560705430805683135986328125</LongitudeDegrees>
            </Position>
            <AltitudeMeters>503.399993896484375</AltitudeMeters>
            <DistanceMeters>35730.087541727</DistanceMeters>
          </Trackpoint>
          <Trackpoint>
            <Time>2021-08-31T09:31:29.000Z</Time>
            <Position>
              <LatitudeDegrees>42.0079494081437587738037109375</LatitudeDegrees>
              <LongitudeDegrees>2.25638260133564472198486328125</LongitudeDegrees>
            </Position>
            <AltitudeMeters>502.600006103515625</AltitudeMeters>
            <DistanceMeters>35756.803233971</DistanceMeters>
          </Trackpoint>
          <Trackpoint>
            <Time>2021-08-31T09:31:36.000Z</Time>
            <Position>
              <LatitudeDegrees>42.00775419361889362335205078125</LatitudeDegrees>
              <LongitudeDegrees>2.2568876110017299652099609375</LongitudeDegrees>
            </Position>
            <AltitudeMeters>500.399993896484375</AltitudeMeters>
            <DistanceMeters>35803.882809624</DistanceMeters>
          </Trackpoint>
          <Trackpoint>
            <Time>2021-08-31T09:31:38.000Z</Time>
            <Position>
              <LatitudeDegrees>42.00770457275211811065673828125</LatitudeDegrees>
              <LongitudeDegrees>2.2570287622511386871337890625</LongitudeDegrees>
            </Position>
            <AltitudeMeters>501.399993896484375</AltitudeMeters>
            <DistanceMeters>35816.796656911</DistanceMeters>
          </Trackpoint>
          <Trackpoint>
            <Time>2021-08-31T09:31:40.000Z</Time>
            <Position>
              <LatitudeDegrees>42.00771764852106571197509765625</LatitudeDegrees>
              <LongitudeDegrees>2.2571575082838535308837890625</LongitudeDegrees>
            </Position>
            <AltitudeMeters>502.399993896484375</AltitudeMeters>
            <DistanceMeters>35827.543081788</DistanceMeters>
          </Trackpoint>
          <Trackpoint>
            <Time>2021-08-31T09:31:42.000Z</Time>
            <Position>
              <LatitudeDegrees>42.00779308564960956573486328125</LatitudeDegrees>
              <LongitudeDegrees>2.25722397677600383758544921875</LongitudeDegrees>
            </Position>
            <AltitudeMeters>503.20001220703125</AltitudeMeters>
            <DistanceMeters>35837.578640696</DistanceMeters>
          </Trackpoint>
          <Trackpoint>
            <Time>2021-08-31T09:31:43.000Z</Time>
            <Position>
              <LatitudeDegrees>42.0078411139547824859619140625</LatitudeDegrees>
              <LongitudeDegrees>2.25723512470722198486328125</LongitudeDegrees>
            </Position>
            <AltitudeMeters>503.600006103515625</AltitudeMeters>
            <DistanceMeters>35843.002660336</DistanceMeters>
          </Trackpoint>
          <Trackpoint>
            <Time>2021-08-31T09:31:44.000Z</Time>
            <Position>
              <LatitudeDegrees>42.00789014808833599090576171875</LatitudeDegrees>
              <LongitudeDegrees>2.25724853575229644775390625</LongitudeDegrees>
            </Position>
            <AltitudeMeters>504</AltitudeMeters>
            <DistanceMeters>35848.572068974</DistanceMeters>
          </Trackpoint>
          <Trackpoint>
            <Time>2021-08-31T09:31:46.000Z</Time>
            <Position>
              <LatitudeDegrees>42.00799173675477504730224609375</LatitudeDegrees>
              <LongitudeDegrees>2.25728130899369716644287109375</LongitudeDegrees>
            </Position>
            <AltitudeMeters>504.79998779296875</AltitudeMeters>
            <DistanceMeters>35860.199549549</DistanceMeters>
          </Trackpoint>
          <Trackpoint>
            <Time>2021-08-31T09:31:48.000Z</Time>
            <Position>
              <LatitudeDegrees>42.0081044733524322509765625</LatitudeDegrees>
              <LongitudeDegrees>2.25730394013226032257080078125</LongitudeDegrees>
            </Position>
            <AltitudeMeters>506.20001220703125</AltitudeMeters>
            <DistanceMeters>35872.886238737</DistanceMeters>
          </Trackpoint>
          <Trackpoint>
            <Time>2021-08-31T09:31:53.000Z</Time>
            <Position>
              <LatitudeDegrees>42.00837059877812862396240234375</LatitudeDegrees>
              <LongitudeDegrees>2.2574612684547901153564453125</LongitudeDegrees>
            </Position>
            <AltitudeMeters>509.20001220703125</AltitudeMeters>
            <DistanceMeters>35905.238334503</DistanceMeters>
          </Trackpoint>
          <Trackpoint>
            <Time>2021-08-31T09:31:59.000Z</Time>
            <Position>
              <LatitudeDegrees>42.008675448596477508544921875</LatitudeDegrees>
              <LongitudeDegrees>2.25774030201137065887451171875</LongitudeDegrees>
            </Position>
            <AltitudeMeters>509.20001220703125</AltitudeMeters>
            <DistanceMeters>35946.272493861</DistanceMeters>
          </Trackpoint>
          <Trackpoint>
            <Time>2021-08-31T09:32:03.000Z</Time>
            <Position>
              <LatitudeDegrees>42.008819282054901123046875</LatitudeDegrees>
              <LongitudeDegrees>2.25794498808681964874267578125</LongitudeDegrees>
            </Position>
            <AltitudeMeters>509.20001220703125</AltitudeMeters>
            <DistanceMeters>35969.571292442</DistanceMeters>
          </Trackpoint>
          <Trackpoint>
            <Time>2021-08-31T09:32:07.000Z</Time>
            <Position>
              <LatitudeDegrees>42.0089310966432094573974609375</LatitudeDegrees>
              <LongitudeDegrees>2.2581311501562595367431640625</LongitudeDegrees>
            </Position>
            <AltitudeMeters>508.600006103515625</AltitudeMeters>
            <DistanceMeters>35989.368347219</DistanceMeters>
          </Trackpoint>
          <Trackpoint>
            <Time>2021-08-31T09:32:11.000Z</Time>
            <Position>
              <LatitudeDegrees>42.00909663923084735870361328125</LatitudeDegrees>
              <LongitudeDegrees>2.258404903113842010498046875</LongitudeDegrees>
            </Position>
            <AltitudeMeters>507.79998779296875</AltitudeMeters>
            <DistanceMeters>36018.558413219</DistanceMeters>
          </Trackpoint>
          <Trackpoint>
            <Time>2021-08-31T09:32:12.000Z</Time>
            <Position>
              <LatitudeDegrees>42.009135447442531585693359375</LatitudeDegrees>
              <LongitudeDegrees>2.2584741376340389251708984375</LongitudeDegrees>
            </Position>
            <AltitudeMeters>507.600006103515625</AltitudeMeters>
            <DistanceMeters>36025.730255062</DistanceMeters>
          </Trackpoint>
          <Trackpoint>
            <Time>2021-08-31T09:32:14.000Z</Time>
            <Position>
              <LatitudeDegrees>42.0092107169330120086669921875</LatitudeDegrees>
              <LongitudeDegrees>2.2586119361221790313720703125</LongitudeDegrees>
            </Position>
            <AltitudeMeters>507.600006103515625</AltitudeMeters>
            <DistanceMeters>36039.874240128</DistanceMeters>
          </Trackpoint>
          <Trackpoint>
            <Time>2021-08-31T09:32:15.000Z</Time>
            <Position>
              <LatitudeDegrees>42.00925170443952083587646484375</LatitudeDegrees>
              <LongitudeDegrees>2.25867211818695068359375</LongitudeDegrees>
            </Position>
            <AltitudeMeters>507.600006103515625</AltitudeMeters>
            <DistanceMeters>36046.625819639</DistanceMeters>
          </Trackpoint>
          <Trackpoint>
            <Time>2021-08-31T09:32:17.000Z</Time>
            <Position>
              <LatitudeDegrees>42.00934675522148609161376953125</LatitudeDegrees>
              <LongitudeDegrees>2.25878535769879817962646484375</LongitudeDegrees>
            </Position>
            <AltitudeMeters>507.399993896484375</AltitudeMeters>
            <DistanceMeters>36060.754473852</DistanceMeters>
          </Trackpoint>
          <Trackpoint>
            <Time>2021-08-31T09:32:18.000Z</Time>
            <Position>
              <LatitudeDegrees>42.0093999803066253662109375</LatitudeDegrees>
              <LongitudeDegrees>2.258839420974254608154296875</LongitudeDegrees>
            </Position>
            <AltitudeMeters>507.600006103515625</AltitudeMeters>
            <DistanceMeters>36068.176297503</DistanceMeters>
          </Trackpoint>
          <Trackpoint>
            <Time>2021-08-31T09:32:21.000Z</Time>
            <Position>
              <LatitudeDegrees>42.00956736691296100616455078125</LatitudeDegrees>
              <LongitudeDegrees>2.25897914730012416839599609375</LongitudeDegrees>
            </Position>
            <AltitudeMeters>507.79998779296875</AltitudeMeters>
            <DistanceMeters>36090.099271495</DistanceMeters>
          </Trackpoint>
          <Trackpoint>
            <Time>2021-08-31T09:32:22.000Z</Time>
            <Position>
              <LatitudeDegrees>42.00962972827255725860595703125</LatitudeDegrees>
              <LongitudeDegrees>2.25900848396122455596923828125</LongitudeDegrees>
            </Position>
            <AltitudeMeters>507.600006103515625</AltitudeMeters>
            <DistanceMeters>36097.452644717</DistanceMeters>
          </Trackpoint>
          <Trackpoint>
            <Time>2021-08-31T09:32:23.000Z</Time>
            <Position>
              <LatitudeDegrees>42.00970080681145191192626953125</LatitudeDegrees>
              <LongitudeDegrees>2.25902281701564788818359375</LongitudeDegrees>
            </Position>
            <AltitudeMeters>507.399993896484375</AltitudeMeters>
            <DistanceMeters>36105.452968575</DistanceMeters>
          </Trackpoint>
          <Trackpoint>
            <Time>2021-08-31T09:32:25.000Z</Time>
            <Position>
              <LatitudeDegrees>42.00984095223248004913330078125</LatitudeDegrees>
              <LongitudeDegrees>2.259063720703125</LongitudeDegrees>
            </Position>
            <AltitudeMeters>506.79998779296875</AltitudeMeters>
            <DistanceMeters>36121.414062417</DistanceMeters>
          </Trackpoint>
          <Trackpoint>
            <Time>2021-08-31T09:32:27.000Z</Time>
            <Position>
              <LatitudeDegrees>42.009939439594745635986328125</LatitudeDegrees>
              <LongitudeDegrees>2.2591728530824184417724609375</LongitudeDegrees>
            </Position>
            <AltitudeMeters>505.399993896484375</AltitudeMeters>
            <DistanceMeters>36135.613483069</DistanceMeters>
          </Trackpoint>
          <Trackpoint>
            <Time>2021-08-31T09:32:28.000Z</Time>
            <Position>
              <LatitudeDegrees>42.00997196137905120849609375</LatitudeDegrees>
              <LongitudeDegrees>2.259246446192264556884765625</LongitudeDegrees>
            </Position>
            <AltitudeMeters>504.79998779296875</AltitudeMeters>
            <DistanceMeters>36142.694089287</DistanceMeters>
          </Trackpoint>
          <Trackpoint>
            <Time>2021-08-31T09:32:30.000Z</Time>
            <Position>
              <LatitudeDegrees>42.0100160501897335052490234375</LatitudeDegrees>
              <LongitudeDegrees>2.25940980948507785797119140625</LongitudeDegrees>
            </Position>
            <AltitudeMeters>504</AltitudeMeters>
            <DistanceMeters>36157.067645526</DistanceMeters>
          </Trackpoint>
          <Trackpoint>
            <Time>2021-08-31T09:32:31.000Z</Time>
            <Position>
              <LatitudeDegrees>42.01001848094165325164794921875</LatitudeDegrees>
              <LongitudeDegrees>2.2594970650970935821533203125</LongitudeDegrees>
            </Position>
            <AltitudeMeters>503.20001220703125</AltitudeMeters>
            <DistanceMeters>36164.289050616</DistanceMeters>
          </Trackpoint>
          <Trackpoint>
            <Time>2021-08-31T09:32:32.000Z</Time>
            <Position>
              <LatitudeDegrees>42.0100110210478305816650390625</LatitudeDegrees>
              <LongitudeDegrees>2.259590439498424530029296875</LongitudeDegrees>
            </Position>
            <AltitudeMeters>503.399993896484375</AltitudeMeters>
            <DistanceMeters>36172.056285691</DistanceMeters>
          </Trackpoint>
          <Trackpoint>
            <Time>2021-08-31T09:32:35.000Z</Time>
            <Position>
              <LatitudeDegrees>42.009952180087566375732421875</LatitudeDegrees>
              <LongitudeDegrees>2.25986880250275135040283203125</LongitudeDegrees>
            </Position>
            <AltitudeMeters>504.600006103515625</AltitudeMeters>
            <DistanceMeters>36195.990381859</DistanceMeters>
          </Trackpoint>
          <Trackpoint>
            <Time>2021-08-31T09:32:37.000Z</Time>
            <Position>
              <LatitudeDegrees>42.00990951620042324066162109375</LatitudeDegrees>
              <LongitudeDegrees>2.260058820247650146484375</LongitudeDegrees>
            </Position>
            <AltitudeMeters>505</AltitudeMeters>
            <DistanceMeters>36212.406642134</DistanceMeters>
          </Trackpoint>
          <Trackpoint>
            <Time>2021-08-31T09:32:39.000Z</Time>
            <Position>
              <LatitudeDegrees>42.009905911982059478759765625</LatitudeDegrees>
              <LongitudeDegrees>2.26026107557117938995361328125</LongitudeDegrees>
            </Position>
            <AltitudeMeters>504.600006103515625</AltitudeMeters>
            <DistanceMeters>36229.138091558</DistanceMeters>
          </Trackpoint>
          <Trackpoint>
            <Time>2021-08-31T09:32:42.000Z</Time>
            <Position>
              <LatitudeDegrees>42.00990901328623294830322265625</LatitudeDegrees>
              <LongitudeDegrees>2.26054002530872821807861328125</LongitudeDegrees>
            </Position>
            <AltitudeMeters>503.79998779296875</AltitudeMeters>
            <DistanceMeters>36252.210022043</DistanceMeters>
          </Trackpoint>
          <Trackpoint>
            <Time>2021-08-31T09:32:43.000Z</Time>
            <Position>
              <LatitudeDegrees>42.009936086833477020263671875</LatitudeDegrees>
              <LongitudeDegrees>2.26062216795980930328369140625</LongitudeDegrees>
            </Position>
            <AltitudeMeters>503</AltitudeMeters>
            <DistanceMeters>36259.642180384</DistanceMeters>
          </Trackpoint>
          <Trackpoint>
            <Time>2021-08-31T09:32:44.000Z</Time>
            <Position>
              <LatitudeDegrees>42.00995880179107189178466796875</LatitudeDegrees>
              <LongitudeDegrees>2.26071151904761791229248046875</LongitudeDegrees>
            </Position>
            <AltitudeMeters>502.20001220703125</AltitudeMeters>
            <DistanceMeters>36267.452312673</DistanceMeters>
          </Trackpoint>
          <Trackpoint>
            <Time>2021-08-31T09:32:46.000Z</Time>
            <Position>
              <LatitudeDegrees>42.0099419541656970977783203125</LatitudeDegrees>
              <LongitudeDegrees>2.260883934795856475830078125</LongitudeDegrees>
            </Position>
            <AltitudeMeters>502.600006103515625</AltitudeMeters>
            <DistanceMeters>36281.833719798</DistanceMeters>
          </Trackpoint>
          <Trackpoint>
            <Time>2021-08-31T09:32:50.000Z</Time>
            <Position>
              <LatitudeDegrees>42.00981647707521915435791015625</LatitudeDegrees>
              <LongitudeDegrees>2.2611650638282299041748046875</LongitudeDegrees>
            </Position>
            <AltitudeMeters>504.79998779296875</AltitudeMeters>
            <DistanceMeters>36308.955482777</DistanceMeters>
          </Trackpoint>
          <Trackpoint>
            <Time>2021-08-31T09:32:51.000Z</Time>
            <Position>
              <LatitudeDegrees>42.009781859815120697021484375</LatitudeDegrees>
              <LongitudeDegrees>2.2612349689006805419921875</LongitudeDegrees>
            </Position>
            <AltitudeMeters>505.399993896484375</AltitudeMeters>
            <DistanceMeters>36315.90348887</DistanceMeters>
          </Trackpoint>
          <Trackpoint>
            <Time>2021-08-31T09:32:54.000Z</Time>
            <Position>
              <LatitudeDegrees>42.0096961967647075653076171875</LatitudeDegrees>
              <LongitudeDegrees>2.261469997465610504150390625</LongitudeDegrees>
            </Position>
            <AltitudeMeters>505</AltitudeMeters>
            <DistanceMeters>36337.552901974</DistanceMeters>
          </Trackpoint>
          <Trackpoint>
            <Time>2021-08-31T09:32:55.000Z</Time>
            <Position>
              <LatitudeDegrees>42.00966174714267253875732421875</LatitudeDegrees>
              <LongitudeDegrees>2.261545099318027496337890625</LongitudeDegrees>
            </Position>
            <AltitudeMeters>505</AltitudeMeters>
            <DistanceMeters>36344.852042404</DistanceMeters>
          </Trackpoint>
          <Trackpoint>
            <Time>2021-08-31T09:32:58.000Z</Time>
            <Position>
              <LatitudeDegrees>42.0095483399927616119384765625</LatitudeDegrees>
              <LongitudeDegrees>2.26175422780215740203857421875</LongitudeDegrees>
            </Position>
            <AltitudeMeters>505</AltitudeMeters>
            <DistanceMeters>36366.263650963</DistanceMeters>
          </Trackpoint>
          <Trackpoint>
            <Time>2021-08-31T09:32:59.000Z</Time>
            <Position>
              <LatitudeDegrees>42.00950399972498416900634765625</LatitudeDegrees>
              <LongitudeDegrees>2.26182111538946628570556640625</LongitudeDegrees>
            </Position>
            <AltitudeMeters>505</AltitudeMeters>
            <DistanceMeters>36373.676952875</DistanceMeters>
          </Trackpoint>
          <Trackpoint>
            <Time>2021-08-31T09:33:01.000Z</Time>
            <Position>
              <LatitudeDegrees>42.009411044418811798095703125</LatitudeDegrees>
              <LongitudeDegrees>2.2619445808231830596923828125</LongitudeDegrees>
            </Position>
            <AltitudeMeters>506</AltitudeMeters>
            <DistanceMeters>36388.213245001</DistanceMeters>
          </Trackpoint>
          <Trackpoint>
            <Time>2021-08-31T09:33:02.000Z</Time>
            <Position>
              <LatitudeDegrees>42.009366787970066070556640625</LatitudeDegrees>
              <LongitudeDegrees>2.26200551725924015045166015625</LongitudeDegrees>
            </Position>
            <AltitudeMeters>506</AltitudeMeters>
            <DistanceMeters>36395.260614755</DistanceMeters>
          </Trackpoint>
          <Trackpoint>
            <Time>2021-08-31T09:33:03.000Z</Time>
            <Position>
              <LatitudeDegrees>42.009325884282588958740234375</LatitudeDegrees>
              <LongitudeDegrees>2.26206921972334384918212890625</LongitudeDegrees>
            </Position>
            <AltitudeMeters>505.79998779296875</AltitudeMeters>
            <DistanceMeters>36402.223550948</DistanceMeters>
          </Trackpoint>
          <Trackpoint>
            <Time>2021-08-31T09:33:07.000Z</Time>
            <Position>
              <LatitudeDegrees>42.009183727204799652099609375</LatitudeDegrees>
              <LongitudeDegrees>2.26233576424419879913330078125</LongitudeDegrees>
            </Position>
            <AltitudeMeters>505.79998779296875</AltitudeMeters>
            <DistanceMeters>36429.357796522</DistanceMeters>
          </Trackpoint>
          <Trackpoint>
            <Time>2021-08-31T09:33:08.000Z</Time>
            <Position>
              <LatitudeDegrees>42.00915011577308177947998046875</LatitudeDegrees>
              <LongitudeDegrees>2.26240105926990509033203125</LongitudeDegrees>
            </Position>
            <AltitudeMeters>505.600006103515625</AltitudeMeters>
            <DistanceMeters>36435.926335571</DistanceMeters>
          </Trackpoint>
          <Trackpoint>
            <Time>2021-08-31T09:33:12.000Z</Time>
            <Position>
              <LatitudeDegrees>42.0090236328542232513427734375</LatitudeDegrees>
              <LongitudeDegrees>2.26269618608057498931884765625</LongitudeDegrees>
            </Position>
            <AltitudeMeters>506.20001220703125</AltitudeMeters>
            <DistanceMeters>36464.10267779</DistanceMeters>
          </Trackpoint>
          <Trackpoint>
            <Time>2021-08-31T09:33:16.000Z</Time>
            <Position>
              <LatitudeDegrees>42.00889580883085727691650390625</LatitudeDegrees>
              <LongitudeDegrees>2.26298804394900798797607421875</LongitudeDegrees>
            </Position>
            <AltitudeMeters>509</AltitudeMeters>
            <DistanceMeters>36492.120575738</DistanceMeters>
          </Trackpoint>
          <Trackpoint>
            <Time>2021-08-31T09:33:18.000Z</Time>
            <Position>
              <LatitudeDegrees>42.00882975943386554718017578125</LatitudeDegrees>
              <LongitudeDegrees>2.26312651298940181732177734375</LongitudeDegrees>
            </Position>
            <AltitudeMeters>510.20001220703125</AltitudeMeters>
            <DistanceMeters>36505.728985186</DistanceMeters>
          </Trackpoint>
          <Trackpoint>
            <Time>2021-08-31T09:33:26.000Z</Time>
            <Position>
              <LatitudeDegrees>42.00857897289097309112548828125</LatitudeDegrees>
              <LongitudeDegrees>2.263696230947971343994140625</LongitudeDegrees>
            </Position>
            <AltitudeMeters>510.79998779296875</AltitudeMeters>
            <DistanceMeters>36560.493483351</DistanceMeters>
          </Trackpoint>
          <Trackpoint>
            <Time>2021-08-31T09:33:27.000Z</Time>
            <Position>
              <LatitudeDegrees>42.00854812748730182647705078125</LatitudeDegrees>
              <LongitudeDegrees>2.263761274516582489013671875</LongitudeDegrees>
            </Position>
            <AltitudeMeters>510.600006103515625</AltitudeMeters>
            <DistanceMeters>36566.875148084</DistanceMeters>
          </Trackpoint>
          <Trackpoint>
            <Time>2021-08-31T09:33:29.000Z</Time>
            <Position>
              <LatitudeDegrees>42.00854712165892124176025390625</LatitudeDegrees>
              <LongitudeDegrees>2.2638662159442901611328125</LongitudeDegrees>
            </Position>
            <AltitudeMeters>509.600006103515625</AltitudeMeters>
            <DistanceMeters>36575.554370267</DistanceMeters>
          </Trackpoint>
          <Trackpoint>
            <Time>2021-08-31T09:33:31.000Z</Time>
            <Position>
              <LatitudeDegrees>42.00861820019781589508056640625</LatitudeDegrees>
              <LongitudeDegrees>2.263922207057476043701171875</LongitudeDegrees>
            </Position>
            <AltitudeMeters>508.20001220703125</AltitudeMeters>
            <DistanceMeters>36584.720877852</DistanceMeters>
          </Trackpoint>
          <Trackpoint>
            <Time>2021-08-31T09:33:32.000Z</Time>
            <Position>
              <LatitudeDegrees>42.0086650550365447998046875</LatitudeDegrees>
              <LongitudeDegrees>2.26390703581273555755615234375</LongitudeDegrees>
            </Position>
            <AltitudeMeters>507.600006103515625</AltitudeMeters>
            <DistanceMeters>36590.083786901</DistanceMeters>
          </Trackpoint>
          <Trackpoint>
            <Time>2021-08-31T09:33:34.000Z</Time>
            <Position>
              <LatitudeDegrees>42.00876764953136444091796875</LatitudeDegrees>
              <LongitudeDegrees>2.26385707966983318328857421875</LongitudeDegrees>
            </Position>
            <AltitudeMeters>506.600006103515625</AltitudeMeters>
            <DistanceMeters>36602.226773283</DistanceMeters>
          </Trackpoint>
          <Trackpoint>
            <Time>2021-08-31T09:33:37.000Z</Time>
            <Position>
              <LatitudeDegrees>42.0089508779346942901611328125</LatitudeDegrees>
              <LongitudeDegrees>2.263819612562656402587890625</LongitudeDegrees>
            </Position>
            <AltitudeMeters>505.600006103515625</AltitudeMeters>
            <DistanceMeters>36622.854356807</DistanceMeters>
          </Trackpoint>
          <Trackpoint>
            <Time>2021-08-31T09:33:44.000Z</Time>
            <Position>
              <LatitudeDegrees>42.0094152353703975677490234375</LatitudeDegrees>
              <LongitudeDegrees>2.26370922289788722991943359375</LongitudeDegrees>
            </Position>
            <AltitudeMeters>503</AltitudeMeters>
            <DistanceMeters>36675.338360453</DistanceMeters>
          </Trackpoint>
          <Trackpoint>
            <Time>2021-08-31T09:33:50.000Z</Time>
            <Position>
              <LatitudeDegrees>42.00979233719408512115478515625</LatitudeDegrees>
              <LongitudeDegrees>2.263569496572017669677734375</LongitudeDegrees>
            </Position>
            <AltitudeMeters>503</AltitudeMeters>
            <DistanceMeters>36718.872213071</DistanceMeters>
          </Trackpoint>
          <Trackpoint>
            <Time>2021-08-31T09:33:55.000Z</Time>
            <Position>
              <LatitudeDegrees>42.0100787468254566192626953125</LatitudeDegrees>
              <LongitudeDegrees>2.263411581516265869140625</LongitudeDegrees>
            </Position>
            <AltitudeMeters>503.399993896484375</AltitudeMeters>
            <DistanceMeters>36753.321723468</DistanceMeters>
          </Trackpoint>
          <Trackpoint>
            <Time>2021-08-31T09:33:58.000Z</Time>
            <Position>
              <LatitudeDegrees>42.01025350950658321380615234375</LatitudeDegrees>
              <LongitudeDegrees>2.2633527405560016632080078125</LongitudeDegrees>
            </Position>
            <AltitudeMeters>503.20001220703125</AltitudeMeters>
            <DistanceMeters>36773.372585381</DistanceMeters>
          </Trackpoint>
          <Trackpoint>
            <Time>2021-08-31T09:34:00.000Z</Time>
            <Position>
              <LatitudeDegrees>42.01038837432861328125</LatitudeDegrees>
              <LongitudeDegrees>2.26335433311760425567626953125</LongitudeDegrees>
            </Position>
            <AltitudeMeters>502.79998779296875</AltitudeMeters>
            <DistanceMeters>36788.38409955</DistanceMeters>
          </Trackpoint>
          <Trackpoint>
            <Time>2021-08-31T09:34:06.000Z</Time>
            <Position>
              <LatitudeDegrees>42.01077436096966266632080078125</LatitudeDegrees>
              <LongitudeDegrees>2.26347863674163818359375</LongitudeDegrees>
            </Position>
            <AltitudeMeters>502.20001220703125</AltitudeMeters>
            <DistanceMeters>36832.5579298</DistanceMeters>
          </Trackpoint>
          <Trackpoint>
            <Time>2021-08-31T09:34:12.000Z</Time>
            <Position>
              <LatitudeDegrees>42.011165879666805267333984375</LatitudeDegrees>
              <LongitudeDegrees>2.26358651183545589447021484375</LongitudeDegrees>
            </Position>
            <AltitudeMeters>504.600006103515625</AltitudeMeters>
            <DistanceMeters>36877.038553325</DistanceMeters>
          </Trackpoint>
          <Trackpoint>
            <Time>2021-08-31T09:34:19.000Z</Time>
            <Position>
              <LatitudeDegrees>42.0116243697702884674072265625</LatitudeDegrees>
              <LongitudeDegrees>2.26367988623678684234619140625</LongitudeDegrees>
            </Position>
            <AltitudeMeters>506.600006103515625</AltitudeMeters>
            <DistanceMeters>36928.650307995</DistanceMeters>
          </Trackpoint>
          <Trackpoint>
            <Time>2021-08-31T09:34:20.000Z</Time>
            <Position>
              <LatitudeDegrees>42.0116890780627727508544921875</LatitudeDegrees>
              <LongitudeDegrees>2.263690195977687835693359375</LongitudeDegrees>
            </Position>
            <AltitudeMeters>507.20001220703125</AltitudeMeters>
            <DistanceMeters>36935.902284637</DistanceMeters>
          </Trackpoint>
          <Trackpoint>
            <Time>2021-08-31T09:34:22.000Z</Time>
            <Position>
              <LatitudeDegrees>42.0117953605949878692626953125</LatitudeDegrees>
              <LongitudeDegrees>2.26377007551491260528564453125</LongitudeDegrees>
            </Position>
            <AltitudeMeters>508</AltitudeMeters>
            <DistanceMeters>36949.451508013</DistanceMeters>
          </Trackpoint>
          <Trackpoint>
            <Time>2021-08-31T09:34:27.000Z</Time>
            <Position>
              <LatitudeDegrees>42.01199275441467761993408203125</LatitudeDegrees>
              <LongitudeDegrees>2.2641084529459476470947265625</LongitudeDegrees>
            </Position>
            <AltitudeMeters>507.20001220703125</AltitudeMeters>
            <DistanceMeters>36985.029083469</DistanceMeters>
          </Trackpoint>
          <Trackpoint>
            <Time>2021-08-31T09:34:32.000Z</Time>
            <Position>
              <LatitudeDegrees>42.01219324953854084014892578125</LatitudeDegrees>
              <LongitudeDegrees>2.26444481872022151947021484375</LongitudeDegrees>
            </Position>
            <AltitudeMeters>507.399993896484375</AltitudeMeters>
            <DistanceMeters>37020.690572304</DistanceMeters>
          </Trackpoint>
          <Trackpoint>
            <Time>2021-08-31T09:34:33.000Z</Time>
            <Position>
              <LatitudeDegrees>42.01222057454288005828857421875</LatitudeDegrees>
              <LongitudeDegrees>2.2645362652838230133056640625</LongitudeDegrees>
            </Position>
            <AltitudeMeters>507.399993896484375</AltitudeMeters>
            <DistanceMeters>37028.841848429</DistanceMeters>
          </Trackpoint>
          <Trackpoint>
            <Time>2021-08-31T09:34:34.000Z</Time>
            <Position>
              <LatitudeDegrees>42.01223046518862247467041015625</LatitudeDegrees>
              <LongitudeDegrees>2.2646368481218814849853515625</LongitudeDegrees>
            </Position>
            <AltitudeMeters>507.20001220703125</AltitudeMeters>
            <DistanceMeters>37037.232228394</DistanceMeters>
          </Trackpoint>
          <Trackpoint>
            <Time>2021-08-31T09:34:36.000Z</Time>
            <Position>
              <LatitudeDegrees>42.0121986977756023406982421875</LatitudeDegrees>
              <LongitudeDegrees>2.2648291289806365966796875</LongitudeDegrees>
            </Position>
            <AltitudeMeters>506.20001220703125</AltitudeMeters>
            <DistanceMeters>37053.522035833</DistanceMeters>
          </Trackpoint>
          <Trackpoint>
            <Time>2021-08-31T09:34:42.000Z</Time>
            <Position>
              <LatitudeDegrees>42.01200230978429317474365234375</LatitudeDegrees>
              <LongitudeDegrees>2.2653251700103282928466796875</LongitudeDegrees>
            </Position>
            <AltitudeMeters>504.600006103515625</AltitudeMeters>
            <DistanceMeters>37100.003797311</DistanceMeters>
          </Trackpoint>
          <Trackpoint>
            <Time>2021-08-31T09:34:44.000Z</Time>
            <Position>
              <LatitudeDegrees>42.01194296590983867645263671875</LatitudeDegrees>
              <LongitudeDegrees>2.26548249833285808563232421875</LongitudeDegrees>
            </Position>
            <AltitudeMeters>505</AltitudeMeters>
            <DistanceMeters>37114.595272301</DistanceMeters>
          </Trackpoint>
          <Trackpoint>
            <Time>2021-08-31T09:34:46.000Z</Time>
            <Position>
              <LatitudeDegrees>42.01192687265574932098388671875</LatitudeDegrees>
              <LongitudeDegrees>2.2656410001218318939208984375</LongitudeDegrees>
            </Position>
            <AltitudeMeters>505</AltitudeMeters>
            <DistanceMeters>37127.824820353</DistanceMeters>
          </Trackpoint>
          <Trackpoint>
            <Time>2021-08-31T09:34:48.000Z</Time>
            <Position>
              <LatitudeDegrees>42.01198034919798374176025390625</LatitudeDegrees>
              <LongitudeDegrees>2.26575926877558231353759765625</LongitudeDegrees>
            </Position>
            <AltitudeMeters>505</AltitudeMeters>
            <DistanceMeters>37139.274257882</DistanceMeters>
          </Trackpoint>
          <Trackpoint>
            <Time>2021-08-31T09:34:49.000Z</Time>
            <Position>
              <LatitudeDegrees>42.0120290480554103851318359375</LatitudeDegrees>
              <LongitudeDegrees>2.2658022679388523101806640625</LongitudeDegrees>
            </Position>
            <AltitudeMeters>505</AltitudeMeters>
            <DistanceMeters>37145.757002345</DistanceMeters>
          </Trackpoint>
          <Trackpoint>
            <Time>2021-08-31T09:34:50.000Z</Time>
            <Position>
              <LatitudeDegrees>42.01208746992051601409912109375</LatitudeDegrees>
              <LongitudeDegrees>2.26583453826606273651123046875</LongitudeDegrees>
            </Position>
            <AltitudeMeters>505</AltitudeMeters>
            <DistanceMeters>37152.786410449</DistanceMeters>
          </Trackpoint>
          <Trackpoint>
            <Time>2021-08-31T09:34:54.000Z</Time>
            <Position>
              <LatitudeDegrees>42.0123257674276828765869140625</LatitudeDegrees>
              <LongitudeDegrees>2.26595205254852771759033203125</LongitudeDegrees>
            </Position>
            <AltitudeMeters>505.600006103515625</AltitudeMeters>
            <DistanceMeters>37181.033810591</DistanceMeters>
          </Trackpoint>
          <Trackpoint>
            <Time>2021-08-31T09:35:00.000Z</Time>
            <Position>
              <LatitudeDegrees>42.01268778182566165924072265625</LatitudeDegrees>
              <LongitudeDegrees>2.26611885242164134979248046875</LongitudeDegrees>
            </Position>
            <AltitudeMeters>507</AltitudeMeters>
            <DistanceMeters>37223.62242626</DistanceMeters>
          </Trackpoint>
          <Trackpoint>
            <Time>2021-08-31T09:35:05.000Z</Time>
            <Position>
              <LatitudeDegrees>42.01294845901429653167724609375</LatitudeDegrees>
              <LongitudeDegrees>2.2663511149585247039794921875</LongitudeDegrees>
            </Position>
            <AltitudeMeters>510.20001220703125</AltitudeMeters>
            <DistanceMeters>37258.4180379</DistanceMeters>
          </Trackpoint>
          <Trackpoint>
            <Time>2021-08-31T09:35:08.000Z</Time>
            <Position>
              <LatitudeDegrees>42.01307217590510845184326171875</LatitudeDegrees>
              <LongitudeDegrees>2.26651933975517749786376953125</LongitudeDegrees>
            </Position>
            <AltitudeMeters>511.20001220703125</AltitudeMeters>
            <DistanceMeters>37277.992157128</DistanceMeters>
          </Trackpoint>
          <Trackpoint>
            <Time>2021-08-31T09:35:10.000Z</Time>
            <Position>
              <LatitudeDegrees>42.01312129385769367218017578125</LatitudeDegrees>
              <LongitudeDegrees>2.2666713036596775054931640625</LongitudeDegrees>
            </Position>
            <AltitudeMeters>511.79998779296875</AltitudeMeters>
            <DistanceMeters>37291.696775326</DistanceMeters>
          </Trackpoint>
          <Trackpoint>
            <Time>2021-08-31T09:35:14.000Z</Time>
            <Position>
              <LatitudeDegrees>42.0131458528339862823486328125</LatitudeDegrees>
              <LongitudeDegrees>2.26700984872877597808837890625</LongitudeDegrees>
            </Position>
            <AltitudeMeters>512</AltitudeMeters>
            <DistanceMeters>37319.826287915</DistanceMeters>
          </Trackpoint>
          <Trackpoint>
            <Time>2021-08-31T09:35:15.000Z</Time>
            <Position>
              <LatitudeDegrees>42.0131595991551876068115234375</LatitudeDegrees>
              <LongitudeDegrees>2.26709467358887195587158203125</LongitudeDegrees>
            </Position>
            <AltitudeMeters>512</AltitudeMeters>
            <DistanceMeters>37327.006938059</DistanceMeters>
          </Trackpoint>
          <Trackpoint>
            <Time>2021-08-31T09:35:16.000Z</Time>
            <Position>
              <LatitudeDegrees>42.013180553913116455078125</LatitudeDegrees>
              <LongitudeDegrees>2.26717472076416015625</LongitudeDegrees>
            </Position>
            <AltitudeMeters>511.79998779296875</AltitudeMeters>
            <DistanceMeters>37334.024775113</DistanceMeters>
          </Trackpoint>
          <Trackpoint>
            <Time>2021-08-31T09:35:18.000Z</Time>
            <Position>
              <LatitudeDegrees>42.01325138099491596221923828125</LatitudeDegrees>
              <LongitudeDegrees>2.26729801855981349945068359375</LongitudeDegrees>
            </Position>
            <AltitudeMeters>511.79998779296875</AltitudeMeters>
            <DistanceMeters>37346.912723985</DistanceMeters>
          </Trackpoint>
          <Trackpoint>
            <Time>2021-08-31T09:35:20.000Z</Time>
            <Position>
              <LatitudeDegrees>42.0133594237267971038818359375</LatitudeDegrees>
              <LongitudeDegrees>2.26736557669937610626220703125</LongitudeDegrees>
            </Position>
            <AltitudeMeters>512.4000244140625</AltitudeMeters>
            <DistanceMeters>37360.17227105</DistanceMeters>
          </Trackpoint>
          <Trackpoint>
            <Time>2021-08-31T09:35:21.000Z</Time>
            <Position>
              <LatitudeDegrees>42.0134232938289642333984375</LatitudeDegrees>
              <LongitudeDegrees>2.2673924826085567474365234375</LongitudeDegrees>
            </Position>
            <AltitudeMeters>512.79998779296875</AltitudeMeters>
            <DistanceMeters>37367.620813838</DistanceMeters>
          </Trackpoint>
          <Trackpoint>
            <Time>2021-08-31T09:35:24.000Z</Time>
            <Position>
              <LatitudeDegrees>42.01361029408872127532958984375</LatitudeDegrees>
              <LongitudeDegrees>2.2674923948943614959716796875</LongitudeDegrees>
            </Position>
            <AltitudeMeters>513.79998779296875</AltitudeMeters>
            <DistanceMeters>37390.014479577</DistanceMeters>
          </Trackpoint>
          <Trackpoint>
            <Time>2021-08-31T09:35:26.000Z</Time>
            <Position>
              <LatitudeDegrees>42.01371691189706325531005859375</LatitudeDegrees>
              <LongitudeDegrees>2.26758702658116817474365234375</LongitudeDegrees>
            </Position>
            <AltitudeMeters>514.20001220703125</AltitudeMeters>
            <DistanceMeters>37404.229154759</DistanceMeters>
          </Trackpoint>
          <Trackpoint>
            <Time>2021-08-31T09:35:27.000Z</Time>
            <Position>
              <LatitudeDegrees>42.013770975172519683837890625</LatitudeDegrees>
              <LongitudeDegrees>2.267627008259296417236328125</LongitudeDegrees>
            </Position>
            <AltitudeMeters>514.4000244140625</AltitudeMeters>
            <DistanceMeters>37411.096108901</DistanceMeters>
          </Trackpoint>
          <Trackpoint>
            <Time>2021-08-31T09:35:31.000Z</Time>
            <Position>
              <LatitudeDegrees>42.014001645147800445556640625</LatitudeDegrees>
              <LongitudeDegrees>2.26776103489100933074951171875</LongitudeDegrees>
            </Position>
            <AltitudeMeters>516.5999755859375</AltitudeMeters>
            <DistanceMeters>37439.060454415</DistanceMeters>
          </Trackpoint>
          <Trackpoint>
            <Time>2021-08-31T09:35:38.000Z</Time>
            <Position>
              <LatitudeDegrees>42.01440020464360713958740234375</LatitudeDegrees>
              <LongitudeDegrees>2.26798449642956256866455078125</LongitudeDegrees>
            </Position>
            <AltitudeMeters>518.4000244140625</AltitudeMeters>
            <DistanceMeters>37487.115981565</DistanceMeters>
          </Trackpoint>
          <Trackpoint>
            <Time>2021-08-31T09:35:42.000Z</Time>
            <Position>
              <LatitudeDegrees>42.014617882668972015380859375</LatitudeDegrees>
              <LongitudeDegrees>2.26808734238147735595703125</LongitudeDegrees>
            </Position>
            <AltitudeMeters>519.4000244140625</AltitudeMeters>
            <DistanceMeters>37512.793599477</DistanceMeters>
          </Trackpoint>
          <Trackpoint>
            <Time>2021-08-31T09:35:43.000Z</Time>
            <Position>
              <LatitudeDegrees>42.01465467922389507293701171875</LatitudeDegrees>
              <LongitudeDegrees>2.26813293993473052978515625</LongitudeDegrees>
            </Position>
            <AltitudeMeters>519.79998779296875</AltitudeMeters>
            <DistanceMeters>37518.360575528</DistanceMeters>
          </Trackpoint>
          <Trackpoint>
            <Time>2021-08-31T09:35:44.000Z</Time>
            <Position>
              <LatitudeDegrees>42.0146757178008556365966796875</LatitudeDegrees>
              <LongitudeDegrees>2.268192283809185028076171875</LongitudeDegrees>
            </Position>
            <AltitudeMeters>520</AltitudeMeters>
            <DistanceMeters>37523.797897505</DistanceMeters>
          </Trackpoint>
          <Trackpoint>
            <Time>2021-08-31T09:35:46.000Z</Time>
            <Position>
              <LatitudeDegrees>42.01466741971671581268310546875</LatitudeDegrees>
              <LongitudeDegrees>2.26832128129899501800537109375</LongitudeDegrees>
            </Position>
            <AltitudeMeters>520.4000244140625</AltitudeMeters>
            <DistanceMeters>37534.504334371</DistanceMeters>
          </Trackpoint>
          <Trackpoint>
            <Time>2021-08-31T09:35:50.000Z</Time>
            <Position>
              <LatitudeDegrees>42.01460589654743671417236328125</LatitudeDegrees>
              <LongitudeDegrees>2.26859134621918201446533203125</LongitudeDegrees>
            </Position>
            <AltitudeMeters>521</AltitudeMeters>
            <DistanceMeters>37557.863516703</DistanceMeters>
          </Trackpoint>
          <Trackpoint>
            <Time>2021-08-31T09:35:51.000Z</Time>
            <Position>
              <LatitudeDegrees>42.01461276970803737640380859375</LatitudeDegrees>
              <LongitudeDegrees>2.26866066455841064453125</LongitudeDegrees>
            </Position>
            <AltitudeMeters>520.5999755859375</AltitudeMeters>
            <DistanceMeters>37563.646889694</DistanceMeters>
          </Trackpoint>
          <Trackpoint>
            <Time>2021-08-31T09:35:52.000Z</Time>
            <Position>
              <LatitudeDegrees>42.01464143581688404083251953125</LatitudeDegrees>
              <LongitudeDegrees>2.26872411556541919708251953125</LongitudeDegrees>
            </Position>
            <AltitudeMeters>520.5999755859375</AltitudeMeters>
            <DistanceMeters>37569.788439116</DistanceMeters>
          </Trackpoint>
          <Trackpoint>
            <Time>2021-08-31T09:35:54.000Z</Time>
            <Position>
              <LatitudeDegrees>42.01473514549434185028076171875</LatitudeDegrees>
              <LongitudeDegrees>2.2687765024602413177490234375</LongitudeDegrees>
            </Position>
            <AltitudeMeters>520.79998779296875</AltitudeMeters>
            <DistanceMeters>37581.082634964</DistanceMeters>
          </Trackpoint>
          <Trackpoint>
            <Time>2021-08-31T09:35:57.000Z</Time>
            <Position>
              <LatitudeDegrees>42.01492323540151119232177734375</LatitudeDegrees>
              <LongitudeDegrees>2.26874473504722118377685546875</LongitudeDegrees>
            </Position>
            <AltitudeMeters>521.20001220703125</AltitudeMeters>
            <DistanceMeters>37602.181561679</DistanceMeters>
          </Trackpoint>
          <Trackpoint>
            <Time>2021-08-31T09:35:58.000Z</Time>
            <Position>
              <LatitudeDegrees>42.0149885304272174835205078125</LatitudeDegrees>
              <LongitudeDegrees>2.26874188520014286041259765625</LongitudeDegrees>
            </Position>
            <AltitudeMeters>521.20001220703125</AltitudeMeters>
            <DistanceMeters>37609.452192154</DistanceMeters>
          </Trackpoint>
          <Trackpoint>
            <Time>2021-08-31T09:36:00.000Z</Time>
            <Position>
              <LatitudeDegrees>42.01512289233505725860595703125</LatitudeDegrees>
              <LongitudeDegrees>2.26875244639813899993896484375</LongitudeDegrees>
            </Position>
            <AltitudeMeters>521.4000244140625</AltitudeMeters>
            <DistanceMeters>37624.432092008</DistanceMeters>
          </Trackpoint>
          <Trackpoint>
            <Time>2021-08-31T09:36:02.000Z</Time>
            <Position>
              <LatitudeDegrees>42.01524912379682064056396484375</LatitudeDegrees>
              <LongitudeDegrees>2.26879770867526531219482421875</LongitudeDegrees>
            </Position>
            <AltitudeMeters>520.79998779296875</AltitudeMeters>
            <DistanceMeters>37638.972110911</DistanceMeters>
          </Trackpoint>
          <Trackpoint>
            <Time>2021-08-31T09:36:03.000Z</Time>
            <Position>
              <LatitudeDegrees>42.01531064696609973907470703125</LatitudeDegrees>
              <LongitudeDegrees>2.26881799288094043731689453125</LongitudeDegrees>
            </Position>
            <AltitudeMeters>520.4000244140625</AltitudeMeters>
            <DistanceMeters>37646.021402412</DistanceMeters>
          </Trackpoint>
          <Trackpoint>
            <Time>2021-08-31T09:36:05.000Z</Time>
            <Position>
              <LatitudeDegrees>42.01543654315173625946044921875</LatitudeDegrees>
              <LongitudeDegrees>2.26879619993269443511962890625</LongitudeDegrees>
            </Position>
            <AltitudeMeters>520.20001220703125</AltitudeMeters>
            <DistanceMeters>37660.149417479</DistanceMeters>
          </Trackpoint>
          <Trackpoint>
            <Time>2021-08-31T09:36:09.000Z</Time>
            <Position>
              <LatitudeDegrees>42.01566302217543125152587890625</LatitudeDegrees>
              <LongitudeDegrees>2.2685988061130046844482421875</LongitudeDegrees>
            </Position>
            <AltitudeMeters>520.5999755859375</AltitudeMeters>
            <DistanceMeters>37690.180415209</DistanceMeters>
          </Trackpoint>
          <Trackpoint>
            <Time>2021-08-31T09:36:10.000Z</Time>
            <Position>
              <LatitudeDegrees>42.0157271437346935272216796875</LatitudeDegrees>
              <LongitudeDegrees>2.2685501910746097564697265625</LongitudeDegrees>
            </Position>
            <AltitudeMeters>521</AltitudeMeters>
            <DistanceMeters>37698.371475457</DistanceMeters>
          </Trackpoint>
          <Trackpoint>
            <Time>2021-08-31T09:36:12.000Z</Time>
            <Position>
              <LatitudeDegrees>42.01586804352700710296630859375</LatitudeDegrees>
              <LongitudeDegrees>2.2685158252716064453125</LongitudeDegrees>
            </Position>
            <AltitudeMeters>522</AltitudeMeters>
            <DistanceMeters>37714.309356444</DistanceMeters>
          </Trackpoint>
          <Trackpoint>
            <Time>2021-08-31T09:36:14.000Z</Time>
            <Position>
              <LatitudeDegrees>42.015995196998119354248046875</LatitudeDegrees>
              <LongitudeDegrees>2.26856670342385768890380859375</LongitudeDegrees>
            </Position>
            <AltitudeMeters>521.79998779296875</AltitudeMeters>
            <DistanceMeters>37729.074318534</DistanceMeters>
          </Trackpoint>
          <Trackpoint>
            <Time>2021-08-31T09:36:15.000Z</Time>
            <Position>
              <LatitudeDegrees>42.0160530321300029754638671875</LatitudeDegrees>
              <LongitudeDegrees>2.2686095349490642547607421875</LongitudeDegrees>
            </Position>
            <AltitudeMeters>521.5999755859375</AltitudeMeters>
            <DistanceMeters>37736.421549099</DistanceMeters>
          </Trackpoint>
          <Trackpoint>
            <Time>2021-08-31T09:36:16.000Z</Time>
            <Position>
              <LatitudeDegrees>42.01610759831964969635009765625</LatitudeDegrees>
              <LongitudeDegrees>2.268641553819179534912109375</LongitudeDegrees>
            </Position>
            <AltitudeMeters>521.4000244140625</AltitudeMeters>
            <DistanceMeters>37743.046212979</DistanceMeters>
          </Trackpoint>
          <Trackpoint>
            <Time>2021-08-31T09:36:18.000Z</Time>
            <Position>
              <LatitudeDegrees>42.01622142456471920013427734375</LatitudeDegrees>
              <LongitudeDegrees>2.2686485946178436279296875</LongitudeDegrees>
            </Position>
            <AltitudeMeters>521.79998779296875</AltitudeMeters>
            <DistanceMeters>37755.728986796</DistanceMeters>
          </Trackpoint>
          <Trackpoint>
            <Time>2021-08-31T09:36:23.000Z</Time>
            <Position>
              <LatitudeDegrees>42.016539685428142547607421875</LatitudeDegrees>
              <LongitudeDegrees>2.26851674728095531463623046875</LongitudeDegrees>
            </Position>
            <AltitudeMeters>523.20001220703125</AltitudeMeters>
            <DistanceMeters>37792.791963724</DistanceMeters>
          </Trackpoint>
          <Trackpoint>
            <Time>2021-08-31T09:36:26.000Z</Time>
            <Position>
              <LatitudeDegrees>42.01673875562846660614013671875</LatitudeDegrees>
              <LongitudeDegrees>2.26838833652436733245849609375</LongitudeDegrees>
            </Position>
            <AltitudeMeters>524</AltitudeMeters>
            <DistanceMeters>37817.361653187</DistanceMeters>
          </Trackpoint>
          <Trackpoint>
            <Time>2021-08-31T09:36:27.000Z</Time>
            <Position>
              <LatitudeDegrees>42.01681033708155155181884765625</LatitudeDegrees>
              <LongitudeDegrees>2.2683735005557537078857421875</LongitudeDegrees>
            </Position>
            <AltitudeMeters>524</AltitudeMeters>
            <DistanceMeters>37825.423257257</DistanceMeters>
          </Trackpoint>
          <Trackpoint>
            <Time>2021-08-31T09:36:29.000Z</Time>
            <Position>
              <LatitudeDegrees>42.0169418491423130035400390625</LatitudeDegrees>
              <LongitudeDegrees>2.26834483444690704345703125</LongitudeDegrees>
            </Position>
            <AltitudeMeters>524.5999755859375</AltitudeMeters>
            <DistanceMeters>37840.251688104</DistanceMeters>
          </Trackpoint>
          <Trackpoint>
            <Time>2021-08-31T09:36:31.000Z</Time>
            <Position>
              <LatitudeDegrees>42.017063386738300323486328125</LatitudeDegrees>
              <LongitudeDegrees>2.26831725798547267913818359375</LongitudeDegrees>
            </Position>
            <AltitudeMeters>525.5999755859375</AltitudeMeters>
            <DistanceMeters>37853.969807257</DistanceMeters>
          </Trackpoint>
          <Trackpoint>
            <Time>2021-08-31T09:36:36.000Z</Time>
            <Position>
              <LatitudeDegrees>42.0173760317265987396240234375</LatitudeDegrees>
              <LongitudeDegrees>2.26839235983788967132568359375</LongitudeDegrees>
            </Position>
            <AltitudeMeters>526</AltitudeMeters>
            <DistanceMeters>37889.317701359</DistanceMeters>
          </Trackpoint>
          <Trackpoint>
            <Time>2021-08-31T09:36:38.000Z</Time>
            <Position>
              <LatitudeDegrees>42.017500586807727813720703125</LatitudeDegrees>
              <LongitudeDegrees>2.26843309588730335235595703125</LongitudeDegrees>
            </Position>
            <AltitudeMeters>525.4000244140625</AltitudeMeters>
            <DistanceMeters>37903.584373117</DistanceMeters>
          </Trackpoint>
          <Trackpoint>
            <Time>2021-08-31T09:36:40.000Z</Time>
            <Position>
              <LatitudeDegrees>42.01760460622608661651611328125</LatitudeDegrees>
              <LongitudeDegrees>2.26853585802018642425537109375</LongitudeDegrees>
            </Position>
            <AltitudeMeters>524.20001220703125</AltitudeMeters>
            <DistanceMeters>37917.945359013</DistanceMeters>
          </Trackpoint>
          <Trackpoint>
            <Time>2021-08-31T09:36:42.000Z</Time>
            <Position>
              <LatitudeDegrees>42.0176395587623119354248046875</LatitudeDegrees>
              <LongitudeDegrees>2.268689163029193878173828125</LongitudeDegrees>
            </Position>
            <AltitudeMeters>524</AltitudeMeters>
            <DistanceMeters>37931.205246585</DistanceMeters>
          </Trackpoint>
          <Trackpoint>
            <Time>2021-08-31T09:36:43.000Z</Time>
            <Position>
              <LatitudeDegrees>42.0176331885159015655517578125</LatitudeDegrees>
              <LongitudeDegrees>2.26876703090965747833251953125</LongitudeDegrees>
            </Position>
            <AltitudeMeters>524</AltitudeMeters>
            <DistanceMeters>37937.68241689</DistanceMeters>
          </Trackpoint>
          <Trackpoint>
            <Time>2021-08-31T09:36:45.000Z</Time>
            <Position>
              <LatitudeDegrees>42.01762170530855655670166015625</LatitudeDegrees>
              <LongitudeDegrees>2.26893248967826366424560546875</LongitudeDegrees>
            </Position>
            <AltitudeMeters>524.4000244140625</AltitudeMeters>
            <DistanceMeters>37951.423884371</DistanceMeters>
          </Trackpoint>
          <Trackpoint>
            <Time>2021-08-31T09:36:47.000Z</Time>
            <Position>
              <LatitudeDegrees>42.0176395587623119354248046875</LatitudeDegrees>
              <LongitudeDegrees>2.26909928955137729644775390625</LongitudeDegrees>
            </Position>
            <AltitudeMeters>525</AltitudeMeters>
            <DistanceMeters>37965.359155948</DistanceMeters>
          </Trackpoint>
          <Trackpoint>
            <Time>2021-08-31T09:36:48.000Z</Time>
            <Position>
              <LatitudeDegrees>42.0176585018634796142578125</LatitudeDegrees>
              <LongitudeDegrees>2.26917900145053863525390625</LongitudeDegrees>
            </Position>
            <AltitudeMeters>525.20001220703125</AltitudeMeters>
            <DistanceMeters>37972.278510347</DistanceMeters>
          </Trackpoint>
          <Trackpoint>
            <Time>2021-08-31T09:36:49.000Z</Time>
            <Position>
              <LatitudeDegrees>42.0176737569272518157958984375</LatitudeDegrees>
              <LongitudeDegrees>2.26925871334969997406005859375</LongitudeDegrees>
            </Position>
            <AltitudeMeters>525.4000244140625</AltitudeMeters>
            <DistanceMeters>37979.084705478</DistanceMeters>
          </Trackpoint>
          <Trackpoint>
            <Time>2021-08-31T09:36:51.000Z</Time>
            <Position>
              <LatitudeDegrees>42.017678283154964447021484375</LatitudeDegrees>
              <LongitudeDegrees>2.26942308247089385986328125</LongitudeDegrees>
            </Position>
            <AltitudeMeters>525.79998779296875</AltitudeMeters>
            <DistanceMeters>37992.6861457</DistanceMeters>
          </Trackpoint>
          <Trackpoint>
            <Time>2021-08-31T09:36:52.000Z</Time>
            <Position>
              <LatitudeDegrees>42.017670907080173492431640625</LatitudeDegrees>
              <LongitudeDegrees>2.269502542912960052490234375</LongitudeDegrees>
            </Position>
            <AltitudeMeters>525.5999755859375</AltitudeMeters>
            <DistanceMeters>37999.308082819</DistanceMeters>
          </Trackpoint>
          <Trackpoint>
            <Time>2021-08-31T09:36:54.000Z</Time>
            <Position>
              <LatitudeDegrees>42.017653472721576690673828125</LatitudeDegrees>
              <LongitudeDegrees>2.2696686722338199615478515625</LongitudeDegrees>
            </Position>
            <AltitudeMeters>525</AltitudeMeters>
            <DistanceMeters>38013.181983117</DistanceMeters>
          </Trackpoint>
          <Trackpoint>
            <Time>2021-08-31T09:36:56.000Z</Time>
            <Position>
              <LatitudeDegrees>42.01767032034695148468017578125</LatitudeDegrees>
              <LongitudeDegrees>2.26983538828790187835693359375</LongitudeDegrees>
            </Position>
            <AltitudeMeters>524.4000244140625</AltitudeMeters>
            <DistanceMeters>38027.094556156</DistanceMeters>
          </Trackpoint>
          <Trackpoint>
            <Time>2021-08-31T09:36:58.000Z</Time>
            <Position>
              <LatitudeDegrees>42.01772463507950305938720703125</LatitudeDegrees>
              <LongitudeDegrees>2.269988693296909332275390625</LongitudeDegrees>
            </Position>
            <AltitudeMeters>524.20001220703125</AltitudeMeters>
            <DistanceMeters>38041.139234502</DistanceMeters>
          </Trackpoint>
          <Trackpoint>
            <Time>2021-08-31T09:36:59.000Z</Time>
            <Position>
              <LatitudeDegrees>42.017765454947948455810546875</LatitudeDegrees>
              <LongitudeDegrees>2.2700569219887256622314453125</LongitudeDegrees>
            </Position>
            <AltitudeMeters>524.4000244140625</AltitudeMeters>
            <DistanceMeters>38048.383112898</DistanceMeters>
          </Trackpoint>
          <Trackpoint>
            <Time>2021-08-31T09:37:02.000Z</Time>
            <Position>
              <LatitudeDegrees>42.01789646409451961517333984375</LatitudeDegrees>
              <LongitudeDegrees>2.27024090476334095001220703125</LongitudeDegrees>
            </Position>
            <AltitudeMeters>524.79998779296875</AltitudeMeters>
            <DistanceMeters>38069.456130463</DistanceMeters>
          </Trackpoint>
          <Trackpoint>
            <Time>2021-08-31T09:37:04.000Z</Time>
            <Position>
              <LatitudeDegrees>42.01799000613391399383544921875</LatitudeDegrees>
              <LongitudeDegrees>2.27036453783512115478515625</LongitudeDegrees>
            </Position>
            <AltitudeMeters>525.4000244140625</AltitudeMeters>
            <DistanceMeters>38084.047605454</DistanceMeters>
          </Trackpoint>
          <Trackpoint>
            <Time>2021-08-31T09:37:06.000Z</Time>
            <Position>
              <LatitudeDegrees>42.01810919679701328277587890625</LatitudeDegrees>
              <LongitudeDegrees>2.27044726721942424774169921875</LongitudeDegrees>
            </Position>
            <AltitudeMeters>526.79998779296875</AltitudeMeters>
            <DistanceMeters>38098.973758542</DistanceMeters>
          </Trackpoint>
          <Trackpoint>
            <Time>2021-08-31T09:37:08.000Z</Time>
            <Position>
              <LatitudeDegrees>42.0182370208203792572021484375</LatitudeDegrees>
              <LongitudeDegrees>2.2704968042671680450439453125</LongitudeDegrees>
            </Position>
            <AltitudeMeters>528.20001220703125</AltitudeMeters>
            <DistanceMeters>38113.778420492</DistanceMeters>
          </Trackpoint>
          <Trackpoint>
            <Time>2021-08-31T09:37:14.000Z</Time>
            <Position>
              <LatitudeDegrees>42.0186336524784564971923828125</LatitudeDegrees>
              <LongitudeDegrees>2.27056344039738178253173828125</LongitudeDegrees>
            </Position>
            <AltitudeMeters>530.4000244140625</AltitudeMeters>
            <DistanceMeters>38158.266859272</DistanceMeters>
          </Trackpoint>
          <Trackpoint>
            <Time>2021-08-31T09:37:18.000Z</Time>
            <Position>
              <LatitudeDegrees>42.0188971795141696929931640625</LatitudeDegrees>
              <LongitudeDegrees>2.2705755941569805145263671875</LongitudeDegrees>
            </Position>
            <AltitudeMeters>531.5999755859375</AltitudeMeters>
            <DistanceMeters>38187.615195026</DistanceMeters>
          </Trackpoint>
          <Trackpoint>
            <Time>2021-08-31T09:37:21.000Z</Time>
            <Position>
              <LatitudeDegrees>42.01909088529646396636962890625</LatitudeDegrees>
              <LongitudeDegrees>2.27058774791657924652099609375</LongitudeDegrees>
            </Position>
            <AltitudeMeters>532.20001220703125</AltitudeMeters>
            <DistanceMeters>38209.198604942</DistanceMeters>
          </Trackpoint>
          <Trackpoint>
            <Time>2021-08-31T09:37:23.000Z</Time>
            <Position>
              <LatitudeDegrees>42.01921426691114902496337890625</LatitudeDegrees>
              <LongitudeDegrees>2.27062697522342205047607421875</LongitudeDegrees>
            </Position>
            <AltitudeMeters>532.5999755859375</AltitudeMeters>
            <DistanceMeters>38223.309352108</DistanceMeters>
          </Trackpoint>
          <Trackpoint>
            <Time>2021-08-31T09:37:25.000Z</Time>
            <Position>
              <LatitudeDegrees>42.01933228410780429840087890625</LatitudeDegrees>
              <LongitudeDegrees>2.270696461200714111328125</LongitudeDegrees>
            </Position>
            <AltitudeMeters>533</AltitudeMeters>
            <DistanceMeters>38237.646738905</DistanceMeters>
          </Trackpoint>
          <Trackpoint>
            <Time>2021-08-31T09:37:28.000Z</Time>
            <Position>
              <LatitudeDegrees>42.01949707232415676116943359375</LatitudeDegrees>
              <LongitudeDegrees>2.27082277648150920867919921875</LongitudeDegrees>
            </Position>
            <AltitudeMeters>532.79998779296875</AltitudeMeters>
            <DistanceMeters>38258.753367989</DistanceMeters>
          </Trackpoint>
          <Trackpoint>
            <Time>2021-08-31T09:37:30.000Z</Time>
            <Position>
              <LatitudeDegrees>42.0195868425071239471435546875</LatitudeDegrees>
              <LongitudeDegrees>2.27093023248016834259033203125</LongitudeDegrees>
            </Position>
            <AltitudeMeters>532.4000244140625</AltitudeMeters>
            <DistanceMeters>38272.124136607</DistanceMeters>
          </Trackpoint>
          <Trackpoint>
            <Time>2021-08-31T09:37:37.000Z</Time>
            <Position>
              <LatitudeDegrees>42.01987911947071552276611328125</LatitudeDegrees>
              <LongitudeDegrees>2.27128227241337299346923828125</LongitudeDegrees>
            </Position>
            <AltitudeMeters>535</AltitudeMeters>
            <DistanceMeters>38315.777613697</DistanceMeters>
          </Trackpoint>
          <Trackpoint>
            <Time>2021-08-31T09:37:45.000Z</Time>
            <Position>
              <LatitudeDegrees>42.0201936922967433929443359375</LatitudeDegrees>
              <LongitudeDegrees>2.2716974280774593353271484375</LongitudeDegrees>
            </Position>
            <AltitudeMeters>537.5999755859375</AltitudeMeters>
            <DistanceMeters>38364.811306232</DistanceMeters>
          </Trackpoint>
          <Trackpoint>
            <Time>2021-08-31T09:37:54.000Z</Time>
            <Position>
              <LatitudeDegrees>42.020579092204570770263671875</LatitudeDegrees>
              <LongitudeDegrees>2.2720548324286937713623046875</LongitudeDegrees>
            </Position>
            <AltitudeMeters>540.4000244140625</AltitudeMeters>
            <DistanceMeters>38416.9017233</DistanceMeters>
          </Trackpoint>
          <Trackpoint>
            <Time>2021-08-31T09:38:00.000Z</Time>
            <Position>
              <LatitudeDegrees>42.02088125981390476226806640625</LatitudeDegrees>
              <LongitudeDegrees>2.2723044455051422119140625</LongitudeDegrees>
            </Position>
            <AltitudeMeters>541.4000244140625</AltitudeMeters>
            <DistanceMeters>38456.361730922</DistanceMeters>
          </Trackpoint>
          <Trackpoint>
            <Time>2021-08-31T09:38:01.000Z</Time>
            <Position>
              <LatitudeDegrees>42.02092870138585567474365234375</LatitudeDegrees>
              <LongitudeDegrees>2.272353060543537139892578125</LongitudeDegrees>
            </Position>
            <AltitudeMeters>541.4000244140625</AltitudeMeters>
            <DistanceMeters>38462.997290638</DistanceMeters>
          </Trackpoint>
          <Trackpoint>
            <Time>2021-08-31T09:38:02.000Z</Time>
            <Position>
              <LatitudeDegrees>42.020980417728424072265625</LatitudeDegrees>
              <LongitudeDegrees>2.2724001668393611907958984375</LongitudeDegrees>
            </Position>
            <AltitudeMeters>541.4000244140625</AltitudeMeters>
            <DistanceMeters>38469.947895574</DistanceMeters>
          </Trackpoint>
          <Trackpoint>
            <Time>2021-08-31T09:38:04.000Z</Time>
            <Position>
              <LatitudeDegrees>42.02108980156481266021728515625</LatitudeDegrees>
              <LongitudeDegrees>2.27246294729411602020263671875</LongitudeDegrees>
            </Position>
            <AltitudeMeters>540.79998779296875</AltitudeMeters>
            <DistanceMeters>38483.182903049</DistanceMeters>
          </Trackpoint>
          <Trackpoint>
            <Time>2021-08-31T09:38:05.000Z</Time>
            <Position>
              <LatitudeDegrees>42.02114746905863285064697265625</LatitudeDegrees>
              <LongitudeDegrees>2.272479124367237091064453125</LongitudeDegrees>
            </Position>
            <AltitudeMeters>540.5999755859375</AltitudeMeters>
            <DistanceMeters>38489.739057705</DistanceMeters>
          </Trackpoint>
          <Trackpoint>
            <Time>2021-08-31T09:38:07.000Z</Time>
            <Position>
              <LatitudeDegrees>42.0212585292756557464599609375</LatitudeDegrees>
              <LongitudeDegrees>2.27248474024236202239990234375</LongitudeDegrees>
            </Position>
            <AltitudeMeters>540.5999755859375</AltitudeMeters>
            <DistanceMeters>38502.109331567</DistanceMeters>
          </Trackpoint>
          <Trackpoint>
            <Time>2021-08-31T09:38:09.000Z</Time>
            <Position>
              <LatitudeDegrees>42.02133589424192905426025390625</LatitudeDegrees>
              <LongitudeDegrees>2.27244056761264801025390625</LongitudeDegrees>
            </Position>
            <AltitudeMeters>541.20001220703125</AltitudeMeters>
            <DistanceMeters>38511.462586647</DistanceMeters>
          </Trackpoint>
          <Trackpoint>
            <Time>2021-08-31T09:38:10.000Z</Time>
            <Position>
              <LatitudeDegrees>42.02136824838817119598388671875</LatitudeDegrees>
              <LongitudeDegrees>2.27241106331348419189453125</LongitudeDegrees>
            </Position>
            <AltitudeMeters>541.79998779296875</AltitudeMeters>
            <DistanceMeters>38515.81310848</DistanceMeters>
          </Trackpoint>
          <Trackpoint>
            <Time>2021-08-31T09:38:12.000Z</Time>
            <Position>
              <LatitudeDegrees>42.0214550010859966278076171875</LatitudeDegrees>
              <LongitudeDegrees>2.2723736800253391265869140625</LongitudeDegrees>
            </Position>
            <AltitudeMeters>542.5999755859375</AltitudeMeters>
            <DistanceMeters>38525.951171909</DistanceMeters>
          </Trackpoint>
          <Trackpoint>
            <Time>2021-08-31T09:38:13.000Z</Time>
            <Position>
              <LatitudeDegrees>42.02150386758148670196533203125</LatitudeDegrees>
              <LongitudeDegrees>2.272368483245372772216796875</LongitudeDegrees>
            </Position>
            <AltitudeMeters>542.79998779296875</AltitudeMeters>
            <DistanceMeters>38531.406731638</DistanceMeters>
          </Trackpoint>
          <Trackpoint>
            <Time>2021-08-31T09:38:18.000Z</Time>
            <Position>
              <LatitudeDegrees>42.0218051970005035400390625</LatitudeDegrees>
              <LongitudeDegrees>2.2723981551826000213623046875</LongitudeDegrees>
            </Position>
            <AltitudeMeters>544.5999755859375</AltitudeMeters>
            <DistanceMeters>38565.03491228</DistanceMeters>
          </Trackpoint>
          <Trackpoint>
            <Time>2021-08-31T09:38:21.000Z</Time>
            <Position>
              <LatitudeDegrees>42.0220090448856353759765625</LatitudeDegrees>
              <LongitudeDegrees>2.27247945964336395263671875</LongitudeDegrees>
            </Position>
            <AltitudeMeters>542.79998779296875</AltitudeMeters>
            <DistanceMeters>38588.698663048</DistanceMeters>
          </Trackpoint>
          <Trackpoint>
            <Time>2021-08-31T09:38:22.000Z</Time>
            <Position>
              <LatitudeDegrees>42.0220719091594219207763671875</LatitudeDegrees>
              <LongitudeDegrees>2.27252882905304431915283203125</LongitudeDegrees>
            </Position>
            <AltitudeMeters>542</AltitudeMeters>
            <DistanceMeters>38596.799376938</DistanceMeters>
          </Trackpoint>
          <Trackpoint>
            <Time>2021-08-31T09:38:23.000Z</Time>
            <Position>
              <LatitudeDegrees>42.0221305824816226959228515625</LatitudeDegrees>
              <LongitudeDegrees>2.272590100765228271484375</LongitudeDegrees>
            </Position>
            <AltitudeMeters>541.20001220703125</AltitudeMeters>
            <DistanceMeters>38605.063969984</DistanceMeters>
          </Trackpoint>
          <Trackpoint>
            <Time>2021-08-31T09:38:25.000Z</Time>
            <Position>
              <LatitudeDegrees>42.02224910259246826171875</LatitudeDegrees>
              <LongitudeDegrees>2.27272194810211658477783203125</LongitudeDegrees>
            </Position>
            <AltitudeMeters>539.4000244140625</AltitudeMeters>
            <DistanceMeters>38622.177223305</DistanceMeters>
          </Trackpoint>
          <Trackpoint>
            <Time>2021-08-31T09:38:26.000Z</Time>
            <Position>
              <LatitudeDegrees>42.0223190076649188995361328125</LatitudeDegrees>
              <LongitudeDegrees>2.2727716527879238128662109375</LongitudeDegrees>
            </Position>
            <AltitudeMeters>539</AltitudeMeters>
            <DistanceMeters>38630.976307089</DistanceMeters>
          </Trackpoint>
          <Trackpoint>
            <Time>2021-08-31T09:38:32.000Z</Time>
            <Position>
              <LatitudeDegrees>42.022780515253543853759765625</LatitudeDegrees>
              <LongitudeDegrees>2.27299905382096767425537109375</LongitudeDegrees>
            </Position>
            <AltitudeMeters>539.5999755859375</AltitudeMeters>
            <DistanceMeters>38685.676047941</DistanceMeters>
          </Trackpoint>
          <Trackpoint>
            <Time>2021-08-31T09:38:34.000Z</Time>
            <Position>
              <LatitudeDegrees>42.02291923575103282928466796875</LatitudeDegrees>
              <LongitudeDegrees>2.27303358726203441619873046875</LongitudeDegrees>
            </Position>
            <AltitudeMeters>540.20001220703125</AltitudeMeters>
            <DistanceMeters>38701.377613056</DistanceMeters>
          </Trackpoint>
          <Trackpoint>
            <Time>2021-08-31T09:38:35.000Z</Time>
            <Position>
              <LatitudeDegrees>42.02297472395002841949462890625</LatitudeDegrees>
              <LongitudeDegrees>2.27306661196053028106689453125</LongitudeDegrees>
            </Position>
            <AltitudeMeters>540.79998779296875</AltitudeMeters>
            <DistanceMeters>38708.13052991</DistanceMeters>
          </Trackpoint>
          <Trackpoint>
            <Time>2021-08-31T09:38:36.000Z</Time>
            <Position>
              <LatitudeDegrees>42.0230180583894252777099609375</LatitudeDegrees>
              <LongitudeDegrees>2.2731126286089420318603515625</LongitudeDegrees>
            </Position>
            <AltitudeMeters>541.4000244140625</AltitudeMeters>
            <DistanceMeters>38714.273549482</DistanceMeters>
          </Trackpoint>
          <Trackpoint>
            <Time>2021-08-31T09:38:39.000Z</Time>
            <Position>
              <LatitudeDegrees>42.02313196845352649688720703125</LatitudeDegrees>
              <LongitudeDegrees>2.2732484154403209686279296875</LongitudeDegrees>
            </Position>
            <AltitudeMeters>543.20001220703125</AltitudeMeters>
            <DistanceMeters>38731.208579091</DistanceMeters>
          </Trackpoint>
          <Trackpoint>
            <Time>2021-08-31T09:38:44.000Z</Time>
            <Position>
              <LatitudeDegrees>42.02336154878139495849609375</LatitudeDegrees>
              <LongitudeDegrees>2.27347296662628650665283203125</LongitudeDegrees>
            </Position>
            <AltitudeMeters>546.4000244140625</AltitudeMeters>
            <DistanceMeters>38762.794206766</DistanceMeters>
          </Trackpoint>
          <Trackpoint>
            <Time>2021-08-31T09:38:48.000Z</Time>
            <Position>
              <LatitudeDegrees>42.0235219784080982208251953125</LatitudeDegrees>
              <LongitudeDegrees>2.2736267745494842529296875</LongitudeDegrees>
            </Position>
            <AltitudeMeters>548.4000244140625</AltitudeMeters>
            <DistanceMeters>38784.715945023</DistanceMeters>
          </Trackpoint>
          <Trackpoint>
            <Time>2021-08-31T09:38:49.000Z</Time>
            <Position>
              <LatitudeDegrees>42.0235638879239559173583984375</LatitudeDegrees>
              <LongitudeDegrees>2.27365518920123577117919921875</LongitudeDegrees>
            </Position>
            <AltitudeMeters>548.5999755859375</AltitudeMeters>
            <DistanceMeters>38789.93809313</DistanceMeters>
          </Trackpoint>
          <Trackpoint>
            <Time>2021-08-31T09:38:55.000Z</Time>
            <Position>
              <LatitudeDegrees>42.0238337852060794830322265625</LatitudeDegrees>
              <LongitudeDegrees>2.2738046385347843170166015625</LongitudeDegrees>
            </Position>
            <AltitudeMeters>549.79998779296875</AltitudeMeters>
            <DistanceMeters>38822.420414814</DistanceMeters>
          </Trackpoint>
          <Trackpoint>
            <Time>2021-08-31T09:38:57.000Z</Time>
            <Position>
              <LatitudeDegrees>42.02393579296767711639404296875</LatitudeDegrees>
              <LongitudeDegrees>2.27385233156383037567138671875</LongitudeDegrees>
            </Position>
            <AltitudeMeters>548.79998779296875</AltitudeMeters>
            <DistanceMeters>38834.439697777</DistanceMeters>
          </Trackpoint>
          <Trackpoint>
            <Time>2021-08-31T09:38:59.000Z</Time>
            <Position>
              <LatitudeDegrees>42.02404375188052654266357421875</LatitudeDegrees>
              <LongitudeDegrees>2.27386482059955596923828125</LongitudeDegrees>
            </Position>
            <AltitudeMeters>548.20001220703125</AltitudeMeters>
            <DistanceMeters>38846.500231404</DistanceMeters>
          </Trackpoint>
          <Trackpoint>
            <Time>2021-08-31T09:39:04.000Z</Time>
            <Position>
              <LatitudeDegrees>42.0243474282324314117431640625</LatitudeDegrees>
              <LongitudeDegrees>2.27381126023828983306884765625</LongitudeDegrees>
            </Position>
            <AltitudeMeters>547</AltitudeMeters>
            <DistanceMeters>38880.588739102</DistanceMeters>
          </Trackpoint>
          <Trackpoint>
            <Time>2021-08-31T09:39:06.000Z</Time>
            <Position>
              <LatitudeDegrees>42.02447734773159027099609375</LatitudeDegrees>
              <LongitudeDegrees>2.273792065680027008056640625</LongitudeDegrees>
            </Position>
            <AltitudeMeters>546.79998779296875</AltitudeMeters>
            <DistanceMeters>38895.13558795</DistanceMeters>
          </Trackpoint>
          <Trackpoint>
            <Time>2021-08-31T09:39:10.000Z</Time>
            <Position>
              <LatitudeDegrees>42.02473307959735393524169921875</LatitudeDegrees>
              <LongitudeDegrees>2.273733727633953094482421875</LongitudeDegrees>
            </Position>
            <AltitudeMeters>547.4000244140625</AltitudeMeters>
            <DistanceMeters>38924.004947753</DistanceMeters>
          </Trackpoint>
          <Trackpoint>
            <Time>2021-08-31T09:39:11.000Z</Time>
            <Position>
              <LatitudeDegrees>42.024796865880489349365234375</LatitudeDegrees>
              <LongitudeDegrees>2.2737233340740203857421875</LongitudeDegrees>
            </Position>
            <AltitudeMeters>547.4000244140625</AltitudeMeters>
            <DistanceMeters>38931.156615599</DistanceMeters>
          </Trackpoint>
          <Trackpoint>
            <Time>2021-08-31T09:39:15.000Z</Time>
            <Position>
              <LatitudeDegrees>42.02504890970885753631591796875</LatitudeDegrees>
              <LongitudeDegrees>2.2737375833094120025634765625</LongitudeDegrees>
            </Position>
            <AltitudeMeters>547.5999755859375</AltitudeMeters>
            <DistanceMeters>38959.234557546</DistanceMeters>
          </Trackpoint>
          <Trackpoint>
            <Time>2021-08-31T09:39:19.000Z</Time>
            <Position>
              <LatitudeDegrees>42.0252479799091815948486328125</LatitudeDegrees>
              <LongitudeDegrees>2.27376063354313373565673828125</LongitudeDegrees>
            </Position>
            <AltitudeMeters>548</AltitudeMeters>
            <DistanceMeters>38981.473245157</DistanceMeters>
          </Trackpoint>
          <Trackpoint>
            <Time>2021-08-31T09:39:21.000Z</Time>
            <Position>
              <LatitudeDegrees>42.0253653265535831451416015625</LatitudeDegrees>
              <LongitudeDegrees>2.27381997741758823394775390625</LongitudeDegrees>
            </Position>
            <AltitudeMeters>548.5999755859375</AltitudeMeters>
            <DistanceMeters>38995.4253546</DistanceMeters>
          </Trackpoint>
          <Trackpoint>
            <Time>2021-08-31T09:39:23.000Z</Time>
            <Position>
              <LatitudeDegrees>42.02549465931951999664306640625</LatitudeDegrees>
              <LongitudeDegrees>2.27391452528536319732666015625</LongitudeDegrees>
            </Position>
            <AltitudeMeters>548.5999755859375</AltitudeMeters>
            <DistanceMeters>39011.806372627</DistanceMeters>
          </Trackpoint>
          <Trackpoint>
            <Time>2021-08-31T09:39:25.000Z</Time>
            <Position>
              <LatitudeDegrees>42.0256219804286956787109375</LatitudeDegrees>
              <LongitudeDegrees>2.2739846818149089813232421875</LongitudeDegrees>
            </Position>
            <AltitudeMeters>548.79998779296875</AltitudeMeters>
            <DistanceMeters>39027.118653152</DistanceMeters>
          </Trackpoint>
          <Trackpoint>
            <Time>2021-08-31T09:39:27.000Z</Time>
            <Position>
              <LatitudeDegrees>42.02573790214955806732177734375</LatitudeDegrees>
              <LongitudeDegrees>2.27403120137751102447509765625</LongitudeDegrees>
            </Position>
            <AltitudeMeters>548.5999755859375</AltitudeMeters>
            <DistanceMeters>39040.58196346</DistanceMeters>
          </Trackpoint>
          <Trackpoint>
            <Time>2021-08-31T09:39:29.000Z</Time>
            <Position>
              <LatitudeDegrees>42.0258437655866146087646484375</LatitudeDegrees>
              <LongitudeDegrees>2.27404042147099971771240234375</LongitudeDegrees>
            </Position>
            <AltitudeMeters>548.20001220703125</AltitudeMeters>
            <DistanceMeters>39052.3897736</DistanceMeters>
          </Trackpoint>
          <Trackpoint>
            <Time>2021-08-31T09:39:31.000Z</Time>
            <Position>
              <LatitudeDegrees>42.0259443484246730804443359375</LatitudeDegrees>
              <LongitudeDegrees>2.27403002791106700897216796875</LongitudeDegrees>
            </Position>
            <AltitudeMeters>548</AltitudeMeters>
            <DistanceMeters>39063.618216382</DistanceMeters>
          </Trackpoint>
          <Trackpoint>
            <Time>2021-08-31T09:39:33.000Z</Time>
            <Position>
              <LatitudeDegrees>42.02606060542166233062744140625</LatitudeDegrees>
              <LongitudeDegrees>2.27400840260088443756103515625</LongitudeDegrees>
            </Position>
            <AltitudeMeters>548.4000244140625</AltitudeMeters>
            <DistanceMeters>39076.680501573</DistanceMeters>
          </Trackpoint>
          <Trackpoint>
            <Time>2021-08-31T09:39:35.000Z</Time>
            <Position>
              <LatitudeDegrees>42.026185579597949981689453125</LatitudeDegrees>
              <LongitudeDegrees>2.27397705428302288055419921875</LongitudeDegrees>
            </Position>
            <AltitudeMeters>548.20001220703125</AltitudeMeters>
            <DistanceMeters>39090.829593231</DistanceMeters>
          </Trackpoint>
          <Trackpoint>
            <Time>2021-08-31T09:39:38.000Z</Time>
            <Position>
              <LatitudeDegrees>42.02637073583900928497314453125</LatitudeDegrees>
              <LongitudeDegrees>2.2739172913134098052978515625</LongitudeDegrees>
            </Position>
            <AltitudeMeters>547.20001220703125</AltitudeMeters>
            <DistanceMeters>39112.022041934</DistanceMeters>
          </Trackpoint>
          <Trackpoint>
            <Time>2021-08-31T09:39:39.000Z</Time>
            <Position>
              <LatitudeDegrees>42.02643125317990779876708984375</LatitudeDegrees>
              <LongitudeDegrees>2.27389139123260974884033203125</LongitudeDegrees>
            </Position>
            <AltitudeMeters>547.20001220703125</AltitudeMeters>
            <DistanceMeters>39119.090522178</DistanceMeters>
          </Trackpoint>
          <Trackpoint>
            <Time>2021-08-31T09:39:40.000Z</Time>
            <Position>
              <LatitudeDegrees>42.02649436891078948974609375</LatitudeDegrees>
              <LongitudeDegrees>2.27388183586299419403076171875</LongitudeDegrees>
            </Position>
            <AltitudeMeters>547</AltitudeMeters>
            <DistanceMeters>39126.159641151</DistanceMeters>
          </Trackpoint>
          <Trackpoint>
            <Time>2021-08-31T09:39:42.000Z</Time>
            <Position>
              <LatitudeDegrees>42.02661716379225254058837890625</LatitudeDegrees>
              <LongitudeDegrees>2.27386758662760257720947265625</LongitudeDegrees>
            </Position>
            <AltitudeMeters>547</AltitudeMeters>
            <DistanceMeters>39139.877760303</DistanceMeters>
          </Trackpoint>
          <Trackpoint>
            <Time>2021-08-31T09:39:43.000Z</Time>
            <Position>
              <LatitudeDegrees>42.0266734063625335693359375</LatitudeDegrees>
              <LongitudeDegrees>2.27385400794446468353271484375</LongitudeDegrees>
            </Position>
            <AltitudeMeters>547</AltitudeMeters>
            <DistanceMeters>39146.238164573</DistanceMeters>
          </Trackpoint>
          <Trackpoint>
            <Time>2021-08-31T09:39:48.000Z</Time>
            <Position>
              <LatitudeDegrees>42.0269243605434894561767578125</LatitudeDegrees>
              <LongitudeDegrees>2.27383120916783809661865234375</LongitudeDegrees>
            </Position>
            <AltitudeMeters>546.5999755859375</AltitudeMeters>
            <DistanceMeters>39174.233170102</DistanceMeters>
          </Trackpoint>
          <Trackpoint>
            <Time>2021-08-31T09:39:53.000Z</Time>
            <Position>
              <LatitudeDegrees>42.027232982218265533447265625</LatitudeDegrees>
              <LongitudeDegrees>2.27379642426967620849609375</LongitudeDegrees>
            </Position>
            <AltitudeMeters>544</AltitudeMeters>
            <DistanceMeters>39208.703513133</DistanceMeters>
          </Trackpoint>
          <Trackpoint>
            <Time>2021-08-31T09:39:57.000Z</Time>
            <Position>
              <LatitudeDegrees>42.0274551026523113250732421875</LatitudeDegrees>
              <LongitudeDegrees>2.27379240095615386962890625</LongitudeDegrees>
            </Position>
            <AltitudeMeters>541.5999755859375</AltitudeMeters>
            <DistanceMeters>39233.428178653</DistanceMeters>
          </Trackpoint>
          <Trackpoint>
            <Time>2021-08-31T09:40:01.000Z</Time>
            <Position>
              <LatitudeDegrees>42.027652747929096221923828125</LatitudeDegrees>
              <LongitudeDegrees>2.27375543676316738128662109375</LongitudeDegrees>
            </Position>
            <AltitudeMeters>540.79998779296875</AltitudeMeters>
            <DistanceMeters>39255.637611236</DistanceMeters>
          </Trackpoint>
          <Trackpoint>
            <Time>2021-08-31T09:40:02.000Z</Time>
            <Position>
              <LatitudeDegrees>42.02770479954779148101806640625</LatitudeDegrees>
              <LongitudeDegrees>2.27374806068837642669677734375</LongitudeDegrees>
            </Position>
            <AltitudeMeters>540.5999755859375</AltitudeMeters>
            <DistanceMeters>39261.462989101</DistanceMeters>
          </Trackpoint>
          <Trackpoint>
            <Time>2021-08-31T09:40:06.000Z</Time>
            <Position>
              <LatitudeDegrees>42.02793094329535961151123046875</LatitudeDegrees>
              <LongitudeDegrees>2.27373699657618999481201171875</LongitudeDegrees>
            </Position>
            <AltitudeMeters>539.5999755859375</AltitudeMeters>
            <DistanceMeters>39286.649908928</DistanceMeters>
          </Trackpoint>
          <Trackpoint>
            <Time>2021-08-31T09:40:11.000Z</Time>
            <Position>
              <LatitudeDegrees>42.028256244957447052001953125</LatitudeDegrees>
              <LongitudeDegrees>2.27372123859822750091552734375</LongitudeDegrees>
            </Position>
            <AltitudeMeters>539.4000244140625</AltitudeMeters>
            <DistanceMeters>39322.880144534</DistanceMeters>
          </Trackpoint>
          <Trackpoint>
            <Time>2021-08-31T09:40:12.000Z</Time>
            <Position>
              <LatitudeDegrees>42.028315924108028411865234375</LatitudeDegrees>
              <LongitudeDegrees>2.2737045586109161376953125</LongitudeDegrees>
            </Position>
            <AltitudeMeters>539.4000244140625</AltitudeMeters>
            <DistanceMeters>39329.665078558</DistanceMeters>
          </Trackpoint>
          <Trackpoint>
            <Time>2021-08-31T09:40:16.000Z</Time>
            <Position>
              <LatitudeDegrees>42.02853108756244182586669921875</LatitudeDegrees>
              <LongitudeDegrees>2.273631133139133453369140625</LongitudeDegrees>
            </Position>
            <AltitudeMeters>539.79998779296875</AltitudeMeters>
            <DistanceMeters>39354.370562301</DistanceMeters>
          </Trackpoint>
          <Trackpoint>
            <Time>2021-08-31T09:40:17.000Z</Time>
            <Position>
              <LatitudeDegrees>42.02858389355242252349853515625</LatitudeDegrees>
              <LongitudeDegrees>2.273606322705745697021484375</LongitudeDegrees>
            </Position>
            <AltitudeMeters>540.20001220703125</AltitudeMeters>
            <DistanceMeters>39360.596081404</DistanceMeters>
          </Trackpoint>
          <Trackpoint>
            <Time>2021-08-31T09:40:23.000Z</Time>
            <Position>
              <LatitudeDegrees>42.02893517911434173583984375</LatitudeDegrees>
              <LongitudeDegrees>2.2735072486102581024169921875</LongitudeDegrees>
            </Position>
            <AltitudeMeters>543</AltitudeMeters>
            <DistanceMeters>39400.543598714</DistanceMeters>
          </Trackpoint>
          <Trackpoint>
            <Time>2021-08-31T09:40:27.000Z</Time>
            <Position>
              <LatitudeDegrees>42.02917532064020633697509765625</LatitudeDegrees>
              <LongitudeDegrees>2.2734685242176055908203125</LongitudeDegrees>
            </Position>
            <AltitudeMeters>543.79998779296875</AltitudeMeters>
            <DistanceMeters>39427.462840428</DistanceMeters>
          </Trackpoint>
          <Trackpoint>
            <Time>2021-08-31T09:40:28.000Z</Time>
            <Position>
              <LatitudeDegrees>42.0292246900498867034912109375</LatitudeDegrees>
              <LongitudeDegrees>2.27343524806201457977294921875</LongitudeDegrees>
            </Position>
            <AltitudeMeters>544.20001220703125</AltitudeMeters>
            <DistanceMeters>39433.608064565</DistanceMeters>
          </Trackpoint>
          <Trackpoint>
            <Time>2021-08-31T09:40:29.000Z</Time>
            <Position>
              <LatitudeDegrees>42.02926584519445896148681640625</LatitudeDegrees>
              <LongitudeDegrees>2.27338210679590702056884765625</LongitudeDegrees>
            </Position>
            <AltitudeMeters>544.79998779296875</AltitudeMeters>
            <DistanceMeters>39439.955678376</DistanceMeters>
          </Trackpoint>
          <Trackpoint>
            <Time>2021-08-31T09:40:31.000Z</Time>
            <Position>
              <LatitudeDegrees>42.02934027649462223052978515625</LatitudeDegrees>
              <LongitudeDegrees>2.27324564941227436065673828125</LongitudeDegrees>
            </Position>
            <AltitudeMeters>546</AltitudeMeters>
            <DistanceMeters>39453.952697292</DistanceMeters>
          </Trackpoint>
          <Trackpoint>
            <Time>2021-08-31T09:40:36.000Z</Time>
            <Position>
              <LatitudeDegrees>42.02952685765922069549560546875</LatitudeDegrees>
              <LongitudeDegrees>2.27294356562197208404541015625</LongitudeDegrees>
            </Position>
            <AltitudeMeters>546.5999755859375</AltitudeMeters>
            <DistanceMeters>39486.433628947</DistanceMeters>
          </Trackpoint>
          <Trackpoint>
            <Time>2021-08-31T09:40:39.000Z</Time>
            <Position>
              <LatitudeDegrees>42.02963045798242092132568359375</LatitudeDegrees>
              <LongitudeDegrees>2.27282403968274593353271484375</LongitudeDegrees>
            </Position>
            <AltitudeMeters>546.5999755859375</AltitudeMeters>
            <DistanceMeters>39501.619777975</DistanceMeters>
          </Trackpoint>
          <Trackpoint>
            <Time>2021-08-31T09:40:41.000Z</Time>
            <Position>
              <LatitudeDegrees>42.02964303083717823028564453125</LatitudeDegrees>
              <LongitudeDegrees>2.2727170027792453765869140625</LongitudeDegrees>
            </Position>
            <AltitudeMeters>546</AltitudeMeters>
            <DistanceMeters>39510.57903852</DistanceMeters>
          </Trackpoint>
          <Trackpoint>
            <Time>2021-08-31T09:40:45.000Z</Time>
            <Position>
              <LatitudeDegrees>42.0296525023877620697021484375</LatitudeDegrees>
              <LongitudeDegrees>2.27253402583301067352294921875</LongitudeDegrees>
            </Position>
            <AltitudeMeters>543.4000244140625</AltitudeMeters>
            <DistanceMeters>39525.742872684</DistanceMeters>
          </Trackpoint>
          <Trackpoint>
            <Time>2021-08-31T09:40:47.000Z</Time>
            <Position>
              <LatitudeDegrees>42.02971880324184894561767578125</LatitudeDegrees>
              <LongitudeDegrees>2.2725131548941135406494140625</LongitudeDegrees>
            </Position>
            <AltitudeMeters>543</AltitudeMeters>
            <DistanceMeters>39533.321215919</DistanceMeters>
          </Trackpoint>
          <Trackpoint>
            <Time>2021-08-31T09:40:48.000Z</Time>
            <Position>
              <LatitudeDegrees>42.029752247035503387451171875</LatitudeDegrees>
              <LongitudeDegrees>2.272528074681758880615234375</LongitudeDegrees>
            </Position>
            <AltitudeMeters>543.4000244140625</AltitudeMeters>
            <DistanceMeters>39537.241571784</DistanceMeters>
          </Trackpoint>
          <Trackpoint>
            <Time>2021-08-31T09:40:49.000Z</Time>
            <Position>
              <LatitudeDegrees>42.02977295033633708953857421875</LatitudeDegrees>
              <LongitudeDegrees>2.27254207246005535125732421875</LongitudeDegrees>
            </Position>
            <AltitudeMeters>543.5999755859375</AltitudeMeters>
            <DistanceMeters>39539.81958192</DistanceMeters>
          </Trackpoint>
          <Trackpoint>
            <Time>2021-08-31T09:40:51.000Z</Time>
            <Position>
              <LatitudeDegrees>42.02977512963116168975830078125</LatitudeDegrees>
              <LongitudeDegrees>2.27254777215421199798583984375</LongitudeDegrees>
            </Position>
            <AltitudeMeters>543.5999755859375</AltitudeMeters>
            <DistanceMeters>39540.357134193</DistanceMeters>
          </Trackpoint>
          <Trackpoint>
            <Time>2021-08-31T09:40:53.000Z</Time>
            <Position>
              <LatitudeDegrees>42.02977144159376621246337890625</LatitudeDegrees>
              <LongitudeDegrees>2.272540815174579620361328125</LongitudeDegrees>
            </Position>
            <AltitudeMeters>543.4000244140625</AltitudeMeters>
            <DistanceMeters>39541.05543508</DistanceMeters>
          </Trackpoint>
          <Trackpoint>
            <Time>2021-08-31T09:41:40.000Z</Time>
            <Position>
              <LatitudeDegrees>42.0298120938241481781005859375</LatitudeDegrees>
              <LongitudeDegrees>2.27261231280863285064697265625</LongitudeDegrees>
            </Position>
            <AltitudeMeters>544.5999755859375</AltitudeMeters>
            <DistanceMeters>39548.499126977</DistanceMeters>
          </Trackpoint>
          <Trackpoint>
            <Time>2021-08-31T09:41:41.000Z</Time>
            <Position>
              <LatitudeDegrees>42.029835395514965057373046875</LatitudeDegrees>
              <LongitudeDegrees>2.27264449931681156158447265625</LongitudeDegrees>
            </Position>
            <AltitudeMeters>545</AltitudeMeters>
            <DistanceMeters>39552.213687086</DistanceMeters>
          </Trackpoint>
          <Trackpoint>
            <Time>2021-08-31T09:41:43.000Z</Time>
            <Position>
              <LatitudeDegrees>42.02989884652197360992431640625</LatitudeDegrees>
              <LongitudeDegrees>2.272709123790264129638671875</LongitudeDegrees>
            </Position>
            <AltitudeMeters>545.79998779296875</AltitudeMeters>
            <DistanceMeters>39561.06903484</DistanceMeters>
          </Trackpoint>
          <Trackpoint>
            <Time>2021-08-31T09:41:45.000Z</Time>
            <Position>
              <LatitudeDegrees>42.0299939811229705810546875</LatitudeDegrees>
              <LongitudeDegrees>2.2727631032466888427734375</LongitudeDegrees>
            </Position>
            <AltitudeMeters>545.4000244140625</AltitudeMeters>
            <DistanceMeters>39572.559411147</DistanceMeters>
          </Trackpoint>
          <Trackpoint>
            <Time>2021-08-31T09:41:46.000Z</Time>
            <Position>
              <LatitudeDegrees>42.03005424700677394866943359375</LatitudeDegrees>
              <LongitudeDegrees>2.27279554121196269989013671875</LongitudeDegrees>
            </Position>
            <AltitudeMeters>545.20001220703125</AltitudeMeters>
            <DistanceMeters>39579.78394171</DistanceMeters>
          </Trackpoint>
          <Trackpoint>
            <Time>2021-08-31T09:41:49.000Z</Time>
            <Position>
              <LatitudeDegrees>42.03022800385951995849609375</LatitudeDegrees>
              <LongitudeDegrees>2.27293149568140506744384765625</LongitudeDegrees>
            </Position>
            <AltitudeMeters>544.5999755859375</AltitudeMeters>
            <DistanceMeters>39602.152390598</DistanceMeters>
          </Trackpoint>
          <Trackpoint>
            <Time>2021-08-31T09:41:52.000Z</Time>
            <Position>
              <LatitudeDegrees>42.03041416592895984649658203125</LatitudeDegrees>
              <LongitudeDegrees>2.27307616733014583587646484375</LongitudeDegrees>
            </Position>
            <AltitudeMeters>543.20001220703125</AltitudeMeters>
            <DistanceMeters>39626.076863957</DistanceMeters>
          </Trackpoint>
          <Trackpoint>
            <Time>2021-08-31T09:41:54.000Z</Time>
            <Position>
              <LatitudeDegrees>42.030547522008419036865234375</LatitudeDegrees>
              <LongitudeDegrees>2.2731374390423297882080078125</LongitudeDegrees>
            </Position>
            <AltitudeMeters>542.20001220703125</AltitudeMeters>
            <DistanceMeters>39641.760014858</DistanceMeters>
          </Trackpoint>
          <Trackpoint>
            <Time>2021-08-31T09:41:56.000Z</Time>
            <Position>
              <LatitudeDegrees>42.03067769296467304229736328125</LatitudeDegrees>
              <LongitudeDegrees>2.2731780074536800384521484375</LongitudeDegrees>
            </Position>
            <AltitudeMeters>541.4000244140625</AltitudeMeters>
            <DistanceMeters>39656.631619756</DistanceMeters>
          </Trackpoint>
          <Trackpoint>
            <Time>2021-08-31T09:41:59.000Z</Time>
            <Position>
              <LatitudeDegrees>42.03085790388286113739013671875</LatitudeDegrees>
              <LongitudeDegrees>2.2731914184987545013427734375</LongitudeDegrees>
            </Position>
            <AltitudeMeters>540.79998779296875</AltitudeMeters>
            <DistanceMeters>39676.720276164</DistanceMeters>
          </Trackpoint>
          <Trackpoint>
            <Time>2021-08-31T09:42:00.000Z</Time>
            <Position>
              <LatitudeDegrees>42.03091607429087162017822265625</LatitudeDegrees>
              <LongitudeDegrees>2.27318848483264446258544921875</LongitudeDegrees>
            </Position>
            <AltitudeMeters>540.5999755859375</AltitudeMeters>
            <DistanceMeters>39683.198840458</DistanceMeters>
          </Trackpoint>
          <Trackpoint>
            <Time>2021-08-31T09:42:02.000Z</Time>
            <Position>
              <LatitudeDegrees>42.0310375280678272247314453125</LatitudeDegrees>
              <LongitudeDegrees>2.2731468267738819122314453125</LongitudeDegrees>
            </Position>
            <AltitudeMeters>540.5999755859375</AltitudeMeters>
            <DistanceMeters>39697.148684449</DistanceMeters>
          </Trackpoint>
          <Trackpoint>
            <Time>2021-08-31T09:42:03.000Z</Time>
            <Position>
              <LatitudeDegrees>42.03109997324645519256591796875</LatitudeDegrees>
              <LongitudeDegrees>2.27312042377889156341552734375</LongitudeDegrees>
            </Position>
            <AltitudeMeters>541</AltitudeMeters>
            <DistanceMeters>39704.433583849</DistanceMeters>
          </Trackpoint>
          <Trackpoint>
            <Time>2021-08-31T09:42:07.000Z</Time>
            <Position>
              <LatitudeDegrees>42.03134623356163501739501953125</LatitudeDegrees>
              <LongitudeDegrees>2.2730757482349872589111328125</LongitudeDegrees>
            </Position>
            <AltitudeMeters>540.79998779296875</AltitudeMeters>
            <DistanceMeters>39732.090439333</DistanceMeters>
          </Trackpoint>
          <Trackpoint>
            <Time>2021-08-31T09:42:08.000Z</Time>
            <Position>
              <LatitudeDegrees>42.0314059965312480926513671875</LatitudeDegrees>
              <LongitudeDegrees>2.27308136411011219024658203125</LongitudeDegrees>
            </Position>
            <AltitudeMeters>540.5999755859375</AltitudeMeters>
            <DistanceMeters>39738.758579734</DistanceMeters>
          </Trackpoint>
          <Trackpoint>
            <Time>2021-08-31T09:42:10.000Z</Time>
            <Position>
              <LatitudeDegrees>42.03152057714760303497314453125</LatitudeDegrees>
              <LongitudeDegrees>2.2731002233922481536865234375</LongitudeDegrees>
            </Position>
            <AltitudeMeters>540.5999755859375</AltitudeMeters>
            <DistanceMeters>39751.605826024</DistanceMeters>
          </Trackpoint>
          <Trackpoint>
            <Time>2021-08-31T09:42:12.000Z</Time>
            <Position>
              <LatitudeDegrees>42.0316430367529392242431640625</LatitudeDegrees>
              <LongitudeDegrees>2.27306929416954517364501953125</LongitudeDegrees>
            </Position>
            <AltitudeMeters>540.4000244140625</AltitudeMeters>
            <DistanceMeters>39765.473541699</DistanceMeters>
          </Trackpoint>
          <Trackpoint>
            <Time>2021-08-31T09:42:14.000Z</Time>
            <Position>
              <LatitudeDegrees>42.0317479781806468963623046875</LatitudeDegrees>
              <LongitudeDegrees>2.27297022007405757904052734375</LongitudeDegrees>
            </Position>
            <AltitudeMeters>541</AltitudeMeters>
            <DistanceMeters>39779.739580493</DistanceMeters>
          </Trackpoint>
          <Trackpoint>
            <Time>2021-08-31T09:42:15.000Z</Time>
            <Position>
              <LatitudeDegrees>42.031791396439075469970703125</LatitudeDegrees>
              <LongitudeDegrees>2.2729077748954296112060546875</LongitudeDegrees>
            </Position>
            <AltitudeMeters>541</AltitudeMeters>
            <DistanceMeters>39786.811253799</DistanceMeters>
          </Trackpoint>
          <Trackpoint>
            <Time>2021-08-31T09:42:17.000Z</Time>
            <Position>
              <LatitudeDegrees>42.03188653104007244110107421875</LatitudeDegrees>
              <LongitudeDegrees>2.27278464473783969879150390625</LongitudeDegrees>
            </Position>
            <AltitudeMeters>541</AltitudeMeters>
            <DistanceMeters>39801.49956842</DistanceMeters>
          </Trackpoint>
          <Trackpoint>
            <Time>2021-08-31T09:42:19.000Z</Time>
            <Position>
              <LatitudeDegrees>42.03199214302003383636474609375</LatitudeDegrees>
              <LongitudeDegrees>2.27272932417690753936767578125</LongitudeDegrees>
            </Position>
            <AltitudeMeters>540.4000244140625</AltitudeMeters>
            <DistanceMeters>39814.112731655</DistanceMeters>
          </Trackpoint>
          <Trackpoint>
            <Time>2021-08-31T09:42:21.000Z</Time>
            <Position>
              <LatitudeDegrees>42.032098509371280670166015625</LatitudeDegrees>
              <LongitudeDegrees>2.27276151068508625030517578125</LongitudeDegrees>
            </Position>
            <AltitudeMeters>540.20001220703125</AltitudeMeters>
            <DistanceMeters>39826.24679101</DistanceMeters>
          </Trackpoint>
          <Trackpoint>
            <Time>2021-08-31T09:42:22.000Z</Time>
            <Position>
              <LatitudeDegrees>42.0321539975702762603759765625</LatitudeDegrees>
              <LongitudeDegrees>2.27276243269443511962890625</LongitudeDegrees>
            </Position>
            <AltitudeMeters>540</AltitudeMeters>
            <DistanceMeters>39832.423527444</DistanceMeters>
          </Trackpoint>
          <Trackpoint>
            <Time>2021-08-31T09:42:23.000Z</Time>
            <Position>
              <LatitudeDegrees>42.03221241943538188934326171875</LatitudeDegrees>
              <LongitudeDegrees>2.2727431543171405792236328125</LongitudeDegrees>
            </Position>
            <AltitudeMeters>539.5999755859375</AltitudeMeters>
            <DistanceMeters>39839.118697305</DistanceMeters>
          </Trackpoint>
          <Trackpoint>
            <Time>2021-08-31T09:42:26.000Z</Time>
            <Position>
              <LatitudeDegrees>42.03237419016659259796142578125</LatitudeDegrees>
              <LongitudeDegrees>2.2726844809949398040771484375</LongitudeDegrees>
            </Position>
            <AltitudeMeters>538.79998779296875</AltitudeMeters>
            <DistanceMeters>39857.766222173</DistanceMeters>
          </Trackpoint>
          <Trackpoint>
            <Time>2021-08-31T09:42:28.000Z</Time>
            <Position>
              <LatitudeDegrees>42.03248885460197925567626953125</LatitudeDegrees>
              <LongitudeDegrees>2.2726851515471935272216796875</LongitudeDegrees>
            </Position>
            <AltitudeMeters>538.79998779296875</AltitudeMeters>
            <DistanceMeters>39870.528844117</DistanceMeters>
          </Trackpoint>
          <Trackpoint>
            <Time>2021-08-31T09:42:30.000Z</Time>
            <Position>
              <LatitudeDegrees>42.0326341129839420318603515625</LatitudeDegrees>
              <LongitudeDegrees>2.2726988978683948516845703125</LongitudeDegrees>
            </Position>
            <AltitudeMeters>539</AltitudeMeters>
            <DistanceMeters>39886.736401729</DistanceMeters>
          </Trackpoint>
          <Trackpoint>
            <Time>2021-08-31T09:42:31.000Z</Time>
            <Position>
              <LatitudeDegrees>42.032701335847377777099609375</LatitudeDegrees>
              <LongitudeDegrees>2.27269546128809452056884765625</LongitudeDegrees>
            </Position>
            <AltitudeMeters>539.20001220703125</AltitudeMeters>
            <DistanceMeters>39894.223638507</DistanceMeters>
          </Trackpoint>
          <Trackpoint>
            <Time>2021-08-31T09:42:33.000Z</Time>
            <Position>
              <LatitudeDegrees>42.03281323425471782684326171875</LatitudeDegrees>
              <LongitudeDegrees>2.272627316415309906005859375</LongitudeDegrees>
            </Position>
            <AltitudeMeters>539.20001220703125</AltitudeMeters>
            <DistanceMeters>39907.893289997</DistanceMeters>
          </Trackpoint>
          <Trackpoint>
            <Time>2021-08-31T09:42:35.000Z</Time>
            <Position>
              <LatitudeDegrees>42.0329050160944461822509765625</LatitudeDegrees>
              <LongitudeDegrees>2.27253771387040615081787109375</LongitudeDegrees>
            </Position>
            <AltitudeMeters>538.79998779296875</AltitudeMeters>
            <DistanceMeters>39920.51146371</DistanceMeters>
          </Trackpoint>
          <Trackpoint>
            <Time>2021-08-31T09:42:37.000Z</Time>
            <Position>
              <LatitudeDegrees>42.033008448779582977294921875</LatitudeDegrees>
              <LongitudeDegrees>2.27248616516590118408203125</LongitudeDegrees>
            </Position>
            <AltitudeMeters>539.20001220703125</AltitudeMeters>
            <DistanceMeters>39932.787208726</DistanceMeters>
          </Trackpoint>
          <Trackpoint>
            <Time>2021-08-31T09:42:39.000Z</Time>
            <Position>
              <LatitudeDegrees>42.03311531804502010345458984375</LatitudeDegrees>
              <LongitudeDegrees>2.272490523755550384521484375</LongitudeDegrees>
            </Position>
            <AltitudeMeters>540.79998779296875</AltitudeMeters>
            <DistanceMeters>39944.68719439</DistanceMeters>
          </Trackpoint>
          <Trackpoint>
            <Time>2021-08-31T09:42:41.000Z</Time>
            <Position>
              <LatitudeDegrees>42.03319477848708629608154296875</LatitudeDegrees>
              <LongitudeDegrees>2.27248172275722026824951171875</LongitudeDegrees>
            </Position>
            <AltitudeMeters>541.79998779296875</AltitudeMeters>
            <DistanceMeters>39953.560878325</DistanceMeters>
          </Trackpoint>
          <Trackpoint>
            <Time>2021-08-31T09:42:43.000Z</Time>
            <Position>
              <LatitudeDegrees>42.03327239491045475006103515625</LatitudeDegrees>
              <LongitudeDegrees>2.27245389483869075775146484375</LongitudeDegrees>
            </Position>
            <AltitudeMeters>542.79998779296875</AltitudeMeters>
            <DistanceMeters>39962.500463133</DistanceMeters>
          </Trackpoint>
          <Trackpoint>
            <Time>2021-08-31T09:42:45.000Z</Time>
            <Position>
              <LatitudeDegrees>42.03336124308407306671142578125</LatitudeDegrees>
              <LongitudeDegrees>2.272406704723834991455078125</LongitudeDegrees>
            </Position>
            <AltitudeMeters>543.4000244140625</AltitudeMeters>
            <DistanceMeters>39973.131145458</DistanceMeters>
          </Trackpoint>
          <Trackpoint>
            <Time>2021-08-31T09:42:49.000Z</Time>
            <Position>
              <LatitudeDegrees>42.0335913263261318206787109375</LatitudeDegrees>
              <LongitudeDegrees>2.27236504666507244110107421875</LongitudeDegrees>
            </Position>
            <AltitudeMeters>545.79998779296875</AltitudeMeters>
            <DistanceMeters>39998.97037517</DistanceMeters>
          </Trackpoint>
          <Trackpoint>
            <Time>2021-08-31T09:42:50.000Z</Time>
            <Position>
              <LatitudeDegrees>42.03364874236285686492919921875</LatitudeDegrees>
              <LongitudeDegrees>2.27234610356390476226806640625</LongitudeDegrees>
            </Position>
            <AltitudeMeters>546.20001220703125</AltitudeMeters>
            <DistanceMeters>40005.549216739</DistanceMeters>
          </Trackpoint>
          <Trackpoint>
            <Time>2021-08-31T09:42:51.000Z</Time>
            <Position>
              <LatitudeDegrees>42.0337023027241230010986328125</LatitudeDegrees>
              <LongitudeDegrees>2.27232565172016620635986328125</LongitudeDegrees>
            </Position>
            <AltitudeMeters>546.4000244140625</AltitudeMeters>
            <DistanceMeters>40011.746386667</DistanceMeters>
          </Trackpoint>
          <Trackpoint>
            <Time>2021-08-31T09:42:54.000Z</Time>
            <Position>
              <LatitudeDegrees>42.0338375866413116455078125</LatitudeDegrees>
              <LongitudeDegrees>2.27227301336824893951416015625</LongitudeDegrees>
            </Position>
            <AltitudeMeters>546.20001220703125</AltitudeMeters>
            <DistanceMeters>40027.419746217</DistanceMeters>
          </Trackpoint>
          <Trackpoint>
            <Time>2021-08-31T09:42:57.000Z</Time>
            <Position>
              <LatitudeDegrees>42.033956944942474365234375</LatitudeDegrees>
              <LongitudeDegrees>2.272335626184940338134765625</LongitudeDegrees>
            </Position>
            <AltitudeMeters>546</AltitudeMeters>
            <DistanceMeters>40041.67723726</DistanceMeters>
          </Trackpoint>
          <Trackpoint>
            <Time>2021-08-31T09:42:58.000Z</Time>
            <Position>
              <LatitudeDegrees>42.03399784862995147705078125</LatitudeDegrees>
              <LongitudeDegrees>2.2723607718944549560546875</LongitudeDegrees>
            </Position>
            <AltitudeMeters>546</AltitudeMeters>
            <DistanceMeters>40046.681275827</DistanceMeters>
          </Trackpoint>
          <Trackpoint>
            <Time>2021-08-31T09:43:00.000Z</Time>
            <Position>
              <LatitudeDegrees>42.03408409841358661651611328125</LatitudeDegrees>
              <LongitudeDegrees>2.2723743505775928497314453125</LongitudeDegrees>
            </Position>
            <AltitudeMeters>546.4000244140625</AltitudeMeters>
            <DistanceMeters>40056.346945534</DistanceMeters>
          </Trackpoint>
          <Trackpoint>
            <Time>2021-08-31T09:43:01.000Z</Time>
            <Position>
              <LatitudeDegrees>42.0341274328529834747314453125</LatitudeDegrees>
              <LongitudeDegrees>2.27237560786306858062744140625</LongitudeDegrees>
            </Position>
            <AltitudeMeters>546.5999755859375</AltitudeMeters>
            <DistanceMeters>40061.170896922</DistanceMeters>
          </Trackpoint>
          <Trackpoint>
            <Time>2021-08-31T09:43:03.000Z</Time>
            <Position>
              <LatitudeDegrees>42.03420882113277912139892578125</LatitudeDegrees>
              <LongitudeDegrees>2.27238315157592296600341796875</LongitudeDegrees>
            </Position>
            <AltitudeMeters>547.20001220703125</AltitudeMeters>
            <DistanceMeters>40070.250797689</DistanceMeters>
          </Trackpoint>
          <Trackpoint>
            <Time>2021-08-31T09:43:05.000Z</Time>
            <Position>
              <LatitudeDegrees>42.03429632820188999176025390625</LatitudeDegrees>
              <LongitudeDegrees>2.27239287458360195159912109375</LongitudeDegrees>
            </Position>
            <AltitudeMeters>547.79998779296875</AltitudeMeters>
            <DistanceMeters>40080.024238671</DistanceMeters>
          </Trackpoint>
          <Trackpoint>
            <Time>2021-08-31T09:43:07.000Z</Time>
            <Position>
              <LatitudeDegrees>42.03439624048769474029541015625</LatitudeDegrees>
              <LongitudeDegrees>2.2723813913762569427490234375</LongitudeDegrees>
            </Position>
            <AltitudeMeters>548.79998779296875</AltitudeMeters>
            <DistanceMeters>40091.185327531</DistanceMeters>
          </Trackpoint>
          <Trackpoint>
            <Time>2021-08-31T09:43:11.000Z</Time>
            <Position>
              <LatitudeDegrees>42.03459472395479679107666015625</LatitudeDegrees>
              <LongitudeDegrees>2.27231450378894805908203125</LongitudeDegrees>
            </Position>
            <AltitudeMeters>551</AltitudeMeters>
            <DistanceMeters>40113.958455343</DistanceMeters>
          </Trackpoint>
          <Trackpoint>
            <Time>2021-08-31T09:43:13.000Z</Time>
            <Position>
              <LatitudeDegrees>42.0346891880035400390625</LatitudeDegrees>
              <LongitudeDegrees>2.27226010523736476898193359375</LongitudeDegrees>
            </Position>
            <AltitudeMeters>552</AltitudeMeters>
            <DistanceMeters>40125.394082438</DistanceMeters>
          </Trackpoint>
          <Trackpoint>
            <Time>2021-08-31T09:43:15.000Z</Time>
            <Position>
              <LatitudeDegrees>42.0347817242145538330078125</LatitudeDegrees>
              <LongitudeDegrees>2.27224367670714855194091796875</LongitudeDegrees>
            </Position>
            <AltitudeMeters>552.5999755859375</AltitudeMeters>
            <DistanceMeters>40135.782897272</DistanceMeters>
          </Trackpoint>
          <Trackpoint>
            <Time>2021-08-31T09:43:17.000Z</Time>
            <Position>
              <LatitudeDegrees>42.034869231283664703369140625</LatitudeDegrees>
              <LongitudeDegrees>2.2722687385976314544677734375</LongitudeDegrees>
            </Position>
            <AltitudeMeters>553.4000244140625</AltitudeMeters>
            <DistanceMeters>40145.740318593</DistanceMeters>
          </Trackpoint>
          <Trackpoint>
            <Time>2021-08-31T09:43:19.000Z</Time>
            <Position>
              <LatitudeDegrees>42.03495833091437816619873046875</LatitudeDegrees>
              <LongitudeDegrees>2.27225641719996929168701171875</LongitudeDegrees>
            </Position>
            <AltitudeMeters>554.20001220703125</AltitudeMeters>
            <DistanceMeters>40155.709522239</DistanceMeters>
          </Trackpoint>
          <Trackpoint>
            <Time>2021-08-31T09:43:21.000Z</Time>
            <Position>
              <LatitudeDegrees>42.035018093883991241455078125</LatitudeDegrees>
              <LongitudeDegrees>2.2722006775438785552978515625</LongitudeDegrees>
            </Position>
            <AltitudeMeters>554.79998779296875</AltitudeMeters>
            <DistanceMeters>40163.800755409</DistanceMeters>
          </Trackpoint>
          <Trackpoint>
            <Time>2021-08-31T09:43:24.000Z</Time>
            <Position>
              <LatitudeDegrees>42.0350853167474269866943359375</LatitudeDegrees>
              <LongitudeDegrees>2.272069416940212249755859375</LongitudeDegrees>
            </Position>
            <AltitudeMeters>555.20001220703125</AltitudeMeters>
            <DistanceMeters>40176.981066886</DistanceMeters>
          </Trackpoint>
          <Trackpoint>
            <Time>2021-08-31T09:43:25.000Z</Time>
            <Position>
              <LatitudeDegrees>42.03512127511203289031982421875</LatitudeDegrees>
              <LongitudeDegrees>2.2720310278236865997314453125</LongitudeDegrees>
            </Position>
            <AltitudeMeters>555.4000244140625</AltitudeMeters>
            <DistanceMeters>40182.08781348</DistanceMeters>
          </Trackpoint>
          <Trackpoint>
            <Time>2021-08-31T09:43:28.000Z</Time>
            <Position>
              <LatitudeDegrees>42.0352462492883205413818359375</LatitudeDegrees>
              <LongitudeDegrees>2.27190278470516204833984375</LongitudeDegrees>
            </Position>
            <AltitudeMeters>556.4000244140625</AltitudeMeters>
            <DistanceMeters>40199.576860032</DistanceMeters>
          </Trackpoint>
          <Trackpoint>
            <Time>2021-08-31T09:43:30.000Z</Time>
            <Position>
              <LatitudeDegrees>42.03533886931836605072021484375</LatitudeDegrees>
              <LongitudeDegrees>2.27183413691818714141845703125</LongitudeDegrees>
            </Position>
            <AltitudeMeters>557.79998779296875</AltitudeMeters>
            <DistanceMeters>40211.344068375</DistanceMeters>
          </Trackpoint>
          <Trackpoint>
            <Time>2021-08-31T09:43:32.000Z</Time>
            <Position>
              <LatitudeDegrees>42.03544481657445430755615234375</LatitudeDegrees>
              <LongitudeDegrees>2.2717845998704433441162109375</LongitudeDegrees>
            </Position>
            <AltitudeMeters>559.4000244140625</AltitudeMeters>
            <DistanceMeters>40223.826976655</DistanceMeters>
          </Trackpoint>
          <Trackpoint>
            <Time>2021-08-31T09:43:34.000Z</Time>
            <Position>
              <LatitudeDegrees>42.03555176965892314910888671875</LatitudeDegrees>
              <LongitudeDegrees>2.271726429462432861328125</LongitudeDegrees>
            </Position>
            <AltitudeMeters>561.20001220703125</AltitudeMeters>
            <DistanceMeters>40236.665785611</DistanceMeters>
          </Trackpoint>
          <Trackpoint>
            <Time>2021-08-31T09:43:37.000Z</Time>
            <Position>
              <LatitudeDegrees>42.03571169637143611907958984375</LatitudeDegrees>
              <LongitudeDegrees>2.27166566066443920135498046875</LongitudeDegrees>
            </Position>
            <AltitudeMeters>562.4000244140625</AltitudeMeters>
            <DistanceMeters>40255.161607193</DistanceMeters>
          </Trackpoint>
          <Trackpoint>
            <Time>2021-08-31T09:43:39.000Z</Time>
            <Position>
              <LatitudeDegrees>42.035805322229862213134765625</LatitudeDegrees>
              <LongitudeDegrees>2.271642275154590606689453125</LongitudeDegrees>
            </Position>
            <AltitudeMeters>562.5999755859375</AltitudeMeters>
            <DistanceMeters>40265.760387829</DistanceMeters>
          </Trackpoint>
          <Trackpoint>
            <Time>2021-08-31T09:43:41.000Z</Time>
            <Position>
              <LatitudeDegrees>42.0358889736235141754150390625</LatitudeDegrees>
              <LongitudeDegrees>2.27164051495492458343505859375</LongitudeDegrees>
            </Position>
            <AltitudeMeters>563</AltitudeMeters>
            <DistanceMeters>40275.072036126</DistanceMeters>
          </Trackpoint>
          <Trackpoint>
            <Time>2021-08-31T09:43:42.000Z</Time>
            <Position>
              <LatitudeDegrees>42.035936750471591949462890625</LatitudeDegrees>
              <LongitudeDegrees>2.27166180498898029327392578125</LongitudeDegrees>
            </Position>
            <AltitudeMeters>563.20001220703125</AltitudeMeters>
            <DistanceMeters>40280.674584272</DistanceMeters>
          </Trackpoint>
          <Trackpoint>
            <Time>2021-08-31T09:43:44.000Z</Time>
            <Position>
              <LatitudeDegrees>42.03604378737509250640869140625</LatitudeDegrees>
              <LongitudeDegrees>2.2717172093689441680908203125</LongitudeDegrees>
            </Position>
            <AltitudeMeters>563.20001220703125</AltitudeMeters>
            <DistanceMeters>40293.437913737</DistanceMeters>
          </Trackpoint>
          <Trackpoint>
            <Time>2021-08-31T09:43:46.000Z</Time>
            <Position>
              <LatitudeDegrees>42.036125846207141876220703125</LatitudeDegrees>
              <LongitudeDegrees>2.27181267924606800079345703125</LongitudeDegrees>
            </Position>
            <AltitudeMeters>563</AltitudeMeters>
            <DistanceMeters>40305.508925025</DistanceMeters>
          </Trackpoint>
          <Trackpoint>
            <Time>2021-08-31T09:43:49.000Z</Time>
            <Position>
              <LatitudeDegrees>42.03615342266857624053955078125</LatitudeDegrees>
              <LongitudeDegrees>2.2719649784266948699951171875</LongitudeDegrees>
            </Position>
            <AltitudeMeters>563.4000244140625</AltitudeMeters>
            <DistanceMeters>40318.467795794</DistanceMeters>
          </Trackpoint>
          <Trackpoint>
            <Time>2021-08-31T09:43:50.000Z</Time>
            <Position>
              <LatitudeDegrees>42.03615945763885974884033203125</LatitudeDegrees>
              <LongitudeDegrees>2.2720276750624179840087890625</LongitudeDegrees>
            </Position>
            <AltitudeMeters>563.5999755859375</AltitudeMeters>
            <DistanceMeters>40323.694265085</DistanceMeters>
          </Trackpoint>
          <Trackpoint>
            <Time>2021-08-31T09:43:51.000Z</Time>
            <Position>
              <LatitudeDegrees>42.0361722819507122039794921875</LatitudeDegrees>
              <LongitudeDegrees>2.27209464646875858306884765625</LongitudeDegrees>
            </Position>
            <AltitudeMeters>563.79998779296875</AltitudeMeters>
            <DistanceMeters>40329.411683797</DistanceMeters>
          </Trackpoint>
          <Trackpoint>
            <Time>2021-08-31T09:43:54.000Z</Time>
            <Position>
              <LatitudeDegrees>42.03626096248626708984375</LatitudeDegrees>
              <LongitudeDegrees>2.2722928784787654876708984375</LongitudeDegrees>
            </Position>
            <AltitudeMeters>564</AltitudeMeters>
            <DistanceMeters>40348.541578673</DistanceMeters>
          </Trackpoint>
          <Trackpoint>
            <Time>2021-08-31T09:43:55.000Z</Time>
            <Position>
              <LatitudeDegrees>42.03630278818309307098388671875</LatitudeDegrees>
              <LongitudeDegrees>2.2723565809428691864013671875</LongitudeDegrees>
            </Position>
            <AltitudeMeters>563.79998779296875</AltitudeMeters>
            <DistanceMeters>40355.569702046</DistanceMeters>
          </Trackpoint>
          <Trackpoint>
            <Time>2021-08-31T09:43:58.000Z</Time>
            <Position>
              <LatitudeDegrees>42.03643731772899627685546875</LatitudeDegrees>
              <LongitudeDegrees>2.2725185193121433258056640625</LongitudeDegrees>
            </Position>
            <AltitudeMeters>563.4000244140625</AltitudeMeters>
            <DistanceMeters>40375.654762042</DistanceMeters>
          </Trackpoint>
          <Trackpoint>
            <Time>2021-08-31T09:44:02.000Z</Time>
            <Position>
              <LatitudeDegrees>42.0365588553249835968017578125</LatitudeDegrees>
              <LongitudeDegrees>2.272794283926486968994140625</LongitudeDegrees>
            </Position>
            <AltitudeMeters>564.20001220703125</AltitudeMeters>
            <DistanceMeters>40402.162446557</DistanceMeters>
          </Trackpoint>
          <Trackpoint>
            <Time>2021-08-31T09:44:07.000Z</Time>
            <Position>
              <LatitudeDegrees>42.0366812311112880706787109375</LatitudeDegrees>
              <LongitudeDegrees>2.27310885675251483917236328125</LongitudeDegrees>
            </Position>
            <AltitudeMeters>565</AltitudeMeters>
            <DistanceMeters>40431.518012045</DistanceMeters>
          </Trackpoint>
          <Trackpoint>
            <Time>2021-08-31T09:44:09.000Z</Time>
            <Position>
              <LatitudeDegrees>42.03672909177839756011962890625</LatitudeDegrees>
              <LongitudeDegrees>2.2732135467231273651123046875</LongitudeDegrees>
            </Position>
            <AltitudeMeters>565</AltitudeMeters>
            <DistanceMeters>40441.680540485</DistanceMeters>
          </Trackpoint>
          <Trackpoint>
            <Time>2021-08-31T09:44:11.000Z</Time>
            <Position>
              <LatitudeDegrees>42.03680704347789287567138671875</LatitudeDegrees>
              <LongitudeDegrees>2.27329610846936702728271484375</LongitudeDegrees>
            </Position>
            <AltitudeMeters>565</AltitudeMeters>
            <DistanceMeters>40452.719602112</DistanceMeters>
          </Trackpoint>
          <Trackpoint>
            <Time>2021-08-31T09:44:13.000Z</Time>
            <Position>
              <LatitudeDegrees>42.03691877424716949462890625</LatitudeDegrees>
              <LongitudeDegrees>2.27334539406001567840576171875</LongitudeDegrees>
            </Position>
            <AltitudeMeters>564.79998779296875</AltitudeMeters>
            <DistanceMeters>40465.805715732</DistanceMeters>
          </Trackpoint>
          <Trackpoint>
            <Time>2021-08-31T09:44:14.000Z</Time>
            <Position>
              <LatitudeDegrees>42.03697132878005504608154296875</LatitudeDegrees>
              <LongitudeDegrees>2.2733831964433193206787109375</LongitudeDegrees>
            </Position>
            <AltitudeMeters>564.5999755859375</AltitudeMeters>
            <DistanceMeters>40472.437191607</DistanceMeters>
          </Trackpoint>
          <Trackpoint>
            <Time>2021-08-31T09:44:16.000Z</Time>
            <Position>
              <LatitudeDegrees>42.0370610989630222320556640625</LatitudeDegrees>
              <LongitudeDegrees>2.27347598411142826080322265625</LongitudeDegrees>
            </Position>
            <AltitudeMeters>564.20001220703125</AltitudeMeters>
            <DistanceMeters>40485.033160928</DistanceMeters>
          </Trackpoint>
          <Trackpoint>
            <Time>2021-08-31T09:44:18.000Z</Time>
            <Position>
              <LatitudeDegrees>42.03716662712395191192626953125</LatitudeDegrees>
              <LongitudeDegrees>2.27353901602327823638916015625</LongitudeDegrees>
            </Position>
            <AltitudeMeters>563.79998779296875</AltitudeMeters>
            <DistanceMeters>40497.881812902</DistanceMeters>
          </Trackpoint>
          <Trackpoint>
            <Time>2021-08-31T09:44:21.000Z</Time>
            <Position>
              <LatitudeDegrees>42.0373698882758617401123046875</LatitudeDegrees>
              <LongitudeDegrees>2.27365024387836456298828125</LongitudeDegrees>
            </Position>
            <AltitudeMeters>563.79998779296875</AltitudeMeters>
            <DistanceMeters>40522.302199435</DistanceMeters>
          </Trackpoint>
          <Trackpoint>
            <Time>2021-08-31T09:44:22.000Z</Time>
            <Position>
              <LatitudeDegrees>42.03743468038737773895263671875</LatitudeDegrees>
              <LongitudeDegrees>2.27369626052677631378173828125</LongitudeDegrees>
            </Position>
            <AltitudeMeters>563.5999755859375</AltitudeMeters>
            <DistanceMeters>40530.455690882</DistanceMeters>
          </Trackpoint>
          <Trackpoint>
            <Time>2021-08-31T09:44:23.000Z</Time>
            <Position>
              <LatitudeDegrees>42.03749922104179859161376953125</LatitudeDegrees>
              <LongitudeDegrees>2.273725010454654693603515625</LongitudeDegrees>
            </Position>
            <AltitudeMeters>563.4000244140625</AltitudeMeters>
            <DistanceMeters>40538.022109101</DistanceMeters>
          </Trackpoint>
          <Trackpoint>
            <Time>2021-08-31T09:44:25.000Z</Time>
            <Position>
              <LatitudeDegrees>42.037619836628437042236328125</LatitudeDegrees>
              <LongitudeDegrees>2.273689471185207366943359375</LongitudeDegrees>
            </Position>
            <AltitudeMeters>562.20001220703125</AltitudeMeters>
            <DistanceMeters>40551.764562257</DistanceMeters>
          </Trackpoint>
          <Trackpoint>
            <Time>2021-08-31T09:44:29.000Z</Time>
            <Position>
              <LatitudeDegrees>42.03784002922475337982177734375</LatitudeDegrees>
              <LongitudeDegrees>2.27346994914114475250244140625</LongitudeDegrees>
            </Position>
            <AltitudeMeters>559.4000244140625</AltitudeMeters>
            <DistanceMeters>40582.259403335</DistanceMeters>
          </Trackpoint>
          <Trackpoint>
            <Time>2021-08-31T09:44:33.000Z</Time>
            <Position>
              <LatitudeDegrees>42.0380957610905170440673828125</LatitudeDegrees>
              <LongitudeDegrees>2.27318295277655124664306640625</LongitudeDegrees>
            </Position>
            <AltitudeMeters>554.4000244140625</AltitudeMeters>
            <DistanceMeters>40619.313729982</DistanceMeters>
          </Trackpoint>
          <Trackpoint>
            <Time>2021-08-31T09:44:37.000Z</Time>
            <Position>
              <LatitudeDegrees>42.03840999864041805267333984375</LatitudeDegrees>
              <LongitudeDegrees>2.27292663417756557464599609375</LongitudeDegrees>
            </Position>
            <AltitudeMeters>552</AltitudeMeters>
            <DistanceMeters>40660.206365212</DistanceMeters>
          </Trackpoint>
          <Trackpoint>
            <Time>2021-08-31T09:44:38.000Z</Time>
            <Position>
              <LatitudeDegrees>42.03848158009350299835205078125</LatitudeDegrees>
              <LongitudeDegrees>2.27285874076187610626220703125</LongitudeDegrees>
            </Position>
            <AltitudeMeters>551.5999755859375</AltitudeMeters>
            <DistanceMeters>40669.95112195</DistanceMeters>
          </Trackpoint>
          <Trackpoint>
            <Time>2021-08-31T09:44:40.000Z</Time>
            <Position>
              <LatitudeDegrees>42.03859381377696990966796875</LatitudeDegrees>
              <LongitudeDegrees>2.2727170027792453765869140625</LongitudeDegrees>
            </Position>
            <AltitudeMeters>550.79998779296875</AltitudeMeters>
            <DistanceMeters>40687.077561833</DistanceMeters>
          </Trackpoint>
          <Trackpoint>
            <Time>2021-08-31T09:44:42.000Z</Time>
            <Position>
              <LatitudeDegrees>42.03865684568881988525390625</LatitudeDegrees>
              <LongitudeDegrees>2.27264030836522579193115234375</LongitudeDegrees>
            </Position>
            <AltitudeMeters>551</AltitudeMeters>
            <DistanceMeters>40696.533555538</DistanceMeters>
          </Trackpoint>
          <Trackpoint>
            <Time>2021-08-31T09:44:44.000Z</Time>
            <Position>
              <LatitudeDegrees>42.038688696920871734619140625</LatitudeDegrees>
              <LongitudeDegrees>2.27266964502632617950439453125</LongitudeDegrees>
            </Position>
            <AltitudeMeters>551.4000244140625</AltitudeMeters>
            <DistanceMeters>40700.829772042</DistanceMeters>
          </Trackpoint>
          <Trackpoint>
            <Time>2021-08-31T09:44:45.000Z</Time>
            <Position>
              <LatitudeDegrees>42.03869573771953582763671875</LatitudeDegrees>
              <LongitudeDegrees>2.2727163322269916534423828125</LongitudeDegrees>
            </Position>
            <AltitudeMeters>551.5999755859375</AltitudeMeters>
            <DistanceMeters>40704.768511857</DistanceMeters>
          </Trackpoint>
          <Trackpoint>
            <Time>2021-08-31T09:44:47.000Z</Time>
            <Position>
              <LatitudeDegrees>42.0387153513729572296142578125</LatitudeDegrees>
              <LongitudeDegrees>2.27284600026905536651611328125</LongitudeDegrees>
            </Position>
            <AltitudeMeters>552.5999755859375</AltitudeMeters>
            <DistanceMeters>40715.707733632</DistanceMeters>
          </Trackpoint>
          <Trackpoint>
            <Time>2021-08-31T09:44:48.000Z</Time>
            <Position>
              <LatitudeDegrees>42.03873194754123687744140625</LatitudeDegrees>
              <LongitudeDegrees>2.2729154862463474273681640625</LongitudeDegrees>
            </Position>
            <AltitudeMeters>553.20001220703125</AltitudeMeters>
            <DistanceMeters>40721.741742931</DistanceMeters>
          </Trackpoint>
          <Trackpoint>
            <Time>2021-08-31T09:44:55.000Z</Time>
            <Position>
              <LatitudeDegrees>42.03885423950850963592529296875</LatitudeDegrees>
              <LongitudeDegrees>2.27345578372478485107421875</LongitudeDegrees>
            </Position>
            <AltitudeMeters>556.4000244140625</AltitudeMeters>
            <DistanceMeters>40768.432459299</DistanceMeters>
          </Trackpoint>
          <Trackpoint>
            <Time>2021-08-31T09:44:59.000Z</Time>
            <Position>
              <LatitudeDegrees>42.0388729311525821685791015625</LatitudeDegrees>
              <LongitudeDegrees>2.27380447089672088623046875</LongitudeDegrees>
            </Position>
            <AltitudeMeters>558.5999755859375</AltitudeMeters>
            <DistanceMeters>40797.330894026</DistanceMeters>
          </Trackpoint>
          <Trackpoint>
            <Time>2021-08-31T09:45:00.000Z</Time>
            <Position>
              <LatitudeDegrees>42.03886899165809154510498046875</LatitudeDegrees>
              <LongitudeDegrees>2.2738881222903728485107421875</LongitudeDegrees>
            </Position>
            <AltitudeMeters>559</AltitudeMeters>
            <DistanceMeters>40804.260029358</DistanceMeters>
          </Trackpoint>
          <Trackpoint>
            <Time>2021-08-31T09:45:08.000Z</Time>
            <Position>
              <LatitudeDegrees>42.0388400740921497344970703125</LatitudeDegrees>
              <LongitudeDegrees>2.274579294025897979736328125</LongitudeDegrees>
            </Position>
            <AltitudeMeters>560.20001220703125</AltitudeMeters>
            <DistanceMeters>40861.484892677</DistanceMeters>
          </Trackpoint>
          <Trackpoint>
            <Time>2021-08-31T09:45:12.000Z</Time>
            <Position>
              <LatitudeDegrees>42.038732282817363739013671875</LatitudeDegrees>
              <LongitudeDegrees>2.2748986445367336273193359375</LongitudeDegrees>
            </Position>
            <AltitudeMeters>560.20001220703125</AltitudeMeters>
            <DistanceMeters>40890.481590383</DistanceMeters>
          </Trackpoint>
          <Trackpoint>
            <Time>2021-08-31T09:45:13.000Z</Time>
            <Position>
              <LatitudeDegrees>42.03870822675526142120361328125</LatitudeDegrees>
              <LongitudeDegrees>2.27497869171202182769775390625</LongitudeDegrees>
            </Position>
            <AltitudeMeters>559.79998779296875</AltitudeMeters>
            <DistanceMeters>40897.61935553</DistanceMeters>
          </Trackpoint>
          <Trackpoint>
            <Time>2021-08-31T09:45:15.000Z</Time>
            <Position>
              <LatitudeDegrees>42.03868341632187366485595703125</LatitudeDegrees>
              <LongitudeDegrees>2.275137864053249359130859375</LongitudeDegrees>
            </Position>
            <AltitudeMeters>558.5999755859375</AltitudeMeters>
            <DistanceMeters>40911.063872635</DistanceMeters>
          </Trackpoint>
          <Trackpoint>
            <Time>2021-08-31T09:45:16.000Z</Time>
            <Position>
              <LatitudeDegrees>42.03868391923606395721435546875</LatitudeDegrees>
              <LongitudeDegrees>2.2752154804766178131103515625</LongitudeDegrees>
            </Position>
            <AltitudeMeters>558</AltitudeMeters>
            <DistanceMeters>40917.480814943</DistanceMeters>
          </Trackpoint>
          <Trackpoint>
            <Time>2021-08-31T09:45:17.000Z</Time>
            <Position>
              <LatitudeDegrees>42.0386962406337261199951171875</LatitudeDegrees>
              <LongitudeDegrees>2.275276668369770050048828125</LongitudeDegrees>
            </Position>
            <AltitudeMeters>557.5999755859375</AltitudeMeters>
            <DistanceMeters>40922.721949605</DistanceMeters>
          </Trackpoint>
          <Trackpoint>
            <Time>2021-08-31T09:45:18.000Z</Time>
            <Position>
              <LatitudeDegrees>42.038725577294826507568359375</LatitudeDegrees>
              <LongitudeDegrees>2.27531296201050281524658203125</LongitudeDegrees>
            </Position>
            <AltitudeMeters>557.20001220703125</AltitudeMeters>
            <DistanceMeters>40927.156755857</DistanceMeters>
          </Trackpoint>
          <Trackpoint>
            <Time>2021-08-31T09:45:20.000Z</Time>
            <Position>
              <LatitudeDegrees>42.03880797140300273895263671875</LatitudeDegrees>
              <LongitudeDegrees>2.27527725510299205780029296875</LongitudeDegrees>
            </Position>
            <AltitudeMeters>557.20001220703125</AltitudeMeters>
            <DistanceMeters>40936.790608964</DistanceMeters>
          </Trackpoint>
          <Trackpoint>
            <Time>2021-08-31T09:45:21.000Z</Time>
            <Position>
              <LatitudeDegrees>42.038854993879795074462890625</LatitudeDegrees>
              <LongitudeDegrees>2.27525194175541400909423828125</LongitudeDegrees>
            </Position>
            <AltitudeMeters>557</AltitudeMeters>
            <DistanceMeters>40942.427703872</DistanceMeters>
          </Trackpoint>
          <Trackpoint>
            <Time>2021-08-31T09:45:23.000Z</Time>
            <Position>
              <LatitudeDegrees>42.03896203078329563140869140625</LatitudeDegrees>
              <LongitudeDegrees>2.275283373892307281494140625</LongitudeDegrees>
            </Position>
            <AltitudeMeters>556</AltitudeMeters>
            <DistanceMeters>40954.620782998</DistanceMeters>
          </Trackpoint>
          <Trackpoint>
            <Time>2021-08-31T09:45:27.000Z</Time>
            <Position>
              <LatitudeDegrees>42.03917006962001323699951171875</LatitudeDegrees>
              <LongitudeDegrees>2.275490574538707733154296875</LongitudeDegrees>
            </Position>
            <AltitudeMeters>553.5999755859375</AltitudeMeters>
            <DistanceMeters>40983.422187171</DistanceMeters>
          </Trackpoint>
          <Trackpoint>
            <Time>2021-08-31T09:45:28.000Z</Time>
            <Position>
              <LatitudeDegrees>42.0392165891826152801513671875</LatitudeDegrees>
              <LongitudeDegrees>2.27552066557109355926513671875</LongitudeDegrees>
            </Position>
            <AltitudeMeters>553.4000244140625</AltitudeMeters>
            <DistanceMeters>40989.166392888</DistanceMeters>
          </Trackpoint>
          <Trackpoint>
            <Time>2021-08-31T09:45:30.000Z</Time>
            <Position>
              <LatitudeDegrees>42.03928573988378047943115234375</LatitudeDegrees>
              <LongitudeDegrees>2.27551965974271297454833984375</LongitudeDegrees>
            </Position>
            <AltitudeMeters>553.20001220703125</AltitudeMeters>
            <DistanceMeters>40996.862970145</DistanceMeters>
          </Trackpoint>
          <Trackpoint>
            <Time>2021-08-31T09:45:32.000Z</Time>
            <Position>
              <LatitudeDegrees>42.0393188484013080596923828125</LatitudeDegrees>
              <LongitudeDegrees>2.2754944302141666412353515625</LongitudeDegrees>
            </Position>
            <AltitudeMeters>553</AltitudeMeters>
            <DistanceMeters>41001.097793851</DistanceMeters>
          </Trackpoint>
          <Trackpoint>
            <Time>2021-08-31T09:45:33.000Z</Time>
            <Position>
              <LatitudeDegrees>42.03933401964604854583740234375</LatitudeDegrees>
              <LongitudeDegrees>2.2754588909447193145751953125</LongitudeDegrees>
            </Position>
            <AltitudeMeters>552.79998779296875</AltitudeMeters>
            <DistanceMeters>41004.486931977</DistanceMeters>
          </Trackpoint>
          <Trackpoint>
            <Time>2021-08-31T09:45:38.000Z</Time>
            <Position>
              <LatitudeDegrees>42.03943342901766300201416015625</LatitudeDegrees>
              <LongitudeDegrees>2.27522201836109161376953125</LongitudeDegrees>
            </Position>
            <AltitudeMeters>551.79998779296875</AltitudeMeters>
            <DistanceMeters>41026.977368433</DistanceMeters>
          </Trackpoint>
          <Trackpoint>
            <Time>2021-08-31T09:45:43.000Z</Time>
            <Position>
              <LatitudeDegrees>42.0396034978330135345458984375</LatitudeDegrees>
              <LongitudeDegrees>2.27491700090467929840087890625</LongitudeDegrees>
            </Position>
            <AltitudeMeters>549</AltitudeMeters>
            <DistanceMeters>41058.505622666</DistanceMeters>
          </Trackpoint>
          <Trackpoint>
            <Time>2021-08-31T09:45:50.000Z</Time>
            <Position>
              <LatitudeDegrees>42.039856798946857452392578125</LatitudeDegrees>
              <LongitudeDegrees>2.27439665235579013824462890625</LongitudeDegrees>
            </Position>
            <AltitudeMeters>549</AltitudeMeters>
            <DistanceMeters>41109.934831982</DistanceMeters>
          </Trackpoint>
          <Trackpoint>
            <Time>2021-08-31T09:45:53.000Z</Time>
            <Position>
              <LatitudeDegrees>42.03996852971613407135009765625</LatitudeDegrees>
              <LongitudeDegrees>2.2741908766329288482666015625</LongitudeDegrees>
            </Position>
            <AltitudeMeters>549.5999755859375</AltitudeMeters>
            <DistanceMeters>41131.005921147</DistanceMeters>
          </Trackpoint>
          <Trackpoint>
            <Time>2021-08-31T09:45:54.000Z</Time>
            <Position>
              <LatitudeDegrees>42.04000960104167461395263671875</LatitudeDegrees>
              <LongitudeDegrees>2.27416262961924076080322265625</LongitudeDegrees>
            </Position>
            <AltitudeMeters>549.5999755859375</AltitudeMeters>
            <DistanceMeters>41136.139123176</DistanceMeters>
          </Trackpoint>
          <Trackpoint>
            <Time>2021-08-31T09:45:55.000Z</Time>
            <Position>
              <LatitudeDegrees>42.0400469005107879638671875</LatitudeDegrees>
              <LongitudeDegrees>2.27416514419019222259521484375</LongitudeDegrees>
            </Position>
            <AltitudeMeters>549.4000244140625</AltitudeMeters>
            <DistanceMeters>41140.296474052</DistanceMeters>
          </Trackpoint>
          <Trackpoint>
            <Time>2021-08-31T09:45:56.000Z</Time>
            <Position>
              <LatitudeDegrees>42.04007598571479320526123046875</LatitudeDegrees>
              <LongitudeDegrees>2.274193726480007171630859375</LongitudeDegrees>
            </Position>
            <AltitudeMeters>549.20001220703125</AltitudeMeters>
            <DistanceMeters>41144.303402542</DistanceMeters>
          </Trackpoint>
          <Trackpoint>
            <Time>2021-08-31T09:45:59.000Z</Time>
            <Position>
              <LatitudeDegrees>42.04012409783899784088134765625</LatitudeDegrees>
              <LongitudeDegrees>2.27431140840053558349609375</LongitudeDegrees>
            </Position>
            <AltitudeMeters>549</AltitudeMeters>
            <DistanceMeters>41155.407712238</DistanceMeters>
          </Trackpoint>
          <Trackpoint>
            <Time>2021-08-31T09:46:00.000Z</Time>
            <Position>
              <LatitudeDegrees>42.04011353664100170135498046875</LatitudeDegrees>
              <LongitudeDegrees>2.27434317581355571746826171875</LongitudeDegrees>
            </Position>
            <AltitudeMeters>549.20001220703125</AltitudeMeters>
            <DistanceMeters>41158.283742493</DistanceMeters>
          </Trackpoint>
          <Trackpoint>
            <Time>2021-08-31T09:46:04.000Z</Time>
            <Position>
              <LatitudeDegrees>42.04002804122865200042724609375</LatitudeDegrees>
              <LongitudeDegrees>2.2744544036686420440673828125</LongitudeDegrees>
            </Position>
            <AltitudeMeters>549</AltitudeMeters>
            <DistanceMeters>41171.515679319</DistanceMeters>
          </Trackpoint>
          <Trackpoint>
            <Time>2021-08-31T09:46:08.000Z</Time>
            <Position>
              <LatitudeDegrees>42.03989778645336627960205078125</LatitudeDegrees>
              <LongitudeDegrees>2.27450813166797161102294921875</LongitudeDegrees>
            </Position>
            <AltitudeMeters>549</AltitudeMeters>
            <DistanceMeters>41186.678024658</DistanceMeters>
          </Trackpoint>
          <Trackpoint>
            <Time>2021-08-31T09:46:09.000Z</Time>
            <Position>
              <LatitudeDegrees>42.0398640073835849761962890625</LatitudeDegrees>
              <LongitudeDegrees>2.27451584301888942718505859375</LongitudeDegrees>
            </Position>
            <AltitudeMeters>549</AltitudeMeters>
            <DistanceMeters>41190.49095307</DistanceMeters>
          </Trackpoint>
          <Trackpoint>
            <Time>2021-08-31T09:46:11.000Z</Time>
            <Position>
              <LatitudeDegrees>42.0397832058370113372802734375</LatitudeDegrees>
              <LongitudeDegrees>2.27452741004526615142822265625</LongitudeDegrees>
            </Position>
            <AltitudeMeters>549.4000244140625</AltitudeMeters>
            <DistanceMeters>41199.534481273</DistanceMeters>
          </Trackpoint>
          <Trackpoint>
            <Time>2021-08-31T09:46:15.000Z</Time>
            <Position>
              <LatitudeDegrees>42.03971765935420989990234375</LatitudeDegrees>
              <LongitudeDegrees>2.27460645139217376708984375</LongitudeDegrees>
            </Position>
            <AltitudeMeters>549.20001220703125</AltitudeMeters>
            <DistanceMeters>41209.328227848</DistanceMeters>
          </Trackpoint>
          <Trackpoint>
            <Time>2021-08-31T09:46:16.000Z</Time>
            <Position>
              <LatitudeDegrees>42.0397050864994525909423828125</LatitudeDegrees>
              <LongitudeDegrees>2.2746299207210540771484375</LongitudeDegrees>
            </Position>
            <AltitudeMeters>549.20001220703125</AltitudeMeters>
            <DistanceMeters>41211.720939378</DistanceMeters>
          </Trackpoint>
          <Trackpoint>
            <Time>2021-08-31T09:53:44.000Z</Time>
            <Position>
              <LatitudeDegrees>42.03975093550980091094970703125</LatitudeDegrees>
              <LongitudeDegrees>2.2748352773487567901611328125</LongitudeDegrees>
            </Position>
            <AltitudeMeters>549</AltitudeMeters>
            <DistanceMeters>41229.446414824</DistanceMeters>
          </Trackpoint>
          <Trackpoint>
            <Time>2021-08-31T09:53:45.000Z</Time>
            <Position>
              <LatitudeDegrees>42.0397570542991161346435546875</LatitudeDegrees>
              <LongitudeDegrees>2.27469655685126781463623046875</LongitudeDegrees>
            </Position>
            <AltitudeMeters>549</AltitudeMeters>
            <DistanceMeters>41240.93325412</DistanceMeters>
          </Trackpoint>
          <Trackpoint>
            <Time>2021-08-31T09:53:47.000Z</Time>
            <Position>
              <LatitudeDegrees>42.03986006788909435272216796875</LatitudeDegrees>
              <LongitudeDegrees>2.27455146610736846923828125</LongitudeDegrees>
            </Position>
            <AltitudeMeters>549</AltitudeMeters>
            <DistanceMeters>41257.525147034</DistanceMeters>
          </Trackpoint>
          <Trackpoint>
            <Time>2021-08-31T09:53:49.000Z</Time>
            <Position>
              <LatitudeDegrees>42.03996584750711917877197265625</LatitudeDegrees>
              <LongitudeDegrees>2.27441961877048015594482421875</LongitudeDegrees>
            </Position>
            <AltitudeMeters>549</AltitudeMeters>
            <DistanceMeters>41273.568628544</DistanceMeters>
          </Trackpoint>
          <Trackpoint>
            <Time>2021-08-31T09:53:55.000Z</Time>
            <Position>
              <LatitudeDegrees>42.040220908820629119873046875</LatitudeDegrees>
              <LongitudeDegrees>2.273961715400218963623046875</LongitudeDegrees>
            </Position>
            <AltitudeMeters>549</AltitudeMeters>
            <DistanceMeters>41320.882772212</DistanceMeters>
          </Trackpoint>
          <Trackpoint>
            <Time>2021-08-31T09:54:02.000Z</Time>
            <Position>
              <LatitudeDegrees>42.04053916968405246734619140625</LatitudeDegrees>
              <LongitudeDegrees>2.27335444651544094085693359375</LongitudeDegrees>
            </Position>
            <AltitudeMeters>546.79998779296875</AltitudeMeters>
            <DistanceMeters>41382.320390848</DistanceMeters>
          </Trackpoint>
          <Trackpoint>
            <Time>2021-08-31T09:54:03.000Z</Time>
            <Position>
              <LatitudeDegrees>42.04065634869039058685302734375</LatitudeDegrees>
              <LongitudeDegrees>2.27319720201194286346435546875</LongitudeDegrees>
            </Position>
            <AltitudeMeters>545.5999755859375</AltitudeMeters>
            <DistanceMeters>41400.733517964</DistanceMeters>
          </Trackpoint>
          <Trackpoint>
            <Time>2021-08-31T09:54:06.000Z</Time>
            <Position>
              <LatitudeDegrees>42.0409261621534824371337890625</LatitudeDegrees>
              <LongitudeDegrees>2.2729667834937572479248046875</LongitudeDegrees>
            </Position>
            <AltitudeMeters>546</AltitudeMeters>
            <DistanceMeters>41436.295099561</DistanceMeters>
          </Trackpoint>
          <Trackpoint>
            <Time>2021-08-31T09:54:08.000Z</Time>
            <Position>
              <LatitudeDegrees>42.041006125509738922119140625</LatitudeDegrees>
              <LongitudeDegrees>2.27279730141162872314453125</LongitudeDegrees>
            </Position>
            <AltitudeMeters>546</AltitudeMeters>
            <DistanceMeters>41452.892706077</DistanceMeters>
          </Trackpoint>
          <Trackpoint>
            <Time>2021-08-31T09:54:10.000Z</Time>
            <Position>
              <LatitudeDegrees>42.0410485379397869110107421875</LatitudeDegrees>
              <LongitudeDegrees>2.2726335190236568450927734375</LongitudeDegrees>
            </Position>
            <AltitudeMeters>545.4000244140625</AltitudeMeters>
            <DistanceMeters>41467.230407784</DistanceMeters>
          </Trackpoint>
          <Trackpoint>
            <Time>2021-08-31T09:54:12.000Z</Time>
            <Position>
              <LatitudeDegrees>42.0411219634115695953369140625</LatitudeDegrees>
              <LongitudeDegrees>2.2724823094904422760009765625</LongitudeDegrees>
            </Position>
            <AltitudeMeters>545</AltitudeMeters>
            <DistanceMeters>41482.164423588</DistanceMeters>
          </Trackpoint>
          <Trackpoint>
            <Time>2021-08-31T09:54:19.000Z</Time>
            <Position>
              <LatitudeDegrees>42.0414092950522899627685546875</LatitudeDegrees>
              <LongitudeDegrees>2.271972857415676116943359375</LongitudeDegrees>
            </Position>
            <AltitudeMeters>542.79998779296875</AltitudeMeters>
            <DistanceMeters>41535.042670442</DistanceMeters>
          </Trackpoint>
          <Trackpoint>
            <Time>2021-08-31T09:54:26.000Z</Time>
            <Position>
              <LatitudeDegrees>42.04173241741955280303955078125</LatitudeDegrees>
              <LongitudeDegrees>2.27154982276260852813720703125</LongitudeDegrees>
            </Position>
            <AltitudeMeters>542</AltitudeMeters>
            <DistanceMeters>41585.204175809</DistanceMeters>
          </Trackpoint>
          <Trackpoint>
            <Time>2021-08-31T09:54:31.000Z</Time>
            <Position>
              <LatitudeDegrees>42.04200197942554950714111328125</LatitudeDegrees>
              <LongitudeDegrees>2.2712256945669651031494140625</LongitudeDegrees>
            </Position>
            <AltitudeMeters>541</AltitudeMeters>
            <DistanceMeters>41625.428322873</DistanceMeters>
          </Trackpoint>
          <Trackpoint>
            <Time>2021-08-31T09:54:38.000Z</Time>
            <Position>
              <LatitudeDegrees>42.04241654835641384124755859375</LatitudeDegrees>
              <LongitudeDegrees>2.2707251273095607757568359375</LongitudeDegrees>
            </Position>
            <AltitudeMeters>539.5999755859375</AltitudeMeters>
            <DistanceMeters>41687.404976194</DistanceMeters>
          </Trackpoint>
          <Trackpoint>
            <Time>2021-08-31T09:54:45.000Z</Time>
            <Position>
              <LatitudeDegrees>42.0428533293306827545166015625</LatitudeDegrees>
              <LongitudeDegrees>2.270200587809085845947265625</LongitudeDegrees>
            </Position>
            <AltitudeMeters>535</AltitudeMeters>
            <DistanceMeters>41752.545147756</DistanceMeters>
          </Trackpoint>
          <Trackpoint>
            <Time>2021-08-31T09:54:50.000Z</Time>
            <Position>
              <LatitudeDegrees>42.04314879141747951507568359375</LatitudeDegrees>
              <LongitudeDegrees>2.26984125562012195587158203125</LongitudeDegrees>
            </Position>
            <AltitudeMeters>532.5999755859375</AltitudeMeters>
            <DistanceMeters>41796.857970313</DistanceMeters>
          </Trackpoint>
          <Trackpoint>
            <Time>2021-08-31T09:54:55.000Z</Time>
            <Position>
              <LatitudeDegrees>42.04335347749292850494384765625</LatitudeDegrees>
              <LongitudeDegrees>2.26961259730160236358642578125</LongitudeDegrees>
            </Position>
            <AltitudeMeters>530.79998779296875</AltitudeMeters>
            <DistanceMeters>41826.459211297</DistanceMeters>
          </Trackpoint>
          <Trackpoint>
            <Time>2021-08-31T09:55:00.000Z</Time>
            <Position>
              <LatitudeDegrees>42.04354458488523960113525390625</LatitudeDegrees>
              <LongitudeDegrees>2.2694041393697261810302734375</LongitudeDegrees>
            </Position>
            <AltitudeMeters>528.5999755859375</AltitudeMeters>
            <DistanceMeters>41853.833173441</DistanceMeters>
          </Trackpoint>
          <Trackpoint>
            <Time>2021-08-31T09:55:06.000Z</Time>
            <Position>
              <LatitudeDegrees>42.04385203309357166290283203125</LatitudeDegrees>
              <LongitudeDegrees>2.26900541223585605621337890625</LongitudeDegrees>
            </Position>
            <AltitudeMeters>526.5999755859375</AltitudeMeters>
            <DistanceMeters>41901.342919474</DistanceMeters>
          </Trackpoint>
          <Trackpoint>
            <Time>2021-08-31T09:55:12.000Z</Time>
            <Position>
              <LatitudeDegrees>42.0442058332264423370361328125</LatitudeDegrees>
              <LongitudeDegrees>2.2685750015079975128173828125</LongitudeDegrees>
            </Position>
            <AltitudeMeters>527.20001220703125</AltitudeMeters>
            <DistanceMeters>41954.412085301</DistanceMeters>
          </Trackpoint>
          <Trackpoint>
            <Time>2021-08-31T09:55:13.000Z</Time>
            <Position>
              <LatitudeDegrees>42.044267356395721435546875</LatitudeDegrees>
              <LongitudeDegrees>2.268506772816181182861328125</LongitudeDegrees>
            </Position>
            <AltitudeMeters>527</AltitudeMeters>
            <DistanceMeters>41963.282715839</DistanceMeters>
          </Trackpoint>
          <Trackpoint>
            <Time>2021-08-31T09:55:20.000Z</Time>
            <Position>
              <LatitudeDegrees>42.04472861252725124359130859375</LatitudeDegrees>
              <LongitudeDegrees>2.2679654695093631744384765625</LongitudeDegrees>
            </Position>
            <AltitudeMeters>522.4000244140625</AltitudeMeters>
            <DistanceMeters>42031.381739536</DistanceMeters>
          </Trackpoint>
          <Trackpoint>
            <Time>2021-08-31T09:55:21.000Z</Time>
            <Position>
              <LatitudeDegrees>42.04480388201773166656494140625</LatitudeDegrees>
              <LongitudeDegrees>2.26788827218115329742431640625</LongitudeDegrees>
            </Position>
            <AltitudeMeters>521.79998779296875</AltitudeMeters>
            <DistanceMeters>42041.912997718</DistanceMeters>
          </Trackpoint>
          <Trackpoint>
            <Time>2021-08-31T09:55:25.000Z</Time>
            <Position>
              <LatitudeDegrees>42.04509875737130641937255859375</LatitudeDegrees>
              <LongitudeDegrees>2.267602197825908660888671875</LongitudeDegrees>
            </Position>
            <AltitudeMeters>520.79998779296875</AltitudeMeters>
            <DistanceMeters>42082.363917879</DistanceMeters>
          </Trackpoint>
          <Trackpoint>
            <Time>2021-08-31T09:55:26.000Z</Time>
            <Position>
              <LatitudeDegrees>42.04518534243106842041015625</LatitudeDegrees>
              <LongitudeDegrees>2.26759339682757854461669921875</LongitudeDegrees>
            </Position>
            <AltitudeMeters>520.5999755859375</AltitudeMeters>
            <DistanceMeters>42092.027718921</DistanceMeters>
          </Trackpoint>
          <Trackpoint>
            <Time>2021-08-31T09:55:29.000Z</Time>
            <Position>
              <LatitudeDegrees>42.0454574190080165863037109375</LatitudeDegrees>
              <LongitudeDegrees>2.26763916201889514923095703125</LongitudeDegrees>
            </Position>
            <AltitudeMeters>520.5999755859375</AltitudeMeters>
            <DistanceMeters>42122.545648475</DistanceMeters>
          </Trackpoint>
          <Trackpoint>
            <Time>2021-08-31T09:55:30.000Z</Time>
            <Position>
              <LatitudeDegrees>42.04554568044841289520263671875</LatitudeDegrees>
              <LongitudeDegrees>2.26762893609702587127685546875</LongitudeDegrees>
            </Position>
            <AltitudeMeters>520.79998779296875</AltitudeMeters>
            <DistanceMeters>42132.405557349</DistanceMeters>
          </Trackpoint>
          <Trackpoint>
            <Time>2021-08-31T09:55:35.000Z</Time>
            <Position>
              <LatitudeDegrees>42.045948766171932220458984375</LatitudeDegrees>
              <LongitudeDegrees>2.2674940712749958038330078125</LongitudeDegrees>
            </Position>
            <AltitudeMeters>521.20001220703125</AltitudeMeters>
            <DistanceMeters>42178.633880823</DistanceMeters>
          </Trackpoint>
          <Trackpoint>
            <Time>2021-08-31T09:55:41.000Z</Time>
            <Position>
              <LatitudeDegrees>42.0464012213051319122314453125</LatitudeDegrees>
              <LongitudeDegrees>2.267263233661651611328125</LongitudeDegrees>
            </Position>
            <AltitudeMeters>520.79998779296875</AltitudeMeters>
            <DistanceMeters>42232.486115971</DistanceMeters>
          </Trackpoint>
          <Trackpoint>
            <Time>2021-08-31T09:55:46.000Z</Time>
            <Position>
              <LatitudeDegrees>42.0467867888510227203369140625</LatitudeDegrees>
              <LongitudeDegrees>2.26695905439555644989013671875</LongitudeDegrees>
            </Position>
            <AltitudeMeters>518.4000244140625</AltitudeMeters>
            <DistanceMeters>42282.222775101</DistanceMeters>
          </Trackpoint>
          <Trackpoint>
            <Time>2021-08-31T09:55:52.000Z</Time>
            <Position>
              <LatitudeDegrees>42.04723614268004894256591796875</LatitudeDegrees>
              <LongitudeDegrees>2.2665043361485004425048828125</LongitudeDegrees>
            </Position>
            <AltitudeMeters>516</AltitudeMeters>
            <DistanceMeters>42344.784137724</DistanceMeters>
          </Trackpoint>
          <Trackpoint>
            <Time>2021-08-31T09:55:58.000Z</Time>
            <Position>
              <LatitudeDegrees>42.0476685650646686553955078125</LatitudeDegrees>
              <LongitudeDegrees>2.26606235839426517486572265625</LongitudeDegrees>
            </Position>
            <AltitudeMeters>513</AltitudeMeters>
            <DistanceMeters>42405.206782706</DistanceMeters>
          </Trackpoint>
          <Trackpoint>
            <Time>2021-08-31T09:55:59.000Z</Time>
            <Position>
              <LatitudeDegrees>42.04773888923227787017822265625</LatitudeDegrees>
              <LongitudeDegrees>2.26598993875086307525634765625</LongitudeDegrees>
            </Position>
            <AltitudeMeters>513</AltitudeMeters>
            <DistanceMeters>42415.061195021</DistanceMeters>
          </Trackpoint>
          <Trackpoint>
            <Time>2021-08-31T09:56:00.000Z</Time>
            <Position>
              <LatitudeDegrees>42.047796137630939483642578125</LatitudeDegrees>
              <LongitudeDegrees>2.265923805534839630126953125</LongitudeDegrees>
            </Position>
            <AltitudeMeters>513</AltitudeMeters>
            <DistanceMeters>42423.45695447</DistanceMeters>
          </Trackpoint>
          <Trackpoint>
            <Time>2021-08-31T09:56:02.000Z</Time>
            <Position>
              <LatitudeDegrees>42.047875262796878814697265625</LatitudeDegrees>
              <LongitudeDegrees>2.2658242285251617431640625</LongitudeDegrees>
            </Position>
            <AltitudeMeters>512.4000244140625</AltitudeMeters>
            <DistanceMeters>42435.510747648</DistanceMeters>
          </Trackpoint>
          <Trackpoint>
            <Time>2021-08-31T09:56:04.000Z</Time>
            <Position>
              <LatitudeDegrees>42.04799302853643894195556640625</LatitudeDegrees>
              <LongitudeDegrees>2.26579765789210796356201171875</LongitudeDegrees>
            </Position>
            <AltitudeMeters>512</AltitudeMeters>
            <DistanceMeters>42448.800905482</DistanceMeters>
          </Trackpoint>
          <Trackpoint>
            <Time>2021-08-31T09:56:05.000Z</Time>
            <Position>
              <LatitudeDegrees>42.04805932939052581787109375</LatitudeDegrees>
              <LongitudeDegrees>2.26580956019461154937744140625</LongitudeDegrees>
            </Position>
            <AltitudeMeters>511.79998779296875</AltitudeMeters>
            <DistanceMeters>42456.245810398</DistanceMeters>
          </Trackpoint>
          <Trackpoint>
            <Time>2021-08-31T09:56:09.000Z</Time>
            <Position>
              <LatitudeDegrees>42.0483367703855037689208984375</LatitudeDegrees>
              <LongitudeDegrees>2.26587460376322269439697265625</LongitudeDegrees>
            </Position>
            <AltitudeMeters>511.399993896484375</AltitudeMeters>
            <DistanceMeters>42487.589936753</DistanceMeters>
          </Trackpoint>
          <Trackpoint>
            <Time>2021-08-31T09:56:10.000Z</Time>
            <Position>
              <LatitudeDegrees>42.04840525053441524505615234375</LatitudeDegrees>
              <LongitudeDegrees>2.265860103070735931396484375</LongitudeDegrees>
            </Position>
            <AltitudeMeters>511.399993896484375</AltitudeMeters>
            <DistanceMeters>42495.305848494</DistanceMeters>
          </Trackpoint>
          <Trackpoint>
            <Time>2021-08-31T09:56:11.000Z</Time>
            <Position>
              <LatitudeDegrees>42.048463337123394012451171875</LatitudeDegrees>
              <LongitudeDegrees>2.2658170200884342193603515625</LongitudeDegrees>
            </Position>
            <AltitudeMeters>511.20001220703125</AltitudeMeters>
            <DistanceMeters>42502.68680041</DistanceMeters>
          </Trackpoint>
          <Trackpoint>
            <Time>2021-08-31T09:56:12.000Z</Time>
            <Position>
              <LatitudeDegrees>42.04850549809634685516357421875</LatitudeDegrees>
              <LongitudeDegrees>2.26574242115020751953125</LongitudeDegrees>
            </Position>
            <AltitudeMeters>511</AltitudeMeters>
            <DistanceMeters>42510.435411787</DistanceMeters>
          </Trackpoint>
          <Trackpoint>
            <Time>2021-08-31T09:56:13.000Z</Time>
            <Position>
              <LatitudeDegrees>42.04852913506329059600830078125</LatitudeDegrees>
              <LongitudeDegrees>2.26564611308276653289794921875</LongitudeDegrees>
            </Position>
            <AltitudeMeters>510.600006103515625</AltitudeMeters>
            <DistanceMeters>42518.818254676</DistanceMeters>
          </Trackpoint>
          <Trackpoint>
            <Time>2021-08-31T09:56:15.000Z</Time>
            <Position>
              <LatitudeDegrees>42.04855729825794696807861328125</LatitudeDegrees>
              <LongitudeDegrees>2.26542659103870391845703125</LongitudeDegrees>
            </Position>
            <AltitudeMeters>509.79998779296875</AltitudeMeters>
            <DistanceMeters>42537.230400934</DistanceMeters>
          </Trackpoint>
          <Trackpoint>
            <Time>2021-08-31T09:56:22.000Z</Time>
            <Position>
              <LatitudeDegrees>42.048681937158107757568359375</LatitudeDegrees>
              <LongitudeDegrees>2.26465185172855854034423828125</LongitudeDegrees>
            </Position>
            <AltitudeMeters>508</AltitudeMeters>
            <DistanceMeters>42602.74827116</DistanceMeters>
          </Trackpoint>
          <Trackpoint>
            <Time>2021-08-31T09:56:28.000Z</Time>
            <Position>
              <LatitudeDegrees>42.0487665943801403045654296875</LatitudeDegrees>
              <LongitudeDegrees>2.26395414210855960845947265625</LongitudeDegrees>
            </Position>
            <AltitudeMeters>505</AltitudeMeters>
            <DistanceMeters>42661.178806176</DistanceMeters>
          </Trackpoint>
          <Trackpoint>
            <Time>2021-08-31T09:56:33.000Z</Time>
            <Position>
              <LatitudeDegrees>42.04868352971971035003662109375</LatitudeDegrees>
              <LongitudeDegrees>2.263377718627452850341796875</LongitudeDegrees>
            </Position>
            <AltitudeMeters>506.20001220703125</AltitudeMeters>
            <DistanceMeters>42709.709089689</DistanceMeters>
          </Trackpoint>
          <Trackpoint>
            <Time>2021-08-31T09:56:37.000Z</Time>
            <Position>
              <LatitudeDegrees>42.04862033016979694366455078125</LatitudeDegrees>
              <LongitudeDegrees>2.262944541871547698974609375</LongitudeDegrees>
            </Position>
            <AltitudeMeters>506.79998779296875</AltitudeMeters>
            <DistanceMeters>42746.195635837</DistanceMeters>
          </Trackpoint>
          <Trackpoint>
            <Time>2021-08-31T09:56:38.000Z</Time>
            <Position>
              <LatitudeDegrees>42.048626951873302459716796875</LatitudeDegrees>
              <LongitudeDegrees>2.2628518380224704742431640625</LongitudeDegrees>
            </Position>
            <AltitudeMeters>506.399993896484375</AltitudeMeters>
            <DistanceMeters>42753.892213094</DistanceMeters>
          </Trackpoint>
          <Trackpoint>
            <Time>2021-08-31T09:56:39.000Z</Time>
            <Position>
              <LatitudeDegrees>42.0486499182879924774169921875</LatitudeDegrees>
              <LongitudeDegrees>2.2627713717520236968994140625</LongitudeDegrees>
            </Position>
            <AltitudeMeters>506</AltitudeMeters>
            <DistanceMeters>42761.016682175</DistanceMeters>
          </Trackpoint>
          <Trackpoint>
            <Time>2021-08-31T09:56:41.000Z</Time>
            <Position>
              <LatitudeDegrees>42.0487079210579395294189453125</LatitudeDegrees>
              <LongitudeDegrees>2.26263734512031078338623046875</LongitudeDegrees>
            </Position>
            <AltitudeMeters>505.20001220703125</AltitudeMeters>
            <DistanceMeters>42773.837895518</DistanceMeters>
          </Trackpoint>
          <Trackpoint>
            <Time>2021-08-31T09:56:43.000Z</Time>
            <Position>
              <LatitudeDegrees>42.048773467540740966796875</LatitudeDegrees>
              <LongitudeDegrees>2.2625946812331676483154296875</LongitudeDegrees>
            </Position>
            <AltitudeMeters>504.600006103515625</AltitudeMeters>
            <DistanceMeters>42781.940838553</DistanceMeters>
          </Trackpoint>
          <Trackpoint>
            <Time>2021-08-31T09:56:44.000Z</Time>
            <Position>
              <LatitudeDegrees>42.04881596378982067108154296875</LatitudeDegrees>
              <LongitudeDegrees>2.262604571878910064697265625</LongitudeDegrees>
            </Position>
            <AltitudeMeters>504.600006103515625</AltitudeMeters>
            <DistanceMeters>42786.740393221</DistanceMeters>
          </Trackpoint>
          <Trackpoint>
            <Time>2021-08-31T09:56:49.000Z</Time>
            <Position>
              <LatitudeDegrees>42.049007155001163482666015625</LatitudeDegrees>
              <LongitudeDegrees>2.2626855410635471343994140625</LongitudeDegrees>
            </Position>
            <AltitudeMeters>505</AltitudeMeters>
            <DistanceMeters>42809.047598167</DistanceMeters>
          </Trackpoint>
          <Trackpoint>
            <Time>2021-08-31T09:56:51.000Z</Time>
            <Position>
              <LatitudeDegrees>42.0490269362926483154296875</LatitudeDegrees>
              <LongitudeDegrees>2.26265251636505126953125</LongitudeDegrees>
            </Position>
            <AltitudeMeters>504.600006103515625</AltitudeMeters>
            <DistanceMeters>42812.554586065</DistanceMeters>
          </Trackpoint>
          <Trackpoint>
            <Time>2021-08-31T09:56:52.000Z</Time>
            <Position>
              <LatitudeDegrees>42.0490203984081745147705078125</LatitudeDegrees>
              <LongitudeDegrees>2.2626221738755702972412109375</LongitudeDegrees>
            </Position>
            <AltitudeMeters>504.399993896484375</AltitudeMeters>
            <DistanceMeters>42815.163930358</DistanceMeters>
          </Trackpoint>
          <Trackpoint>
            <Time>2021-08-31T09:56:55.000Z</Time>
            <Position>
              <LatitudeDegrees>42.04903406091034412384033203125</LatitudeDegrees>
              <LongitudeDegrees>2.262451685965061187744140625</LongitudeDegrees>
            </Position>
            <AltitudeMeters>503.20001220703125</AltitudeMeters>
            <DistanceMeters>42829.336934644</DistanceMeters>
          </Trackpoint>
          <Trackpoint>
            <Time>2021-08-31T09:57:02.000Z</Time>
            <Position>
              <LatitudeDegrees>42.04907990992069244384765625</LatitudeDegrees>
              <LongitudeDegrees>2.26194642484188079833984375</LongitudeDegrees>
            </Position>
            <AltitudeMeters>502.600006103515625</AltitudeMeters>
            <DistanceMeters>42871.407269123</DistanceMeters>
          </Trackpoint>
          <Trackpoint>
            <Time>2021-08-31T09:57:07.000Z</Time>
            <Position>
              <LatitudeDegrees>42.0491156168282032012939453125</LatitudeDegrees>
              <LongitudeDegrees>2.2616009227931499481201171875</LongitudeDegrees>
            </Position>
            <AltitudeMeters>503.20001220703125</AltitudeMeters>
            <DistanceMeters>42900.238129961</DistanceMeters>
          </Trackpoint>
          <Trackpoint>
            <Time>2021-08-31T05:51:01.000Z</Time>
            <Position>
              <LatitudeDegrees>42.0491571910679340362548828125</LatitudeDegrees>
              <LongitudeDegrees>2.261158861219882965087890625</LongitudeDegrees>
            </Position>
            <AltitudeMeters>504</AltitudeMeters>
            <DistanceMeters>42937.0663458</DistanceMeters>
          </Trackpoint>
          <Trackpoint>
            <Time>2021-08-31T05:51:06.000Z</Time>
            <Position>
              <LatitudeDegrees>42.04918024130165576934814453125</LatitudeDegrees>
              <LongitudeDegrees>2.26091888733208179473876953125</LongitudeDegrees>
            </Position>
            <AltitudeMeters>504.399993896484375</AltitudeMeters>
            <DistanceMeters>42957.065349422</DistanceMeters>
          </Trackpoint>
          <Trackpoint>
            <Time>2021-08-31T05:51:12.000Z</Time>
            <Position>
              <LatitudeDegrees>42.04918996430933475494384765625</LatitudeDegrees>
              <LongitudeDegrees>2.260570116341114044189453125</LongitudeDegrees>
            </Position>
            <AltitudeMeters>505.20001220703125</AltitudeMeters>
            <DistanceMeters>42985.911553404</DistanceMeters>
          </Trackpoint>
          <Trackpoint>
            <Time>2021-08-31T05:51:13.000Z</Time>
            <Position>
              <LatitudeDegrees>42.04917940311133861541748046875</LatitudeDegrees>
              <LongitudeDegrees>2.2605112753808498382568359375</LongitudeDegrees>
            </Position>
            <AltitudeMeters>505.20001220703125</AltitudeMeters>
            <DistanceMeters>42990.91468961</DistanceMeters>
          </Trackpoint>
          <Trackpoint>
            <Time>2021-08-31T05:51:16.000Z</Time>
            <Position>
              <LatitudeDegrees>42.0491333864629268646240234375</LatitudeDegrees>
              <LongitudeDegrees>2.26034925319254398345947265625</LongitudeDegrees>
            </Position>
            <AltitudeMeters>505.399993896484375</AltitudeMeters>
            <DistanceMeters>43005.251446566</DistanceMeters>
          </Trackpoint>
          <Trackpoint>
            <Time>2021-08-31T05:51:17.000Z</Time>
            <Position>
              <LatitudeDegrees>42.0491074025630950927734375</LatitudeDegrees>
              <LongitudeDegrees>2.2602993808686733245849609375</LongitudeDegrees>
            </Position>
            <AltitudeMeters>505.20001220703125</AltitudeMeters>
            <DistanceMeters>43010.28696587</DistanceMeters>
          </Trackpoint>
          <Trackpoint>
            <Time>2021-08-31T05:51:19.000Z</Time>
            <Position>
              <LatitudeDegrees>42.04904948361217975616455078125</LatitudeDegrees>
              <LongitudeDegrees>2.2602014802396297454833984375</LongitudeDegrees>
            </Position>
            <AltitudeMeters>505.20001220703125</AltitudeMeters>
            <DistanceMeters>43020.633101678</DistanceMeters>
          </Trackpoint>
          <Trackpoint>
            <Time>2021-08-31T05:51:23.000Z</Time>
            <Position>
              <LatitudeDegrees>42.048905901610851287841796875</LatitudeDegrees>
              <LongitudeDegrees>2.2600314952433109283447265625</LongitudeDegrees>
            </Position>
            <AltitudeMeters>505.20001220703125</AltitudeMeters>
            <DistanceMeters>43041.91166044</DistanceMeters>
          </Trackpoint>
          <Trackpoint>
            <Time>2021-08-31T05:51:32.000Z</Time>
            <Position>
              <LatitudeDegrees>42.04856215976178646087646484375</LatitudeDegrees>
              <LongitudeDegrees>2.259690351784229278564453125</LongitudeDegrees>
            </Position>
            <AltitudeMeters>503.79998779296875</AltitudeMeters>
            <DistanceMeters>43089.437939501</DistanceMeters>
          </Trackpoint>
          <Trackpoint>
            <Time>2021-08-31T05:51:34.000Z</Time>
            <Position>
              <LatitudeDegrees>42.04846710897982120513916015625</LatitudeDegrees>
              <LongitudeDegrees>2.259646095335483551025390625</LongitudeDegrees>
            </Position>
            <AltitudeMeters>503.399993896484375</AltitudeMeters>
            <DistanceMeters>43100.631747644</DistanceMeters>
          </Trackpoint>
          <Trackpoint>
            <Time>2021-08-31T05:51:37.000Z</Time>
            <Position>
              <LatitudeDegrees>42.04832729883491992950439453125</LatitudeDegrees>
              <LongitudeDegrees>2.2595637850463390350341796875</LongitudeDegrees>
            </Position>
            <AltitudeMeters>502.79998779296875</AltitudeMeters>
            <DistanceMeters>43117.614699143</DistanceMeters>
          </Trackpoint>
          <Trackpoint>
            <Time>2021-08-31T05:51:44.000Z</Time>
            <Position>
              <LatitudeDegrees>42.04797827638685703277587890625</LatitudeDegrees>
              <LongitudeDegrees>2.2594122402369976043701171875</LongitudeDegrees>
            </Position>
            <AltitudeMeters>502.399993896484375</AltitudeMeters>
            <DistanceMeters>43158.430857746</DistanceMeters>
          </Trackpoint>
          <Trackpoint>
            <Time>2021-08-31T05:51:45.000Z</Time>
            <Position>
              <LatitudeDegrees>42.04792949371039867401123046875</LatitudeDegrees>
              <LongitudeDegrees>2.259386591613292694091796875</LongitudeDegrees>
            </Position>
            <AltitudeMeters>502.399993896484375</AltitudeMeters>
            <DistanceMeters>43164.259335042</DistanceMeters>
          </Trackpoint>
          <Trackpoint>
            <Time>2021-08-31T05:51:53.000Z</Time>
            <Position>
              <LatitudeDegrees>42.047537304461002349853515625</LatitudeDegrees>
              <LongitudeDegrees>2.25915751419961452484130859375</LongitudeDegrees>
            </Position>
            <AltitudeMeters>502</AltitudeMeters>
            <DistanceMeters>43211.840113359</DistanceMeters>
          </Trackpoint>
          <Trackpoint>
            <Time>2021-08-31T05:51:57.000Z</Time>
            <Position>
              <LatitudeDegrees>42.047365643084049224853515625</LatitudeDegrees>
              <LongitudeDegrees>2.25899306125938892364501953125</LongitudeDegrees>
            </Position>
            <AltitudeMeters>501.600006103515625</AltitudeMeters>
            <DistanceMeters>43235.288039373</DistanceMeters>
          </Trackpoint>
          <Trackpoint>
            <Time>2021-08-31T05:51:59.000Z</Time>
            <Position>
              <LatitudeDegrees>42.04730889759957790374755859375</LatitudeDegrees>
              <LongitudeDegrees>2.25888191722333431243896484375</LongitudeDegrees>
            </Position>
            <AltitudeMeters>501.399993896484375</AltitudeMeters>
            <DistanceMeters>43246.435770623</DistanceMeters>
          </Trackpoint>
          <Trackpoint>
            <Time>2021-08-31T05:52:01.000Z</Time>
            <Position>
              <LatitudeDegrees>42.047297246754169464111328125</LatitudeDegrees>
              <LongitudeDegrees>2.2587524168193340301513671875</LongitudeDegrees>
            </Position>
            <AltitudeMeters>501.20001220703125</AltitudeMeters>
            <DistanceMeters>43257.217429775</DistanceMeters>
          </Trackpoint>
          <Trackpoint>
            <Time>2021-08-31T05:52:02.000Z</Time>
            <Position>
              <LatitudeDegrees>42.04730973578989505767822265625</LatitudeDegrees>
              <LongitudeDegrees>2.2586900554597377777099609375</LongitudeDegrees>
            </Position>
            <AltitudeMeters>501.20001220703125</AltitudeMeters>
            <DistanceMeters>43262.555867866</DistanceMeters>
          </Trackpoint>
          <Trackpoint>
            <Time>2021-08-31T05:52:09.000Z</Time>
            <Position>
              <LatitudeDegrees>42.04745876602828502655029296875</LatitudeDegrees>
              <LongitudeDegrees>2.25821589119732379913330078125</LongitudeDegrees>
            </Position>
            <AltitudeMeters>501.20001220703125</AltitudeMeters>
            <DistanceMeters>43305.112242728</DistanceMeters>
          </Trackpoint>
          <Trackpoint>
            <Time>2021-08-31T05:52:17.000Z</Time>
            <Position>
              <LatitudeDegrees>42.04763512127101421356201171875</LatitudeDegrees>
              <LongitudeDegrees>2.25762479938566684722900390625</LongitudeDegrees>
            </Position>
            <AltitudeMeters>502.79998779296875</AltitudeMeters>
            <DistanceMeters>43357.762702621</DistanceMeters>
          </Trackpoint>
          <Trackpoint>
            <Time>2021-08-31T05:52:26.000Z</Time>
            <Position>
              <LatitudeDegrees>42.0478241331875324249267578125</LatitudeDegrees>
              <LongitudeDegrees>2.25699850358068943023681640625</LongitudeDegrees>
            </Position>
            <AltitudeMeters>504.20001220703125</AltitudeMeters>
            <DistanceMeters>43413.638572281</DistanceMeters>
          </Trackpoint>
          <Trackpoint>
            <Time>2021-08-31T05:52:28.000Z</Time>
            <Position>
              <LatitudeDegrees>42.047862522304058074951171875</LatitudeDegrees>
              <LongitudeDegrees>2.25685835815966129302978515625</LongitudeDegrees>
            </Position>
            <AltitudeMeters>503.600006103515625</AltitudeMeters>
            <DistanceMeters>43425.984733238</DistanceMeters>
          </Trackpoint>
          <Trackpoint>
            <Time>2021-08-31T05:52:33.000Z</Time>
            <Position>
              <LatitudeDegrees>42.0479817129671573638916015625</LatitudeDegrees>
              <LongitudeDegrees>2.25652274675667285919189453125</LongitudeDegrees>
            </Position>
            <AltitudeMeters>502.79998779296875</AltitudeMeters>
            <DistanceMeters>43456.732594034</DistanceMeters>
          </Trackpoint>
          <Trackpoint>
            <Time>2021-08-31T05:52:41.000Z</Time>
            <Position>
              <LatitudeDegrees>42.048154212534427642822265625</LatitudeDegrees>
              <LongitudeDegrees>2.25597943179309368133544921875</LongitudeDegrees>
            </Position>
            <AltitudeMeters>502</AltitudeMeters>
            <DistanceMeters>43505.570408802</DistanceMeters>
          </Trackpoint>
          <Trackpoint>
            <Time>2021-08-31T05:52:49.000Z</Time>
            <Position>
              <LatitudeDegrees>42.0483213476836681365966796875</LatitudeDegrees>
              <LongitudeDegrees>2.25545321591198444366455078125</LongitudeDegrees>
            </Position>
            <AltitudeMeters>502.399993896484375</AltitudeMeters>
            <DistanceMeters>43552.873863459</DistanceMeters>
          </Trackpoint>
          <Trackpoint>
            <Time>2021-08-31T05:52:57.000Z</Time>
            <Position>
              <LatitudeDegrees>42.04848655499517917633056640625</LatitudeDegrees>
              <LongitudeDegrees>2.25492130033671855926513671875</LongitudeDegrees>
            </Position>
            <AltitudeMeters>503.20001220703125</AltitudeMeters>
            <DistanceMeters>43600.527463155</DistanceMeters>
          </Trackpoint>
          <Trackpoint>
            <Time>2021-08-31T05:53:04.000Z</Time>
            <Position>
              <LatitudeDegrees>42.0486160553991794586181640625</LatitudeDegrees>
              <LongitudeDegrees>2.25444638170301914215087890625</LongitudeDegrees>
            </Position>
            <AltitudeMeters>503.600006103515625</AltitudeMeters>
            <DistanceMeters>43642.342456899</DistanceMeters>
          </Trackpoint>
          <Trackpoint>
            <Time>2021-08-31T05:53:13.000Z</Time>
            <Position>
              <LatitudeDegrees>42.0488204061985015869140625</LatitudeDegrees>
              <LongitudeDegrees>2.25382209755480289459228515625</LongitudeDegrees>
            </Position>
            <AltitudeMeters>503.600006103515625</AltitudeMeters>
            <DistanceMeters>43698.730383593</DistanceMeters>
          </Trackpoint>
          <Trackpoint>
            <Time>2021-08-31T05:53:20.000Z</Time>
            <Position>
              <LatitudeDegrees>42.04895652830600738525390625</LatitudeDegrees>
              <LongitudeDegrees>2.25338020361959934234619140625</LongitudeDegrees>
            </Position>
            <AltitudeMeters>503.600006103515625</AltitudeMeters>
            <DistanceMeters>43738.270861276</DistanceMeters>
          </Trackpoint>
          <Trackpoint>
            <Time>2021-08-31T05:53:24.000Z</Time>
            <Position>
              <LatitudeDegrees>42.04901293851435184478759765625</LatitudeDegrees>
              <LongitudeDegrees>2.2531425766646862030029296875</LongitudeDegrees>
            </Position>
            <AltitudeMeters>503.600006103515625</AltitudeMeters>
            <DistanceMeters>43758.8896876</DistanceMeters>
          </Trackpoint>
          <Trackpoint>
            <Time>2021-08-31T05:53:26.000Z</Time>
            <Position>
              <LatitudeDegrees>42.04906515777111053466796875</LatitudeDegrees>
              <LongitudeDegrees>2.25303755141794681549072265625</LongitudeDegrees>
            </Position>
            <AltitudeMeters>503.79998779296875</AltitudeMeters>
            <DistanceMeters>43769.335712861</DistanceMeters>
          </Trackpoint>
          <Trackpoint>
            <Time>2021-08-31T05:53:27.000Z</Time>
            <Position>
              <LatitudeDegrees>42.0490998588502407073974609375</LatitudeDegrees>
              <LongitudeDegrees>2.252993881702423095703125</LongitudeDegrees>
            </Position>
            <AltitudeMeters>504.20001220703125</AltitudeMeters>
            <DistanceMeters>43774.621453728</DistanceMeters>
          </Trackpoint>
          <Trackpoint>
            <Time>2021-08-31T05:53:29.000Z</Time>
            <Position>
              <LatitudeDegrees>42.04916775226593017578125</LatitudeDegrees>
              <LongitudeDegrees>2.2528995014727115631103515625</LongitudeDegrees>
            </Position>
            <AltitudeMeters>505.20001220703125</AltitudeMeters>
            <DistanceMeters>43785.481972063</DistanceMeters>
          </Trackpoint>
          <Trackpoint>
            <Time>2021-08-31T05:53:31.000Z</Time>
            <Position>
              <LatitudeDegrees>42.04921561293303966522216796875</LatitudeDegrees>
              <LongitudeDegrees>2.25278391502797603607177734375</LongitudeDegrees>
            </Position>
            <AltitudeMeters>506</AltitudeMeters>
            <DistanceMeters>43796.42036833</DistanceMeters>
          </Trackpoint>
          <Trackpoint>
            <Time>2021-08-31T05:53:32.000Z</Time>
            <Position>
              <LatitudeDegrees>42.04922340810298919677734375</LatitudeDegrees>
              <LongitudeDegrees>2.2527150996029376983642578125</LongitudeDegrees>
            </Position>
            <AltitudeMeters>506</AltitudeMeters>
            <DistanceMeters>43802.173998509</DistanceMeters>
          </Trackpoint>
          <Trackpoint>
            <Time>2021-08-31T05:53:33.000Z</Time>
            <Position>
              <LatitudeDegrees>42.04922332428395748138427734375</LatitudeDegrees>
              <LongitudeDegrees>2.2526403330266475677490234375</LongitudeDegrees>
            </Position>
            <AltitudeMeters>506</AltitudeMeters>
            <DistanceMeters>43808.353658151</DistanceMeters>
          </Trackpoint>
          <Trackpoint>
            <Time>2021-08-31T05:53:35.000Z</Time>
            <Position>
              <LatitudeDegrees>42.04921745695173740386962890625</LatitudeDegrees>
              <LongitudeDegrees>2.2524894587695598602294921875</LongitudeDegrees>
            </Position>
            <AltitudeMeters>505.600006103515625</AltitudeMeters>
            <DistanceMeters>43820.840182883</DistanceMeters>
          </Trackpoint>
          <Trackpoint>
            <Time>2021-08-31T05:53:37.000Z</Time>
            <Position>
              <LatitudeDegrees>42.04924285411834716796875</LatitudeDegrees>
              <LongitudeDegrees>2.25234411656856536865234375</LongitudeDegrees>
            </Position>
            <AltitudeMeters>505.600006103515625</AltitudeMeters>
            <DistanceMeters>43833.181222924</DistanceMeters>
          </Trackpoint>
          <Trackpoint>
            <Time>2021-08-31T05:53:44.000Z</Time>
            <Position>
              <LatitudeDegrees>42.049390710890293121337890625</LatitudeDegrees>
              <LongitudeDegrees>2.25185302086174488067626953125</LongitudeDegrees>
            </Position>
            <AltitudeMeters>506.399993896484375</AltitudeMeters>
            <DistanceMeters>43876.97926134</DistanceMeters>
          </Trackpoint>
          <Trackpoint>
            <Time>2021-08-31T05:53:51.000Z</Time>
            <Position>
              <LatitudeDegrees>42.0494954846799373626708984375</LatitudeDegrees>
              <LongitudeDegrees>2.25130953826010227203369140625</LongitudeDegrees>
            </Position>
            <AltitudeMeters>505</AltitudeMeters>
            <DistanceMeters>43923.38675181</DistanceMeters>
          </Trackpoint>
          <Trackpoint>
            <Time>2021-08-31T05:53:59.000Z</Time>
            <Position>
              <LatitudeDegrees>42.04966186545789241790771484375</LatitudeDegrees>
              <LongitudeDegrees>2.250710316002368927001953125</LongitudeDegrees>
            </Position>
            <AltitudeMeters>504</AltitudeMeters>
            <DistanceMeters>43976.260899999</DistanceMeters>
          </Trackpoint>
          <Trackpoint>
            <Time>2021-08-31T05:54:00.000Z</Time>
            <Position>
              <LatitudeDegrees>42.04968114383518695831298828125</LatitudeDegrees>
              <LongitudeDegrees>2.25063462741672992706298828125</LongitudeDegrees>
            </Position>
            <AltitudeMeters>504</AltitudeMeters>
            <DistanceMeters>43982.873284603</DistanceMeters>
          </Trackpoint>
          <Trackpoint>
            <Time>2021-08-31T05:54:04.000Z</Time>
            <Position>
              <LatitudeDegrees>42.049738056957721710205078125</LatitudeDegrees>
              <LongitudeDegrees>2.25032567046582698822021484375</LongitudeDegrees>
            </Position>
            <AltitudeMeters>503</AltitudeMeters>
            <DistanceMeters>44009.182130253</DistanceMeters>
          </Trackpoint>
          <Trackpoint>
            <Time>2021-08-31T05:54:12.000Z</Time>
            <Position>
              <LatitudeDegrees>42.0499058626592159271240234375</LatitudeDegrees>
              <LongitudeDegrees>2.24972426891326904296875</LongitudeDegrees>
            </Position>
            <AltitudeMeters>501.399993896484375</AltitudeMeters>
            <DistanceMeters>44062.280384911</DistanceMeters>
          </Trackpoint>
          <Trackpoint>
            <Time>2021-08-31T05:54:22.000Z</Time>
            <Position>
              <LatitudeDegrees>42.05009378492832183837890625</LatitudeDegrees>
              <LongitudeDegrees>2.24899596534669399261474609375</LongitudeDegrees>
            </Position>
            <AltitudeMeters>502.20001220703125</AltitudeMeters>
            <DistanceMeters>44126.004069565</DistanceMeters>
          </Trackpoint>
          <Trackpoint>
            <Time>2021-08-31T05:54:23.000Z</Time>
            <Position>
              <LatitudeDegrees>42.0501147396862506866455078125</LatitudeDegrees>
              <LongitudeDegrees>2.24892756901681423187255859375</LongitudeDegrees>
            </Position>
            <AltitudeMeters>502.600006103515625</AltitudeMeters>
            <DistanceMeters>44132.119834164</DistanceMeters>
          </Trackpoint>
          <Trackpoint>
            <Time>2021-08-31T05:54:31.000Z</Time>
            <Position>
              <LatitudeDegrees>42.05032068304717540740966796875</LatitudeDegrees>
              <LongitudeDegrees>2.24842146970331668853759765625</LongitudeDegrees>
            </Position>
            <AltitudeMeters>504.600006103515625</AltitudeMeters>
            <DistanceMeters>44179.816902933</DistanceMeters>
          </Trackpoint>
          <Trackpoint>
            <Time>2021-08-31T05:54:41.000Z</Time>
            <Position>
              <LatitudeDegrees>42.05059762112796306610107421875</LatitudeDegrees>
              <LongitudeDegrees>2.24784764461219310760498046875</LongitudeDegrees>
            </Position>
            <AltitudeMeters>504.79998779296875</AltitudeMeters>
            <DistanceMeters>44236.37903526</DistanceMeters>
          </Trackpoint>
          <Trackpoint>
            <Time>2021-08-31T05:54:50.000Z</Time>
            <Position>
              <LatitudeDegrees>42.05090741626918315887451171875</LatitudeDegrees>
              <LongitudeDegrees>2.24736317060887813568115234375</LongitudeDegrees>
            </Position>
            <AltitudeMeters>504.79998779296875</AltitudeMeters>
            <DistanceMeters>44289.220126346</DistanceMeters>
          </Trackpoint>
          <Trackpoint>
            <Time>2021-08-31T05:54:58.000Z</Time>
            <Position>
              <LatitudeDegrees>42.0511963404715061187744140625</LatitudeDegrees>
              <LongitudeDegrees>2.24700358696281909942626953125</LongitudeDegrees>
            </Position>
            <AltitudeMeters>507.79998779296875</AltitudeMeters>
            <DistanceMeters>44333.007339218</DistanceMeters>
          </Trackpoint>
          <Trackpoint>
            <Time>2021-08-31T05:55:07.000Z</Time>
            <Position>
              <LatitudeDegrees>42.05153505317866802215576171875</LatitudeDegrees>
              <LongitudeDegrees>2.24660997278988361358642578125</LongitudeDegrees>
            </Position>
            <AltitudeMeters>504.79998779296875</AltitudeMeters>
            <DistanceMeters>44382.801881591</DistanceMeters>
          </Trackpoint>
          <Trackpoint>
            <Time>2021-08-31T05:55:16.000Z</Time>
            <Position>
              <LatitudeDegrees>42.0518819801509380340576171875</LatitudeDegrees>
              <LongitudeDegrees>2.246227674186229705810546875</LongitudeDegrees>
            </Position>
            <AltitudeMeters>505.399993896484375</AltitudeMeters>
            <DistanceMeters>44432.694617064</DistanceMeters>
          </Trackpoint>
          <Trackpoint>
            <Time>2021-08-31T05:55:24.000Z</Time>
            <Position>
              <LatitudeDegrees>42.0521773584187030792236328125</LatitudeDegrees>
              <LongitudeDegrees>2.245901115238666534423828125</LongitudeDegrees>
            </Position>
            <AltitudeMeters>507.600006103515625</AltitudeMeters>
            <DistanceMeters>44475.229661392</DistanceMeters>
          </Trackpoint>
          <Trackpoint>
            <Time>2021-08-31T05:55:32.000Z</Time>
            <Position>
              <LatitudeDegrees>42.05246326513588428497314453125</LatitudeDegrees>
              <LongitudeDegrees>2.24556977860629558563232421875</LongitudeDegrees>
            </Position>
            <AltitudeMeters>510</AltitudeMeters>
            <DistanceMeters>44517.211900262</DistanceMeters>
          </Trackpoint>
          <Trackpoint>
            <Time>2021-08-31T05:55:41.000Z</Time>
            <Position>
              <LatitudeDegrees>42.05279535613954067230224609375</LatitudeDegrees>
              <LongitudeDegrees>2.2451961971819400787353515625</LongitudeDegrees>
            </Position>
            <AltitudeMeters>512.4000244140625</AltitudeMeters>
            <DistanceMeters>44565.372729111</DistanceMeters>
          </Trackpoint>
          <Trackpoint>
            <Time>2021-08-31T05:55:45.000Z</Time>
            <Position>
              <LatitudeDegrees>42.052942626178264617919921875</LatitudeDegrees>
              <LongitudeDegrees>2.24503769539296627044677734375</LongitudeDegrees>
            </Position>
            <AltitudeMeters>512.4000244140625</AltitudeMeters>
            <DistanceMeters>44586.35535066</DistanceMeters>
          </Trackpoint>
          <Trackpoint>
            <Time>2021-08-31T05:55:47.000Z</Time>
            <Position>
              <LatitudeDegrees>42.05302351154386997222900390625</LatitudeDegrees>
              <LongitudeDegrees>2.2449558041989803314208984375</LongitudeDegrees>
            </Position>
            <AltitudeMeters>512.5999755859375</AltitudeMeters>
            <DistanceMeters>44597.618321578</DistanceMeters>
          </Trackpoint>
          <Trackpoint>
            <Time>2021-08-31T05:55:55.000Z</Time>
            <Position>
              <LatitudeDegrees>42.053344957530498504638671875</LatitudeDegrees>
              <LongitudeDegrees>2.244588844478130340576171875</LongitudeDegrees>
            </Position>
            <AltitudeMeters>511</AltitudeMeters>
            <DistanceMeters>44644.51994993</DistanceMeters>
          </Trackpoint>
          <Trackpoint>
            <Time>2021-08-31T05:55:57.000Z</Time>
            <Position>
              <LatitudeDegrees>42.05343103967607021331787109375</LatitudeDegrees>
              <LongitudeDegrees>2.24449505098164081573486328125</LongitudeDegrees>
            </Position>
            <AltitudeMeters>509.79998779296875</AltitudeMeters>
            <DistanceMeters>44656.844149124</DistanceMeters>
          </Trackpoint>
          <Trackpoint>
            <Time>2021-08-31T05:56:01.000Z</Time>
            <Position>
              <LatitudeDegrees>42.05359943211078643798828125</LatitudeDegrees>
              <LongitudeDegrees>2.24430779926478862762451171875</LongitudeDegrees>
            </Position>
            <AltitudeMeters>508.399993896484375</AltitudeMeters>
            <DistanceMeters>44681.14963474</DistanceMeters>
          </Trackpoint>
          <Trackpoint>
            <Time>2021-08-31T05:56:08.000Z</Time>
            <Position>
              <LatitudeDegrees>42.05388517118990421295166015625</LatitudeDegrees>
              <LongitudeDegrees>2.24400839768350124359130859375</LongitudeDegrees>
            </Position>
            <AltitudeMeters>508.20001220703125</AltitudeMeters>
            <DistanceMeters>44721.444771487</DistanceMeters>
          </Trackpoint>
          <Trackpoint>
            <Time>2021-08-31T05:56:11.000Z</Time>
            <Position>
              <LatitudeDegrees>42.05402783118188381195068359375</LatitudeDegrees>
              <LongitudeDegrees>2.2439268417656421661376953125</LongitudeDegrees>
            </Position>
            <AltitudeMeters>507.79998779296875</AltitudeMeters>
            <DistanceMeters>44738.694672326</DistanceMeters>
          </Trackpoint>
          <Trackpoint>
            <Time>2021-08-31T05:56:13.000Z</Time>
            <Position>
              <LatitudeDegrees>42.054134868085384368896484375</LatitudeDegrees>
              <LongitudeDegrees>2.24390144459903240203857421875</LongitudeDegrees>
            </Position>
            <AltitudeMeters>507.600006103515625</AltitudeMeters>
            <DistanceMeters>44750.791464826</DistanceMeters>
          </Trackpoint>
          <Trackpoint>
            <Time>2021-08-31T05:56:14.000Z</Time>
            <Position>
              <LatitudeDegrees>42.05418876372277736663818359375</LatitudeDegrees>
              <LongitudeDegrees>2.24389960058033466339111328125</LongitudeDegrees>
            </Position>
            <AltitudeMeters>507.20001220703125</AltitudeMeters>
            <DistanceMeters>44756.792460148</DistanceMeters>
          </Trackpoint>
          <Trackpoint>
            <Time>2021-08-31T05:56:17.000Z</Time>
            <Position>
              <LatitudeDegrees>42.054354138672351837158203125</LatitudeDegrees>
              <LongitudeDegrees>2.24395123310387134552001953125</LongitudeDegrees>
            </Position>
            <AltitudeMeters>506.600006103515625</AltitudeMeters>
            <DistanceMeters>44775.687250496</DistanceMeters>
          </Trackpoint>
          <Trackpoint>
            <Time>2021-08-31T05:56:23.000Z</Time>
            <Position>
              <LatitudeDegrees>42.05466435290873050689697265625</LatitudeDegrees>
              <LongitudeDegrees>2.2441162727773189544677734375</LongitudeDegrees>
            </Position>
            <AltitudeMeters>505.20001220703125</AltitudeMeters>
            <DistanceMeters>44812.810966189</DistanceMeters>
          </Trackpoint>
          <Trackpoint>
            <Time>2021-08-31T05:56:32.000Z</Time>
            <Position>
              <LatitudeDegrees>42.05511890351772308349609375</LatitudeDegrees>
              <LongitudeDegrees>2.2443583421409130096435546875</LongitudeDegrees>
            </Position>
            <AltitudeMeters>506.399993896484375</AltitudeMeters>
            <DistanceMeters>44867.214901305</DistanceMeters>
          </Trackpoint>
          <Trackpoint>
            <Time>2021-08-31T05:56:39.000Z</Time>
            <Position>
              <LatitudeDegrees>42.05547873862087726593017578125</LatitudeDegrees>
              <LongitudeDegrees>2.24454383365809917449951171875</LongitudeDegrees>
            </Position>
            <AltitudeMeters>510</AltitudeMeters>
            <DistanceMeters>44910.098805608</DistanceMeters>
          </Trackpoint>
          <Trackpoint>
            <Time>2021-08-31T05:56:46.000Z</Time>
            <Position>
              <LatitudeDegrees>42.0558234862983226776123046875</LatitudeDegrees>
              <LongitudeDegrees>2.24472991190850734710693359375</LongitudeDegrees>
            </Position>
            <AltitudeMeters>513.20001220703125</AltitudeMeters>
            <DistanceMeters>44951.436627829</DistanceMeters>
          </Trackpoint>
          <Trackpoint>
            <Time>2021-08-31T05:56:50.000Z</Time>
            <Position>
              <LatitudeDegrees>42.0559860952198505401611328125</LatitudeDegrees>
              <LongitudeDegrees>2.24481725133955478668212890625</LongitudeDegrees>
            </Position>
            <AltitudeMeters>514.20001220703125</AltitudeMeters>
            <DistanceMeters>44970.921507454</DistanceMeters>
          </Trackpoint>
          <Trackpoint>
            <Time>2021-08-31T05:56:53.000Z</Time>
            <Position>
              <LatitudeDegrees>42.05609061755239963531494140625</LatitudeDegrees>
              <LongitudeDegrees>2.24487776868045330047607421875</LongitudeDegrees>
            </Position>
            <AltitudeMeters>514.79998779296875</AltitudeMeters>
            <DistanceMeters>44983.584686261</DistanceMeters>
          </Trackpoint>
          <Trackpoint>
            <Time>2021-08-31T05:56:54.000Z</Time>
            <Position>
              <LatitudeDegrees>42.0561322756111621856689453125</LatitudeDegrees>
              <LongitudeDegrees>2.24489830434322357177734375</LongitudeDegrees>
            </Position>
            <AltitudeMeters>515</AltitudeMeters>
            <DistanceMeters>44988.522419182</DistanceMeters>
          </Trackpoint>
          <Trackpoint>
            <Time>2021-08-31T05:56:58.000Z</Time>
            <Position>
              <LatitudeDegrees>42.05632095225155353546142578125</LatitudeDegrees>
              <LongitudeDegrees>2.2449836321175098419189453125</LongitudeDegrees>
            </Position>
            <AltitudeMeters>516</AltitudeMeters>
            <DistanceMeters>45010.674448753</DistanceMeters>
          </Trackpoint>
          <Trackpoint>
            <Time>2021-08-31T05:57:00.000Z</Time>
            <Position>
              <LatitudeDegrees>42.05641449429094791412353515625</LatitudeDegrees>
              <LongitudeDegrees>2.24503769539296627044677734375</LongitudeDegrees>
            </Position>
            <AltitudeMeters>516.4000244140625</AltitudeMeters>
            <DistanceMeters>45022.004566436</DistanceMeters>
          </Trackpoint>
          <Trackpoint>
            <Time>2021-08-31T05:57:02.000Z</Time>
            <Position>
              <LatitudeDegrees>42.05648439936339855194091796875</LatitudeDegrees>
              <LongitudeDegrees>2.2450671158730983734130859375</LongitudeDegrees>
            </Position>
            <AltitudeMeters>516.79998779296875</AltitudeMeters>
            <DistanceMeters>45030.155842562</DistanceMeters>
          </Trackpoint>
          <Trackpoint>
            <Time>2021-08-31T05:57:05.000Z</Time>
            <Position>
              <LatitudeDegrees>42.0566046796739101409912109375</LatitudeDegrees>
              <LongitudeDegrees>2.245135009288787841796875</LongitudeDegrees>
            </Position>
            <AltitudeMeters>517.4000244140625</AltitudeMeters>
            <DistanceMeters>45044.671620314</DistanceMeters>
          </Trackpoint>
          <Trackpoint>
            <Time>2021-08-31T05:57:06.000Z</Time>
            <Position>
              <LatitudeDegrees>42.056648097932338714599609375</LatitudeDegrees>
              <LongitudeDegrees>2.24517524242401123046875</LongitudeDegrees>
            </Position>
            <AltitudeMeters>517.79998779296875</AltitudeMeters>
            <DistanceMeters>45050.537932727</DistanceMeters>
          </Trackpoint>
          <Trackpoint>
            <Time>2021-08-31T05:57:07.000Z</Time>
            <Position>
              <LatitudeDegrees>42.056680619716644287109375</LatitudeDegrees>
              <LongitudeDegrees>2.2452337481081485748291015625</LongitudeDegrees>
            </Position>
            <AltitudeMeters>518.20001220703125</AltitudeMeters>
            <DistanceMeters>45056.57792518</DistanceMeters>
          </Trackpoint>
          <Trackpoint>
            <Time>2021-08-31T05:57:09.000Z</Time>
            <Position>
              <LatitudeDegrees>42.05670182593166828155517578125</LatitudeDegrees>
              <LongitudeDegrees>2.24535964429378509521484375</LongitudeDegrees>
            </Position>
            <AltitudeMeters>518.5999755859375</AltitudeMeters>
            <DistanceMeters>45067.246340409</DistanceMeters>
          </Trackpoint>
          <Trackpoint>
            <Time>2021-08-31T05:57:16.000Z</Time>
            <Position>
              <LatitudeDegrees>42.056615240871906280517578125</LatitudeDegrees>
              <LongitudeDegrees>2.245791144669055938720703125</LongitudeDegrees>
            </Position>
            <AltitudeMeters>518.20001220703125</AltitudeMeters>
            <DistanceMeters>45104.184728986</DistanceMeters>
          </Trackpoint>
          <Trackpoint>
            <Time>2021-08-31T05:57:18.000Z</Time>
            <Position>
              <LatitudeDegrees>42.05664901994168758392333984375</LatitudeDegrees>
              <LongitudeDegrees>2.2458925656974315643310546875</LongitudeDegrees>
            </Position>
            <AltitudeMeters>518.5999755859375</AltitudeMeters>
            <DistanceMeters>45113.370426254</DistanceMeters>
          </Trackpoint>
          <Trackpoint>
            <Time>2021-08-31T05:57:19.000Z</Time>
            <Position>
              <LatitudeDegrees>42.05668640322983264923095703125</LatitudeDegrees>
              <LongitudeDegrees>2.24591511301696300506591796875</LongitudeDegrees>
            </Position>
            <AltitudeMeters>519</AltitudeMeters>
            <DistanceMeters>45117.929728391</DistanceMeters>
          </Trackpoint>
          <Trackpoint>
            <Time>2021-08-31T05:57:22.000Z</Time>
            <Position>
              <LatitudeDegrees>42.056796289980411529541015625</LatitudeDegrees>
              <LongitudeDegrees>2.24597428925335407257080078125</LongitudeDegrees>
            </Position>
            <AltitudeMeters>520.20001220703125</AltitudeMeters>
            <DistanceMeters>45131.101815879</DistanceMeters>
          </Trackpoint>
          <Trackpoint>
            <Time>2021-08-31T05:57:23.000Z</Time>
            <Position>
              <LatitudeDegrees>42.05681414343416690826416015625</LatitudeDegrees>
              <LongitudeDegrees>2.24601636640727519989013671875</LongitudeDegrees>
            </Position>
            <AltitudeMeters>520.4000244140625</AltitudeMeters>
            <DistanceMeters>45135.106490118</DistanceMeters>
          </Trackpoint>
          <Trackpoint>
            <Time>2021-08-31T05:57:25.000Z</Time>
            <Position>
              <LatitudeDegrees>42.05681129358708858489990234375</LatitudeDegrees>
              <LongitudeDegrees>2.24611611105501651763916015625</LongitudeDegrees>
            </Position>
            <AltitudeMeters>520.4000244140625</AltitudeMeters>
            <DistanceMeters>45143.354677551</DistanceMeters>
          </Trackpoint>
          <Trackpoint>
            <Time>2021-08-31T05:57:27.000Z</Time>
            <Position>
              <LatitudeDegrees>42.05679285340011119842529296875</LatitudeDegrees>
              <LongitudeDegrees>2.2462130896747112274169921875</LongitudeDegrees>
            </Position>
            <AltitudeMeters>520.20001220703125</AltitudeMeters>
            <DistanceMeters>45151.627461204</DistanceMeters>
          </Trackpoint>
          <Trackpoint>
            <Time>2021-08-31T05:57:32.000Z</Time>
            <Position>
              <LatitudeDegrees>42.0567290671169757843017578125</LatitudeDegrees>
              <LongitudeDegrees>2.24642657674849033355712890625</LongitudeDegrees>
            </Position>
            <AltitudeMeters>519.4000244140625</AltitudeMeters>
            <DistanceMeters>45170.644678708</DistanceMeters>
          </Trackpoint>
          <Trackpoint>
            <Time>2021-08-31T05:57:37.000Z</Time>
            <Position>
              <LatitudeDegrees>42.056680954992771148681640625</LatitudeDegrees>
              <LongitudeDegrees>2.2466563247144222259521484375</LongitudeDegrees>
            </Position>
            <AltitudeMeters>519</AltitudeMeters>
            <DistanceMeters>45190.371821796</DistanceMeters>
          </Trackpoint>
          <Trackpoint>
            <Time>2021-08-31T05:57:43.000Z</Time>
            <Position>
              <LatitudeDegrees>42.05670853145420551300048828125</LatitudeDegrees>
              <LongitudeDegrees>2.24697978235781192779541015625</LongitudeDegrees>
            </Position>
            <AltitudeMeters>519.5999755859375</AltitudeMeters>
            <DistanceMeters>45217.277809948</DistanceMeters>
          </Trackpoint>
          <Trackpoint>
            <Time>2021-08-31T05:57:51.000Z</Time>
            <Position>
              <LatitudeDegrees>42.05681397579610347747802734375</LatitudeDegrees>
              <LongitudeDegrees>2.24737490527331829071044921875</LongitudeDegrees>
            </Position>
            <AltitudeMeters>521</AltitudeMeters>
            <DistanceMeters>45251.975705734</DistanceMeters>
          </Trackpoint>
          <Trackpoint>
            <Time>2021-08-31T05:57:54.000Z</Time>
            <Position>
              <LatitudeDegrees>42.056899555027484893798828125</LatitudeDegrees>
              <LongitudeDegrees>2.24745403043925762176513671875</LongitudeDegrees>
            </Position>
            <AltitudeMeters>522</AltitudeMeters>
            <DistanceMeters>45263.529172313</DistanceMeters>
          </Trackpoint>
          <Trackpoint>
            <Time>2021-08-31T05:57:59.000Z</Time>
            <Position>
              <LatitudeDegrees>42.05707280896604061126708984375</LatitudeDegrees>
              <LongitudeDegrees>2.24745704792439937591552734375</LongitudeDegrees>
            </Position>
            <AltitudeMeters>524.4000244140625</AltitudeMeters>
            <DistanceMeters>45282.814211292</DistanceMeters>
          </Trackpoint>
          <Trackpoint>
            <Time>2021-08-31T05:58:04.000Z</Time>
            <Position>
              <LatitudeDegrees>42.05723491497337818145751953125</LatitudeDegrees>
              <LongitudeDegrees>2.24754254333674907684326171875</LongitudeDegrees>
            </Position>
            <AltitudeMeters>526.4000244140625</AltitudeMeters>
            <DistanceMeters>45302.191041489</DistanceMeters>
          </Trackpoint>
          <Trackpoint>
            <Time>2021-08-31T05:58:13.000Z</Time>
            <Position>
              <LatitudeDegrees>42.05750615336000919342041015625</LatitudeDegrees>
              <LongitudeDegrees>2.24775209091603755950927734375</LongitudeDegrees>
            </Position>
            <AltitudeMeters>529.5999755859375</AltitudeMeters>
            <DistanceMeters>45336.994437789</DistanceMeters>
          </Trackpoint>
          <Trackpoint>
            <Time>2021-08-31T05:58:18.000Z</Time>
            <Position>
              <LatitudeDegrees>42.0576743781566619873046875</LatitudeDegrees>
              <LongitudeDegrees>2.24775485694408416748046875</LongitudeDegrees>
            </Position>
            <AltitudeMeters>531.4000244140625</AltitudeMeters>
            <DistanceMeters>45355.719764711</DistanceMeters>
          </Trackpoint>
          <Trackpoint>
            <Time>2021-08-31T05:58:24.000Z</Time>
            <Position>
              <LatitudeDegrees>42.0578728616237640380859375</LatitudeDegrees>
              <LongitudeDegrees>2.247684113681316375732421875</LongitudeDegrees>
            </Position>
            <AltitudeMeters>534.4000244140625</AltitudeMeters>
            <DistanceMeters>45378.571862007</DistanceMeters>
          </Trackpoint>
          <Trackpoint>
            <Time>2021-08-31T05:58:30.000Z</Time>
            <Position>
              <LatitudeDegrees>42.0580440200865268707275390625</LatitudeDegrees>
              <LongitudeDegrees>2.247654609382152557373046875</LongitudeDegrees>
            </Position>
            <AltitudeMeters>537</AltitudeMeters>
            <DistanceMeters>45397.777369876</DistanceMeters>
          </Trackpoint>
          <Trackpoint>
            <Time>2021-08-31T05:58:36.000Z</Time>
            <Position>
              <LatitudeDegrees>42.05822129733860492706298828125</LatitudeDegrees>
              <LongitudeDegrees>2.247699536383152008056640625</LongitudeDegrees>
            </Position>
            <AltitudeMeters>539.20001220703125</AltitudeMeters>
            <DistanceMeters>45417.854785358</DistanceMeters>
          </Trackpoint>
          <Trackpoint>
            <Time>2021-08-31T05:58:40.000Z</Time>
            <Position>
              <LatitudeDegrees>42.0583179406821727752685546875</LatitudeDegrees>
              <LongitudeDegrees>2.2477580420672893524169921875</LongitudeDegrees>
            </Position>
            <AltitudeMeters>540</AltitudeMeters>
            <DistanceMeters>45429.64805621</DistanceMeters>
          </Trackpoint>
          <Trackpoint>
            <Time>2021-08-31T05:58:46.000Z</Time>
            <Position>
              <LatitudeDegrees>42.05846923403441905975341796875</LatitudeDegrees>
              <LongitudeDegrees>2.24783071316778659820556640625</LongitudeDegrees>
            </Position>
            <AltitudeMeters>540.79998779296875</AltitudeMeters>
            <DistanceMeters>45447.526215674</DistanceMeters>
          </Trackpoint>
          <Trackpoint>
            <Time>2021-08-31T05:58:51.000Z</Time>
            <Position>
              <LatitudeDegrees>42.05860443413257598876953125</LatitudeDegrees>
              <LongitudeDegrees>2.24781394936144351959228515625</LongitudeDegrees>
            </Position>
            <AltitudeMeters>541.79998779296875</AltitudeMeters>
            <DistanceMeters>45462.638152455</DistanceMeters>
          </Trackpoint>
          <Trackpoint>
            <Time>2021-08-31T05:58:58.000Z</Time>
            <Position>
              <LatitudeDegrees>42.05874047242105007171630859375</LatitudeDegrees>
              <LongitudeDegrees>2.24762208759784698486328125</LongitudeDegrees>
            </Position>
            <AltitudeMeters>546.4000244140625</AltitudeMeters>
            <DistanceMeters>45484.561538343</DistanceMeters>
          </Trackpoint>
          <Trackpoint>
            <Time>2021-08-31T05:59:07.000Z</Time>
            <Position>
              <LatitudeDegrees>42.058867625892162322998046875</LatitudeDegrees>
              <LongitudeDegrees>2.247303240001201629638671875</LongitudeDegrees>
            </Position>
            <AltitudeMeters>550.5999755859375</AltitudeMeters>
            <DistanceMeters>45514.470356987</DistanceMeters>
          </Trackpoint>
          <Trackpoint>
            <Time>2021-08-31T05:59:14.000Z</Time>
            <Position>
              <LatitudeDegrees>42.0589465834200382232666015625</LatitudeDegrees>
              <LongitudeDegrees>2.24701347760856151580810546875</LongitudeDegrees>
            </Position>
            <AltitudeMeters>553.4000244140625</AltitudeMeters>
            <DistanceMeters>45539.97719818</DistanceMeters>
          </Trackpoint>
          <Trackpoint>
            <Time>2021-08-31T05:59:22.000Z</Time>
            <Position>
              <LatitudeDegrees>42.0589995570480823516845703125</LatitudeDegrees>
              <LongitudeDegrees>2.24668792448937892913818359375</LongitudeDegrees>
            </Position>
            <AltitudeMeters>555.79998779296875</AltitudeMeters>
            <DistanceMeters>45567.518228683</DistanceMeters>
          </Trackpoint>
          <Trackpoint>
            <Time>2021-08-31T05:59:30.000Z</Time>
            <Position>
              <LatitudeDegrees>42.0591162331402301788330078125</LatitudeDegrees>
              <LongitudeDegrees>2.24640612490475177764892578125</LongitudeDegrees>
            </Position>
            <AltitudeMeters>558</AltitudeMeters>
            <DistanceMeters>45594.181309118</DistanceMeters>
          </Trackpoint>
          <Trackpoint>
            <Time>2021-08-31T05:59:37.000Z</Time>
            <Position>
              <LatitudeDegrees>42.059223018586635589599609375</LatitudeDegrees>
              <LongitudeDegrees>2.2461621277034282684326171875</LongitudeDegrees>
            </Position>
            <AltitudeMeters>559.4000244140625</AltitudeMeters>
            <DistanceMeters>45617.586834481</DistanceMeters>
          </Trackpoint>
          <Trackpoint>
            <Time>2021-08-31T05:59:43.000Z</Time>
            <Position>
              <LatitudeDegrees>42.0592976175248622894287109375</LatitudeDegrees>
              <LongitudeDegrees>2.24590455181896686553955078125</LongitudeDegrees>
            </Position>
            <AltitudeMeters>561.20001220703125</AltitudeMeters>
            <DistanceMeters>45640.43399183</DistanceMeters>
          </Trackpoint>
          <Trackpoint>
            <Time>2021-08-31T05:59:51.000Z</Time>
            <Position>
              <LatitudeDegrees>42.05937347374856472015380859375</LatitudeDegrees>
              <LongitudeDegrees>2.24552468396723270416259765625</LongitudeDegrees>
            </Position>
            <AltitudeMeters>565.5999755859375</AltitudeMeters>
            <DistanceMeters>45672.940490492</DistanceMeters>
          </Trackpoint>
          <Trackpoint>
            <Time>2021-08-31T05:59:57.000Z</Time>
            <Position>
              <LatitudeDegrees>42.05939275212585926055908203125</LatitudeDegrees>
              <LongitudeDegrees>2.24525897763669490814208984375</LongitudeDegrees>
            </Position>
            <AltitudeMeters>567.79998779296875</AltitudeMeters>
            <DistanceMeters>45695.001838143</DistanceMeters>
          </Trackpoint>
          <Trackpoint>
            <Time>2021-08-31T06:00:03.000Z</Time>
            <Position>
              <LatitudeDegrees>42.059342376887798309326171875</LatitudeDegrees>
              <LongitudeDegrees>2.24501539953052997589111328125</LongitudeDegrees>
            </Position>
            <AltitudeMeters>566.79998779296875</AltitudeMeters>
            <DistanceMeters>45715.896481856</DistanceMeters>
          </Trackpoint>
          <Trackpoint>
            <Time>2021-08-31T06:00:10.000Z</Time>
            <Position>
              <LatitudeDegrees>42.05924053676426410675048828125</LatitudeDegrees>
              <LongitudeDegrees>2.24471482448279857635498046875</LongitudeDegrees>
            </Position>
            <AltitudeMeters>566.5999755859375</AltitudeMeters>
            <DistanceMeters>45743.198766565</DistanceMeters>
          </Trackpoint>
          <Trackpoint>
            <Time>2021-08-31T06:00:18.000Z</Time>
            <Position>
              <LatitudeDegrees>42.05912520177662372589111328125</LatitudeDegrees>
              <LongitudeDegrees>2.24436613731086254119873046875</LongitudeDegrees>
            </Position>
            <AltitudeMeters>566.79998779296875</AltitudeMeters>
            <DistanceMeters>45774.743055802</DistanceMeters>
          </Trackpoint>
          <Trackpoint>
            <Time>2021-08-31T06:00:26.000Z</Time>
            <Position>
              <LatitudeDegrees>42.0590317435562610626220703125</LatitudeDegrees>
              <LongitudeDegrees>2.2440042905509471893310546875</LongitudeDegrees>
            </Position>
            <AltitudeMeters>568.4000244140625</AltitudeMeters>
            <DistanceMeters>45806.402500288</DistanceMeters>
          </Trackpoint>
          <Trackpoint>
            <Time>2021-08-31T06:00:32.000Z</Time>
            <Position>
              <LatitudeDegrees>42.05905529670417308807373046875</LatitudeDegrees>
              <LongitudeDegrees>2.24373598583042621612548828125</LongitudeDegrees>
            </Position>
            <AltitudeMeters>569</AltitudeMeters>
            <DistanceMeters>45828.72872298</DistanceMeters>
          </Trackpoint>
          <Trackpoint>
            <Time>2021-08-31T06:00:37.000Z</Time>
            <Position>
              <LatitudeDegrees>42.05910332500934600830078125</LatitudeDegrees>
              <LongitudeDegrees>2.24349609576165676116943359375</LongitudeDegrees>
            </Position>
            <AltitudeMeters>569.5999755859375</AltitudeMeters>
            <DistanceMeters>45849.260651499</DistanceMeters>
          </Trackpoint>
          <Trackpoint>
            <Time>2021-08-31T06:00:40.000Z</Time>
            <Position>
              <LatitudeDegrees>42.05912553705275058746337890625</LatitudeDegrees>
              <LongitudeDegrees>2.2433660924434661865234375</LongitudeDegrees>
            </Position>
            <AltitudeMeters>570</AltitudeMeters>
            <DistanceMeters>45860.284569531</DistanceMeters>
          </Trackpoint>
          <Trackpoint>
            <Time>2021-08-31T06:00:41.000Z</Time>
            <Position>
              <LatitudeDegrees>42.05912050791084766387939453125</LatitudeDegrees>
              <LongitudeDegrees>2.2433142922818660736083984375</LongitudeDegrees>
            </Position>
            <AltitudeMeters>570.20001220703125</AltitudeMeters>
            <DistanceMeters>45864.601753542</DistanceMeters>
          </Trackpoint>
          <Trackpoint>
            <Time>2021-08-31T06:00:45.000Z</Time>
            <Position>
              <LatitudeDegrees>42.059108354151248931884765625</LatitudeDegrees>
              <LongitudeDegrees>2.243125699460506439208984375</LongitudeDegrees>
            </Position>
            <AltitudeMeters>568.20001220703125</AltitudeMeters>
            <DistanceMeters>45880.245125034</DistanceMeters>
          </Trackpoint>
          <Trackpoint>
            <Time>2021-08-31T06:00:47.000Z</Time>
            <Position>
              <LatitudeDegrees>42.05907038412988185882568359375</LatitudeDegrees>
              <LongitudeDegrees>2.24301539361476898193359375</LongitudeDegrees>
            </Position>
            <AltitudeMeters>567.20001220703125</AltitudeMeters>
            <DistanceMeters>45890.292374636</DistanceMeters>
          </Trackpoint>
          <Trackpoint>
            <Time>2021-08-31T06:00:48.000Z</Time>
            <Position>
              <LatitudeDegrees>42.0590361021459102630615234375</LatitudeDegrees>
              <LongitudeDegrees>2.24296434782445430755615234375</LongitudeDegrees>
            </Position>
            <AltitudeMeters>566.79998779296875</AltitudeMeters>
            <DistanceMeters>45895.98049945</DistanceMeters>
          </Trackpoint>
          <Trackpoint>
            <Time>2021-08-31T06:00:49.000Z</Time>
            <Position>
              <LatitudeDegrees>42.05898799002170562744140625</LatitudeDegrees>
              <LongitudeDegrees>2.24291506223380565643310546875</LongitudeDegrees>
            </Position>
            <AltitudeMeters>566.5999755859375</AltitudeMeters>
            <DistanceMeters>45902.707961314</DistanceMeters>
          </Trackpoint>
          <Trackpoint>
            <Time>2021-08-31T06:00:52.000Z</Time>
            <Position>
              <LatitudeDegrees>42.05881557427346706390380859375</LatitudeDegrees>
              <LongitudeDegrees>2.242781035602092742919921875</LongitudeDegrees>
            </Position>
            <AltitudeMeters>566.20001220703125</AltitudeMeters>
            <DistanceMeters>45924.864678261</DistanceMeters>
          </Trackpoint>
          <Trackpoint>
            <Time>2021-08-31T06:00:55.000Z</Time>
            <Position>
              <LatitudeDegrees>42.05859881825745105743408203125</LatitudeDegrees>
              <LongitudeDegrees>2.2426239587366580963134765625</LongitudeDegrees>
            </Position>
            <AltitudeMeters>565.79998779296875</AltitudeMeters>
            <DistanceMeters>45952.260403723</DistanceMeters>
          </Trackpoint>
          <Trackpoint>
            <Time>2021-08-31T06:00:57.000Z</Time>
            <Position>
              <LatitudeDegrees>42.05845498479902744293212890625</LatitudeDegrees>
              <LongitudeDegrees>2.24246461875736713409423828125</LongitudeDegrees>
            </Position>
            <AltitudeMeters>565</AltitudeMeters>
            <DistanceMeters>45972.988864769</DistanceMeters>
          </Trackpoint>
          <Trackpoint>
            <Time>2021-08-31T06:00:58.000Z</Time>
            <Position>
              <LatitudeDegrees>42.05838273279368877410888671875</LatitudeDegrees>
              <LongitudeDegrees>2.24236487410962581634521484375</LongitudeDegrees>
            </Position>
            <AltitudeMeters>564.79998779296875</AltitudeMeters>
            <DistanceMeters>45984.504753908</DistanceMeters>
          </Trackpoint>
          <Trackpoint>
            <Time>2021-08-31T06:00:59.000Z</Time>
            <Position>
              <LatitudeDegrees>42.058309055864810943603515625</LatitudeDegrees>
              <LongitudeDegrees>2.24224828183650970458984375</LongitudeDegrees>
            </Position>
            <AltitudeMeters>564.79998779296875</AltitudeMeters>
            <DistanceMeters>45997.156518016</DistanceMeters>
          </Trackpoint>
          <Trackpoint>
            <Time>2021-08-31T06:01:01.000Z</Time>
            <Position>
              <LatitudeDegrees>42.05820671282708644866943359375</LatitudeDegrees>
              <LongitudeDegrees>2.24198550917208194732666015625</LongitudeDegrees>
            </Position>
            <AltitudeMeters>563.5999755859375</AltitudeMeters>
            <DistanceMeters>46021.677829772</DistanceMeters>
          </Trackpoint>
          <Trackpoint>
            <Time>2021-08-31T06:01:06.000Z</Time>
            <Position>
              <LatitudeDegrees>42.05806757323443889617919921875</LatitudeDegrees>
              <LongitudeDegrees>2.24136239849030971527099609375</LongitudeDegrees>
            </Position>
            <AltitudeMeters>562.79998779296875</AltitudeMeters>
            <DistanceMeters>46075.448845352</DistanceMeters>
          </Trackpoint>
          <Trackpoint>
            <Time>2021-08-31T06:01:09.000Z</Time>
            <Position>
              <LatitudeDegrees>42.05802147276699542999267578125</LatitudeDegrees>
              <LongitudeDegrees>2.24104975350201129913330078125</LongitudeDegrees>
            </Position>
            <AltitudeMeters>564.5999755859375</AltitudeMeters>
            <DistanceMeters>46101.789592373</DistanceMeters>
          </Trackpoint>
          <Trackpoint>
            <Time>2021-08-31T06:01:10.000Z</Time>
            <Position>
              <LatitudeDegrees>42.0580007694661617279052734375</LatitudeDegrees>
              <LongitudeDegrees>2.24096174351871013641357421875</LongitudeDegrees>
            </Position>
            <AltitudeMeters>565</AltitudeMeters>
            <DistanceMeters>46109.419000788</DistanceMeters>
          </Trackpoint>
          <Trackpoint>
            <Time>2021-08-31T06:01:11.000Z</Time>
            <Position>
              <LatitudeDegrees>42.0579721033573150634765625</LatitudeDegrees>
              <LongitudeDegrees>2.2408905811607837677001953125</LongitudeDegrees>
            </Position>
            <AltitudeMeters>565.4000244140625</AltitudeMeters>
            <DistanceMeters>46116.110123191</DistanceMeters>
          </Trackpoint>
          <Trackpoint>
            <Time>2021-08-31T06:01:13.000Z</Time>
            <Position>
              <LatitudeDegrees>42.0579072274267673492431640625</LatitudeDegrees>
              <LongitudeDegrees>2.24078035913407802581787109375</LongitudeDegrees>
            </Position>
            <AltitudeMeters>565.79998779296875</AltitudeMeters>
            <DistanceMeters>46127.733720042</DistanceMeters>
          </Trackpoint>
          <Trackpoint>
            <Time>2021-08-31T06:01:22.000Z</Time>
            <Position>
              <LatitudeDegrees>42.05760036595165729522705078125</LatitudeDegrees>
              <LongitudeDegrees>2.24040803499519824981689453125</LongitudeDegrees>
            </Position>
            <AltitudeMeters>567</AltitudeMeters>
            <DistanceMeters>46173.703279854</DistanceMeters>
          </Trackpoint>
          <Trackpoint>
            <Time>2021-08-31T06:01:31.000Z</Time>
            <Position>
              <LatitudeDegrees>42.057311944663524627685546875</LatitudeDegrees>
              <LongitudeDegrees>2.24006320349872112274169921875</LongitudeDegrees>
            </Position>
            <AltitudeMeters>568</AltitudeMeters>
            <DistanceMeters>46216.628436094</DistanceMeters>
          </Trackpoint>
          <Trackpoint>
            <Time>2021-08-31T06:01:37.000Z</Time>
            <Position>
              <LatitudeDegrees>42.05711781978607177734375</LatitudeDegrees>
              <LongitudeDegrees>2.23983471281826496124267578125</LongitudeDegrees>
            </Position>
            <AltitudeMeters>568.20001220703125</AltitudeMeters>
            <DistanceMeters>46245.323042387</DistanceMeters>
          </Trackpoint>
          <Trackpoint>
            <Time>2021-08-31T06:01:39.000Z</Time>
            <Position>
              <LatitudeDegrees>42.0570494234561920166015625</LatitudeDegrees>
              <LongitudeDegrees>2.23976765759289264678955078125</LongitudeDegrees>
            </Position>
            <AltitudeMeters>567.79998779296875</AltitudeMeters>
            <DistanceMeters>46254.738842434</DistanceMeters>
          </Trackpoint>
          <Trackpoint>
            <Time>2021-08-31T06:01:47.000Z</Time>
            <Position>
              <LatitudeDegrees>42.0567287318408489227294921875</LatitudeDegrees>
              <LongitudeDegrees>2.23953388631343841552734375</LongitudeDegrees>
            </Position>
            <AltitudeMeters>566.79998779296875</AltitudeMeters>
            <DistanceMeters>46295.325151514</DistanceMeters>
          </Trackpoint>
          <Trackpoint>
            <Time>2021-08-31T06:01:53.000Z</Time>
            <Position>
              <LatitudeDegrees>42.05644735135138034820556640625</LatitudeDegrees>
              <LongitudeDegrees>2.23941947333514690399169921875</LongitudeDegrees>
            </Position>
            <AltitudeMeters>566.20001220703125</AltitudeMeters>
            <DistanceMeters>46328.03946948</DistanceMeters>
          </Trackpoint>
          <Trackpoint>
            <Time>2021-08-31T06:01:54.000Z</Time>
            <Position>
              <LatitudeDegrees>42.05640058033168315887451171875</LatitudeDegrees>
              <LongitudeDegrees>2.239381335675716400146484375</LongitudeDegrees>
            </Position>
            <AltitudeMeters>566</AltitudeMeters>
            <DistanceMeters>46334.124890049</DistanceMeters>
          </Trackpoint>
          <Trackpoint>
            <Time>2021-08-31T06:01:56.000Z</Time>
            <Position>
              <LatitudeDegrees>42.05632162280380725860595703125</LatitudeDegrees>
              <LongitudeDegrees>2.23929072730243206024169921875</LongitudeDegrees>
            </Position>
            <AltitudeMeters>565.79998779296875</AltitudeMeters>
            <DistanceMeters>46345.67053808</DistanceMeters>
          </Trackpoint>
          <Trackpoint>
            <Time>2021-08-31T06:01:59.000Z</Time>
            <Position>
              <LatitudeDegrees>42.05622858367860317230224609375</LatitudeDegrees>
              <LongitudeDegrees>2.239129878580570220947265625</LongitudeDegrees>
            </Position>
            <AltitudeMeters>565.5999755859375</AltitudeMeters>
            <DistanceMeters>46362.520572607</DistanceMeters>
          </Trackpoint>
          <Trackpoint>
            <Time>2021-08-31T06:02:01.000Z</Time>
            <Position>
              <LatitudeDegrees>42.05616756342351436614990234375</LatitudeDegrees>
              <LongitudeDegrees>2.23901890218257904052734375</LongitudeDegrees>
            </Position>
            <AltitudeMeters>565.79998779296875</AltitudeMeters>
            <DistanceMeters>46373.932485789</DistanceMeters>
          </Trackpoint>
          <Trackpoint>
            <Time>2021-08-31T06:02:04.000Z</Time>
            <Position>
              <LatitudeDegrees>42.05605030059814453125</LatitudeDegrees>
              <LongitudeDegrees>2.2388976998627185821533203125</LongitudeDegrees>
            </Position>
            <AltitudeMeters>565.79998779296875</AltitudeMeters>
            <DistanceMeters>46390.384461699</DistanceMeters>
          </Trackpoint>
          <Trackpoint>
            <Time>2021-08-31T06:02:06.000Z</Time>
            <Position>
              <LatitudeDegrees>42.0559926331043243408203125</LatitudeDegrees>
              <LongitudeDegrees>2.2387971170246601104736328125</LongitudeDegrees>
            </Position>
            <AltitudeMeters>566</AltitudeMeters>
            <DistanceMeters>46400.886096029</DistanceMeters>
          </Trackpoint>
          <Trackpoint>
            <Time>2021-08-31T06:02:08.000Z</Time>
            <Position>
              <LatitudeDegrees>42.0559612847864627838134765625</LatitudeDegrees>
              <LongitudeDegrees>2.23868270404636859893798828125</LongitudeDegrees>
            </Position>
            <AltitudeMeters>566.20001220703125</AltitudeMeters>
            <DistanceMeters>46410.964305187</DistanceMeters>
          </Trackpoint>
          <Trackpoint>
            <Time>2021-08-31T06:02:09.000Z</Time>
            <Position>
              <LatitudeDegrees>42.05595114268362522125244140625</LatitudeDegrees>
              <LongitudeDegrees>2.23862486891448497772216796875</LongitudeDegrees>
            </Position>
            <AltitudeMeters>566.4000244140625</AltitudeMeters>
            <DistanceMeters>46415.874529633</DistanceMeters>
          </Trackpoint>
          <Trackpoint>
            <Time>2021-08-31T06:02:12.000Z</Time>
            <Position>
              <LatitudeDegrees>42.05593571998178958892822265625</LatitudeDegrees>
              <LongitudeDegrees>2.23844868130981922149658203125</LongitudeDegrees>
            </Position>
            <AltitudeMeters>566.79998779296875</AltitudeMeters>
            <DistanceMeters>46430.535768996</DistanceMeters>
          </Trackpoint>
          <Trackpoint>
            <Time>2021-08-31T06:02:14.000Z</Time>
            <Position>
              <LatitudeDegrees>42.05594410188496112823486328125</LatitudeDegrees>
              <LongitudeDegrees>2.23833418451249599456787109375</LongitudeDegrees>
            </Position>
            <AltitudeMeters>567.4000244140625</AltitudeMeters>
            <DistanceMeters>46440.044140327</DistanceMeters>
          </Trackpoint>
          <Trackpoint>
            <Time>2021-08-31T06:02:16.000Z</Time>
            <Position>
              <LatitudeDegrees>42.05596388317644596099853515625</LatitudeDegrees>
              <LongitudeDegrees>2.23822874017059803009033203125</LongitudeDegrees>
            </Position>
            <AltitudeMeters>567.4000244140625</AltitudeMeters>
            <DistanceMeters>46449.032080239</DistanceMeters>
          </Trackpoint>
          <Trackpoint>
            <Time>2021-08-31T06:02:18.000Z</Time>
            <Position>
              <LatitudeDegrees>42.056009061634540557861328125</LatitudeDegrees>
              <LongitudeDegrees>2.2381382994353771209716796875</LongitudeDegrees>
            </Position>
            <AltitudeMeters>567</AltitudeMeters>
            <DistanceMeters>46458.040091503</DistanceMeters>
          </Trackpoint>
          <Trackpoint>
            <Time>2021-08-31T06:02:19.000Z</Time>
            <Position>
              <LatitudeDegrees>42.05604032613337039947509765625</LatitudeDegrees>
              <LongitudeDegrees>2.23809949122369289398193359375</LongitudeDegrees>
            </Position>
            <AltitudeMeters>566.79998779296875</AltitudeMeters>
            <DistanceMeters>46462.772383715</DistanceMeters>
          </Trackpoint>
          <Trackpoint>
            <Time>2021-08-31T06:02:26.000Z</Time>
            <Position>
              <LatitudeDegrees>42.0562875084578990936279296875</LatitudeDegrees>
              <LongitudeDegrees>2.23780645988881587982177734375</LongitudeDegrees>
            </Position>
            <AltitudeMeters>567.20001220703125</AltitudeMeters>
            <DistanceMeters>46499.42388071</DistanceMeters>
          </Trackpoint>
          <Trackpoint>
            <Time>2021-08-31T06:02:30.000Z</Time>
            <Position>
              <LatitudeDegrees>42.0564930327236652374267578125</LatitudeDegrees>
              <LongitudeDegrees>2.23772414959967136383056640625</LongitudeDegrees>
            </Position>
            <AltitudeMeters>569.5999755859375</AltitudeMeters>
            <DistanceMeters>46523.289022265</DistanceMeters>
          </Trackpoint>
          <Trackpoint>
            <Time>2021-08-31T06:02:31.000Z</Time>
            <Position>
              <LatitudeDegrees>42.05654944293200969696044921875</LatitudeDegrees>
              <LongitudeDegrees>2.23771912045776844024658203125</LongitudeDegrees>
            </Position>
            <AltitudeMeters>570.20001220703125</AltitudeMeters>
            <DistanceMeters>46529.580910307</DistanceMeters>
          </Trackpoint>
          <Trackpoint>
            <Time>2021-08-31T06:02:32.000Z</Time>
            <Position>
              <LatitudeDegrees>42.0566070266067981719970703125</LatitudeDegrees>
              <LongitudeDegrees>2.23773705773055553436279296875</LongitudeDegrees>
            </Position>
            <AltitudeMeters>570.79998779296875</AltitudeMeters>
            <DistanceMeters>46536.159065544</DistanceMeters>
          </Trackpoint>
          <Trackpoint>
            <Time>2021-08-31T06:02:34.000Z</Time>
            <Position>
              <LatitudeDegrees>42.056688331067562103271484375</LatitudeDegrees>
              <LongitudeDegrees>2.23783814348280429840087890625</LongitudeDegrees>
            </Position>
            <AltitudeMeters>570.79998779296875</AltitudeMeters>
            <DistanceMeters>46548.47520228</DistanceMeters>
          </Trackpoint>
          <Trackpoint>
            <Time>2021-08-31T06:02:37.000Z</Time>
            <Position>
              <LatitudeDegrees>42.05674557946622371673583984375</LatitudeDegrees>
              <LongitudeDegrees>2.238000333309173583984375</LongitudeDegrees>
            </Position>
            <AltitudeMeters>570.79998779296875</AltitudeMeters>
            <DistanceMeters>46563.316415998</DistanceMeters>
          </Trackpoint>
          <Trackpoint>
            <Time>2021-08-31T06:02:38.000Z</Time>
            <Position>
              <LatitudeDegrees>42.0567676238715648651123046875</LatitudeDegrees>
              <LongitudeDegrees>2.238051630556583404541015625</LongitudeDegrees>
            </Position>
            <AltitudeMeters>571</AltitudeMeters>
            <DistanceMeters>46568.214672128</DistanceMeters>
          </Trackpoint>
          <Trackpoint>
            <Time>2021-08-31T06:02:40.000Z</Time>
            <Position>
              <LatitudeDegrees>42.056810371577739715576171875</LatitudeDegrees>
              <LongitudeDegrees>2.23816017620265483856201171875</LongitudeDegrees>
            </Position>
            <AltitudeMeters>571</AltitudeMeters>
            <DistanceMeters>46578.36831102</DistanceMeters>
          </Trackpoint>
          <Trackpoint>
            <Time>2021-08-31T06:02:42.000Z</Time>
            <Position>
              <LatitudeDegrees>42.056865692138671875</LatitudeDegrees>
              <LongitudeDegrees>2.2382512874901294708251953125</LongitudeDegrees>
            </Position>
            <AltitudeMeters>571</AltitudeMeters>
            <DistanceMeters>46588.094516901</DistanceMeters>
          </Trackpoint>
          <Trackpoint>
            <Time>2021-08-31T06:02:44.000Z</Time>
            <Position>
              <LatitudeDegrees>42.05695864744484424591064453125</LatitudeDegrees>
              <LongitudeDegrees>2.2382720746099948883056640625</LongitudeDegrees>
            </Position>
            <AltitudeMeters>571.4000244140625</AltitudeMeters>
            <DistanceMeters>46598.582814724</DistanceMeters>
          </Trackpoint>
          <Trackpoint>
            <Time>2021-08-31T06:02:45.000Z</Time>
            <Position>
              <LatitudeDegrees>42.057002484798431396484375</LatitudeDegrees>
              <LongitudeDegrees>2.23825589753687381744384765625</LongitudeDegrees>
            </Position>
            <AltitudeMeters>571.5999755859375</AltitudeMeters>
            <DistanceMeters>46603.643377618</DistanceMeters>
          </Trackpoint>
          <Trackpoint>
            <Time>2021-08-31T06:02:46.000Z</Time>
            <Position>
              <LatitudeDegrees>42.05703944899141788482666015625</LatitudeDegrees>
              <LongitudeDegrees>2.238223291933536529541015625</LongitudeDegrees>
            </Position>
            <AltitudeMeters>571.5999755859375</AltitudeMeters>
            <DistanceMeters>46608.562788646</DistanceMeters>
          </Trackpoint>
          <Trackpoint>
            <Time>2021-08-31T06:02:48.000Z</Time>
            <Position>
              <LatitudeDegrees>42.05709728412330150604248046875</LatitudeDegrees>
              <LongitudeDegrees>2.238132096827030181884765625</LongitudeDegrees>
            </Position>
            <AltitudeMeters>572</AltitudeMeters>
            <DistanceMeters>46618.473851736</DistanceMeters>
          </Trackpoint>
          <Trackpoint>
            <Time>2021-08-31T06:02:49.000Z</Time>
            <Position>
              <LatitudeDegrees>42.057118155062198638916015625</LatitudeDegrees>
              <LongitudeDegrees>2.238079793751239776611328125</LongitudeDegrees>
            </Position>
            <AltitudeMeters>572.20001220703125</AltitudeMeters>
            <DistanceMeters>46623.380396732</DistanceMeters>
          </Trackpoint>
          <Trackpoint>
            <Time>2021-08-31T06:02:52.000Z</Time>
            <Position>
              <LatitudeDegrees>42.05718311481177806854248046875</LatitudeDegrees>
              <LongitudeDegrees>2.2379381395876407623291015625</LongitudeDegrees>
            </Position>
            <AltitudeMeters>572.79998779296875</AltitudeMeters>
            <DistanceMeters>46637.139267418</DistanceMeters>
          </Trackpoint>
          <Trackpoint>
            <Time>2021-08-31T06:02:55.000Z</Time>
            <Position>
              <LatitudeDegrees>42.057228125631809234619140625</LatitudeDegrees>
              <LongitudeDegrees>2.23778584040701389312744140625</LongitudeDegrees>
            </Position>
            <AltitudeMeters>573.5999755859375</AltitudeMeters>
            <DistanceMeters>46650.685491373</DistanceMeters>
          </Trackpoint>
          <Trackpoint>
            <Time>2021-08-31T06:03:01.000Z</Time>
            <Position>
              <LatitudeDegrees>42.057299874722957611083984375</LatitudeDegrees>
              <LongitudeDegrees>2.23753522150218486785888671875</LongitudeDegrees>
            </Position>
            <AltitudeMeters>575</AltitudeMeters>
            <DistanceMeters>46672.882722981</DistanceMeters>
          </Trackpoint>
          <Trackpoint>
            <Time>2021-08-31T06:03:06.000Z</Time>
            <Position>
              <LatitudeDegrees>42.05739869736135005950927734375</LatitudeDegrees>
              <LongitudeDegrees>2.23738585598766803741455078125</LongitudeDegrees>
            </Position>
            <AltitudeMeters>575.79998779296875</AltitudeMeters>
            <DistanceMeters>46689.416005899</DistanceMeters>
          </Trackpoint>
          <Trackpoint>
            <Time>2021-08-31T06:03:10.000Z</Time>
            <Position>
              <LatitudeDegrees>42.05752727575600147247314453125</LatitudeDegrees>
              <LongitudeDegrees>2.2374053858220577239990234375</LongitudeDegrees>
            </Position>
            <AltitudeMeters>576.20001220703125</AltitudeMeters>
            <DistanceMeters>46703.818118797</DistanceMeters>
          </Trackpoint>
          <Trackpoint>
            <Time>2021-08-31T06:03:17.000Z</Time>
            <Position>
              <LatitudeDegrees>42.05771385692059993743896484375</LatitudeDegrees>
              <LongitudeDegrees>2.2374566830694675445556640625</LongitudeDegrees>
            </Position>
            <AltitudeMeters>576</AltitudeMeters>
            <DistanceMeters>46725.013123938</DistanceMeters>
          </Trackpoint>
          <Trackpoint>
            <Time>2021-08-31T06:03:23.000Z</Time>
            <Position>
              <LatitudeDegrees>42.05786925740540027618408203125</LatitudeDegrees>
              <LongitudeDegrees>2.23749297671020030975341796875</LongitudeDegrees>
            </Position>
            <AltitudeMeters>575.79998779296875</AltitudeMeters>
            <DistanceMeters>46742.567621616</DistanceMeters>
          </Trackpoint>
          <Trackpoint>
            <Time>2021-08-31T06:03:24.000Z</Time>
            <Position>
              <LatitudeDegrees>42.05789524130523204803466796875</LatitudeDegrees>
              <LongitudeDegrees>2.23750638775527477264404296875</LongitudeDegrees>
            </Position>
            <AltitudeMeters>575.79998779296875</AltitudeMeters>
            <DistanceMeters>46745.664384633</DistanceMeters>
          </Trackpoint>
          <Trackpoint>
            <Time>2021-08-31T06:03:31.000Z</Time>
            <Position>
              <LatitudeDegrees>42.0581057108938694000244140625</LatitudeDegrees>
              <LongitudeDegrees>2.2375445254147052764892578125</LongitudeDegrees>
            </Position>
            <AltitudeMeters>575.5999755859375</AltitudeMeters>
            <DistanceMeters>46769.301217324</DistanceMeters>
          </Trackpoint>
          <Trackpoint>
            <Time>2021-08-31T06:03:36.000Z</Time>
            <Position>
              <LatitudeDegrees>42.05823152326047420501708984375</LatitudeDegrees>
              <LongitudeDegrees>2.23748325370252132415771484375</LongitudeDegrees>
            </Position>
            <AltitudeMeters>576</AltitudeMeters>
            <DistanceMeters>46784.191633604</DistanceMeters>
          </Trackpoint>
          <Trackpoint>
            <Time>2021-08-31T06:03:40.000Z</Time>
            <Position>
              <LatitudeDegrees>42.0582867600023746490478515625</LatitudeDegrees>
              <LongitudeDegrees>2.23735618405044078826904296875</LongitudeDegrees>
            </Position>
            <AltitudeMeters>576.5999755859375</AltitudeMeters>
            <DistanceMeters>46796.359506605</DistanceMeters>
          </Trackpoint>
          <Trackpoint>
            <Time>2021-08-31T06:03:47.000Z</Time>
            <Position>
              <LatitudeDegrees>42.0583635382354259490966796875</LatitudeDegrees>
              <LongitudeDegrees>2.23712668754160404205322265625</LongitudeDegrees>
            </Position>
            <AltitudeMeters>577.79998779296875</AltitudeMeters>
            <DistanceMeters>46817.161025854</DistanceMeters>
          </Trackpoint>
          <Trackpoint>
            <Time>2021-08-31T06:03:51.000Z</Time>
            <Position>
              <LatitudeDegrees>42.05844190903007984161376953125</LatitudeDegrees>
              <LongitudeDegrees>2.23705686628818511962890625</LongitudeDegrees>
            </Position>
            <AltitudeMeters>578</AltitudeMeters>
            <DistanceMeters>46827.619578142</DistanceMeters>
          </Trackpoint>
          <Trackpoint>
            <Time>2021-08-31T06:04:41.000Z</Time>
            <Position>
              <LatitudeDegrees>42.05840754322707653045654296875</LatitudeDegrees>
              <LongitudeDegrees>2.235248051583766937255859375</LongitudeDegrees>
            </Position>
            <AltitudeMeters>588.79998779296875</AltitudeMeters>
            <DistanceMeters>46977.144468009</DistanceMeters>
          </Trackpoint>
          <Trackpoint>
            <Time>2021-08-31T06:04:42.000Z</Time>
            <Position>
              <LatitudeDegrees>42.058415003120899200439453125</LatitudeDegrees>
              <LongitudeDegrees>2.23521326668560504913330078125</LongitudeDegrees>
            </Position>
            <AltitudeMeters>588.79998779296875</AltitudeMeters>
            <DistanceMeters>46980.135923467</DistanceMeters>
          </Trackpoint>
          <Trackpoint>
            <Time>2021-08-31T06:04:49.000Z</Time>
            <Position>
              <LatitudeDegrees>42.05845431424677371978759765625</LatitudeDegrees>
              <LongitudeDegrees>2.23497756756842136383056640625</LongitudeDegrees>
            </Position>
            <AltitudeMeters>588.79998779296875</AltitudeMeters>
            <DistanceMeters>47000.098772302</DistanceMeters>
          </Trackpoint>
          <Trackpoint>
            <Time>2021-08-31T06:04:58.000Z</Time>
            <Position>
              <LatitudeDegrees>42.0585154183208942413330078125</LatitudeDegrees>
              <LongitudeDegrees>2.23465922288596630096435546875</LongitudeDegrees>
            </Position>
            <AltitudeMeters>590</AltitudeMeters>
            <DistanceMeters>47027.270763584</DistanceMeters>
          </Trackpoint>
          <Trackpoint>
            <Time>2021-08-31T06:05:03.000Z</Time>
            <Position>
              <LatitudeDegrees>42.05854349769651889801025390625</LatitudeDegrees>
              <LongitudeDegrees>2.234484963119029998779296875</LongitudeDegrees>
            </Position>
            <AltitudeMeters>591</AltitudeMeters>
            <DistanceMeters>47042.006340199</DistanceMeters>
          </Trackpoint>
          <Trackpoint>
            <Time>2021-08-31T06:05:10.000Z</Time>
            <Position>
              <LatitudeDegrees>42.058575265109539031982421875</LatitudeDegrees>
              <LongitudeDegrees>2.2342383675277233123779296875</LongitudeDegrees>
            </Position>
            <AltitudeMeters>591.5999755859375</AltitudeMeters>
            <DistanceMeters>47062.68900882</DistanceMeters>
          </Trackpoint>
          <Trackpoint>
            <Time>2021-08-31T06:05:15.000Z</Time>
            <Position>
              <LatitudeDegrees>42.05858909524977207183837890625</LatitudeDegrees>
              <LongitudeDegrees>2.23406561650335788726806640625</LongitudeDegrees>
            </Position>
            <AltitudeMeters>592.4000244140625</AltitudeMeters>
            <DistanceMeters>47077.047479327</DistanceMeters>
          </Trackpoint>
          <Trackpoint>
            <Time>2021-08-31T06:05:23.000Z</Time>
            <Position>
              <LatitudeDegrees>42.0585744269192218780517578125</LatitudeDegrees>
              <LongitudeDegrees>2.23375632427632808685302734375</LongitudeDegrees>
            </Position>
            <AltitudeMeters>596</AltitudeMeters>
            <DistanceMeters>47102.658721444</DistanceMeters>
          </Trackpoint>
          <Trackpoint>
            <Time>2021-08-31T06:05:30.000Z</Time>
            <Position>
              <LatitudeDegrees>42.05855808220803737640380859375</LatitudeDegrees>
              <LongitudeDegrees>2.23349221050739288330078125</LongitudeDegrees>
            </Position>
            <AltitudeMeters>598.79998779296875</AltitudeMeters>
            <DistanceMeters>47124.560266155</DistanceMeters>
          </Trackpoint>
          <Trackpoint>
            <Time>2021-08-31T06:05:39.000Z</Time>
            <Position>
              <LatitudeDegrees>42.05852556042373180389404296875</LatitudeDegrees>
              <LongitudeDegrees>2.23314754664897918701171875</LongitudeDegrees>
            </Position>
            <AltitudeMeters>601.5999755859375</AltitudeMeters>
            <DistanceMeters>47153.271231974</DistanceMeters>
          </Trackpoint>
          <Trackpoint>
            <Time>2021-08-31T06:05:44.000Z</Time>
            <Position>
              <LatitudeDegrees>42.0585067011415958404541015625</LatitudeDegrees>
              <LongitudeDegrees>2.2329415194690227508544921875</LongitudeDegrees>
            </Position>
            <AltitudeMeters>603</AltitudeMeters>
            <DistanceMeters>47170.425593844</DistanceMeters>
          </Trackpoint>
          <Trackpoint>
            <Time>2021-08-31T06:05:51.000Z</Time>
            <Position>
              <LatitudeDegrees>42.05846965312957763671875</LatitudeDegrees>
              <LongitudeDegrees>2.2326565347611904144287109375</LongitudeDegrees>
            </Position>
            <AltitudeMeters>605</AltitudeMeters>
            <DistanceMeters>47194.334209426</DistanceMeters>
          </Trackpoint>
          <Trackpoint>
            <Time>2021-08-31T06:05:58.000Z</Time>
            <Position>
              <LatitudeDegrees>42.05841005779802799224853515625</LatitudeDegrees>
              <LongitudeDegrees>2.2323869727551937103271484375</LongitudeDegrees>
            </Position>
            <AltitudeMeters>607.20001220703125</AltitudeMeters>
            <DistanceMeters>47217.576741413</DistanceMeters>
          </Trackpoint>
          <Trackpoint>
            <Time>2021-08-31T06:06:04.000Z</Time>
            <Position>
              <LatitudeDegrees>42.05837334506213665008544921875</LatitudeDegrees>
              <LongitudeDegrees>2.232157476246356964111328125</LongitudeDegrees>
            </Position>
            <AltitudeMeters>607.79998779296875</AltitudeMeters>
            <DistanceMeters>47236.977324298</DistanceMeters>
          </Trackpoint>
          <Trackpoint>
            <Time>2021-08-31T06:06:13.000Z</Time>
            <Position>
              <LatitudeDegrees>42.05829195678234100341796875</LatitudeDegrees>
              <LongitudeDegrees>2.23178573884069919586181640625</LongitudeDegrees>
            </Position>
            <AltitudeMeters>609.4000244140625</AltitudeMeters>
            <DistanceMeters>47269.004710602</DistanceMeters>
          </Trackpoint>
          <Trackpoint>
            <Time>2021-08-31T06:06:20.000Z</Time>
            <Position>
              <LatitudeDegrees>42.05822900868952274322509765625</LatitudeDegrees>
              <LongitudeDegrees>2.23148650489747524261474609375</LongitudeDegrees>
            </Position>
            <AltitudeMeters>611</AltitudeMeters>
            <DistanceMeters>47294.705879678</DistanceMeters>
          </Trackpoint>
          <Trackpoint>
            <Time>2021-08-31T06:06:29.000Z</Time>
            <Position>
              <LatitudeDegrees>42.05814233981072902679443359375</LatitudeDegrees>
              <LongitudeDegrees>2.2311058826744556427001953125</LongitudeDegrees>
            </Position>
            <AltitudeMeters>613.5999755859375</AltitudeMeters>
            <DistanceMeters>47327.605577442</DistanceMeters>
          </Trackpoint>
          <Trackpoint>
            <Time>2021-08-31T06:06:37.000Z</Time>
            <Position>
              <LatitudeDegrees>42.05806740559637546539306640625</LatitudeDegrees>
              <LongitudeDegrees>2.230713777244091033935546875</LongitudeDegrees>
            </Position>
            <AltitudeMeters>615.79998779296875</AltitudeMeters>
            <DistanceMeters>47361.064428245</DistanceMeters>
          </Trackpoint>
          <Trackpoint>
            <Time>2021-08-31T06:06:38.000Z</Time>
            <Position>
              <LatitudeDegrees>42.0580577664077281951904296875</LatitudeDegrees>
              <LongitudeDegrees>2.2306606359779834747314453125</LongitudeDegrees>
            </Position>
            <AltitudeMeters>615.79998779296875</AltitudeMeters>
            <DistanceMeters>47365.583945135</DistanceMeters>
          </Trackpoint>
          <Trackpoint>
            <Time>2021-08-31T06:06:41.000Z</Time>
            <Position>
              <LatitudeDegrees>42.058044187724590301513671875</LatitudeDegrees>
              <LongitudeDegrees>2.230491153895854949951171875</LongitudeDegrees>
            </Position>
            <AltitudeMeters>617.20001220703125</AltitudeMeters>
            <DistanceMeters>47379.670994504</DistanceMeters>
          </Trackpoint>
          <Trackpoint>
            <Time>2021-08-31T06:06:44.000Z</Time>
            <Position>
              <LatitudeDegrees>42.05804787576198577880859375</LatitudeDegrees>
              <LongitudeDegrees>2.23031270317733287811279296875</LongitudeDegrees>
            </Position>
            <AltitudeMeters>620</AltitudeMeters>
            <DistanceMeters>47394.423719759</DistanceMeters>
          </Trackpoint>
          <Trackpoint>
            <Time>2021-08-31T06:06:49.000Z</Time>
            <Position>
              <LatitudeDegrees>42.0580755360424518585205078125</LatitudeDegrees>
              <LongitudeDegrees>2.23004112951457500457763671875</LongitudeDegrees>
            </Position>
            <AltitudeMeters>625.20001220703125</AltitudeMeters>
            <DistanceMeters>47417.076382385</DistanceMeters>
          </Trackpoint>
          <Trackpoint>
            <Time>2021-08-31T06:06:55.000Z</Time>
            <Position>
              <LatitudeDegrees>42.0580981671810150146484375</LatitudeDegrees>
              <LongitudeDegrees>2.22971306182444095611572265625</LongitudeDegrees>
            </Position>
            <AltitudeMeters>627.5999755859375</AltitudeMeters>
            <DistanceMeters>47444.304147917</DistanceMeters>
          </Trackpoint>
          <Trackpoint>
            <Time>2021-08-31T06:07:02.000Z</Time>
            <Position>
              <LatitudeDegrees>42.05808701924979686737060546875</LatitudeDegrees>
              <LongitudeDegrees>2.229328416287899017333984375</LongitudeDegrees>
            </Position>
            <AltitudeMeters>627.79998779296875</AltitudeMeters>
            <DistanceMeters>47476.114686522</DistanceMeters>
          </Trackpoint>
          <Trackpoint>
            <Time>2021-08-31T06:07:03.000Z</Time>
            <Position>
              <LatitudeDegrees>42.0580802299082279205322265625</LatitudeDegrees>
              <LongitudeDegrees>2.229274772107601165771484375</LongitudeDegrees>
            </Position>
            <AltitudeMeters>627.5999755859375</AltitudeMeters>
            <DistanceMeters>47480.610163257</DistanceMeters>
          </Trackpoint>
          <Trackpoint>
            <Time>2021-08-31T06:07:07.000Z</Time>
            <Position>
              <LatitudeDegrees>42.058045864105224609375</LatitudeDegrees>
              <LongitudeDegrees>2.22905625589191913604736328125</LongitudeDegrees>
            </Position>
            <AltitudeMeters>626.5999755859375</AltitudeMeters>
            <DistanceMeters>47499.068353424</DistanceMeters>
          </Trackpoint>
          <Trackpoint>
            <Time>2021-08-31T06:07:16.000Z</Time>
            <Position>
              <LatitudeDegrees>42.0579893700778484344482421875</LatitudeDegrees>
              <LongitudeDegrees>2.2285430319607257843017578125</LongitudeDegrees>
            </Position>
            <AltitudeMeters>624.5999755859375</AltitudeMeters>
            <DistanceMeters>47541.943834088</DistanceMeters>
          </Trackpoint>
          <Trackpoint>
            <Time>2021-08-31T06:07:19.000Z</Time>
            <Position>
              <LatitudeDegrees>42.05800839699804782867431640625</LatitudeDegrees>
              <LongitudeDegrees>2.2283700294792652130126953125</LongitudeDegrees>
            </Position>
            <AltitudeMeters>625</AltitudeMeters>
            <DistanceMeters>47556.396644483</DistanceMeters>
          </Trackpoint>
          <Trackpoint>
            <Time>2021-08-31T06:07:21.000Z</Time>
            <Position>
              <LatitudeDegrees>42.05804510973393917083740234375</LatitudeDegrees>
              <LongitudeDegrees>2.228259555995464324951171875</LongitudeDegrees>
            </Position>
            <AltitudeMeters>626.4000244140625</AltitudeMeters>
            <DistanceMeters>47566.398855084</DistanceMeters>
          </Trackpoint>
          <Trackpoint>
            <Time>2021-08-31T06:07:22.000Z</Time>
            <Position>
              <LatitudeDegrees>42.05806623212993144989013671875</LatitudeDegrees>
              <LongitudeDegrees>2.2282089293003082275390625</LongitudeDegrees>
            </Position>
            <AltitudeMeters>627.79998779296875</AltitudeMeters>
            <DistanceMeters>47571.19746894</DistanceMeters>
          </Trackpoint>
          <Trackpoint>
            <Time>2021-08-31T06:07:26.000Z</Time>
            <Position>
              <LatitudeDegrees>42.0581751130521297454833984375</LatitudeDegrees>
              <LongitudeDegrees>2.22802855074405670166015625</LongitudeDegrees>
            </Position>
            <AltitudeMeters>630.5999755859375</AltitudeMeters>
            <DistanceMeters>47590.408383136</DistanceMeters>
          </Trackpoint>
          <Trackpoint>
            <Time>2021-08-31T06:07:29.000Z</Time>
            <Position>
              <LatitudeDegrees>42.05825465731322765350341796875</LatitudeDegrees>
              <LongitudeDegrees>2.22790005616843700408935546875</LongitudeDegrees>
            </Position>
            <AltitudeMeters>631</AltitudeMeters>
            <DistanceMeters>47604.233708741</DistanceMeters>
          </Trackpoint>
          <Trackpoint>
            <Time>2021-08-31T06:07:31.000Z</Time>
            <Position>
              <LatitudeDegrees>42.0582971535623073577880859375</LatitudeDegrees>
              <LongitudeDegrees>2.22779452800750732421875</LongitudeDegrees>
            </Position>
            <AltitudeMeters>631.79998779296875</AltitudeMeters>
            <DistanceMeters>47614.154788987</DistanceMeters>
          </Trackpoint>
          <Trackpoint>
            <Time>2021-08-31T06:07:35.000Z</Time>
            <Position>
              <LatitudeDegrees>42.0583447627723217010498046875</LatitudeDegrees>
              <LongitudeDegrees>2.227604091167449951171875</LongitudeDegrees>
            </Position>
            <AltitudeMeters>632.20001220703125</AltitudeMeters>
            <DistanceMeters>47630.760282484</DistanceMeters>
          </Trackpoint>
          <Trackpoint>
            <Time>2021-08-31T06:07:38.000Z</Time>
            <Position>
              <LatitudeDegrees>42.05831416882574558258056640625</LatitudeDegrees>
              <LongitudeDegrees>2.22743854857981204986572265625</LongitudeDegrees>
            </Position>
            <AltitudeMeters>631</AltitudeMeters>
            <DistanceMeters>47644.857584438</DistanceMeters>
          </Trackpoint>
          <Trackpoint>
            <Time>2021-08-31T06:07:44.000Z</Time>
            <Position>
              <LatitudeDegrees>42.0581975765526294708251953125</LatitudeDegrees>
              <LongitudeDegrees>2.22711534239351749420166015625</LongitudeDegrees>
            </Position>
            <AltitudeMeters>631</AltitudeMeters>
            <DistanceMeters>47674.5521783</DistanceMeters>
          </Trackpoint>
          <Trackpoint>
            <Time>2021-08-31T06:07:50.000Z</Time>
            <Position>
              <LatitudeDegrees>42.05812565982341766357421875</LatitudeDegrees>
              <LongitudeDegrees>2.226855754852294921875</LongitudeDegrees>
            </Position>
            <AltitudeMeters>632.4000244140625</AltitudeMeters>
            <DistanceMeters>47697.448687161</DistanceMeters>
          </Trackpoint>
          <Trackpoint>
            <Time>2021-08-31T06:07:55.000Z</Time>
            <Position>
              <LatitudeDegrees>42.05817771144211292266845703125</LatitudeDegrees>
              <LongitudeDegrees>2.22665098495781421661376953125</LongitudeDegrees>
            </Position>
            <AltitudeMeters>633.79998779296875</AltitudeMeters>
            <DistanceMeters>47715.334673804</DistanceMeters>
          </Trackpoint>
          <Trackpoint>
            <Time>2021-08-31T06:08:00.000Z</Time>
            <Position>
              <LatitudeDegrees>42.05829924903810024261474609375</LatitudeDegrees>
              <LongitudeDegrees>2.22651888616383075714111328125</LongitudeDegrees>
            </Position>
            <AltitudeMeters>637.20001220703125</AltitudeMeters>
            <DistanceMeters>47732.717550952</DistanceMeters>
          </Trackpoint>
          <Trackpoint>
            <Time>2021-08-31T06:08:05.000Z</Time>
            <Position>
              <LatitudeDegrees>42.0584493689239025115966796875</LatitudeDegrees>
              <LongitudeDegrees>2.2264871187508106231689453125</LongitudeDegrees>
            </Position>
            <AltitudeMeters>642.4000244140625</AltitudeMeters>
            <DistanceMeters>47749.631238361</DistanceMeters>
          </Trackpoint>
          <Trackpoint>
            <Time>2021-08-31T06:08:10.000Z</Time>
            <Position>
              <LatitudeDegrees>42.05858875997364521026611328125</LatitudeDegrees>
              <LongitudeDegrees>2.22657613456249237060546875</LongitudeDegrees>
            </Position>
            <AltitudeMeters>644.79998779296875</AltitudeMeters>
            <DistanceMeters>47766.800859078</DistanceMeters>
          </Trackpoint>
          <Trackpoint>
            <Time>2021-08-31T06:08:15.000Z</Time>
            <Position>
              <LatitudeDegrees>42.05867542885243892669677734375</LatitudeDegrees>
              <LongitudeDegrees>2.2267529927194118499755859375</LongitudeDegrees>
            </Position>
            <AltitudeMeters>646.20001220703125</AltitudeMeters>
            <DistanceMeters>47784.312609306</DistanceMeters>
          </Trackpoint>
          <Trackpoint>
            <Time>2021-08-31T06:08:23.000Z</Time>
            <Position>
              <LatitudeDegrees>42.05871867947280406951904296875</LatitudeDegrees>
              <LongitudeDegrees>2.22706991247832775115966796875</LongitudeDegrees>
            </Position>
            <AltitudeMeters>646.5999755859375</AltitudeMeters>
            <DistanceMeters>47810.94078353</DistanceMeters>
          </Trackpoint>
          <Trackpoint>
            <Time>2021-08-31T06:08:30.000Z</Time>
            <Position>
              <LatitudeDegrees>42.0587363652884960174560546875</LatitudeDegrees>
              <LongitudeDegrees>2.2273600101470947265625</LongitudeDegrees>
            </Position>
            <AltitudeMeters>645.5999755859375</AltitudeMeters>
            <DistanceMeters>47834.993995328</DistanceMeters>
          </Trackpoint>
          <Trackpoint>
            <Time>2021-08-31T06:08:40.000Z</Time>
            <Position>
              <LatitudeDegrees>42.05873343162238597869873046875</LatitudeDegrees>
              <LongitudeDegrees>2.22776577807962894439697265625</LongitudeDegrees>
            </Position>
            <AltitudeMeters>645.20001220703125</AltitudeMeters>
            <DistanceMeters>47868.526982655</DistanceMeters>
          </Trackpoint>
          <Trackpoint>
            <Time>2021-08-31T06:08:48.000Z</Time>
            <Position>
              <LatitudeDegrees>42.05871666781604290008544921875</LatitudeDegrees>
              <LongitudeDegrees>2.228086888790130615234375</LongitudeDegrees>
            </Position>
            <AltitudeMeters>645.79998779296875</AltitudeMeters>
            <DistanceMeters>47895.128183387</DistanceMeters>
          </Trackpoint>
          <Trackpoint>
            <Time>2021-08-31T06:08:56.000Z</Time>
            <Position>
              <LatitudeDegrees>42.05867509357631206512451171875</LatitudeDegrees>
              <LongitudeDegrees>2.22840950824320316314697265625</LongitudeDegrees>
            </Position>
            <AltitudeMeters>644.79998779296875</AltitudeMeters>
            <DistanceMeters>47922.186946445</DistanceMeters>
          </Trackpoint>
          <Trackpoint>
            <Time>2021-08-31T06:09:05.000Z</Time>
            <Position>
              <LatitudeDegrees>42.05862228758633136749267578125</LatitudeDegrees>
              <LongitudeDegrees>2.22876858897507190704345703125</LongitudeDegrees>
            </Position>
            <AltitudeMeters>642.20001220703125</AltitudeMeters>
            <DistanceMeters>47952.436802087</DistanceMeters>
          </Trackpoint>
          <Trackpoint>
            <Time>2021-08-31T06:09:14.000Z</Time>
            <Position>
              <LatitudeDegrees>42.05858943052589893341064453125</LatitudeDegrees>
              <LongitudeDegrees>2.22914527170360088348388671875</LongitudeDegrees>
            </Position>
            <AltitudeMeters>641.5999755859375</AltitudeMeters>
            <DistanceMeters>47983.778911715</DistanceMeters>
          </Trackpoint>
          <Trackpoint>
            <Time>2021-08-31T06:09:23.000Z</Time>
            <Position>
              <LatitudeDegrees>42.0585791207849979400634765625</LatitudeDegrees>
              <LongitudeDegrees>2.22951449453830718994140625</LongitudeDegrees>
            </Position>
            <AltitudeMeters>637.4000244140625</AltitudeMeters>
            <DistanceMeters>48014.312076014</DistanceMeters>
          </Trackpoint>
          <Trackpoint>
            <Time>2021-08-31T06:09:30.000Z</Time>
            <Position>
              <LatitudeDegrees>42.05865137279033660888671875</LatitudeDegrees>
              <LongitudeDegrees>2.22978011704981327056884765625</LongitudeDegrees>
            </Position>
            <AltitudeMeters>638</AltitudeMeters>
            <DistanceMeters>48037.689227173</DistanceMeters>
          </Trackpoint>
          <Trackpoint>
            <Time>2021-08-31T06:09:34.000Z</Time>
            <Position>
              <LatitudeDegrees>42.05875975079834461212158203125</LatitudeDegrees>
              <LongitudeDegrees>2.2298485971987247467041015625</LongitudeDegrees>
            </Position>
            <AltitudeMeters>639.20001220703125</AltitudeMeters>
            <DistanceMeters>48051.013314492</DistanceMeters>
          </Trackpoint>
          <Trackpoint>
            <Time>2021-08-31T06:09:38.000Z</Time>
            <Position>
              <LatitudeDegrees>42.05887399613857269287109375</LatitudeDegrees>
              <LongitudeDegrees>2.2298174165189266204833984375</LongitudeDegrees>
            </Position>
            <AltitudeMeters>640.5999755859375</AltitudeMeters>
            <DistanceMeters>48063.987158368</DistanceMeters>
          </Trackpoint>
          <Trackpoint>
            <Time>2021-08-31T06:09:44.000Z</Time>
            <Position>
              <LatitudeDegrees>42.0589915104210376739501953125</LatitudeDegrees>
              <LongitudeDegrees>2.22961532883346080780029296875</LongitudeDegrees>
            </Position>
            <AltitudeMeters>645</AltitudeMeters>
            <DistanceMeters>48085.199198559</DistanceMeters>
          </Trackpoint>
          <Trackpoint>
            <Time>2021-08-31T06:09:52.000Z</Time>
            <Position>
              <LatitudeDegrees>42.05907926894724369049072265625</LatitudeDegrees>
              <LongitudeDegrees>2.22929765470325946807861328125</LongitudeDegrees>
            </Position>
            <AltitudeMeters>651.4000244140625</AltitudeMeters>
            <DistanceMeters>48113.208876735</DistanceMeters>
          </Trackpoint>
          <Trackpoint>
            <Time>2021-08-31T06:09:58.000Z</Time>
            <Position>
              <LatitudeDegrees>42.0591775886714458465576171875</LatitudeDegrees>
              <LongitudeDegrees>2.22907721064984798431396484375</LongitudeDegrees>
            </Position>
            <AltitudeMeters>651.79998779296875</AltitudeMeters>
            <DistanceMeters>48134.459833256</DistanceMeters>
          </Trackpoint>
          <Trackpoint>
            <Time>2021-08-31T06:10:04.000Z</Time>
            <Position>
              <LatitudeDegrees>42.05930725671350955963134765625</LatitudeDegrees>
              <LongitudeDegrees>2.22889088094234466552734375</LongitudeDegrees>
            </Position>
            <AltitudeMeters>649.20001220703125</AltitudeMeters>
            <DistanceMeters>48155.563681253</DistanceMeters>
          </Trackpoint>
          <Trackpoint>
            <Time>2021-08-31T06:10:09.000Z</Time>
            <Position>
              <LatitudeDegrees>42.05942963249981403350830078125</LatitudeDegrees>
              <LongitudeDegrees>2.2287485562264919281005859375</LongitudeDegrees>
            </Position>
            <AltitudeMeters>646.5999755859375</AltitudeMeters>
            <DistanceMeters>48173.559141831</DistanceMeters>
          </Trackpoint>
          <Trackpoint>
            <Time>2021-08-31T06:10:16.000Z</Time>
            <Position>
              <LatitudeDegrees>42.05953658558428287506103515625</LatitudeDegrees>
              <LongitudeDegrees>2.2284927405416965484619140625</LongitudeDegrees>
            </Position>
            <AltitudeMeters>649</AltitudeMeters>
            <DistanceMeters>48197.819817474</DistanceMeters>
          </Trackpoint>
          <Trackpoint>
            <Time>2021-08-31T06:10:25.000Z</Time>
            <Position>
              <LatitudeDegrees>42.0595787465572357177734375</LatitudeDegrees>
              <LongitudeDegrees>2.22811438143253326416015625</LongitudeDegrees>
            </Position>
            <AltitudeMeters>653.20001220703125</AltitudeMeters>
            <DistanceMeters>48229.435877979</DistanceMeters>
          </Trackpoint>
          <Trackpoint>
            <Time>2021-08-31T06:10:32.000Z</Time>
            <Position>
              <LatitudeDegrees>42.0596503280103206634521484375</LatitudeDegrees>
              <LongitudeDegrees>2.22783543169498443603515625</LongitudeDegrees>
            </Position>
            <AltitudeMeters>654.5999755859375</AltitudeMeters>
            <DistanceMeters>48253.825183537</DistanceMeters>
          </Trackpoint>
          <Trackpoint>
            <Time>2021-08-31T06:10:39.000Z</Time>
            <Position>
              <LatitudeDegrees>42.0597385056316852569580078125</LatitudeDegrees>
              <LongitudeDegrees>2.22757366485893726348876953125</LongitudeDegrees>
            </Position>
            <AltitudeMeters>658.5999755859375</AltitudeMeters>
            <DistanceMeters>48277.57882108</DistanceMeters>
          </Trackpoint>
          <Trackpoint>
            <Time>2021-08-31T06:10:41.000Z</Time>
            <Position>
              <LatitudeDegrees>42.05974831245839595794677734375</LatitudeDegrees>
              <LongitudeDegrees>2.22749403677880764007568359375</LongitudeDegrees>
            </Position>
            <AltitudeMeters>659.5999755859375</AltitudeMeters>
            <DistanceMeters>48284.24899249</DistanceMeters>
          </Trackpoint>
          <Trackpoint>
            <Time>2021-08-31T06:10:42.000Z</Time>
            <Position>
              <LatitudeDegrees>42.05975107848644256591796875</LatitudeDegrees>
              <LongitudeDegrees>2.2274530492722988128662109375</LongitudeDegrees>
            </Position>
            <AltitudeMeters>660.20001220703125</AltitudeMeters>
            <DistanceMeters>48287.651426619</DistanceMeters>
          </Trackpoint>
          <Trackpoint>
            <Time>2021-08-31T06:10:46.000Z</Time>
            <Position>
              <LatitudeDegrees>42.05975250340998172760009765625</LatitudeDegrees>
              <LongitudeDegrees>2.22729454748332500457763671875</LongitudeDegrees>
            </Position>
            <AltitudeMeters>660.5999755859375</AltitudeMeters>
            <DistanceMeters>48300.750299949</DistanceMeters>
          </Trackpoint>
          <Trackpoint>
            <Time>2021-08-31T06:10:52.000Z</Time>
            <Position>
              <LatitudeDegrees>42.05972232855856418609619140625</LatitudeDegrees>
              <LongitudeDegrees>2.22706723026931285858154296875</LongitudeDegrees>
            </Position>
            <AltitudeMeters>661.20001220703125</AltitudeMeters>
            <DistanceMeters>48319.832932437</DistanceMeters>
          </Trackpoint>
          <Trackpoint>
            <Time>2021-08-31T06:10:58.000Z</Time>
            <Position>
              <LatitudeDegrees>42.0597183890640735626220703125</LatitudeDegrees>
              <LongitudeDegrees>2.2268311120569705963134765625</LongitudeDegrees>
            </Position>
            <AltitudeMeters>662</AltitudeMeters>
            <DistanceMeters>48339.349763239</DistanceMeters>
          </Trackpoint>
          <Trackpoint>
            <Time>2021-08-31T06:11:06.000Z</Time>
            <Position>
              <LatitudeDegrees>42.0597341470420360565185546875</LatitudeDegrees>
              <LongitudeDegrees>2.226508744060993194580078125</LongitudeDegrees>
            </Position>
            <AltitudeMeters>663.20001220703125</AltitudeMeters>
            <DistanceMeters>48366.046689533</DistanceMeters>
          </Trackpoint>
          <Trackpoint>
            <Time>2021-08-31T06:11:13.000Z</Time>
            <Position>
              <LatitudeDegrees>42.0597468875348567962646484375</LatitudeDegrees>
              <LongitudeDegrees>2.22623323090374469757080078125</LongitudeDegrees>
            </Position>
            <AltitudeMeters>664.5999755859375</AltitudeMeters>
            <DistanceMeters>48388.858049753</DistanceMeters>
          </Trackpoint>
          <Trackpoint>
            <Time>2021-08-31T06:11:21.000Z</Time>
            <Position>
              <LatitudeDegrees>42.05976725555956363677978515625</LatitudeDegrees>
              <LongitudeDegrees>2.2259080968797206878662109375</LongitudeDegrees>
            </Position>
            <AltitudeMeters>666.20001220703125</AltitudeMeters>
            <DistanceMeters>48415.82119969</DistanceMeters>
          </Trackpoint>
          <Trackpoint>
            <Time>2021-08-31T06:11:29.000Z</Time>
            <Position>
              <LatitudeDegrees>42.05976960249245166778564453125</LatitudeDegrees>
              <LongitudeDegrees>2.225578017532825469970703125</LongitudeDegrees>
            </Position>
            <AltitudeMeters>669</AltitudeMeters>
            <DistanceMeters>48443.098832815</DistanceMeters>
          </Trackpoint>
          <Trackpoint>
            <Time>2021-08-31T06:11:37.000Z</Time>
            <Position>
              <LatitudeDegrees>42.0597780682146549224853515625</LatitudeDegrees>
              <LongitudeDegrees>2.22525556571781635284423828125</LongitudeDegrees>
            </Position>
            <AltitudeMeters>670.5999755859375</AltitudeMeters>
            <DistanceMeters>48469.761574575</DistanceMeters>
          </Trackpoint>
          <Trackpoint>
            <Time>2021-08-31T06:11:45.000Z</Time>
            <Position>
              <LatitudeDegrees>42.05978267826139926910400390625</LatitudeDegrees>
              <LongitudeDegrees>2.22491852939128875732421875</LongitudeDegrees>
            </Position>
            <AltitudeMeters>672.5999755859375</AltitudeMeters>
            <DistanceMeters>48497.61753388</DistanceMeters>
          </Trackpoint>
          <Trackpoint>
            <Time>2021-08-31T06:11:51.000Z</Time>
            <Position>
              <LatitudeDegrees>42.05973121337592601776123046875</LatitudeDegrees>
              <LongitudeDegrees>2.22467252053320407867431640625</LongitudeDegrees>
            </Position>
            <AltitudeMeters>677</AltitudeMeters>
            <DistanceMeters>48518.738062904</DistanceMeters>
          </Trackpoint>
          <Trackpoint>
            <Time>2021-08-31T06:11:57.000Z</Time>
            <Position>
              <LatitudeDegrees>42.059620320796966552734375</LatitudeDegrees>
              <LongitudeDegrees>2.22445475868880748748779296875</LongitudeDegrees>
            </Position>
            <AltitudeMeters>681</AltitudeMeters>
            <DistanceMeters>48540.559060381</DistanceMeters>
          </Trackpoint>
          <Trackpoint>
            <Time>2021-08-31T06:12:04.000Z</Time>
            <Position>
              <LatitudeDegrees>42.0594213344156742095947265625</LatitudeDegrees>
              <LongitudeDegrees>2.22426650114357471466064453125</LongitudeDegrees>
            </Position>
            <AltitudeMeters>684.4000244140625</AltitudeMeters>
            <DistanceMeters>48567.624330215</DistanceMeters>
          </Trackpoint>
          <Trackpoint>
            <Time>2021-08-31T06:12:12.000Z</Time>
            <Position>
              <LatitudeDegrees>42.05918588675558567047119140625</LatitudeDegrees>
              <LongitudeDegrees>2.2240905649960041046142578125</LongitudeDegrees>
            </Position>
            <AltitudeMeters>687.79998779296875</AltitudeMeters>
            <DistanceMeters>48597.592869435</DistanceMeters>
          </Trackpoint>
          <Trackpoint>
            <Time>2021-08-31T06:12:19.000Z</Time>
            <Position>
              <LatitudeDegrees>42.05895580351352691650390625</LatitudeDegrees>
              <LongitudeDegrees>2.22394488751888275146484375</LongitudeDegrees>
            </Position>
            <AltitudeMeters>690.5999755859375</AltitudeMeters>
            <DistanceMeters>48625.890095423</DistanceMeters>
          </Trackpoint>
          <Trackpoint>
            <Time>2021-08-31T06:12:24.000Z</Time>
            <Position>
              <LatitudeDegrees>42.05876804888248443603515625</LatitudeDegrees>
              <LongitudeDegrees>2.22394295968115329742431640625</LongitudeDegrees>
            </Position>
            <AltitudeMeters>690.79998779296875</AltitudeMeters>
            <DistanceMeters>48646.788196225</DistanceMeters>
          </Trackpoint>
          <Trackpoint>
            <Time>2021-08-31T06:12:26.000Z</Time>
            <Position>
              <LatitudeDegrees>42.05869772471487522125244140625</LatitudeDegrees>
              <LongitudeDegrees>2.22397481091320514678955078125</LongitudeDegrees>
            </Position>
            <AltitudeMeters>690.4000244140625</AltitudeMeters>
            <DistanceMeters>48655.046230937</DistanceMeters>
          </Trackpoint>
          <Trackpoint>
            <Time>2021-08-31T06:12:28.000Z</Time>
            <Position>
              <LatitudeDegrees>42.05863519571721553802490234375</LatitudeDegrees>
              <LongitudeDegrees>2.2240349091589450836181640625</LongitudeDegrees>
            </Position>
            <AltitudeMeters>689.5999755859375</AltitudeMeters>
            <DistanceMeters>48663.595995192</DistanceMeters>
          </Trackpoint>
          <Trackpoint>
            <Time>2021-08-31T06:12:35.000Z</Time>
            <Position>
              <LatitudeDegrees>42.05844207666814327239990234375</LatitudeDegrees>
              <LongitudeDegrees>2.22423800267279148101806640625</LongitudeDegrees>
            </Position>
            <AltitudeMeters>686.4000244140625</AltitudeMeters>
            <DistanceMeters>48690.866841086</DistanceMeters>
          </Trackpoint>
          <Trackpoint>
            <Time>2021-08-31T06:12:40.000Z</Time>
            <Position>
              <LatitudeDegrees>42.05828315578401088714599609375</LatitudeDegrees>
              <LongitudeDegrees>2.22425107844173908233642578125</LongitudeDegrees>
            </Position>
            <AltitudeMeters>686.79998779296875</AltitudeMeters>
            <DistanceMeters>48708.588240539</DistanceMeters>
          </Trackpoint>
          <Trackpoint>
            <Time>2021-08-31T06:12:45.000Z</Time>
            <Position>
              <LatitudeDegrees>42.0581674017012119293212890625</LatitudeDegrees>
              <LongitudeDegrees>2.22412182949483394622802734375</LongitudeDegrees>
            </Position>
            <AltitudeMeters>687</AltitudeMeters>
            <DistanceMeters>48725.323737274</DistanceMeters>
          </Trackpoint>
          <Trackpoint>
            <Time>2021-08-31T06:12:50.000Z</Time>
            <Position>
              <LatitudeDegrees>42.05813831649720668792724609375</LatitudeDegrees>
              <LongitudeDegrees>2.2239118628203868865966796875</LongitudeDegrees>
            </Position>
            <AltitudeMeters>688.4000244140625</AltitudeMeters>
            <DistanceMeters>48742.97442189</DistanceMeters>
          </Trackpoint>
          <Trackpoint>
            <Time>2021-08-31T06:12:55.000Z</Time>
            <Position>
              <LatitudeDegrees>42.05818458460271358489990234375</LatitudeDegrees>
              <LongitudeDegrees>2.2237122058868408203125</LongitudeDegrees>
            </Position>
            <AltitudeMeters>693.4000244140625</AltitudeMeters>
            <DistanceMeters>48760.258315806</DistanceMeters>
          </Trackpoint>
          <Trackpoint>
            <Time>2021-08-31T06:13:00.000Z</Time>
            <Position>
              <LatitudeDegrees>42.05831215716898441314697265625</LatitudeDegrees>
              <LongitudeDegrees>2.22360868938267230987548828125</LongitudeDegrees>
            </Position>
            <AltitudeMeters>697.4000244140625</AltitudeMeters>
            <DistanceMeters>48776.834962819</DistanceMeters>
          </Trackpoint>
          <Trackpoint>
            <Time>2021-08-31T06:13:07.000Z</Time>
            <Position>
              <LatitudeDegrees>42.0585268177092075347900390625</LatitudeDegrees>
              <LongitudeDegrees>2.2236097790300846099853515625</LongitudeDegrees>
            </Position>
            <AltitudeMeters>697</AltitudeMeters>
            <DistanceMeters>48800.727332155</DistanceMeters>
          </Trackpoint>
          <Trackpoint>
            <Time>2021-08-31T06:13:13.000Z</Time>
            <Position>
              <LatitudeDegrees>42.058708705008029937744140625</LatitudeDegrees>
              <LongitudeDegrees>2.22362302243709564208984375</LongitudeDegrees>
            </Position>
            <AltitudeMeters>697</AltitudeMeters>
            <DistanceMeters>48821.001677514</DistanceMeters>
          </Trackpoint>
          <Trackpoint>
            <Time>2021-08-31T06:13:19.000Z</Time>
            <Position>
              <LatitudeDegrees>42.058892436325550079345703125</LatitudeDegrees>
              <LongitudeDegrees>2.2236235253512859344482421875</LongitudeDegrees>
            </Position>
            <AltitudeMeters>698</AltitudeMeters>
            <DistanceMeters>48841.451417615</DistanceMeters>
          </Trackpoint>
          <Trackpoint>
            <Time>2021-08-31T06:13:29.000Z</Time>
            <Position>
              <LatitudeDegrees>42.05920332111418247222900390625</LatitudeDegrees>
              <LongitudeDegrees>2.2236382775008678436279296875</LongitudeDegrees>
            </Position>
            <AltitudeMeters>698.5999755859375</AltitudeMeters>
            <DistanceMeters>48876.075063125</DistanceMeters>
          </Trackpoint>
          <Trackpoint>
            <Time>2021-08-31T06:13:36.000Z</Time>
            <Position>
              <LatitudeDegrees>42.0594320632517337799072265625</LatitudeDegrees>
              <LongitudeDegrees>2.2236238606274127960205078125</LongitudeDegrees>
            </Position>
            <AltitudeMeters>699</AltitudeMeters>
            <DistanceMeters>48901.562425468</DistanceMeters>
          </Trackpoint>
          <Trackpoint>
            <Time>2021-08-31T06:13:43.000Z</Time>
            <Position>
              <LatitudeDegrees>42.05965510569512844085693359375</LatitudeDegrees>
              <LongitudeDegrees>2.22349721007049083709716796875</LongitudeDegrees>
            </Position>
            <AltitudeMeters>699.79998779296875</AltitudeMeters>
            <DistanceMeters>48928.50346265</DistanceMeters>
          </Trackpoint>
          <Trackpoint>
            <Time>2021-08-31T06:13:47.000Z</Time>
            <Position>
              <LatitudeDegrees>42.05973372794687747955322265625</LatitudeDegrees>
              <LongitudeDegrees>2.22332973964512348175048828125</LongitudeDegrees>
            </Position>
            <AltitudeMeters>702.4000244140625</AltitudeMeters>
            <DistanceMeters>48944.877037077</DistanceMeters>
          </Trackpoint>
          <Trackpoint>
            <Time>2021-08-31T06:13:51.000Z</Time>
            <Position>
              <LatitudeDegrees>42.05972735770046710968017578125</LatitudeDegrees>
              <LongitudeDegrees>2.22315187565982341766357421875</LongitudeDegrees>
            </Position>
            <AltitudeMeters>705.4000244140625</AltitudeMeters>
            <DistanceMeters>48959.59207031</DistanceMeters>
          </Trackpoint>
          <Trackpoint>
            <Time>2021-08-31T06:13:57.000Z</Time>
            <Position>
              <LatitudeDegrees>42.059628032147884368896484375</LatitudeDegrees>
              <LongitudeDegrees>2.22287141717970371246337890625</LongitudeDegrees>
            </Position>
            <AltitudeMeters>708.4000244140625</AltitudeMeters>
            <DistanceMeters>48985.269336549</DistanceMeters>
          </Trackpoint>
          <Trackpoint>
            <Time>2021-08-31T06:14:04.000Z</Time>
            <Position>
              <LatitudeDegrees>42.05950071103870868682861328125</LatitudeDegrees>
              <LongitudeDegrees>2.222581319510936737060546875</LongitudeDegrees>
            </Position>
            <AltitudeMeters>710.79998779296875</AltitudeMeters>
            <DistanceMeters>49013.117190416</DistanceMeters>
          </Trackpoint>
          <Trackpoint>
            <Time>2021-08-31T06:14:09.000Z</Time>
            <Position>
              <LatitudeDegrees>42.05944103188812732696533203125</LatitudeDegrees>
              <LongitudeDegrees>2.222329862415790557861328125</LongitudeDegrees>
            </Position>
            <AltitudeMeters>711</AltitudeMeters>
            <DistanceMeters>49034.932807503</DistanceMeters>
          </Trackpoint>
          <Trackpoint>
            <Time>2021-08-31T06:14:10.000Z</Time>
            <Position>
              <LatitudeDegrees>42.0594427920877933502197265625</LatitudeDegrees>
              <LongitudeDegrees>2.22227294929325580596923828125</LongitudeDegrees>
            </Position>
            <AltitudeMeters>710.5999755859375</AltitudeMeters>
            <DistanceMeters>49039.640227985</DistanceMeters>
          </Trackpoint>
          <Trackpoint>
            <Time>2021-08-31T06:14:11.000Z</Time>
            <Position>
              <LatitudeDegrees>42.05945192836225032806396484375</LatitudeDegrees>
              <LongitudeDegrees>2.2222193889319896697998046875</LongitudeDegrees>
            </Position>
            <AltitudeMeters>710.20001220703125</AltitudeMeters>
            <DistanceMeters>49044.181669893</DistanceMeters>
          </Trackpoint>
          <Trackpoint>
            <Time>2021-08-31T06:14:15.000Z</Time>
            <Position>
              <LatitudeDegrees>42.05951211042702198028564453125</LatitudeDegrees>
              <LongitudeDegrees>2.22201311029493808746337890625</LongitudeDegrees>
            </Position>
            <AltitudeMeters>707.5999755859375</AltitudeMeters>
            <DistanceMeters>49062.496451343</DistanceMeters>
          </Trackpoint>
          <Trackpoint>
            <Time>2021-08-31T06:14:22.000Z</Time>
            <Position>
              <LatitudeDegrees>42.05965451896190643310546875</LatitudeDegrees>
              <LongitudeDegrees>2.2216410376131534576416015625</LongitudeDegrees>
            </Position>
            <AltitudeMeters>707.20001220703125</AltitudeMeters>
            <DistanceMeters>49097.08826381</DistanceMeters>
          </Trackpoint>
          <Trackpoint>
            <Time>2021-08-31T06:14:29.000Z</Time>
            <Position>
              <LatitudeDegrees>42.05977194942533969879150390625</LatitudeDegrees>
              <LongitudeDegrees>2.22120626829564571380615234375</LongitudeDegrees>
            </Position>
            <AltitudeMeters>706</AltitudeMeters>
            <DistanceMeters>49135.319248276</DistanceMeters>
          </Trackpoint>
          <Trackpoint>
            <Time>2021-08-31T06:14:35.000Z</Time>
            <Position>
              <LatitudeDegrees>42.05987655557692050933837890625</LatitudeDegrees>
              <LongitudeDegrees>2.22079706378281116485595703125</LongitudeDegrees>
            </Position>
            <AltitudeMeters>711.4000244140625</AltitudeMeters>
            <DistanceMeters>49171.082385266</DistanceMeters>
          </Trackpoint>
          <Trackpoint>
            <Time>2021-08-31T06:14:41.000Z</Time>
            <Position>
              <LatitudeDegrees>42.05995685420930385589599609375</LatitudeDegrees>
              <LongitudeDegrees>2.2203757055103778839111328125</LongitudeDegrees>
            </Position>
            <AltitudeMeters>711.20001220703125</AltitudeMeters>
            <DistanceMeters>49207.030125938</DistanceMeters>
          </Trackpoint>
          <Trackpoint>
            <Time>2021-08-31T06:14:42.000Z</Time>
            <Position>
              <LatitudeDegrees>42.05997864715754985809326171875</LatitudeDegrees>
              <LongitudeDegrees>2.220308147370815277099609375</LongitudeDegrees>
            </Position>
            <AltitudeMeters>711.20001220703125</AltitudeMeters>
            <DistanceMeters>49213.115546507</DistanceMeters>
          </Trackpoint>
          <Trackpoint>
            <Time>2021-08-31T06:14:43.000Z</Time>
            <Position>
              <LatitudeDegrees>42.060007564723491668701171875</LatitudeDegrees>
              <LongitudeDegrees>2.2202486358582973480224609375</LongitudeDegrees>
            </Position>
            <AltitudeMeters>711.20001220703125</AltitudeMeters>
            <DistanceMeters>49218.99185592</DistanceMeters>
          </Trackpoint>
          <Trackpoint>
            <Time>2021-08-31T06:14:46.000Z</Time>
            <Position>
              <LatitudeDegrees>42.060111500322818756103515625</LatitudeDegrees>
              <LongitudeDegrees>2.2200920619070529937744140625</LongitudeDegrees>
            </Position>
            <AltitudeMeters>712.20001220703125</AltitudeMeters>
            <DistanceMeters>49236.347959172</DistanceMeters>
          </Trackpoint>
          <Trackpoint>
            <Time>2021-08-31T06:14:53.000Z</Time>
            <Position>
              <LatitudeDegrees>42.06035281531512737274169921875</LatitudeDegrees>
              <LongitudeDegrees>2.21977983601391315460205078125</LongitudeDegrees>
            </Position>
            <AltitudeMeters>716.4000244140625</AltitudeMeters>
            <DistanceMeters>49273.591400504</DistanceMeters>
          </Trackpoint>
          <Trackpoint>
            <Time>2021-08-31T06:14:55.000Z</Time>
            <Position>
              <LatitudeDegrees>42.0604211278259754180908203125</LatitudeDegrees>
              <LongitudeDegrees>2.21968126483261585235595703125</LongitudeDegrees>
            </Position>
            <AltitudeMeters>716.4000244140625</AltitudeMeters>
            <DistanceMeters>49284.734270472</DistanceMeters>
          </Trackpoint>
          <Trackpoint>
            <Time>2021-08-31T06:14:57.000Z</Time>
            <Position>
              <LatitudeDegrees>42.06048759631812572479248046875</LatitudeDegrees>
              <LongitudeDegrees>2.21956676803529262542724609375</LongitudeDegrees>
            </Position>
            <AltitudeMeters>715.5999755859375</AltitudeMeters>
            <DistanceMeters>49296.744534462</DistanceMeters>
          </Trackpoint>
          <Trackpoint>
            <Time>2021-08-31T06:14:59.000Z</Time>
            <Position>
              <LatitudeDegrees>42.0605616085231304168701171875</LatitudeDegrees>
              <LongitudeDegrees>2.21944523043930530548095703125</LongitudeDegrees>
            </Position>
            <AltitudeMeters>714.5999755859375</AltitudeMeters>
            <DistanceMeters>49309.734029385</DistanceMeters>
          </Trackpoint>
          <Trackpoint>
            <Time>2021-08-31T06:15:01.000Z</Time>
            <Position>
              <LatitudeDegrees>42.06065288744866847991943359375</LatitudeDegrees>
              <LongitudeDegrees>2.21933643333613872528076171875</LongitudeDegrees>
            </Position>
            <AltitudeMeters>714.20001220703125</AltitudeMeters>
            <DistanceMeters>49323.299904142</DistanceMeters>
          </Trackpoint>
          <Trackpoint>
            <Time>2021-08-31T06:15:02.000Z</Time>
            <Position>
              <LatitudeDegrees>42.0607027597725391387939453125</LatitudeDegrees>
              <LongitudeDegrees>2.21929083578288555145263671875</LongitudeDegrees>
            </Position>
            <AltitudeMeters>714.20001220703125</AltitudeMeters>
            <DistanceMeters>49330.008547894</DistanceMeters>
          </Trackpoint>
          <Trackpoint>
            <Time>2021-08-31T06:15:06.000Z</Time>
            <Position>
              <LatitudeDegrees>42.060918845236301422119140625</LatitudeDegrees>
              <LongitudeDegrees>2.2191613353788852691650390625</LongitudeDegrees>
            </Position>
            <AltitudeMeters>712.79998779296875</AltitudeMeters>
            <DistanceMeters>49356.332834519</DistanceMeters>
          </Trackpoint>
          <Trackpoint>
            <Time>2021-08-31T06:15:08.000Z</Time>
            <Position>
              <LatitudeDegrees>42.0610296539962291717529296875</LatitudeDegrees>
              <LongitudeDegrees>2.21913627348840236663818359375</LongitudeDegrees>
            </Position>
            <AltitudeMeters>713</AltitudeMeters>
            <DistanceMeters>49368.838870023</DistanceMeters>
          </Trackpoint>
          <Trackpoint>
            <Time>2021-08-31T06:15:15.000Z</Time>
            <Position>
              <LatitudeDegrees>42.061383537948131561279296875</LatitudeDegrees>
              <LongitudeDegrees>2.2190926037728786468505859375</LongitudeDegrees>
            </Position>
            <AltitudeMeters>713.5999755859375</AltitudeMeters>
            <DistanceMeters>49408.391792212</DistanceMeters>
          </Trackpoint>
          <Trackpoint>
            <Time>2021-08-31T06:15:20.000Z</Time>
            <Position>
              <LatitudeDegrees>42.0615811832249164581298828125</LatitudeDegrees>
              <LongitudeDegrees>2.219099141657352447509765625</LongitudeDegrees>
            </Position>
            <AltitudeMeters>714.5999755859375</AltitudeMeters>
            <DistanceMeters>49430.396992034</DistanceMeters>
          </Trackpoint>
          <Trackpoint>
            <Time>2021-08-31T06:15:21.000Z</Time>
            <Position>
              <LatitudeDegrees>42.06162334419786930084228515625</LatitudeDegrees>
              <LongitudeDegrees>2.2190858982503414154052734375</LongitudeDegrees>
            </Position>
            <AltitudeMeters>714.4000244140625</AltitudeMeters>
            <DistanceMeters>49435.216261337</DistanceMeters>
          </Trackpoint>
          <Trackpoint>
            <Time>2021-08-31T06:15:22.000Z</Time>
            <Position>
              <LatitudeDegrees>42.0616639964282512664794921875</LatitudeDegrees>
              <LongitudeDegrees>2.21906838007271289825439453125</LongitudeDegrees>
            </Position>
            <AltitudeMeters>713.79998779296875</AltitudeMeters>
            <DistanceMeters>49439.965696141</DistanceMeters>
          </Trackpoint>
          <Trackpoint>
            <Time>2021-08-31T06:15:24.000Z</Time>
            <Position>
              <LatitudeDegrees>42.0617387630045413970947265625</LatitudeDegrees>
              <LongitudeDegrees>2.2190185077488422393798828125</LongitudeDegrees>
            </Position>
            <AltitudeMeters>712.79998779296875</AltitudeMeters>
            <DistanceMeters>49449.252096415</DistanceMeters>
          </Trackpoint>
          <Trackpoint>
            <Time>2021-08-31T06:15:26.000Z</Time>
            <Position>
              <LatitudeDegrees>42.06179886125028133392333984375</LatitudeDegrees>
              <LongitudeDegrees>2.21894348971545696258544921875</LongitudeDegrees>
            </Position>
            <AltitudeMeters>711.20001220703125</AltitudeMeters>
            <DistanceMeters>49458.371690926</DistanceMeters>
          </Trackpoint>
          <Trackpoint>
            <Time>2021-08-31T06:15:27.000Z</Time>
            <Position>
              <LatitudeDegrees>42.06182400695979595184326171875</LatitudeDegrees>
              <LongitudeDegrees>2.21889705397188663482666015625</LongitudeDegrees>
            </Position>
            <AltitudeMeters>710.4000244140625</AltitudeMeters>
            <DistanceMeters>49463.119224054</DistanceMeters>
          </Trackpoint>
          <Trackpoint>
            <Time>2021-08-31T06:15:31.000Z</Time>
            <Position>
              <LatitudeDegrees>42.06191738136112689971923828125</LatitudeDegrees>
              <LongitudeDegrees>2.21868817694485187530517578125</LongitudeDegrees>
            </Position>
            <AltitudeMeters>706.5999755859375</AltitudeMeters>
            <DistanceMeters>49483.266680378</DistanceMeters>
          </Trackpoint>
          <Trackpoint>
            <Time>2021-08-31T06:15:33.000Z</Time>
            <Position>
              <LatitudeDegrees>42.0619766414165496826171875</LatitudeDegrees>
              <LongitudeDegrees>2.2185813076794147491455078125</LongitudeDegrees>
            </Position>
            <AltitudeMeters>706</AltitudeMeters>
            <DistanceMeters>49494.288960018</DistanceMeters>
          </Trackpoint>
          <Trackpoint>
            <Time>2021-08-31T06:15:35.000Z</Time>
            <Position>
              <LatitudeDegrees>42.062051407992839813232421875</LatitudeDegrees>
              <LongitudeDegrees>2.21849597990512847900390625</LongitudeDegrees>
            </Position>
            <AltitudeMeters>707</AltitudeMeters>
            <DistanceMeters>49505.195940676</DistanceMeters>
          </Trackpoint>
          <Trackpoint>
            <Time>2021-08-31T06:15:36.000Z</Time>
            <Position>
              <LatitudeDegrees>42.062091641128063201904296875</LatitudeDegrees>
              <LongitudeDegrees>2.2184653021395206451416015625</LongitudeDegrees>
            </Position>
            <AltitudeMeters>707.5999755859375</AltitudeMeters>
            <DistanceMeters>49510.342319423</DistanceMeters>
          </Trackpoint>
          <Trackpoint>
            <Time>2021-08-31T06:15:38.000Z</Time>
            <Position>
              <LatitudeDegrees>42.06217152066528797149658203125</LatitudeDegrees>
              <LongitudeDegrees>2.21840973012149333953857421875</LongitudeDegrees>
            </Position>
            <AltitudeMeters>708.5999755859375</AltitudeMeters>
            <DistanceMeters>49520.348591837</DistanceMeters>
          </Trackpoint>
          <Trackpoint>
            <Time>2021-08-31T06:15:40.000Z</Time>
            <Position>
              <LatitudeDegrees>42.0622483827173709869384765625</LatitudeDegrees>
              <LongitudeDegrees>2.21836178563535213470458984375</LongitudeDegrees>
            </Position>
            <AltitudeMeters>709.5999755859375</AltitudeMeters>
            <DistanceMeters>49529.775893273</DistanceMeters>
          </Trackpoint>
          <Trackpoint>
            <Time>2021-08-31T06:15:41.000Z</Time>
            <Position>
              <LatitudeDegrees>42.06228970550000667572021484375</LatitudeDegrees>
              <LongitudeDegrees>2.2183409146964550018310546875</LongitudeDegrees>
            </Position>
            <AltitudeMeters>710.20001220703125</AltitudeMeters>
            <DistanceMeters>49534.689794412</DistanceMeters>
          </Trackpoint>
          <Trackpoint>
            <Time>2021-08-31T06:15:42.000Z</Time>
            <Position>
              <LatitudeDegrees>42.0623338781297206878662109375</LatitudeDegrees>
              <LongitudeDegrees>2.2183196246623992919921875</LongitudeDegrees>
            </Position>
            <AltitudeMeters>710.79998779296875</AltitudeMeters>
            <DistanceMeters>49539.91194252</DistanceMeters>
          </Trackpoint>
          <Trackpoint>
            <Time>2021-08-31T06:15:46.000Z</Time>
            <Position>
              <LatitudeDegrees>42.06252691335976123809814453125</LatitudeDegrees>
              <LongitudeDegrees>2.218212671577930450439453125</LongitudeDegrees>
            </Position>
            <AltitudeMeters>710</AltitudeMeters>
            <DistanceMeters>49563.143787883</DistanceMeters>
          </Trackpoint>
          <Trackpoint>
            <Time>2021-08-31T06:15:47.000Z</Time>
            <Position>
              <LatitudeDegrees>42.06257552839815616607666015625</LatitudeDegrees>
              <LongitudeDegrees>2.21818190999329090118408203125</LongitudeDegrees>
            </Position>
            <AltitudeMeters>709.20001220703125</AltitudeMeters>
            <DistanceMeters>49569.120658504</DistanceMeters>
          </Trackpoint>
          <Trackpoint>
            <Time>2021-08-31T06:15:49.000Z</Time>
            <Position>
              <LatitudeDegrees>42.06266739405691623687744140625</LatitudeDegrees>
              <LongitudeDegrees>2.2180951572954654693603515625</LongitudeDegrees>
            </Position>
            <AltitudeMeters>707</AltitudeMeters>
            <DistanceMeters>49581.607906401</DistanceMeters>
          </Trackpoint>
          <Trackpoint>
            <Time>2021-08-31T06:15:51.000Z</Time>
            <Position>
              <LatitudeDegrees>42.0627523027360439300537109375</LatitudeDegrees>
              <LongitudeDegrees>2.21799616701900959014892578125</LongitudeDegrees>
            </Position>
            <AltitudeMeters>704.79998779296875</AltitudeMeters>
            <DistanceMeters>49594.106358001</DistanceMeters>
          </Trackpoint>
          <Trackpoint>
            <Time>2021-08-31T06:15:58.000Z</Time>
            <Position>
              <LatitudeDegrees>42.06303737126290798187255859375</LatitudeDegrees>
              <LongitudeDegrees>2.21770347096025943756103515625</LongitudeDegrees>
            </Position>
            <AltitudeMeters>702.5999755859375</AltitudeMeters>
            <DistanceMeters>49634.002076621</DistanceMeters>
          </Trackpoint>
          <Trackpoint>
            <Time>2021-08-31T06:16:04.000Z</Time>
            <Position>
              <LatitudeDegrees>42.06332135014235973358154296875</LatitudeDegrees>
              <LongitudeDegrees>2.217465676367282867431640625</LongitudeDegrees>
            </Position>
            <AltitudeMeters>702.5999755859375</AltitudeMeters>
            <DistanceMeters>49671.219322969</DistanceMeters>
          </Trackpoint>
          <Trackpoint>
            <Time>2021-08-31T06:16:12.000Z</Time>
            <Position>
              <LatitudeDegrees>42.0637215860188007354736328125</LatitudeDegrees>
              <LongitudeDegrees>2.217147164046764373779296875</LongitudeDegrees>
            </Position>
            <AltitudeMeters>697.4000244140625</AltitudeMeters>
            <DistanceMeters>49722.960387254</DistanceMeters>
          </Trackpoint>
          <Trackpoint>
            <Time>2021-08-31T06:16:18.000Z</Time>
            <Position>
              <LatitudeDegrees>42.06393859349191188812255859375</LatitudeDegrees>
              <LongitudeDegrees>2.21689009107649326324462890625</LongitudeDegrees>
            </Position>
            <AltitudeMeters>697.4000244140625</AltitudeMeters>
            <DistanceMeters>49755.125772041</DistanceMeters>
          </Trackpoint>
          <Trackpoint>
            <Time>2021-08-31T06:16:23.000Z</Time>
            <Position>
              <LatitudeDegrees>42.06408326514065265655517578125</LatitudeDegrees>
              <LongitudeDegrees>2.216695882380008697509765625</LongitudeDegrees>
            </Position>
            <AltitudeMeters>698</AltitudeMeters>
            <DistanceMeters>49777.85901433</DistanceMeters>
          </Trackpoint>
          <Trackpoint>
            <Time>2021-08-31T06:16:25.000Z</Time>
            <Position>
              <LatitudeDegrees>42.0641411840915679931640625</LatitudeDegrees>
              <LongitudeDegrees>2.216608040034770965576171875</LongitudeDegrees>
            </Position>
            <AltitudeMeters>697.4000244140625</AltitudeMeters>
            <DistanceMeters>49787.566168789</DistanceMeters>
          </Trackpoint>
          <Trackpoint>
            <Time>2021-08-31T06:16:27.000Z</Time>
            <Position>
              <LatitudeDegrees>42.06421150825917720794677734375</LatitudeDegrees>
              <LongitudeDegrees>2.216517515480518341064453125</LongitudeDegrees>
            </Position>
            <AltitudeMeters>696.79998779296875</AltitudeMeters>
            <DistanceMeters>49798.392960664</DistanceMeters>
          </Trackpoint>
          <Trackpoint>
            <Time>2021-08-31T06:16:29.000Z</Time>
            <Position>
              <LatitudeDegrees>42.06427487544715404510498046875</LatitudeDegrees>
              <LongitudeDegrees>2.216400839388370513916015625</LongitudeDegrees>
            </Position>
            <AltitudeMeters>696.4000244140625</AltitudeMeters>
            <DistanceMeters>49810.338389412</DistanceMeters>
          </Trackpoint>
          <Trackpoint>
            <Time>2021-08-31T06:16:36.000Z</Time>
            <Position>
              <LatitudeDegrees>42.06446950323879718780517578125</LatitudeDegrees>
              <LongitudeDegrees>2.21601619385182857513427734375</LongitudeDegrees>
            </Position>
            <AltitudeMeters>696.79998779296875</AltitudeMeters>
            <DistanceMeters>49848.801794671</DistanceMeters>
          </Trackpoint>
          <Trackpoint>
            <Time>2021-08-31T06:16:42.000Z</Time>
            <Position>
              <LatitudeDegrees>42.06462062895298004150390625</LatitudeDegrees>
              <LongitudeDegrees>2.215757109224796295166015625</LongitudeDegrees>
            </Position>
            <AltitudeMeters>701</AltitudeMeters>
            <DistanceMeters>49876.027238558</DistanceMeters>
          </Trackpoint>
          <Trackpoint>
            <Time>2021-08-31T06:16:43.000Z</Time>
            <Position>
              <LatitudeDegrees>42.064652480185031890869140625</LatitudeDegrees>
              <LongitudeDegrees>2.21571461297571659088134765625</LongitudeDegrees>
            </Position>
            <AltitudeMeters>701.4000244140625</AltitudeMeters>
            <DistanceMeters>49881.01772459</DistanceMeters>
          </Trackpoint>
          <Trackpoint>
            <Time>2021-08-31T06:16:48.000Z</Time>
            <Position>
              <LatitudeDegrees>42.06483948044478893280029296875</LatitudeDegrees>
              <LongitudeDegrees>2.2155470587313175201416015625</LongitudeDegrees>
            </Position>
            <AltitudeMeters>705</AltitudeMeters>
            <DistanceMeters>49906.015169656</DistanceMeters>
          </Trackpoint>
          <Trackpoint>
            <Time>2021-08-31T06:16:50.000Z</Time>
            <Position>
              <LatitudeDegrees>42.064909636974334716796875</LatitudeDegrees>
              <LongitudeDegrees>2.21550489775836467742919921875</LongitudeDegrees>
            </Position>
            <AltitudeMeters>706.5999755859375</AltitudeMeters>
            <DistanceMeters>49914.565461984</DistanceMeters>
          </Trackpoint>
          <Trackpoint>
            <Time>2021-08-31T06:16:53.000Z</Time>
            <Position>
              <LatitudeDegrees>42.06501952372491359710693359375</LatitudeDegrees>
              <LongitudeDegrees>2.21545393578708171844482421875</LongitudeDegrees>
            </Position>
            <AltitudeMeters>708.4000244140625</AltitudeMeters>
            <DistanceMeters>49927.500618977</DistanceMeters>
          </Trackpoint>
          <Trackpoint>
            <Time>2021-08-31T06:17:01.000Z</Time>
            <Position>
              <LatitudeDegrees>42.06530400551855564117431640625</LatitudeDegrees>
              <LongitudeDegrees>2.2153582982718944549560546875</LongitudeDegrees>
            </Position>
            <AltitudeMeters>712</AltitudeMeters>
            <DistanceMeters>49960.135205628</DistanceMeters>
          </Trackpoint>
          <Trackpoint>
            <Time>2021-08-31T06:17:07.000Z</Time>
            <Position>
              <LatitudeDegrees>42.06549762748181819915771484375</LatitudeDegrees>
              <LongitudeDegrees>2.21528143621981143951416015625</LongitudeDegrees>
            </Position>
            <AltitudeMeters>713.5999755859375</AltitudeMeters>
            <DistanceMeters>49982.602141624</DistanceMeters>
          </Trackpoint>
          <Trackpoint>
            <Time>2021-08-31T06:17:14.000Z</Time>
            <Position>
              <LatitudeDegrees>42.06570516340434551239013671875</LatitudeDegrees>
              <LongitudeDegrees>2.215146236121654510498046875</LongitudeDegrees>
            </Position>
            <AltitudeMeters>716</AltitudeMeters>
            <DistanceMeters>50008.261114197</DistanceMeters>
          </Trackpoint>
          <Trackpoint>
            <Time>2021-08-31T06:17:21.000Z</Time>
            <Position>
              <LatitudeDegrees>42.06581764854490756988525390625</LatitudeDegrees>
              <LongitudeDegrees>2.21488882787525653839111328125</LongitudeDegrees>
            </Position>
            <AltitudeMeters>718.79998779296875</AltitudeMeters>
            <DistanceMeters>50032.941730815</DistanceMeters>
          </Trackpoint>
          <Trackpoint>
            <Time>2021-08-31T06:17:28.000Z</Time>
            <Position>
              <LatitudeDegrees>42.06584698520600795745849609375</LatitudeDegrees>
              <LongitudeDegrees>2.21461021341383457183837890625</LongitudeDegrees>
            </Position>
            <AltitudeMeters>720</AltitudeMeters>
            <DistanceMeters>50056.193585297</DistanceMeters>
          </Trackpoint>
          <Trackpoint>
            <Time>2021-08-31T06:17:33.000Z</Time>
            <Position>
              <LatitudeDegrees>42.0658073388040065765380859375</LatitudeDegrees>
              <LongitudeDegrees>2.21440292894840240478515625</LongitudeDegrees>
            </Position>
            <AltitudeMeters>721.4000244140625</AltitudeMeters>
            <DistanceMeters>50073.880556158</DistanceMeters>
          </Trackpoint>
          <Trackpoint>
            <Time>2021-08-31T06:17:41.000Z</Time>
            <Position>
              <LatitudeDegrees>42.0656631700694561004638671875</LatitudeDegrees>
              <LongitudeDegrees>2.214052565395832061767578125</LongitudeDegrees>
            </Position>
            <AltitudeMeters>724.4000244140625</AltitudeMeters>
            <DistanceMeters>50106.980149126</DistanceMeters>
          </Trackpoint>
          <Trackpoint>
            <Time>2021-08-31T06:17:47.000Z</Time>
            <Position>
              <LatitudeDegrees>42.06555135548114776611328125</LatitudeDegrees>
              <LongitudeDegrees>2.21381192095577716827392578125</LongitudeDegrees>
            </Position>
            <AltitudeMeters>725</AltitudeMeters>
            <DistanceMeters>50130.437700963</DistanceMeters>
          </Trackpoint>
          <Trackpoint>
            <Time>2021-08-31T06:17:53.000Z</Time>
            <Position>
              <LatitudeDegrees>42.065445072948932647705078125</LatitudeDegrees>
              <LongitudeDegrees>2.2135850228369235992431640625</LongitudeDegrees>
            </Position>
            <AltitudeMeters>725.4000244140625</AltitudeMeters>
            <DistanceMeters>50152.606030179</DistanceMeters>
          </Trackpoint>
          <Trackpoint>
            <Time>2021-08-31T06:17:58.000Z</Time>
            <Position>
              <LatitudeDegrees>42.0653808675706386566162109375</LatitudeDegrees>
              <LongitudeDegrees>2.21344898454844951629638671875</LongitudeDegrees>
            </Position>
            <AltitudeMeters>725.5999755859375</AltitudeMeters>
            <DistanceMeters>50165.926050523</DistanceMeters>
          </Trackpoint>
          <Trackpoint>
            <Time>2021-08-31T06:18:02.000Z</Time>
            <Position>
              <LatitudeDegrees>42.06531909294426441192626953125</LatitudeDegrees>
              <LongitudeDegrees>2.21327648498117923736572265625</LongitudeDegrees>
            </Position>
            <AltitudeMeters>725.5999755859375</AltitudeMeters>
            <DistanceMeters>50181.751065848</DistanceMeters>
          </Trackpoint>
          <Trackpoint>
            <Time>2021-08-31T06:18:06.000Z</Time>
            <Position>
              <LatitudeDegrees>42.06527232192456722259521484375</LatitudeDegrees>
              <LongitudeDegrees>2.21309007145464420318603515625</LongitudeDegrees>
            </Position>
            <AltitudeMeters>724.79998779296875</AltitudeMeters>
            <DistanceMeters>50198.010356053</DistanceMeters>
          </Trackpoint>
          <Trackpoint>
            <Time>2021-08-31T06:18:12.000Z</Time>
            <Position>
              <LatitudeDegrees>42.06524365581572055816650390625</LatitudeDegrees>
              <LongitudeDegrees>2.21278580836951732635498046875</LongitudeDegrees>
            </Position>
            <AltitudeMeters>722.5999755859375</AltitudeMeters>
            <DistanceMeters>50223.352753273</DistanceMeters>
          </Trackpoint>
          <Trackpoint>
            <Time>2021-08-31T06:18:19.000Z</Time>
            <Position>
              <LatitudeDegrees>42.06525673158466815948486328125</LatitudeDegrees>
              <LongitudeDegrees>2.2124239616096019744873046875</LongitudeDegrees>
            </Position>
            <AltitudeMeters>719.20001220703125</AltitudeMeters>
            <DistanceMeters>50253.28692247</DistanceMeters>
          </Trackpoint>
          <Trackpoint>
            <Time>2021-08-31T06:18:25.000Z</Time>
            <Position>
              <LatitudeDegrees>42.0653071068227291107177734375</LatitudeDegrees>
              <LongitudeDegrees>2.212151549756526947021484375</LongitudeDegrees>
            </Position>
            <AltitudeMeters>715.79998779296875</AltitudeMeters>
            <DistanceMeters>50276.483564364</DistanceMeters>
          </Trackpoint>
          <Trackpoint>
            <Time>2021-08-31T06:18:31.000Z</Time>
            <Position>
              <LatitudeDegrees>42.06539419479668140411376953125</LatitudeDegrees>
              <LongitudeDegrees>2.21188844181597232818603515625</LongitudeDegrees>
            </Position>
            <AltitudeMeters>715.5999755859375</AltitudeMeters>
            <DistanceMeters>50300.286570821</DistanceMeters>
          </Trackpoint>
          <Trackpoint>
            <Time>2021-08-31T06:18:36.000Z</Time>
            <Position>
              <LatitudeDegrees>42.0654750801622867584228515625</LatitudeDegrees>
              <LongitudeDegrees>2.21170487813651561737060546875</LongitudeDegrees>
            </Position>
            <AltitudeMeters>717.5999755859375</AltitudeMeters>
            <DistanceMeters>50317.924716802</DistanceMeters>
          </Trackpoint>
          <Trackpoint>
            <Time>2021-08-31T06:18:42.000Z</Time>
            <Position>
              <LatitudeDegrees>42.06550936214625835418701171875</LatitudeDegrees>
              <LongitudeDegrees>2.2113892994821071624755859375</LongitudeDegrees>
            </Position>
            <AltitudeMeters>719.20001220703125</AltitudeMeters>
            <DistanceMeters>50344.278145029</DistanceMeters>
          </Trackpoint>
          <Trackpoint>
            <Time>2021-08-31T06:18:44.000Z</Time>
            <Position>
              <LatitudeDegrees>42.06551321782171726226806640625</LatitudeDegrees>
              <LongitudeDegrees>2.2112682648003101348876953125</LongitudeDegrees>
            </Position>
            <AltitudeMeters>720.4000244140625</AltitudeMeters>
            <DistanceMeters>50354.288026558</DistanceMeters>
          </Trackpoint>
          <Trackpoint>
            <Time>2021-08-31T06:18:49.000Z</Time>
            <Position>
              <LatitudeDegrees>42.0655230246484279632568359375</LatitudeDegrees>
              <LongitudeDegrees>2.21092469058930873870849609375</LongitudeDegrees>
            </Position>
            <AltitudeMeters>724.5999755859375</AltitudeMeters>
            <DistanceMeters>50382.69799475</DistanceMeters>
          </Trackpoint>
          <Trackpoint>
            <Time>2021-08-31T06:18:56.000Z</Time>
            <Position>
              <LatitudeDegrees>42.06553551368415355682373046875</LatitudeDegrees>
              <LongitudeDegrees>2.2104066051542758941650390625</LongitudeDegrees>
            </Position>
            <AltitudeMeters>725.5999755859375</AltitudeMeters>
            <DistanceMeters>50425.529013299</DistanceMeters>
          </Trackpoint>
          <Trackpoint>
            <Time>2021-08-31T06:19:03.000Z</Time>
            <Position>
              <LatitudeDegrees>42.0656219311058521270751953125</LatitudeDegrees>
              <LongitudeDegrees>2.20987644977867603302001953125</LongitudeDegrees>
            </Position>
            <AltitudeMeters>725.4000244140625</AltitudeMeters>
            <DistanceMeters>50470.37830045</DistanceMeters>
          </Trackpoint>
          <Trackpoint>
            <Time>2021-08-31T06:19:10.000Z</Time>
            <Position>
              <LatitudeDegrees>42.065746150910854339599609375</LatitudeDegrees>
              <LongitudeDegrees>2.20936180092394351959228515625</LongitudeDegrees>
            </Position>
            <AltitudeMeters>726</AltitudeMeters>
            <DistanceMeters>50515.093797166</DistanceMeters>
          </Trackpoint>
          <Trackpoint>
            <Time>2021-08-31T06:19:13.000Z</Time>
            <Position>
              <LatitudeDegrees>42.06580021418631076812744140625</LatitudeDegrees>
              <LongitudeDegrees>2.2091369144618511199951171875</LongitudeDegrees>
            </Position>
            <AltitudeMeters>725.5999755859375</AltitudeMeters>
            <DistanceMeters>50534.625428164</DistanceMeters>
          </Trackpoint>
          <Trackpoint>
            <Time>2021-08-31T06:19:15.000Z</Time>
            <Position>
              <LatitudeDegrees>42.06586475484073162078857421875</LatitudeDegrees>
              <LongitudeDegrees>2.2089987806975841522216796875</LongitudeDegrees>
            </Position>
            <AltitudeMeters>725.79998779296875</AltitudeMeters>
            <DistanceMeters>50548.111188787</DistanceMeters>
          </Trackpoint>
          <Trackpoint>
            <Time>2021-08-31T06:19:18.000Z</Time>
            <Position>
              <LatitudeDegrees>42.06596852280199527740478515625</LatitudeDegrees>
              <LongitudeDegrees>2.20878663472831249237060546875</LongitudeDegrees>
            </Position>
            <AltitudeMeters>725.20001220703125</AltitudeMeters>
            <DistanceMeters>50569.102845947</DistanceMeters>
          </Trackpoint>
          <Trackpoint>
            <Time>2021-08-31T06:19:20.000Z</Time>
            <Position>
              <LatitudeDegrees>42.06600121222436428070068359375</LatitudeDegrees>
              <LongitudeDegrees>2.2086266241967678070068359375</LongitudeDegrees>
            </Position>
            <AltitudeMeters>724.79998779296875</AltitudeMeters>
            <DistanceMeters>50582.815698016</DistanceMeters>
          </Trackpoint>
          <Trackpoint>
            <Time>2021-08-31T06:19:25.000Z</Time>
            <Position>
              <LatitudeDegrees>42.066009342670440673828125</LatitudeDegrees>
              <LongitudeDegrees>2.208201326429843902587890625</LongitudeDegrees>
            </Position>
            <AltitudeMeters>724.4000244140625</AltitudeMeters>
            <DistanceMeters>50617.968775707</DistanceMeters>
          </Trackpoint>
          <Trackpoint>
            <Time>2021-08-31T06:19:32.000Z</Time>
            <Position>
              <LatitudeDegrees>42.0660068280994892120361328125</LatitudeDegrees>
              <LongitudeDegrees>2.20749800093472003936767578125</LongitudeDegrees>
            </Position>
            <AltitudeMeters>718.79998779296875</AltitudeMeters>
            <DistanceMeters>50676.083652381</DistanceMeters>
          </Trackpoint>
          <Trackpoint>
            <Time>2021-08-31T06:19:40.000Z</Time>
            <Position>
              <LatitudeDegrees>42.0659498311579227447509765625</LatitudeDegrees>
              <LongitudeDegrees>2.20669618807733058929443359375</LongitudeDegrees>
            </Position>
            <AltitudeMeters>716.20001220703125</AltitudeMeters>
            <DistanceMeters>50742.638588474</DistanceMeters>
          </Trackpoint>
          <Trackpoint>
            <Time>2021-08-31T06:19:41.000Z</Time>
            <Position>
              <LatitudeDegrees>42.06594807095825672149658203125</LatitudeDegrees>
              <LongitudeDegrees>2.20659677870571613311767578125</LongitudeDegrees>
            </Position>
            <AltitudeMeters>715.79998779296875</AltitudeMeters>
            <DistanceMeters>50750.854965504</DistanceMeters>
          </Trackpoint>
          <Trackpoint>
            <Time>2021-08-31T06:19:47.000Z</Time>
            <Position>
              <LatitudeDegrees>42.0659722946584224700927734375</LatitudeDegrees>
              <LongitudeDegrees>2.20603569410741329193115234375</LongitudeDegrees>
            </Position>
            <AltitudeMeters>715</AltitudeMeters>
            <DistanceMeters>50797.294453732</DistanceMeters>
          </Trackpoint>
          <Trackpoint>
            <Time>2021-08-31T06:19:53.000Z</Time>
            <Position>
              <LatitudeDegrees>42.06596701405942440032958984375</LatitudeDegrees>
              <LongitudeDegrees>2.2055541537702083587646484375</LongitudeDegrees>
            </Position>
            <AltitudeMeters>714.79998779296875</AltitudeMeters>
            <DistanceMeters>50837.087393871</DistanceMeters>
          </Trackpoint>
          <Trackpoint>
            <Time>2021-08-31T06:19:58.000Z</Time>
            <Position>
              <LatitudeDegrees>42.06589895300567150115966796875</LatitudeDegrees>
              <LongitudeDegrees>2.20520588569343090057373046875</LongitudeDegrees>
            </Position>
            <AltitudeMeters>717.20001220703125</AltitudeMeters>
            <DistanceMeters>50866.84441432</DistanceMeters>
          </Trackpoint>
          <Trackpoint>
            <Time>2021-08-31T06:20:00.000Z</Time>
            <Position>
              <LatitudeDegrees>42.0658733882009983062744140625</LatitudeDegrees>
              <LongitudeDegrees>2.20506708137691020965576171875</LongitudeDegrees>
            </Position>
            <AltitudeMeters>718.20001220703125</AltitudeMeters>
            <DistanceMeters>50878.661397951</DistanceMeters>
          </Trackpoint>
          <Trackpoint>
            <Time>2021-08-31T06:20:03.000Z</Time>
            <Position>
              <LatitudeDegrees>42.065800130367279052734375</LatitudeDegrees>
              <LongitudeDegrees>2.204883098602294921875</LongitudeDegrees>
            </Position>
            <AltitudeMeters>720.20001220703125</AltitudeMeters>
            <DistanceMeters>50895.912084001</DistanceMeters>
          </Trackpoint>
          <Trackpoint>
            <Time>2021-08-31T06:20:09.000Z</Time>
            <Position>
              <LatitudeDegrees>42.06563157029449939727783203125</LatitudeDegrees>
              <LongitudeDegrees>2.20465569756925106048583984375</LongitudeDegrees>
            </Position>
            <AltitudeMeters>722.20001220703125</AltitudeMeters>
            <DistanceMeters>50922.464527362</DistanceMeters>
          </Trackpoint>
          <Trackpoint>
            <Time>2021-08-31T06:20:15.000Z</Time>
            <Position>
              <LatitudeDegrees>42.0655072666704654693603515625</LatitudeDegrees>
              <LongitudeDegrees>2.2044794261455535888671875</LongitudeDegrees>
            </Position>
            <AltitudeMeters>723</AltitudeMeters>
            <DistanceMeters>50942.552959014</DistanceMeters>
          </Trackpoint>
          <Trackpoint>
            <Time>2021-08-31T06:20:21.000Z</Time>
            <Position>
              <LatitudeDegrees>42.06542470492422580718994140625</LatitudeDegrees>
              <LongitudeDegrees>2.20431975089013576507568359375</LongitudeDegrees>
            </Position>
            <AltitudeMeters>724</AltitudeMeters>
            <DistanceMeters>50958.631299364</DistanceMeters>
          </Trackpoint>
          <Trackpoint>
            <Time>2021-08-31T06:20:28.000Z</Time>
            <Position>
              <LatitudeDegrees>42.0653010718524456024169921875</LatitudeDegrees>
              <LongitudeDegrees>2.204167284071445465087890625</LongitudeDegrees>
            </Position>
            <AltitudeMeters>724.4000244140625</AltitudeMeters>
            <DistanceMeters>50977.287538708</DistanceMeters>
          </Trackpoint>
          <Trackpoint>
            <Time>2021-08-31T06:20:36.000Z</Time>
            <Position>
              <LatitudeDegrees>42.06515262834727764129638671875</LatitudeDegrees>
              <LongitudeDegrees>2.20395614393055438995361328125</LongitudeDegrees>
            </Position>
            <AltitudeMeters>726</AltitudeMeters>
            <DistanceMeters>51001.315584145</DistanceMeters>
          </Trackpoint>
          <Trackpoint>
            <Time>2021-08-31T06:20:43.000Z</Time>
            <Position>
              <LatitudeDegrees>42.0650563202798366546630859375</LatitudeDegrees>
              <LongitudeDegrees>2.20372798852622509002685546875</LongitudeDegrees>
            </Position>
            <AltitudeMeters>728.4000244140625</AltitudeMeters>
            <DistanceMeters>51023.002087814</DistanceMeters>
          </Trackpoint>
          <Trackpoint>
            <Time>2021-08-31T06:20:50.000Z</Time>
            <Position>
              <LatitudeDegrees>42.06503192894160747528076171875</LatitudeDegrees>
              <LongitudeDegrees>2.2034975700080394744873046875</LongitudeDegrees>
            </Position>
            <AltitudeMeters>731.79998779296875</AltitudeMeters>
            <DistanceMeters>51042.234142596</DistanceMeters>
          </Trackpoint>
          <Trackpoint>
            <Time>2021-08-31T06:20:59.000Z</Time>
            <Position>
              <LatitudeDegrees>42.06499035470187664031982421875</LatitudeDegrees>
              <LongitudeDegrees>2.2032321989536285400390625</LongitudeDegrees>
            </Position>
            <AltitudeMeters>735.4000244140625</AltitudeMeters>
            <DistanceMeters>51064.644536648</DistanceMeters>
          </Trackpoint>
          <Trackpoint>
            <Time>2021-08-31T06:21:05.000Z</Time>
            <Position>
              <LatitudeDegrees>42.06493469886481761932373046875</LatitudeDegrees>
              <LongitudeDegrees>2.20307269133627414703369140625</LongitudeDegrees>
            </Position>
            <AltitudeMeters>737.20001220703125</AltitudeMeters>
            <DistanceMeters>51079.207516266</DistanceMeters>
          </Trackpoint>
          <Trackpoint>
            <Time>2021-08-31T06:21:10.000Z</Time>
            <Position>
              <LatitudeDegrees>42.06487803719937801361083984375</LatitudeDegrees>
              <LongitudeDegrees>2.20296054147183895111083984375</LongitudeDegrees>
            </Position>
            <AltitudeMeters>738.20001220703125</AltitudeMeters>
            <DistanceMeters>51090.416641283</DistanceMeters>
          </Trackpoint>
          <Trackpoint>
            <Time>2021-08-31T06:21:15.000Z</Time>
            <Position>
              <LatitudeDegrees>42.06484769470989704132080078125</LatitudeDegrees>
              <LongitudeDegrees>2.202834226191043853759765625</LongitudeDegrees>
            </Position>
            <AltitudeMeters>739.79998779296875</AltitudeMeters>
            <DistanceMeters>51101.38718634</DistanceMeters>
          </Trackpoint>
          <Trackpoint>
            <Time>2021-08-31T06:21:23.000Z</Time>
            <Position>
              <LatitudeDegrees>42.0647254027426242828369140625</LatitudeDegrees>
              <LongitudeDegrees>2.20264236442744731903076171875</LongitudeDegrees>
            </Position>
            <AltitudeMeters>741.79998779296875</AltitudeMeters>
            <DistanceMeters>51122.282262221</DistanceMeters>
          </Trackpoint>
          <Trackpoint>
            <Time>2021-08-31T06:21:30.000Z</Time>
            <Position>
              <LatitudeDegrees>42.06459690816700458526611328125</LatitudeDegrees>
              <LongitudeDegrees>2.20246869139373302459716796875</LongitudeDegrees>
            </Position>
            <AltitudeMeters>743.4000244140625</AltitudeMeters>
            <DistanceMeters>51142.542572804</DistanceMeters>
          </Trackpoint>
          <Trackpoint>
            <Time>2021-08-31T06:21:37.000Z</Time>
            <Position>
              <LatitudeDegrees>42.06448459066450595855712890625</LatitudeDegrees>
              <LongitudeDegrees>2.202226705849170684814453125</LongitudeDegrees>
            </Position>
            <AltitudeMeters>745.4000244140625</AltitudeMeters>
            <DistanceMeters>51166.123945484</DistanceMeters>
          </Trackpoint>
          <Trackpoint>
            <Time>2021-08-31T06:21:43.000Z</Time>
            <Position>
              <LatitudeDegrees>42.06437252461910247802734375</LatitudeDegrees>
              <LongitudeDegrees>2.20200316049158573150634765625</LongitudeDegrees>
            </Position>
            <AltitudeMeters>747.4000244140625</AltitudeMeters>
            <DistanceMeters>51188.412319032</DistanceMeters>
          </Trackpoint>
          <Trackpoint>
            <Time>2021-08-31T06:21:51.000Z</Time>
            <Position>
              <LatitudeDegrees>42.06416456960141658782958984375</LatitudeDegrees>
              <LongitudeDegrees>2.2017353586852550506591796875</LongitudeDegrees>
            </Position>
            <AltitudeMeters>749</AltitudeMeters>
            <DistanceMeters>51220.434065868</DistanceMeters>
          </Trackpoint>
          <Trackpoint>
            <Time>2021-08-31T06:21:58.000Z</Time>
            <Position>
              <LatitudeDegrees>42.06395954824984073638916015625</LatitudeDegrees>
              <LongitudeDegrees>2.2015657089650630950927734375</LongitudeDegrees>
            </Position>
            <AltitudeMeters>747.5999755859375</AltitudeMeters>
            <DistanceMeters>51247.215419676</DistanceMeters>
          </Trackpoint>
          <Trackpoint>
            <Time>2021-08-31T06:22:03.000Z</Time>
            <Position>
              <LatitudeDegrees>42.06389886327087879180908203125</LatitudeDegrees>
              <LongitudeDegrees>2.20133696682751178741455078125</LongitudeDegrees>
            </Position>
            <AltitudeMeters>749.79998779296875</AltitudeMeters>
            <DistanceMeters>51267.287212335</DistanceMeters>
          </Trackpoint>
          <Trackpoint>
            <Time>2021-08-31T06:22:04.000Z</Time>
            <Position>
              <LatitudeDegrees>42.0638798363506793975830078125</LatitudeDegrees>
              <LongitudeDegrees>2.201290614902973175048828125</LongitudeDegrees>
            </Position>
            <AltitudeMeters>750.20001220703125</AltitudeMeters>
            <DistanceMeters>51271.663602645</DistanceMeters>
          </Trackpoint>
          <Trackpoint>
            <Time>2021-08-31T06:22:07.000Z</Time>
            <Position>
              <LatitudeDegrees>42.06380389630794525146484375</LatitudeDegrees>
              <LongitudeDegrees>2.201133705675601959228515625</LongitudeDegrees>
            </Position>
            <AltitudeMeters>751.20001220703125</AltitudeMeters>
            <DistanceMeters>51287.14100126</DistanceMeters>
          </Trackpoint>
          <Trackpoint>
            <Time>2021-08-31T06:22:08.000Z</Time>
            <Position>
              <LatitudeDegrees>42.063770033419132232666015625</LatitudeDegrees>
              <LongitudeDegrees>2.20107930712401866912841796875</LongitudeDegrees>
            </Position>
            <AltitudeMeters>751.4000244140625</AltitudeMeters>
            <DistanceMeters>51293.008083278</DistanceMeters>
          </Trackpoint>
          <Trackpoint>
            <Time>2021-08-31T06:22:09.000Z</Time>
            <Position>
              <LatitudeDegrees>42.06373424269258975982666015625</LatitudeDegrees>
              <LongitudeDegrees>2.201025746762752532958984375</LongitudeDegrees>
            </Position>
            <AltitudeMeters>751.4000244140625</AltitudeMeters>
            <DistanceMeters>51298.962248217</DistanceMeters>
          </Trackpoint>
          <Trackpoint>
            <Time>2021-08-31T06:22:13.000Z</Time>
            <Position>
              <LatitudeDegrees>42.063566185534000396728515625</LatitudeDegrees>
              <LongitudeDegrees>2.20080270431935787200927734375</LongitudeDegrees>
            </Position>
            <AltitudeMeters>750.79998779296875</AltitudeMeters>
            <DistanceMeters>51325.221621732</DistanceMeters>
          </Trackpoint>
          <Trackpoint>
            <Time>2021-08-31T06:22:15.000Z</Time>
            <Position>
              <LatitudeDegrees>42.0634986273944377899169921875</LatitudeDegrees>
              <LongitudeDegrees>2.2006705217063426971435546875</LongitudeDegrees>
            </Position>
            <AltitudeMeters>750</AltitudeMeters>
            <DistanceMeters>51338.481849804</DistanceMeters>
          </Trackpoint>
          <Trackpoint>
            <Time>2021-08-31T06:22:17.000Z</Time>
            <Position>
              <LatitudeDegrees>42.06345763988792896270751953125</LatitudeDegrees>
              <LongitudeDegrees>2.2005243413150310516357421875</LongitudeDegrees>
            </Position>
            <AltitudeMeters>749.79998779296875</AltitudeMeters>
            <DistanceMeters>51351.393599155</DistanceMeters>
          </Trackpoint>
          <Trackpoint>
            <Time>2021-08-31T06:22:21.000Z</Time>
            <Position>
              <LatitudeDegrees>42.06341891549527645111083984375</LatitudeDegrees>
              <LongitudeDegrees>2.20024178735911846160888671875</LongitudeDegrees>
            </Position>
            <AltitudeMeters>750.79998779296875</AltitudeMeters>
            <DistanceMeters>51375.135829293</DistanceMeters>
          </Trackpoint>
          <Trackpoint>
            <Time>2021-08-31T06:22:22.000Z</Time>
            <Position>
              <LatitudeDegrees>42.063416652381420135498046875</LatitudeDegrees>
              <LongitudeDegrees>2.20017875544726848602294921875</LongitudeDegrees>
            </Position>
            <AltitudeMeters>751.4000244140625</AltitudeMeters>
            <DistanceMeters>51380.351056062</DistanceMeters>
          </Trackpoint>
          <Trackpoint>
            <Time>2021-08-31T06:22:26.000Z</Time>
            <Position>
              <LatitudeDegrees>42.063419334590435028076171875</LatitudeDegrees>
              <LongitudeDegrees>2.19999284483492374420166015625</LongitudeDegrees>
            </Position>
            <AltitudeMeters>753</AltitudeMeters>
            <DistanceMeters>51395.716026565</DistanceMeters>
          </Trackpoint>
          <Trackpoint>
            <Time>2021-08-31T06:22:31.000Z</Time>
            <Position>
              <LatitudeDegrees>42.0634074322879314422607421875</LatitudeDegrees>
              <LongitudeDegrees>2.19979167915880680084228515625</LongitudeDegrees>
            </Position>
            <AltitudeMeters>754.79998779296875</AltitudeMeters>
            <DistanceMeters>51412.39152278</DistanceMeters>
          </Trackpoint>
          <Trackpoint>
            <Time>2021-08-31T06:22:36.000Z</Time>
            <Position>
              <LatitudeDegrees>42.0633842982351779937744140625</LatitudeDegrees>
              <LongitudeDegrees>2.1995939500629901885986328125</LongitudeDegrees>
            </Position>
            <AltitudeMeters>756.4000244140625</AltitudeMeters>
            <DistanceMeters>51428.931904457</DistanceMeters>
          </Trackpoint>
          <Trackpoint>
            <Time>2021-08-31T06:22:41.000Z</Time>
            <Position>
              <LatitudeDegrees>42.06332503817975521087646484375</LatitudeDegrees>
              <LongitudeDegrees>2.19942145049571990966796875</LongitudeDegrees>
            </Position>
            <AltitudeMeters>756.5999755859375</AltitudeMeters>
            <DistanceMeters>51444.638069753</DistanceMeters>
          </Trackpoint>
          <Trackpoint>
            <Time>2021-08-31T06:22:47.000Z</Time>
            <Position>
              <LatitudeDegrees>42.06321238540112972259521484375</LatitudeDegrees>
              <LongitudeDegrees>2.19926948659121990203857421875</LongitudeDegrees>
            </Position>
            <AltitudeMeters>755.20001220703125</AltitudeMeters>
            <DistanceMeters>51462.383402259</DistanceMeters>
          </Trackpoint>
          <Trackpoint>
            <Time>2021-08-31T06:22:52.000Z</Time>
            <Position>
              <LatitudeDegrees>42.0630802027881145477294921875</LatitudeDegrees>
              <LongitudeDegrees>2.199169658124446868896484375</LongitudeDegrees>
            </Position>
            <AltitudeMeters>754.20001220703125</AltitudeMeters>
            <DistanceMeters>51479.250577139</DistanceMeters>
          </Trackpoint>
          <Trackpoint>
            <Time>2021-08-31T06:22:58.000Z</Time>
            <Position>
              <LatitudeDegrees>42.06292052753269672393798828125</LatitudeDegrees>
              <LongitudeDegrees>2.1990667283535003662109375</LongitudeDegrees>
            </Position>
            <AltitudeMeters>752</AltitudeMeters>
            <DistanceMeters>51498.952986285</DistanceMeters>
          </Trackpoint>
          <Trackpoint>
            <Time>2021-08-31T06:23:04.000Z</Time>
            <Position>
              <LatitudeDegrees>42.06281474791467189788818359375</LatitudeDegrees>
              <LongitudeDegrees>2.19894192181527614593505859375</LongitudeDegrees>
            </Position>
            <AltitudeMeters>750.4000244140625</AltitudeMeters>
            <DistanceMeters>51514.604437137</DistanceMeters>
          </Trackpoint>
          <Trackpoint>
            <Time>2021-08-31T06:23:06.000Z</Time>
            <Position>
              <LatitudeDegrees>42.06278691999614238739013671875</LatitudeDegrees>
              <LongitudeDegrees>2.19888274557888507843017578125</LongitudeDegrees>
            </Position>
            <AltitudeMeters>750</AltitudeMeters>
            <DistanceMeters>51520.39249239</DistanceMeters>
          </Trackpoint>
          <Trackpoint>
            <Time>2021-08-31T06:23:08.000Z</Time>
            <Position>
              <LatitudeDegrees>42.06279270350933074951171875</LatitudeDegrees>
              <LongitudeDegrees>2.19881258904933929443359375</LongitudeDegrees>
            </Position>
            <AltitudeMeters>750.4000244140625</AltitudeMeters>
            <DistanceMeters>51526.225615742</DistanceMeters>
          </Trackpoint>
          <Trackpoint>
            <Time>2021-08-31T06:23:13.000Z</Time>
            <Position>
              <LatitudeDegrees>42.0629028417170047760009765625</LatitudeDegrees>
              <LongitudeDegrees>2.19872131012380123138427734375</LongitudeDegrees>
            </Position>
            <AltitudeMeters>752.5999755859375</AltitudeMeters>
            <DistanceMeters>51540.61894801</DistanceMeters>
          </Trackpoint>
          <Trackpoint>
            <Time>2021-08-31T06:23:18.000Z</Time>
            <Position>
              <LatitudeDegrees>42.0630024187266826629638671875</LatitudeDegrees>
              <LongitudeDegrees>2.19864101149141788482666015625</LongitudeDegrees>
            </Position>
            <AltitudeMeters>754.4000244140625</AltitudeMeters>
            <DistanceMeters>51553.536990148</DistanceMeters>
          </Trackpoint>
          <Trackpoint>
            <Time>2021-08-31T06:23:25.000Z</Time>
            <Position>
              <LatitudeDegrees>42.06312923692166805267333984375</LatitudeDegrees>
              <LongitudeDegrees>2.1984892152249813079833984375</LongitudeDegrees>
            </Position>
            <AltitudeMeters>757.20001220703125</AltitudeMeters>
            <DistanceMeters>51572.420307087</DistanceMeters>
          </Trackpoint>
          <Trackpoint>
            <Time>2021-08-31T06:23:33.000Z</Time>
            <Position>
              <LatitudeDegrees>42.06327877007424831390380859375</LatitudeDegrees>
              <LongitudeDegrees>2.19833456911146640777587890625</LongitudeDegrees>
            </Position>
            <AltitudeMeters>760.20001220703125</AltitudeMeters>
            <DistanceMeters>51593.403358992</DistanceMeters>
          </Trackpoint>
          <Trackpoint>
            <Time>2021-08-31T06:23:40.000Z</Time>
            <Position>
              <LatitudeDegrees>42.06339159049093723297119140625</LatitudeDegrees>
              <LongitudeDegrees>2.19814513809978961944580078125</LongitudeDegrees>
            </Position>
            <AltitudeMeters>761</AltitudeMeters>
            <DistanceMeters>51613.470427262</DistanceMeters>
          </Trackpoint>
          <Trackpoint>
            <Time>2021-08-31T06:23:45.000Z</Time>
            <Position>
              <LatitudeDegrees>42.06345998682081699371337890625</LatitudeDegrees>
              <LongitudeDegrees>2.1979970298707485198974609375</LongitudeDegrees>
            </Position>
            <AltitudeMeters>761.20001220703125</AltitudeMeters>
            <DistanceMeters>51627.883195161</DistanceMeters>
          </Trackpoint>
          <Trackpoint>
            <Time>2021-08-31T06:23:46.000Z</Time>
            <Position>
              <LatitudeDegrees>42.06348295323550701141357421875</LatitudeDegrees>
              <LongitudeDegrees>2.19797448255121707916259765625</LongitudeDegrees>
            </Position>
            <AltitudeMeters>761.4000244140625</AltitudeMeters>
            <DistanceMeters>51631.046314619</DistanceMeters>
          </Trackpoint>
          <Trackpoint>
            <Time>2021-08-31T06:23:51.000Z</Time>
            <Position>
              <LatitudeDegrees>42.06358621828258037567138671875</LatitudeDegrees>
              <LongitudeDegrees>2.1978558786213397979736328125</LongitudeDegrees>
            </Position>
            <AltitudeMeters>762.20001220703125</AltitudeMeters>
            <DistanceMeters>51646.151079146</DistanceMeters>
          </Trackpoint>
          <Trackpoint>
            <Time>2021-08-31T06:23:52.000Z</Time>
            <Position>
              <LatitudeDegrees>42.0636039040982723236083984375</LatitudeDegrees>
              <LongitudeDegrees>2.1978334151208400726318359375</LongitudeDegrees>
            </Position>
            <AltitudeMeters>762.4000244140625</AltitudeMeters>
            <DistanceMeters>51648.85558685</DistanceMeters>
          </Trackpoint>
          <Trackpoint>
            <Time>2021-08-31T06:23:55.000Z</Time>
            <Position>
              <LatitudeDegrees>42.06367313861846923828125</LatitudeDegrees>
              <LongitudeDegrees>2.19780734740197658538818359375</LongitudeDegrees>
            </Position>
            <AltitudeMeters>762.79998779296875</AltitudeMeters>
            <DistanceMeters>51656.857039342</DistanceMeters>
          </Trackpoint>
          <Trackpoint>
            <Time>2021-08-31T06:24:00.000Z</Time>
            <Position>
              <LatitudeDegrees>42.0637966878712177276611328125</LatitudeDegrees>
              <LongitudeDegrees>2.1978800185024738311767578125</LongitudeDegrees>
            </Position>
            <AltitudeMeters>764.5999755859375</AltitudeMeters>
            <DistanceMeters>51671.862235977</DistanceMeters>
          </Trackpoint>
          <Trackpoint>
            <Time>2021-08-31T06:24:08.000Z</Time>
            <Position>
              <LatitudeDegrees>42.06392501480877399444580078125</LatitudeDegrees>
              <LongitudeDegrees>2.1981172263622283935546875</LongitudeDegrees>
            </Position>
            <AltitudeMeters>768</AltitudeMeters>
            <DistanceMeters>51696.114721608</DistanceMeters>
          </Trackpoint>
          <Trackpoint>
            <Time>2021-08-31T06:24:16.000Z</Time>
            <Position>
              <LatitudeDegrees>42.06403867341578006744384765625</LatitudeDegrees>
              <LongitudeDegrees>2.19834563322365283966064453125</LongitudeDegrees>
            </Position>
            <AltitudeMeters>770.5999755859375</AltitudeMeters>
            <DistanceMeters>51718.835448052</DistanceMeters>
          </Trackpoint>
          <Trackpoint>
            <Time>2021-08-31T06:24:22.000Z</Time>
            <Position>
              <LatitudeDegrees>42.06415794789791107177734375</LatitudeDegrees>
              <LongitudeDegrees>2.1984496526420116424560546875</LongitudeDegrees>
            </Position>
            <AltitudeMeters>771.79998779296875</AltitudeMeters>
            <DistanceMeters>51734.650474367</DistanceMeters>
          </Trackpoint>
          <Trackpoint>
            <Time>2021-08-31T06:24:28.000Z</Time>
            <Position>
              <LatitudeDegrees>42.06430689431726932525634765625</LatitudeDegrees>
              <LongitudeDegrees>2.19844118691980838775634765625</LongitudeDegrees>
            </Position>
            <AltitudeMeters>772.5999755859375</AltitudeMeters>
            <DistanceMeters>51751.243455738</DistanceMeters>
          </Trackpoint>
          <Trackpoint>
            <Time>2021-08-31T06:24:35.000Z</Time>
            <Position>
              <LatitudeDegrees>42.06446447409689426422119140625</LatitudeDegrees>
              <LongitudeDegrees>2.19831981696188449859619140625</LongitudeDegrees>
            </Position>
            <AltitudeMeters>774.79998779296875</AltitudeMeters>
            <DistanceMeters>51771.447306251</DistanceMeters>
          </Trackpoint>
          <Trackpoint>
            <Time>2021-08-31T06:24:42.000Z</Time>
            <Position>
              <LatitudeDegrees>42.064603529870510101318359375</LatitudeDegrees>
              <LongitudeDegrees>2.19814580865204334259033203125</LongitudeDegrees>
            </Position>
            <AltitudeMeters>775.20001220703125</AltitudeMeters>
            <DistanceMeters>51792.572751525</DistanceMeters>
          </Trackpoint>
          <Trackpoint>
            <Time>2021-08-31T06:24:50.000Z</Time>
            <Position>
              <LatitudeDegrees>42.0647956430912017822265625</LatitudeDegrees>
              <LongitudeDegrees>2.19791010953485965728759765625</LongitudeDegrees>
            </Position>
            <AltitudeMeters>776.20001220703125</AltitudeMeters>
            <DistanceMeters>51821.495393028</DistanceMeters>
          </Trackpoint>
          <Trackpoint>
            <Time>2021-08-31T06:24:58.000Z</Time>
            <Position>
              <LatitudeDegrees>42.06493570469319820404052734375</LatitudeDegrees>
              <LongitudeDegrees>2.1976413019001483917236328125</LongitudeDegrees>
            </Position>
            <AltitudeMeters>776.79998779296875</AltitudeMeters>
            <DistanceMeters>51848.6314689</DistanceMeters>
          </Trackpoint>
          <Trackpoint>
            <Time>2021-08-31T06:25:06.000Z</Time>
            <Position>
              <LatitudeDegrees>42.06502170301973819732666015625</LatitudeDegrees>
              <LongitudeDegrees>2.19733628444373607635498046875</LongitudeDegrees>
            </Position>
            <AltitudeMeters>774.5999755859375</AltitudeMeters>
            <DistanceMeters>51875.591269585</DistanceMeters>
          </Trackpoint>
          <Trackpoint>
            <Time>2021-08-31T06:25:12.000Z</Time>
            <Position>
              <LatitudeDegrees>42.06504064612090587615966796875</LatitudeDegrees>
              <LongitudeDegrees>2.19704459421336650848388671875</LongitudeDegrees>
            </Position>
            <AltitudeMeters>775</AltitudeMeters>
            <DistanceMeters>51899.785227823</DistanceMeters>
          </Trackpoint>
          <Trackpoint>
            <Time>2021-08-31T06:25:20.000Z</Time>
            <Position>
              <LatitudeDegrees>42.06506855785846710205078125</LatitudeDegrees>
              <LongitudeDegrees>2.19665165059268474578857421875</LongitudeDegrees>
            </Position>
            <AltitudeMeters>774.20001220703125</AltitudeMeters>
            <DistanceMeters>51932.401962271</DistanceMeters>
          </Trackpoint>
          <Trackpoint>
            <Time>2021-08-31T06:25:27.000Z</Time>
            <Position>
              <LatitudeDegrees>42.06507300026714801788330078125</LatitudeDegrees>
              <LongitudeDegrees>2.19631721265614032745361328125</LongitudeDegrees>
            </Position>
            <AltitudeMeters>774.79998779296875</AltitudeMeters>
            <DistanceMeters>51960.040527478</DistanceMeters>
          </Trackpoint>
          <Trackpoint>
            <Time>2021-08-31T06:25:31.000Z</Time>
            <Position>
              <LatitudeDegrees>42.065007872879505157470703125</LatitudeDegrees>
              <LongitudeDegrees>2.19614605419337749481201171875</LongitudeDegrees>
            </Position>
            <AltitudeMeters>777.4000244140625</AltitudeMeters>
            <DistanceMeters>51975.932733368</DistanceMeters>
          </Trackpoint>
          <Trackpoint>
            <Time>2021-08-31T06:25:38.000Z</Time>
            <Position>
              <LatitudeDegrees>42.0648548193275928497314453125</LatitudeDegrees>
              <LongitudeDegrees>2.1958596445620059967041015625</LongitudeDegrees>
            </Position>
            <AltitudeMeters>780.79998779296875</AltitudeMeters>
            <DistanceMeters>52005.092157196</DistanceMeters>
          </Trackpoint>
          <Trackpoint>
            <Time>2021-08-31T06:25:43.000Z</Time>
            <Position>
              <LatitudeDegrees>42.064809389412403106689453125</LatitudeDegrees>
              <LongitudeDegrees>2.19566627405583858489990234375</LongitudeDegrees>
            </Position>
            <AltitudeMeters>784.4000244140625</AltitudeMeters>
            <DistanceMeters>52021.85137847</DistanceMeters>
          </Trackpoint>
          <Trackpoint>
            <Time>2021-08-31T06:25:48.000Z</Time>
            <Position>
              <LatitudeDegrees>42.06481668166816234588623046875</LatitudeDegrees>
              <LongitudeDegrees>2.1954385377466678619384765625</LongitudeDegrees>
            </Position>
            <AltitudeMeters>787.20001220703125</AltitudeMeters>
            <DistanceMeters>52040.6865746</DistanceMeters>
          </Trackpoint>
          <Trackpoint>
            <Time>2021-08-31T06:25:51.000Z</Time>
            <Position>
              <LatitudeDegrees>42.064849622547626495361328125</LatitudeDegrees>
              <LongitudeDegrees>2.19530635513365268707275390625</LongitudeDegrees>
            </Position>
            <AltitudeMeters>788.5999755859375</AltitudeMeters>
            <DistanceMeters>52052.207951416</DistanceMeters>
          </Trackpoint>
          <Trackpoint>
            <Time>2021-08-31T06:25:52.000Z</Time>
            <Position>
              <LatitudeDegrees>42.064871080219745635986328125</LatitudeDegrees>
              <LongitudeDegrees>2.1952685527503490447998046875</LongitudeDegrees>
            </Position>
            <AltitudeMeters>788.5999755859375</AltitudeMeters>
            <DistanceMeters>52056.139807322</DistanceMeters>
          </Trackpoint>
          <Trackpoint>
            <Time>2021-08-31T06:25:58.000Z</Time>
            <Position>
              <LatitudeDegrees>42.0649926178157329559326171875</LatitudeDegrees>
              <LongitudeDegrees>2.19506495632231235504150390625</LongitudeDegrees>
            </Position>
            <AltitudeMeters>788.4000244140625</AltitudeMeters>
            <DistanceMeters>52077.726773179</DistanceMeters>
          </Trackpoint>
          <Trackpoint>
            <Time>2021-08-31T06:26:04.000Z</Time>
            <Position>
              <LatitudeDegrees>42.06511281430721282958984375</LatitudeDegrees>
              <LongitudeDegrees>2.19488642178475856781005859375</LongitudeDegrees>
            </Position>
            <AltitudeMeters>787.79998779296875</AltitudeMeters>
            <DistanceMeters>52097.64161582</DistanceMeters>
          </Trackpoint>
          <Trackpoint>
            <Time>2021-08-31T06:26:09.000Z</Time>
            <Position>
              <LatitudeDegrees>42.06516453064978122711181640625</LatitudeDegrees>
              <LongitudeDegrees>2.1946732699871063232421875</LongitudeDegrees>
            </Position>
            <AltitudeMeters>791.20001220703125</AltitudeMeters>
            <DistanceMeters>52116.171094133</DistanceMeters>
          </Trackpoint>
          <Trackpoint>
            <Time>2021-08-31T06:26:13.000Z</Time>
            <Position>
              <LatitudeDegrees>42.06522270105779170989990234375</LatitudeDegrees>
              <LongitudeDegrees>2.19452147372066974639892578125</LongitudeDegrees>
            </Position>
            <AltitudeMeters>793</AltitudeMeters>
            <DistanceMeters>52130.286320191</DistanceMeters>
          </Trackpoint>
          <Trackpoint>
            <Time>2021-08-31T06:26:15.000Z</Time>
            <Position>
              <LatitudeDegrees>42.0652355253696441650390625</LatitudeDegrees>
              <LongitudeDegrees>2.19441988505423069000244140625</LongitudeDegrees>
            </Position>
            <AltitudeMeters>795.20001220703125</AltitudeMeters>
            <DistanceMeters>52138.800628953</DistanceMeters>
          </Trackpoint>
          <Trackpoint>
            <Time>2021-08-31T06:26:16.000Z</Time>
            <Position>
              <LatitudeDegrees>42.0652491040527820587158203125</LatitudeDegrees>
              <LongitudeDegrees>2.19437177293002605438232421875</LongitudeDegrees>
            </Position>
            <AltitudeMeters>796</AltitudeMeters>
            <DistanceMeters>52143.053538911</DistanceMeters>
          </Trackpoint>
          <Trackpoint>
            <Time>2021-08-31T06:26:23.000Z</Time>
            <Position>
              <LatitudeDegrees>42.06540006212890148162841796875</LatitudeDegrees>
              <LongitudeDegrees>2.19408142380416393280029296875</LongitudeDegrees>
            </Position>
            <AltitudeMeters>798.4000244140625</AltitudeMeters>
            <DistanceMeters>52172.343201805</DistanceMeters>
          </Trackpoint>
          <Trackpoint>
            <Time>2021-08-31T06:26:28.000Z</Time>
            <Position>
              <LatitudeDegrees>42.06554758362472057342529296875</LatitudeDegrees>
              <LongitudeDegrees>2.193947732448577880859375</LongitudeDegrees>
            </Position>
            <AltitudeMeters>796.20001220703125</AltitudeMeters>
            <DistanceMeters>52192.132957118</DistanceMeters>
          </Trackpoint>
          <Trackpoint>
            <Time>2021-08-31T06:26:31.000Z</Time>
            <Position>
              <LatitudeDegrees>42.06561782397329807281494140625</LatitudeDegrees>
              <LongitudeDegrees>2.19383114017546176910400390625</LongitudeDegrees>
            </Position>
            <AltitudeMeters>794.4000244140625</AltitudeMeters>
            <DistanceMeters>52204.539676389</DistanceMeters>
          </Trackpoint>
          <Trackpoint>
            <Time>2021-08-31T06:26:32.000Z</Time>
            <Position>
              <LatitudeDegrees>42.06563106738030910491943359375</LatitudeDegrees>
              <LongitudeDegrees>2.1937775798141956329345703125</LongitudeDegrees>
            </Position>
            <AltitudeMeters>794</AltitudeMeters>
            <DistanceMeters>52209.203736225</DistanceMeters>
          </Trackpoint>
          <Trackpoint>
            <Time>2021-08-31T06:26:33.000Z</Time>
            <Position>
              <LatitudeDegrees>42.0656356774270534515380859375</LatitudeDegrees>
              <LongitudeDegrees>2.19371580518782138824462890625</LongitudeDegrees>
            </Position>
            <AltitudeMeters>794.20001220703125</AltitudeMeters>
            <DistanceMeters>52214.333418745</DistanceMeters>
          </Trackpoint>
          <Trackpoint>
            <Time>2021-08-31T06:26:35.000Z</Time>
            <Position>
              <LatitudeDegrees>42.06562989391386508941650390625</LatitudeDegrees>
              <LongitudeDegrees>2.1935844607651233673095703125</LongitudeDegrees>
            </Position>
            <AltitudeMeters>795</AltitudeMeters>
            <DistanceMeters>52225.205155983</DistanceMeters>
          </Trackpoint>
          <Trackpoint>
            <Time>2021-08-31T06:26:36.000Z</Time>
            <Position>
              <LatitudeDegrees>42.06561438739299774169921875</LatitudeDegrees>
              <LongitudeDegrees>2.1935080178081989288330078125</LongitudeDegrees>
            </Position>
            <AltitudeMeters>796</AltitudeMeters>
            <DistanceMeters>52231.753041364</DistanceMeters>
          </Trackpoint>
          <Trackpoint>
            <Time>2021-08-31T06:26:38.000Z</Time>
            <Position>
              <LatitudeDegrees>42.06556920893490314483642578125</LatitudeDegrees>
              <LongitudeDegrees>2.193344570696353912353515625</LongitudeDegrees>
            </Position>
            <AltitudeMeters>798.79998779296875</AltitudeMeters>
            <DistanceMeters>52246.164556142</DistanceMeters>
          </Trackpoint>
          <Trackpoint>
            <Time>2021-08-31T06:26:39.000Z</Time>
            <Position>
              <LatitudeDegrees>42.0655592344701290130615234375</LatitudeDegrees>
              <LongitudeDegrees>2.1932927705347537994384765625</LongitudeDegrees>
            </Position>
            <AltitudeMeters>799.4000244140625</AltitudeMeters>
            <DistanceMeters>52250.586107397</DistanceMeters>
          </Trackpoint>
          <Trackpoint>
            <Time>2021-08-31T06:26:40.000Z</Time>
            <Position>
              <LatitudeDegrees>42.06553853116929531097412109375</LatitudeDegrees>
              <LongitudeDegrees>2.1932253800332546234130859375</LongitudeDegrees>
            </Position>
            <AltitudeMeters>800.5999755859375</AltitudeMeters>
            <DistanceMeters>52256.612629401</DistanceMeters>
          </Trackpoint>
          <Trackpoint>
            <Time>2021-08-31T06:26:43.000Z</Time>
            <Position>
              <LatitudeDegrees>42.06549695692956447601318359375</LatitudeDegrees>
              <LongitudeDegrees>2.193056233227252960205078125</LongitudeDegrees>
            </Position>
            <AltitudeMeters>803.20001220703125</AltitudeMeters>
            <DistanceMeters>52271.335331427</DistanceMeters>
          </Trackpoint>
          <Trackpoint>
            <Time>2021-08-31T06:26:45.000Z</Time>
            <Position>
              <LatitudeDegrees>42.0654951967298984527587890625</LatitudeDegrees>
              <LongitudeDegrees>2.1929491125047206878662109375</LongitudeDegrees>
            </Position>
            <AltitudeMeters>803</AltitudeMeters>
            <DistanceMeters>52280.188639483</DistanceMeters>
          </Trackpoint>
          <Trackpoint>
            <Time>2021-08-31T06:26:47.000Z</Time>
            <Position>
              <LatitudeDegrees>42.065492011606693267822265625</LatitudeDegrees>
              <LongitudeDegrees>2.192844338715076446533203125</LongitudeDegrees>
            </Position>
            <AltitudeMeters>802.5999755859375</AltitudeMeters>
            <DistanceMeters>52288.853283478</DistanceMeters>
          </Trackpoint>
          <Trackpoint>
            <Time>2021-08-31T06:26:49.000Z</Time>
            <Position>
              <LatitudeDegrees>42.06549796275794506072998046875</LatitudeDegrees>
              <LongitudeDegrees>2.19271953217685222625732421875</LongitudeDegrees>
            </Position>
            <AltitudeMeters>801.5999755859375</AltitudeMeters>
            <DistanceMeters>52299.18675598</DistanceMeters>
          </Trackpoint>
          <Trackpoint>
            <Time>2021-08-31T06:26:51.000Z</Time>
            <Position>
              <LatitudeDegrees>42.0655310712754726409912109375</LatitudeDegrees>
              <LongitudeDegrees>2.1925883553922176361083984375</LongitudeDegrees>
            </Position>
            <AltitudeMeters>799</AltitudeMeters>
            <DistanceMeters>52310.635010411</DistanceMeters>
          </Trackpoint>
          <Trackpoint>
            <Time>2021-08-31T06:26:52.000Z</Time>
            <Position>
              <LatitudeDegrees>42.06555671989917755126953125</LatitudeDegrees>
              <LongitudeDegrees>2.1925166063010692596435546875</LongitudeDegrees>
            </Position>
            <AltitudeMeters>797.20001220703125</AltitudeMeters>
            <DistanceMeters>52317.214538241</DistanceMeters>
          </Trackpoint>
          <Trackpoint>
            <Time>2021-08-31T06:26:54.000Z</Time>
            <Position>
              <LatitudeDegrees>42.06560634076595306396484375</LatitudeDegrees>
              <LongitudeDegrees>2.1923814900219440460205078125</LongitudeDegrees>
            </Position>
            <AltitudeMeters>794.4000244140625</AltitudeMeters>
            <DistanceMeters>52329.670289659</DistanceMeters>
          </Trackpoint>
          <Trackpoint>
            <Time>2021-08-31T06:26:55.000Z</Time>
            <Position>
              <LatitudeDegrees>42.06562645733356475830078125</LatitudeDegrees>
              <LongitudeDegrees>2.19231116585433483123779296875</LongitudeDegrees>
            </Position>
            <AltitudeMeters>793.5999755859375</AltitudeMeters>
            <DistanceMeters>52335.897259086</DistanceMeters>
          </Trackpoint>
          <Trackpoint>
            <Time>2021-08-31T06:27:00.000Z</Time>
            <Position>
              <LatitudeDegrees>42.065737433731555938720703125</LatitudeDegrees>
              <LongitudeDegrees>2.1919922344386577606201171875</LongitudeDegrees>
            </Position>
            <AltitudeMeters>787.4000244140625</AltitudeMeters>
            <DistanceMeters>52365.00119749</DistanceMeters>
          </Trackpoint>
          <Trackpoint>
            <Time>2021-08-31T06:27:01.000Z</Time>
            <Position>
              <LatitudeDegrees>42.06575780175626277923583984375</LatitudeDegrees>
              <LongitudeDegrees>2.19193942844867706298828125</LongitudeDegrees>
            </Position>
            <AltitudeMeters>786.20001220703125</AltitudeMeters>
            <DistanceMeters>52369.918772575</DistanceMeters>
          </Trackpoint>
          <Trackpoint>
            <Time>2021-08-31T06:27:03.000Z</Time>
            <Position>
              <LatitudeDegrees>42.06577892415225505828857421875</LatitudeDegrees>
              <LongitudeDegrees>2.191840521991252899169921875</LongitudeDegrees>
            </Position>
            <AltitudeMeters>785.20001220703125</AltitudeMeters>
            <DistanceMeters>52378.422468957</DistanceMeters>
          </Trackpoint>
          <Trackpoint>
            <Time>2021-08-31T06:27:04.000Z</Time>
            <Position>
              <LatitudeDegrees>42.065766267478466033935546875</LatitudeDegrees>
              <LongitudeDegrees>2.19177790917456150054931640625</LongitudeDegrees>
            </Position>
            <AltitudeMeters>785.79998779296875</AltitudeMeters>
            <DistanceMeters>52383.78453604</DistanceMeters>
          </Trackpoint>
          <Trackpoint>
            <Time>2021-08-31T06:27:08.000Z</Time>
            <Position>
              <LatitudeDegrees>42.065703235566616058349609375</LatitudeDegrees>
              <LongitudeDegrees>2.191529385745525360107421875</LongitudeDegrees>
            </Position>
            <AltitudeMeters>789.5999755859375</AltitudeMeters>
            <DistanceMeters>52405.484984341</DistanceMeters>
          </Trackpoint>
          <Trackpoint>
            <Time>2021-08-31T06:27:13.000Z</Time>
            <Position>
              <LatitudeDegrees>42.06562369130551815032958984375</LatitudeDegrees>
              <LongitudeDegrees>2.19119855202734470367431640625</LongitudeDegrees>
            </Position>
            <AltitudeMeters>795</AltitudeMeters>
            <DistanceMeters>52434.219057834</DistanceMeters>
          </Trackpoint>
          <Trackpoint>
            <Time>2021-08-31T06:27:17.000Z</Time>
            <Position>
              <LatitudeDegrees>42.065648920834064483642578125</LatitudeDegrees>
              <LongitudeDegrees>2.19095706939697265625</LongitudeDegrees>
            </Position>
            <AltitudeMeters>794.5999755859375</AltitudeMeters>
            <DistanceMeters>52454.368530954</DistanceMeters>
          </Trackpoint>
          <Trackpoint>
            <Time>2021-08-31T06:27:22.000Z</Time>
            <Position>
              <LatitudeDegrees>42.0657102763652801513671875</LatitudeDegrees>
              <LongitudeDegrees>2.19061575829982757568359375</LongitudeDegrees>
            </Position>
            <AltitudeMeters>795</AltitudeMeters>
            <DistanceMeters>52483.385463731</DistanceMeters>
          </Trackpoint>
          <Trackpoint>
            <Time>2021-08-31T06:27:23.000Z</Time>
            <Position>
              <LatitudeDegrees>42.06573785282671451568603515625</LatitudeDegrees>
              <LongitudeDegrees>2.1905592642724514007568359375</LongitudeDegrees>
            </Position>
            <AltitudeMeters>794.5999755859375</AltitudeMeters>
            <DistanceMeters>52488.971870822</DistanceMeters>
          </Trackpoint>
          <Trackpoint>
            <Time>2021-08-31T06:27:24.000Z</Time>
            <Position>
              <LatitudeDegrees>42.06576651893556118011474609375</LatitudeDegrees>
              <LongitudeDegrees>2.19050117768347263336181640625</LongitudeDegrees>
            </Position>
            <AltitudeMeters>794.20001220703125</AltitudeMeters>
            <DistanceMeters>52494.734910052</DistanceMeters>
          </Trackpoint>
          <Trackpoint>
            <Time>2021-08-31T06:27:26.000Z</Time>
            <Position>
              <LatitudeDegrees>42.06581681035459041595458984375</LatitudeDegrees>
              <LongitudeDegrees>2.1903721801936626434326171875</LongitudeDegrees>
            </Position>
            <AltitudeMeters>795.5999755859375</AltitudeMeters>
            <DistanceMeters>52506.773710944</DistanceMeters>
          </Trackpoint>
          <Trackpoint>
            <Time>2021-08-31T06:27:28.000Z</Time>
            <Position>
              <LatitudeDegrees>42.06589400768280029296875</LatitudeDegrees>
              <LongitudeDegrees>2.19028140418231487274169921875</LongitudeDegrees>
            </Position>
            <AltitudeMeters>795.79998779296875</AltitudeMeters>
            <DistanceMeters>52518.17889622</DistanceMeters>
          </Trackpoint>
          <Trackpoint>
            <Time>2021-08-31T06:27:36.000Z</Time>
            <Position>
              <LatitudeDegrees>42.06618326716125011444091796875</LatitudeDegrees>
              <LongitudeDegrees>2.18993774615228176116943359375</LongitudeDegrees>
            </Position>
            <AltitudeMeters>797.79998779296875</AltitudeMeters>
            <DistanceMeters>52561.107207863</DistanceMeters>
          </Trackpoint>
          <Trackpoint>
            <Time>2021-08-31T06:27:41.000Z</Time>
            <Position>
              <LatitudeDegrees>42.06639281474053859710693359375</LatitudeDegrees>
              <LongitudeDegrees>2.1897928230464458465576171875</LongitudeDegrees>
            </Position>
            <AltitudeMeters>799.79998779296875</AltitudeMeters>
            <DistanceMeters>52587.324594437</DistanceMeters>
          </Trackpoint>
          <Trackpoint>
            <Time>2021-08-31T06:27:42.000Z</Time>
            <Position>
              <LatitudeDegrees>42.06643019802868366241455078125</LatitudeDegrees>
              <LongitudeDegrees>2.18976549804210662841796875</LongitudeDegrees>
            </Position>
            <AltitudeMeters>799.5999755859375</AltitudeMeters>
            <DistanceMeters>52592.058794447</DistanceMeters>
          </Trackpoint>
          <Trackpoint>
            <Time>2021-08-31T06:27:45.000Z</Time>
            <Position>
              <LatitudeDegrees>42.066510580480098724365234375</LatitudeDegrees>
              <LongitudeDegrees>2.18965494073927402496337890625</LongitudeDegrees>
            </Position>
            <AltitudeMeters>797.4000244140625</AltitudeMeters>
            <DistanceMeters>52604.845450151</DistanceMeters>
          </Trackpoint>
          <Trackpoint>
            <Time>2021-08-31T06:27:50.000Z</Time>
            <Position>
              <LatitudeDegrees>42.06657587550580501556396484375</LatitudeDegrees>
              <LongitudeDegrees>2.18944899737834930419921875</LongitudeDegrees>
            </Position>
            <AltitudeMeters>796.79998779296875</AltitudeMeters>
            <DistanceMeters>52623.348837634</DistanceMeters>
          </Trackpoint>
          <Trackpoint>
            <Time>2021-08-31T06:27:55.000Z</Time>
            <Position>
              <LatitudeDegrees>42.0666079781949520111083984375</LatitudeDegrees>
              <LongitudeDegrees>2.18921422027051448822021484375</LongitudeDegrees>
            </Position>
            <AltitudeMeters>798.4000244140625</AltitudeMeters>
            <DistanceMeters>52643.074149643</DistanceMeters>
          </Trackpoint>
          <Trackpoint>
            <Time>2021-08-31T06:27:58.000Z</Time>
            <Position>
              <LatitudeDegrees>42.0666304416954517364501953125</LatitudeDegrees>
              <LongitudeDegrees>2.18906275928020477294921875</LongitudeDegrees>
            </Position>
            <AltitudeMeters>799.4000244140625</AltitudeMeters>
            <DistanceMeters>52655.836064027</DistanceMeters>
          </Trackpoint>
          <Trackpoint>
            <Time>2021-08-31T06:28:02.000Z</Time>
            <Position>
              <LatitudeDegrees>42.06668869592249393463134765625</LatitudeDegrees>
              <LongitudeDegrees>2.18889134936034679412841796875</LongitudeDegrees>
            </Position>
            <AltitudeMeters>799.20001220703125</AltitudeMeters>
            <DistanceMeters>52671.412910756</DistanceMeters>
          </Trackpoint>
          <Trackpoint>
            <Time>2021-08-31T06:28:06.000Z</Time>
            <Position>
              <LatitudeDegrees>42.0667912065982818603515625</LatitudeDegrees>
              <LongitudeDegrees>2.18872941099107265472412109375</LongitudeDegrees>
            </Position>
            <AltitudeMeters>797.5999755859375</AltitudeMeters>
            <DistanceMeters>52688.997731988</DistanceMeters>
          </Trackpoint>
          <Trackpoint>
            <Time>2021-08-31T06:28:07.000Z</Time>
            <Position>
              <LatitudeDegrees>42.06681660376489162445068359375</LatitudeDegrees>
              <LongitudeDegrees>2.18866503797471523284912109375</LongitudeDegrees>
            </Position>
            <AltitudeMeters>797.4000244140625</AltitudeMeters>
            <DistanceMeters>52695.021256467</DistanceMeters>
          </Trackpoint>
          <Trackpoint>
            <Time>2021-08-31T06:28:08.000Z</Time>
            <Position>
              <LatitudeDegrees>42.066835463047027587890625</LatitudeDegrees>
              <LongitudeDegrees>2.18859203159809112548828125</LongitudeDegrees>
            </Position>
            <AltitudeMeters>797.4000244140625</AltitudeMeters>
            <DistanceMeters>52701.408578705</DistanceMeters>
          </Trackpoint>
          <Trackpoint>
            <Time>2021-08-31T06:28:10.000Z</Time>
            <Position>
              <LatitudeDegrees>42.0668493770062923431396484375</LatitudeDegrees>
              <LongitudeDegrees>2.18843738548457622528076171875</LongitudeDegrees>
            </Position>
            <AltitudeMeters>797.20001220703125</AltitudeMeters>
            <DistanceMeters>52714.27970074</DistanceMeters>
          </Trackpoint>
          <Trackpoint>
            <Time>2021-08-31T06:28:11.000Z</Time>
            <Position>
              <LatitudeDegrees>42.0668466947972774505615234375</LatitudeDegrees>
              <LongitudeDegrees>2.18835323117673397064208984375</LongitudeDegrees>
            </Position>
            <AltitudeMeters>797.20001220703125</AltitudeMeters>
            <DistanceMeters>52721.240042695</DistanceMeters>
          </Trackpoint>
          <Trackpoint>
            <Time>2021-08-31T06:28:15.000Z</Time>
            <Position>
              <LatitudeDegrees>42.06678207032382488250732421875</LatitudeDegrees>
              <LongitudeDegrees>2.18796967528760433197021484375</LongitudeDegrees>
            </Position>
            <AltitudeMeters>799.20001220703125</AltitudeMeters>
            <DistanceMeters>52753.737928634</DistanceMeters>
          </Trackpoint>
          <Trackpoint>
            <Time>2021-08-31T06:28:18.000Z</Time>
            <Position>
              <LatitudeDegrees>42.06676329486072063446044921875</LatitudeDegrees>
              <LongitudeDegrees>2.18769474886357784271240234375</LongitudeDegrees>
            </Position>
            <AltitudeMeters>799.5999755859375</AltitudeMeters>
            <DistanceMeters>52776.549882634</DistanceMeters>
          </Trackpoint>
          <Trackpoint>
            <Time>2021-08-31T06:28:22.000Z</Time>
            <Position>
              <LatitudeDegrees>42.06677435897290706634521484375</LatitudeDegrees>
              <LongitudeDegrees>2.18738160096108913421630859375</LongitudeDegrees>
            </Position>
            <AltitudeMeters>797.5999755859375</AltitudeMeters>
            <DistanceMeters>52802.453509607</DistanceMeters>
          </Trackpoint>
          <Trackpoint>
            <Time>2021-08-31T06:28:23.000Z</Time>
            <Position>
              <LatitudeDegrees>42.066774107515811920166015625</LatitudeDegrees>
              <LongitudeDegrees>2.18730029650032520294189453125</LongitudeDegrees>
            </Position>
            <AltitudeMeters>797.79998779296875</AltitudeMeters>
            <DistanceMeters>52809.171569004</DistanceMeters>
          </Trackpoint>
          <Trackpoint>
            <Time>2021-08-31T06:28:24.000Z</Time>
            <Position>
              <LatitudeDegrees>42.0667762868106365203857421875</LatitudeDegrees>
              <LongitudeDegrees>2.18722368590533733367919921875</LongitudeDegrees>
            </Position>
            <AltitudeMeters>797.79998779296875</AltitudeMeters>
            <DistanceMeters>52815.505653755</DistanceMeters>
          </Trackpoint>
          <Trackpoint>
            <Time>2021-08-31T06:28:26.000Z</Time>
            <Position>
              <LatitudeDegrees>42.0667903684079647064208984375</LatitudeDegrees>
              <LongitudeDegrees>2.18707364983856678009033203125</LongitudeDegrees>
            </Position>
            <AltitudeMeters>797.5999755859375</AltitudeMeters>
            <DistanceMeters>52828.000853703</DistanceMeters>
          </Trackpoint>
          <Trackpoint>
            <Time>2021-08-31T06:28:27.000Z</Time>
            <Position>
              <LatitudeDegrees>42.06680939532816410064697265625</LatitudeDegrees>
              <LongitudeDegrees>2.18700374476611614227294921875</LongitudeDegrees>
            </Position>
            <AltitudeMeters>796.79998779296875</AltitudeMeters>
            <DistanceMeters>52834.153420683</DistanceMeters>
          </Trackpoint>
          <Trackpoint>
            <Time>2021-08-31T06:28:28.000Z</Time>
            <Position>
              <LatitudeDegrees>42.0668346248567104339599609375</LatitudeDegrees>
              <LongitudeDegrees>2.18693467788398265838623046875</LongitudeDegrees>
            </Position>
            <AltitudeMeters>795.79998779296875</AltitudeMeters>
            <DistanceMeters>52840.513115046</DistanceMeters>
          </Trackpoint>
          <Trackpoint>
            <Time>2021-08-31T06:28:30.000Z</Time>
            <Position>
              <LatitudeDegrees>42.06691400147974491119384765625</LatitudeDegrees>
              <LongitudeDegrees>2.1867971308529376983642578125</LongitudeDegrees>
            </Position>
            <AltitudeMeters>792.79998779296875</AltitudeMeters>
            <DistanceMeters>52854.908329329</DistanceMeters>
          </Trackpoint>
          <Trackpoint>
            <Time>2021-08-31T06:28:33.000Z</Time>
            <Position>
              <LatitudeDegrees>42.0670304261147975921630859375</LatitudeDegrees>
              <LongitudeDegrees>2.186597473919391632080078125</LongitudeDegrees>
            </Position>
            <AltitudeMeters>788.79998779296875</AltitudeMeters>
            <DistanceMeters>52875.886216387</DistanceMeters>
          </Trackpoint>
          <Trackpoint>
            <Time>2021-08-31T06:28:34.000Z</Time>
            <Position>
              <LatitudeDegrees>42.0670515485107898712158203125</LatitudeDegrees>
              <LongitudeDegrees>2.18652346171438694000244140625</LongitudeDegrees>
            </Position>
            <AltitudeMeters>788.20001220703125</AltitudeMeters>
            <DistanceMeters>52882.437548567</DistanceMeters>
          </Trackpoint>
          <Trackpoint>
            <Time>2021-08-31T06:28:35.000Z</Time>
            <Position>
              <LatitudeDegrees>42.0670622773468494415283203125</LatitudeDegrees>
              <LongitudeDegrees>2.1864415705204010009765625</LongitudeDegrees>
            </Position>
            <AltitudeMeters>788</AltitudeMeters>
            <DistanceMeters>52889.308446591</DistanceMeters>
          </Trackpoint>
          <Trackpoint>
            <Time>2021-08-31T06:28:37.000Z</Time>
            <Position>
              <LatitudeDegrees>42.06704693846404552459716796875</LatitudeDegrees>
              <LongitudeDegrees>2.18625959940254688262939453125</LongitudeDegrees>
            </Position>
            <AltitudeMeters>789.5999755859375</AltitudeMeters>
            <DistanceMeters>52904.440686295</DistanceMeters>
          </Trackpoint>
          <Trackpoint>
            <Time>2021-08-31T06:28:38.000Z</Time>
            <Position>
              <LatitudeDegrees>42.067037634551525115966796875</LatitudeDegrees>
              <LongitudeDegrees>2.18615482561290264129638671875</LongitudeDegrees>
            </Position>
            <AltitudeMeters>790.79998779296875</AltitudeMeters>
            <DistanceMeters>52913.159354972</DistanceMeters>
          </Trackpoint>
          <Trackpoint>
            <Time>2021-08-31T06:28:41.000Z</Time>
            <Position>
              <LatitudeDegrees>42.0670666359364986419677734375</LatitudeDegrees>
              <LongitudeDegrees>2.18585810624063014984130859375</LongitudeDegrees>
            </Position>
            <AltitudeMeters>791.5999755859375</AltitudeMeters>
            <DistanceMeters>52937.887855061</DistanceMeters>
          </Trackpoint>
          <Trackpoint>
            <Time>2021-08-31T06:28:42.000Z</Time>
            <Position>
              <LatitudeDegrees>42.0670850761234760284423828125</LatitudeDegrees>
              <LongitudeDegrees>2.185761630535125732421875</LongitudeDegrees>
            </Position>
            <AltitudeMeters>791.79998779296875</AltitudeMeters>
            <DistanceMeters>52946.119055676</DistanceMeters>
          </Trackpoint>
          <Trackpoint>
            <Time>2021-08-31T06:28:44.000Z</Time>
            <Position>
              <LatitudeDegrees>42.06714500673115253448486328125</LatitudeDegrees>
              <LongitudeDegrees>2.1855988539755344390869140625</LongitudeDegrees>
            </Position>
            <AltitudeMeters>792.20001220703125</AltitudeMeters>
            <DistanceMeters>52961.131772884</DistanceMeters>
          </Trackpoint>
          <Trackpoint>
            <Time>2021-08-31T06:28:45.000Z</Time>
            <Position>
              <LatitudeDegrees>42.06718691624701023101806640625</LatitudeDegrees>
              <LongitudeDegrees>2.18552718870341777801513671875</LongitudeDegrees>
            </Position>
            <AltitudeMeters>791.5999755859375</AltitudeMeters>
            <DistanceMeters>52968.67069198</DistanceMeters>
          </Trackpoint>
          <Trackpoint>
            <Time>2021-08-31T06:28:46.000Z</Time>
            <Position>
              <LatitudeDegrees>42.06722949631512165069580078125</LatitudeDegrees>
              <LongitudeDegrees>2.18545141629874706268310546875</LongitudeDegrees>
            </Position>
            <AltitudeMeters>791.20001220703125</AltitudeMeters>
            <DistanceMeters>52976.523487153</DistanceMeters>
          </Trackpoint>
          <Trackpoint>
            <Time>2021-08-31T06:28:48.000Z</Time>
            <Position>
              <LatitudeDegrees>42.067342065274715423583984375</LatitudeDegrees>
              <LongitudeDegrees>2.185336835682392120361328125</LongitudeDegrees>
            </Position>
            <AltitudeMeters>788.20001220703125</AltitudeMeters>
            <DistanceMeters>52992.227352527</DistanceMeters>
          </Trackpoint>
          <Trackpoint>
            <Time>2021-08-31T06:28:52.000Z</Time>
            <Position>
              <LatitudeDegrees>42.06756074912846088409423828125</LatitudeDegrees>
              <LongitudeDegrees>2.1851123683154582977294921875</LongitudeDegrees>
            </Position>
            <AltitudeMeters>785.79998779296875</AltitudeMeters>
            <DistanceMeters>53022.828315375</DistanceMeters>
          </Trackpoint>
          <Trackpoint>
            <Time>2021-08-31T06:28:53.000Z</Time>
            <Position>
              <LatitudeDegrees>42.0676039159297943115234375</LatitudeDegrees>
              <LongitudeDegrees>2.1850463189184665679931640625</LongitudeDegrees>
            </Position>
            <AltitudeMeters>785.79998779296875</AltitudeMeters>
            <DistanceMeters>53030.09894585</DistanceMeters>
          </Trackpoint>
          <Trackpoint>
            <Time>2021-08-31T06:28:55.000Z</Time>
            <Position>
              <LatitudeDegrees>42.06767524592578411102294921875</LatitudeDegrees>
              <LongitudeDegrees>2.18492184765636920928955078125</LongitudeDegrees>
            </Position>
            <AltitudeMeters>786</AltitudeMeters>
            <DistanceMeters>53043.091221208</DistanceMeters>
          </Trackpoint>
          <Trackpoint>
            <Time>2021-08-31T06:28:57.000Z</Time>
            <Position>
              <LatitudeDegrees>42.0677529461681842803955078125</LatitudeDegrees>
              <LongitudeDegrees>2.18480265699326992034912109375</LongitudeDegrees>
            </Position>
            <AltitudeMeters>787</AltitudeMeters>
            <DistanceMeters>53056.198019988</DistanceMeters>
          </Trackpoint>
          <Trackpoint>
            <Time>2021-08-31T06:28:59.000Z</Time>
            <Position>
              <LatitudeDegrees>42.0678454823791980743408203125</LatitudeDegrees>
              <LongitudeDegrees>2.18468681909143924713134765625</LongitudeDegrees>
            </Position>
            <AltitudeMeters>787.79998779296875</AltitudeMeters>
            <DistanceMeters>53070.258120753</DistanceMeters>
          </Trackpoint>
          <Trackpoint>
            <Time>2021-08-31T06:29:00.000Z</Time>
            <Position>
              <LatitudeDegrees>42.06788487732410430908203125</LatitudeDegrees>
              <LongitudeDegrees>2.18462278135120868682861328125</LongitudeDegrees>
            </Position>
            <AltitudeMeters>788.4000244140625</AltitudeMeters>
            <DistanceMeters>53077.129018776</DistanceMeters>
          </Trackpoint>
          <Trackpoint>
            <Time>2021-08-31T06:29:02.000Z</Time>
            <Position>
              <LatitudeDegrees>42.067982442677021026611328125</LatitudeDegrees>
              <LongitudeDegrees>2.1845130622386932373046875</LongitudeDegrees>
            </Position>
            <AltitudeMeters>787.20001220703125</AltitudeMeters>
            <DistanceMeters>53091.27491903</DistanceMeters>
          </Trackpoint>
          <Trackpoint>
            <Time>2021-08-31T06:29:05.000Z</Time>
            <Position>
              <LatitudeDegrees>42.06810926087200641632080078125</LatitudeDegrees>
              <LongitudeDegrees>2.18434534035623073577880859375</LongitudeDegrees>
            </Position>
            <AltitudeMeters>785.5999755859375</AltitudeMeters>
            <DistanceMeters>53111.055774482</DistanceMeters>
          </Trackpoint>
          <Trackpoint>
            <Time>2021-08-31T06:29:07.000Z</Time>
            <Position>
              <LatitudeDegrees>42.068187296390533447265625</LatitudeDegrees>
              <LongitudeDegrees>2.18423570506274700164794921875</LongitudeDegrees>
            </Position>
            <AltitudeMeters>784.5999755859375</AltitudeMeters>
            <DistanceMeters>53123.6057782</DistanceMeters>
          </Trackpoint>
          <Trackpoint>
            <Time>2021-08-31T06:29:10.000Z</Time>
            <Position>
              <LatitudeDegrees>42.06830455921590328216552734375</LatitudeDegrees>
              <LongitudeDegrees>2.1840756945312023162841796875</LongitudeDegrees>
            </Position>
            <AltitudeMeters>784.5999755859375</AltitudeMeters>
            <DistanceMeters>53142.183683135</DistanceMeters>
          </Trackpoint>
          <Trackpoint>
            <Time>2021-08-31T06:29:12.000Z</Time>
            <Position>
              <LatitudeDegrees>42.06836826168000698089599609375</LatitudeDegrees>
              <LongitudeDegrees>2.18396832235157489776611328125</LongitudeDegrees>
            </Position>
            <AltitudeMeters>786</AltitudeMeters>
            <DistanceMeters>53153.540468853</DistanceMeters>
          </Trackpoint>
          <Trackpoint>
            <Time>2021-08-31T06:29:14.000Z</Time>
            <Position>
              <LatitudeDegrees>42.0684127695858478546142578125</LatitudeDegrees>
              <LongitudeDegrees>2.18383991159498691558837890625</LongitudeDegrees>
            </Position>
            <AltitudeMeters>788</AltitudeMeters>
            <DistanceMeters>53165.249981257</DistanceMeters>
          </Trackpoint>
          <Trackpoint>
            <Time>2021-08-31T06:29:19.000Z</Time>
            <Position>
              <LatitudeDegrees>42.06851142458617687225341796875</LatitudeDegrees>
              <LongitudeDegrees>2.1835885383188724517822265625</LongitudeDegrees>
            </Position>
            <AltitudeMeters>791.5999755859375</AltitudeMeters>
            <DistanceMeters>53188.743690895</DistanceMeters>
          </Trackpoint>
          <Trackpoint>
            <Time>2021-08-31T06:29:23.000Z</Time>
            <Position>
              <LatitudeDegrees>42.0685787312686443328857421875</LatitudeDegrees>
              <LongitudeDegrees>2.18340924941003322601318359375</LongitudeDegrees>
            </Position>
            <AltitudeMeters>793.20001220703125</AltitudeMeters>
            <DistanceMeters>53205.343745496</DistanceMeters>
          </Trackpoint>
          <Trackpoint>
            <Time>2021-08-31T06:29:28.000Z</Time>
            <Position>
              <LatitudeDegrees>42.06867420114576816558837890625</LatitudeDegrees>
              <LongitudeDegrees>2.18320406042039394378662109375</LongitudeDegrees>
            </Position>
            <AltitudeMeters>795.20001220703125</AltitudeMeters>
            <DistanceMeters>53225.352228924</DistanceMeters>
          </Trackpoint>
          <Trackpoint>
            <Time>2021-08-31T06:29:30.000Z</Time>
            <Position>
              <LatitudeDegrees>42.06872466020286083221435546875</LatitudeDegrees>
              <LongitudeDegrees>2.18310867436230182647705078125</LongitudeDegrees>
            </Position>
            <AltitudeMeters>796.20001220703125</AltitudeMeters>
            <DistanceMeters>53235.029103043</DistanceMeters>
          </Trackpoint>
          <Trackpoint>
            <Time>2021-08-31T06:29:32.000Z</Time>
            <Position>
              <LatitudeDegrees>42.068768329918384552001953125</LatitudeDegrees>
              <LongitudeDegrees>2.18299836851656436920166015625</LongitudeDegrees>
            </Position>
            <AltitudeMeters>797.5999755859375</AltitudeMeters>
            <DistanceMeters>53245.357768161</DistanceMeters>
          </Trackpoint>
          <Trackpoint>
            <Time>2021-08-31T06:29:34.000Z</Time>
            <Position>
              <LatitudeDegrees>42.06880529411137104034423828125</LatitudeDegrees>
              <LongitudeDegrees>2.1828603185713291168212890625</LongitudeDegrees>
            </Position>
            <AltitudeMeters>798.4000244140625</AltitudeMeters>
            <DistanceMeters>53257.483266281</DistanceMeters>
          </Trackpoint>
          <Trackpoint>
            <Time>2021-08-31T06:29:37.000Z</Time>
            <Position>
              <LatitudeDegrees>42.068890035152435302734375</LatitudeDegrees>
              <LongitudeDegrees>2.18272997997701168060302734375</LongitudeDegrees>
            </Position>
            <AltitudeMeters>798</AltitudeMeters>
            <DistanceMeters>53271.798592153</DistanceMeters>
          </Trackpoint>
          <Trackpoint>
            <Time>2021-08-31T06:29:39.000Z</Time>
            <Position>
              <LatitudeDegrees>42.068933956325054168701171875</LatitudeDegrees>
              <LongitudeDegrees>2.18272268772125244140625</LongitudeDegrees>
            </Position>
            <AltitudeMeters>797.4000244140625</AltitudeMeters>
            <DistanceMeters>53276.723506906</DistanceMeters>
          </Trackpoint>
          <Trackpoint>
            <Time>2021-08-31T06:29:40.000Z</Time>
            <Position>
              <LatitudeDegrees>42.06894611008465290069580078125</LatitudeDegrees>
              <LongitudeDegrees>2.18273333273828029632568359375</LongitudeDegrees>
            </Position>
            <AltitudeMeters>797.20001220703125</AltitudeMeters>
            <DistanceMeters>53278.333361539</DistanceMeters>
          </Trackpoint>
          <Trackpoint>
            <Time>2021-08-31T06:29:45.000Z</Time>
            <Position>
              <LatitudeDegrees>42.0690062083303928375244140625</LatitudeDegrees>
              <LongitudeDegrees>2.1828931756317615509033203125</LongitudeDegrees>
            </Position>
            <AltitudeMeters>795.4000244140625</AltitudeMeters>
            <DistanceMeters>53293.137413528</DistanceMeters>
          </Trackpoint>
          <Trackpoint>
            <Time>2021-08-31T06:29:53.000Z</Time>
            <Position>
              <LatitudeDegrees>42.0690576732158660888671875</LatitudeDegrees>
              <LongitudeDegrees>2.18318662606179714202880859375</LongitudeDegrees>
            </Position>
            <AltitudeMeters>793</AltitudeMeters>
            <DistanceMeters>53318.050728729</DistanceMeters>
          </Trackpoint>
          <Trackpoint>
            <Time>2021-08-31T06:30:00.000Z</Time>
            <Position>
              <LatitudeDegrees>42.06912464462220668792724609375</LatitudeDegrees>
              <LongitudeDegrees>2.18342567794024944305419921875</LongitudeDegrees>
            </Position>
            <AltitudeMeters>790</AltitudeMeters>
            <DistanceMeters>53339.161635692</DistanceMeters>
          </Trackpoint>
          <Trackpoint>
            <Time>2021-08-31T06:30:06.000Z</Time>
            <Position>
              <LatitudeDegrees>42.06918247975409030914306640625</LatitudeDegrees>
              <LongitudeDegrees>2.183637320995330810546875</LongitudeDegrees>
            </Position>
            <AltitudeMeters>786.5999755859375</AltitudeMeters>
            <DistanceMeters>53357.795596608</DistanceMeters>
          </Trackpoint>
          <Trackpoint>
            <Time>2021-08-31T06:30:11.000Z</Time>
            <Position>
              <LatitudeDegrees>42.0692030154168605804443359375</LatitudeDegrees>
              <LongitudeDegrees>2.18384393490850925445556640625</LongitudeDegrees>
            </Position>
            <AltitudeMeters>784.20001220703125</AltitudeMeters>
            <DistanceMeters>53375.019303275</DistanceMeters>
          </Trackpoint>
          <Trackpoint>
            <Time>2021-08-31T06:30:16.000Z</Time>
            <Position>
              <LatitudeDegrees>42.069227993488311767578125</LatitudeDegrees>
              <LongitudeDegrees>2.184165380895137786865234375</LongitudeDegrees>
            </Position>
            <AltitudeMeters>781</AltitudeMeters>
            <DistanceMeters>53401.72333175</DistanceMeters>
          </Trackpoint>
          <Trackpoint>
            <Time>2021-08-31T06:30:20.000Z</Time>
            <Position>
              <LatitudeDegrees>42.06929295323789119720458984375</LatitudeDegrees>
              <LongitudeDegrees>2.18456645496189594268798828125</LongitudeDegrees>
            </Position>
            <AltitudeMeters>778.4000244140625</AltitudeMeters>
            <DistanceMeters>53435.641080478</DistanceMeters>
          </Trackpoint>
          <Trackpoint>
            <Time>2021-08-31T06:30:24.000Z</Time>
            <Position>
              <LatitudeDegrees>42.06934710033237934112548828125</LatitudeDegrees>
              <LongitudeDegrees>2.1848877333104610443115234375</LongitudeDegrees>
            </Position>
            <AltitudeMeters>775.79998779296875</AltitudeMeters>
            <DistanceMeters>53462.861880479</DistanceMeters>
          </Trackpoint>
          <Trackpoint>
            <Time>2021-08-31T06:30:26.000Z</Time>
            <Position>
              <LatitudeDegrees>42.0694115571677684783935546875</LatitudeDegrees>
              <LongitudeDegrees>2.18498202972114086151123046875</LongitudeDegrees>
            </Position>
            <AltitudeMeters>774.4000244140625</AltitudeMeters>
            <DistanceMeters>53473.452990411</DistanceMeters>
          </Trackpoint>
          <Trackpoint>
            <Time>2021-08-31T06:30:27.000Z</Time>
            <Position>
              <LatitudeDegrees>42.0694581605494022369384765625</LatitudeDegrees>
              <LongitudeDegrees>2.184999547898769378662109375</LongitudeDegrees>
            </Position>
            <AltitudeMeters>773.5999755859375</AltitudeMeters>
            <DistanceMeters>53478.838582814</DistanceMeters>
          </Trackpoint>
          <Trackpoint>
            <Time>2021-08-31T06:30:28.000Z</Time>
            <Position>
              <LatitudeDegrees>42.06950602121651172637939453125</LatitudeDegrees>
              <LongitudeDegrees>2.1849997155368328094482421875</LongitudeDegrees>
            </Position>
            <AltitudeMeters>772.79998779296875</AltitudeMeters>
            <DistanceMeters>53484.166014678</DistanceMeters>
          </Trackpoint>
          <Trackpoint>
            <Time>2021-08-31T06:30:30.000Z</Time>
            <Position>
              <LatitudeDegrees>42.06960408948361873626708984375</LatitudeDegrees>
              <LongitudeDegrees>2.1849557943642139434814453125</LongitudeDegrees>
            </Position>
            <AltitudeMeters>771.5999755859375</AltitudeMeters>
            <DistanceMeters>53495.668173171</DistanceMeters>
          </Trackpoint>
          <Trackpoint>
            <Time>2021-08-31T06:30:32.000Z</Time>
            <Position>
              <LatitudeDegrees>42.06967919133603572845458984375</LatitudeDegrees>
              <LongitudeDegrees>2.18486200086772441864013671875</LongitudeDegrees>
            </Position>
            <AltitudeMeters>771.20001220703125</AltitudeMeters>
            <DistanceMeters>53507.066626569</DistanceMeters>
          </Trackpoint>
          <Trackpoint>
            <Time>2021-08-31T06:30:33.000Z</Time>
            <Position>
              <LatitudeDegrees>42.06969528459012508392333984375</LatitudeDegrees>
              <LongitudeDegrees>2.1847920119762420654296875</LongitudeDegrees>
            </Position>
            <AltitudeMeters>771.20001220703125</AltitudeMeters>
            <DistanceMeters>53513.120059497</DistanceMeters>
          </Trackpoint>
          <Trackpoint>
            <Time>2021-08-31T06:30:34.000Z</Time>
            <Position>
              <LatitudeDegrees>42.06969008781015872955322265625</LatitudeDegrees>
              <LongitudeDegrees>2.1847056783735752105712890625</LongitudeDegrees>
            </Position>
            <AltitudeMeters>771.79998779296875</AltitudeMeters>
            <DistanceMeters>53520.276776173</DistanceMeters>
          </Trackpoint>
          <Trackpoint>
            <Time>2021-08-31T06:30:36.000Z</Time>
            <Position>
              <LatitudeDegrees>42.069641388952732086181640625</LatitudeDegrees>
              <LongitudeDegrees>2.1845098771154880523681640625</LongitudeDegrees>
            </Position>
            <AltitudeMeters>772.4000244140625</AltitudeMeters>
            <DistanceMeters>53537.338239893</DistanceMeters>
          </Trackpoint>
          <Trackpoint>
            <Time>2021-08-31T06:30:38.000Z</Time>
            <Position>
              <LatitudeDegrees>42.06957173533737659454345703125</LatitudeDegrees>
              <LongitudeDegrees>2.18427459709346294403076171875</LongitudeDegrees>
            </Position>
            <AltitudeMeters>773.5999755859375</AltitudeMeters>
            <DistanceMeters>53558.266565861</DistanceMeters>
          </Trackpoint>
          <Trackpoint>
            <Time>2021-08-31T06:30:40.000Z</Time>
            <Position>
              <LatitudeDegrees>42.06955723464488983154296875</LatitudeDegrees>
              <LongitudeDegrees>2.1840369701385498046875</LongitudeDegrees>
            </Position>
            <AltitudeMeters>774.20001220703125</AltitudeMeters>
            <DistanceMeters>53577.966224875</DistanceMeters>
          </Trackpoint>
          <Trackpoint>
            <Time>2021-08-31T06:30:42.000Z</Time>
            <Position>
              <LatitudeDegrees>42.069601155817508697509765625</LatitudeDegrees>
              <LongitudeDegrees>2.18382130376994609832763671875</LongitudeDegrees>
            </Position>
            <AltitudeMeters>775.20001220703125</AltitudeMeters>
            <DistanceMeters>53596.443484688</DistanceMeters>
          </Trackpoint>
          <Trackpoint>
            <Time>2021-08-31T06:30:43.000Z</Time>
            <Position>
              <LatitudeDegrees>42.06962470896542072296142578125</LatitudeDegrees>
              <LongitudeDegrees>2.18371770344674587249755859375</LongitudeDegrees>
            </Position>
            <AltitudeMeters>775.4000244140625</AltitudeMeters>
            <DistanceMeters>53605.396191458</DistanceMeters>
          </Trackpoint>
          <Trackpoint>
            <Time>2021-08-31T06:30:46.000Z</Time>
            <Position>
              <LatitudeDegrees>42.06966879777610301971435546875</LatitudeDegrees>
              <LongitudeDegrees>2.18345283530652523040771484375</LongitudeDegrees>
            </Position>
            <AltitudeMeters>775.79998779296875</AltitudeMeters>
            <DistanceMeters>53627.823703983</DistanceMeters>
          </Trackpoint>
          <Trackpoint>
            <Time>2021-08-31T06:30:47.000Z</Time>
            <Position>
              <LatitudeDegrees>42.06966997124254703521728515625</LatitudeDegrees>
              <LongitudeDegrees>2.1833856962621212005615234375</LongitudeDegrees>
            </Position>
            <AltitudeMeters>776.20001220703125</AltitudeMeters>
            <DistanceMeters>53633.372808476</DistanceMeters>
          </Trackpoint>
          <Trackpoint>
            <Time>2021-08-31T06:30:48.000Z</Time>
            <Position>
              <LatitudeDegrees>42.0696660317480564117431640625</LatitudeDegrees>
              <LongitudeDegrees>2.18332819640636444091796875</LongitudeDegrees>
            </Position>
            <AltitudeMeters>776.5999755859375</AltitudeMeters>
            <DistanceMeters>53638.14500428</DistanceMeters>
          </Trackpoint>
          <Trackpoint>
            <Time>2021-08-31T06:30:51.000Z</Time>
            <Position>
              <LatitudeDegrees>42.0696291513741016387939453125</LatitudeDegrees>
              <LongitudeDegrees>2.183152846992015838623046875</LongitudeDegrees>
            </Position>
            <AltitudeMeters>778.5999755859375</AltitudeMeters>
            <DistanceMeters>53653.203665564</DistanceMeters>
          </Trackpoint>
          <Trackpoint>
            <Time>2021-08-31T06:30:53.000Z</Time>
            <Position>
              <LatitudeDegrees>42.06962428987026214599609375</LatitudeDegrees>
              <LongitudeDegrees>2.18303390778601169586181640625</LongitudeDegrees>
            </Position>
            <AltitudeMeters>779.5999755859375</AltitudeMeters>
            <DistanceMeters>53663.045699399</DistanceMeters>
          </Trackpoint>
          <Trackpoint>
            <Time>2021-08-31T06:30:55.000Z</Time>
            <Position>
              <LatitudeDegrees>42.0696479268372058868408203125</LatitudeDegrees>
              <LongitudeDegrees>2.18290348537266254425048828125</LongitudeDegrees>
            </Position>
            <AltitudeMeters>780</AltitudeMeters>
            <DistanceMeters>53674.138211361</DistanceMeters>
          </Trackpoint>
          <Trackpoint>
            <Time>2021-08-31T06:30:57.000Z</Time>
            <Position>
              <LatitudeDegrees>42.069697715342044830322265625</LatitudeDegrees>
              <LongitudeDegrees>2.18278597109019756317138671875</LongitudeDegrees>
            </Position>
            <AltitudeMeters>779.5999755859375</AltitudeMeters>
            <DistanceMeters>53685.317893292</DistanceMeters>
          </Trackpoint>
          <Trackpoint>
            <Time>2021-08-31T06:30:59.000Z</Time>
            <Position>
              <LatitudeDegrees>42.0697753317654132843017578125</LatitudeDegrees>
              <LongitudeDegrees>2.18269309960305690765380859375</LongitudeDegrees>
            </Position>
            <AltitudeMeters>778.5999755859375</AltitudeMeters>
            <DistanceMeters>53696.872532197</DistanceMeters>
          </Trackpoint>
          <Trackpoint>
            <Time>2021-08-31T06:31:00.000Z</Time>
            <Position>
              <LatitudeDegrees>42.0698113739490509033203125</LatitudeDegrees>
              <LongitudeDegrees>2.18264381401240825653076171875</LongitudeDegrees>
            </Position>
            <AltitudeMeters>778.20001220703125</AltitudeMeters>
            <DistanceMeters>53702.588371293</DistanceMeters>
          </Trackpoint>
          <Trackpoint>
            <Time>2021-08-31T06:31:02.000Z</Time>
            <Position>
              <LatitudeDegrees>42.06986702978610992431640625</LatitudeDegrees>
              <LongitudeDegrees>2.18253635801374912261962890625</LongitudeDegrees>
            </Position>
            <AltitudeMeters>777.79998779296875</AltitudeMeters>
            <DistanceMeters>53713.414329087</DistanceMeters>
          </Trackpoint>
          <Trackpoint>
            <Time>2021-08-31T06:31:03.000Z</Time>
            <Position>
              <LatitudeDegrees>42.0698836259543895721435546875</LatitudeDegrees>
              <LongitudeDegrees>2.18247349373996257781982421875</LongitudeDegrees>
            </Position>
            <AltitudeMeters>777.79998779296875</AltitudeMeters>
            <DistanceMeters>53718.92833556</DistanceMeters>
          </Trackpoint>
          <Trackpoint>
            <Time>2021-08-31T06:31:04.000Z</Time>
            <Position>
              <LatitudeDegrees>42.0698950253427028656005859375</LatitudeDegrees>
              <LongitudeDegrees>2.18240962363779544830322265625</LongitudeDegrees>
            </Position>
            <AltitudeMeters>778.20001220703125</AltitudeMeters>
            <DistanceMeters>53724.355683841</DistanceMeters>
          </Trackpoint>
          <Trackpoint>
            <Time>2021-08-31T06:31:07.000Z</Time>
            <Position>
              <LatitudeDegrees>42.069896869361400604248046875</LatitudeDegrees>
              <LongitudeDegrees>2.18219940550625324249267578125</LongitudeDegrees>
            </Position>
            <AltitudeMeters>779.5999755859375</AltitudeMeters>
            <DistanceMeters>53741.725569107</DistanceMeters>
          </Trackpoint>
          <Trackpoint>
            <Time>2021-08-31T06:31:12.000Z</Time>
            <Position>
              <LatitudeDegrees>42.0698802731931209564208984375</LatitudeDegrees>
              <LongitudeDegrees>2.1819252334535121917724609375</LongitudeDegrees>
            </Position>
            <AltitudeMeters>782</AltitudeMeters>
            <DistanceMeters>53764.453448306</DistanceMeters>
          </Trackpoint>
          <Trackpoint>
            <Time>2021-08-31T06:31:14.000Z</Time>
            <Position>
              <LatitudeDegrees>42.06989251077175140380859375</LatitudeDegrees>
              <LongitudeDegrees>2.18182071112096309661865234375</LongitudeDegrees>
            </Position>
            <AltitudeMeters>782.4000244140625</AltitudeMeters>
            <DistanceMeters>53773.195906028</DistanceMeters>
          </Trackpoint>
          <Trackpoint>
            <Time>2021-08-31T06:31:16.000Z</Time>
            <Position>
              <LatitudeDegrees>42.0699158124625682830810546875</LatitudeDegrees>
              <LongitudeDegrees>2.18170369975268840789794921875</LongitudeDegrees>
            </Position>
            <AltitudeMeters>782.5999755859375</AltitudeMeters>
            <DistanceMeters>53783.205787557</DistanceMeters>
          </Trackpoint>
          <Trackpoint>
            <Time>2021-08-31T06:31:17.000Z</Time>
            <Position>
              <LatitudeDegrees>42.0699252001941204071044921875</LatitudeDegrees>
              <LongitudeDegrees>2.18164167366921901702880859375</LongitudeDegrees>
            </Position>
            <AltitudeMeters>782.79998779296875</AltitudeMeters>
            <DistanceMeters>53788.43657446</DistanceMeters>
          </Trackpoint>
          <Trackpoint>
            <Time>2021-08-31T06:31:20.000Z</Time>
            <Position>
              <LatitudeDegrees>42.06992276944220066070556640625</LatitudeDegrees>
              <LongitudeDegrees>2.18144855462014675140380859375</LongitudeDegrees>
            </Position>
            <AltitudeMeters>784.20001220703125</AltitudeMeters>
            <DistanceMeters>53804.394839274</DistanceMeters>
          </Trackpoint>
          <Trackpoint>
            <Time>2021-08-31T06:31:22.000Z</Time>
            <Position>
              <LatitudeDegrees>42.06990499980747699737548828125</LatitudeDegrees>
              <LongitudeDegrees>2.1813053078949451446533203125</LongitudeDegrees>
            </Position>
            <AltitudeMeters>785.5999755859375</AltitudeMeters>
            <DistanceMeters>53816.394572562</DistanceMeters>
          </Trackpoint>
          <Trackpoint>
            <Time>2021-08-31T06:31:25.000Z</Time>
            <Position>
              <LatitudeDegrees>42.06991530954837799072265625</LatitudeDegrees>
              <LongitudeDegrees>2.181086204946041107177734375</LongitudeDegrees>
            </Position>
            <AltitudeMeters>786.5999755859375</AltitudeMeters>
            <DistanceMeters>53834.533477306</DistanceMeters>
          </Trackpoint>
          <Trackpoint>
            <Time>2021-08-31T06:31:26.000Z</Time>
            <Position>
              <LatitudeDegrees>42.06993048079311847686767578125</LatitudeDegrees>
              <LongitudeDegrees>2.18102342449128627777099609375</LongitudeDegrees>
            </Position>
            <AltitudeMeters>786.5999755859375</AltitudeMeters>
            <DistanceMeters>53839.989037035</DistanceMeters>
          </Trackpoint>
          <Trackpoint>
            <Time>2021-08-31T06:31:28.000Z</Time>
            <Position>
              <LatitudeDegrees>42.06996652297675609588623046875</LatitudeDegrees>
              <LongitudeDegrees>2.18089970760047435760498046875</LongitudeDegrees>
            </Position>
            <AltitudeMeters>786.79998779296875</AltitudeMeters>
            <DistanceMeters>53850.97027744</DistanceMeters>
          </Trackpoint>
          <Trackpoint>
            <Time>2021-08-31T06:31:29.000Z</Time>
            <Position>
              <LatitudeDegrees>42.06998429261147975921630859375</LatitudeDegrees>
              <LongitudeDegrees>2.1808453090488910675048828125</LongitudeDegrees>
            </Position>
            <AltitudeMeters>786.79998779296875</AltitudeMeters>
            <DistanceMeters>53855.880501886</DistanceMeters>
          </Trackpoint>
          <Trackpoint>
            <Time>2021-08-31T06:31:32.000Z</Time>
            <Position>
              <LatitudeDegrees>42.07000725902616977691650390625</LatitudeDegrees>
              <LongitudeDegrees>2.18067691661417484283447265625</LongitudeDegrees>
            </Position>
            <AltitudeMeters>789.20001220703125</AltitudeMeters>
            <DistanceMeters>53870.02640214</DistanceMeters>
          </Trackpoint>
          <Trackpoint>
            <Time>2021-08-31T06:31:33.000Z</Time>
            <Position>
              <LatitudeDegrees>42.07001111470162868499755859375</LatitudeDegrees>
              <LongitudeDegrees>2.18061606399714946746826171875</LongitudeDegrees>
            </Position>
            <AltitudeMeters>790</AltitudeMeters>
            <DistanceMeters>53875.071774821</DistanceMeters>
          </Trackpoint>
          <Trackpoint>
            <Time>2021-08-31T06:31:35.000Z</Time>
            <Position>
              <LatitudeDegrees>42.07001849077641963958740234375</LatitudeDegrees>
              <LongitudeDegrees>2.1804905869066715240478515625</LongitudeDegrees>
            </Position>
            <AltitudeMeters>791.5999755859375</AltitudeMeters>
            <DistanceMeters>53885.471014961</DistanceMeters>
          </Trackpoint>
          <Trackpoint>
            <Time>2021-08-31T06:31:37.000Z</Time>
            <Position>
              <LatitudeDegrees>42.0700474083423614501953125</LatitudeDegrees>
              <LongitudeDegrees>2.18036896549165248870849609375</LongitudeDegrees>
            </Position>
            <AltitudeMeters>793.20001220703125</AltitudeMeters>
            <DistanceMeters>53896.022831988</DistanceMeters>
          </Trackpoint>
          <Trackpoint>
            <Time>2021-08-31T06:31:38.000Z</Time>
            <Position>
              <LatitudeDegrees>42.0700723864138126373291015625</LatitudeDegrees>
              <LongitudeDegrees>2.1803180873394012451171875</LongitudeDegrees>
            </Position>
            <AltitudeMeters>793.79998779296875</AltitudeMeters>
            <DistanceMeters>53901.061936567</DistanceMeters>
          </Trackpoint>
          <Trackpoint>
            <Time>2021-08-31T06:31:39.000Z</Time>
            <Position>
              <LatitudeDegrees>42.0701035670936107635498046875</LatitudeDegrees>
              <LongitudeDegrees>2.1802750043570995330810546875</LongitudeDegrees>
            </Position>
            <AltitudeMeters>794.20001220703125</AltitudeMeters>
            <DistanceMeters>53906.033386982</DistanceMeters>
          </Trackpoint>
          <Trackpoint>
            <Time>2021-08-31T06:31:41.000Z</Time>
            <Position>
              <LatitudeDegrees>42.0701842010021209716796875</LatitudeDegrees>
              <LongitudeDegrees>2.1802548877894878387451171875</LongitudeDegrees>
            </Position>
            <AltitudeMeters>794.4000244140625</AltitudeMeters>
            <DistanceMeters>53915.160899527</DistanceMeters>
          </Trackpoint>
          <Trackpoint>
            <Time>2021-08-31T06:31:45.000Z</Time>
            <Position>
              <LatitudeDegrees>42.07035762257874011993408203125</LatitudeDegrees>
              <LongitudeDegrees>2.18032722361385822296142578125</LongitudeDegrees>
            </Position>
            <AltitudeMeters>793.20001220703125</AltitudeMeters>
            <DistanceMeters>53935.366984659</DistanceMeters>
          </Trackpoint>
          <Trackpoint>
            <Time>2021-08-31T06:31:46.000Z</Time>
            <Position>
              <LatitudeDegrees>42.0703972689807415008544921875</LatitudeDegrees>
              <LongitudeDegrees>2.18035588972270488739013671875</LongitudeDegrees>
            </Position>
            <AltitudeMeters>792.79998779296875</AltitudeMeters>
            <DistanceMeters>53940.374631041</DistanceMeters>
          </Trackpoint>
          <Trackpoint>
            <Time>2021-08-31T06:31:53.000Z</Time>
            <Position>
              <LatitudeDegrees>42.07065828144550323486328125</LatitudeDegrees>
              <LongitudeDegrees>2.1804909221827983856201171875</LongitudeDegrees>
            </Position>
            <AltitudeMeters>791.20001220703125</AltitudeMeters>
            <DistanceMeters>53971.494392902</DistanceMeters>
          </Trackpoint>
          <Trackpoint>
            <Time>2021-08-31T06:31:55.000Z</Time>
            <Position>
              <LatitudeDegrees>42.07070446573197841644287109375</LatitudeDegrees>
              <LongitudeDegrees>2.180438451468944549560546875</LongitudeDegrees>
            </Position>
            <AltitudeMeters>792.4000244140625</AltitudeMeters>
            <DistanceMeters>53978.218498252</DistanceMeters>
          </Trackpoint>
          <Trackpoint>
            <Time>2021-08-31T06:31:56.000Z</Time>
            <Position>
              <LatitudeDegrees>42.070714943110942840576171875</LatitudeDegrees>
              <LongitudeDegrees>2.18040467239916324615478515625</LongitudeDegrees>
            </Position>
            <AltitudeMeters>793</AltitudeMeters>
            <DistanceMeters>53981.242976296</DistanceMeters>
          </Trackpoint>
          <Trackpoint>
            <Time>2021-08-31T06:32:00.000Z</Time>
            <Position>
              <LatitudeDegrees>42.070681750774383544921875</LatitudeDegrees>
              <LongitudeDegrees>2.18027072958648204803466796875</LongitudeDegrees>
            </Position>
            <AltitudeMeters>795.4000244140625</AltitudeMeters>
            <DistanceMeters>53992.909610011</DistanceMeters>
          </Trackpoint>
          <Trackpoint>
            <Time>2021-08-31T06:32:05.000Z</Time>
            <Position>
              <LatitudeDegrees>42.0706115104258060455322265625</LatitudeDegrees>
              <LongitudeDegrees>2.1801144070923328399658203125</LongitudeDegrees>
            </Position>
            <AltitudeMeters>798.20001220703125</AltitudeMeters>
            <DistanceMeters>54008.007198878</DistanceMeters>
          </Trackpoint>
          <Trackpoint>
            <Time>2021-08-31T06:32:12.000Z</Time>
            <Position>
              <LatitudeDegrees>42.07048930227756500244140625</LatitudeDegrees>
              <LongitudeDegrees>2.17991097830235958099365234375</LongitudeDegrees>
            </Position>
            <AltitudeMeters>801.79998779296875</AltitudeMeters>
            <DistanceMeters>54029.629065533</DistanceMeters>
          </Trackpoint>
          <Trackpoint>
            <Time>2021-08-31T06:32:18.000Z</Time>
            <Position>
              <LatitudeDegrees>42.07038830034434795379638671875</LatitudeDegrees>
              <LongitudeDegrees>2.1797492913901805877685546875</LongitudeDegrees>
            </Position>
            <AltitudeMeters>805.4000244140625</AltitudeMeters>
            <DistanceMeters>54047.08865661</DistanceMeters>
          </Trackpoint>
          <Trackpoint>
            <Time>2021-08-31T06:32:23.000Z</Time>
            <Position>
              <LatitudeDegrees>42.07030280493199825286865234375</LatitudeDegrees>
              <LongitudeDegrees>2.17962213791906833648681640625</LongitudeDegrees>
            </Position>
            <AltitudeMeters>808.20001220703125</AltitudeMeters>
            <DistanceMeters>54061.263253637</DistanceMeters>
          </Trackpoint>
          <Trackpoint>
            <Time>2021-08-31T06:32:28.000Z</Time>
            <Position>
              <LatitudeDegrees>42.07025134004652500152587890625</LatitudeDegrees>
              <LongitudeDegrees>2.1794750355184078216552734375</LongitudeDegrees>
            </Position>
            <AltitudeMeters>811.4000244140625</AltitudeMeters>
            <DistanceMeters>54074.699372432</DistanceMeters>
          </Trackpoint>
          <Trackpoint>
            <Time>2021-08-31T06:32:29.000Z</Time>
            <Position>
              <LatitudeDegrees>42.07025201059877872467041015625</LatitudeDegrees>
              <LongitudeDegrees>2.179444693028926849365234375</LongitudeDegrees>
            </Position>
            <AltitudeMeters>812.20001220703125</AltitudeMeters>
            <DistanceMeters>54077.206349338</DistanceMeters>
          </Trackpoint>
          <Trackpoint>
            <Time>2021-08-31T06:32:32.000Z</Time>
            <Position>
              <LatitudeDegrees>42.07026123069226741790771484375</LatitudeDegrees>
              <LongitudeDegrees>2.179352156817913055419921875</LongitudeDegrees>
            </Position>
            <AltitudeMeters>814.4000244140625</AltitudeMeters>
            <DistanceMeters>54084.920505401</DistanceMeters>
          </Trackpoint>
          <Trackpoint>
            <Time>2021-08-31T06:32:38.000Z</Time>
            <Position>
              <LatitudeDegrees>42.0703868754208087921142578125</LatitudeDegrees>
              <LongitudeDegrees>2.179297506809234619140625</LongitudeDegrees>
            </Position>
            <AltitudeMeters>816.20001220703125</AltitudeMeters>
            <DistanceMeters>54099.615888287</DistanceMeters>
          </Trackpoint>
          <Trackpoint>
            <Time>2021-08-31T06:32:45.000Z</Time>
            <Position>
              <LatitudeDegrees>42.0705447904765605926513671875</LatitudeDegrees>
              <LongitudeDegrees>2.1793784759938716888427734375</LongitudeDegrees>
            </Position>
            <AltitudeMeters>814.79998779296875</AltitudeMeters>
            <DistanceMeters>54118.422296877</DistanceMeters>
          </Trackpoint>
          <Trackpoint>
            <Time>2021-08-31T06:32:53.000Z</Time>
            <Position>
              <LatitudeDegrees>42.070701532065868377685546875</LatitudeDegrees>
              <LongitudeDegrees>2.17951987870037555694580078125</LongitudeDegrees>
            </Position>
            <AltitudeMeters>812</AltitudeMeters>
            <DistanceMeters>54139.418470384</DistanceMeters>
          </Trackpoint>
          <Trackpoint>
            <Time>2021-08-31T06:33:00.000Z</Time>
            <Position>
              <LatitudeDegrees>42.07085969857871532440185546875</LatitudeDegrees>
              <LongitudeDegrees>2.17952541075646877288818359375</LongitudeDegrees>
            </Position>
            <AltitudeMeters>813.5999755859375</AltitudeMeters>
            <DistanceMeters>54157.028435893</DistanceMeters>
          </Trackpoint>
          <Trackpoint>
            <Time>2021-08-31T06:33:05.000Z</Time>
            <Position>
              <LatitudeDegrees>42.0709669031202793121337890625</LatitudeDegrees>
              <LongitudeDegrees>2.179495655000209808349609375</LongitudeDegrees>
            </Position>
            <AltitudeMeters>816</AltitudeMeters>
            <DistanceMeters>54169.211142342</DistanceMeters>
          </Trackpoint>
          <Trackpoint>
            <Time>2021-08-31T06:33:12.000Z</Time>
            <Position>
              <LatitudeDegrees>42.07111031748354434967041015625</LatitudeDegrees>
              <LongitudeDegrees>2.17948048375546932220458984375</LongitudeDegrees>
            </Position>
            <AltitudeMeters>818.5999755859375</AltitudeMeters>
            <DistanceMeters>54185.22250925</DistanceMeters>
          </Trackpoint>
          <Trackpoint>
            <Time>2021-08-31T06:33:17.000Z</Time>
            <Position>
              <LatitudeDegrees>42.0712193660438060760498046875</LatitudeDegrees>
              <LongitudeDegrees>2.1795005165040493011474609375</LongitudeDegrees>
            </Position>
            <AltitudeMeters>820.79998779296875</AltitudeMeters>
            <DistanceMeters>54197.472481101</DistanceMeters>
          </Trackpoint>
          <Trackpoint>
            <Time>2021-08-31T06:33:23.000Z</Time>
            <Position>
              <LatitudeDegrees>42.071355320513248443603515625</LatitudeDegrees>
              <LongitudeDegrees>2.17956279404461383819580078125</LongitudeDegrees>
            </Position>
            <AltitudeMeters>822.4000244140625</AltitudeMeters>
            <DistanceMeters>54213.455624177</DistanceMeters>
          </Trackpoint>
          <Trackpoint>
            <Time>2021-08-31T06:33:30.000Z</Time>
            <Position>
              <LatitudeDegrees>42.07151549868285655975341796875</LatitudeDegrees>
              <LongitudeDegrees>2.1796369738876819610595703125</LongitudeDegrees>
            </Position>
            <AltitudeMeters>824.20001220703125</AltitudeMeters>
            <DistanceMeters>54232.307832236</DistanceMeters>
          </Trackpoint>
          <Trackpoint>
            <Time>2021-08-31T06:33:37.000Z</Time>
            <Position>
              <LatitudeDegrees>42.07166268490254878997802734375</LatitudeDegrees>
              <LongitudeDegrees>2.179701514542102813720703125</LongitudeDegrees>
            </Position>
            <AltitudeMeters>824.5999755859375</AltitudeMeters>
            <DistanceMeters>54249.535994721</DistanceMeters>
          </Trackpoint>
          <Trackpoint>
            <Time>2021-08-31T06:33:46.000Z</Time>
            <Position>
              <LatitudeDegrees>42.07185764797031879425048828125</LatitudeDegrees>
              <LongitudeDegrees>2.17969438992440700531005859375</LongitudeDegrees>
            </Position>
            <AltitudeMeters>826.20001220703125</AltitudeMeters>
            <DistanceMeters>54271.243931962</DistanceMeters>
          </Trackpoint>
          <Trackpoint>
            <Time>2021-08-31T06:33:52.000Z</Time>
            <Position>
              <LatitudeDegrees>42.0719901658594608306884765625</LatitudeDegrees>
              <LongitudeDegrees>2.179630100727081298828125</LongitudeDegrees>
            </Position>
            <AltitudeMeters>829.5999755859375</AltitudeMeters>
            <DistanceMeters>54286.920747981</DistanceMeters>
          </Trackpoint>
          <Trackpoint>
            <Time>2021-08-31T06:34:00.000Z</Time>
            <Position>
              <LatitudeDegrees>42.072172053158283233642578125</LatitudeDegrees>
              <LongitudeDegrees>2.179553322494029998779296875</LongitudeDegrees>
            </Position>
            <AltitudeMeters>833.79998779296875</AltitudeMeters>
            <DistanceMeters>54308.135767899</DistanceMeters>
          </Trackpoint>
          <Trackpoint>
            <Time>2021-08-31T06:34:07.000Z</Time>
            <Position>
              <LatitudeDegrees>42.07232032902538776397705078125</LatitudeDegrees>
              <LongitudeDegrees>2.179555334150791168212890625</LongitudeDegrees>
            </Position>
            <AltitudeMeters>834.79998779296875</AltitudeMeters>
            <DistanceMeters>54324.640078122</DistanceMeters>
          </Trackpoint>
          <Trackpoint>
            <Time>2021-08-31T06:34:13.000Z</Time>
            <Position>
              <LatitudeDegrees>42.07246114499866962432861328125</LatitudeDegrees>
              <LongitudeDegrees>2.179593555629253387451171875</LongitudeDegrees>
            </Position>
            <AltitudeMeters>834.5999755859375</AltitudeMeters>
            <DistanceMeters>54340.628305165</DistanceMeters>
          </Trackpoint>
          <Trackpoint>
            <Time>2021-08-31T06:34:20.000Z</Time>
            <Position>
              <LatitudeDegrees>42.07266717217862606048583984375</LatitudeDegrees>
              <LongitudeDegrees>2.179608978331089019775390625</LongitudeDegrees>
            </Position>
            <AltitudeMeters>837</AltitudeMeters>
            <DistanceMeters>54363.595104143</DistanceMeters>
          </Trackpoint>
          <Trackpoint>
            <Time>2021-08-31T06:34:27.000Z</Time>
            <Position>
              <LatitudeDegrees>42.072900943458080291748046875</LatitudeDegrees>
              <LongitudeDegrees>2.17952775768935680389404296875</LongitudeDegrees>
            </Position>
            <AltitudeMeters>842.5999755859375</AltitudeMeters>
            <DistanceMeters>54390.46599755</DistanceMeters>
          </Trackpoint>
          <Trackpoint>
            <Time>2021-08-31T06:34:35.000Z</Time>
            <Position>
              <LatitudeDegrees>42.07314879633486270904541015625</LatitudeDegrees>
              <LongitudeDegrees>2.17947796918451786041259765625</LongitudeDegrees>
            </Position>
            <AltitudeMeters>843.5999755859375</AltitudeMeters>
            <DistanceMeters>54418.357592801</DistanceMeters>
          </Trackpoint>
          <Trackpoint>
            <Time>2021-08-31T06:34:43.000Z</Time>
            <Position>
              <LatitudeDegrees>42.07336605526506900787353515625</LatitudeDegrees>
              <LongitudeDegrees>2.1794237382709980010986328125</LongitudeDegrees>
            </Position>
            <AltitudeMeters>847.4000244140625</AltitudeMeters>
            <DistanceMeters>54442.95060929</DistanceMeters>
          </Trackpoint>
          <Trackpoint>
            <Time>2021-08-31T06:34:50.000Z</Time>
            <Position>
              <LatitudeDegrees>42.07354878075420856475830078125</LatitudeDegrees>
              <LongitudeDegrees>2.17946112155914306640625</LongitudeDegrees>
            </Position>
            <AltitudeMeters>851</AltitudeMeters>
            <DistanceMeters>54463.521204376</DistanceMeters>
          </Trackpoint>
          <Trackpoint>
            <Time>2021-08-31T06:34:55.000Z</Time>
            <Position>
              <LatitudeDegrees>42.0736655406653881072998046875</LatitudeDegrees>
              <LongitudeDegrees>2.1795491315424442291259765625</LongitudeDegrees>
            </Position>
            <AltitudeMeters>851.79998779296875</AltitudeMeters>
            <DistanceMeters>54478.412530281</DistanceMeters>
          </Trackpoint>
          <Trackpoint>
            <Time>2021-08-31T06:35:01.000Z</Time>
            <Position>
              <LatitudeDegrees>42.0737461745738983154296875</LatitudeDegrees>
              <LongitudeDegrees>2.1797593496739864349365234375</LongitudeDegrees>
            </Position>
            <AltitudeMeters>848.79998779296875</AltitudeMeters>
            <DistanceMeters>54497.961952916</DistanceMeters>
          </Trackpoint>
          <Trackpoint>
            <Time>2021-08-31T06:35:08.000Z</Time>
            <Position>
              <LatitudeDegrees>42.073793448507785797119140625</LatitudeDegrees>
              <LongitudeDegrees>2.1800004132091999053955078125</LongitudeDegrees>
            </Position>
            <AltitudeMeters>846</AltitudeMeters>
            <DistanceMeters>54518.561500296</DistanceMeters>
          </Trackpoint>
          <Trackpoint>
            <Time>2021-08-31T06:35:14.000Z</Time>
            <Position>
              <LatitudeDegrees>42.07386528141796588897705078125</LatitudeDegrees>
              <LongitudeDegrees>2.18018406070768833160400390625</LongitudeDegrees>
            </Position>
            <AltitudeMeters>848.79998779296875</AltitudeMeters>
            <DistanceMeters>54535.711650439</DistanceMeters>
          </Trackpoint>
          <Trackpoint>
            <Time>2021-08-31T06:35:19.000Z</Time>
            <Position>
              <LatitudeDegrees>42.07397106103599071502685546875</LatitudeDegrees>
              <LongitudeDegrees>2.180249691009521484375</LongitudeDegrees>
            </Position>
            <AltitudeMeters>851.79998779296875</AltitudeMeters>
            <DistanceMeters>54548.673656546</DistanceMeters>
          </Trackpoint>
          <Trackpoint>
            <Time>2021-08-31T06:35:24.000Z</Time>
            <Position>
              <LatitudeDegrees>42.07408270798623561859130859375</LatitudeDegrees>
              <LongitudeDegrees>2.18018154613673686981201171875</LongitudeDegrees>
            </Position>
            <AltitudeMeters>854</AltitudeMeters>
            <DistanceMeters>54562.31586588</DistanceMeters>
          </Trackpoint>
          <Trackpoint>
            <Time>2021-08-31T06:35:31.000Z</Time>
            <Position>
              <LatitudeDegrees>42.07419284619390964508056640625</LatitudeDegrees>
              <LongitudeDegrees>2.17997543513774871826171875</LongitudeDegrees>
            </Position>
            <AltitudeMeters>855</AltitudeMeters>
            <DistanceMeters>54583.297626692</DistanceMeters>
          </Trackpoint>
          <Trackpoint>
            <Time>2021-08-31T06:35:39.000Z</Time>
            <Position>
              <LatitudeDegrees>42.07435025833547115325927734375</LatitudeDegrees>
              <LongitudeDegrees>2.17978005297482013702392578125</LongitudeDegrees>
            </Position>
            <AltitudeMeters>859.79998779296875</AltitudeMeters>
            <DistanceMeters>54607.120162541</DistanceMeters>
          </Trackpoint>
          <Trackpoint>
            <Time>2021-08-31T06:35:46.000Z</Time>
            <Position>
              <LatitudeDegrees>42.07451932132244110107421875</LatitudeDegrees>
              <LongitudeDegrees>2.17967846430838108062744140625</LongitudeDegrees>
            </Position>
            <AltitudeMeters>864.4000244140625</AltitudeMeters>
            <DistanceMeters>54627.724093083</DistanceMeters>
          </Trackpoint>
          <Trackpoint>
            <Time>2021-08-31T06:35:47.000Z</Time>
            <Position>
              <LatitudeDegrees>42.0745401084423065185546875</LatitudeDegrees>
              <LongitudeDegrees>2.17965583316981792449951171875</LongitudeDegrees>
            </Position>
            <AltitudeMeters>865</AltitudeMeters>
            <DistanceMeters>54630.698899785</DistanceMeters>
          </Trackpoint>
          <Trackpoint>
            <Time>2021-08-31T06:35:50.000Z</Time>
            <Position>
              <LatitudeDegrees>42.0745701156556606292724609375</LatitudeDegrees>
              <LongitudeDegrees>2.1795523166656494140625</LongitudeDegrees>
            </Position>
            <AltitudeMeters>866.4000244140625</AltitudeMeters>
            <DistanceMeters>54639.880172225</DistanceMeters>
          </Trackpoint>
          <Trackpoint>
            <Time>2021-08-31T06:35:53.000Z</Time>
            <Position>
              <LatitudeDegrees>42.074541114270687103271484375</LatitudeDegrees>
              <LongitudeDegrees>2.17941158451139926910400390625</LongitudeDegrees>
            </Position>
            <AltitudeMeters>866</AltitudeMeters>
            <DistanceMeters>54651.947068373</DistanceMeters>
          </Trackpoint>
          <Trackpoint>
            <Time>2021-08-31T06:35:54.000Z</Time>
            <Position>
              <LatitudeDegrees>42.07452141679823398590087890625</LatitudeDegrees>
              <LongitudeDegrees>2.17936531640589237213134765625</LongitudeDegrees>
            </Position>
            <AltitudeMeters>865.79998779296875</AltitudeMeters>
            <DistanceMeters>54656.353275853</DistanceMeters>
          </Trackpoint>
          <Trackpoint>
            <Time>2021-08-31T06:35:55.000Z</Time>
            <Position>
              <LatitudeDegrees>42.0744997076690196990966796875</LatitudeDegrees>
              <LongitudeDegrees>2.1793211437761783599853515625</LongitudeDegrees>
            </Position>
            <AltitudeMeters>865.5999755859375</AltitudeMeters>
            <DistanceMeters>54660.729666162</DistanceMeters>
          </Trackpoint>
          <Trackpoint>
            <Time>2021-08-31T06:35:59.000Z</Time>
            <Position>
              <LatitudeDegrees>42.074420414865016937255859375</LatitudeDegrees>
              <LongitudeDegrees>2.17914923094213008880615234375</LongitudeDegrees>
            </Position>
            <AltitudeMeters>864.5999755859375</AltitudeMeters>
            <DistanceMeters>54677.45112803</DistanceMeters>
          </Trackpoint>
          <Trackpoint>
            <Time>2021-08-31T06:36:05.000Z</Time>
            <Position>
              <LatitudeDegrees>42.074264176189899444580078125</LatitudeDegrees>
              <LongitudeDegrees>2.17897203750908374786376953125</LongitudeDegrees>
            </Position>
            <AltitudeMeters>865.4000244140625</AltitudeMeters>
            <DistanceMeters>54700.18218551</DistanceMeters>
          </Trackpoint>
          <Trackpoint>
            <Time>2021-08-31T06:36:06.000Z</Time>
            <Position>
              <LatitudeDegrees>42.0742234401404857635498046875</LatitudeDegrees>
              <LongitudeDegrees>2.178953848779201507568359375</LongitudeDegrees>
            </Position>
            <AltitudeMeters>865.20001220703125</AltitudeMeters>
            <DistanceMeters>54704.958164268</DistanceMeters>
          </Trackpoint>
          <Trackpoint>
            <Time>2021-08-31T06:36:08.000Z</Time>
            <Position>
              <LatitudeDegrees>42.0741295628249645233154296875</LatitudeDegrees>
              <LongitudeDegrees>2.1789201535284519195556640625</LongitudeDegrees>
            </Position>
            <AltitudeMeters>864.5999755859375</AltitudeMeters>
            <DistanceMeters>54715.771185575</DistanceMeters>
          </Trackpoint>
          <Trackpoint>
            <Time>2021-08-31T06:36:10.000Z</Time>
            <Position>
              <LatitudeDegrees>42.0740170776844024658203125</LatitudeDegrees>
              <LongitudeDegrees>2.178893499076366424560546875</LongitudeDegrees>
            </Position>
            <AltitudeMeters>864.79998779296875</AltitudeMeters>
            <DistanceMeters>54728.483472861</DistanceMeters>
          </Trackpoint>
          <Trackpoint>
            <Time>2021-08-31T06:36:12.000Z</Time>
            <Position>
              <LatitudeDegrees>42.07388388924300670623779296875</LatitudeDegrees>
              <LongitudeDegrees>2.17886391095817089080810546875</LongitudeDegrees>
            </Position>
            <AltitudeMeters>865.4000244140625</AltitudeMeters>
            <DistanceMeters>54743.507914646</DistanceMeters>
          </Trackpoint>
          <Trackpoint>
            <Time>2021-08-31T06:36:14.000Z</Time>
            <Position>
              <LatitudeDegrees>42.07373678684234619140625</LatitudeDegrees>
              <LongitudeDegrees>2.17883683741092681884765625</LongitudeDegrees>
            </Position>
            <AltitudeMeters>865.20001220703125</AltitudeMeters>
            <DistanceMeters>54760.032729673</DistanceMeters>
          </Trackpoint>
          <Trackpoint>
            <Time>2021-08-31T06:36:16.000Z</Time>
            <Position>
              <LatitudeDegrees>42.0735951326787471771240234375</LatitudeDegrees>
              <LongitudeDegrees>2.1787749789655208587646484375</LongitudeDegrees>
            </Position>
            <AltitudeMeters>865.79998779296875</AltitudeMeters>
            <DistanceMeters>54776.606925143</DistanceMeters>
          </Trackpoint>
          <Trackpoint>
            <Time>2021-08-31T06:36:18.000Z</Time>
            <Position>
              <LatitudeDegrees>42.07347585819661617279052734375</LatitudeDegrees>
              <LongitudeDegrees>2.1786898188292980194091796875</LongitudeDegrees>
            </Position>
            <AltitudeMeters>867.20001220703125</AltitudeMeters>
            <DistanceMeters>54791.631667438</DistanceMeters>
          </Trackpoint>
          <Trackpoint>
            <Time>2021-08-31T06:36:19.000Z</Time>
            <Position>
              <LatitudeDegrees>42.073423303663730621337890625</LatitudeDegrees>
              <LongitudeDegrees>2.17865520156919956207275390625</LongitudeDegrees>
            </Position>
            <AltitudeMeters>867.79998779296875</AltitudeMeters>
            <DistanceMeters>54798.142211104</DistanceMeters>
          </Trackpoint>
          <Trackpoint>
            <Time>2021-08-31T06:36:21.000Z</Time>
            <Position>
              <LatitudeDegrees>42.07333018071949481964111328125</LatitudeDegrees>
              <LongitudeDegrees>2.17862871475517749786376953125</LongitudeDegrees>
            </Position>
            <AltitudeMeters>867.79998779296875</AltitudeMeters>
            <DistanceMeters>54808.735452344</DistanceMeters>
          </Trackpoint>
          <Trackpoint>
            <Time>2021-08-31T06:36:25.000Z</Time>
            <Position>
              <LatitudeDegrees>42.0731894485652446746826171875</LatitudeDegrees>
              <LongitudeDegrees>2.17867917381227016448974609375</LongitudeDegrees>
            </Position>
            <AltitudeMeters>866.4000244140625</AltitudeMeters>
            <DistanceMeters>54824.944681327</DistanceMeters>
          </Trackpoint>
          <Trackpoint>
            <Time>2021-08-31T06:36:30.000Z</Time>
            <Position>
              <LatitudeDegrees>42.07302943803369998931884765625</LatitudeDegrees>
              <LongitudeDegrees>2.17870364896953105926513671875</LongitudeDegrees>
            </Position>
            <AltitudeMeters>867.20001220703125</AltitudeMeters>
            <DistanceMeters>54842.868493133</DistanceMeters>
          </Trackpoint>
          <Trackpoint>
            <Time>2021-08-31T06:36:38.000Z</Time>
            <Position>
              <LatitudeDegrees>42.07280396483838558197021484375</LatitudeDegrees>
              <LongitudeDegrees>2.1786854602396488189697265625</LongitudeDegrees>
            </Position>
            <AltitudeMeters>870</AltitudeMeters>
            <DistanceMeters>54868.008761836</DistanceMeters>
          </Trackpoint>
          <Trackpoint>
            <Time>2021-08-31T06:36:44.000Z</Time>
            <Position>
              <LatitudeDegrees>42.0726288668811321258544921875</LatitudeDegrees>
              <LongitudeDegrees>2.1786988712847232818603515625</LongitudeDegrees>
            </Position>
            <AltitudeMeters>869.4000244140625</AltitudeMeters>
            <DistanceMeters>54887.52883114</DistanceMeters>
          </Trackpoint>
          <Trackpoint>
            <Time>2021-08-31T06:36:45.000Z</Time>
            <Position>
              <LatitudeDegrees>42.0726035535335540771484375</LatitudeDegrees>
              <LongitudeDegrees>2.17868185602128505706787109375</LongitudeDegrees>
            </Position>
            <AltitudeMeters>870.20001220703125</AltitudeMeters>
            <DistanceMeters>54890.677644239</DistanceMeters>
          </Trackpoint>
          <Trackpoint>
            <Time>2021-08-31T06:36:47.000Z</Time>
            <Position>
              <LatitudeDegrees>42.072586454451084136962890625</LatitudeDegrees>
              <LongitudeDegrees>2.17862016521394252777099609375</LongitudeDegrees>
            </Position>
            <AltitudeMeters>872.79998779296875</AltitudeMeters>
            <DistanceMeters>54896.119116527</DistanceMeters>
          </Trackpoint>
          <Trackpoint>
            <Time>2021-08-31T06:36:50.000Z</Time>
            <Position>
              <LatitudeDegrees>42.07264470867812633514404296875</LatitudeDegrees>
              <LongitudeDegrees>2.17854757793247699737548828125</LongitudeDegrees>
            </Position>
            <AltitudeMeters>875.79998779296875</AltitudeMeters>
            <DistanceMeters>54904.950979316</DistanceMeters>
          </Trackpoint>
          <Trackpoint>
            <Time>2021-08-31T06:36:55.000Z</Time>
            <Position>
              <LatitudeDegrees>42.072779238224029541015625</LatitudeDegrees>
              <LongitudeDegrees>2.17855654656887054443359375</LongitudeDegrees>
            </Position>
            <AltitudeMeters>874.5999755859375</AltitudeMeters>
            <DistanceMeters>54919.942930579</DistanceMeters>
          </Trackpoint>
          <Trackpoint>
            <Time>2021-08-31T06:37:00.000Z</Time>
            <Position>
              <LatitudeDegrees>42.07291242666542530059814453125</LatitudeDegrees>
              <LongitudeDegrees>2.17851757071912288665771484375</LongitudeDegrees>
            </Position>
            <AltitudeMeters>874.4000244140625</AltitudeMeters>
            <DistanceMeters>54935.112718584</DistanceMeters>
          </Trackpoint>
          <Trackpoint>
            <Time>2021-08-31T06:37:06.000Z</Time>
            <Position>
              <LatitudeDegrees>42.073047123849391937255859375</LatitudeDegrees>
              <LongitudeDegrees>2.17839871533215045928955078125</LongitudeDegrees>
            </Position>
            <AltitudeMeters>876.5999755859375</AltitudeMeters>
            <DistanceMeters>54953.034263131</DistanceMeters>
          </Trackpoint>
          <Trackpoint>
            <Time>2021-08-31T06:37:12.000Z</Time>
            <Position>
              <LatitudeDegrees>42.07317846827208995819091796875</LatitudeDegrees>
              <LongitudeDegrees>2.17826913110911846160888671875</LongitudeDegrees>
            </Position>
            <AltitudeMeters>879.5999755859375</AltitudeMeters>
            <DistanceMeters>54971.15424049</DistanceMeters>
          </Trackpoint>
          <Trackpoint>
            <Time>2021-08-31T06:37:18.000Z</Time>
            <Position>
              <LatitudeDegrees>42.07329900003969669342041015625</LatitudeDegrees>
              <LongitudeDegrees>2.1781221963465213775634765625</LongitudeDegrees>
            </Position>
            <AltitudeMeters>883.5999755859375</AltitudeMeters>
            <DistanceMeters>54989.247037432</DistanceMeters>
          </Trackpoint>
          <Trackpoint>
            <Time>2021-08-31T06:37:23.000Z</Time>
            <Position>
              <LatitudeDegrees>42.07339036278426647186279296875</LatitudeDegrees>
              <LongitudeDegrees>2.17799269594252109527587890625</LongitudeDegrees>
            </Position>
            <AltitudeMeters>888.4000244140625</AltitudeMeters>
            <DistanceMeters>55004.007717784</DistanceMeters>
          </Trackpoint>
          <Trackpoint>
            <Time>2021-08-31T06:37:27.000Z</Time>
            <Position>
              <LatitudeDegrees>42.0734878443181514739990234375</LatitudeDegrees>
              <LongitudeDegrees>2.17791189439594745635986328125</LongitudeDegrees>
            </Position>
            <AltitudeMeters>891.20001220703125</AltitudeMeters>
            <DistanceMeters>55016.746615058</DistanceMeters>
          </Trackpoint>
          <Trackpoint>
            <Time>2021-08-31T06:37:32.000Z</Time>
            <Position>
              <LatitudeDegrees>42.07361868582665920257568359375</LatitudeDegrees>
              <LongitudeDegrees>2.17789647169411182403564453125</LongitudeDegrees>
            </Position>
            <AltitudeMeters>891.79998779296875</AltitudeMeters>
            <DistanceMeters>55031.365294517</DistanceMeters>
          </Trackpoint>
          <Trackpoint>
            <Time>2021-08-31T06:37:38.000Z</Time>
            <Position>
              <LatitudeDegrees>42.07377978600561618804931640625</LatitudeDegrees>
              <LongitudeDegrees>2.1779200248420238494873046875</LongitudeDegrees>
            </Position>
            <AltitudeMeters>889.79998779296875</AltitudeMeters>
            <DistanceMeters>55049.401104556</DistanceMeters>
          </Trackpoint>
          <Trackpoint>
            <Time>2021-08-31T06:37:46.000Z</Time>
            <Position>
              <LatitudeDegrees>42.073991931974887847900390625</LatitudeDegrees>
              <LongitudeDegrees>2.1779579110443592071533203125</LongitudeDegrees>
            </Position>
            <AltitudeMeters>883.5999755859375</AltitudeMeters>
            <DistanceMeters>55073.219849542</DistanceMeters>
          </Trackpoint>
          <Trackpoint>
            <Time>2021-08-31T06:37:50.000Z</Time>
            <Position>
              <LatitudeDegrees>42.07408882677555084228515625</LatitudeDegrees>
              <LongitudeDegrees>2.17797291465103626251220703125</LongitudeDegrees>
            </Position>
            <AltitudeMeters>880.79998779296875</AltitudeMeters>
            <DistanceMeters>55084.075377977</DistanceMeters>
          </Trackpoint>
          <Trackpoint>
            <Time>2021-08-31T06:37:52.000Z</Time>
            <Position>
              <LatitudeDegrees>42.074128724634647369384765625</LatitudeDegrees>
              <LongitudeDegrees>2.1779331006109714508056640625</LongitudeDegrees>
            </Position>
            <AltitudeMeters>880.5999755859375</AltitudeMeters>
            <DistanceMeters>55089.601653263</DistanceMeters>
          </Trackpoint>
          <Trackpoint>
            <Time>2021-08-31T06:37:54.000Z</Time>
            <Position>
              <LatitudeDegrees>42.074136771261692047119140625</LatitudeDegrees>
              <LongitudeDegrees>2.17786855995655059814453125</LongitudeDegrees>
            </Position>
            <AltitudeMeters>881</AltitudeMeters>
            <DistanceMeters>55095.008998963</DistanceMeters>
          </Trackpoint>
          <Trackpoint>
            <Time>2021-08-31T06:37:59.000Z</Time>
            <Position>
              <LatitudeDegrees>42.0740511082112789154052734375</LatitudeDegrees>
              <LongitudeDegrees>2.17774408869445323944091796875</LongitudeDegrees>
            </Position>
            <AltitudeMeters>883.79998779296875</AltitudeMeters>
            <DistanceMeters>55109.032765749</DistanceMeters>
          </Trackpoint>
          <Trackpoint>
            <Time>2021-08-31T06:38:05.000Z</Time>
            <Position>
              <LatitudeDegrees>42.0739498548209667205810546875</LatitudeDegrees>
              <LongitudeDegrees>2.17760209925472736358642578125</LongitudeDegrees>
            </Position>
            <AltitudeMeters>887.79998779296875</AltitudeMeters>
            <DistanceMeters>55125.299829409</DistanceMeters>
          </Trackpoint>
          <Trackpoint>
            <Time>2021-08-31T06:38:11.000Z</Time>
            <Position>
              <LatitudeDegrees>42.0738593302667140960693359375</LatitudeDegrees>
              <LongitudeDegrees>2.1774509735405445098876953125</LongitudeDegrees>
            </Position>
            <AltitudeMeters>891.4000244140625</AltitudeMeters>
            <DistanceMeters>55141.343592342</DistanceMeters>
          </Trackpoint>
          <Trackpoint>
            <Time>2021-08-31T06:38:15.000Z</Time>
            <Position>
              <LatitudeDegrees>42.0738266408443450927734375</LatitudeDegrees>
              <LongitudeDegrees>2.17733086086809635162353515625</LongitudeDegrees>
            </Position>
            <AltitudeMeters>895</AltitudeMeters>
            <DistanceMeters>55151.912511189</DistanceMeters>
          </Trackpoint>
          <Trackpoint>
            <Time>2021-08-31T06:38:20.000Z</Time>
            <Position>
              <LatitudeDegrees>42.07386410795152187347412109375</LatitudeDegrees>
              <LongitudeDegrees>2.17714461497962474822998046875</LongitudeDegrees>
            </Position>
            <AltitudeMeters>897</AltitudeMeters>
            <DistanceMeters>55167.854924168</DistanceMeters>
          </Trackpoint>
          <Trackpoint>
            <Time>2021-08-31T06:38:27.000Z</Time>
            <Position>
              <LatitudeDegrees>42.07398765720427036285400390625</LatitudeDegrees>
              <LongitudeDegrees>2.17694411985576152801513671875</LongitudeDegrees>
            </Position>
            <AltitudeMeters>893.20001220703125</AltitudeMeters>
            <DistanceMeters>55189.383456482</DistanceMeters>
          </Trackpoint>
          <Trackpoint>
            <Time>2021-08-31T06:38:31.000Z</Time>
            <Position>
              <LatitudeDegrees>42.0740444026887416839599609375</LatitudeDegrees>
              <LongitudeDegrees>2.17680011875927448272705078125</LongitudeDegrees>
            </Position>
            <AltitudeMeters>891.79998779296875</AltitudeMeters>
            <DistanceMeters>55202.853137098</DistanceMeters>
          </Trackpoint>
          <Trackpoint>
            <Time>2021-08-31T06:38:36.000Z</Time>
            <Position>
              <LatitudeDegrees>42.07398145459592342376708984375</LatitudeDegrees>
              <LongitudeDegrees>2.1765826083719730377197265625</LongitudeDegrees>
            </Position>
            <AltitudeMeters>895.79998779296875</AltitudeMeters>
            <DistanceMeters>55222.140985328</DistanceMeters>
          </Trackpoint>
          <Trackpoint>
            <Time>2021-08-31T06:38:40.000Z</Time>
            <Position>
              <LatitudeDegrees>42.07392060197889804840087890625</LatitudeDegrees>
              <LongitudeDegrees>2.17640751041471958160400390625</LongitudeDegrees>
            </Position>
            <AltitudeMeters>898.5999755859375</AltitudeMeters>
            <DistanceMeters>55238.114238282</DistanceMeters>
          </Trackpoint>
          <Trackpoint>
            <Time>2021-08-31T06:38:46.000Z</Time>
            <Position>
              <LatitudeDegrees>42.07382773049175739288330078125</LatitudeDegrees>
              <LongitudeDegrees>2.1761413849890232086181640625</LongitudeDegrees>
            </Position>
            <AltitudeMeters>902</AltitudeMeters>
            <DistanceMeters>55262.409504834</DistanceMeters>
          </Trackpoint>
          <Trackpoint>
            <Time>2021-08-31T06:38:51.000Z</Time>
            <Position>
              <LatitudeDegrees>42.07376838661730289459228515625</LatitudeDegrees>
              <LongitudeDegrees>2.1759415604174137115478515625</LongitudeDegrees>
            </Position>
            <AltitudeMeters>904.4000244140625</AltitudeMeters>
            <DistanceMeters>55280.19067652</DistanceMeters>
          </Trackpoint>
          <Trackpoint>
            <Time>2021-08-31T06:38:56.000Z</Time>
            <Position>
              <LatitudeDegrees>42.07369328476488590240478515625</LatitudeDegrees>
              <LongitudeDegrees>2.17570192180573940277099609375</LongitudeDegrees>
            </Position>
            <AltitudeMeters>907.79998779296875</AltitudeMeters>
            <DistanceMeters>55301.681425455</DistanceMeters>
          </Trackpoint>
          <Trackpoint>
            <Time>2021-08-31T06:39:02.000Z</Time>
            <Position>
              <LatitudeDegrees>42.07363964058458805084228515625</LatitudeDegrees>
              <LongitudeDegrees>2.17545616440474987030029296875</LongitudeDegrees>
            </Position>
            <AltitudeMeters>911.79998779296875</AltitudeMeters>
            <DistanceMeters>55322.845092947</DistanceMeters>
          </Trackpoint>
          <Trackpoint>
            <Time>2021-08-31T06:39:08.000Z</Time>
            <Position>
              <LatitudeDegrees>42.0736333541572093963623046875</LatitudeDegrees>
              <LongitudeDegrees>2.17522381804883480072021484375</LongitudeDegrees>
            </Position>
            <AltitudeMeters>913.79998779296875</AltitudeMeters>
            <DistanceMeters>55342.053656753</DistanceMeters>
          </Trackpoint>
          <Trackpoint>
            <Time>2021-08-31T06:39:13.000Z</Time>
            <Position>
              <LatitudeDegrees>42.073670737445354461669921875</LatitudeDegrees>
              <LongitudeDegrees>2.17504763044416904449462890625</LongitudeDegrees>
            </Position>
            <AltitudeMeters>913.79998779296875</AltitudeMeters>
            <DistanceMeters>55357.192459221</DistanceMeters>
          </Trackpoint>
          <Trackpoint>
            <Time>2021-08-31T06:39:18.000Z</Time>
            <Position>
              <LatitudeDegrees>42.07377157174050807952880859375</LatitudeDegrees>
              <LongitudeDegrees>2.1748763881623744964599609375</LongitudeDegrees>
            </Position>
            <AltitudeMeters>911.4000244140625</AltitudeMeters>
            <DistanceMeters>55375.250785572</DistanceMeters>
          </Trackpoint>
          <Trackpoint>
            <Time>2021-08-31T06:39:24.000Z</Time>
            <Position>
              <LatitudeDegrees>42.07390635274350643157958984375</LatitudeDegrees>
              <LongitudeDegrees>2.17475309036672115325927734375</LongitudeDegrees>
            </Position>
            <AltitudeMeters>907.4000244140625</AltitudeMeters>
            <DistanceMeters>55393.383715382</DistanceMeters>
          </Trackpoint>
          <Trackpoint>
            <Time>2021-08-31T06:39:29.000Z</Time>
            <Position>
              <LatitudeDegrees>42.0739974640309810638427734375</LatitudeDegrees>
              <LongitudeDegrees>2.174703218042850494384765625</LongitudeDegrees>
            </Position>
            <AltitudeMeters>906.5999755859375</AltitudeMeters>
            <DistanceMeters>55404.329538981</DistanceMeters>
          </Trackpoint>
          <Trackpoint>
            <Time>2021-08-31T06:39:33.000Z</Time>
            <Position>
              <LatitudeDegrees>42.07409779541194438934326171875</LatitudeDegrees>
              <LongitudeDegrees>2.1747164614498615264892578125</LongitudeDegrees>
            </Position>
            <AltitudeMeters>903.79998779296875</AltitudeMeters>
            <DistanceMeters>55415.550741498</DistanceMeters>
          </Trackpoint>
          <Trackpoint>
            <Time>2021-08-31T06:39:38.000Z</Time>
            <Position>
              <LatitudeDegrees>42.07422025501728057861328125</LatitudeDegrees>
              <LongitudeDegrees>2.174693159759044647216796875</LongitudeDegrees>
            </Position>
            <AltitudeMeters>901.5999755859375</AltitudeMeters>
            <DistanceMeters>55429.316173714</DistanceMeters>
          </Trackpoint>
          <Trackpoint>
            <Time>2021-08-31T06:39:43.000Z</Time>
            <Position>
              <LatitudeDegrees>42.07432142458856105804443359375</LatitudeDegrees>
              <LongitudeDegrees>2.17455058358609676361083984375</LongitudeDegrees>
            </Position>
            <AltitudeMeters>903.4000244140625</AltitudeMeters>
            <DistanceMeters>55445.612077742</DistanceMeters>
          </Trackpoint>
          <Trackpoint>
            <Time>2021-08-31T06:39:48.000Z</Time>
            <Position>
              <LatitudeDegrees>42.0743880607187747955322265625</LatitudeDegrees>
              <LongitudeDegrees>2.1743630804121494293212890625</LongitudeDegrees>
            </Position>
            <AltitudeMeters>906.79998779296875</AltitudeMeters>
            <DistanceMeters>55462.787219872</DistanceMeters>
          </Trackpoint>
          <Trackpoint>
            <Time>2021-08-31T06:39:54.000Z</Time>
            <Position>
              <LatitudeDegrees>42.07442142069339752197265625</LatitudeDegrees>
              <LongitudeDegrees>2.17410332523286342620849609375</LongitudeDegrees>
            </Position>
            <AltitudeMeters>909.4000244140625</AltitudeMeters>
            <DistanceMeters>55484.565966284</DistanceMeters>
          </Trackpoint>
          <Trackpoint>
            <Time>2021-08-31T06:39:58.000Z</Time>
            <Position>
              <LatitudeDegrees>42.0744792558252811431884765625</LatitudeDegrees>
              <LongitudeDegrees>2.1739288978278636932373046875</LongitudeDegrees>
            </Position>
            <AltitudeMeters>911.20001220703125</AltitudeMeters>
            <DistanceMeters>55500.348985285</DistanceMeters>
          </Trackpoint>
          <Trackpoint>
            <Time>2021-08-31T06:40:02.000Z</Time>
            <Position>
              <LatitudeDegrees>42.07455595023930072784423828125</LatitudeDegrees>
              <LongitudeDegrees>2.173761762678623199462890625</LongitudeDegrees>
            </Position>
            <AltitudeMeters>912.20001220703125</AltitudeMeters>
            <DistanceMeters>55516.582707931</DistanceMeters>
          </Trackpoint>
          <Trackpoint>
            <Time>2021-08-31T06:40:06.000Z</Time>
            <Position>
              <LatitudeDegrees>42.07463809289038181304931640625</LatitudeDegrees>
              <LongitudeDegrees>2.173603512346744537353515625</LongitudeDegrees>
            </Position>
            <AltitudeMeters>912.20001220703125</AltitudeMeters>
            <DistanceMeters>55532.536445256</DistanceMeters>
          </Trackpoint>
          <Trackpoint>
            <Time>2021-08-31T06:40:12.000Z</Time>
            <Position>
              <LatitudeDegrees>42.07476834766566753387451171875</LatitudeDegrees>
              <LongitudeDegrees>2.1733416616916656494140625</LongitudeDegrees>
            </Position>
            <AltitudeMeters>912.4000244140625</AltitudeMeters>
            <DistanceMeters>55558.57827317</DistanceMeters>
          </Trackpoint>
          <Trackpoint>
            <Time>2021-08-31T06:40:13.000Z</Time>
            <Position>
              <LatitudeDegrees>42.07478913478553295135498046875</LatitudeDegrees>
              <LongitudeDegrees>2.1732982434332370758056640625</LongitudeDegrees>
            </Position>
            <AltitudeMeters>912.4000244140625</AltitudeMeters>
            <DistanceMeters>55562.847077952</DistanceMeters>
          </Trackpoint>
          <Trackpoint>
            <Time>2021-08-31T06:40:16.000Z</Time>
            <Position>
              <LatitudeDegrees>42.07485853694379329681396484375</LatitudeDegrees>
              <LongitudeDegrees>2.1731795556843280792236328125</LongitudeDegrees>
            </Position>
            <AltitudeMeters>911</AltitudeMeters>
            <DistanceMeters>55575.329624529</DistanceMeters>
          </Trackpoint>
          <Trackpoint>
            <Time>2021-08-31T06:40:22.000Z</Time>
            <Position>
              <LatitudeDegrees>42.07501527853310108184814453125</LatitudeDegrees>
              <LongitudeDegrees>2.17296154238283634185791015625</LongitudeDegrees>
            </Position>
            <AltitudeMeters>913.5999755859375</AltitudeMeters>
            <DistanceMeters>55600.40479597</DistanceMeters>
          </Trackpoint>
          <Trackpoint>
            <Time>2021-08-31T06:40:28.000Z</Time>
            <Position>
              <LatitudeDegrees>42.07516280002892017364501953125</LatitudeDegrees>
              <LongitudeDegrees>2.17271813191473484039306640625</LongitudeDegrees>
            </Position>
            <AltitudeMeters>918</AltitudeMeters>
            <DistanceMeters>55626.366052596</DistanceMeters>
          </Trackpoint>
          <Trackpoint>
            <Time>2021-08-31T06:40:33.000Z</Time>
            <Position>
              <LatitudeDegrees>42.075288109481334686279296875</LatitudeDegrees>
              <LongitudeDegrees>2.17250774614512920379638671875</LongitudeDegrees>
            </Position>
            <AltitudeMeters>918.79998779296875</AltitudeMeters>
            <DistanceMeters>55648.651387331</DistanceMeters>
          </Trackpoint>
          <Trackpoint>
            <Time>2021-08-31T06:40:39.000Z</Time>
            <Position>
              <LatitudeDegrees>42.07544409669935703277587890625</LatitudeDegrees>
              <LongitudeDegrees>2.17229099012911319732666015625</LongitudeDegrees>
            </Position>
            <AltitudeMeters>920.20001220703125</AltitudeMeters>
            <DistanceMeters>55673.593501445</DistanceMeters>
          </Trackpoint>
          <Trackpoint>
            <Time>2021-08-31T06:40:44.000Z</Time>
            <Position>
              <LatitudeDegrees>42.07560150884091854095458984375</LatitudeDegrees>
              <LongitudeDegrees>2.1721802651882171630859375</LongitudeDegrees>
            </Position>
            <AltitudeMeters>919.79998779296875</AltitudeMeters>
            <DistanceMeters>55693.358144294</DistanceMeters>
          </Trackpoint>
          <Trackpoint>
            <Time>2021-08-31T06:40:48.000Z</Time>
            <Position>
              <LatitudeDegrees>42.07574031315743923187255859375</LatitudeDegrees>
              <LongitudeDegrees>2.1722008846700191497802734375</LongitudeDegrees>
            </Position>
            <AltitudeMeters>916.5999755859375</AltitudeMeters>
            <DistanceMeters>55708.900750415</DistanceMeters>
          </Trackpoint>
          <Trackpoint>
            <Time>2021-08-31T06:40:52.000Z</Time>
            <Position>
              <LatitudeDegrees>42.07589403726160526275634765625</LatitudeDegrees>
              <LongitudeDegrees>2.17223064042627811431884765625</LongitudeDegrees>
            </Position>
            <AltitudeMeters>915.79998779296875</AltitudeMeters>
            <DistanceMeters>55726.186211629</DistanceMeters>
          </Trackpoint>
          <Trackpoint>
            <Time>2021-08-31T06:40:59.000Z</Time>
            <Position>
              <LatitudeDegrees>42.07617633976042270660400390625</LatitudeDegrees>
              <LongitudeDegrees>2.1721703745424747467041015625</LongitudeDegrees>
            </Position>
            <AltitudeMeters>918</AltitudeMeters>
            <DistanceMeters>55757.999021117</DistanceMeters>
          </Trackpoint>
          <Trackpoint>
            <Time>2021-08-31T06:41:05.000Z</Time>
            <Position>
              <LatitudeDegrees>42.0763507671654224395751953125</LatitudeDegrees>
              <LongitudeDegrees>2.1720547042787075042724609375</LongitudeDegrees>
            </Position>
            <AltitudeMeters>917.79998779296875</AltitudeMeters>
            <DistanceMeters>55779.637586776</DistanceMeters>
          </Trackpoint>
          <Trackpoint>
            <Time>2021-08-31T06:41:11.000Z</Time>
            <Position>
              <LatitudeDegrees>42.07642444409430027008056640625</LatitudeDegrees>
              <LongitudeDegrees>2.17181355692446231842041015625</LongitudeDegrees>
            </Position>
            <AltitudeMeters>916.4000244140625</AltitudeMeters>
            <DistanceMeters>55801.181423462</DistanceMeters>
          </Trackpoint>
          <Trackpoint>
            <Time>2021-08-31T06:41:17.000Z</Time>
            <Position>
              <LatitudeDegrees>42.07641740329563617706298828125</LatitudeDegrees>
              <LongitudeDegrees>2.17154122889041900634765625</LongitudeDegrees>
            </Position>
            <AltitudeMeters>917.4000244140625</AltitudeMeters>
            <DistanceMeters>55823.693330316</DistanceMeters>
          </Trackpoint>
          <Trackpoint>
            <Time>2021-08-31T06:41:22.000Z</Time>
            <Position>
              <LatitudeDegrees>42.07643081434071063995361328125</LatitudeDegrees>
              <LongitudeDegrees>2.17136579565703868865966796875</LongitudeDegrees>
            </Position>
            <AltitudeMeters>918.4000244140625</AltitudeMeters>
            <DistanceMeters>55838.263439002</DistanceMeters>
          </Trackpoint>
          <Trackpoint>
            <Time>2021-08-31T06:41:27.000Z</Time>
            <Position>
              <LatitudeDegrees>42.07645143382251262664794921875</LatitudeDegrees>
              <LongitudeDegrees>2.1711813099682331085205078125</LongitudeDegrees>
            </Position>
            <AltitudeMeters>919.20001220703125</AltitudeMeters>
            <DistanceMeters>55853.676526009</DistanceMeters>
          </Trackpoint>
          <Trackpoint>
            <Time>2021-08-31T06:41:33.000Z</Time>
            <Position>
              <LatitudeDegrees>42.076445482671260833740234375</LatitudeDegrees>
              <LongitudeDegrees>2.17094955034554004669189453125</LongitudeDegrees>
            </Position>
            <AltitudeMeters>921</AltitudeMeters>
            <DistanceMeters>55872.834722352</DistanceMeters>
          </Trackpoint>
          <Trackpoint>
            <Time>2021-08-31T06:41:40.000Z</Time>
            <Position>
              <LatitudeDegrees>42.07642008550465106964111328125</LatitudeDegrees>
              <LongitudeDegrees>2.17070513404905796051025390625</LongitudeDegrees>
            </Position>
            <AltitudeMeters>923.20001220703125</AltitudeMeters>
            <DistanceMeters>55893.224098491</DistanceMeters>
          </Trackpoint>
          <Trackpoint>
            <Time>2021-08-31T06:41:46.000Z</Time>
            <Position>
              <LatitudeDegrees>42.07632838748395442962646484375</LatitudeDegrees>
              <LongitudeDegrees>2.1705843508243560791015625</LongitudeDegrees>
            </Position>
            <AltitudeMeters>926</AltitudeMeters>
            <DistanceMeters>55907.497730991</DistanceMeters>
          </Trackpoint>
          <Trackpoint>
            <Time>2021-08-31T06:41:51.000Z</Time>
            <Position>
              <LatitudeDegrees>42.07621875219047069549560546875</LatitudeDegrees>
              <LongitudeDegrees>2.1705077402293682098388671875</LongitudeDegrees>
            </Position>
            <AltitudeMeters>928.79998779296875</AltitudeMeters>
            <DistanceMeters>55921.244126142</DistanceMeters>
          </Trackpoint>
          <Trackpoint>
            <Time>2021-08-31T06:41:58.000Z</Time>
            <Position>
              <LatitudeDegrees>42.0760050974786281585693359375</LatitudeDegrees>
              <LongitudeDegrees>2.170431800186634063720703125</LongitudeDegrees>
            </Position>
            <AltitudeMeters>933.79998779296875</AltitudeMeters>
            <DistanceMeters>55945.837876982</DistanceMeters>
          </Trackpoint>
          <Trackpoint>
            <Time>2021-08-31T06:42:04.000Z</Time>
            <Position>
              <LatitudeDegrees>42.0758156664669513702392578125</LatitudeDegrees>
              <LongitudeDegrees>2.17037673108279705047607421875</LongitudeDegrees>
            </Position>
            <AltitudeMeters>938.20001220703125</AltitudeMeters>
            <DistanceMeters>55967.407057272</DistanceMeters>
          </Trackpoint>
          <Trackpoint>
            <Time>2021-08-31T06:42:10.000Z</Time>
            <Position>
              <LatitudeDegrees>42.0756299234926700592041015625</LatitudeDegrees>
              <LongitudeDegrees>2.17031319625675678253173828125</LongitudeDegrees>
            </Position>
            <AltitudeMeters>938</AltitudeMeters>
            <DistanceMeters>55988.736691854</DistanceMeters>
          </Trackpoint>
          <Trackpoint>
            <Time>2021-08-31T06:42:14.000Z</Time>
            <Position>
              <LatitudeDegrees>42.0755414105951786041259765625</LatitudeDegrees>
              <LongitudeDegrees>2.17020473442971706390380859375</LongitudeDegrees>
            </Position>
            <AltitudeMeters>937.5999755859375</AltitudeMeters>
            <DistanceMeters>56002.054000192</DistanceMeters>
          </Trackpoint>
          <Trackpoint>
            <Time>2021-08-31T06:42:18.000Z</Time>
            <Position>
              <LatitudeDegrees>42.07551903091371059417724609375</LatitudeDegrees>
              <LongitudeDegrees>2.17002502642571926116943359375</LongitudeDegrees>
            </Position>
            <AltitudeMeters>938.4000244140625</AltitudeMeters>
            <DistanceMeters>56017.107863432</DistanceMeters>
          </Trackpoint>
          <Trackpoint>
            <Time>2021-08-31T06:42:24.000Z</Time>
            <Position>
              <LatitudeDegrees>42.0754629559814929962158203125</LatitudeDegrees>
              <LongitudeDegrees>2.169765941798686981201171875</LongitudeDegrees>
            </Position>
            <AltitudeMeters>938.4000244140625</AltitudeMeters>
            <DistanceMeters>56039.403730946</DistanceMeters>
          </Trackpoint>
          <Trackpoint>
            <Time>2021-08-31T06:42:28.000Z</Time>
            <Position>
              <LatitudeDegrees>42.07539816386997699737548828125</LatitudeDegrees>
              <LongitudeDegrees>2.169625125825405120849609375</LongitudeDegrees>
            </Position>
            <AltitudeMeters>938</AltitudeMeters>
            <DistanceMeters>56053.091536689</DistanceMeters>
          </Trackpoint>
          <Trackpoint>
            <Time>2021-08-31T06:42:34.000Z</Time>
            <Position>
              <LatitudeDegrees>42.07527193240821361541748046875</LatitudeDegrees>
              <LongitudeDegrees>2.1694417297840118408203125</LongitudeDegrees>
            </Position>
            <AltitudeMeters>936.79998779296875</AltitudeMeters>
            <DistanceMeters>56073.75454892</DistanceMeters>
          </Trackpoint>
          <Trackpoint>
            <Time>2021-08-31T06:42:40.000Z</Time>
            <Position>
              <LatitudeDegrees>42.0751169510185718536376953125</LatitudeDegrees>
              <LongitudeDegrees>2.169274426996707916259765625</LongitudeDegrees>
            </Position>
            <AltitudeMeters>935.4000244140625</AltitudeMeters>
            <DistanceMeters>56095.858628773</DistanceMeters>
          </Trackpoint>
          <Trackpoint>
            <Time>2021-08-31T06:42:45.000Z</Time>
            <Position>
              <LatitudeDegrees>42.07497957162559032440185546875</LatitudeDegrees>
              <LongitudeDegrees>2.16916554607450962066650390625</LongitudeDegrees>
            </Position>
            <AltitudeMeters>933.5999755859375</AltitudeMeters>
            <DistanceMeters>56113.598871844</DistanceMeters>
          </Trackpoint>
          <Trackpoint>
            <Time>2021-08-31T06:42:46.000Z</Time>
            <Position>
              <LatitudeDegrees>42.07496230490505695343017578125</LatitudeDegrees>
              <LongitudeDegrees>2.16914559714496135711669921875</LongitudeDegrees>
            </Position>
            <AltitudeMeters>933.4000244140625</AltitudeMeters>
            <DistanceMeters>56116.13271958</DistanceMeters>
          </Trackpoint>
          <Trackpoint>
            <Time>2021-08-31T06:42:49.000Z</Time>
            <Position>
              <LatitudeDegrees>42.0749288611114025115966796875</LatitudeDegrees>
              <LongitudeDegrees>2.16906496323645114898681640625</LongitudeDegrees>
            </Position>
            <AltitudeMeters>932.5999755859375</AltitudeMeters>
            <DistanceMeters>56123.763903171</DistanceMeters>
          </Trackpoint>
          <Trackpoint>
            <Time>2021-08-31T06:42:52.000Z</Time>
            <Position>
              <LatitudeDegrees>42.07497437484562397003173828125</LatitudeDegrees>
              <LongitudeDegrees>2.16898416168987751007080078125</LongitudeDegrees>
            </Position>
            <AltitudeMeters>933</AltitudeMeters>
            <DistanceMeters>56132.143513808</DistanceMeters>
          </Trackpoint>
          <Trackpoint>
            <Time>2021-08-31T06:42:56.000Z</Time>
            <Position>
              <LatitudeDegrees>42.0750968344509601593017578125</LatitudeDegrees>
              <LongitudeDegrees>2.16887905262410640716552734375</LongitudeDegrees>
            </Position>
            <AltitudeMeters>935</AltitudeMeters>
            <DistanceMeters>56148.304202868</DistanceMeters>
          </Trackpoint>
          <Trackpoint>
            <Time>2021-08-31T06:42:59.000Z</Time>
            <Position>
              <LatitudeDegrees>42.075172774493694305419921875</LatitudeDegrees>
              <LongitudeDegrees>2.1687525697052478790283203125</LongitudeDegrees>
            </Position>
            <AltitudeMeters>935.79998779296875</AltitudeMeters>
            <DistanceMeters>56161.744353507</DistanceMeters>
          </Trackpoint>
          <Trackpoint>
            <Time>2021-08-31T06:43:00.000Z</Time>
            <Position>
              <LatitudeDegrees>42.07520772702991962432861328125</LatitudeDegrees>
              <LongitudeDegrees>2.16870009899139404296875</LongitudeDegrees>
            </Position>
            <AltitudeMeters>936.20001220703125</AltitudeMeters>
            <DistanceMeters>56167.568956257</DistanceMeters>
          </Trackpoint>
          <Trackpoint>
            <Time>2021-08-31T06:43:01.000Z</Time>
            <Position>
              <LatitudeDegrees>42.07524796016514301300048828125</LatitudeDegrees>
              <LongitudeDegrees>2.16865609399974346160888671875</LongitudeDegrees>
            </Position>
            <AltitudeMeters>936.79998779296875</AltitudeMeters>
            <DistanceMeters>56173.336694256</DistanceMeters>
          </Trackpoint>
          <Trackpoint>
            <Time>2021-08-31T06:43:03.000Z</Time>
            <Position>
              <LatitudeDegrees>42.07534007728099822998046875</LatitudeDegrees>
              <LongitudeDegrees>2.1685996837913990020751953125</LongitudeDegrees>
            </Position>
            <AltitudeMeters>938</AltitudeMeters>
            <DistanceMeters>56184.598863395</DistanceMeters>
          </Trackpoint>
          <Trackpoint>
            <Time>2021-08-31T06:43:04.000Z</Time>
            <Position>
              <LatitudeDegrees>42.0753838308155536651611328125</LatitudeDegrees>
              <LongitudeDegrees>2.16857462190091609954833984375</LongitudeDegrees>
            </Position>
            <AltitudeMeters>938.20001220703125</AltitudeMeters>
            <DistanceMeters>56189.891433388</DistanceMeters>
          </Trackpoint>
          <Trackpoint>
            <Time>2021-08-31T06:43:06.000Z</Time>
            <Position>
              <LatitudeDegrees>42.07547008059918880462646484375</LatitudeDegrees>
              <LongitudeDegrees>2.168525755405426025390625</LongitudeDegrees>
            </Position>
            <AltitudeMeters>939</AltitudeMeters>
            <DistanceMeters>56200.305424846</DistanceMeters>
          </Trackpoint>
          <Trackpoint>
            <Time>2021-08-31T06:43:07.000Z</Time>
            <Position>
              <LatitudeDegrees>42.07551307976245880126953125</LatitudeDegrees>
              <LongitudeDegrees>2.16849884949624538421630859375</LongitudeDegrees>
            </Position>
            <AltitudeMeters>939.20001220703125</AltitudeMeters>
            <DistanceMeters>56205.582616879</DistanceMeters>
          </Trackpoint>
          <Trackpoint>
            <Time>2021-08-31T06:43:10.000Z</Time>
            <Position>
              <LatitudeDegrees>42.075569070875644683837890625</LatitudeDegrees>
              <LongitudeDegrees>2.1683566085994243621826171875</LongitudeDegrees>
            </Position>
            <AltitudeMeters>938</AltitudeMeters>
            <DistanceMeters>56218.884320449</DistanceMeters>
          </Trackpoint>
          <Trackpoint>
            <Time>2021-08-31T06:43:11.000Z</Time>
            <Position>
              <LatitudeDegrees>42.07560033537447452545166015625</LatitudeDegrees>
              <LongitudeDegrees>2.16835015453398227691650390625</LongitudeDegrees>
            </Position>
            <AltitudeMeters>938.4000244140625</AltitudeMeters>
            <DistanceMeters>56222.404159206</DistanceMeters>
          </Trackpoint>
          <Trackpoint>
            <Time>2021-08-31T06:43:15.000Z</Time>
            <Position>
              <LatitudeDegrees>42.0757720805704593658447265625</LatitudeDegrees>
              <LongitudeDegrees>2.1683904714882373809814453125</LongitudeDegrees>
            </Position>
            <AltitudeMeters>941.79998779296875</AltitudeMeters>
            <DistanceMeters>56241.807767305</DistanceMeters>
          </Trackpoint>
          <Trackpoint>
            <Time>2021-08-31T06:43:17.000Z</Time>
            <Position>
              <LatitudeDegrees>42.07585816271603107452392578125</LatitudeDegrees>
              <LongitudeDegrees>2.1684001944959163665771484375</LongitudeDegrees>
            </Position>
            <AltitudeMeters>942.4000244140625</AltitudeMeters>
            <DistanceMeters>56251.421916383</DistanceMeters>
          </Trackpoint>
          <Trackpoint>
            <Time>2021-08-31T06:43:19.000Z</Time>
            <Position>
              <LatitudeDegrees>42.07595296204090118408203125</LatitudeDegrees>
              <LongitudeDegrees>2.1683653257787227630615234375</LongitudeDegrees>
            </Position>
            <AltitudeMeters>942.79998779296875</AltitudeMeters>
            <DistanceMeters>56262.35907427</DistanceMeters>
          </Trackpoint>
          <Trackpoint>
            <Time>2021-08-31T06:43:21.000Z</Time>
            <Position>
              <LatitudeDegrees>42.075996212661266326904296875</LatitudeDegrees>
              <LongitudeDegrees>2.168212272226810455322265625</LongitudeDegrees>
            </Position>
            <AltitudeMeters>942</AltitudeMeters>
            <DistanceMeters>56275.888956371</DistanceMeters>
          </Trackpoint>
          <Trackpoint>
            <Time>2021-08-31T06:43:22.000Z</Time>
            <Position>
              <LatitudeDegrees>42.0759950391948223114013671875</LatitudeDegrees>
              <LongitudeDegrees>2.168119736015796661376953125</LongitudeDegrees>
            </Position>
            <AltitudeMeters>941.5999755859375</AltitudeMeters>
            <DistanceMeters>56283.534917063</DistanceMeters>
          </Trackpoint>
          <Trackpoint>
            <Time>2021-08-31T06:43:24.000Z</Time>
            <Position>
              <LatitudeDegrees>42.07595623098313808441162109375</LatitudeDegrees>
              <LongitudeDegrees>2.16795444488525390625</LongitudeDegrees>
            </Position>
            <AltitudeMeters>940.5999755859375</AltitudeMeters>
            <DistanceMeters>56297.85718003</DistanceMeters>
          </Trackpoint>
          <Trackpoint>
            <Time>2021-08-31T06:43:28.000Z</Time>
            <Position>
              <LatitudeDegrees>42.07585112191736698150634765625</LatitudeDegrees>
              <LongitudeDegrees>2.167736850678920745849609375</LongitudeDegrees>
            </Position>
            <AltitudeMeters>938.79998779296875</AltitudeMeters>
            <DistanceMeters>56319.305027339</DistanceMeters>
          </Trackpoint>
          <Trackpoint>
            <Time>2021-08-31T06:43:33.000Z</Time>
            <Position>
              <LatitudeDegrees>42.0757162570953369140625</LatitudeDegrees>
              <LongitudeDegrees>2.1675935201346874237060546875</LongitudeDegrees>
            </Position>
            <AltitudeMeters>937.20001220703125</AltitudeMeters>
            <DistanceMeters>56338.423826056</DistanceMeters>
          </Trackpoint>
          <Trackpoint>
            <Time>2021-08-31T06:43:35.000Z</Time>
            <Position>
              <LatitudeDegrees>42.07571885548532009124755859375</LatitudeDegrees>
              <LongitudeDegrees>2.16755471192300319671630859375</LongitudeDegrees>
            </Position>
            <AltitudeMeters>937.20001220703125</AltitudeMeters>
            <DistanceMeters>56341.640729475</DistanceMeters>
          </Trackpoint>
          <Trackpoint>
            <Time>2021-08-31T06:43:37.000Z</Time>
            <Position>
              <LatitudeDegrees>42.0757298357784748077392578125</LatitudeDegrees>
              <LongitudeDegrees>2.16742579825222492218017578125</LongitudeDegrees>
            </Position>
            <AltitudeMeters>937</AltitudeMeters>
            <DistanceMeters>56352.360652647</DistanceMeters>
          </Trackpoint>
          <Trackpoint>
            <Time>2021-08-31T06:43:39.000Z</Time>
            <Position>
              <LatitudeDegrees>42.07572086714208126068115234375</LatitudeDegrees>
              <LongitudeDegrees>2.16728598810732364654541015625</LongitudeDegrees>
            </Position>
            <AltitudeMeters>938</AltitudeMeters>
            <DistanceMeters>56363.9539118</DistanceMeters>
          </Trackpoint>
          <Trackpoint>
            <Time>2021-08-31T06:43:41.000Z</Time>
            <Position>
              <LatitudeDegrees>42.0756486989557743072509765625</LatitudeDegrees>
              <LongitudeDegrees>2.16715757735073566436767578125</LongitudeDegrees>
            </Position>
            <AltitudeMeters>939</AltitudeMeters>
            <DistanceMeters>56377.260366584</DistanceMeters>
          </Trackpoint>
          <Trackpoint>
            <Time>2021-08-31T06:43:42.000Z</Time>
            <Position>
              <LatitudeDegrees>42.07560427486896514892578125</LatitudeDegrees>
              <LongitudeDegrees>2.16711432673037052154541015625</LongitudeDegrees>
            </Position>
            <AltitudeMeters>939.4000244140625</AltitudeMeters>
            <DistanceMeters>56383.360607975</DistanceMeters>
          </Trackpoint>
          <Trackpoint>
            <Time>2021-08-31T06:43:48.000Z</Time>
            <Position>
              <LatitudeDegrees>42.0753689110279083251953125</LatitudeDegrees>
              <LongitudeDegrees>2.16697200201451778411865234375</LongitudeDegrees>
            </Position>
            <AltitudeMeters>940.79998779296875</AltitudeMeters>
            <DistanceMeters>56412.075033269</DistanceMeters>
          </Trackpoint>
          <Trackpoint>
            <Time>2021-08-31T06:43:53.000Z</Time>
            <Position>
              <LatitudeDegrees>42.07519515417516231536865234375</LatitudeDegrees>
              <LongitudeDegrees>2.16702246107161045074462890625</LongitudeDegrees>
            </Position>
            <AltitudeMeters>939.5999755859375</AltitudeMeters>
            <DistanceMeters>56431.858855786</DistanceMeters>
          </Trackpoint>
          <Trackpoint>
            <Time>2021-08-31T06:43:59.000Z</Time>
            <Position>
              <LatitudeDegrees>42.074987031519412994384765625</LatitudeDegrees>
              <LongitudeDegrees>2.1671918593347072601318359375</LongitudeDegrees>
            </Position>
            <AltitudeMeters>936</AltitudeMeters>
            <DistanceMeters>56458.922624195</DistanceMeters>
          </Trackpoint>
          <Trackpoint>
            <Time>2021-08-31T06:44:05.000Z</Time>
            <Position>
              <LatitudeDegrees>42.07477153278887271881103515625</LatitudeDegrees>
              <LongitudeDegrees>2.167282216250896453857421875</LongitudeDegrees>
            </Position>
            <AltitudeMeters>932</AltitudeMeters>
            <DistanceMeters>56484.042770331</DistanceMeters>
          </Trackpoint>
          <Trackpoint>
            <Time>2021-08-31T06:44:12.000Z</Time>
            <Position>
              <LatitudeDegrees>42.0745439641177654266357421875</LatitudeDegrees>
              <LongitudeDegrees>2.1673625148832798004150390625</LongitudeDegrees>
            </Position>
            <AltitudeMeters>933</AltitudeMeters>
            <DistanceMeters>56510.226036049</DistanceMeters>
          </Trackpoint>
          <Trackpoint>
            <Time>2021-08-31T06:44:14.000Z</Time>
            <Position>
              <LatitudeDegrees>42.07447984255850315093994140625</LatitudeDegrees>
              <LongitudeDegrees>2.1673608385026454925537109375</LongitudeDegrees>
            </Position>
            <AltitudeMeters>933.4000244140625</AltitudeMeters>
            <DistanceMeters>56517.363801196</DistanceMeters>
          </Trackpoint>
          <Trackpoint>
            <Time>2021-08-31T06:44:16.000Z</Time>
            <Position>
              <LatitudeDegrees>42.07444044761359691619873046875</LatitudeDegrees>
              <LongitudeDegrees>2.167308032512664794921875</LongitudeDegrees>
            </Position>
            <AltitudeMeters>933.20001220703125</AltitudeMeters>
            <DistanceMeters>56523.548573125</DistanceMeters>
          </Trackpoint>
          <Trackpoint>
            <Time>2021-08-31T06:44:19.000Z</Time>
            <Position>
              <LatitudeDegrees>42.07446408458054065704345703125</LatitudeDegrees>
              <LongitudeDegrees>2.16719127260148525238037109375</LongitudeDegrees>
            </Position>
            <AltitudeMeters>932.79998779296875</AltitudeMeters>
            <DistanceMeters>56533.5476234</DistanceMeters>
          </Trackpoint>
          <Trackpoint>
            <Time>2021-08-31T06:44:24.000Z</Time>
            <Position>
              <LatitudeDegrees>42.07456785254180431365966796875</LatitudeDegrees>
              <LongitudeDegrees>2.1669792942702770233154296875</LongitudeDegrees>
            </Position>
            <AltitudeMeters>933.4000244140625</AltitudeMeters>
            <DistanceMeters>56554.526156133</DistanceMeters>
          </Trackpoint>
          <Trackpoint>
            <Time>2021-08-31T06:44:27.000Z</Time>
            <Position>
              <LatitudeDegrees>42.07464463077485561370849609375</LatitudeDegrees>
              <LongitudeDegrees>2.1668592654168605804443359375</LongitudeDegrees>
            </Position>
            <AltitudeMeters>936.4000244140625</AltitudeMeters>
            <DistanceMeters>56567.6164094</DistanceMeters>
          </Trackpoint>
          <Trackpoint>
            <Time>2021-08-31T06:44:29.000Z</Time>
            <Position>
              <LatitudeDegrees>42.07468821667134761810302734375</LatitudeDegrees>
              <LongitudeDegrees>2.166759185492992401123046875</LongitudeDegrees>
            </Position>
            <AltitudeMeters>938.4000244140625</AltitudeMeters>
            <DistanceMeters>56577.203281573</DistanceMeters>
          </Trackpoint>
          <Trackpoint>
            <Time>2021-08-31T06:44:31.000Z</Time>
            <Position>
              <LatitudeDegrees>42.0747303776443004608154296875</LatitudeDegrees>
              <LongitudeDegrees>2.16665734536945819854736328125</LongitudeDegrees>
            </Position>
            <AltitudeMeters>940.4000244140625</AltitudeMeters>
            <DistanceMeters>56586.83713468</DistanceMeters>
          </Trackpoint>
          <Trackpoint>
            <Time>2021-08-31T06:44:33.000Z</Time>
            <Position>
              <LatitudeDegrees>42.074761725962162017822265625</LatitudeDegrees>
              <LongitudeDegrees>2.16653949581086635589599609375</LongitudeDegrees>
            </Position>
            <AltitudeMeters>941.5999755859375</AltitudeMeters>
            <DistanceMeters>56597.179778711</DistanceMeters>
          </Trackpoint>
          <Trackpoint>
            <Time>2021-08-31T06:44:34.000Z</Time>
            <Position>
              <LatitudeDegrees>42.0747707784175872802734375</LatitudeDegrees>
              <LongitudeDegrees>2.16647679917514324188232421875</LongitudeDegrees>
            </Position>
            <AltitudeMeters>941.79998779296875</AltitudeMeters>
            <DistanceMeters>56602.456115099</DistanceMeters>
          </Trackpoint>
          <Trackpoint>
            <Time>2021-08-31T06:44:37.000Z</Time>
            <Position>
              <LatitudeDegrees>42.07477547228336334228515625</LatitudeDegrees>
              <LongitudeDegrees>2.16629683971405029296875</LongitudeDegrees>
            </Position>
            <AltitudeMeters>943.20001220703125</AltitudeMeters>
            <DistanceMeters>56617.332880324</DistanceMeters>
          </Trackpoint>
          <Trackpoint>
            <Time>2021-08-31T06:44:39.000Z</Time>
            <Position>
              <LatitudeDegrees>42.07474152557551860809326171875</LatitudeDegrees>
              <LongitudeDegrees>2.1661642380058765411376953125</LongitudeDegrees>
            </Position>
            <AltitudeMeters>943.4000244140625</AltitudeMeters>
            <DistanceMeters>56628.920685842</DistanceMeters>
          </Trackpoint>
          <Trackpoint>
            <Time>2021-08-31T06:44:41.000Z</Time>
            <Position>
              <LatitudeDegrees>42.07466793246567249298095703125</LatitudeDegrees>
              <LongitudeDegrees>2.1660465560853481292724609375</LongitudeDegrees>
            </Position>
            <AltitudeMeters>942.79998779296875</AltitudeMeters>
            <DistanceMeters>56641.63368345</DistanceMeters>
          </Trackpoint>
          <Trackpoint>
            <Time>2021-08-31T06:44:43.000Z</Time>
            <Position>
              <LatitudeDegrees>42.07457757554948329925537109375</LatitudeDegrees>
              <LongitudeDegrees>2.1659463085234165191650390625</LongitudeDegrees>
            </Position>
            <AltitudeMeters>941.5999755859375</AltitudeMeters>
            <DistanceMeters>56654.662397009</DistanceMeters>
          </Trackpoint>
          <Trackpoint>
            <Time>2021-08-31T06:44:48.000Z</Time>
            <Position>
              <LatitudeDegrees>42.074368111789226531982421875</LatitudeDegrees>
              <LongitudeDegrees>2.1657417900860309600830078125</LongitudeDegrees>
            </Position>
            <AltitudeMeters>938.5999755859375</AltitudeMeters>
            <DistanceMeters>56683.455177842</DistanceMeters>
          </Trackpoint>
          <Trackpoint>
            <Time>2021-08-31T06:44:49.000Z</Time>
            <Position>
              <LatitudeDegrees>42.0743282139301300048828125</LatitudeDegrees>
              <LongitudeDegrees>2.16570071876049041748046875</LongitudeDegrees>
            </Position>
            <AltitudeMeters>938</AltitudeMeters>
            <DistanceMeters>56689.043201137</DistanceMeters>
          </Trackpoint>
          <Trackpoint>
            <Time>2021-08-31T06:44:51.000Z</Time>
            <Position>
              <LatitudeDegrees>42.07425168715417385101318359375</LatitudeDegrees>
              <LongitudeDegrees>2.16563743539154529571533203125</LongitudeDegrees>
            </Position>
            <AltitudeMeters>936.5999755859375</AltitudeMeters>
            <DistanceMeters>56699.037734924</DistanceMeters>
          </Trackpoint>
          <Trackpoint>
            <Time>2021-08-31T06:44:53.000Z</Time>
            <Position>
              <LatitudeDegrees>42.07417792640626430511474609375</LatitudeDegrees>
              <LongitudeDegrees>2.16558110900223255157470703125</LongitudeDegrees>
            </Position>
            <AltitudeMeters>935.4000244140625</AltitudeMeters>
            <DistanceMeters>56708.474610142</DistanceMeters>
          </Trackpoint>
          <Trackpoint>
            <Time>2021-08-31T06:44:55.000Z</Time>
            <Position>
              <LatitudeDegrees>42.07411590032279491424560546875</LatitudeDegrees>
              <LongitudeDegrees>2.1654728986322879791259765625</LongitudeDegrees>
            </Position>
            <AltitudeMeters>934.5999755859375</AltitudeMeters>
            <DistanceMeters>56719.770005225</DistanceMeters>
          </Trackpoint>
          <Trackpoint>
            <Time>2021-08-31T06:44:56.000Z</Time>
            <Position>
              <LatitudeDegrees>42.0740933530032634735107421875</LatitudeDegrees>
              <LongitudeDegrees>2.165397293865680694580078125</LongitudeDegrees>
            </Position>
            <AltitudeMeters>934.4000244140625</AltitudeMeters>
            <DistanceMeters>56726.501492698</DistanceMeters>
          </Trackpoint>
          <Trackpoint>
            <Time>2021-08-31T06:44:57.000Z</Time>
            <Position>
              <LatitudeDegrees>42.07408321090042591094970703125</LatitudeDegrees>
              <LongitudeDegrees>2.1653129719197750091552734375</LongitudeDegrees>
            </Position>
            <AltitudeMeters>934.5999755859375</AltitudeMeters>
            <DistanceMeters>56733.55782613</DistanceMeters>
          </Trackpoint>
          <Trackpoint>
            <Time>2021-08-31T06:44:59.000Z</Time>
            <Position>
              <LatitudeDegrees>42.074090503156185150146484375</LatitudeDegrees>
              <LongitudeDegrees>2.165129743516445159912109375</LongitudeDegrees>
            </Position>
            <AltitudeMeters>935.20001220703125</AltitudeMeters>
            <DistanceMeters>56748.716895539</DistanceMeters>
          </Trackpoint>
          <Trackpoint>
            <Time>2021-08-31T06:45:05.000Z</Time>
            <Position>
              <LatitudeDegrees>42.07412361167371273040771484375</LatitudeDegrees>
              <LongitudeDegrees>2.16455969028174877166748046875</LongitudeDegrees>
            </Position>
            <AltitudeMeters>936</AltitudeMeters>
            <DistanceMeters>56795.957121109</DistanceMeters>
          </Trackpoint>
          <Trackpoint>
            <Time>2021-08-31T06:45:07.000Z</Time>
            <Position>
              <LatitudeDegrees>42.07412981428205966949462890625</LatitudeDegrees>
              <LongitudeDegrees>2.16434377245604991912841796875</LongitudeDegrees>
            </Position>
            <AltitudeMeters>935.79998779296875</AltitudeMeters>
            <DistanceMeters>56813.808996581</DistanceMeters>
          </Trackpoint>
          <Trackpoint>
            <Time>2021-08-31T06:45:09.000Z</Time>
            <Position>
              <LatitudeDegrees>42.074125371873378753662109375</LatitudeDegrees>
              <LongitudeDegrees>2.16410874389111995697021484375</LongitudeDegrees>
            </Position>
            <AltitudeMeters>935.4000244140625</AltitudeMeters>
            <DistanceMeters>56833.232605768</DistanceMeters>
          </Trackpoint>
          <Trackpoint>
            <Time>2021-08-31T06:45:10.000Z</Time>
            <Position>
              <LatitudeDegrees>42.07412864081561565399169921875</LatitudeDegrees>
              <LongitudeDegrees>2.16399039141833782196044921875</LongitudeDegrees>
            </Position>
            <AltitudeMeters>935</AltitudeMeters>
            <DistanceMeters>56843.017589188</DistanceMeters>
          </Trackpoint>
          <Trackpoint>
            <Time>2021-08-31T06:45:12.000Z</Time>
            <Position>
              <LatitudeDegrees>42.07415428943932056427001953125</LatitudeDegrees>
              <LongitudeDegrees>2.16378017328679561614990234375</LongitudeDegrees>
            </Position>
            <AltitudeMeters>934.5999755859375</AltitudeMeters>
            <DistanceMeters>56860.618322198</DistanceMeters>
          </Trackpoint>
          <Trackpoint>
            <Time>2021-08-31T06:45:14.000Z</Time>
            <Position>
              <LatitudeDegrees>42.07419209182262420654296875</LatitudeDegrees>
              <LongitudeDegrees>2.1635837852954864501953125</LongitudeDegrees>
            </Position>
            <AltitudeMeters>934.20001220703125</AltitudeMeters>
            <DistanceMeters>56877.380237318</DistanceMeters>
          </Trackpoint>
          <Trackpoint>
            <Time>2021-08-31T06:45:16.000Z</Time>
            <Position>
              <LatitudeDegrees>42.07424464635550975799560546875</LatitudeDegrees>
              <LongitudeDegrees>2.16340885497629642486572265625</LongitudeDegrees>
            </Position>
            <AltitudeMeters>934.20001220703125</AltitudeMeters>
            <DistanceMeters>56892.971570098</DistanceMeters>
          </Trackpoint>
          <Trackpoint>
            <Time>2021-08-31T06:45:21.000Z</Time>
            <Position>
              <LatitudeDegrees>42.0743565447628498077392578125</LatitudeDegrees>
              <LongitudeDegrees>2.16293293051421642303466796875</LongitudeDegrees>
            </Position>
            <AltitudeMeters>932.79998779296875</AltitudeMeters>
            <DistanceMeters>56934.216338868</DistanceMeters>
          </Trackpoint>
          <Trackpoint>
            <Time>2021-08-31T06:45:23.000Z</Time>
            <Position>
              <LatitudeDegrees>42.07444019615650177001953125</LatitudeDegrees>
              <LongitudeDegrees>2.16277400963008403778076171875</LongitudeDegrees>
            </Position>
            <AltitudeMeters>932.5999755859375</AltitudeMeters>
            <DistanceMeters>56950.312080329</DistanceMeters>
          </Trackpoint>
          <Trackpoint>
            <Time>2021-08-31T06:45:24.000Z</Time>
            <Position>
              <LatitudeDegrees>42.07448990084230899810791015625</LatitudeDegrees>
              <LongitudeDegrees>2.1626998297870159149169921875</LongitudeDegrees>
            </Position>
            <AltitudeMeters>932.20001220703125</AltitudeMeters>
            <DistanceMeters>56958.568474644</DistanceMeters>
          </Trackpoint>
          <Trackpoint>
            <Time>2021-08-31T06:45:25.000Z</Time>
            <Position>
              <LatitudeDegrees>42.07454807125031948089599609375</LatitudeDegrees>
              <LongitudeDegrees>2.1626535616815090179443359375</LongitudeDegrees>
            </Position>
            <AltitudeMeters>932.20001220703125</AltitudeMeters>
            <DistanceMeters>56966.087003658</DistanceMeters>
          </Trackpoint>
          <Trackpoint>
            <Time>2021-08-31T06:45:26.000Z</Time>
            <Position>
              <LatitudeDegrees>42.074604816734790802001953125</LatitudeDegrees>
              <LongitudeDegrees>2.16261207126080989837646484375</LongitudeDegrees>
            </Position>
            <AltitudeMeters>932.20001220703125</AltitudeMeters>
            <DistanceMeters>56973.27331058</DistanceMeters>
          </Trackpoint>
          <Trackpoint>
            <Time>2021-08-31T06:45:28.000Z</Time>
            <Position>
              <LatitudeDegrees>42.074682600796222686767578125</LatitudeDegrees>
              <LongitudeDegrees>2.16243370436131954193115234375</LongitudeDegrees>
            </Position>
            <AltitudeMeters>931.20001220703125</AltitudeMeters>
            <DistanceMeters>56990.364651747</DistanceMeters>
          </Trackpoint>
          <Trackpoint>
            <Time>2021-08-31T06:45:30.000Z</Time>
            <Position>
              <LatitudeDegrees>42.074740268290042877197265625</LatitudeDegrees>
              <LongitudeDegrees>2.16226422227919101715087890625</LongitudeDegrees>
            </Position>
            <AltitudeMeters>930</AltitudeMeters>
            <DistanceMeters>57005.767775732</DistanceMeters>
          </Trackpoint>
          <Trackpoint>
            <Time>2021-08-31T06:45:33.000Z</Time>
            <Position>
              <LatitudeDegrees>42.07481796853244304656982421875</LatitudeDegrees>
              <LongitudeDegrees>2.16194906271994113922119140625</LongitudeDegrees>
            </Position>
            <AltitudeMeters>928.4000244140625</AltitudeMeters>
            <DistanceMeters>57033.203684906</DistanceMeters>
          </Trackpoint>
          <Trackpoint>
            <Time>2021-08-31T06:45:35.000Z</Time>
            <Position>
              <LatitudeDegrees>42.07488007843494415283203125</LatitudeDegrees>
              <LongitudeDegrees>2.16172124259173870086669921875</LongitudeDegrees>
            </Position>
            <AltitudeMeters>927.4000244140625</AltitudeMeters>
            <DistanceMeters>57053.254546819</DistanceMeters>
          </Trackpoint>
          <Trackpoint>
            <Time>2021-08-31T06:45:38.000Z</Time>
            <Position>
              <LatitudeDegrees>42.0749724470078945159912109375</LatitudeDegrees>
              <LongitudeDegrees>2.16144916601479053497314453125</LongitudeDegrees>
            </Position>
            <AltitudeMeters>926.4000244140625</AltitudeMeters>
            <DistanceMeters>57077.972089416</DistanceMeters>
          </Trackpoint>
          <Trackpoint>
            <Time>2021-08-31T06:45:39.000Z</Time>
            <Position>
              <LatitudeDegrees>42.07497521303594112396240234375</LatitudeDegrees>
              <LongitudeDegrees>2.161364257335662841796875</LongitudeDegrees>
            </Position>
            <AltitudeMeters>925.79998779296875</AltitudeMeters>
            <DistanceMeters>57084.993785606</DistanceMeters>
          </Trackpoint>
          <Trackpoint>
            <Time>2021-08-31T06:45:41.000Z</Time>
            <Position>
              <LatitudeDegrees>42.07497705705463886260986328125</LatitudeDegrees>
              <LongitudeDegrees>2.16120625846087932586669921875</LongitudeDegrees>
            </Position>
            <AltitudeMeters>924.5999755859375</AltitudeMeters>
            <DistanceMeters>57098.048810033</DistanceMeters>
          </Trackpoint>
          <Trackpoint>
            <Time>2021-08-31T06:45:42.000Z</Time>
            <Position>
              <LatitudeDegrees>42.07498493604362010955810546875</LatitudeDegrees>
              <LongitudeDegrees>2.161125876009464263916015625</LongitudeDegrees>
            </Position>
            <AltitudeMeters>924.20001220703125</AltitudeMeters>
            <DistanceMeters>57104.748024907</DistanceMeters>
          </Trackpoint>
          <Trackpoint>
            <Time>2021-08-31T06:45:46.000Z</Time>
            <Position>
              <LatitudeDegrees>42.07506221719086170196533203125</LatitudeDegrees>
              <LongitudeDegrees>2.16092194430530071258544921875</LongitudeDegrees>
            </Position>
            <AltitudeMeters>923.4000244140625</AltitudeMeters>
            <DistanceMeters>57123.664786504</DistanceMeters>
          </Trackpoint>
          <Trackpoint>
            <Time>2021-08-31T06:45:50.000Z</Time>
            <Position>
              <LatitudeDegrees>42.07518677227199077606201171875</LatitudeDegrees>
              <LongitudeDegrees>2.16077542863786220550537109375</LongitudeDegrees>
            </Position>
            <AltitudeMeters>924.4000244140625</AltitudeMeters>
            <DistanceMeters>57142.068838703</DistanceMeters>
          </Trackpoint>
          <Trackpoint>
            <Time>2021-08-31T06:45:51.000Z</Time>
            <Position>
              <LatitudeDegrees>42.0752155221998691558837890625</LatitudeDegrees>
              <LongitudeDegrees>2.16073502786457538604736328125</LongitudeDegrees>
            </Position>
            <AltitudeMeters>924.4000244140625</AltitudeMeters>
            <DistanceMeters>57146.693038204</DistanceMeters>
          </Trackpoint>
          <Trackpoint>
            <Time>2021-08-31T06:45:56.000Z</Time>
            <Position>
              <LatitudeDegrees>42.075351811945438385009765625</LatitudeDegrees>
              <LongitudeDegrees>2.1605260670185089111328125</LongitudeDegrees>
            </Position>
            <AltitudeMeters>924.4000244140625</AltitudeMeters>
            <DistanceMeters>57169.674183756</DistanceMeters>
          </Trackpoint>
          <Trackpoint>
            <Time>2021-08-31T06:46:00.000Z</Time>
            <Position>
              <LatitudeDegrees>42.07546941004693508148193359375</LatitudeDegrees>
              <LongitudeDegrees>2.1603812277317047119140625</LongitudeDegrees>
            </Position>
            <AltitudeMeters>924.79998779296875</AltitudeMeters>
            <DistanceMeters>57187.408317577</DistanceMeters>
          </Trackpoint>
          <Trackpoint>
            <Time>2021-08-31T06:46:01.000Z</Time>
            <Position>
              <LatitudeDegrees>42.07550637423992156982421875</LatitudeDegrees>
              <LongitudeDegrees>2.16034946031868457794189453125</LongitudeDegrees>
            </Position>
            <AltitudeMeters>925</AltitudeMeters>
            <DistanceMeters>57192.289028761</DistanceMeters>
          </Trackpoint>
          <Trackpoint>
            <Time>2021-08-31T06:46:04.000Z</Time>
            <Position>
              <LatitudeDegrees>42.07560561597347259521484375</LatitudeDegrees>
              <LongitudeDegrees>2.1602355502545833587646484375</LongitudeDegrees>
            </Position>
            <AltitudeMeters>925.4000244140625</AltitudeMeters>
            <DistanceMeters>57206.800451251</DistanceMeters>
          </Trackpoint>
          <Trackpoint>
            <Time>2021-08-31T06:46:06.000Z</Time>
            <Position>
              <LatitudeDegrees>42.07567493431270122528076171875</LatitudeDegrees>
              <LongitudeDegrees>2.16016103513538837432861328125</LongitudeDegrees>
            </Position>
            <AltitudeMeters>925.5999755859375</AltitudeMeters>
            <DistanceMeters>57216.670886639</DistanceMeters>
          </Trackpoint>
          <Trackpoint>
            <Time>2021-08-31T06:46:09.000Z</Time>
            <Position>
              <LatitudeDegrees>42.07578792236745357513427734375</LatitudeDegrees>
              <LongitudeDegrees>2.16007302515208721160888671875</LongitudeDegrees>
            </Position>
            <AltitudeMeters>926.4000244140625</AltitudeMeters>
            <DistanceMeters>57231.19723602</DistanceMeters>
          </Trackpoint>
          <Trackpoint>
            <Time>2021-08-31T06:46:10.000Z</Time>
            <Position>
              <LatitudeDegrees>42.07582714967429637908935546875</LatitudeDegrees>
              <LongitudeDegrees>2.1600491367280483245849609375</LongitudeDegrees>
            </Position>
            <AltitudeMeters>926.5999755859375</AltitudeMeters>
            <DistanceMeters>57235.988316725</DistanceMeters>
          </Trackpoint>
          <Trackpoint>
            <Time>2021-08-31T06:46:13.000Z</Time>
            <Position>
              <LatitudeDegrees>42.0759563148021697998046875</LatitudeDegrees>
              <LongitudeDegrees>2.15998434461653232574462890625</LongitudeDegrees>
            </Position>
            <AltitudeMeters>927.4000244140625</AltitudeMeters>
            <DistanceMeters>57251.328583741</DistanceMeters>
          </Trackpoint>
          <Trackpoint>
            <Time>2021-08-31T06:46:14.000Z</Time>
            <Position>
              <LatitudeDegrees>42.07600392401218414306640625</LatitudeDegrees>
              <LongitudeDegrees>2.15996338985860347747802734375</LongitudeDegrees>
            </Position>
            <AltitudeMeters>927.79998779296875</AltitudeMeters>
            <DistanceMeters>57256.90285437</DistanceMeters>
          </Trackpoint>
          <Trackpoint>
            <Time>2021-08-31T06:46:19.000Z</Time>
            <Position>
              <LatitudeDegrees>42.0761948637664318084716796875</LatitudeDegrees>
              <LongitudeDegrees>2.1598689258098602294921875</LongitudeDegrees>
            </Position>
            <AltitudeMeters>929</AltitudeMeters>
            <DistanceMeters>57279.542358317</DistanceMeters>
          </Trackpoint>
          <Trackpoint>
            <Time>2021-08-31T06:46:20.000Z</Time>
            <Position>
              <LatitudeDegrees>42.07622897811233997344970703125</LatitudeDegrees>
              <LongitudeDegrees>2.15983875095844268798828125</LongitudeDegrees>
            </Position>
            <AltitudeMeters>929</AltitudeMeters>
            <DistanceMeters>57284.083800224</DistanceMeters>
          </Trackpoint>
          <Trackpoint>
            <Time>2021-08-31T06:46:24.000Z</Time>
            <Position>
              <LatitudeDegrees>42.07638203166425228118896484375</LatitudeDegrees>
              <LongitudeDegrees>2.15973942540585994720458984375</LongitudeDegrees>
            </Position>
            <AltitudeMeters>929.79998779296875</AltitudeMeters>
            <DistanceMeters>57302.991967416</DistanceMeters>
          </Trackpoint>
          <Trackpoint>
            <Time>2021-08-31T06:46:27.000Z</Time>
            <Position>
              <LatitudeDegrees>42.07649451680481433868408203125</LatitudeDegrees>
              <LongitudeDegrees>2.15965812094509601593017578125</LongitudeDegrees>
            </Position>
            <AltitudeMeters>930.4000244140625</AltitudeMeters>
            <DistanceMeters>57317.199652971</DistanceMeters>
          </Trackpoint>
          <Trackpoint>
            <Time>2021-08-31T06:46:31.000Z</Time>
            <Position>
              <LatitudeDegrees>42.0766330696642398834228515625</LatitudeDegrees>
              <LongitudeDegrees>2.15959659777581691741943359375</LongitudeDegrees>
            </Position>
            <AltitudeMeters>931.20001220703125</AltitudeMeters>
            <DistanceMeters>57333.436712799</DistanceMeters>
          </Trackpoint>
          <Trackpoint>
            <Time>2021-08-31T06:46:35.000Z</Time>
            <Position>
              <LatitudeDegrees>42.0767678506672382354736328125</LatitudeDegrees>
              <LongitudeDegrees>2.1595046482980251312255859375</LongitudeDegrees>
            </Position>
            <AltitudeMeters>931.20001220703125</AltitudeMeters>
            <DistanceMeters>57350.251877194</DistanceMeters>
          </Trackpoint>
          <Trackpoint>
            <Time>2021-08-31T06:46:38.000Z</Time>
            <Position>
              <LatitudeDegrees>42.0768763124942779541015625</LatitudeDegrees>
              <LongitudeDegrees>2.15943482704460620880126953125</LongitudeDegrees>
            </Position>
            <AltitudeMeters>931</AltitudeMeters>
            <DistanceMeters>57363.631422606</DistanceMeters>
          </Trackpoint>
          <Trackpoint>
            <Time>2021-08-31T06:46:40.000Z</Time>
            <Position>
              <LatitudeDegrees>42.07694278098642826080322265625</LatitudeDegrees>
              <LongitudeDegrees>2.15935369022190570831298828125</LongitudeDegrees>
            </Position>
            <AltitudeMeters>930.79998779296875</AltitudeMeters>
            <DistanceMeters>57373.614203963</DistanceMeters>
          </Trackpoint>
          <Trackpoint>
            <Time>2021-08-31T06:46:44.000Z</Time>
            <Position>
              <LatitudeDegrees>42.07706599496304988861083984375</LatitudeDegrees>
              <LongitudeDegrees>2.1591903269290924072265625</LongitudeDegrees>
            </Position>
            <AltitudeMeters>930.4000244140625</AltitudeMeters>
            <DistanceMeters>57392.855177797</DistanceMeters>
          </Trackpoint>
          <Trackpoint>
            <Time>2021-08-31T06:46:45.000Z</Time>
            <Position>
              <LatitudeDegrees>42.07710220478475093841552734375</LatitudeDegrees>
              <LongitudeDegrees>2.15916283428668975830078125</LongitudeDegrees>
            </Position>
            <AltitudeMeters>930.4000244140625</AltitudeMeters>
            <DistanceMeters>57397.481329672</DistanceMeters>
          </Trackpoint>
          <Trackpoint>
            <Time>2021-08-31T06:46:50.000Z</Time>
            <Position>
              <LatitudeDegrees>42.07729850895702838897705078125</LatitudeDegrees>
              <LongitudeDegrees>2.159027047455310821533203125</LongitudeDegrees>
            </Position>
            <AltitudeMeters>930.79998779296875</AltitudeMeters>
            <DistanceMeters>57422.042013022</DistanceMeters>
          </Trackpoint>
          <Trackpoint>
            <Time>2021-08-31T06:46:54.000Z</Time>
            <Position>
              <LatitudeDegrees>42.0774504728615283966064453125</LatitudeDegrees>
              <LongitudeDegrees>2.1589021570980548858642578125</LongitudeDegrees>
            </Position>
            <AltitudeMeters>931.20001220703125</AltitudeMeters>
            <DistanceMeters>57441.854570227</DistanceMeters>
          </Trackpoint>
          <Trackpoint>
            <Time>2021-08-31T06:46:56.000Z</Time>
            <Position>
              <LatitudeDegrees>42.077532447874546051025390625</LatitudeDegrees>
              <LongitudeDegrees>2.158835269510746002197265625</LongitudeDegrees>
            </Position>
            <AltitudeMeters>931.4000244140625</AltitudeMeters>
            <DistanceMeters>57452.52129246</DistanceMeters>
          </Trackpoint>
          <Trackpoint>
            <Time>2021-08-31T06:47:02.000Z</Time>
            <Position>
              <LatitudeDegrees>42.0777775347232818603515625</LatitudeDegrees>
              <LongitudeDegrees>2.15871213935315608978271484375</LongitudeDegrees>
            </Position>
            <AltitudeMeters>932.5999755859375</AltitudeMeters>
            <DistanceMeters>57481.634847642</DistanceMeters>
          </Trackpoint>
          <Trackpoint>
            <Time>2021-08-31T06:47:04.000Z</Time>
            <Position>
              <LatitudeDegrees>42.077838890254497528076171875</LatitudeDegrees>
              <LongitudeDegrees>2.158601246774196624755859375</LongitudeDegrees>
            </Position>
            <AltitudeMeters>932.20001220703125</AltitudeMeters>
            <DistanceMeters>57493.061390221</DistanceMeters>
          </Trackpoint>
          <Trackpoint>
            <Time>2021-08-31T06:47:06.000Z</Time>
            <Position>
              <LatitudeDegrees>42.077883817255496978759765625</LatitudeDegrees>
              <LongitudeDegrees>2.15851315297186374664306640625</LongitudeDegrees>
            </Position>
            <AltitudeMeters>931.5999755859375</AltitudeMeters>
            <DistanceMeters>57501.891207887</DistanceMeters>
          </Trackpoint>
          <Trackpoint>
            <Time>2021-08-31T06:47:09.000Z</Time>
            <Position>
              <LatitudeDegrees>42.07794542424380779266357421875</LatitudeDegrees>
              <LongitudeDegrees>2.1583937108516693115234375</LongitudeDegrees>
            </Position>
            <AltitudeMeters>930.79998779296875</AltitudeMeters>
            <DistanceMeters>57513.907109528</DistanceMeters>
          </Trackpoint>
          <Trackpoint>
            <Time>2021-08-31T06:47:15.000Z</Time>
            <Position>
              <LatitudeDegrees>42.0779969729483127593994140625</LatitudeDegrees>
              <LongitudeDegrees>2.15808651410043239593505859375</LongitudeDegrees>
            </Position>
            <AltitudeMeters>930.79998779296875</AltitudeMeters>
            <DistanceMeters>57539.925694633</DistanceMeters>
          </Trackpoint>
          <Trackpoint>
            <Time>2021-08-31T06:47:19.000Z</Time>
            <Position>
              <LatitudeDegrees>42.078001834452152252197265625</LatitudeDegrees>
              <LongitudeDegrees>2.15784679166972637176513671875</LongitudeDegrees>
            </Position>
            <AltitudeMeters>931.5999755859375</AltitudeMeters>
            <DistanceMeters>57559.737112367</DistanceMeters>
          </Trackpoint>
          <Trackpoint>
            <Time>2021-08-31T06:47:22.000Z</Time>
            <Position>
              <LatitudeDegrees>42.07797476090490818023681640625</LatitudeDegrees>
              <LongitudeDegrees>2.1576616354286670684814453125</LongitudeDegrees>
            </Position>
            <AltitudeMeters>932.20001220703125</AltitudeMeters>
            <DistanceMeters>57575.327286759</DistanceMeters>
          </Trackpoint>
          <Trackpoint>
            <Time>2021-08-31T06:47:24.000Z</Time>
            <Position>
              <LatitudeDegrees>42.07793511450290679931640625</LatitudeDegrees>
              <LongitudeDegrees>2.1575476415455341339111328125</LongitudeDegrees>
            </Position>
            <AltitudeMeters>932.4000244140625</AltitudeMeters>
            <DistanceMeters>57585.727395203</DistanceMeters>
          </Trackpoint>
          <Trackpoint>
            <Time>2021-08-31T06:47:26.000Z</Time>
            <Position>
              <LatitudeDegrees>42.077869735658168792724609375</LatitudeDegrees>
              <LongitudeDegrees>2.15746122412383556365966796875</LongitudeDegrees>
            </Position>
            <AltitudeMeters>932.5999755859375</AltitudeMeters>
            <DistanceMeters>57595.921418929</DistanceMeters>
          </Trackpoint>
          <Trackpoint>
            <Time>2021-08-31T06:47:28.000Z</Time>
            <Position>
              <LatitudeDegrees>42.07779589109122753143310546875</LatitudeDegrees>
              <LongitudeDegrees>2.1574098430573940277099609375</LongitudeDegrees>
            </Position>
            <AltitudeMeters>932.79998779296875</AltitudeMeters>
            <DistanceMeters>57605.17177051</DistanceMeters>
          </Trackpoint>
          <Trackpoint>
            <Time>2021-08-31T06:47:30.000Z</Time>
            <Position>
              <LatitudeDegrees>42.07772213034331798553466796875</LatitudeDegrees>
              <LongitudeDegrees>2.1573870442807674407958984375</LongitudeDegrees>
            </Position>
            <AltitudeMeters>932.79998779296875</AltitudeMeters>
            <DistanceMeters>57613.594911885</DistanceMeters>
          </Trackpoint>
          <Trackpoint>
            <Time>2021-08-31T06:47:32.000Z</Time>
            <Position>
              <LatitudeDegrees>42.07764753140509128570556640625</LatitudeDegrees>
              <LongitudeDegrees>2.15736784972250461578369140625</LongitudeDegrees>
            </Position>
            <AltitudeMeters>932.79998779296875</AltitudeMeters>
            <DistanceMeters>57622.047483377</DistanceMeters>
          </Trackpoint>
          <Trackpoint>
            <Time>2021-08-31T06:47:34.000Z</Time>
            <Position>
              <LatitudeDegrees>42.07756765186786651611328125</LatitudeDegrees>
              <LongitudeDegrees>2.1573297120630741119384765625</LongitudeDegrees>
            </Position>
            <AltitudeMeters>933</AltitudeMeters>
            <DistanceMeters>57631.479572919</DistanceMeters>
          </Trackpoint>
          <Trackpoint>
            <Time>2021-08-31T06:47:35.000Z</Time>
            <Position>
              <LatitudeDegrees>42.07753052003681659698486328125</LatitudeDegrees>
              <LongitudeDegrees>2.157304398715496063232421875</LongitudeDegrees>
            </Position>
            <AltitudeMeters>933.20001220703125</AltitudeMeters>
            <DistanceMeters>57636.11060213</DistanceMeters>
          </Trackpoint>
          <Trackpoint>
            <Time>2021-08-31T06:47:38.000Z</Time>
            <Position>
              <LatitudeDegrees>42.07742214202880859375</LatitudeDegrees>
              <LongitudeDegrees>2.15720792300999164581298828125</LongitudeDegrees>
            </Position>
            <AltitudeMeters>934</AltitudeMeters>
            <DistanceMeters>57650.568410038</DistanceMeters>
          </Trackpoint>
          <Trackpoint>
            <Time>2021-08-31T06:47:40.000Z</Time>
            <Position>
              <LatitudeDegrees>42.07735600881278514862060546875</LatitudeDegrees>
              <LongitudeDegrees>2.15713148005306720733642578125</LongitudeDegrees>
            </Position>
            <AltitudeMeters>934.79998779296875</AltitudeMeters>
            <DistanceMeters>57660.2667231</DistanceMeters>
          </Trackpoint>
          <Trackpoint>
            <Time>2021-08-31T06:47:41.000Z</Time>
            <Position>
              <LatitudeDegrees>42.0773242413997650146484375</LatitudeDegrees>
              <LongitudeDegrees>2.15709560550749301910400390625</LongitudeDegrees>
            </Position>
            <AltitudeMeters>935</AltitudeMeters>
            <DistanceMeters>57664.881148336</DistanceMeters>
          </Trackpoint>
          <Trackpoint>
            <Time>2021-08-31T06:47:47.000Z</Time>
            <Position>
              <LatitudeDegrees>42.07711092196404933929443359375</LatitudeDegrees>
              <LongitudeDegrees>2.15697926469147205352783203125</LongitudeDegrees>
            </Position>
            <AltitudeMeters>935.5999755859375</AltitudeMeters>
            <DistanceMeters>57690.495739768</DistanceMeters>
          </Trackpoint>
          <Trackpoint>
            <Time>2021-08-31T06:47:54.000Z</Time>
            <Position>
              <LatitudeDegrees>42.076847814023494720458984375</LatitudeDegrees>
              <LongitudeDegrees>2.15689368546009063720703125</LongitudeDegrees>
            </Position>
            <AltitudeMeters>935.4000244140625</AltitudeMeters>
            <DistanceMeters>57720.621456406</DistanceMeters>
          </Trackpoint>
          <Trackpoint>
            <Time>2021-08-31T06:47:59.000Z</Time>
            <Position>
              <LatitudeDegrees>42.07667204551398754119873046875</LatitudeDegrees>
              <LongitudeDegrees>2.156829647719860076904296875</LongitudeDegrees>
            </Position>
            <AltitudeMeters>935</AltitudeMeters>
            <DistanceMeters>57740.887560296</DistanceMeters>
          </Trackpoint>
          <Trackpoint>
            <Time>2021-08-31T06:48:07.000Z</Time>
            <Position>
              <LatitudeDegrees>42.07640835084021091461181640625</LatitudeDegrees>
              <LongitudeDegrees>2.1567253768444061279296875</LongitudeDegrees>
            </Position>
            <AltitudeMeters>934.20001220703125</AltitudeMeters>
            <DistanceMeters>57771.475388765</DistanceMeters>
          </Trackpoint>
          <Trackpoint>
            <Time>2021-08-31T06:48:09.000Z</Time>
            <Position>
              <LatitudeDegrees>42.07633945159614086151123046875</LatitudeDegrees>
              <LongitudeDegrees>2.1566819585859775543212890625</LongitudeDegrees>
            </Position>
            <AltitudeMeters>934.4000244140625</AltitudeMeters>
            <DistanceMeters>57779.941837065</DistanceMeters>
          </Trackpoint>
          <Trackpoint>
            <Time>2021-08-31T06:48:11.000Z</Time>
            <Position>
              <LatitudeDegrees>42.0762652717530727386474609375</LatitudeDegrees>
              <LongitudeDegrees>2.1566232852637767791748046875</LongitudeDegrees>
            </Position>
            <AltitudeMeters>934.5999755859375</AltitudeMeters>
            <DistanceMeters>57789.516456434</DistanceMeters>
          </Trackpoint>
          <Trackpoint>
            <Time>2021-08-31T06:48:14.000Z</Time>
            <Position>
              <LatitudeDegrees>42.07621187902987003326416015625</LatitudeDegrees>
              <LongitudeDegrees>2.15650568716228008270263671875</LongitudeDegrees>
            </Position>
            <AltitudeMeters>935.20001220703125</AltitudeMeters>
            <DistanceMeters>57800.905399231</DistanceMeters>
          </Trackpoint>
          <Trackpoint>
            <Time>2021-08-31T06:48:15.000Z</Time>
            <Position>
              <LatitudeDegrees>42.07622093148529529571533203125</LatitudeDegrees>
              <LongitudeDegrees>2.15646143071353435516357421875</LongitudeDegrees>
            </Position>
            <AltitudeMeters>935.5999755859375</AltitudeMeters>
            <DistanceMeters>57804.698143854</DistanceMeters>
          </Trackpoint>
          <Trackpoint>
            <Time>2021-08-31T06:48:16.000Z</Time>
            <Position>
              <LatitudeDegrees>42.0762424729764461517333984375</LatitudeDegrees>
              <LongitudeDegrees>2.15642220340669155120849609375</LongitudeDegrees>
            </Position>
            <AltitudeMeters>936.20001220703125</AltitudeMeters>
            <DistanceMeters>57808.728665845</DistanceMeters>
          </Trackpoint>
          <Trackpoint>
            <Time>2021-08-31T06:48:18.000Z</Time>
            <Position>
              <LatitudeDegrees>42.07630743272602558135986328125</LatitudeDegrees>
              <LongitudeDegrees>2.15638331137597560882568359375</LongitudeDegrees>
            </Position>
            <AltitudeMeters>937.20001220703125</AltitudeMeters>
            <DistanceMeters>57816.6404602</DistanceMeters>
          </Trackpoint>
          <Trackpoint>
            <Time>2021-08-31T06:48:22.000Z</Time>
            <Position>
              <LatitudeDegrees>42.07645746879279613494873046875</LatitudeDegrees>
              <LongitudeDegrees>2.15633771382272243499755859375</LongitudeDegrees>
            </Position>
            <AltitudeMeters>940</AltitudeMeters>
            <DistanceMeters>57833.759253114</DistanceMeters>
          </Trackpoint>
          <Trackpoint>
            <Time>2021-08-31T06:48:23.000Z</Time>
            <Position>
              <LatitudeDegrees>42.0764919184148311614990234375</LatitudeDegrees>
              <LongitudeDegrees>2.15630988590419292449951171875</LongitudeDegrees>
            </Position>
            <AltitudeMeters>941</AltitudeMeters>
            <DistanceMeters>57838.230560445</DistanceMeters>
          </Trackpoint>
          <Trackpoint>
            <Time>2021-08-31T06:48:28.000Z</Time>
            <Position>
              <LatitudeDegrees>42.076614797115325927734375</LatitudeDegrees>
              <LongitudeDegrees>2.15613135136663913726806640625</LongitudeDegrees>
            </Position>
            <AltitudeMeters>945.5999755859375</AltitudeMeters>
            <DistanceMeters>57858.345271607</DistanceMeters>
          </Trackpoint>
          <Trackpoint>
            <Time>2021-08-31T06:48:29.000Z</Time>
            <Position>
              <LatitudeDegrees>42.07662678323686122894287109375</LatitudeDegrees>
              <LongitudeDegrees>2.15609036386013031005859375</LongitudeDegrees>
            </Position>
            <AltitudeMeters>946.20001220703125</AltitudeMeters>
            <DistanceMeters>57861.984931227</DistanceMeters>
          </Trackpoint>
          <Trackpoint>
            <Time>2021-08-31T06:48:31.000Z</Time>
            <Position>
              <LatitudeDegrees>42.07661923952400684356689453125</LatitudeDegrees>
              <LongitudeDegrees>2.15598642826080322265625</LongitudeDegrees>
            </Position>
            <AltitudeMeters>947.79998779296875</AltitudeMeters>
            <DistanceMeters>57870.612498678</DistanceMeters>
          </Trackpoint>
          <Trackpoint>
            <Time>2021-08-31T06:48:37.000Z</Time>
            <Position>
              <LatitudeDegrees>42.07658202387392520904541015625</LatitudeDegrees>
              <LongitudeDegrees>2.1557056345045566558837890625</LongitudeDegrees>
            </Position>
            <AltitudeMeters>952.4000244140625</AltitudeMeters>
            <DistanceMeters>57894.176824696</DistanceMeters>
          </Trackpoint>
          <Trackpoint>
            <Time>2021-08-31T06:48:44.000Z</Time>
            <Position>
              <LatitudeDegrees>42.07655084319412708282470703125</LatitudeDegrees>
              <LongitudeDegrees>2.1554347313940525054931640625</LongitudeDegrees>
            </Position>
            <AltitudeMeters>958</AltitudeMeters>
            <DistanceMeters>57916.824703232</DistanceMeters>
          </Trackpoint>
          <Trackpoint>
            <Time>2021-08-31T06:48:50.000Z</Time>
            <Position>
              <LatitudeDegrees>42.0764949358999729156494140625</LatitudeDegrees>
              <LongitudeDegrees>2.1552188135683536529541015625</LongitudeDegrees>
            </Position>
            <AltitudeMeters>961.5999755859375</AltitudeMeters>
            <DistanceMeters>57935.716625881</DistanceMeters>
          </Trackpoint>
          <Trackpoint>
            <Time>2021-08-31T06:48:56.000Z</Time>
            <Position>
              <LatitudeDegrees>42.07633643411099910736083984375</LatitudeDegrees>
              <LongitudeDegrees>2.15502661652863025665283203125</LongitudeDegrees>
            </Position>
            <AltitudeMeters>962.20001220703125</AltitudeMeters>
            <DistanceMeters>57959.451628494</DistanceMeters>
          </Trackpoint>
          <Trackpoint>
            <Time>2021-08-31T06:49:01.000Z</Time>
            <Position>
              <LatitudeDegrees>42.07612453959882259368896484375</LatitudeDegrees>
              <LongitudeDegrees>2.15482167899608612060546875</LongitudeDegrees>
            </Position>
            <AltitudeMeters>961.79998779296875</AltitudeMeters>
            <DistanceMeters>57988.483806078</DistanceMeters>
          </Trackpoint>
          <Trackpoint>
            <Time>2021-08-31T06:49:03.000Z</Time>
            <Position>
              <LatitudeDegrees>42.07602781243622303009033203125</LatitudeDegrees>
              <LongitudeDegrees>2.15473962016403675079345703125</LongitudeDegrees>
            </Position>
            <AltitudeMeters>961.5999755859375</AltitudeMeters>
            <DistanceMeters>58001.206744038</DistanceMeters>
          </Trackpoint>
          <Trackpoint>
            <Time>2021-08-31T06:49:05.000Z</Time>
            <Position>
              <LatitudeDegrees>42.07592387683689594268798828125</LatitudeDegrees>
              <LongitudeDegrees>2.15469117276370525360107421875</LongitudeDegrees>
            </Position>
            <AltitudeMeters>960.20001220703125</AltitudeMeters>
            <DistanceMeters>58013.447866883</DistanceMeters>
          </Trackpoint>
          <Trackpoint>
            <Time>2021-08-31T06:49:10.000Z</Time>
            <Position>
              <LatitudeDegrees>42.07566169090569019317626953125</LatitudeDegrees>
              <LongitudeDegrees>2.1545653603971004486083984375</LongitudeDegrees>
            </Position>
            <AltitudeMeters>956.5999755859375</AltitudeMeters>
            <DistanceMeters>58044.425409774</DistanceMeters>
          </Trackpoint>
          <Trackpoint>
            <Time>2021-08-31T06:49:14.000Z</Time>
            <Position>
              <LatitudeDegrees>42.07541325129568576812744140625</LatitudeDegrees>
              <LongitudeDegrees>2.15437953360378742218017578125</LongitudeDegrees>
            </Position>
            <AltitudeMeters>954.79998779296875</AltitudeMeters>
            <DistanceMeters>58076.053178398</DistanceMeters>
          </Trackpoint>
          <Trackpoint>
            <Time>2021-08-31T06:49:18.000Z</Time>
            <Position>
              <LatitudeDegrees>42.0751816593110561370849609375</LatitudeDegrees>
              <LongitudeDegrees>2.15414618141949176788330078125</LongitudeDegrees>
            </Position>
            <AltitudeMeters>955</AltitudeMeters>
            <DistanceMeters>58108.241715816</DistanceMeters>
          </Trackpoint>
          <Trackpoint>
            <Time>2021-08-31T06:49:19.000Z</Time>
            <Position>
              <LatitudeDegrees>42.0751437731087207794189453125</LatitudeDegrees>
              <LongitudeDegrees>2.1540896035730838775634765625</LongitudeDegrees>
            </Position>
            <AltitudeMeters>955.4000244140625</AltitudeMeters>
            <DistanceMeters>58114.53647359</DistanceMeters>
          </Trackpoint>
          <Trackpoint>
            <Time>2021-08-31T06:49:20.000Z</Time>
            <Position>
              <LatitudeDegrees>42.0751159451901912689208984375</LatitudeDegrees>
              <LongitudeDegrees>2.15403176844120025634765625</LongitudeDegrees>
            </Position>
            <AltitudeMeters>955.79998779296875</AltitudeMeters>
            <DistanceMeters>58120.230152053</DistanceMeters>
          </Trackpoint>
          <Trackpoint>
            <Time>2021-08-31T06:49:22.000Z</Time>
            <Position>
              <LatitudeDegrees>42.07507722079753875732421875</LatitudeDegrees>
              <LongitudeDegrees>2.1539152599871158599853515625</LongitudeDegrees>
            </Position>
            <AltitudeMeters>957.20001220703125</AltitudeMeters>
            <DistanceMeters>58130.776833125</DistanceMeters>
          </Trackpoint>
          <Trackpoint>
            <Time>2021-08-31T06:49:23.000Z</Time>
            <Position>
              <LatitudeDegrees>42.0750633068382740020751953125</LatitudeDegrees>
              <LongitudeDegrees>2.1538411639630794525146484375</LongitudeDegrees>
            </Position>
            <AltitudeMeters>958.4000244140625</AltitudeMeters>
            <DistanceMeters>58137.090212365</DistanceMeters>
          </Trackpoint>
          <Trackpoint>
            <Time>2021-08-31T06:49:24.000Z</Time>
            <Position>
              <LatitudeDegrees>42.07504545338451862335205078125</LatitudeDegrees>
              <LongitudeDegrees>2.15376195497810840606689453125</LongitudeDegrees>
            </Position>
            <AltitudeMeters>959.5999755859375</AltitudeMeters>
            <DistanceMeters>58143.928835464</DistanceMeters>
          </Trackpoint>
          <Trackpoint>
            <Time>2021-08-31T06:49:26.000Z</Time>
            <Position>
              <LatitudeDegrees>42.07498577423393726348876953125</LatitudeDegrees>
              <LongitudeDegrees>2.15363672934472560882568359375</LongitudeDegrees>
            </Position>
            <AltitudeMeters>960.79998779296875</AltitudeMeters>
            <DistanceMeters>58156.223691286</DistanceMeters>
          </Trackpoint>
          <Trackpoint>
            <Time>2021-08-31T06:49:27.000Z</Time>
            <Position>
              <LatitudeDegrees>42.0749462954699993133544921875</LatitudeDegrees>
              <LongitudeDegrees>2.15358207933604717254638671875</LongitudeDegrees>
            </Position>
            <AltitudeMeters>960.79998779296875</AltitudeMeters>
            <DistanceMeters>58162.524184604</DistanceMeters>
          </Trackpoint>
          <Trackpoint>
            <Time>2021-08-31T06:49:28.000Z</Time>
            <Position>
              <LatitudeDegrees>42.0749048888683319091796875</LatitudeDegrees>
              <LongitudeDegrees>2.15353966690599918365478515625</LongitudeDegrees>
            </Position>
            <AltitudeMeters>960.79998779296875</AltitudeMeters>
            <DistanceMeters>58168.313799769</DistanceMeters>
          </Trackpoint>
          <Trackpoint>
            <Time>2021-08-31T06:49:30.000Z</Time>
            <Position>
              <LatitudeDegrees>42.07482920028269290924072265625</LatitudeDegrees>
              <LongitudeDegrees>2.15348652563989162445068359375</LongitudeDegrees>
            </Position>
            <AltitudeMeters>960.5999755859375</AltitudeMeters>
            <DistanceMeters>58177.813619977</DistanceMeters>
          </Trackpoint>
          <Trackpoint>
            <Time>2021-08-31T06:49:35.000Z</Time>
            <Position>
              <LatitudeDegrees>42.07464613951742649078369140625</LatitudeDegrees>
              <LongitudeDegrees>2.15343221090734004974365234375</LongitudeDegrees>
            </Position>
            <AltitudeMeters>958.5999755859375</AltitudeMeters>
            <DistanceMeters>58198.677124114</DistanceMeters>
          </Trackpoint>
          <Trackpoint>
            <Time>2021-08-31T06:49:41.000Z</Time>
            <Position>
              <LatitudeDegrees>42.0744346641004085540771484375</LatitudeDegrees>
              <LongitudeDegrees>2.1534069813787937164306640625</LongitudeDegrees>
            </Position>
            <AltitudeMeters>955.20001220703125</AltitudeMeters>
            <DistanceMeters>58222.306888117</DistanceMeters>
          </Trackpoint>
          <Trackpoint>
            <Time>2021-08-31T06:49:46.000Z</Time>
            <Position>
              <LatitudeDegrees>42.0742640085518360137939453125</LatitudeDegrees>
              <LongitudeDegrees>2.153365910053253173828125</LongitudeDegrees>
            </Position>
            <AltitudeMeters>953</AltitudeMeters>
            <DistanceMeters>58241.601991686</DistanceMeters>
          </Trackpoint>
          <Trackpoint>
            <Time>2021-08-31T06:49:48.000Z</Time>
            <Position>
              <LatitudeDegrees>42.0742314867675304412841796875</LatitudeDegrees>
              <LongitudeDegrees>2.15331704355776309967041015625</LongitudeDegrees>
            </Position>
            <AltitudeMeters>953.5999755859375</AltitudeMeters>
            <DistanceMeters>58247.024346239</DistanceMeters>
          </Trackpoint>
          <Trackpoint>
            <Time>2021-08-31T06:49:49.000Z</Time>
            <Position>
              <LatitudeDegrees>42.0742311514914035797119140625</LatitudeDegrees>
              <LongitudeDegrees>2.153283096849918365478515625</LongitudeDegrees>
            </Position>
            <AltitudeMeters>954.20001220703125</AltitudeMeters>
            <DistanceMeters>58249.828842019</DistanceMeters>
          </Trackpoint>
          <Trackpoint>
            <Time>2021-08-31T06:49:54.000Z</Time>
            <Position>
              <LatitudeDegrees>42.07431404851377010345458984375</LatitudeDegrees>
              <LongitudeDegrees>2.15311520732939243316650390625</LongitudeDegrees>
            </Position>
            <AltitudeMeters>958</AltitudeMeters>
            <DistanceMeters>58266.488084782</DistanceMeters>
          </Trackpoint>
          <Trackpoint>
            <Time>2021-08-31T06:49:59.000Z</Time>
            <Position>
              <LatitudeDegrees>42.0744581334292888641357421875</LatitudeDegrees>
              <LongitudeDegrees>2.153020240366458892822265625</LongitudeDegrees>
            </Position>
            <AltitudeMeters>961.79998779296875</AltitudeMeters>
            <DistanceMeters>58284.341224793</DistanceMeters>
          </Trackpoint>
          <Trackpoint>
            <Time>2021-08-31T06:50:03.000Z</Time>
            <Position>
              <LatitudeDegrees>42.07457690499722957611083984375</LatitudeDegrees>
              <LongitudeDegrees>2.152935080230236053466796875</LongitudeDegrees>
            </Position>
            <AltitudeMeters>965.20001220703125</AltitudeMeters>
            <DistanceMeters>58299.316301367</DistanceMeters>
          </Trackpoint>
          <Trackpoint>
            <Time>2021-08-31T06:50:10.000Z</Time>
            <Position>
              <LatitudeDegrees>42.07479382865130901336669921875</LatitudeDegrees>
              <LongitudeDegrees>2.15281178243458271026611328125</LongitudeDegrees>
            </Position>
            <AltitudeMeters>967.20001220703125</AltitudeMeters>
            <DistanceMeters>58325.521285497</DistanceMeters>
          </Trackpoint>
          <Trackpoint>
            <Time>2021-08-31T06:50:15.000Z</Time>
            <Position>
              <LatitudeDegrees>42.074948139488697052001953125</LatitudeDegrees>
              <LongitudeDegrees>2.15270541608333587646484375</LongitudeDegrees>
            </Position>
            <AltitudeMeters>968.79998779296875</AltitudeMeters>
            <DistanceMeters>58344.813814903</DistanceMeters>
          </Trackpoint>
          <Trackpoint>
            <Time>2021-08-31T06:50:21.000Z</Time>
            <Position>
              <LatitudeDegrees>42.07514335401356220245361328125</LatitudeDegrees>
              <LongitudeDegrees>2.1526251174509525299072265625</LongitudeDegrees>
            </Position>
            <AltitudeMeters>972.20001220703125</AltitudeMeters>
            <DistanceMeters>58367.531759112</DistanceMeters>
          </Trackpoint>
          <Trackpoint>
            <Time>2021-08-31T06:50:27.000Z</Time>
            <Position>
              <LatitudeDegrees>42.075300179421901702880859375</LatitudeDegrees>
              <LongitudeDegrees>2.15256988070905208587646484375</LongitudeDegrees>
            </Position>
            <AltitudeMeters>974.20001220703125</AltitudeMeters>
            <DistanceMeters>58385.573325992</DistanceMeters>
          </Trackpoint>
          <Trackpoint>
            <Time>2021-08-31T06:50:33.000Z</Time>
            <Position>
              <LatitudeDegrees>42.07546287216246128082275390625</LatitudeDegrees>
              <LongitudeDegrees>2.15252813883125782012939453125</LongitudeDegrees>
            </Position>
            <AltitudeMeters>976.20001220703125</AltitudeMeters>
            <DistanceMeters>58404.006549162</DistanceMeters>
          </Trackpoint>
          <Trackpoint>
            <Time>2021-08-31T06:50:40.000Z</Time>
            <Position>
              <LatitudeDegrees>42.0756510458886623382568359375</LatitudeDegrees>
              <LongitudeDegrees>2.15248555876314640045166015625</LongitudeDegrees>
            </Position>
            <AltitudeMeters>978.5999755859375</AltitudeMeters>
            <DistanceMeters>58425.243691109</DistanceMeters>
          </Trackpoint>
          <Trackpoint>
            <Time>2021-08-31T06:50:42.000Z</Time>
            <Position>
              <LatitudeDegrees>42.07570427097380161285400390625</LatitudeDegrees>
              <LongitudeDegrees>2.15245974250137805938720703125</LongitudeDegrees>
            </Position>
            <AltitudeMeters>979.20001220703125</AltitudeMeters>
            <DistanceMeters>58431.539883259</DistanceMeters>
          </Trackpoint>
          <Trackpoint>
            <Time>2021-08-31T06:50:44.000Z</Time>
            <Position>
              <LatitudeDegrees>42.07575171254575252532958984375</LatitudeDegrees>
              <LongitudeDegrees>2.1524122171103954315185546875</LongitudeDegrees>
            </Position>
            <AltitudeMeters>979.79998779296875</AltitudeMeters>
            <DistanceMeters>58438.120097279</DistanceMeters>
          </Trackpoint>
          <Trackpoint>
            <Time>2021-08-31T06:50:48.000Z</Time>
            <Position>
              <LatitudeDegrees>42.07583167590200901031494140625</LatitudeDegrees>
              <LongitudeDegrees>2.15229260735213756561279296875</LongitudeDegrees>
            </Position>
            <AltitudeMeters>981.5999755859375</AltitudeMeters>
            <DistanceMeters>58451.4187456</DistanceMeters>
          </Trackpoint>
          <Trackpoint>
            <Time>2021-08-31T06:50:49.000Z</Time>
            <Position>
              <LatitudeDegrees>42.0758501999080181121826171875</LatitudeDegrees>
              <LongitudeDegrees>2.15226821601390838623046875</LongitudeDegrees>
            </Position>
            <AltitudeMeters>982</AltitudeMeters>
            <DistanceMeters>58454.304179792</DistanceMeters>
          </Trackpoint>
          <Trackpoint>
            <Time>2021-08-31T06:50:53.000Z</Time>
            <Position>
              <LatitudeDegrees>42.07591013051569461822509765625</LatitudeDegrees>
              <LongitudeDegrees>2.1521178446710109710693359375</LongitudeDegrees>
            </Position>
            <AltitudeMeters>983.5999755859375</AltitudeMeters>
            <DistanceMeters>58468.404363943</DistanceMeters>
          </Trackpoint>
          <Trackpoint>
            <Time>2021-08-31T06:50:58.000Z</Time>
            <Position>
              <LatitudeDegrees>42.07590057514607906341552734375</LatitudeDegrees>
              <LongitudeDegrees>2.15184937231242656707763671875</LongitudeDegrees>
            </Position>
            <AltitudeMeters>983.5999755859375</AltitudeMeters>
            <DistanceMeters>58490.609730279</DistanceMeters>
          </Trackpoint>
          <Trackpoint>
            <Time>2021-08-31T06:51:04.000Z</Time>
            <Position>
              <LatitudeDegrees>42.07592270337045192718505859375</LatitudeDegrees>
              <LongitudeDegrees>2.15155717916786670684814453125</LongitudeDegrees>
            </Position>
            <AltitudeMeters>986.4000244140625</AltitudeMeters>
            <DistanceMeters>58514.874499891</DistanceMeters>
          </Trackpoint>
          <Trackpoint>
            <Time>2021-08-31T06:51:10.000Z</Time>
            <Position>
              <LatitudeDegrees>42.0760166645050048828125</LatitudeDegrees>
              <LongitudeDegrees>2.15131066739559173583984375</LongitudeDegrees>
            </Position>
            <AltitudeMeters>991.4000244140625</AltitudeMeters>
            <DistanceMeters>58537.768247879</DistanceMeters>
          </Trackpoint>
          <Trackpoint>
            <Time>2021-08-31T06:51:11.000Z</Time>
            <Position>
              <LatitudeDegrees>42.07602479495108127593994140625</LatitudeDegrees>
              <LongitudeDegrees>2.151273451745510101318359375</LongitudeDegrees>
            </Position>
            <AltitudeMeters>992</AltitudeMeters>
            <DistanceMeters>58540.973903349</DistanceMeters>
          </Trackpoint>
          <Trackpoint>
            <Time>2021-08-31T06:51:13.000Z</Time>
            <Position>
              <LatitudeDegrees>42.07601021043956279754638671875</LatitudeDegrees>
              <LongitudeDegrees>2.1511857770383358001708984375</LongitudeDegrees>
            </Position>
            <AltitudeMeters>992.20001220703125</AltitudeMeters>
            <DistanceMeters>58548.396943593</DistanceMeters>
          </Trackpoint>
          <Trackpoint>
            <Time>2021-08-31T06:51:19.000Z</Time>
            <Position>
              <LatitudeDegrees>42.075930498540401458740234375</LatitudeDegrees>
              <LongitudeDegrees>2.1509366668760776519775390625</LongitudeDegrees>
            </Position>
            <AltitudeMeters>991.79998779296875</AltitudeMeters>
            <DistanceMeters>58570.808143514</DistanceMeters>
          </Trackpoint>
          <Trackpoint>
            <Time>2021-08-31T06:51:25.000Z</Time>
            <Position>
              <LatitudeDegrees>42.0758921094238758087158203125</LatitudeDegrees>
              <LongitudeDegrees>2.1506738103926181793212890625</LongitudeDegrees>
            </Position>
            <AltitudeMeters>993.20001220703125</AltitudeMeters>
            <DistanceMeters>58592.94018966</DistanceMeters>
          </Trackpoint>
          <Trackpoint>
            <Time>2021-08-31T06:51:30.000Z</Time>
            <Position>
              <LatitudeDegrees>42.07583670504391193389892578125</LatitudeDegrees>
              <LongitudeDegrees>2.15047021396458148956298828125</LongitudeDegrees>
            </Position>
            <AltitudeMeters>992.79998779296875</AltitudeMeters>
            <DistanceMeters>58610.855182738</DistanceMeters>
          </Trackpoint>
          <Trackpoint>
            <Time>2021-08-31T06:51:34.000Z</Time>
            <Position>
              <LatitudeDegrees>42.075835280120372772216796875</LatitudeDegrees>
              <LongitudeDegrees>2.15028765611350536346435546875</LongitudeDegrees>
            </Position>
            <AltitudeMeters>994</AltitudeMeters>
            <DistanceMeters>58625.938110698</DistanceMeters>
          </Trackpoint>
          <Trackpoint>
            <Time>2021-08-31T06:51:40.000Z</Time>
            <Position>
              <LatitudeDegrees>42.07586268894374370574951171875</LatitudeDegrees>
              <LongitudeDegrees>2.15002446435391902923583984375</LongitudeDegrees>
            </Position>
            <AltitudeMeters>996.5999755859375</AltitudeMeters>
            <DistanceMeters>58647.894834525</DistanceMeters>
          </Trackpoint>
          <Trackpoint>
            <Time>2021-08-31T06:51:46.000Z</Time>
            <Position>
              <LatitudeDegrees>42.07595505751669406890869140625</LatitudeDegrees>
              <LongitudeDegrees>2.14977032504975795745849609375</LongitudeDegrees>
            </Position>
            <AltitudeMeters>1002.4000244140625</AltitudeMeters>
            <DistanceMeters>58671.272565093</DistanceMeters>
          </Trackpoint>
          <Trackpoint>
            <Time>2021-08-31T06:51:51.000Z</Time>
            <Position>
              <LatitudeDegrees>42.0760694704949855804443359375</LatitudeDegrees>
              <LongitudeDegrees>2.14958868920803070068359375</LongitudeDegrees>
            </Position>
            <AltitudeMeters>1009</AltitudeMeters>
            <DistanceMeters>58690.953421248</DistanceMeters>
          </Trackpoint>
          <Trackpoint>
            <Time>2021-08-31T06:51:55.000Z</Time>
            <Position>
              <LatitudeDegrees>42.0762003958225250244140625</LatitudeDegrees>
              <LongitudeDegrees>2.14955407194793224334716796875</LongitudeDegrees>
            </Position>
            <AltitudeMeters>1012.79998779296875</AltitudeMeters>
            <DistanceMeters>58705.803758851</DistanceMeters>
          </Trackpoint>
          <Trackpoint>
            <Time>2021-08-31T06:52:00.000Z</Time>
            <Position>
              <LatitudeDegrees>42.07636996172368526458740234375</LatitudeDegrees>
              <LongitudeDegrees>2.1495714224874973297119140625</LongitudeDegrees>
            </Position>
            <AltitudeMeters>1012.79998779296875</AltitudeMeters>
            <DistanceMeters>58724.731496508</DistanceMeters>
          </Trackpoint>
          <Trackpoint>
            <Time>2021-08-31T06:52:05.000Z</Time>
            <Position>
              <LatitudeDegrees>42.0765168964862823486328125</LatitudeDegrees>
              <LongitudeDegrees>2.14950646273791790008544921875</LongitudeDegrees>
            </Position>
            <AltitudeMeters>1012.20001220703125</AltitudeMeters>
            <DistanceMeters>58741.94366511</DistanceMeters>
          </Trackpoint>
          <Trackpoint>
            <Time>2021-08-31T06:52:10.000Z</Time>
            <Position>
              <LatitudeDegrees>42.07660130225121974945068359375</LatitudeDegrees>
              <LongitudeDegrees>2.149322815239429473876953125</LongitudeDegrees>
            </Position>
            <AltitudeMeters>1011</AltitudeMeters>
            <DistanceMeters>58759.788457508</DistanceMeters>
          </Trackpoint>
          <Trackpoint>
            <Time>2021-08-31T06:52:14.000Z</Time>
            <Position>
              <LatitudeDegrees>42.07669249735772609710693359375</LatitudeDegrees>
              <LongitudeDegrees>2.149228267371654510498046875</LongitudeDegrees>
            </Position>
            <AltitudeMeters>1011.79998779296875</AltitudeMeters>
            <DistanceMeters>58772.596282018</DistanceMeters>
          </Trackpoint>
          <Trackpoint>
            <Time>2021-08-31T06:52:15.000Z</Time>
            <Position>
              <LatitudeDegrees>42.0767199061810970306396484375</LatitudeDegrees>
              <LongitudeDegrees>2.14921720325946807861328125</LongitudeDegrees>
            </Position>
            <AltitudeMeters>1012</AltitudeMeters>
            <DistanceMeters>58775.782158024</DistanceMeters>
          </Trackpoint>
          <Trackpoint>
            <Time>2021-08-31T06:52:20.000Z</Time>
            <Position>
              <LatitudeDegrees>42.076869942247867584228515625</LatitudeDegrees>
              <LongitudeDegrees>2.1491239964962005615234375</LongitudeDegrees>
            </Position>
            <AltitudeMeters>1012.79998779296875</AltitudeMeters>
            <DistanceMeters>58794.171239096</DistanceMeters>
          </Trackpoint>
          <Trackpoint>
            <Time>2021-08-31T06:52:25.000Z</Time>
            <Position>
              <LatitudeDegrees>42.07699324004352092742919921875</LatitudeDegrees>
              <LongitudeDegrees>2.14896230958402156829833984375</LongitudeDegrees>
            </Position>
            <AltitudeMeters>1016</AltitudeMeters>
            <DistanceMeters>58813.321892471</DistanceMeters>
          </Trackpoint>
          <Trackpoint>
            <Time>2021-08-31T06:52:31.000Z</Time>
            <Position>
              <LatitudeDegrees>42.07712709903717041015625</LatitudeDegrees>
              <LongitudeDegrees>2.14880187995731830596923828125</LongitudeDegrees>
            </Position>
            <AltitudeMeters>1019.79998779296875</AltitudeMeters>
            <DistanceMeters>58833.262564128</DistanceMeters>
          </Trackpoint>
          <Trackpoint>
            <Time>2021-08-31T06:52:32.000Z</Time>
            <Position>
              <LatitudeDegrees>42.07713724114000797271728515625</LatitudeDegrees>
              <LongitudeDegrees>2.14876902289688587188720703125</LongitudeDegrees>
            </Position>
            <AltitudeMeters>1020.20001220703125</AltitudeMeters>
            <DistanceMeters>58836.203790612</DistanceMeters>
          </Trackpoint>
          <Trackpoint>
            <Time>2021-08-31T06:52:34.000Z</Time>
            <Position>
              <LatitudeDegrees>42.07710673101246356964111328125</LatitudeDegrees>
              <LongitudeDegrees>2.14871554635465145111083984375</LongitudeDegrees>
            </Position>
            <AltitudeMeters>1020.5999755859375</AltitudeMeters>
            <DistanceMeters>58841.775630776</DistanceMeters>
          </Trackpoint>
          <Trackpoint>
            <Time>2021-08-31T06:52:40.000Z</Time>
            <Position>
              <LatitudeDegrees>42.076926939189434051513671875</LatitudeDegrees>
              <LongitudeDegrees>2.14863273315131664276123046875</LongitudeDegrees>
            </Position>
            <AltitudeMeters>1020.5999755859375</AltitudeMeters>
            <DistanceMeters>58862.924145766</DistanceMeters>
          </Trackpoint>
          <Trackpoint>
            <Time>2021-08-31T06:52:45.000Z</Time>
            <Position>
              <LatitudeDegrees>42.076757960021495819091796875</LatitudeDegrees>
              <LongitudeDegrees>2.148594595491886138916015625</LongitudeDegrees>
            </Position>
            <AltitudeMeters>1019.5999755859375</AltitudeMeters>
            <DistanceMeters>58881.993997327</DistanceMeters>
          </Trackpoint>
          <Trackpoint>
            <Time>2021-08-31T06:52:51.000Z</Time>
            <Position>
              <LatitudeDegrees>42.07656006328761577606201171875</LatitudeDegrees>
              <LongitudeDegrees>2.1486235968768596649169921875</LongitudeDegrees>
            </Position>
            <AltitudeMeters>1017.79998779296875</AltitudeMeters>
            <DistanceMeters>58904.150102933</DistanceMeters>
          </Trackpoint>
          <Trackpoint>
            <Time>2021-08-31T06:52:57.000Z</Time>
            <Position>
              <LatitudeDegrees>42.0763801038265228271484375</LatitudeDegrees>
              <LongitudeDegrees>2.1486611478030681610107421875</LongitudeDegrees>
            </Position>
            <AltitudeMeters>1018.5999755859375</AltitudeMeters>
            <DistanceMeters>58924.41865734</DistanceMeters>
          </Trackpoint>
          <Trackpoint>
            <Time>2021-08-31T06:53:04.000Z</Time>
            <Position>
              <LatitudeDegrees>42.07618170417845249176025390625</LatitudeDegrees>
              <LongitudeDegrees>2.14867313392460346221923828125</LongitudeDegrees>
            </Position>
            <AltitudeMeters>1019.79998779296875</AltitudeMeters>
            <DistanceMeters>58946.523145715</DistanceMeters>
          </Trackpoint>
          <Trackpoint>
            <Time>2021-08-31T06:53:08.000Z</Time>
            <Position>
              <LatitudeDegrees>42.07603820599615573883056640625</LatitudeDegrees>
              <LongitudeDegrees>2.14871923439204692840576171875</LongitudeDegrees>
            </Position>
            <AltitudeMeters>1019.20001220703125</AltitudeMeters>
            <DistanceMeters>58962.942706072</DistanceMeters>
          </Trackpoint>
          <Trackpoint>
            <Time>2021-08-31T06:53:09.000Z</Time>
            <Position>
              <LatitudeDegrees>42.0760004036128520965576171875</LatitudeDegrees>
              <LongitudeDegrees>2.14874538592994213104248046875</LongitudeDegrees>
            </Position>
            <AltitudeMeters>1018.79998779296875</AltitudeMeters>
            <DistanceMeters>58967.673089717</DistanceMeters>
          </Trackpoint>
          <Trackpoint>
            <Time>2021-08-31T06:53:10.000Z</Time>
            <Position>
              <LatitudeDegrees>42.07596092484891414642333984375</LatitudeDegrees>
              <LongitudeDegrees>2.14876835234463214874267578125</LongitudeDegrees>
            </Position>
            <AltitudeMeters>1018.4000244140625</AltitudeMeters>
            <DistanceMeters>58972.460399401</DistanceMeters>
          </Trackpoint>
          <Trackpoint>
            <Time>2021-08-31T06:53:13.000Z</Time>
            <Position>
              <LatitudeDegrees>42.075816504657268524169921875</LatitudeDegrees>
              <LongitudeDegrees>2.14885099790990352630615234375</LongitudeDegrees>
            </Position>
            <AltitudeMeters>1017.20001220703125</AltitudeMeters>
            <DistanceMeters>58989.924644646</DistanceMeters>
          </Trackpoint>
          <Trackpoint>
            <Time>2021-08-31T06:53:19.000Z</Time>
            <Position>
              <LatitudeDegrees>42.0754894427955150604248046875</LatitudeDegrees>
              <LongitudeDegrees>2.1490944921970367431640625</LongitudeDegrees>
            </Position>
            <AltitudeMeters>1014.4000244140625</AltitudeMeters>
            <DistanceMeters>59031.515526382</DistanceMeters>
          </Trackpoint>
          <Trackpoint>
            <Time>2021-08-31T06:53:21.000Z</Time>
            <Position>
              <LatitudeDegrees>42.07537955604493618011474609375</LatitudeDegrees>
              <LongitudeDegrees>2.14917437173426151275634765625</LongitudeDegrees>
            </Position>
            <AltitudeMeters>1013.79998779296875</AltitudeMeters>
            <DistanceMeters>59045.412838172</DistanceMeters>
          </Trackpoint>
          <Trackpoint>
            <Time>2021-08-31T06:53:23.000Z</Time>
            <Position>
              <LatitudeDegrees>42.075285427272319793701171875</LatitudeDegrees>
              <LongitudeDegrees>2.1492881141602993011474609375</LongitudeDegrees>
            </Position>
            <AltitudeMeters>1012.20001220703125</AltitudeMeters>
            <DistanceMeters>59059.486419689</DistanceMeters>
          </Trackpoint>
          <Trackpoint>
            <Time>2021-08-31T06:53:25.000Z</Time>
            <Position>
              <LatitudeDegrees>42.07519012503325939178466796875</LatitudeDegrees>
              <LongitudeDegrees>2.14939917437732219696044921875</LongitudeDegrees>
            </Position>
            <AltitudeMeters>1010.4000244140625</AltitudeMeters>
            <DistanceMeters>59073.511796164</DistanceMeters>
          </Trackpoint>
          <Trackpoint>
            <Time>2021-08-31T06:53:27.000Z</Time>
            <Position>
              <LatitudeDegrees>42.0750636421144008636474609375</LatitudeDegrees>
              <LongitudeDegrees>2.14945114217698574066162109375</LongitudeDegrees>
            </Position>
            <AltitudeMeters>1009.4000244140625</AltitudeMeters>
            <DistanceMeters>59088.230204158</DistanceMeters>
          </Trackpoint>
          <Trackpoint>
            <Time>2021-08-31T06:53:30.000Z</Time>
            <Position>
              <LatitudeDegrees>42.07486406899988651275634765625</LatitudeDegrees>
              <LongitudeDegrees>2.1495003439486026763916015625</LongitudeDegrees>
            </Position>
            <AltitudeMeters>1008.4000244140625</AltitudeMeters>
            <DistanceMeters>59110.811998748</DistanceMeters>
          </Trackpoint>
          <Trackpoint>
            <Time>2021-08-31T06:53:31.000Z</Time>
            <Position>
              <LatitudeDegrees>42.07480472512543201446533203125</LatitudeDegrees>
              <LongitudeDegrees>2.14952699840068817138671875</LongitudeDegrees>
            </Position>
            <AltitudeMeters>1007.4000244140625</AltitudeMeters>
            <DistanceMeters>59117.774286472</DistanceMeters>
          </Trackpoint>
          <Trackpoint>
            <Time>2021-08-31T06:53:35.000Z</Time>
            <Position>
              <LatitudeDegrees>42.07457355223596096038818359375</LatitudeDegrees>
              <LongitudeDegrees>2.1496336162090301513671875</LongitudeDegrees>
            </Position>
            <AltitudeMeters>1005</AltitudeMeters>
            <DistanceMeters>59144.97019501</DistanceMeters>
          </Trackpoint>
          <Trackpoint>
            <Time>2021-08-31T06:53:37.000Z</Time>
            <Position>
              <LatitudeDegrees>42.07446676678955554962158203125</LatitudeDegrees>
              <LongitudeDegrees>2.14970729313790798187255859375</LongitudeDegrees>
            </Position>
            <AltitudeMeters>1006.79998779296875</AltitudeMeters>
            <DistanceMeters>59158.324068965</DistanceMeters>
          </Trackpoint>
          <Trackpoint>
            <Time>2021-08-31T06:53:43.000Z</Time>
            <Position>
              <LatitudeDegrees>42.0741941034793853759765625</LatitudeDegrees>
              <LongitudeDegrees>2.149962522089481353759765625</LongitudeDegrees>
            </Position>
            <AltitudeMeters>1010.5999755859375</AltitudeMeters>
            <DistanceMeters>59195.278344234</DistanceMeters>
          </Trackpoint>
          <Trackpoint>
            <Time>2021-08-31T06:53:44.000Z</Time>
            <Position>
              <LatitudeDegrees>42.07415713928639888763427734375</LatitudeDegrees>
              <LongitudeDegrees>2.15000904165208339691162109375</LongitudeDegrees>
            </Position>
            <AltitudeMeters>1010</AltitudeMeters>
            <DistanceMeters>59200.908225966</DistanceMeters>
          </Trackpoint>
          <Trackpoint>
            <Time>2021-08-31T06:53:46.000Z</Time>
            <Position>
              <LatitudeDegrees>42.07410466857254505157470703125</LatitudeDegrees>
              <LongitudeDegrees>2.15011079795658588409423828125</LongitudeDegrees>
            </Position>
            <AltitudeMeters>1009.5999755859375</AltitudeMeters>
            <DistanceMeters>59211.144680775</DistanceMeters>
          </Trackpoint>
          <Trackpoint>
            <Time>2021-08-31T06:53:47.000Z</Time>
            <Position>
              <LatitudeDegrees>42.0740903355181217193603515625</LatitudeDegrees>
              <LongitudeDegrees>2.1501591615378856658935546875</LongitudeDegrees>
            </Position>
            <AltitudeMeters>1008.79998779296875</AltitudeMeters>
            <DistanceMeters>59215.44719826</DistanceMeters>
          </Trackpoint>
          <Trackpoint>
            <Time>2021-08-31T06:53:52.000Z</Time>
            <Position>
              <LatitudeDegrees>42.07400408573448657989501953125</LatitudeDegrees>
              <LongitudeDegrees>2.1503992192447185516357421875</LongitudeDegrees>
            </Position>
            <AltitudeMeters>1005</AltitudeMeters>
            <DistanceMeters>59237.48110463</DistanceMeters>
          </Trackpoint>
          <Trackpoint>
            <Time>2021-08-31T06:53:58.000Z</Time>
            <Position>
              <LatitudeDegrees>42.07389344461262226104736328125</LatitudeDegrees>
              <LongitudeDegrees>2.15074128471314907073974609375</LongitudeDegrees>
            </Position>
            <AltitudeMeters>1002.20001220703125</AltitudeMeters>
            <DistanceMeters>59268.308157438</DistanceMeters>
          </Trackpoint>
          <Trackpoint>
            <Time>2021-08-31T06:53:59.000Z</Time>
            <Position>
              <LatitudeDegrees>42.07386712543666362762451171875</LatitudeDegrees>
              <LongitudeDegrees>2.15079660527408123016357421875</LongitudeDegrees>
            </Position>
            <AltitudeMeters>1002.20001220703125</AltitudeMeters>
            <DistanceMeters>59273.737169274</DistanceMeters>
          </Trackpoint>
          <Trackpoint>
            <Time>2021-08-31T06:54:03.000Z</Time>
            <Position>
              <LatitudeDegrees>42.073738463222980499267578125</LatitudeDegrees>
              <LongitudeDegrees>2.1510194800794124603271484375</LongitudeDegrees>
            </Position>
            <AltitudeMeters>1000.20001220703125</AltitudeMeters>
            <DistanceMeters>59297.063469585</DistanceMeters>
          </Trackpoint>
          <Trackpoint>
            <Time>2021-08-31T06:54:06.000Z</Time>
            <Position>
              <LatitudeDegrees>42.07357929088175296783447265625</LatitudeDegrees>
              <LongitudeDegrees>2.1511344797909259796142578125</LongitudeDegrees>
            </Position>
            <AltitudeMeters>1001.20001220703125</AltitudeMeters>
            <DistanceMeters>59317.166505206</DistanceMeters>
          </Trackpoint>
          <Trackpoint>
            <Time>2021-08-31T06:54:09.000Z</Time>
            <Position>
              <LatitudeDegrees>42.073377706110477447509765625</LatitudeDegrees>
              <LongitudeDegrees>2.15122642926871776580810546875</LongitudeDegrees>
            </Position>
            <AltitudeMeters>1003.4000244140625</AltitudeMeters>
            <DistanceMeters>59340.854475151</DistanceMeters>
          </Trackpoint>
          <Trackpoint>
            <Time>2021-08-31T06:54:11.000Z</Time>
            <Position>
              <LatitudeDegrees>42.07325658760964870452880859375</LatitudeDegrees>
              <LongitudeDegrees>2.15131108649075031280517578125</LongitudeDegrees>
            </Position>
            <AltitudeMeters>1003.79998779296875</AltitudeMeters>
            <DistanceMeters>59356.041516092</DistanceMeters>
          </Trackpoint>
          <Trackpoint>
            <Time>2021-08-31T06:54:15.000Z</Time>
            <Position>
              <LatitudeDegrees>42.0730335451662540435791015625</LatitudeDegrees>
              <LongitudeDegrees>2.15151895768940448760986328125</LongitudeDegrees>
            </Position>
            <AltitudeMeters>998.20001220703125</AltitudeMeters>
            <DistanceMeters>59386.22801993</DistanceMeters>
          </Trackpoint>
          <Trackpoint>
            <Time>2021-08-31T06:54:18.000Z</Time>
            <Position>
              <LatitudeDegrees>42.07290974445641040802001953125</LatitudeDegrees>
              <LongitudeDegrees>2.15174325741827487945556640625</LongitudeDegrees>
            </Position>
            <AltitudeMeters>994.79998779296875</AltitudeMeters>
            <DistanceMeters>59409.320880179</DistanceMeters>
          </Trackpoint>
          <Trackpoint>
            <Time>2021-08-31T06:54:20.000Z</Time>
            <Position>
              <LatitudeDegrees>42.07283221185207366943359375</LatitudeDegrees>
              <LongitudeDegrees>2.151894383132457733154296875</LongitudeDegrees>
            </Position>
            <AltitudeMeters>991.20001220703125</AltitudeMeters>
            <DistanceMeters>59424.498702162</DistanceMeters>
          </Trackpoint>
          <Trackpoint>
            <Time>2021-08-31T06:54:22.000Z</Time>
            <Position>
              <LatitudeDegrees>42.0727378316223621368408203125</LatitudeDegrees>
              <LongitudeDegrees>2.15201608836650848388671875</LongitudeDegrees>
            </Position>
            <AltitudeMeters>990.4000244140625</AltitudeMeters>
            <DistanceMeters>59439.039963112</DistanceMeters>
          </Trackpoint>
          <Trackpoint>
            <Time>2021-08-31T06:54:24.000Z</Time>
            <Position>
              <LatitudeDegrees>42.072634398937225341796875</LatitudeDegrees>
              <LongitudeDegrees>2.15214617550373077392578125</LongitudeDegrees>
            </Position>
            <AltitudeMeters>991.5999755859375</AltitudeMeters>
            <DistanceMeters>59454.789476433</DistanceMeters>
          </Trackpoint>
          <Trackpoint>
            <Time>2021-08-31T06:54:26.000Z</Time>
            <Position>
              <LatitudeDegrees>42.0725269429385662078857421875</LatitudeDegrees>
              <LongitudeDegrees>2.1522435732185840606689453125</LongitudeDegrees>
            </Position>
            <AltitudeMeters>993.4000244140625</AltitudeMeters>
            <DistanceMeters>59469.204750247</DistanceMeters>
          </Trackpoint>
          <Trackpoint>
            <Time>2021-08-31T06:54:29.000Z</Time>
            <Position>
              <LatitudeDegrees>42.0724156312644481658935546875</LatitudeDegrees>
              <LongitudeDegrees>2.15235295705497264862060546875</LongitudeDegrees>
            </Position>
            <AltitudeMeters>994.4000244140625</AltitudeMeters>
            <DistanceMeters>59484.539718481</DistanceMeters>
          </Trackpoint>
          <Trackpoint>
            <Time>2021-08-31T06:54:33.000Z</Time>
            <Position>
              <LatitudeDegrees>42.0723110251128673553466796875</LatitudeDegrees>
              <LongitudeDegrees>2.152522020041942596435546875</LongitudeDegrees>
            </Position>
            <AltitudeMeters>992</AltitudeMeters>
            <DistanceMeters>59502.723869251</DistanceMeters>
          </Trackpoint>
          <Trackpoint>
            <Time>2021-08-31T06:54:35.000Z</Time>
            <Position>
              <LatitudeDegrees>42.07227640785276889801025390625</LatitudeDegrees>
              <LongitudeDegrees>2.15264515019953250885009765625</LongitudeDegrees>
            </Position>
            <AltitudeMeters>990.79998779296875</AltitudeMeters>
            <DistanceMeters>59513.601834214</DistanceMeters>
          </Trackpoint>
          <Trackpoint>
            <Time>2021-08-31T06:54:37.000Z</Time>
            <Position>
              <LatitudeDegrees>42.0722540281713008880615234375</LatitudeDegrees>
              <LongitudeDegrees>2.15275679714977741241455078125</LongitudeDegrees>
            </Position>
            <AltitudeMeters>989.5999755859375</AltitudeMeters>
            <DistanceMeters>59523.156627401</DistanceMeters>
          </Trackpoint>
          <Trackpoint>
            <Time>2021-08-31T06:54:41.000Z</Time>
            <Position>
              <LatitudeDegrees>42.072232067584991455078125</LatitudeDegrees>
              <LongitudeDegrees>2.15295561589300632476806640625</LongitudeDegrees>
            </Position>
            <AltitudeMeters>988</AltitudeMeters>
            <DistanceMeters>59539.764024091</DistanceMeters>
          </Trackpoint>
          <Trackpoint>
            <Time>2021-08-31T06:54:42.000Z</Time>
            <Position>
              <LatitudeDegrees>42.07223684526979923248291015625</LatitudeDegrees>
              <LongitudeDegrees>2.15299777686595916748046875</LongitudeDegrees>
            </Position>
            <AltitudeMeters>987.5999755859375</AltitudeMeters>
            <DistanceMeters>59543.288990075</DistanceMeters>
          </Trackpoint>
          <Trackpoint>
            <Time>2021-08-31T06:54:49.000Z</Time>
            <Position>
              <LatitudeDegrees>42.072257213294506072998046875</LatitudeDegrees>
              <LongitudeDegrees>2.153298854827880859375</LongitudeDegrees>
            </Position>
            <AltitudeMeters>988.79998779296875</AltitudeMeters>
            <DistanceMeters>59568.267101326</DistanceMeters>
          </Trackpoint>
          <Trackpoint>
            <Time>2021-08-31T06:54:53.000Z</Time>
            <Position>
              <LatitudeDegrees>42.07219242118299007415771484375</LatitudeDegrees>
              <LongitudeDegrees>2.153437994420528411865234375</LongitudeDegrees>
            </Position>
            <AltitudeMeters>988.4000244140625</AltitudeMeters>
            <DistanceMeters>59581.836969374</DistanceMeters>
          </Trackpoint>
          <Trackpoint>
            <Time>2021-08-31T06:54:57.000Z</Time>
            <Position>
              <LatitudeDegrees>42.07217146642506122589111328125</LatitudeDegrees>
              <LongitudeDegrees>2.15361334383487701416015625</LongitudeDegrees>
            </Position>
            <AltitudeMeters>987.5999755859375</AltitudeMeters>
            <DistanceMeters>59596.510829562</DistanceMeters>
          </Trackpoint>
          <Trackpoint>
            <Time>2021-08-31T06:55:01.000Z</Time>
            <Position>
              <LatitudeDegrees>42.07212603650987148284912109375</LatitudeDegrees>
              <LongitudeDegrees>2.15376396663486957550048828125</LongitudeDegrees>
            </Position>
            <AltitudeMeters>986.79998779296875</AltitudeMeters>
            <DistanceMeters>59609.943587562</DistanceMeters>
          </Trackpoint>
          <Trackpoint>
            <Time>2021-08-31T06:55:03.000Z</Time>
            <Position>
              <LatitudeDegrees>42.0721061713993549346923828125</LatitudeDegrees>
              <LongitudeDegrees>2.15382121503353118896484375</LongitudeDegrees>
            </Position>
            <AltitudeMeters>987.20001220703125</AltitudeMeters>
            <DistanceMeters>59615.164871004</DistanceMeters>
          </Trackpoint>
          <Trackpoint>
            <Time>2021-08-31T06:55:05.000Z</Time>
            <Position>
              <LatitudeDegrees>42.0721004717051982879638671875</LatitudeDegrees>
              <LongitudeDegrees>2.15389254502952098846435546875</LongitudeDegrees>
            </Position>
            <AltitudeMeters>988.20001220703125</AltitudeMeters>
            <DistanceMeters>59621.091674305</DistanceMeters>
          </Trackpoint>
          <Trackpoint>
            <Time>2021-08-31T06:55:09.000Z</Time>
            <Position>
              <LatitudeDegrees>42.07209460437297821044921875</LatitudeDegrees>
              <LongitudeDegrees>2.15405884198844432830810546875</LongitudeDegrees>
            </Position>
            <AltitudeMeters>990.4000244140625</AltitudeMeters>
            <DistanceMeters>59634.846606572</DistanceMeters>
          </Trackpoint>
          <Trackpoint>
            <Time>2021-08-31T06:55:10.000Z</Time>
            <Position>
              <LatitudeDegrees>42.07208278588950634002685546875</LatitudeDegrees>
              <LongitudeDegrees>2.15408432297408580780029296875</LongitudeDegrees>
            </Position>
            <AltitudeMeters>991</AltitudeMeters>
            <DistanceMeters>59637.328241544</DistanceMeters>
          </Trackpoint>
          <Trackpoint>
            <Time>2021-08-31T06:55:15.000Z</Time>
            <Position>
              <LatitudeDegrees>42.072039954364299774169921875</LatitudeDegrees>
              <LongitudeDegrees>2.1542726643383502960205078125</LongitudeDegrees>
            </Position>
            <AltitudeMeters>990.5999755859375</AltitudeMeters>
            <DistanceMeters>59653.603074946</DistanceMeters>
          </Trackpoint>
          <Trackpoint>
            <Time>2021-08-31T06:55:20.000Z</Time>
            <Position>
              <LatitudeDegrees>42.07203333266079425811767578125</LatitudeDegrees>
              <LongitudeDegrees>2.15449905954301357269287109375</LongitudeDegrees>
            </Position>
            <AltitudeMeters>988.20001220703125</AltitudeMeters>
            <DistanceMeters>59672.322131715</DistanceMeters>
          </Trackpoint>
          <Trackpoint>
            <Time>2021-08-31T06:55:25.000Z</Time>
            <Position>
              <LatitudeDegrees>42.0719650201499462127685546875</LatitudeDegrees>
              <LongitudeDegrees>2.1546967886388301849365234375</LongitudeDegrees>
            </Position>
            <AltitudeMeters>988.79998779296875</AltitudeMeters>
            <DistanceMeters>59690.34116134</DistanceMeters>
          </Trackpoint>
          <Trackpoint>
            <Time>2021-08-31T06:55:30.000Z</Time>
            <Position>
              <LatitudeDegrees>42.07191028632223606109619140625</LatitudeDegrees>
              <LongitudeDegrees>2.15487264096736907958984375</LongitudeDegrees>
            </Position>
            <AltitudeMeters>989.4000244140625</AltitudeMeters>
            <DistanceMeters>59706.095547432</DistanceMeters>
          </Trackpoint>
          <Trackpoint>
            <Time>2021-08-31T06:55:31.000Z</Time>
            <Position>
              <LatitudeDegrees>42.07189343869686126708984375</LatitudeDegrees>
              <LongitudeDegrees>2.15489820577204227447509765625</LongitudeDegrees>
            </Position>
            <AltitudeMeters>989.5999755859375</AltitudeMeters>
            <DistanceMeters>59708.920894769</DistanceMeters>
          </Trackpoint>
          <Trackpoint>
            <Time>2021-08-31T06:55:34.000Z</Time>
            <Position>
              <LatitudeDegrees>42.0718366093933582305908203125</LatitudeDegrees>
              <LongitudeDegrees>2.154960148036479949951171875</LongitudeDegrees>
            </Position>
            <AltitudeMeters>990.79998779296875</AltitudeMeters>
            <DistanceMeters>59717.057756602</DistanceMeters>
          </Trackpoint>
          <Trackpoint>
            <Time>2021-08-31T06:55:35.000Z</Time>
            <Position>
              <LatitudeDegrees>42.0718138106167316436767578125</LatitudeDegrees>
              <LongitudeDegrees>2.15496517717838287353515625</LongitudeDegrees>
            </Position>
            <AltitudeMeters>991.4000244140625</AltitudeMeters>
            <DistanceMeters>59719.628751732</DistanceMeters>
          </Trackpoint>
          <Trackpoint>
            <Time>2021-08-31T06:55:37.000Z</Time>
            <Position>
              <LatitudeDegrees>42.071768380701541900634765625</LatitudeDegrees>
              <LongitudeDegrees>2.15495553798973560333251953125</LongitudeDegrees>
            </Position>
            <AltitudeMeters>992.79998779296875</AltitudeMeters>
            <DistanceMeters>59724.747861209</DistanceMeters>
          </Trackpoint>
          <Trackpoint>
            <Time>2021-08-31T06:55:39.000Z</Time>
            <Position>
              <LatitudeDegrees>42.07173074595630168914794921875</LatitudeDegrees>
              <LongitudeDegrees>2.1549244411289691925048828125</LongitudeDegrees>
            </Position>
            <AltitudeMeters>994.20001220703125</AltitudeMeters>
            <DistanceMeters>59729.661762349</DistanceMeters>
          </Trackpoint>
          <Trackpoint>
            <Time>2021-08-31T06:55:44.000Z</Time>
            <Position>
              <LatitudeDegrees>42.07161306403577327728271484375</LatitudeDegrees>
              <LongitudeDegrees>2.1548666059970855712890625</LongitudeDegrees>
            </Position>
            <AltitudeMeters>998</AltitudeMeters>
            <DistanceMeters>59743.60416012</DistanceMeters>
          </Trackpoint>
          <Trackpoint>
            <Time>2021-08-31T06:55:45.000Z</Time>
            <Position>
              <LatitudeDegrees>42.07159663550555706024169921875</LatitudeDegrees>
              <LongitudeDegrees>2.154867947101593017578125</LongitudeDegrees>
            </Position>
            <AltitudeMeters>998.4000244140625</AltitudeMeters>
            <DistanceMeters>59745.436969013</DistanceMeters>
          </Trackpoint>
          <Trackpoint>
            <Time>2021-08-31T06:55:48.000Z</Time>
            <Position>
              <LatitudeDegrees>42.0715358667075634002685546875</LatitudeDegrees>
              <LongitudeDegrees>2.15492133982479572296142578125</LongitudeDegrees>
            </Position>
            <AltitudeMeters>997.4000244140625</AltitudeMeters>
            <DistanceMeters>59753.512562618</DistanceMeters>
          </Trackpoint>
          <Trackpoint>
            <Time>2021-08-31T06:55:53.000Z</Time>
            <Position>
              <LatitudeDegrees>42.07140217535197734832763671875</LatitudeDegrees>
              <LongitudeDegrees>2.15501035563647747039794921875</LongitudeDegrees>
            </Position>
            <AltitudeMeters>993.20001220703125</AltitudeMeters>
            <DistanceMeters>59770.110985203</DistanceMeters>
          </Trackpoint>
          <Trackpoint>
            <Time>2021-08-31T06:55:57.000Z</Time>
            <Position>
              <LatitudeDegrees>42.07126915454864501953125</LatitudeDegrees>
              <LongitudeDegrees>2.15505503118038177490234375</LongitudeDegrees>
            </Position>
            <AltitudeMeters>989.79998779296875</AltitudeMeters>
            <DistanceMeters>59785.369802032</DistanceMeters>
          </Trackpoint>
          <Trackpoint>
            <Time>2021-08-31T06:55:58.000Z</Time>
            <Position>
              <LatitudeDegrees>42.07124057225883007049560546875</LatitudeDegrees>
              <LongitudeDegrees>2.1550478227436542510986328125</LongitudeDegrees>
            </Position>
            <AltitudeMeters>990</AltitudeMeters>
            <DistanceMeters>59788.6062953</DistanceMeters>
          </Trackpoint>
          <Trackpoint>
            <Time>2021-08-31T06:56:00.000Z</Time>
            <Position>
              <LatitudeDegrees>42.07118189893662929534912109375</LatitudeDegrees>
              <LongitudeDegrees>2.1550240181386470794677734375</LongitudeDegrees>
            </Position>
            <AltitudeMeters>990.4000244140625</AltitudeMeters>
            <DistanceMeters>59795.426407012</DistanceMeters>
          </Trackpoint>
          <Trackpoint>
            <Time>2021-08-31T06:56:04.000Z</Time>
            <Position>
              <LatitudeDegrees>42.07103337161242961883544921875</LatitudeDegrees>
              <LongitudeDegrees>2.15502175502479076385498046875</LongitudeDegrees>
            </Position>
            <AltitudeMeters>989</AltitudeMeters>
            <DistanceMeters>59811.958870646</DistanceMeters>
          </Trackpoint>
          <Trackpoint>
            <Time>2021-08-31T06:56:05.000Z</Time>
            <Position>
              <LatitudeDegrees>42.07099481485784053802490234375</LatitudeDegrees>
              <LongitudeDegrees>2.155020497739315032958984375</LongitudeDegrees>
            </Position>
            <AltitudeMeters>988.79998779296875</AltitudeMeters>
            <DistanceMeters>59816.250881357</DistanceMeters>
          </Trackpoint>
          <Trackpoint>
            <Time>2021-08-31T06:56:07.000Z</Time>
            <Position>
              <LatitudeDegrees>42.0709213055670261383056640625</LatitudeDegrees>
              <LongitudeDegrees>2.15505343861877918243408203125</LongitudeDegrees>
            </Position>
            <AltitudeMeters>986.5999755859375</AltitudeMeters>
            <DistanceMeters>59824.873213951</DistanceMeters>
          </Trackpoint>
          <Trackpoint>
            <Time>2021-08-31T06:56:08.000Z</Time>
            <Position>
              <LatitudeDegrees>42.07087478600442409515380859375</LatitudeDegrees>
              <LongitudeDegrees>2.1550676040351390838623046875</LongitudeDegrees>
            </Position>
            <AltitudeMeters>985.5999755859375</AltitudeMeters>
            <DistanceMeters>59830.181967909</DistanceMeters>
          </Trackpoint>
          <Trackpoint>
            <Time>2021-08-31T06:56:14.000Z</Time>
            <Position>
              <LatitudeDegrees>42.0706215687096118927001953125</LatitudeDegrees>
              <LongitudeDegrees>2.15514245443046092987060546875</LongitudeDegrees>
            </Position>
            <AltitudeMeters>979.79998779296875</AltitudeMeters>
            <DistanceMeters>59859.035996882</DistanceMeters>
          </Trackpoint>
          <Trackpoint>
            <Time>2021-08-31T06:56:18.000Z</Time>
            <Position>
              <LatitudeDegrees>42.07050405442714691162109375</LatitudeDegrees>
              <LongitudeDegrees>2.1552402712404727935791015625</LongitudeDegrees>
            </Position>
            <AltitudeMeters>973.79998779296875</AltitudeMeters>
            <DistanceMeters>59874.410955131</DistanceMeters>
          </Trackpoint>
          <Trackpoint>
            <Time>2021-08-31T06:56:22.000Z</Time>
            <Position>
              <LatitudeDegrees>42.0703908987343311309814453125</LatitudeDegrees>
              <LongitudeDegrees>2.15529601089656352996826171875</LongitudeDegrees>
            </Position>
            <AltitudeMeters>969.20001220703125</AltitudeMeters>
            <DistanceMeters>59887.820837394</DistanceMeters>
          </Trackpoint>
          <Trackpoint>
            <Time>2021-08-31T06:56:23.000Z</Time>
            <Position>
              <LatitudeDegrees>42.0703694410622119903564453125</LatitudeDegrees>
              <LongitudeDegrees>2.15531386435031890869140625</LongitudeDegrees>
            </Position>
            <AltitudeMeters>968.20001220703125</AltitudeMeters>
            <DistanceMeters>59890.626942641</DistanceMeters>
          </Trackpoint>
          <Trackpoint>
            <Time>2021-08-31T06:56:25.000Z</Time>
            <Position>
              <LatitudeDegrees>42.07032702863216400146484375</LatitudeDegrees>
              <LongitudeDegrees>2.15531126596033573150634765625</LongitudeDegrees>
            </Position>
            <AltitudeMeters>967.20001220703125</AltitudeMeters>
            <DistanceMeters>59895.351595958</DistanceMeters>
          </Trackpoint>
          <Trackpoint>
            <Time>2021-08-31T06:56:26.000Z</Time>
            <Position>
              <LatitudeDegrees>42.07030096091330051422119140625</LatitudeDegrees>
              <LongitudeDegrees>2.15530925430357456207275390625</LongitudeDegrees>
            </Position>
            <AltitudeMeters>966.79998779296875</AltitudeMeters>
            <DistanceMeters>59898.258854384</DistanceMeters>
          </Trackpoint>
          <Trackpoint>
            <Time>2021-08-31T06:56:29.000Z</Time>
            <Position>
              <LatitudeDegrees>42.07022854126989841461181640625</LatitudeDegrees>
              <LongitudeDegrees>2.1553066559135913848876953125</LongitudeDegrees>
            </Position>
            <AltitudeMeters>966</AltitudeMeters>
            <DistanceMeters>59906.322138479</DistanceMeters>
          </Trackpoint>
          <Trackpoint>
            <Time>2021-08-31T06:56:32.000Z</Time>
            <Position>
              <LatitudeDegrees>42.0701515115797519683837890625</LatitudeDegrees>
              <LongitudeDegrees>2.15526784770190715789794921875</LongitudeDegrees>
            </Position>
            <AltitudeMeters>966.20001220703125</AltitudeMeters>
            <DistanceMeters>59915.475337332</DistanceMeters>
          </Trackpoint>
          <Trackpoint>
            <Time>2021-08-31T06:56:33.000Z</Time>
            <Position>
              <LatitudeDegrees>42.07012326456606388092041015625</LatitudeDegrees>
              <LongitudeDegrees>2.1552582085132598876953125</LongitudeDegrees>
            </Position>
            <AltitudeMeters>966</AltitudeMeters>
            <DistanceMeters>59918.717405959</DistanceMeters>
          </Trackpoint>
          <Trackpoint>
            <Time>2021-08-31T06:56:38.000Z</Time>
            <Position>
              <LatitudeDegrees>42.06998731009662151336669921875</LatitudeDegrees>
              <LongitudeDegrees>2.15525024570524692535400390625</LongitudeDegrees>
            </Position>
            <AltitudeMeters>965</AltitudeMeters>
            <DistanceMeters>59933.863364561</DistanceMeters>
          </Trackpoint>
          <Trackpoint>
            <Time>2021-08-31T06:56:42.000Z</Time>
            <Position>
              <LatitudeDegrees>42.06990818493068218231201171875</LatitudeDegrees>
              <LongitudeDegrees>2.15526768006384372711181640625</LongitudeDegrees>
            </Position>
            <AltitudeMeters>963.4000244140625</AltitudeMeters>
            <DistanceMeters>59942.786772771</DistanceMeters>
          </Trackpoint>
          <Trackpoint>
            <Time>2021-08-31T06:56:43.000Z</Time>
            <Position>
              <LatitudeDegrees>42.0698799379169940948486328125</LatitudeDegrees>
              <LongitudeDegrees>2.15525845997035503387451171875</LongitudeDegrees>
            </Position>
            <AltitudeMeters>963</AltitudeMeters>
            <DistanceMeters>59946.020474755</DistanceMeters>
          </Trackpoint>
          <Trackpoint>
            <Time>2021-08-31T06:56:46.000Z</Time>
            <Position>
              <LatitudeDegrees>42.06978798843920230865478515625</LatitudeDegrees>
              <LongitudeDegrees>2.1552466414868831634521484375</LongitudeDegrees>
            </Position>
            <AltitudeMeters>960.79998779296875</AltitudeMeters>
            <DistanceMeters>59956.30182072</DistanceMeters>
          </Trackpoint>
          <Trackpoint>
            <Time>2021-08-31T06:56:48.000Z</Time>
            <Position>
              <LatitudeDegrees>42.0697270520031452178955078125</LatitudeDegrees>
              <LongitudeDegrees>2.15525125153362751007080078125</LongitudeDegrees>
            </Position>
            <AltitudeMeters>959.20001220703125</AltitudeMeters>
            <DistanceMeters>59963.094735457</DistanceMeters>
          </Trackpoint>
          <Trackpoint>
            <Time>2021-08-31T06:56:50.000Z</Time>
            <Position>
              <LatitudeDegrees>42.069672234356403350830078125</LatitudeDegrees>
              <LongitudeDegrees>2.155270613729953765869140625</LongitudeDegrees>
            </Position>
            <AltitudeMeters>957.4000244140625</AltitudeMeters>
            <DistanceMeters>59969.401675027</DistanceMeters>
          </Trackpoint>
          <Trackpoint>
            <Time>2021-08-31T06:56:56.000Z</Time>
            <Position>
              <LatitudeDegrees>42.06951473839581012725830078125</LatitudeDegrees>
              <LongitudeDegrees>2.1552721224725246429443359375</LongitudeDegrees>
            </Position>
            <AltitudeMeters>953.4000244140625</AltitudeMeters>
            <DistanceMeters>59986.931463999</DistanceMeters>
          </Trackpoint>
          <Trackpoint>
            <Time>2021-08-31T06:57:00.000Z</Time>
            <Position>
              <LatitudeDegrees>42.06940166652202606201171875</LatitudeDegrees>
              <LongitudeDegrees>2.155334986746311187744140625</LongitudeDegrees>
            </Position>
            <AltitudeMeters>950.5999755859375</AltitudeMeters>
            <DistanceMeters>60000.546507489</DistanceMeters>
          </Trackpoint>
          <Trackpoint>
            <Time>2021-08-31T06:57:02.000Z</Time>
            <Position>
              <LatitudeDegrees>42.06934810616075992584228515625</LatitudeDegrees>
              <LongitudeDegrees>2.15541956014931201934814453125</LongitudeDegrees>
            </Position>
            <AltitudeMeters>949.79998779296875</AltitudeMeters>
            <DistanceMeters>60009.732204757</DistanceMeters>
          </Trackpoint>
          <Trackpoint>
            <Time>2021-08-31T06:57:04.000Z</Time>
            <Position>
              <LatitudeDegrees>42.06927602179348468780517578125</LatitudeDegrees>
              <LongitudeDegrees>2.1555091626942157745361328125</LongitudeDegrees>
            </Position>
            <AltitudeMeters>948.79998779296875</AltitudeMeters>
            <DistanceMeters>60020.64870231</DistanceMeters>
          </Trackpoint>
          <Trackpoint>
            <Time>2021-08-31T06:57:08.000Z</Time>
            <Position>
              <LatitudeDegrees>42.06915683113038539886474609375</LatitudeDegrees>
              <LongitudeDegrees>2.155645787715911865234375</LongitudeDegrees>
            </Position>
            <AltitudeMeters>947.20001220703125</AltitudeMeters>
            <DistanceMeters>60038.067386776</DistanceMeters>
          </Trackpoint>
          <Trackpoint>
            <Time>2021-08-31T06:57:15.000Z</Time>
            <Position>
              <LatitudeDegrees>42.06898064352571964263916015625</LatitudeDegrees>
              <LongitudeDegrees>2.1558769606053829193115234375</LongitudeDegrees>
            </Position>
            <AltitudeMeters>943.5999755859375</AltitudeMeters>
            <DistanceMeters>60065.442008669</DistanceMeters>
          </Trackpoint>
          <Trackpoint>
            <Time>2021-08-31T06:57:19.000Z</Time>
            <Position>
              <LatitudeDegrees>42.068906128406524658203125</LatitudeDegrees>
              <LongitudeDegrees>2.15605088509619235992431640625</LongitudeDegrees>
            </Position>
            <AltitudeMeters>939.79998779296875</AltitudeMeters>
            <DistanceMeters>60082.033357327</DistanceMeters>
          </Trackpoint>
          <Trackpoint>
            <Time>2021-08-31T06:57:20.000Z</Time>
            <Position>
              <LatitudeDegrees>42.06888793967664241790771484375</LatitudeDegrees>
              <LongitudeDegrees>2.1560995839536190032958984375</LongitudeDegrees>
            </Position>
            <AltitudeMeters>938.79998779296875</AltitudeMeters>
            <DistanceMeters>60086.536861706</DistanceMeters>
          </Trackpoint>
          <Trackpoint>
            <Time>2021-08-31T06:57:21.000Z</Time>
            <Position>
              <LatitudeDegrees>42.068864889442920684814453125</LatitudeDegrees>
              <LongitudeDegrees>2.15614811517298221588134765625</LongitudeDegrees>
            </Position>
            <AltitudeMeters>937.79998779296875</AltitudeMeters>
            <DistanceMeters>60091.297690613</DistanceMeters>
          </Trackpoint>
          <Trackpoint>
            <Time>2021-08-31T06:57:24.000Z</Time>
            <Position>
              <LatitudeDegrees>42.0687782205641269683837890625</LatitudeDegrees>
              <LongitudeDegrees>2.1562920324504375457763671875</LongitudeDegrees>
            </Position>
            <AltitudeMeters>934.5999755859375</AltitudeMeters>
            <DistanceMeters>60106.609676271</DistanceMeters>
          </Trackpoint>
          <Trackpoint>
            <Time>2021-08-31T06:57:25.000Z</Time>
            <Position>
              <LatitudeDegrees>42.0687446929514408111572265625</LatitudeDegrees>
              <LongitudeDegrees>2.1563366241753101348876953125</LongitudeDegrees>
            </Position>
            <AltitudeMeters>935</AltitudeMeters>
            <DistanceMeters>60111.853394681</DistanceMeters>
          </Trackpoint>
          <Trackpoint>
            <Time>2021-08-31T06:57:26.000Z</Time>
            <Position>
              <LatitudeDegrees>42.0687111653387546539306640625</LatitudeDegrees>
              <LongitudeDegrees>2.15637861751019954681396484375</LongitudeDegrees>
            </Position>
            <AltitudeMeters>935.5999755859375</AltitudeMeters>
            <DistanceMeters>60116.947748389</DistanceMeters>
          </Trackpoint>
          <Trackpoint>
            <Time>2021-08-31T06:57:29.000Z</Time>
            <Position>
              <LatitudeDegrees>42.0686352252960205078125</LatitudeDegrees>
              <LongitudeDegrees>2.15650074183940887451171875</LongitudeDegrees>
            </Position>
            <AltitudeMeters>936.5999755859375</AltitudeMeters>
            <DistanceMeters>60130.110234729</DistanceMeters>
          </Trackpoint>
          <Trackpoint>
            <Time>2021-08-31T06:57:33.000Z</Time>
            <Position>
              <LatitudeDegrees>42.06856104545295238494873046875</LatitudeDegrees>
              <LongitudeDegrees>2.15668371878564357757568359375</LongitudeDegrees>
            </Position>
            <AltitudeMeters>935.79998779296875</AltitudeMeters>
            <DistanceMeters>60147.336300503</DistanceMeters>
          </Trackpoint>
          <Trackpoint>
            <Time>2021-08-31T06:57:37.000Z</Time>
            <Position>
              <LatitudeDegrees>42.06846599467098712921142578125</LatitudeDegrees>
              <LongitudeDegrees>2.15682671405375003814697265625</LongitudeDegrees>
            </Position>
            <AltitudeMeters>933.4000244140625</AltitudeMeters>
            <DistanceMeters>60163.195800787</DistanceMeters>
          </Trackpoint>
          <Trackpoint>
            <Time>2021-08-31T06:57:39.000Z</Time>
            <Position>
              <LatitudeDegrees>42.068423666059970855712890625</LatitudeDegrees>
              <LongitudeDegrees>2.156914137303829193115234375</LongitudeDegrees>
            </Position>
            <AltitudeMeters>933.20001220703125</AltitudeMeters>
            <DistanceMeters>60171.819704172</DistanceMeters>
          </Trackpoint>
          <Trackpoint>
            <Time>2021-08-31T06:57:42.000Z</Time>
            <Position>
              <LatitudeDegrees>42.068351916968822479248046875</LatitudeDegrees>
              <LongitudeDegrees>2.1570708788931369781494140625</LongitudeDegrees>
            </Position>
            <AltitudeMeters>932.5999755859375</AltitudeMeters>
            <DistanceMeters>60187.034665221</DistanceMeters>
          </Trackpoint>
          <Trackpoint>
            <Time>2021-08-31T06:57:43.000Z</Time>
            <Position>
              <LatitudeDegrees>42.06832987256348133087158203125</LatitudeDegrees>
              <LongitudeDegrees>2.15712527744472026824951171875</LongitudeDegrees>
            </Position>
            <AltitudeMeters>932.20001220703125</AltitudeMeters>
            <DistanceMeters>60192.155538388</DistanceMeters>
          </Trackpoint>
          <Trackpoint>
            <Time>2021-08-31T06:57:46.000Z</Time>
            <Position>
              <LatitudeDegrees>42.06826382316648960113525390625</LatitudeDegrees>
              <LongitudeDegrees>2.157253436744213104248046875</LongitudeDegrees>
            </Position>
            <AltitudeMeters>932</AltitudeMeters>
            <DistanceMeters>60205.046289596</DistanceMeters>
          </Trackpoint>
          <Trackpoint>
            <Time>2021-08-31T06:57:50.000Z</Time>
            <Position>
              <LatitudeDegrees>42.06813239492475986480712890625</LatitudeDegrees>
              <LongitudeDegrees>2.15738846920430660247802734375</LongitudeDegrees>
            </Position>
            <AltitudeMeters>929.20001220703125</AltitudeMeters>
            <DistanceMeters>60223.443716734</DistanceMeters>
          </Trackpoint>
          <Trackpoint>
            <Time>2021-08-31T06:57:52.000Z</Time>
            <Position>
              <LatitudeDegrees>42.06807673908770084381103515625</LatitudeDegrees>
              <LongitudeDegrees>2.1574339829385280609130859375</LongitudeDegrees>
            </Position>
            <AltitudeMeters>930.20001220703125</AltitudeMeters>
            <DistanceMeters>60230.690710911</DistanceMeters>
          </Trackpoint>
          <Trackpoint>
            <Time>2021-08-31T06:57:54.000Z</Time>
            <Position>
              <LatitudeDegrees>42.0680298842489719390869140625</LatitudeDegrees>
              <LongitudeDegrees>2.15752040036022663116455078125</LongitudeDegrees>
            </Position>
            <AltitudeMeters>927.5999755859375</AltitudeMeters>
            <DistanceMeters>60239.532792218</DistanceMeters>
          </Trackpoint>
          <Trackpoint>
            <Time>2021-08-31T06:57:56.000Z</Time>
            <Position>
              <LatitudeDegrees>42.0679728873074054718017578125</LatitudeDegrees>
              <LongitudeDegrees>2.1576120145618915557861328125</LongitudeDegrees>
            </Position>
            <AltitudeMeters>924.5999755859375</AltitudeMeters>
            <DistanceMeters>60249.408715247</DistanceMeters>
          </Trackpoint>
          <Trackpoint>
            <Time>2021-08-31T06:57:59.000Z</Time>
            <Position>
              <LatitudeDegrees>42.0678873918950557708740234375</LatitudeDegrees>
              <LongitudeDegrees>2.15770413167774677276611328125</LongitudeDegrees>
            </Position>
            <AltitudeMeters>921.5999755859375</AltitudeMeters>
            <DistanceMeters>60261.594015693</DistanceMeters>
          </Trackpoint>
          <Trackpoint>
            <Time>2021-08-31T06:58:04.000Z</Time>
            <Position>
              <LatitudeDegrees>42.06779778935015201568603515625</LatitudeDegrees>
              <LongitudeDegrees>2.157860957086086273193359375</LongitudeDegrees>
            </Position>
            <AltitudeMeters>917.79998779296875</AltitudeMeters>
            <DistanceMeters>60277.945238992</DistanceMeters>
          </Trackpoint>
          <Trackpoint>
            <Time>2021-08-31T06:58:08.000Z</Time>
            <Position>
              <LatitudeDegrees>42.06768899224698543548583984375</LatitudeDegrees>
              <LongitudeDegrees>2.15800822712481021881103515625</LongitudeDegrees>
            </Position>
            <AltitudeMeters>921</AltitudeMeters>
            <DistanceMeters>60295.111966832</DistanceMeters>
          </Trackpoint>
          <Trackpoint>
            <Time>2021-08-31T06:58:13.000Z</Time>
            <Position>
              <LatitudeDegrees>42.0675601623952388763427734375</LatitudeDegrees>
              <LongitudeDegrees>2.15815926901996135711669921875</LongitudeDegrees>
            </Position>
            <AltitudeMeters>924.79998779296875</AltitudeMeters>
            <DistanceMeters>60314.121110395</DistanceMeters>
          </Trackpoint>
          <Trackpoint>
            <Time>2021-08-31T06:58:17.000Z</Time>
            <Position>
              <LatitudeDegrees>42.0674649439752101898193359375</LatitudeDegrees>
              <LongitudeDegrees>2.15824124403297901153564453125</LongitudeDegrees>
            </Position>
            <AltitudeMeters>927.79998779296875</AltitudeMeters>
            <DistanceMeters>60326.699144394</DistanceMeters>
          </Trackpoint>
          <Trackpoint>
            <Time>2021-08-31T06:58:21.000Z</Time>
            <Position>
              <LatitudeDegrees>42.0673613436520099639892578125</LatitudeDegrees>
              <LongitudeDegrees>2.15843251906335353851318359375</LongitudeDegrees>
            </Position>
            <AltitudeMeters>923.20001220703125</AltitudeMeters>
            <DistanceMeters>60346.263111787</DistanceMeters>
          </Trackpoint>
          <Trackpoint>
            <Time>2021-08-31T06:58:25.000Z</Time>
            <Position>
              <LatitudeDegrees>42.06727894954383373260498046875</LatitudeDegrees>
              <LongitudeDegrees>2.15860988013446331024169921875</LongitudeDegrees>
            </Position>
            <AltitudeMeters>916.4000244140625</AltitudeMeters>
            <DistanceMeters>60363.55066251</DistanceMeters>
          </Trackpoint>
          <Trackpoint>
            <Time>2021-08-31T06:58:29.000Z</Time>
            <Position>
              <LatitudeDegrees>42.067185826599597930908203125</LatitudeDegrees>
              <LongitudeDegrees>2.158756144344806671142578125</LongitudeDegrees>
            </Position>
            <AltitudeMeters>910.20001220703125</AltitudeMeters>
            <DistanceMeters>60379.47153704</DistanceMeters>
          </Trackpoint>
          <Trackpoint>
            <Time>2021-08-31T06:58:32.000Z</Time>
            <Position>
              <LatitudeDegrees>42.06713117659091949462890625</LatitudeDegrees>
              <LongitudeDegrees>2.1588337607681751251220703125</LongitudeDegrees>
            </Position>
            <AltitudeMeters>907.4000244140625</AltitudeMeters>
            <DistanceMeters>60388.310554032</DistanceMeters>
          </Trackpoint>
          <Trackpoint>
            <Time>2021-08-31T06:58:33.000Z</Time>
            <Position>
              <LatitudeDegrees>42.067120783030986785888671875</LatitudeDegrees>
              <LongitudeDegrees>2.158864103257656097412109375</LongitudeDegrees>
            </Position>
            <AltitudeMeters>907.5999755859375</AltitudeMeters>
            <DistanceMeters>60391.071239548</DistanceMeters>
          </Trackpoint>
          <Trackpoint>
            <Time>2021-08-31T06:58:37.000Z</Time>
            <Position>
              <LatitudeDegrees>42.0670701563358306884765625</LatitudeDegrees>
              <LongitudeDegrees>2.15897063724696636199951171875</LongitudeDegrees>
            </Position>
            <AltitudeMeters>907.79998779296875</AltitudeMeters>
            <DistanceMeters>60401.523314214</DistanceMeters>
          </Trackpoint>
          <Trackpoint>
            <Time>2021-08-31T06:58:38.000Z</Time>
            <Position>
              <LatitudeDegrees>42.067058421671390533447265625</LatitudeDegrees>
              <LongitudeDegrees>2.1589972078800201416015625</LongitudeDegrees>
            </Position>
            <AltitudeMeters>907.79998779296875</AltitudeMeters>
            <DistanceMeters>60404.076687511</DistanceMeters>
          </Trackpoint>
          <Trackpoint>
            <Time>2021-08-31T06:58:43.000Z</Time>
            <Position>
              <LatitudeDegrees>42.06698625348508358001708984375</LatitudeDegrees>
              <LongitudeDegrees>2.15910592116415500640869140625</LongitudeDegrees>
            </Position>
            <AltitudeMeters>908.20001220703125</AltitudeMeters>
            <DistanceMeters>60416.127109051</DistanceMeters>
          </Trackpoint>
          <Trackpoint>
            <Time>2021-08-31T06:58:45.000Z</Time>
            <Position>
              <LatitudeDegrees>42.06697669811546802520751953125</LatitudeDegrees>
              <LongitudeDegrees>2.1591133810579776763916015625</LongitudeDegrees>
            </Position>
            <AltitudeMeters>908.20001220703125</AltitudeMeters>
            <DistanceMeters>60417.358796041</DistanceMeters>
          </Trackpoint>
          <Trackpoint>
            <Time>2021-08-31T06:58:50.000Z</Time>
            <Position>
              <LatitudeDegrees>42.066946439445018768310546875</LatitudeDegrees>
              <LongitudeDegrees>2.1591502614319324493408203125</LongitudeDegrees>
            </Position>
            <AltitudeMeters>907.20001220703125</AltitudeMeters>
            <DistanceMeters>60421.900237949</DistanceMeters>
          </Trackpoint>
          <Trackpoint>
            <Time>2021-08-31T06:58:51.000Z</Time>
            <Position>
              <LatitudeDegrees>42.06693327985703945159912109375</LatitudeDegrees>
              <LongitudeDegrees>2.15917356312274932861328125</LongitudeDegrees>
            </Position>
            <AltitudeMeters>906.4000244140625</AltitudeMeters>
            <DistanceMeters>60424.319223177</DistanceMeters>
          </Trackpoint>
          <Trackpoint>
            <Time>2021-08-31T06:58:52.000Z</Time>
            <Position>
              <LatitudeDegrees>42.06691701896488666534423828125</LatitudeDegrees>
              <LongitudeDegrees>2.15919041074812412261962890625</LongitudeDegrees>
            </Position>
            <AltitudeMeters>906</AltitudeMeters>
            <DistanceMeters>60426.599864322</DistanceMeters>
          </Trackpoint>
          <Trackpoint>
            <Time>2021-08-31T06:58:55.000Z</Time>
            <Position>
              <LatitudeDegrees>42.0668678171932697296142578125</LatitudeDegrees>
              <LongitudeDegrees>2.15921941213309764862060546875</LongitudeDegrees>
            </Position>
            <AltitudeMeters>905.4000244140625</AltitudeMeters>
            <DistanceMeters>60432.577490313</DistanceMeters>
          </Trackpoint>
          <Trackpoint>
            <Time>2021-08-31T06:58:58.000Z</Time>
            <Position>
              <LatitudeDegrees>42.066795565187931060791015625</LatitudeDegrees>
              <LongitudeDegrees>2.159229554235935211181640625</LongitudeDegrees>
            </Position>
            <AltitudeMeters>905.5999755859375</AltitudeMeters>
            <DistanceMeters>60440.663141397</DistanceMeters>
          </Trackpoint>
          <Trackpoint>
            <Time>2021-08-31T06:59:00.000Z</Time>
            <Position>
              <LatitudeDegrees>42.0667565055191516876220703125</LatitudeDegrees>
              <LongitudeDegrees>2.1592666022479534149169921875</LongitudeDegrees>
            </Position>
            <AltitudeMeters>904.5999755859375</AltitudeMeters>
            <DistanceMeters>60445.981242508</DistanceMeters>
          </Trackpoint>
          <Trackpoint>
            <Time>2021-08-31T06:59:01.000Z</Time>
            <Position>
              <LatitudeDegrees>42.0667456090450286865234375</LatitudeDegrees>
              <LongitudeDegrees>2.15928629972040653228759765625</LongitudeDegrees>
            </Position>
            <AltitudeMeters>904.79998779296875</AltitudeMeters>
            <DistanceMeters>60448.010457839</DistanceMeters>
          </Trackpoint>
          <Trackpoint>
            <Time>2021-08-31T06:59:03.000Z</Time>
            <Position>
              <LatitudeDegrees>42.06672222353518009185791015625</LatitudeDegrees>
              <LongitudeDegrees>2.1593329869210720062255859375</LongitudeDegrees>
            </Position>
            <AltitudeMeters>905.4000244140625</AltitudeMeters>
            <DistanceMeters>60452.663856952</DistanceMeters>
          </Trackpoint>
          <Trackpoint>
            <Time>2021-08-31T06:59:04.000Z</Time>
            <Position>
              <LatitudeDegrees>42.06670026294887065887451171875</LatitudeDegrees>
              <LongitudeDegrees>2.1593688614666461944580078125</LongitudeDegrees>
            </Position>
            <AltitudeMeters>906.20001220703125</AltitudeMeters>
            <DistanceMeters>60456.506274809</DistanceMeters>
          </Trackpoint>
          <Trackpoint>
            <Time>2021-08-31T06:59:07.000Z</Time>
            <Position>
              <LatitudeDegrees>42.0666512288153171539306640625</LatitudeDegrees>
              <LongitudeDegrees>2.15952225029468536376953125</LongitudeDegrees>
            </Position>
            <AltitudeMeters>907.4000244140625</AltitudeMeters>
            <DistanceMeters>60470.305776686</DistanceMeters>
          </Trackpoint>
          <Trackpoint>
            <Time>2021-08-31T06:59:08.000Z</Time>
            <Position>
              <LatitudeDegrees>42.066633291542530059814453125</LatitudeDegrees>
              <LongitudeDegrees>2.15957195498049259185791015625</LongitudeDegrees>
            </Position>
            <AltitudeMeters>908</AltitudeMeters>
            <DistanceMeters>60474.872994284</DistanceMeters>
          </Trackpoint>
          <Trackpoint>
            <Time>2021-08-31T06:59:11.000Z</Time>
            <Position>
              <LatitudeDegrees>42.06657269038259983062744140625</LatitudeDegrees>
              <LongitudeDegrees>2.1596712805330753326416015625</LongitudeDegrees>
            </Position>
            <AltitudeMeters>908.20001220703125</AltitudeMeters>
            <DistanceMeters>60485.496453955</DistanceMeters>
          </Trackpoint>
          <Trackpoint>
            <Time>2021-08-31T06:59:13.000Z</Time>
            <Position>
              <LatitudeDegrees>42.06652642227709293365478515625</LatitudeDegrees>
              <LongitudeDegrees>2.1597105078399181365966796875</LongitudeDegrees>
            </Position>
            <AltitudeMeters>906.4000244140625</AltitudeMeters>
            <DistanceMeters>60491.581132535</DistanceMeters>
          </Trackpoint>
          <Trackpoint>
            <Time>2021-08-31T06:59:14.000Z</Time>
            <Position>
              <LatitudeDegrees>42.06651695072650909423828125</LatitudeDegrees>
              <LongitudeDegrees>2.1597245894372463226318359375</LongitudeDegrees>
            </Position>
            <AltitudeMeters>906</AltitudeMeters>
            <DistanceMeters>60493.154104546</DistanceMeters>
          </Trackpoint>
          <Trackpoint>
            <Time>2021-08-31T06:59:16.000Z</Time>
            <Position>
              <LatitudeDegrees>42.06648434512317180633544921875</LatitudeDegrees>
              <LongitudeDegrees>2.15977261774241924285888671875</LongitudeDegrees>
            </Position>
            <AltitudeMeters>904.79998779296875</AltitudeMeters>
            <DistanceMeters>60498.531306864</DistanceMeters>
          </Trackpoint>
          <Trackpoint>
            <Time>2021-08-31T06:59:17.000Z</Time>
            <Position>
              <LatitudeDegrees>42.06647512502968311309814453125</LatitudeDegrees>
              <LongitudeDegrees>2.159802205860614776611328125</LongitudeDegrees>
            </Position>
            <AltitudeMeters>904.4000244140625</AltitudeMeters>
            <DistanceMeters>60501.183556768</DistanceMeters>
          </Trackpoint>
          <Trackpoint>
            <Time>2021-08-31T06:59:19.000Z</Time>
            <Position>
              <LatitudeDegrees>42.06646992824971675872802734375</LatitudeDegrees>
              <LongitudeDegrees>2.1598674170672893524169921875</LongitudeDegrees>
            </Position>
            <AltitudeMeters>904.5999755859375</AltitudeMeters>
            <DistanceMeters>60506.603412732</DistanceMeters>
          </Trackpoint>
          <Trackpoint>
            <Time>2021-08-31T06:59:20.000Z</Time>
            <Position>
              <LatitudeDegrees>42.06646322272717952728271484375</LatitudeDegrees>
              <LongitudeDegrees>2.159908153116703033447265625</LongitudeDegrees>
            </Position>
            <AltitudeMeters>904.79998779296875</AltitudeMeters>
            <DistanceMeters>60510.050669699</DistanceMeters>
          </Trackpoint>
          <Trackpoint>
            <Time>2021-08-31T06:59:24.000Z</Time>
            <Position>
              <LatitudeDegrees>42.0664088241755962371826171875</LatitudeDegrees>
              <LongitudeDegrees>2.16007000766694545745849609375</LongitudeDegrees>
            </Position>
            <AltitudeMeters>901.20001220703125</AltitudeMeters>
            <DistanceMeters>60524.73099001</DistanceMeters>
          </Trackpoint>
          <Trackpoint>
            <Time>2021-08-31T06:59:26.000Z</Time>
            <Position>
              <LatitudeDegrees>42.066365741193294525146484375</LatitudeDegrees>
              <LongitudeDegrees>2.16018433682620525360107421875</LongitudeDegrees>
            </Position>
            <AltitudeMeters>897.79998779296875</AltitudeMeters>
            <DistanceMeters>60535.325509829</DistanceMeters>
          </Trackpoint>
          <Trackpoint>
            <Time>2021-08-31T06:59:27.000Z</Time>
            <Position>
              <LatitudeDegrees>42.066333554685115814208984375</LatitudeDegrees>
              <LongitudeDegrees>2.16021786443889141082763671875</LongitudeDegrees>
            </Position>
            <AltitudeMeters>896.4000244140625</AltitudeMeters>
            <DistanceMeters>60539.854008874</DistanceMeters>
          </Trackpoint>
          <Trackpoint>
            <Time>2021-08-31T06:59:28.000Z</Time>
            <Position>
              <LatitudeDegrees>42.06629491411149501800537109375</LatitudeDegrees>
              <LongitudeDegrees>2.160258851945400238037109375</LongitudeDegrees>
            </Position>
            <AltitudeMeters>894.79998779296875</AltitudeMeters>
            <DistanceMeters>60545.327745591</DistanceMeters>
          </Trackpoint>
          <Trackpoint>
            <Time>2021-08-31T06:59:30.000Z</Time>
            <Position>
              <LatitudeDegrees>42.06622869707643985748291015625</LatitudeDegrees>
              <LongitudeDegrees>2.16034661047160625457763671875</LongitudeDegrees>
            </Position>
            <AltitudeMeters>891.4000244140625</AltitudeMeters>
            <DistanceMeters>60555.666896665</DistanceMeters>
          </Trackpoint>
          <Trackpoint>
            <Time>2021-08-31T06:59:33.000Z</Time>
            <Position>
              <LatitudeDegrees>42.0661617256700992584228515625</LatitudeDegrees>
              <LongitudeDegrees>2.16042456217110157012939453125</LongitudeDegrees>
            </Position>
            <AltitudeMeters>890.20001220703125</AltitudeMeters>
            <DistanceMeters>60565.518101238</DistanceMeters>
          </Trackpoint>
          <Trackpoint>
            <Time>2021-08-31T06:59:34.000Z</Time>
            <Position>
              <LatitudeDegrees>42.0661516673862934112548828125</LatitudeDegrees>
              <LongitudeDegrees>2.160454653203487396240234375</LongitudeDegrees>
            </Position>
            <AltitudeMeters>890.4000244140625</AltitudeMeters>
            <DistanceMeters>60568.242568679</DistanceMeters>
          </Trackpoint>
          <Trackpoint>
            <Time>2021-08-31T06:59:39.000Z</Time>
            <Position>
              <LatitudeDegrees>42.0660909824073314666748046875</LatitudeDegrees>
              <LongitudeDegrees>2.1606147475540637969970703125</LongitudeDegrees>
            </Position>
            <AltitudeMeters>891.20001220703125</AltitudeMeters>
            <DistanceMeters>60583.095642355</DistanceMeters>
          </Trackpoint>
          <Trackpoint>
            <Time>2021-08-31T06:59:42.000Z</Time>
            <Position>
              <LatitudeDegrees>42.0660423673689365386962890625</LatitudeDegrees>
              <LongitudeDegrees>2.16073988936841487884521484375</LongitudeDegrees>
            </Position>
            <AltitudeMeters>891.79998779296875</AltitudeMeters>
            <DistanceMeters>60594.765758589</DistanceMeters>
          </Trackpoint>
          <Trackpoint>
            <Time>2021-08-31T06:59:44.000Z</Time>
            <Position>
              <LatitudeDegrees>42.06600490026175975799560546875</LatitudeDegrees>
              <LongitudeDegrees>2.16081515885889530181884765625</LongitudeDegrees>
            </Position>
            <AltitudeMeters>891</AltitudeMeters>
            <DistanceMeters>60602.254201332</DistanceMeters>
          </Trackpoint>
          <Trackpoint>
            <Time>2021-08-31T06:59:46.000Z</Time>
            <Position>
              <LatitudeDegrees>42.0659650862216949462890625</LatitudeDegrees>
              <LongitudeDegrees>2.160874418914318084716796875</LongitudeDegrees>
            </Position>
            <AltitudeMeters>889.4000244140625</AltitudeMeters>
            <DistanceMeters>60608.857703369</DistanceMeters>
          </Trackpoint>
          <Trackpoint>
            <Time>2021-08-31T06:59:48.000Z</Time>
            <Position>
              <LatitudeDegrees>42.0659401081502437591552734375</LatitudeDegrees>
              <LongitudeDegrees>2.16091825626790523529052734375</LongitudeDegrees>
            </Position>
            <AltitudeMeters>888.20001220703125</AltitudeMeters>
            <DistanceMeters>60613.423932284</DistanceMeters>
          </Trackpoint>
          <Trackpoint>
            <Time>2021-08-31T06:59:50.000Z</Time>
            <Position>
              <LatitudeDegrees>42.0659270323812961578369140625</LatitudeDegrees>
              <LongitudeDegrees>2.16098313219845294952392578125</LongitudeDegrees>
            </Position>
            <AltitudeMeters>887.20001220703125</AltitudeMeters>
            <DistanceMeters>60618.977916542</DistanceMeters>
          </Trackpoint>
          <Trackpoint>
            <Time>2021-08-31T06:59:55.000Z</Time>
            <Position>
              <LatitudeDegrees>42.065876908600330352783203125</LatitudeDegrees>
              <LongitudeDegrees>2.16114842332899570465087890625</LongitudeDegrees>
            </Position>
            <AltitudeMeters>887.5999755859375</AltitudeMeters>
            <DistanceMeters>60633.73125388</DistanceMeters>
          </Trackpoint>
          <Trackpoint>
            <Time>2021-08-31T06:59:59.000Z</Time>
            <Position>
              <LatitudeDegrees>42.06583927385509014129638671875</LatitudeDegrees>
              <LongitudeDegrees>2.16128555126488208770751953125</LongitudeDegrees>
            </Position>
            <AltitudeMeters>887.79998779296875</AltitudeMeters>
            <DistanceMeters>60645.811238786</DistanceMeters>
          </Trackpoint>
          <Trackpoint>
            <Time>2021-08-31T07:00:03.000Z</Time>
            <Position>
              <LatitudeDegrees>42.0657835341989994049072265625</LatitudeDegrees>
              <LongitudeDegrees>2.161406837403774261474609375</LongitudeDegrees>
            </Position>
            <AltitudeMeters>888.5999755859375</AltitudeMeters>
            <DistanceMeters>60657.597616347</DistanceMeters>
          </Trackpoint>
          <Trackpoint>
            <Time>2021-08-31T07:00:09.000Z</Time>
            <Position>
              <LatitudeDegrees>42.0657134614884853363037109375</LatitudeDegrees>
              <LongitudeDegrees>2.16160833835601806640625</LongitudeDegrees>
            </Position>
            <AltitudeMeters>886.79998779296875</AltitudeMeters>
            <DistanceMeters>60675.983259703</DistanceMeters>
          </Trackpoint>
          <Trackpoint>
            <Time>2021-08-31T07:00:13.000Z</Time>
            <Position>
              <LatitudeDegrees>42.06566744484007358551025390625</LatitudeDegrees>
              <LongitudeDegrees>2.161734402179718017578125</LongitudeDegrees>
            </Position>
            <AltitudeMeters>884</AltitudeMeters>
            <DistanceMeters>60687.591308665</DistanceMeters>
          </Trackpoint>
          <Trackpoint>
            <Time>2021-08-31T07:00:18.000Z</Time>
            <Position>
              <LatitudeDegrees>42.065626792609691619873046875</LatitudeDegrees>
              <LongitudeDegrees>2.16189776547253131866455078125</LongitudeDegrees>
            </Position>
            <AltitudeMeters>880.4000244140625</AltitudeMeters>
            <DistanceMeters>60701.828200736</DistanceMeters>
          </Trackpoint>
          <Trackpoint>
            <Time>2021-08-31T07:00:23.000Z</Time>
            <Position>
              <LatitudeDegrees>42.06559100188314914703369140625</LatitudeDegrees>
              <LongitudeDegrees>2.16199935413897037506103515625</LongitudeDegrees>
            </Position>
            <AltitudeMeters>878</AltitudeMeters>
            <DistanceMeters>60711.119461727</DistanceMeters>
          </Trackpoint>
          <Trackpoint>
            <Time>2021-08-31T07:00:28.000Z</Time>
            <Position>
              <LatitudeDegrees>42.0655649341642856597900390625</LatitudeDegrees>
              <LongitudeDegrees>2.1621231548488140106201171875</LongitudeDegrees>
            </Position>
            <AltitudeMeters>875.5999755859375</AltitudeMeters>
            <DistanceMeters>60721.752267428</DistanceMeters>
          </Trackpoint>
          <Trackpoint>
            <Time>2021-08-31T07:00:33.000Z</Time>
            <Position>
              <LatitudeDegrees>42.0655521936714649200439453125</LatitudeDegrees>
              <LongitudeDegrees>2.16227930970489978790283203125</LongitudeDegrees>
            </Position>
            <AltitudeMeters>873.5999755859375</AltitudeMeters>
            <DistanceMeters>60734.732373988</DistanceMeters>
          </Trackpoint>
          <Trackpoint>
            <Time>2021-08-31T07:00:35.000Z</Time>
            <Position>
              <LatitudeDegrees>42.06555194221436977386474609375</LatitudeDegrees>
              <LongitudeDegrees>2.16235189698636531829833984375</LongitudeDegrees>
            </Position>
            <AltitudeMeters>873.79998779296875</AltitudeMeters>
            <DistanceMeters>60740.730359029</DistanceMeters>
          </Trackpoint>
          <Trackpoint>
            <Time>2021-08-31T07:00:36.000Z</Time>
            <Position>
              <LatitudeDegrees>42.06553802825510501861572265625</LatitudeDegrees>
              <LongitudeDegrees>2.16238827444612979888916015625</LongitudeDegrees>
            </Position>
            <AltitudeMeters>873.79998779296875</AltitudeMeters>
            <DistanceMeters>60744.108822677</DistanceMeters>
          </Trackpoint>
          <Trackpoint>
            <Time>2021-08-31T07:00:37.000Z</Time>
            <Position>
              <LatitudeDegrees>42.06551388837397098541259765625</LatitudeDegrees>
              <LongitudeDegrees>2.1624161861836910247802734375</LongitudeDegrees>
            </Position>
            <AltitudeMeters>873.79998779296875</AltitudeMeters>
            <DistanceMeters>60747.649125787</DistanceMeters>
          </Trackpoint>
          <Trackpoint>
            <Time>2021-08-31T07:00:39.000Z</Time>
            <Position>
              <LatitudeDegrees>42.065460495650768280029296875</LatitudeDegrees>
              <LongitudeDegrees>2.1624205447733402252197265625</LongitudeDegrees>
            </Position>
            <AltitudeMeters>873.5999755859375</AltitudeMeters>
            <DistanceMeters>60753.602532378</DistanceMeters>
          </Trackpoint>
          <Trackpoint>
            <Time>2021-08-31T07:00:42.000Z</Time>
            <Position>
              <LatitudeDegrees>42.06541188061237335205078125</LatitudeDegrees>
              <LongitudeDegrees>2.1623142622411251068115234375</LongitudeDegrees>
            </Position>
            <AltitudeMeters>873</AltitudeMeters>
            <DistanceMeters>60763.91807506</DistanceMeters>
          </Trackpoint>
          <Trackpoint>
            <Time>2021-08-31T07:00:43.000Z</Time>
            <Position>
              <LatitudeDegrees>42.0654026605188846588134765625</LatitudeDegrees>
              <LongitudeDegrees>2.16225835494697093963623046875</LongitudeDegrees>
            </Position>
            <AltitudeMeters>872.79998779296875</AltitudeMeters>
            <DistanceMeters>60768.650367272</DistanceMeters>
          </Trackpoint>
          <Trackpoint>
            <Time>2021-08-31T07:00:47.000Z</Time>
            <Position>
              <LatitudeDegrees>42.06538262777030467987060546875</LatitudeDegrees>
              <LongitudeDegrees>2.16194788925349712371826171875</LongitudeDegrees>
            </Position>
            <AltitudeMeters>874.20001220703125</AltitudeMeters>
            <DistanceMeters>60794.400327527</DistanceMeters>
          </Trackpoint>
          <Trackpoint>
            <Time>2021-08-31T07:00:49.000Z</Time>
            <Position>
              <LatitudeDegrees>42.06536569632589817047119140625</LatitudeDegrees>
              <LongitudeDegrees>2.16177128255367279052734375</LongitudeDegrees>
            </Position>
            <AltitudeMeters>876.4000244140625</AltitudeMeters>
            <DistanceMeters>60809.114440236</DistanceMeters>
          </Trackpoint>
          <Trackpoint>
            <Time>2021-08-31T07:00:51.000Z</Time>
            <Position>
              <LatitudeDegrees>42.06537256948649883270263671875</LatitudeDegrees>
              <LongitudeDegrees>2.161600291728973388671875</LongitudeDegrees>
            </Position>
            <AltitudeMeters>879</AltitudeMeters>
            <DistanceMeters>60823.263850995</DistanceMeters>
          </Trackpoint>
          <Trackpoint>
            <Time>2021-08-31T07:00:52.000Z</Time>
            <Position>
              <LatitudeDegrees>42.0653842203319072723388671875</LatitudeDegrees>
              <LongitudeDegrees>2.16152024455368518829345703125</LongitudeDegrees>
            </Position>
            <AltitudeMeters>878.79998779296875</AltitudeMeters>
            <DistanceMeters>60830.003382471</DistanceMeters>
          </Trackpoint>
          <Trackpoint>
            <Time>2021-08-31T07:00:54.000Z</Time>
            <Position>
              <LatitudeDegrees>42.06540643237531185150146484375</LatitudeDegrees>
              <LongitudeDegrees>2.1613355912268161773681640625</LongitudeDegrees>
            </Position>
            <AltitudeMeters>878.20001220703125</AltitudeMeters>
            <DistanceMeters>60845.460347327</DistanceMeters>
          </Trackpoint>
          <Trackpoint>
            <Time>2021-08-31T07:00:59.000Z</Time>
            <Position>
              <LatitudeDegrees>42.0654244534671306610107421875</LatitudeDegrees>
              <LongitudeDegrees>2.16083141975104808807373046875</LongitudeDegrees>
            </Position>
            <AltitudeMeters>881</AltitudeMeters>
            <DistanceMeters>60887.167441274</DistanceMeters>
          </Trackpoint>
          <Trackpoint>
            <Time>2021-08-31T07:01:03.000Z</Time>
            <Position>
              <LatitudeDegrees>42.06540995277464389801025390625</LatitudeDegrees>
              <LongitudeDegrees>2.16047711670398712158203125</LongitudeDegrees>
            </Position>
            <AltitudeMeters>879.4000244140625</AltitudeMeters>
            <DistanceMeters>60916.487302246</DistanceMeters>
          </Trackpoint>
          <Trackpoint>
            <Time>2021-08-31T07:01:04.000Z</Time>
            <Position>
              <LatitudeDegrees>42.0654177479445934295654296875</LatitudeDegrees>
              <LongitudeDegrees>2.16039639897644519805908203125</LongitudeDegrees>
            </Position>
            <AltitudeMeters>879.20001220703125</AltitudeMeters>
            <DistanceMeters>60923.212750403</DistanceMeters>
          </Trackpoint>
          <Trackpoint>
            <Time>2021-08-31T07:01:06.000Z</Time>
            <Position>
              <LatitudeDegrees>42.0654351823031902313232421875</LatitudeDegrees>
              <LongitudeDegrees>2.1602405793964862823486328125</LongitudeDegrees>
            </Position>
            <AltitudeMeters>879.4000244140625</AltitudeMeters>
            <DistanceMeters>60936.233490982</DistanceMeters>
          </Trackpoint>
          <Trackpoint>
            <Time>2021-08-31T07:01:10.000Z</Time>
            <Position>
              <LatitudeDegrees>42.065472900867462158203125</LatitudeDegrees>
              <LongitudeDegrees>2.15992902405560016632080078125</LongitudeDegrees>
            </Position>
            <AltitudeMeters>879.5999755859375</AltitudeMeters>
            <DistanceMeters>60962.31689604</DistanceMeters>
          </Trackpoint>
          <Trackpoint>
            <Time>2021-08-31T07:01:12.000Z</Time>
            <Position>
              <LatitudeDegrees>42.0655019022524356842041015625</LatitudeDegrees>
              <LongitudeDegrees>2.159767337143421173095703125</LongitudeDegrees>
            </Position>
            <AltitudeMeters>879.4000244140625</AltitudeMeters>
            <DistanceMeters>60976.061320336</DistanceMeters>
          </Trackpoint>
          <Trackpoint>
            <Time>2021-08-31T07:01:14.000Z</Time>
            <Position>
              <LatitudeDegrees>42.06550852395594120025634765625</LatitudeDegrees>
              <LongitudeDegrees>2.15957044623792171478271484375</LongitudeDegrees>
            </Position>
            <AltitudeMeters>878</AltitudeMeters>
            <DistanceMeters>60992.346692458</DistanceMeters>
          </Trackpoint>
          <Trackpoint>
            <Time>2021-08-31T07:01:15.000Z</Time>
            <Position>
              <LatitudeDegrees>42.06551514565944671630859375</LatitudeDegrees>
              <LongitudeDegrees>2.1594644151628017425537109375</LongitudeDegrees>
            </Position>
            <AltitudeMeters>877.20001220703125</AltitudeMeters>
            <DistanceMeters>61001.138589543</DistanceMeters>
          </Trackpoint>
          <Trackpoint>
            <Time>2021-08-31T07:01:18.000Z</Time>
            <Position>
              <LatitudeDegrees>42.0655706338584423065185546875</LatitudeDegrees>
              <LongitudeDegrees>2.159139029681682586669921875</LongitudeDegrees>
            </Position>
            <AltitudeMeters>875.79998779296875</AltitudeMeters>
            <DistanceMeters>61028.724829995</DistanceMeters>
          </Trackpoint>
          <Trackpoint>
            <Time>2021-08-31T07:01:19.000Z</Time>
            <Position>
              <LatitudeDegrees>42.0655827037990093231201171875</LatitudeDegrees>
              <LongitudeDegrees>2.15902813710272312164306640625</LongitudeDegrees>
            </Position>
            <AltitudeMeters>875.79998779296875</AltitudeMeters>
            <DistanceMeters>61037.985425871</DistanceMeters>
          </Trackpoint>
          <Trackpoint>
            <Time>2021-08-31T07:01:22.000Z</Time>
            <Position>
              <LatitudeDegrees>42.065583877265453338623046875</LatitudeDegrees>
              <LongitudeDegrees>2.1586848981678485870361328125</LongitudeDegrees>
            </Position>
            <AltitudeMeters>874.79998779296875</AltitudeMeters>
            <DistanceMeters>61066.347039885</DistanceMeters>
          </Trackpoint>
          <Trackpoint>
            <Time>2021-08-31T07:01:23.000Z</Time>
            <Position>
              <LatitudeDegrees>42.0655884034931659698486328125</LatitudeDegrees>
              <LongitudeDegrees>2.1585662104189395904541015625</LongitudeDegrees>
            </Position>
            <AltitudeMeters>874.4000244140625</AltitudeMeters>
            <DistanceMeters>61076.167488776</DistanceMeters>
          </Trackpoint>
          <Trackpoint>
            <Time>2021-08-31T07:01:25.000Z</Time>
            <Position>
              <LatitudeDegrees>42.0656271278858184814453125</LatitudeDegrees>
              <LongitudeDegrees>2.158356495201587677001953125</LongitudeDegrees>
            </Position>
            <AltitudeMeters>875</AltitudeMeters>
            <DistanceMeters>61094.023916169</DistanceMeters>
          </Trackpoint>
          <Trackpoint>
            <Time>2021-08-31T07:01:26.000Z</Time>
            <Position>
              <LatitudeDegrees>42.0656343363225460052490234375</LatitudeDegrees>
              <LongitudeDegrees>2.15826027095317840576171875</LongitudeDegrees>
            </Position>
            <AltitudeMeters>875</AltitudeMeters>
            <DistanceMeters>61102.015205215</DistanceMeters>
          </Trackpoint>
          <Trackpoint>
            <Time>2021-08-31T07:01:28.000Z</Time>
            <Position>
              <LatitudeDegrees>42.06560055725276470184326171875</LatitudeDegrees>
              <LongitudeDegrees>2.158068157732486724853515625</LongitudeDegrees>
            </Position>
            <AltitudeMeters>874.20001220703125</AltitudeMeters>
            <DistanceMeters>61118.328831818</DistanceMeters>
          </Trackpoint>
          <Trackpoint>
            <Time>2021-08-31T07:01:30.000Z</Time>
            <Position>
              <LatitudeDegrees>42.06556971184909343719482421875</LatitudeDegrees>
              <LongitudeDegrees>2.1578876115381717681884765625</LongitudeDegrees>
            </Position>
            <AltitudeMeters>873.4000244140625</AltitudeMeters>
            <DistanceMeters>61133.637278633</DistanceMeters>
          </Trackpoint>
          <Trackpoint>
            <Time>2021-08-31T07:01:32.000Z</Time>
            <Position>
              <LatitudeDegrees>42.06556770019233226776123046875</LatitudeDegrees>
              <LongitudeDegrees>2.15772449970245361328125</LongitudeDegrees>
            </Position>
            <AltitudeMeters>873.5999755859375</AltitudeMeters>
            <DistanceMeters>61147.116676547</DistanceMeters>
          </Trackpoint>
          <Trackpoint>
            <Time>2021-08-31T07:01:37.000Z</Time>
            <Position>
              <LatitudeDegrees>42.06558094359934329986572265625</LatitudeDegrees>
              <LongitudeDegrees>2.15730867348611354827880859375</LongitudeDegrees>
            </Position>
            <AltitudeMeters>873.79998779296875</AltitudeMeters>
            <DistanceMeters>61181.507158256</DistanceMeters>
          </Trackpoint>
          <Trackpoint>
            <Time>2021-08-31T07:01:44.000Z</Time>
            <Position>
              <LatitudeDegrees>42.06563140265643596649169921875</LatitudeDegrees>
              <LongitudeDegrees>2.15667106211185455322265625</LongitudeDegrees>
            </Position>
            <AltitudeMeters>874</AltitudeMeters>
            <DistanceMeters>61234.490325247</DistanceMeters>
          </Trackpoint>
          <Trackpoint>
            <Time>2021-08-31T07:01:45.000Z</Time>
            <Position>
              <LatitudeDegrees>42.0656443946063518524169921875</LatitudeDegrees>
              <LongitudeDegrees>2.15656670741736888885498046875</LongitudeDegrees>
            </Position>
            <AltitudeMeters>873.79998779296875</AltitudeMeters>
            <DistanceMeters>61243.233815807</DistanceMeters>
          </Trackpoint>
          <Trackpoint>
            <Time>2021-08-31T07:01:48.000Z</Time>
            <Position>
              <LatitudeDegrees>42.06565856002271175384521484375</LatitudeDegrees>
              <LongitudeDegrees>2.156214080750942230224609375</LongitudeDegrees>
            </Position>
            <AltitudeMeters>870.20001220703125</AltitudeMeters>
            <DistanceMeters>61272.413361861</DistanceMeters>
          </Trackpoint>
          <Trackpoint>
            <Time>2021-08-31T07:01:52.000Z</Time>
            <Position>
              <LatitudeDegrees>42.065668366849422454833984375</LatitudeDegrees>
              <LongitudeDegrees>2.15572600252926349639892578125</LongitudeDegrees>
            </Position>
            <AltitudeMeters>865.20001220703125</AltitudeMeters>
            <DistanceMeters>61312.757098656</DistanceMeters>
          </Trackpoint>
          <Trackpoint>
            <Time>2021-08-31T07:01:53.000Z</Time>
            <Position>
              <LatitudeDegrees>42.06568655557930469512939453125</LatitudeDegrees>
              <LongitudeDegrees>2.1555983461439609527587890625</LongitudeDegrees>
            </Position>
            <AltitudeMeters>865.20001220703125</AltitudeMeters>
            <DistanceMeters>61323.497219535</DistanceMeters>
          </Trackpoint>
          <Trackpoint>
            <Time>2021-08-31T07:01:54.000Z</Time>
            <Position>
              <LatitudeDegrees>42.06571656279265880584716796875</LatitudeDegrees>
              <LongitudeDegrees>2.1554754674434661865234375</LongitudeDegrees>
            </Position>
            <AltitudeMeters>865.4000244140625</AltitudeMeters>
            <DistanceMeters>61334.185507382</DistanceMeters>
          </Trackpoint>
          <Trackpoint>
            <Time>2021-08-31T07:01:56.000Z</Time>
            <Position>
              <LatitudeDegrees>42.06578445620834827423095703125</LatitudeDegrees>
              <LongitudeDegrees>2.15525175444781780242919921875</LongitudeDegrees>
            </Position>
            <AltitudeMeters>866.20001220703125</AltitudeMeters>
            <DistanceMeters>61354.155592411</DistanceMeters>
          </Trackpoint>
          <Trackpoint>
            <Time>2021-08-31T07:01:58.000Z</Time>
            <Position>
              <LatitudeDegrees>42.0658016391098499298095703125</LatitudeDegrees>
              <LongitudeDegrees>2.15505444444715976715087890625</LongitudeDegrees>
            </Position>
            <AltitudeMeters>865.79998779296875</AltitudeMeters>
            <DistanceMeters>61370.57075251</DistanceMeters>
          </Trackpoint>
          <Trackpoint>
            <Time>2021-08-31T07:01:59.000Z</Time>
            <Position>
              <LatitudeDegrees>42.06579116173088550567626953125</LatitudeDegrees>
              <LongitudeDegrees>2.154960818588733673095703125</LongitudeDegrees>
            </Position>
            <AltitudeMeters>865</AltitudeMeters>
            <DistanceMeters>61378.394169803</DistanceMeters>
          </Trackpoint>
          <Trackpoint>
            <Time>2021-08-31T07:02:04.000Z</Time>
            <Position>
              <LatitudeDegrees>42.06576417200267314910888671875</LatitudeDegrees>
              <LongitudeDegrees>2.15454130433499813079833984375</LongitudeDegrees>
            </Position>
            <AltitudeMeters>863.5999755859375</AltitudeMeters>
            <DistanceMeters>61413.18770524</DistanceMeters>
          </Trackpoint>
          <Trackpoint>
            <Time>2021-08-31T07:02:08.000Z</Time>
            <Position>
              <LatitudeDegrees>42.06580004654824733734130859375</LatitudeDegrees>
              <LongitudeDegrees>2.15421013534069061279296875</LongitudeDegrees>
            </Position>
            <AltitudeMeters>864.5999755859375</AltitudeMeters>
            <DistanceMeters>61440.841295491</DistanceMeters>
          </Trackpoint>
          <Trackpoint>
            <Time>2021-08-31T07:02:16.000Z</Time>
            <Position>
              <LatitudeDegrees>42.06586827524006366729736328125</LatitudeDegrees>
              <LongitudeDegrees>2.1534388326108455657958984375</LongitudeDegrees>
            </Position>
            <AltitudeMeters>862.20001220703125</AltitudeMeters>
            <DistanceMeters>61505.023241644</DistanceMeters>
          </Trackpoint>
          <Trackpoint>
            <Time>2021-08-31T07:02:19.000Z</Time>
            <Position>
              <LatitudeDegrees>42.0658710412681102752685546875</LatitudeDegrees>
              <LongitudeDegrees>2.15317388065159320831298828125</LongitudeDegrees>
            </Position>
            <AltitudeMeters>861.20001220703125</AltitudeMeters>
            <DistanceMeters>61526.917776079</DistanceMeters>
          </Trackpoint>
          <Trackpoint>
            <Time>2021-08-31T07:02:21.000Z</Time>
            <Position>
              <LatitudeDegrees>42.06587397493422031402587890625</LatitudeDegrees>
              <LongitudeDegrees>2.1529972739517688751220703125</LongitudeDegrees>
            </Position>
            <AltitudeMeters>861.4000244140625</AltitudeMeters>
            <DistanceMeters>61541.514201108</DistanceMeters>
          </Trackpoint>
          <Trackpoint>
            <Time>2021-08-31T07:02:22.000Z</Time>
            <Position>
              <LatitudeDegrees>42.0658837817609310150146484375</LatitudeDegrees>
              <LongitudeDegrees>2.15290767140686511993408203125</LongitudeDegrees>
            </Position>
            <AltitudeMeters>861.79998779296875</AltitudeMeters>
            <DistanceMeters>61548.998422121</DistanceMeters>
          </Trackpoint>
          <Trackpoint>
            <Time>2021-08-31T07:02:25.000Z</Time>
            <Position>
              <LatitudeDegrees>42.0659075863659381866455078125</LatitudeDegrees>
              <LongitudeDegrees>2.15265445411205291748046875</LongitudeDegrees>
            </Position>
            <AltitudeMeters>862.5999755859375</AltitudeMeters>
            <DistanceMeters>61570.088359184</DistanceMeters>
          </Trackpoint>
          <Trackpoint>
            <Time>2021-08-31T07:02:26.000Z</Time>
            <Position>
              <LatitudeDegrees>42.06591035239398479461669921875</LatitudeDegrees>
              <LongitudeDegrees>2.15258848853409290313720703125</LongitudeDegrees>
            </Position>
            <AltitudeMeters>862.5999755859375</AltitudeMeters>
            <DistanceMeters>61575.547228322</DistanceMeters>
          </Trackpoint>
          <Trackpoint>
            <Time>2021-08-31T07:02:32.000Z</Time>
            <Position>
              <LatitudeDegrees>42.065935246646404266357421875</LatitudeDegrees>
              <LongitudeDegrees>2.15224281884729862213134765625</LongitudeDegrees>
            </Position>
            <AltitudeMeters>863</AltitudeMeters>
            <DistanceMeters>61604.243250712</DistanceMeters>
          </Trackpoint>
          <Trackpoint>
            <Time>2021-08-31T07:02:33.000Z</Time>
            <Position>
              <LatitudeDegrees>42.0659377612173557281494140625</LatitudeDegrees>
              <LongitudeDegrees>2.152182720601558685302734375</LongitudeDegrees>
            </Position>
            <AltitudeMeters>863</AltitudeMeters>
            <DistanceMeters>61609.217424961</DistanceMeters>
          </Trackpoint>
          <Trackpoint>
            <Time>2021-08-31T07:02:35.000Z</Time>
            <Position>
              <LatitudeDegrees>42.06592007540166378021240234375</LatitudeDegrees>
              <LongitudeDegrees>2.15205674059689044952392578125</LongitudeDegrees>
            </Position>
            <AltitudeMeters>862.4000244140625</AltitudeMeters>
            <DistanceMeters>61619.81194478</DistanceMeters>
          </Trackpoint>
          <Trackpoint>
            <Time>2021-08-31T07:02:36.000Z</Time>
            <Position>
              <LatitudeDegrees>42.06590632908046245574951171875</LatitudeDegrees>
              <LongitudeDegrees>2.151986919343471527099609375</LongitudeDegrees>
            </Position>
            <AltitudeMeters>861.79998779296875</AltitudeMeters>
            <DistanceMeters>61625.781256436</DistanceMeters>
          </Trackpoint>
          <Trackpoint>
            <Time>2021-08-31T07:02:39.000Z</Time>
            <Position>
              <LatitudeDegrees>42.06587464548647403717041015625</LatitudeDegrees>
              <LongitudeDegrees>2.15178533457219600677490234375</LongitudeDegrees>
            </Position>
            <AltitudeMeters>860.79998779296875</AltitudeMeters>
            <DistanceMeters>61642.807222312</DistanceMeters>
          </Trackpoint>
          <Trackpoint>
            <Time>2021-08-31T07:02:41.000Z</Time>
            <Position>
              <LatitudeDegrees>42.06589845009148120880126953125</LatitudeDegrees>
              <LongitudeDegrees>2.15166270732879638671875</LongitudeDegrees>
            </Position>
            <AltitudeMeters>861.20001220703125</AltitudeMeters>
            <DistanceMeters>61653.280011267</DistanceMeters>
          </Trackpoint>
          <Trackpoint>
            <Time>2021-08-31T07:02:45.000Z</Time>
            <Position>
              <LatitudeDegrees>42.0659739710390567779541015625</LatitudeDegrees>
              <LongitudeDegrees>2.1513353101909160614013671875</LongitudeDegrees>
            </Position>
            <AltitudeMeters>861.4000244140625</AltitudeMeters>
            <DistanceMeters>61681.607855753</DistanceMeters>
          </Trackpoint>
          <Trackpoint>
            <Time>2021-08-31T07:02:47.000Z</Time>
            <Position>
              <LatitudeDegrees>42.06596299074590206146240234375</LatitudeDegrees>
              <LongitudeDegrees>2.1511395089328289031982421875</LongitudeDegrees>
            </Position>
            <AltitudeMeters>860</AltitudeMeters>
            <DistanceMeters>61697.832119322</DistanceMeters>
          </Trackpoint>
          <Trackpoint>
            <Time>2021-08-31T07:02:48.000Z</Time>
            <Position>
              <LatitudeDegrees>42.06593625247478485107421875</LatitudeDegrees>
              <LongitudeDegrees>2.1510469727218151092529296875</LongitudeDegrees>
            </Position>
            <AltitudeMeters>858.79998779296875</AltitudeMeters>
            <DistanceMeters>61706.036398072</DistanceMeters>
          </Trackpoint>
          <Trackpoint>
            <Time>2021-08-31T07:02:52.000Z</Time>
            <Position>
              <LatitudeDegrees>42.0658512599766254425048828125</LatitudeDegrees>
              <LongitudeDegrees>2.1507287956774234771728515625</LongitudeDegrees>
            </Position>
            <AltitudeMeters>854.5999755859375</AltitudeMeters>
            <DistanceMeters>61733.976837738</DistanceMeters>
          </Trackpoint>
          <Trackpoint>
            <Time>2021-08-31T07:02:53.000Z</Time>
            <Position>
              <LatitudeDegrees>42.0658355019986629486083984375</LatitudeDegrees>
              <LongitudeDegrees>2.15067104436457157135009765625</LongitudeDegrees>
            </Position>
            <AltitudeMeters>854</AltitudeMeters>
            <DistanceMeters>61739.059656711</DistanceMeters>
          </Trackpoint>
          <Trackpoint>
            <Time>2021-08-31T07:02:55.000Z</Time>
            <Position>
              <LatitudeDegrees>42.06582636572420597076416015625</LatitudeDegrees>
              <LongitudeDegrees>2.15055051259696483612060546875</LongitudeDegrees>
            </Position>
            <AltitudeMeters>853.20001220703125</AltitudeMeters>
            <DistanceMeters>61749.070891323</DistanceMeters>
          </Trackpoint>
          <Trackpoint>
            <Time>2021-08-31T07:02:56.000Z</Time>
            <Position>
              <LatitudeDegrees>42.06582955084741115570068359375</LatitudeDegrees>
              <LongitudeDegrees>2.15049183927476406097412109375</LongitudeDegrees>
            </Position>
            <AltitudeMeters>853</AltitudeMeters>
            <DistanceMeters>61753.932137053</DistanceMeters>
          </Trackpoint>
          <Trackpoint>
            <Time>2021-08-31T07:02:59.000Z</Time>
            <Position>
              <LatitudeDegrees>42.06584497354924678802490234375</LatitudeDegrees>
              <LongitudeDegrees>2.15040332637727260589599609375</LongitudeDegrees>
            </Position>
            <AltitudeMeters>853</AltitudeMeters>
            <DistanceMeters>61761.444658452</DistanceMeters>
          </Trackpoint>
          <Trackpoint>
            <Time>2021-08-31T07:03:00.000Z</Time>
            <Position>
              <LatitudeDegrees>42.06584497354924678802490234375</LatitudeDegrees>
              <LongitudeDegrees>2.15040332637727260589599609375</LongitudeDegrees>
            </Position>
            <AltitudeMeters>853</AltitudeMeters>
            <DistanceMeters>61761.444658452</DistanceMeters>
          </Trackpoint>
          <Trackpoint>
            <Time>2021-08-31T07:04:23.000Z</Time>
            <Position>
              <LatitudeDegrees>42.0658401958644390106201171875</LatitudeDegrees>
              <LongitudeDegrees>2.15039846487343311309814453125</LongitudeDegrees>
            </Position>
            <AltitudeMeters>852.79998779296875</AltitudeMeters>
            <DistanceMeters>61762.109845453</DistanceMeters>
          </Trackpoint>
          <Trackpoint>
            <Time>2021-08-31T07:04:24.000Z</Time>
            <Position>
              <LatitudeDegrees>42.0658401958644390106201171875</LatitudeDegrees>
              <LongitudeDegrees>2.15039846487343311309814453125</LongitudeDegrees>
            </Position>
            <AltitudeMeters>852.79998779296875</AltitudeMeters>
            <DistanceMeters>61762.109845453</DistanceMeters>
          </Trackpoint>
          <Trackpoint>
            <Time>2021-08-31T07:08:42.000Z</Time>
            <Position>
              <LatitudeDegrees>42.065936587750911712646484375</LatitudeDegrees>
              <LongitudeDegrees>2.150399722158908843994140625</LongitudeDegrees>
            </Position>
            <AltitudeMeters>854.79998779296875</AltitudeMeters>
            <DistanceMeters>61772.839030628</DistanceMeters>
          </Trackpoint>
          <Trackpoint>
            <Time>2021-08-31T07:08:44.000Z</Time>
            <Position>
              <LatitudeDegrees>42.0659588836133480072021484375</LatitudeDegrees>
              <LongitudeDegrees>2.15035580098628997802734375</LongitudeDegrees>
            </Position>
            <AltitudeMeters>855</AltitudeMeters>
            <DistanceMeters>61777.23497917</DistanceMeters>
          </Trackpoint>
          <Trackpoint>
            <Time>2021-08-31T07:08:48.000Z</Time>
            <Position>
              <LatitudeDegrees>42.0659838616847991943359375</LatitudeDegrees>
              <LongitudeDegrees>2.150242142379283905029296875</LongitudeDegrees>
            </Position>
            <AltitudeMeters>855</AltitudeMeters>
            <DistanceMeters>61787.029186747</DistanceMeters>
          </Trackpoint>
          <Trackpoint>
            <Time>2021-08-31T07:08:49.000Z</Time>
            <Position>
              <LatitudeDegrees>42.0659865438938140869140625</LatitudeDegrees>
              <LongitudeDegrees>2.1501834690570831298828125</LongitudeDegrees>
            </Position>
            <AltitudeMeters>854.79998779296875</AltitudeMeters>
            <DistanceMeters>61791.886715929</DistanceMeters>
          </Trackpoint>
          <Trackpoint>
            <Time>2021-08-31T07:08:50.000Z</Time>
            <Position>
              <LatitudeDegrees>42.065988220274448394775390625</LatitudeDegrees>
              <LongitudeDegrees>2.15010643936693668365478515625</LongitudeDegrees>
            </Position>
            <AltitudeMeters>854.20001220703125</AltitudeMeters>
            <DistanceMeters>61798.254214907</DistanceMeters>
          </Trackpoint>
          <Trackpoint>
            <Time>2021-08-31T07:08:53.000Z</Time>
            <Position>
              <LatitudeDegrees>42.06599148921668529510498046875</LatitudeDegrees>
              <LongitudeDegrees>2.14986302889883518218994140625</LongitudeDegrees>
            </Position>
            <AltitudeMeters>852.4000244140625</AltitudeMeters>
            <DistanceMeters>61818.37004836</DistanceMeters>
          </Trackpoint>
          <Trackpoint>
            <Time>2021-08-31T07:08:55.000Z</Time>
            <Position>
              <LatitudeDegrees>42.06595310010015964508056640625</LatitudeDegrees>
              <LongitudeDegrees>2.14973193593323230743408203125</LongitudeDegrees>
            </Position>
            <AltitudeMeters>851.79998779296875</AltitudeMeters>
            <DistanceMeters>61830.01382643</DistanceMeters>
          </Trackpoint>
          <Trackpoint>
            <Time>2021-08-31T07:08:56.000Z</Time>
            <Position>
              <LatitudeDegrees>42.065923511981964111328125</LatitudeDegrees>
              <LongitudeDegrees>2.149684242904186248779296875</LongitudeDegrees>
            </Position>
            <AltitudeMeters>851.20001220703125</AltitudeMeters>
            <DistanceMeters>61835.149666506</DistanceMeters>
          </Trackpoint>
          <Trackpoint>
            <Time>2021-08-31T07:09:01.000Z</Time>
            <Position>
              <LatitudeDegrees>42.06578738987445831298828125</LatitudeDegrees>
              <LongitudeDegrees>2.14952071197330951690673828125</LongitudeDegrees>
            </Position>
            <AltitudeMeters>849</AltitudeMeters>
            <DistanceMeters>61855.450273117</DistanceMeters>
          </Trackpoint>
          <Trackpoint>
            <Time>2021-08-31T07:09:06.000Z</Time>
            <Position>
              <LatitudeDegrees>42.06570248119533061981201171875</LatitudeDegrees>
              <LongitudeDegrees>2.14941174723207950592041015625</LongitudeDegrees>
            </Position>
            <AltitudeMeters>847.79998779296875</AltitudeMeters>
            <DistanceMeters>61868.502876392</DistanceMeters>
          </Trackpoint>
          <Trackpoint>
            <Time>2021-08-31T07:09:11.000Z</Time>
            <Position>
              <LatitudeDegrees>42.06550667993724346160888671875</LatitudeDegrees>
              <LongitudeDegrees>2.1492515690624713897705078125</LongitudeDegrees>
            </Position>
            <AltitudeMeters>845.79998779296875</AltitudeMeters>
            <DistanceMeters>61894.0001571</DistanceMeters>
          </Trackpoint>
          <Trackpoint>
            <Time>2021-08-31T07:09:14.000Z</Time>
            <Position>
              <LatitudeDegrees>42.06535597331821918487548828125</LatitudeDegrees>
              <LongitudeDegrees>2.1491724438965320587158203125</LongitudeDegrees>
            </Position>
            <AltitudeMeters>844.20001220703125</AltitudeMeters>
            <DistanceMeters>61912.003393859</DistanceMeters>
          </Trackpoint>
          <Trackpoint>
            <Time>2021-08-31T07:09:15.000Z</Time>
            <Position>
              <LatitudeDegrees>42.0652987249195575714111328125</LatitudeDegrees>
              <LongitudeDegrees>2.1491459570825099945068359375</LongitudeDegrees>
            </Position>
            <AltitudeMeters>843.5999755859375</AltitudeMeters>
            <DistanceMeters>61918.740245068</DistanceMeters>
          </Trackpoint>
          <Trackpoint>
            <Time>2021-08-31T07:09:19.000Z</Time>
            <Position>
              <LatitudeDegrees>42.06507618539035320281982421875</LatitudeDegrees>
              <LongitudeDegrees>2.149029113352298736572265625</LongitudeDegrees>
            </Position>
            <AltitudeMeters>841.20001220703125</AltitudeMeters>
            <DistanceMeters>61945.32429748</DistanceMeters>
          </Trackpoint>
          <Trackpoint>
            <Time>2021-08-31T07:09:21.000Z</Time>
            <Position>
              <LatitudeDegrees>42.06496353261172771453857421875</LatitudeDegrees>
              <LongitudeDegrees>2.14901327155530452728271484375</LongitudeDegrees>
            </Position>
            <AltitudeMeters>840</AltitudeMeters>
            <DistanceMeters>61957.931015745</DistanceMeters>
          </Trackpoint>
          <Trackpoint>
            <Time>2021-08-31T07:09:24.000Z</Time>
            <Position>
              <LatitudeDegrees>42.06479622982442378997802734375</LatitudeDegrees>
              <LongitudeDegrees>2.149045206606388092041015625</LongitudeDegrees>
            </Position>
            <AltitudeMeters>838.79998779296875</AltitudeMeters>
            <DistanceMeters>61976.73838463</DistanceMeters>
          </Trackpoint>
          <Trackpoint>
            <Time>2021-08-31T07:09:25.000Z</Time>
            <Position>
              <LatitudeDegrees>42.06474912352859973907470703125</LatitudeDegrees>
              <LongitudeDegrees>2.149040512740612030029296875</LongitudeDegrees>
            </Position>
            <AltitudeMeters>838.4000244140625</AltitudeMeters>
            <DistanceMeters>61981.996720306</DistanceMeters>
          </Trackpoint>
          <Trackpoint>
            <Time>2021-08-31T07:09:28.000Z</Time>
            <Position>
              <LatitudeDegrees>42.064623646438121795654296875</LatitudeDegrees>
              <LongitudeDegrees>2.14900530874729156494140625</LongitudeDegrees>
            </Position>
            <AltitudeMeters>837.20001220703125</AltitudeMeters>
            <DistanceMeters>61996.262442608</DistanceMeters>
          </Trackpoint>
          <Trackpoint>
            <Time>2021-08-31T07:09:29.000Z</Time>
            <Position>
              <LatitudeDegrees>42.0645783841609954833984375</LatitudeDegrees>
              <LongitudeDegrees>2.14900086633861064910888671875</LongitudeDegrees>
            </Position>
            <AltitudeMeters>836.79998779296875</AltitudeMeters>
            <DistanceMeters>62001.314075615</DistanceMeters>
          </Trackpoint>
          <Trackpoint>
            <Time>2021-08-31T07:09:30.000Z</Time>
            <Position>
              <LatitudeDegrees>42.06453337334096431732177734375</LatitudeDegrees>
              <LongitudeDegrees>2.1489984355866909027099609375</LongitudeDegrees>
            </Position>
            <AltitudeMeters>836.4000244140625</AltitudeMeters>
            <DistanceMeters>62006.32712885</DistanceMeters>
          </Trackpoint>
          <Trackpoint>
            <Time>2021-08-31T07:09:33.000Z</Time>
            <Position>
              <LatitudeDegrees>42.064382247626781463623046875</LatitudeDegrees>
              <LongitudeDegrees>2.1489967592060565948486328125</LongitudeDegrees>
            </Position>
            <AltitudeMeters>835.20001220703125</AltitudeMeters>
            <DistanceMeters>62023.148467839</DistanceMeters>
          </Trackpoint>
          <Trackpoint>
            <Time>2021-08-31T07:09:37.000Z</Time>
            <Position>
              <LatitudeDegrees>42.06417513079941272735595703125</LatitudeDegrees>
              <LongitudeDegrees>2.148982174694538116455078125</LongitudeDegrees>
            </Position>
            <AltitudeMeters>833.4000244140625</AltitudeMeters>
            <DistanceMeters>62046.232528163</DistanceMeters>
          </Trackpoint>
          <Trackpoint>
            <Time>2021-08-31T07:09:39.000Z</Time>
            <Position>
              <LatitudeDegrees>42.06409567035734653472900390625</LatitudeDegrees>
              <LongitudeDegrees>2.1490071527659893035888671875</LongitudeDegrees>
            </Position>
            <AltitudeMeters>832.79998779296875</AltitudeMeters>
            <DistanceMeters>62055.314417737</DistanceMeters>
          </Trackpoint>
          <Trackpoint>
            <Time>2021-08-31T07:09:40.000Z</Time>
            <Position>
              <LatitudeDegrees>42.06406398676335811614990234375</LatitudeDegrees>
              <LongitudeDegrees>2.14904487133026123046875</LongitudeDegrees>
            </Position>
            <AltitudeMeters>832.5999755859375</AltitudeMeters>
            <DistanceMeters>62060.021838219</DistanceMeters>
          </Trackpoint>
          <Trackpoint>
            <Time>2021-08-31T07:09:47.000Z</Time>
            <Position>
              <LatitudeDegrees>42.06389106810092926025390625</LatitudeDegrees>
              <LongitudeDegrees>2.1493511460721492767333984375</LongitudeDegrees>
            </Position>
            <AltitudeMeters>833.4000244140625</AltitudeMeters>
            <DistanceMeters>62091.816192082</DistanceMeters>
          </Trackpoint>
          <Trackpoint>
            <Time>2021-08-31T07:09:48.000Z</Time>
            <Position>
              <LatitudeDegrees>42.0638630725443363189697265625</LatitudeDegrees>
              <LongitudeDegrees>2.14939380995929241180419921875</LongitudeDegrees>
            </Position>
            <AltitudeMeters>833.5999755859375</AltitudeMeters>
            <DistanceMeters>62096.521693909</DistanceMeters>
          </Trackpoint>
          <Trackpoint>
            <Time>2021-08-31T07:09:50.000Z</Time>
            <Position>
              <LatitudeDegrees>42.06379584968090057373046875</LatitudeDegrees>
              <LongitudeDegrees>2.1494634635746479034423828125</LongitudeDegrees>
            </Position>
            <AltitudeMeters>833.5999755859375</AltitudeMeters>
            <DistanceMeters>62105.961439369</DistanceMeters>
          </Trackpoint>
          <Trackpoint>
            <Time>2021-08-31T07:09:51.000Z</Time>
            <Position>
              <LatitudeDegrees>42.0637576282024383544921875</LatitudeDegrees>
              <LongitudeDegrees>2.1494943089783191680908203125</LongitudeDegrees>
            </Position>
            <AltitudeMeters>833.5999755859375</AltitudeMeters>
            <DistanceMeters>62110.920158776</DistanceMeters>
          </Trackpoint>
          <Trackpoint>
            <Time>2021-08-31T07:09:58.000Z</Time>
            <Position>
              <LatitudeDegrees>42.0634733140468597412109375</LatitudeDegrees>
              <LongitudeDegrees>2.14964903891086578369140625</LongitudeDegrees>
            </Position>
            <AltitudeMeters>834.20001220703125</AltitudeMeters>
            <DistanceMeters>62145.050230577</DistanceMeters>
          </Trackpoint>
          <Trackpoint>
            <Time>2021-08-31T07:10:02.000Z</Time>
            <Position>
              <LatitudeDegrees>42.0632686279714107513427734375</LatitudeDegrees>
              <LongitudeDegrees>2.1496596001088619232177734375</LongitudeDegrees>
            </Position>
            <AltitudeMeters>834</AltitudeMeters>
            <DistanceMeters>62167.848919797</DistanceMeters>
          </Trackpoint>
          <Trackpoint>
            <Time>2021-08-31T07:10:04.000Z</Time>
            <Position>
              <LatitudeDegrees>42.063152790069580078125</LatitudeDegrees>
              <LongitudeDegrees>2.1496877633035182952880859375</LongitudeDegrees>
            </Position>
            <AltitudeMeters>833.20001220703125</AltitudeMeters>
            <DistanceMeters>62180.950205729</DistanceMeters>
          </Trackpoint>
          <Trackpoint>
            <Time>2021-08-31T07:10:09.000Z</Time>
            <Position>
              <LatitudeDegrees>42.0628548972308635711669921875</LatitudeDegrees>
              <LongitudeDegrees>2.149845175445079803466796875</LongitudeDegrees>
            </Position>
            <AltitudeMeters>829.5999755859375</AltitudeMeters>
            <DistanceMeters>62216.566339973</DistanceMeters>
          </Trackpoint>
          <Trackpoint>
            <Time>2021-08-31T07:10:14.000Z</Time>
            <Position>
              <LatitudeDegrees>42.06254384480416774749755859375</LatitudeDegrees>
              <LongitudeDegrees>2.15005631558597087860107421875</LongitudeDegrees>
            </Position>
            <AltitudeMeters>825</AltitudeMeters>
            <DistanceMeters>62255.334677357</DistanceMeters>
          </Trackpoint>
          <Trackpoint>
            <Time>2021-08-31T07:10:20.000Z</Time>
            <Position>
              <LatitudeDegrees>42.062077224254608154296875</LatitudeDegrees>
              <LongitudeDegrees>2.15021842159330844879150390625</LongitudeDegrees>
            </Position>
            <AltitudeMeters>819.20001220703125</AltitudeMeters>
            <DistanceMeters>62308.970081738</DistanceMeters>
          </Trackpoint>
          <Trackpoint>
            <Time>2021-08-31T07:10:22.000Z</Time>
            <Position>
              <LatitudeDegrees>42.061925344169139862060546875</LatitudeDegrees>
              <LongitudeDegrees>2.15022839605808258056640625</LongitudeDegrees>
            </Position>
            <AltitudeMeters>817.4000244140625</AltitudeMeters>
            <DistanceMeters>62325.894443611</DistanceMeters>
          </Trackpoint>
          <Trackpoint>
            <Time>2021-08-31T07:10:24.000Z</Time>
            <Position>
              <LatitudeDegrees>42.061792910099029541015625</LatitudeDegrees>
              <LongitudeDegrees>2.15019763447344303131103515625</LongitudeDegrees>
            </Position>
            <AltitudeMeters>815.79998779296875</AltitudeMeters>
            <DistanceMeters>62340.852022759</DistanceMeters>
          </Trackpoint>
          <Trackpoint>
            <Time>2021-08-31T07:10:28.000Z</Time>
            <Position>
              <LatitudeDegrees>42.0615788362920284271240234375</LatitudeDegrees>
              <LongitudeDegrees>2.15006855316460132598876953125</LongitudeDegrees>
            </Position>
            <AltitudeMeters>813.20001220703125</AltitudeMeters>
            <DistanceMeters>62366.957402265</DistanceMeters>
          </Trackpoint>
          <Trackpoint>
            <Time>2021-08-31T07:10:29.000Z</Time>
            <Position>
              <LatitudeDegrees>42.0615340769290924072265625</LatitudeDegrees>
              <LongitudeDegrees>2.15002211742103099822998046875</LongitudeDegrees>
            </Position>
            <AltitudeMeters>812.79998779296875</AltitudeMeters>
            <DistanceMeters>62373.244983253</DistanceMeters>
          </Trackpoint>
          <Trackpoint>
            <Time>2021-08-31T07:10:33.000Z</Time>
            <Position>
              <LatitudeDegrees>42.06130650825798511505126953125</LatitudeDegrees>
              <LongitudeDegrees>2.14980787597596645355224609375</LongitudeDegrees>
            </Position>
            <AltitudeMeters>811.5999755859375</AltitudeMeters>
            <DistanceMeters>62404.147518816</DistanceMeters>
          </Trackpoint>
          <Trackpoint>
            <Time>2021-08-31T07:10:40.000Z</Time>
            <Position>
              <LatitudeDegrees>42.060873918235301971435546875</LatitudeDegrees>
              <LongitudeDegrees>2.149393558502197265625</LongitudeDegrees>
            </Position>
            <AltitudeMeters>810</AltitudeMeters>
            <DistanceMeters>62463.227087602</DistanceMeters>
          </Trackpoint>
          <Trackpoint>
            <Time>2021-08-31T07:10:45.000Z</Time>
            <Position>
              <LatitudeDegrees>42.06057728268206119537353515625</LatitudeDegrees>
              <LongitudeDegrees>2.14912659488618373870849609375</LongitudeDegrees>
            </Position>
            <AltitudeMeters>809</AltitudeMeters>
            <DistanceMeters>62502.934952788</DistanceMeters>
          </Trackpoint>
          <Trackpoint>
            <Time>2021-08-31T07:10:46.000Z</Time>
            <Position>
              <LatitudeDegrees>42.060519196093082427978515625</LatitudeDegrees>
              <LongitudeDegrees>2.14908133260905742645263671875</LongitudeDegrees>
            </Position>
            <AltitudeMeters>809</AltitudeMeters>
            <DistanceMeters>62510.404076717</DistanceMeters>
          </Trackpoint>
          <Trackpoint>
            <Time>2021-08-31T07:10:48.000Z</Time>
            <Position>
              <LatitudeDegrees>42.06044736318290233612060546875</LatitudeDegrees>
              <LongitudeDegrees>2.14903481304645538330078125</LongitudeDegrees>
            </Position>
            <AltitudeMeters>808.79998779296875</AltitudeMeters>
            <DistanceMeters>62519.275725171</DistanceMeters>
          </Trackpoint>
          <Trackpoint>
            <Time>2021-08-31T07:10:49.000Z</Time>
            <Position>
              <LatitudeDegrees>42.06041953526437282562255859375</LatitudeDegrees>
              <LongitudeDegrees>2.1490346454083919525146484375</LongitudeDegrees>
            </Position>
            <AltitudeMeters>808.5999755859375</AltitudeMeters>
            <DistanceMeters>62522.373945831</DistanceMeters>
          </Trackpoint>
          <Trackpoint>
            <Time>2021-08-31T07:10:51.000Z</Time>
            <Position>
              <LatitudeDegrees>42.06036320887506008148193359375</LatitudeDegrees>
              <LongitudeDegrees>2.1490966714918613433837890625</LongitudeDegrees>
            </Position>
            <AltitudeMeters>808.20001220703125</AltitudeMeters>
            <DistanceMeters>62530.471872426</DistanceMeters>
          </Trackpoint>
          <Trackpoint>
            <Time>2021-08-31T07:10:56.000Z</Time>
            <Position>
              <LatitudeDegrees>42.06021468155086040496826171875</LatitudeDegrees>
              <LongitudeDegrees>2.149393893778324127197265625</LongitudeDegrees>
            </Position>
            <AltitudeMeters>806.5999755859375</AltitudeMeters>
            <DistanceMeters>62560.078146428</DistanceMeters>
          </Trackpoint>
          <Trackpoint>
            <Time>2021-08-31T07:11:02.000Z</Time>
            <Position>
              <LatitudeDegrees>42.059961967170238494873046875</LatitudeDegrees>
              <LongitudeDegrees>2.1497068740427494049072265625</LongitudeDegrees>
            </Position>
            <AltitudeMeters>807.4000244140625</AltitudeMeters>
            <DistanceMeters>62598.288930641</DistanceMeters>
          </Trackpoint>
          <Trackpoint>
            <Time>2021-08-31T07:11:10.000Z</Time>
            <Position>
              <LatitudeDegrees>42.05964823253452777862548828125</LatitudeDegrees>
              <LongitudeDegrees>2.1500619314610958099365234375</LongitudeDegrees>
            </Position>
            <AltitudeMeters>807</AltitudeMeters>
            <DistanceMeters>62643.898387885</DistanceMeters>
          </Trackpoint>
          <Trackpoint>
            <Time>2021-08-31T07:11:13.000Z</Time>
            <Position>
              <LatitudeDegrees>42.05952669493854045867919921875</LatitudeDegrees>
              <LongitudeDegrees>2.15021632611751556396484375</LongitudeDegrees>
            </Position>
            <AltitudeMeters>806.79998779296875</AltitudeMeters>
            <DistanceMeters>62662.493540135</DistanceMeters>
          </Trackpoint>
          <Trackpoint>
            <Time>2021-08-31T07:11:16.000Z</Time>
            <Position>
              <LatitudeDegrees>42.059406749904155731201171875</LatitudeDegrees>
              <LongitudeDegrees>2.1503777615725994110107421875</LongitudeDegrees>
            </Position>
            <AltitudeMeters>806.5999755859375</AltitudeMeters>
            <DistanceMeters>62681.366572888</DistanceMeters>
          </Trackpoint>
          <Trackpoint>
            <Time>2021-08-31T07:11:23.000Z</Time>
            <Position>
              <LatitudeDegrees>42.0591521076858043670654296875</LatitudeDegrees>
              <LongitudeDegrees>2.150727622210979461669921875</LongitudeDegrees>
            </Position>
            <AltitudeMeters>806.20001220703125</AltitudeMeters>
            <DistanceMeters>62721.852860396</DistanceMeters>
          </Trackpoint>
          <Trackpoint>
            <Time>2021-08-31T07:11:27.000Z</Time>
            <Position>
              <LatitudeDegrees>42.0590116269886493682861328125</LatitudeDegrees>
              <LongitudeDegrees>2.15090154670178890228271484375</LongitudeDegrees>
            </Position>
            <AltitudeMeters>806.20001220703125</AltitudeMeters>
            <DistanceMeters>62743.090640136</DistanceMeters>
          </Trackpoint>
          <Trackpoint>
            <Time>2021-08-31T07:11:29.000Z</Time>
            <Position>
              <LatitudeDegrees>42.0589378662407398223876953125</LatitudeDegrees>
              <LongitudeDegrees>2.15093054808676242828369140625</LongitudeDegrees>
            </Position>
            <AltitudeMeters>806.4000244140625</AltitudeMeters>
            <DistanceMeters>62751.643044429</DistanceMeters>
          </Trackpoint>
          <Trackpoint>
            <Time>2021-08-31T07:11:30.000Z</Time>
            <Position>
              <LatitudeDegrees>42.0589019916951656341552734375</LatitudeDegrees>
              <LongitudeDegrees>2.15091370046138763427734375</LongitudeDegrees>
            </Position>
            <AltitudeMeters>806.4000244140625</AltitudeMeters>
            <DistanceMeters>62755.871466281</DistanceMeters>
          </Trackpoint>
          <Trackpoint>
            <Time>2021-08-31T07:11:32.000Z</Time>
            <Position>
              <LatitudeDegrees>42.058846168220043182373046875</LatitudeDegrees>
              <LongitudeDegrees>2.15084304101765155792236328125</LongitudeDegrees>
            </Position>
            <AltitudeMeters>806.4000244140625</AltitudeMeters>
            <DistanceMeters>62764.397433404</DistanceMeters>
          </Trackpoint>
          <Trackpoint>
            <Time>2021-08-31T07:11:33.000Z</Time>
            <Position>
              <LatitudeDegrees>42.058815658092498779296875</LatitudeDegrees>
              <LongitudeDegrees>2.1508102677762508392333984375</LongitudeDegrees>
            </Position>
            <AltitudeMeters>806.4000244140625</AltitudeMeters>
            <DistanceMeters>62768.741723883</DistanceMeters>
          </Trackpoint>
          <Trackpoint>
            <Time>2021-08-31T07:11:38.000Z</Time>
            <Position>
              <LatitudeDegrees>42.0586672984063625335693359375</LatitudeDegrees>
              <LongitudeDegrees>2.15062008239328861236572265625</LongitudeDegrees>
            </Position>
            <AltitudeMeters>805.5999755859375</AltitudeMeters>
            <DistanceMeters>62791.537838447</DistanceMeters>
          </Trackpoint>
          <Trackpoint>
            <Time>2021-08-31T07:11:41.000Z</Time>
            <Position>
              <LatitudeDegrees>42.05857082270085811614990234375</LatitudeDegrees>
              <LongitudeDegrees>2.1505346707999706268310546875</LongitudeDegrees>
            </Position>
            <AltitudeMeters>805.20001220703125</AltitudeMeters>
            <DistanceMeters>62804.387895951</DistanceMeters>
          </Trackpoint>
          <Trackpoint>
            <Time>2021-08-31T07:11:42.000Z</Time>
            <Position>
              <LatitudeDegrees>42.058539055287837982177734375</LatitudeDegrees>
              <LongitudeDegrees>2.1505340002477169036865234375</LongitudeDegrees>
            </Position>
            <AltitudeMeters>805.20001220703125</AltitudeMeters>
            <DistanceMeters>62807.923094078</DistanceMeters>
          </Trackpoint>
          <Trackpoint>
            <Time>2021-08-31T07:11:43.000Z</Time>
            <Position>
              <LatitudeDegrees>42.058511562645435333251953125</LatitudeDegrees>
              <LongitudeDegrees>2.1505467407405376434326171875</LongitudeDegrees>
            </Position>
            <AltitudeMeters>805.4000244140625</AltitudeMeters>
            <DistanceMeters>62811.159587346</DistanceMeters>
          </Trackpoint>
          <Trackpoint>
            <Time>2021-08-31T07:11:46.000Z</Time>
            <Position>
              <LatitudeDegrees>42.05844526179134845733642578125</LatitudeDegrees>
              <LongitudeDegrees>2.15063064359128475189208984375</LongitudeDegrees>
            </Position>
            <AltitudeMeters>806</AltitudeMeters>
            <DistanceMeters>62821.285173153</DistanceMeters>
          </Trackpoint>
          <Trackpoint>
            <Time>2021-08-31T07:11:51.000Z</Time>
            <Position>
              <LatitudeDegrees>42.058364711701869964599609375</LatitudeDegrees>
              <LongitudeDegrees>2.150745391845703125</LongitudeDegrees>
            </Position>
            <AltitudeMeters>806.5999755859375</AltitudeMeters>
            <DistanceMeters>62834.335354828</DistanceMeters>
          </Trackpoint>
          <Trackpoint>
            <Time>2021-08-31T07:11:53.000Z</Time>
            <Position>
              <LatitudeDegrees>42.05836010165512561798095703125</LatitudeDegrees>
              <LongitudeDegrees>2.15074731968343257904052734375</LongitudeDegrees>
            </Position>
            <AltitudeMeters>806.79998779296875</AltitudeMeters>
            <DistanceMeters>62834.872907101</DistanceMeters>
          </Trackpoint>
          <Trackpoint>
            <Time>2021-08-31T07:14:34.000Z</Time>
            <Position>
              <LatitudeDegrees>42.05834233202040195465087890625</LatitudeDegrees>
              <LongitudeDegrees>2.1507869660854339599609375</LongitudeDegrees>
            </Position>
            <AltitudeMeters>807</AltitudeMeters>
            <DistanceMeters>62838.698838872</DistanceMeters>
          </Trackpoint>
          <Trackpoint>
            <Time>2021-08-31T07:14:35.000Z</Time>
            <Position>
              <LatitudeDegrees>42.05835071392357349395751953125</LatitudeDegrees>
              <LongitudeDegrees>2.15081655420362949371337890625</LongitudeDegrees>
            </Position>
            <AltitudeMeters>807</AltitudeMeters>
            <DistanceMeters>62841.315095347</DistanceMeters>
          </Trackpoint>
          <Trackpoint>
            <Time>2021-08-31T07:14:40.000Z</Time>
            <Position>
              <LatitudeDegrees>42.05845423042774200439453125</LatitudeDegrees>
              <LongitudeDegrees>2.1509993635118007659912109375</LongitudeDegrees>
            </Position>
            <AltitudeMeters>807</AltitudeMeters>
            <DistanceMeters>62860.314260481</DistanceMeters>
          </Trackpoint>
          <Trackpoint>
            <Time>2021-08-31T07:14:46.000Z</Time>
            <Position>
              <LatitudeDegrees>42.0586257241666316986083984375</LatitudeDegrees>
              <LongitudeDegrees>2.1512241661548614501953125</LongitudeDegrees>
            </Position>
            <AltitudeMeters>807</AltitudeMeters>
            <DistanceMeters>62886.949555218</DistanceMeters>
          </Trackpoint>
          <Trackpoint>
            <Time>2021-08-31T07:14:49.000Z</Time>
            <Position>
              <LatitudeDegrees>42.05868230201303958892822265625</LatitudeDegrees>
              <LongitudeDegrees>2.1513242460787296295166015625</LongitudeDegrees>
            </Position>
            <AltitudeMeters>807.20001220703125</AltitudeMeters>
            <DistanceMeters>62897.344452751</DistanceMeters>
          </Trackpoint>
          <Trackpoint>
            <Time>2021-08-31T07:14:50.000Z</Time>
            <Position>
              <LatitudeDegrees>42.05868624150753021240234375</LatitudeDegrees>
              <LongitudeDegrees>2.151343859732151031494140625</LongitudeDegrees>
            </Position>
            <AltitudeMeters>807.20001220703125</AltitudeMeters>
            <DistanceMeters>62899.022959186</DistanceMeters>
          </Trackpoint>
          <Trackpoint>
            <Time>2021-08-31T07:14:51.000Z</Time>
            <Position>
              <LatitudeDegrees>42.0586867444217205047607421875</LatitudeDegrees>
              <LongitudeDegrees>2.1513664908707141876220703125</LongitudeDegrees>
            </Position>
            <AltitudeMeters>807.20001220703125</AltitudeMeters>
            <DistanceMeters>62900.897178953</DistanceMeters>
          </Trackpoint>
          <Trackpoint>
            <Time>2021-08-31T07:14:54.000Z</Time>
            <Position>
              <LatitudeDegrees>42.05864408053457736968994140625</LatitudeDegrees>
              <LongitudeDegrees>2.1514566801488399505615234375</LongitudeDegrees>
            </Position>
            <AltitudeMeters>807.4000244140625</AltitudeMeters>
            <DistanceMeters>62909.734152478</DistanceMeters>
          </Trackpoint>
          <Trackpoint>
            <Time>2021-08-31T07:15:01.000Z</Time>
            <Position>
              <LatitudeDegrees>42.05844677053391933441162109375</LatitudeDegrees>
              <LongitudeDegrees>2.1517057903110980987548828125</LongitudeDegrees>
            </Position>
            <AltitudeMeters>807.79998779296875</AltitudeMeters>
            <DistanceMeters>62939.834829882</DistanceMeters>
          </Trackpoint>
          <Trackpoint>
            <Time>2021-08-31T07:15:07.000Z</Time>
            <Position>
              <LatitudeDegrees>42.05819833092391490936279296875</LatitudeDegrees>
              <LongitudeDegrees>2.15191642753779888153076171875</LongitudeDegrees>
            </Position>
            <AltitudeMeters>806.79998779296875</AltitudeMeters>
            <DistanceMeters>62972.509099236</DistanceMeters>
          </Trackpoint>
          <Trackpoint>
            <Time>2021-08-31T07:15:12.000Z</Time>
            <Position>
              <LatitudeDegrees>42.0579548366367816925048828125</LatitudeDegrees>
              <LongitudeDegrees>2.15209462679922580718994140625</LongitudeDegrees>
            </Position>
            <AltitudeMeters>805.79998779296875</AltitudeMeters>
            <DistanceMeters>63003.352844364</DistanceMeters>
          </Trackpoint>
          <Trackpoint>
            <Time>2021-08-31T07:15:13.000Z</Time>
            <Position>
              <LatitudeDegrees>42.0579102449119091033935546875</LatitudeDegrees>
              <LongitudeDegrees>2.15215078555047512054443359375</LongitudeDegrees>
            </Position>
            <AltitudeMeters>805.5999755859375</AltitudeMeters>
            <DistanceMeters>63010.147752815</DistanceMeters>
          </Trackpoint>
          <Trackpoint>
            <Time>2021-08-31T07:15:14.000Z</Time>
            <Position>
              <LatitudeDegrees>42.05786908976733684539794921875</LatitudeDegrees>
              <LongitudeDegrees>2.15222069062292575836181640625</LongitudeDegrees>
            </Position>
            <AltitudeMeters>805.20001220703125</AltitudeMeters>
            <DistanceMeters>63017.520748149</DistanceMeters>
          </Trackpoint>
          <Trackpoint>
            <Time>2021-08-31T07:15:16.000Z</Time>
            <Position>
              <LatitudeDegrees>42.0578120090067386627197265625</LatitudeDegrees>
              <LongitudeDegrees>2.15239285491406917572021484375</LongitudeDegrees>
            </Position>
            <AltitudeMeters>804.20001220703125</AltitudeMeters>
            <DistanceMeters>63033.10223188</DistanceMeters>
          </Trackpoint>
          <Trackpoint>
            <Time>2021-08-31T07:15:18.000Z</Time>
            <Position>
              <LatitudeDegrees>42.057786695659160614013671875</LatitudeDegrees>
              <LongitudeDegrees>2.15259921737015247344970703125</LongitudeDegrees>
            </Position>
            <AltitudeMeters>803.4000244140625</AltitudeMeters>
            <DistanceMeters>63050.386648245</DistanceMeters>
          </Trackpoint>
          <Trackpoint>
            <Time>2021-08-31T07:15:20.000Z</Time>
            <Position>
              <LatitudeDegrees>42.05778694711625576019287109375</LatitudeDegrees>
              <LongitudeDegrees>2.15281404554843902587890625</LongitudeDegrees>
            </Position>
            <AltitudeMeters>803</AltitudeMeters>
            <DistanceMeters>63068.139612168</DistanceMeters>
          </Trackpoint>
          <Trackpoint>
            <Time>2021-08-31T07:15:23.000Z</Time>
            <Position>
              <LatitudeDegrees>42.0577660761773586273193359375</LatitudeDegrees>
              <LongitudeDegrees>2.15315736830234527587890625</LongitudeDegrees>
            </Position>
            <AltitudeMeters>801.20001220703125</AltitudeMeters>
            <DistanceMeters>63096.606101237</DistanceMeters>
          </Trackpoint>
          <Trackpoint>
            <Time>2021-08-31T07:15:25.000Z</Time>
            <Position>
              <LatitudeDegrees>42.0577204786241054534912109375</LatitudeDegrees>
              <LongitudeDegrees>2.15337865054607391357421875</LongitudeDegrees>
            </Position>
            <AltitudeMeters>800.5999755859375</AltitudeMeters>
            <DistanceMeters>63115.583866356</DistanceMeters>
          </Trackpoint>
          <Trackpoint>
            <Time>2021-08-31T07:15:29.000Z</Time>
            <Position>
              <LatitudeDegrees>42.0575531758368015289306640625</LatitudeDegrees>
              <LongitudeDegrees>2.15377628803253173828125</LongitudeDegrees>
            </Position>
            <AltitudeMeters>800.5999755859375</AltitudeMeters>
            <DistanceMeters>63153.35348889</DistanceMeters>
          </Trackpoint>
          <Trackpoint>
            <Time>2021-08-31T07:15:33.000Z</Time>
            <Position>
              <LatitudeDegrees>42.0573846995830535888671875</LatitudeDegrees>
              <LongitudeDegrees>2.1541271544992923736572265625</LongitudeDegrees>
            </Position>
            <AltitudeMeters>801</AltitudeMeters>
            <DistanceMeters>63187.883900904</DistanceMeters>
          </Trackpoint>
          <Trackpoint>
            <Time>2021-08-31T07:15:34.000Z</Time>
            <Position>
              <LatitudeDegrees>42.05735796131193637847900390625</LatitudeDegrees>
              <LongitudeDegrees>2.1541915275156497955322265625</LongitudeDegrees>
            </Position>
            <AltitudeMeters>800.79998779296875</AltitudeMeters>
            <DistanceMeters>63193.978959106</DistanceMeters>
          </Trackpoint>
          <Trackpoint>
            <Time>2021-08-31T07:15:36.000Z</Time>
            <Position>
              <LatitudeDegrees>42.0573013834655284881591796875</LatitudeDegrees>
              <LongitudeDegrees>2.15426109731197357177734375</LongitudeDegrees>
            </Position>
            <AltitudeMeters>800.5999755859375</AltitudeMeters>
            <DistanceMeters>63202.505985289</DistanceMeters>
          </Trackpoint>
          <Trackpoint>
            <Time>2021-08-31T07:15:37.000Z</Time>
            <Position>
              <LatitudeDegrees>42.0572799257934093475341796875</LatitudeDegrees>
              <LongitudeDegrees>2.154274843633174896240234375</LongitudeDegrees>
            </Position>
            <AltitudeMeters>800.79998779296875</AltitudeMeters>
            <DistanceMeters>63205.149709777</DistanceMeters>
          </Trackpoint>
          <Trackpoint>
            <Time>2021-08-31T07:15:39.000Z</Time>
            <Position>
              <LatitudeDegrees>42.05725905485451221466064453125</LatitudeDegrees>
              <LongitudeDegrees>2.15429194271564483642578125</LongitudeDegrees>
            </Position>
            <AltitudeMeters>800.79998779296875</AltitudeMeters>
            <DistanceMeters>63207.867540259</DistanceMeters>
          </Trackpoint>
          <Trackpoint>
            <Time>2021-08-31T07:15:41.000Z</Time>
            <Position>
              <LatitudeDegrees>42.0572557859122753143310546875</LatitudeDegrees>
              <LongitudeDegrees>2.15427509509027004241943359375</LongitudeDegrees>
            </Position>
            <AltitudeMeters>800.79998779296875</AltitudeMeters>
            <DistanceMeters>63209.30241218</DistanceMeters>
          </Trackpoint>
          <Trackpoint>
            <Time>2021-08-31T07:15:43.000Z</Time>
            <Position>
              <LatitudeDegrees>42.0572584681212902069091796875</LatitudeDegrees>
              <LongitudeDegrees>2.15426973067224025726318359375</LongitudeDegrees>
            </Position>
            <AltitudeMeters>800.79998779296875</AltitudeMeters>
            <DistanceMeters>63209.839964453</DistanceMeters>
          </Trackpoint>
          <Trackpoint>
            <Time>2021-08-31T07:15:49.000Z</Time>
            <Position>
              <LatitudeDegrees>42.05729392357170581817626953125</LatitudeDegrees>
              <LongitudeDegrees>2.154315412044525146484375</LongitudeDegrees>
            </Position>
            <AltitudeMeters>800.4000244140625</AltitudeMeters>
            <DistanceMeters>63215.302140995</DistanceMeters>
          </Trackpoint>
          <Trackpoint>
            <Time>2021-08-31T07:15:50.000Z</Time>
            <Position>
              <LatitudeDegrees>42.05730565823614597320556640625</LatitudeDegrees>
              <LongitudeDegrees>2.15434064157307147979736328125</LongitudeDegrees>
            </Position>
            <AltitudeMeters>800.20001220703125</AltitudeMeters>
            <DistanceMeters>63217.761846509</DistanceMeters>
          </Trackpoint>
          <Trackpoint>
            <Time>2021-08-31T07:15:54.000Z</Time>
            <Position>
              <LatitudeDegrees>42.05737271346151828765869140625</LatitudeDegrees>
              <LongitudeDegrees>2.154484055936336517333984375</LongitudeDegrees>
            </Position>
            <AltitudeMeters>799</AltitudeMeters>
            <DistanceMeters>63231.767572145</DistanceMeters>
          </Trackpoint>
          <Trackpoint>
            <Time>2021-08-31T07:15:55.000Z</Time>
            <Position>
              <LatitudeDegrees>42.0573955960571765899658203125</LatitudeDegrees>
              <LongitudeDegrees>2.15453342534601688385009765625</LongitudeDegrees>
            </Position>
            <AltitudeMeters>798.5999755859375</AltitudeMeters>
            <DistanceMeters>63236.576524814</DistanceMeters>
          </Trackpoint>
          <Trackpoint>
            <Time>2021-08-31T07:15:56.000Z</Time>
            <Position>
              <LatitudeDegrees>42.057425938546657562255859375</LatitudeDegrees>
              <LongitudeDegrees>2.1545848064124584197998046875</LongitudeDegrees>
            </Position>
            <AltitudeMeters>798.20001220703125</AltitudeMeters>
            <DistanceMeters>63242.00220903</DistanceMeters>
          </Trackpoint>
          <Trackpoint>
            <Time>2021-08-31T07:15:58.000Z</Time>
            <Position>
              <LatitudeDegrees>42.05750766210258007049560546875</LatitudeDegrees>
              <LongitudeDegrees>2.1546810306608676910400390625</LongitudeDegrees>
            </Position>
            <AltitudeMeters>798</AltitudeMeters>
            <DistanceMeters>63254.084062601</DistanceMeters>
          </Trackpoint>
          <Trackpoint>
            <Time>2021-08-31T07:15:59.000Z</Time>
            <Position>
              <LatitudeDegrees>42.05755711533129215240478515625</LatitudeDegrees>
              <LongitudeDegrees>2.15472956188023090362548828125</LongitudeDegrees>
            </Position>
            <AltitudeMeters>798</AltitudeMeters>
            <DistanceMeters>63260.8942368</DistanceMeters>
          </Trackpoint>
          <Trackpoint>
            <Time>2021-08-31T07:16:04.000Z</Time>
            <Position>
              <LatitudeDegrees>42.057843692600727081298828125</LatitudeDegrees>
              <LongitudeDegrees>2.15503717772662639617919921875</LongitudeDegrees>
            </Position>
            <AltitudeMeters>796.79998779296875</AltitudeMeters>
            <DistanceMeters>63301.681624351</DistanceMeters>
          </Trackpoint>
          <Trackpoint>
            <Time>2021-08-31T07:16:07.000Z</Time>
            <Position>
              <LatitudeDegrees>42.0580363087356090545654296875</LatitudeDegrees>
              <LongitudeDegrees>2.1552154608070850372314453125</LongitudeDegrees>
            </Position>
            <AltitudeMeters>795.5999755859375</AltitudeMeters>
            <DistanceMeters>63327.694655862</DistanceMeters>
          </Trackpoint>
          <Trackpoint>
            <Time>2021-08-31T07:16:09.000Z</Time>
            <Position>
              <LatitudeDegrees>42.058182992041110992431640625</LatitudeDegrees>
              <LongitudeDegrees>2.15529777109622955322265625</LongitudeDegrees>
            </Position>
            <AltitudeMeters>795.4000244140625</AltitudeMeters>
            <DistanceMeters>63345.380860883</DistanceMeters>
          </Trackpoint>
          <Trackpoint>
            <Time>2021-08-31T07:16:13.000Z</Time>
            <Position>
              <LatitudeDegrees>42.058504521846771240234375</LatitudeDegrees>
              <LongitudeDegrees>2.155344374477863311767578125</LongitudeDegrees>
            </Position>
            <AltitudeMeters>796.4000244140625</AltitudeMeters>
            <DistanceMeters>63381.37429094</DistanceMeters>
          </Trackpoint>
          <Trackpoint>
            <Time>2021-08-31T07:16:16.000Z</Time>
            <Position>
              <LatitudeDegrees>42.05875061452388763427734375</LatitudeDegrees>
              <LongitudeDegrees>2.15540648438036441802978515625</LongitudeDegrees>
            </Position>
            <AltitudeMeters>797</AltitudeMeters>
            <DistanceMeters>63409.241593898</DistanceMeters>
          </Trackpoint>
          <Trackpoint>
            <Time>2021-08-31T07:16:17.000Z</Time>
            <Position>
              <LatitudeDegrees>42.0588295720517635345458984375</LatitudeDegrees>
              <LongitudeDegrees>2.1554535068571567535400390625</LongitudeDegrees>
            </Position>
            <AltitudeMeters>796.79998779296875</AltitudeMeters>
            <DistanceMeters>63418.850105831</DistanceMeters>
          </Trackpoint>
          <Trackpoint>
            <Time>2021-08-31T07:16:18.000Z</Time>
            <Position>
              <LatitudeDegrees>42.0589028298854827880859375</LatitudeDegrees>
              <LongitudeDegrees>2.1555208973586559295654296875</LongitudeDegrees>
            </Position>
            <AltitudeMeters>796.4000244140625</AltitudeMeters>
            <DistanceMeters>63428.723742713</DistanceMeters>
          </Trackpoint>
          <Trackpoint>
            <Time>2021-08-31T07:16:20.000Z</Time>
            <Position>
              <LatitudeDegrees>42.0590062625706195831298828125</LatitudeDegrees>
              <LongitudeDegrees>2.15571083128452301025390625</LongitudeDegrees>
            </Position>
            <AltitudeMeters>794.4000244140625</AltitudeMeters>
            <DistanceMeters>63448.188684209</DistanceMeters>
          </Trackpoint>
          <Trackpoint>
            <Time>2021-08-31T07:16:22.000Z</Time>
            <Position>
              <LatitudeDegrees>42.05903920345008373260498046875</LatitudeDegrees>
              <LongitudeDegrees>2.155935801565647125244140625</LongitudeDegrees>
            </Position>
            <AltitudeMeters>793.79998779296875</AltitudeMeters>
            <DistanceMeters>63467.137401832</DistanceMeters>
          </Trackpoint>
          <Trackpoint>
            <Time>2021-08-31T07:16:23.000Z</Time>
            <Position>
              <LatitudeDegrees>42.059030234813690185546875</LatitudeDegrees>
              <LongitudeDegrees>2.15604769997298717498779296875</LongitudeDegrees>
            </Position>
            <AltitudeMeters>793.5999755859375</AltitudeMeters>
            <DistanceMeters>63476.438376638</DistanceMeters>
          </Trackpoint>
          <Trackpoint>
            <Time>2021-08-31T07:16:24.000Z</Time>
            <Position>
              <LatitudeDegrees>42.05901187844574451446533203125</LatitudeDegrees>
              <LongitudeDegrees>2.15615515597164630889892578125</LongitudeDegrees>
            </Position>
            <AltitudeMeters>793.5999755859375</AltitudeMeters>
            <DistanceMeters>63485.550046234</DistanceMeters>
          </Trackpoint>
          <Trackpoint>
            <Time>2021-08-31T07:16:27.000Z</Time>
            <Position>
              <LatitudeDegrees>42.0589569769799709320068359375</LatitudeDegrees>
              <LongitudeDegrees>2.1564517915248870849609375</LongitudeDegrees>
            </Position>
            <AltitudeMeters>793.4000244140625</AltitudeMeters>
            <DistanceMeters>63510.813037206</DistanceMeters>
          </Trackpoint>
          <Trackpoint>
            <Time>2021-08-31T07:16:32.000Z</Time>
            <Position>
              <LatitudeDegrees>42.05886594951152801513671875</LatitudeDegrees>
              <LongitudeDegrees>2.15690039098262786865234375</LongitudeDegrees>
            </Position>
            <AltitudeMeters>793</AltitudeMeters>
            <DistanceMeters>63549.243560526</DistanceMeters>
          </Trackpoint>
          <Trackpoint>
            <Time>2021-08-31T07:16:35.000Z</Time>
            <Position>
              <LatitudeDegrees>42.0587742514908313751220703125</LatitudeDegrees>
              <LongitudeDegrees>2.1571426279842853546142578125</LongitudeDegrees>
            </Position>
            <AltitudeMeters>793</AltitudeMeters>
            <DistanceMeters>63571.713309838</DistanceMeters>
          </Trackpoint>
          <Trackpoint>
            <Time>2021-08-31T07:16:36.000Z</Time>
            <Position>
              <LatitudeDegrees>42.05873292870819568634033203125</LatitudeDegrees>
              <LongitudeDegrees>2.15720951557159423828125</LongitudeDegrees>
            </Position>
            <AltitudeMeters>793.20001220703125</AltitudeMeters>
            <DistanceMeters>63578.9040134</DistanceMeters>
          </Trackpoint>
          <Trackpoint>
            <Time>2021-08-31T07:16:38.000Z</Time>
            <Position>
              <LatitudeDegrees>42.05863502807915210723876953125</LatitudeDegrees>
              <LongitudeDegrees>2.15732275508344173431396484375</LongitudeDegrees>
            </Position>
            <AltitudeMeters>793.20001220703125</AltitudeMeters>
            <DistanceMeters>63593.2671999</DistanceMeters>
          </Trackpoint>
          <Trackpoint>
            <Time>2021-08-31T07:16:41.000Z</Time>
            <Position>
              <LatitudeDegrees>42.0584721677005290985107421875</LatitudeDegrees>
              <LongitudeDegrees>2.15745292603969573974609375</LongitudeDegrees>
            </Position>
            <AltitudeMeters>793</AltitudeMeters>
            <DistanceMeters>63614.345359002</DistanceMeters>
          </Trackpoint>
          <Trackpoint>
            <Time>2021-08-31T07:16:49.000Z</Time>
            <Position>
              <LatitudeDegrees>42.05803756602108478546142578125</LatitudeDegrees>
              <LongitudeDegrees>2.15777521021664142608642578125</LongitudeDegrees>
            </Position>
            <AltitudeMeters>793</AltitudeMeters>
            <DistanceMeters>63669.564629667</DistanceMeters>
          </Trackpoint>
          <Trackpoint>
            <Time>2021-08-31T07:16:56.000Z</Time>
            <Position>
              <LatitudeDegrees>42.05765401013195514678955078125</LatitudeDegrees>
              <LongitudeDegrees>2.15805667452514171600341796875</LongitudeDegrees>
            </Position>
            <AltitudeMeters>792.79998779296875</AltitudeMeters>
            <DistanceMeters>63718.180523346</DistanceMeters>
          </Trackpoint>
          <Trackpoint>
            <Time>2021-08-31T07:16:57.000Z</Time>
            <Position>
              <LatitudeDegrees>42.0576027967035770416259765625</LatitudeDegrees>
              <LongitudeDegrees>2.15809933841228485107421875</LongitudeDegrees>
            </Position>
            <AltitudeMeters>792.79998779296875</AltitudeMeters>
            <DistanceMeters>63724.883780792</DistanceMeters>
          </Trackpoint>
          <Trackpoint>
            <Time>2021-08-31T07:17:00.000Z</Time>
            <Position>
              <LatitudeDegrees>42.05743809230625629425048828125</LatitudeDegrees>
              <LongitudeDegrees>2.15821978636085987091064453125</LongitudeDegrees>
            </Position>
            <AltitudeMeters>792.79998779296875</AltitudeMeters>
            <DistanceMeters>63745.743605661</DistanceMeters>
          </Trackpoint>
          <Trackpoint>
            <Time>2021-08-31T07:17:07.000Z</Time>
            <Position>
              <LatitudeDegrees>42.05704129301011562347412109375</LatitudeDegrees>
              <LongitudeDegrees>2.1584934554994106292724609375</LongitudeDegrees>
            </Position>
            <AltitudeMeters>794.5999755859375</AltitudeMeters>
            <DistanceMeters>63795.361929916</DistanceMeters>
          </Trackpoint>
          <Trackpoint>
            <Time>2021-08-31T07:17:09.000Z</Time>
            <Position>
              <LatitudeDegrees>42.05693878233432769775390625</LatitudeDegrees>
              <LongitudeDegrees>2.158577442169189453125</LongitudeDegrees>
            </Position>
            <AltitudeMeters>795.4000244140625</AltitudeMeters>
            <DistanceMeters>63808.717156231</DistanceMeters>
          </Trackpoint>
          <Trackpoint>
            <Time>2021-08-31T07:17:13.000Z</Time>
            <Position>
              <LatitudeDegrees>42.05674524419009685516357421875</LatitudeDegrees>
              <LongitudeDegrees>2.15879361145198345184326171875</LongitudeDegrees>
            </Position>
            <AltitudeMeters>795.79998779296875</AltitudeMeters>
            <DistanceMeters>63836.701999267</DistanceMeters>
          </Trackpoint>
          <Trackpoint>
            <Time>2021-08-31T07:17:17.000Z</Time>
            <Position>
              <LatitudeDegrees>42.05652932636439800262451171875</LatitudeDegrees>
              <LongitudeDegrees>2.15898153372108936309814453125</LongitudeDegrees>
            </Position>
            <AltitudeMeters>795.79998779296875</AltitudeMeters>
            <DistanceMeters>63865.314983221</DistanceMeters>
          </Trackpoint>
          <Trackpoint>
            <Time>2021-08-31T07:17:18.000Z</Time>
            <Position>
              <LatitudeDegrees>42.0564700663089752197265625</LatitudeDegrees>
              <LongitudeDegrees>2.15901154093444347381591796875</LongitudeDegrees>
            </Position>
            <AltitudeMeters>795.79998779296875</AltitudeMeters>
            <DistanceMeters>63872.361071518</DistanceMeters>
          </Trackpoint>
          <Trackpoint>
            <Time>2021-08-31T07:17:23.000Z</Time>
            <Position>
              <LatitudeDegrees>42.05616102553904056549072265625</LatitudeDegrees>
              <LongitudeDegrees>2.15908295474946498870849609375</LongitudeDegrees>
            </Position>
            <AltitudeMeters>796.5999755859375</AltitudeMeters>
            <DistanceMeters>63907.260594591</DistanceMeters>
          </Trackpoint>
          <Trackpoint>
            <Time>2021-08-31T07:17:31.000Z</Time>
            <Position>
              <LatitudeDegrees>42.055662386119365692138671875</LatitudeDegrees>
              <LongitudeDegrees>2.15913039632141590118408203125</LongitudeDegrees>
            </Position>
            <AltitudeMeters>797</AltitudeMeters>
            <DistanceMeters>63962.898390966</DistanceMeters>
          </Trackpoint>
          <Trackpoint>
            <Time>2021-08-31T07:17:37.000Z</Time>
            <Position>
              <LatitudeDegrees>42.05533348023891448974609375</LatitudeDegrees>
              <LongitudeDegrees>2.15918186120688915252685546875</LongitudeDegrees>
            </Position>
            <AltitudeMeters>796.79998779296875</AltitudeMeters>
            <DistanceMeters>63999.752343236</DistanceMeters>
          </Trackpoint>
          <Trackpoint>
            <Time>2021-08-31T07:17:38.000Z</Time>
            <Position>
              <LatitudeDegrees>42.05527841113507747650146484375</LatitudeDegrees>
              <LongitudeDegrees>2.159201391041278839111328125</LongitudeDegrees>
            </Position>
            <AltitudeMeters>796.79998779296875</AltitudeMeters>
            <DistanceMeters>64006.089991067</DistanceMeters>
          </Trackpoint>
          <Trackpoint>
            <Time>2021-08-31T07:17:42.000Z</Time>
            <Position>
              <LatitudeDegrees>42.05506433732807636260986328125</LatitudeDegrees>
              <LongitudeDegrees>2.159332148730754852294921875</LongitudeDegrees>
            </Position>
            <AltitudeMeters>796.79998779296875</AltitudeMeters>
            <DistanceMeters>64032.25255582</DistanceMeters>
          </Trackpoint>
          <Trackpoint>
            <Time>2021-08-31T07:17:44.000Z</Time>
            <Position>
              <LatitudeDegrees>42.05496962182223796844482421875</LatitudeDegrees>
              <LongitudeDegrees>2.15942208655178546905517578125</LongitudeDegrees>
            </Position>
            <AltitudeMeters>796.20001220703125</AltitudeMeters>
            <DistanceMeters>64045.151360357</DistanceMeters>
          </Trackpoint>
          <Trackpoint>
            <Time>2021-08-31T07:17:46.000Z</Time>
            <Position>
              <LatitudeDegrees>42.05488345585763454437255859375</LatitudeDegrees>
              <LongitudeDegrees>2.15953272767364978790283203125</LongitudeDegrees>
            </Position>
            <AltitudeMeters>796.20001220703125</AltitudeMeters>
            <DistanceMeters>64058.402732607</DistanceMeters>
          </Trackpoint>
          <Trackpoint>
            <Time>2021-08-31T07:17:47.000Z</Time>
            <Position>
              <LatitudeDegrees>42.0548501797020435333251953125</LatitudeDegrees>
              <LongitudeDegrees>2.1595985256135463714599609375</LongitudeDegrees>
            </Position>
            <AltitudeMeters>796.20001220703125</AltitudeMeters>
            <DistanceMeters>64064.981574177</DistanceMeters>
          </Trackpoint>
          <Trackpoint>
            <Time>2021-08-31T07:17:48.000Z</Time>
            <Position>
              <LatitudeDegrees>42.05482243560254573822021484375</LatitudeDegrees>
              <LongitudeDegrees>2.159667424857616424560546875</LongitudeDegrees>
            </Position>
            <AltitudeMeters>796.20001220703125</AltitudeMeters>
            <DistanceMeters>64071.458047375</DistanceMeters>
          </Trackpoint>
          <Trackpoint>
            <Time>2021-08-31T07:17:50.000Z</Time>
            <Position>
              <LatitudeDegrees>42.05479846335947513580322265625</LatitudeDegrees>
              <LongitudeDegrees>2.15983112342655658721923828125</LongitudeDegrees>
            </Position>
            <AltitudeMeters>796.20001220703125</AltitudeMeters>
            <DistanceMeters>64085.247075245</DistanceMeters>
          </Trackpoint>
          <Trackpoint>
            <Time>2021-08-31T07:17:51.000Z</Time>
            <Position>
              <LatitudeDegrees>42.054798714816570281982421875</LatitudeDegrees>
              <LongitudeDegrees>2.1599145233631134033203125</LongitudeDegrees>
            </Position>
            <AltitudeMeters>795.79998779296875</AltitudeMeters>
            <DistanceMeters>64092.140279307</DistanceMeters>
          </Trackpoint>
          <Trackpoint>
            <Time>2021-08-31T07:17:52.000Z</Time>
            <Position>
              <LatitudeDegrees>42.05480466596782207489013671875</LatitudeDegrees>
              <LongitudeDegrees>2.15999943204224109649658203125</LongitudeDegrees>
            </Position>
            <AltitudeMeters>795.5999755859375</AltitudeMeters>
            <DistanceMeters>64099.188930284</DistanceMeters>
          </Trackpoint>
          <Trackpoint>
            <Time>2021-08-31T07:17:56.000Z</Time>
            <Position>
              <LatitudeDegrees>42.05486141145229339599609375</LatitudeDegrees>
              <LongitudeDegrees>2.16032297350466251373291015625</LongitudeDegrees>
            </Position>
            <AltitudeMeters>795.79998779296875</AltitudeMeters>
            <DistanceMeters>64126.662663736</DistanceMeters>
          </Trackpoint>
          <Trackpoint>
            <Time>2021-08-31T07:17:59.000Z</Time>
            <Position>
              <LatitudeDegrees>42.0548843778669834136962890625</LatitudeDegrees>
              <LongitudeDegrees>2.1605782024562358856201171875</LongitudeDegrees>
            </Position>
            <AltitudeMeters>795.79998779296875</AltitudeMeters>
            <DistanceMeters>64147.90958308</DistanceMeters>
          </Trackpoint>
          <Trackpoint>
            <Time>2021-08-31T07:18:01.000Z</Time>
            <Position>
              <LatitudeDegrees>42.05485629849135875701904296875</LatitudeDegrees>
              <LongitudeDegrees>2.1607451699674129486083984375</LongitudeDegrees>
            </Position>
            <AltitudeMeters>795.79998779296875</AltitudeMeters>
            <DistanceMeters>64162.057398263</DistanceMeters>
          </Trackpoint>
          <Trackpoint>
            <Time>2021-08-31T07:18:03.000Z</Time>
            <Position>
              <LatitudeDegrees>42.054778598248958587646484375</LatitudeDegrees>
              <LongitudeDegrees>2.16087584383785724639892578125</LongitudeDegrees>
            </Position>
            <AltitudeMeters>796</AltitudeMeters>
            <DistanceMeters>64175.89219137</DistanceMeters>
          </Trackpoint>
          <Trackpoint>
            <Time>2021-08-31T07:18:04.000Z</Time>
            <Position>
              <LatitudeDegrees>42.0547298155725002288818359375</LatitudeDegrees>
              <LongitudeDegrees>2.1609265543520450592041015625</LongitudeDegrees>
            </Position>
            <AltitudeMeters>796.20001220703125</AltitudeMeters>
            <DistanceMeters>64182.751250946</DistanceMeters>
          </Trackpoint>
          <Trackpoint>
            <Time>2021-08-31T07:18:05.000Z</Time>
            <Position>
              <LatitudeDegrees>42.054676674306392669677734375</LatitudeDegrees>
              <LongitudeDegrees>2.1609644405543804168701171875</LongitudeDegrees>
            </Position>
            <AltitudeMeters>796.20001220703125</AltitudeMeters>
            <DistanceMeters>64189.443722774</DistanceMeters>
          </Trackpoint>
          <Trackpoint>
            <Time>2021-08-31T07:18:09.000Z</Time>
            <Position>
              <LatitudeDegrees>42.05447810702025890350341796875</LatitudeDegrees>
              <LongitudeDegrees>2.16111707501113414764404296875</LongitudeDegrees>
            </Position>
            <AltitudeMeters>796.20001220703125</AltitudeMeters>
            <DistanceMeters>64214.89101815</DistanceMeters>
          </Trackpoint>
          <Trackpoint>
            <Time>2021-08-31T07:18:14.000Z</Time>
            <Position>
              <LatitudeDegrees>42.0543016679584980010986328125</LatitudeDegrees>
              <LongitudeDegrees>2.16138236224651336669921875</LongitudeDegrees>
            </Position>
            <AltitudeMeters>796.79998779296875</AltitudeMeters>
            <DistanceMeters>64244.324152773</DistanceMeters>
          </Trackpoint>
          <Trackpoint>
            <Time>2021-08-31T07:18:22.000Z</Time>
            <Position>
              <LatitudeDegrees>42.05406211316585540771484375</LatitudeDegrees>
              <LongitudeDegrees>2.16184881515800952911376953125</LongitudeDegrees>
            </Position>
            <AltitudeMeters>799.4000244140625</AltitudeMeters>
            <DistanceMeters>64291.195736469</DistanceMeters>
          </Trackpoint>
          <Trackpoint>
            <Time>2021-08-31T07:18:29.000Z</Time>
            <Position>
              <LatitudeDegrees>42.0538047887384891510009765625</LatitudeDegrees>
              <LongitudeDegrees>2.16221652925014495849609375</LongitudeDegrees>
            </Position>
            <AltitudeMeters>801.4000244140625</AltitudeMeters>
            <DistanceMeters>64332.954544667</DistanceMeters>
          </Trackpoint>
          <Trackpoint>
            <Time>2021-08-31T07:18:38.000Z</Time>
            <Position>
              <LatitudeDegrees>42.0534581132233142852783203125</LatitudeDegrees>
              <LongitudeDegrees>2.16263805516064167022705078125</LongitudeDegrees>
            </Position>
            <AltitudeMeters>801</AltitudeMeters>
            <DistanceMeters>64384.939455722</DistanceMeters>
          </Trackpoint>
          <Trackpoint>
            <Time>2021-08-31T07:18:44.000Z</Time>
            <Position>
              <LatitudeDegrees>42.053252421319484710693359375</LatitudeDegrees>
              <LongitudeDegrees>2.1629140712320804595947265625</LongitudeDegrees>
            </Position>
            <AltitudeMeters>800.20001220703125</AltitudeMeters>
            <DistanceMeters>64417.257900178</DistanceMeters>
          </Trackpoint>
          <Trackpoint>
            <Time>2021-08-31T07:18:46.000Z</Time>
            <Position>
              <LatitudeDegrees>42.0532079972326755523681640625</LatitudeDegrees>
              <LongitudeDegrees>2.16303485445678234100341796875</LongitudeDegrees>
            </Position>
            <AltitudeMeters>800.79998779296875</AltitudeMeters>
            <DistanceMeters>64428.397528111</DistanceMeters>
          </Trackpoint>
          <Trackpoint>
            <Time>2021-08-31T07:18:48.000Z</Time>
            <Position>
              <LatitudeDegrees>42.0531888864934444427490234375</LatitudeDegrees>
              <LongitudeDegrees>2.16316913254559040069580078125</LongitudeDegrees>
            </Position>
            <AltitudeMeters>801.4000244140625</AltitudeMeters>
            <DistanceMeters>64439.6973193</DistanceMeters>
          </Trackpoint>
          <Trackpoint>
            <Time>2021-08-31T07:18:50.000Z</Time>
            <Position>
              <LatitudeDegrees>42.05319383181631565093994140625</LatitudeDegrees>
              <LongitudeDegrees>2.16331095434725284576416015625</LongitudeDegrees>
            </Position>
            <AltitudeMeters>801.20001220703125</AltitudeMeters>
            <DistanceMeters>64451.430713756</DistanceMeters>
          </Trackpoint>
          <Trackpoint>
            <Time>2021-08-31T07:18:55.000Z</Time>
            <Position>
              <LatitudeDegrees>42.05330464057624340057373046875</LatitudeDegrees>
              <LongitudeDegrees>2.1636557020246982574462890625</LongitudeDegrees>
            </Position>
            <AltitudeMeters>801.79998779296875</AltitudeMeters>
            <DistanceMeters>64482.476975361</DistanceMeters>
          </Trackpoint>
          <Trackpoint>
            <Time>2021-08-31T07:19:02.000Z</Time>
            <Position>
              <LatitudeDegrees>42.0534772239625453948974609375</LatitudeDegrees>
              <LongitudeDegrees>2.1641224063932895660400390625</LongitudeDegrees>
            </Position>
            <AltitudeMeters>803</AltitudeMeters>
            <DistanceMeters>64525.565906161</DistanceMeters>
          </Trackpoint>
          <Trackpoint>
            <Time>2021-08-31T07:19:11.000Z</Time>
            <Position>
              <LatitudeDegrees>42.05369154922664165496826171875</LatitudeDegrees>
              <LongitudeDegrees>2.1647064574062824249267578125</LongitudeDegrees>
            </Position>
            <AltitudeMeters>804.20001220703125</AltitudeMeters>
            <DistanceMeters>64579.407156986</DistanceMeters>
          </Trackpoint>
          <Trackpoint>
            <Time>2021-08-31T07:19:19.000Z</Time>
            <Position>
              <LatitudeDegrees>42.05388030968606472015380859375</LatitudeDegrees>
              <LongitudeDegrees>2.1652331762015819549560546875</LongitudeDegrees>
            </Position>
            <AltitudeMeters>805</AltitudeMeters>
            <DistanceMeters>64627.742044776</DistanceMeters>
          </Trackpoint>
          <Trackpoint>
            <Time>2021-08-31T07:19:24.000Z</Time>
            <Position>
              <LatitudeDegrees>42.0539881847798824310302734375</LatitudeDegrees>
              <LongitudeDegrees>2.16557641513645648956298828125</LongitudeDegrees>
            </Position>
            <AltitudeMeters>804.79998779296875</AltitudeMeters>
            <DistanceMeters>64658.544775046</DistanceMeters>
          </Trackpoint>
          <Trackpoint>
            <Time>2021-08-31T07:19:26.000Z</Time>
            <Position>
              <LatitudeDegrees>42.05401157028973102569580078125</LatitudeDegrees>
              <LongitudeDegrees>2.1657273732125759124755859375</LongitudeDegrees>
            </Position>
            <AltitudeMeters>804.5999755859375</AltitudeMeters>
            <DistanceMeters>64671.288987651</DistanceMeters>
          </Trackpoint>
          <Trackpoint>
            <Time>2021-08-31T07:19:28.000Z</Time>
            <Position>
              <LatitudeDegrees>42.05399966798722743988037109375</LatitudeDegrees>
              <LongitudeDegrees>2.16587816365063190460205078125</LongitudeDegrees>
            </Position>
            <AltitudeMeters>805.4000244140625</AltitudeMeters>
            <DistanceMeters>64683.820990265</DistanceMeters>
          </Trackpoint>
          <Trackpoint>
            <Time>2021-08-31T07:19:29.000Z</Time>
            <Position>
              <LatitudeDegrees>42.053978629410266876220703125</LatitudeDegrees>
              <LongitudeDegrees>2.16595209203660488128662109375</LongitudeDegrees>
            </Position>
            <AltitudeMeters>805.79998779296875</AltitudeMeters>
            <DistanceMeters>64690.364737089</DistanceMeters>
          </Trackpoint>
          <Trackpoint>
            <Time>2021-08-31T07:19:30.000Z</Time>
            <Position>
              <LatitudeDegrees>42.05394753254950046539306640625</LatitudeDegrees>
              <LongitudeDegrees>2.16602166183292865753173828125</LongitudeDegrees>
            </Position>
            <AltitudeMeters>806.20001220703125</AltitudeMeters>
            <DistanceMeters>64697.076072374</DistanceMeters>
          </Trackpoint>
          <Trackpoint>
            <Time>2021-08-31T07:19:32.000Z</Time>
            <Position>
              <LatitudeDegrees>42.053869329392910003662109375</LatitudeDegrees>
              <LongitudeDegrees>2.1661464683711528778076171875</LongitudeDegrees>
            </Position>
            <AltitudeMeters>806.5999755859375</AltitudeMeters>
            <DistanceMeters>64710.571873271</DistanceMeters>
          </Trackpoint>
          <Trackpoint>
            <Time>2021-08-31T07:19:33.000Z</Time>
            <Position>
              <LatitudeDegrees>42.0538165234029293060302734375</LatitudeDegrees>
              <LongitudeDegrees>2.16618963517248630523681640625</LongitudeDegrees>
            </Position>
            <AltitudeMeters>806.79998779296875</AltitudeMeters>
            <DistanceMeters>64717.446712914</DistanceMeters>
          </Trackpoint>
          <Trackpoint>
            <Time>2021-08-31T07:19:34.000Z</Time>
            <Position>
              <LatitudeDegrees>42.053756676614284515380859375</LatitudeDegrees>
              <LongitudeDegrees>2.16621008701622486114501953125</LongitudeDegrees>
            </Position>
            <AltitudeMeters>806.79998779296875</AltitudeMeters>
            <DistanceMeters>64724.318925061</DistanceMeters>
          </Trackpoint>
          <Trackpoint>
            <Time>2021-08-31T07:19:36.000Z</Time>
            <Position>
              <LatitudeDegrees>42.0536368153989315032958984375</LatitudeDegrees>
              <LongitudeDegrees>2.166168428957462310791015625</LongitudeDegrees>
            </Position>
            <AltitudeMeters>806.20001220703125</AltitudeMeters>
            <DistanceMeters>64738.096815575</DistanceMeters>
          </Trackpoint>
          <Trackpoint>
            <Time>2021-08-31T07:19:41.000Z</Time>
            <Position>
              <LatitudeDegrees>42.0534007810056209564208984375</LatitudeDegrees>
              <LongitudeDegrees>2.165910266339778900146484375</LongitudeDegrees>
            </Position>
            <AltitudeMeters>804.20001220703125</AltitudeMeters>
            <DistanceMeters>64771.940203351</DistanceMeters>
          </Trackpoint>
          <Trackpoint>
            <Time>2021-08-31T07:19:44.000Z</Time>
            <Position>
              <LatitudeDegrees>42.05325317569077014923095703125</LatitudeDegrees>
              <LongitudeDegrees>2.16579568572342395782470703125</LongitudeDegrees>
            </Position>
            <AltitudeMeters>803.20001220703125</AltitudeMeters>
            <DistanceMeters>64790.902735988</DistanceMeters>
          </Trackpoint>
          <Trackpoint>
            <Time>2021-08-31T07:19:46.000Z</Time>
            <Position>
              <LatitudeDegrees>42.053145132958889007568359375</LatitudeDegrees>
              <LongitudeDegrees>2.16575712896883487701416015625</LongitudeDegrees>
            </Position>
            <AltitudeMeters>802.4000244140625</AltitudeMeters>
            <DistanceMeters>64803.342890733</DistanceMeters>
          </Trackpoint>
          <Trackpoint>
            <Time>2021-08-31T07:19:50.000Z</Time>
            <Position>
              <LatitudeDegrees>42.0529303885996341705322265625</LatitudeDegrees>
              <LongitudeDegrees>2.16574589721858501434326171875</LongitudeDegrees>
            </Position>
            <AltitudeMeters>801.20001220703125</AltitudeMeters>
            <DistanceMeters>64827.262456856</DistanceMeters>
          </Trackpoint>
          <Trackpoint>
            <Time>2021-08-31T07:19:51.000Z</Time>
            <Position>
              <LatitudeDegrees>42.05287599004805088043212890625</LatitudeDegrees>
              <LongitudeDegrees>2.16574924997985363006591796875</LongitudeDegrees>
            </Position>
            <AltitudeMeters>801</AltitudeMeters>
            <DistanceMeters>64833.323343835</DistanceMeters>
          </Trackpoint>
          <Trackpoint>
            <Time>2021-08-31T07:19:53.000Z</Time>
            <Position>
              <LatitudeDegrees>42.05277289263904094696044921875</LatitudeDegrees>
              <LongitudeDegrees>2.1657853759825229644775390625</LongitudeDegrees>
            </Position>
            <AltitudeMeters>800.79998779296875</AltitudeMeters>
            <DistanceMeters>64845.179997245</DistanceMeters>
          </Trackpoint>
          <Trackpoint>
            <Time>2021-08-31T07:19:54.000Z</Time>
            <Position>
              <LatitudeDegrees>42.052722014486789703369140625</LatitudeDegrees>
              <LongitudeDegrees>2.16581244952976703643798828125</LongitudeDegrees>
            </Position>
            <AltitudeMeters>800.5999755859375</AltitudeMeters>
            <DistanceMeters>64851.269126401</DistanceMeters>
          </Trackpoint>
          <Trackpoint>
            <Time>2021-08-31T07:19:55.000Z</Time>
            <Position>
              <LatitudeDegrees>42.05267272889614105224609375</LatitudeDegrees>
              <LongitudeDegrees>2.16584631241858005523681640625</LongitudeDegrees>
            </Position>
            <AltitudeMeters>800.5999755859375</AltitudeMeters>
            <DistanceMeters>64857.426828163</DistanceMeters>
          </Trackpoint>
          <Trackpoint>
            <Time>2021-08-31T07:19:57.000Z</Time>
            <Position>
              <LatitudeDegrees>42.052589245140552520751953125</LatitudeDegrees>
              <LongitudeDegrees>2.16593884862959384918212890625</LongitudeDegrees>
            </Position>
            <AltitudeMeters>801</AltitudeMeters>
            <DistanceMeters>64869.461127727</DistanceMeters>
          </Trackpoint>
          <Trackpoint>
            <Time>2021-08-31T07:19:58.000Z</Time>
            <Position>
              <LatitudeDegrees>42.05255395732820034027099609375</LatitudeDegrees>
              <LongitudeDegrees>2.165992744266986846923828125</LongitudeDegrees>
            </Position>
            <AltitudeMeters>801.20001220703125</AltitudeMeters>
            <DistanceMeters>64875.400107319</DistanceMeters>
          </Trackpoint>
          <Trackpoint>
            <Time>2021-08-31T07:20:06.000Z</Time>
            <Position>
              <LatitudeDegrees>42.05229110084474086761474609375</LatitudeDegrees>
              <LongitudeDegrees>2.16643203981220722198486328125</LongitudeDegrees>
            </Position>
            <AltitudeMeters>803.4000244140625</AltitudeMeters>
            <DistanceMeters>64922.02676369</DistanceMeters>
          </Trackpoint>
          <Trackpoint>
            <Time>2021-08-31T07:20:10.000Z</Time>
            <Position>
              <LatitudeDegrees>42.05216386355459690093994140625</LatitudeDegrees>
              <LongitudeDegrees>2.16665566898882389068603515625</LongitudeDegrees>
            </Position>
            <AltitudeMeters>803.20001220703125</AltitudeMeters>
            <DistanceMeters>64945.310441866</DistanceMeters>
          </Trackpoint>
          <Trackpoint>
            <Time>2021-08-31T07:20:14.000Z</Time>
            <Position>
              <LatitudeDegrees>42.05202405340969562530517578125</LatitudeDegrees>
              <LongitudeDegrees>2.1668855845928192138671875</LongitudeDegrees>
            </Position>
            <AltitudeMeters>803.79998779296875</AltitudeMeters>
            <DistanceMeters>64969.870757549</DistanceMeters>
          </Trackpoint>
          <Trackpoint>
            <Time>2021-08-31T07:20:17.000Z</Time>
            <Position>
              <LatitudeDegrees>42.0519346185028553009033203125</LatitudeDegrees>
              <LongitudeDegrees>2.1670778654515743255615234375</LongitudeDegrees>
            </Position>
            <AltitudeMeters>804</AltitudeMeters>
            <DistanceMeters>64988.622588839</DistanceMeters>
          </Trackpoint>
          <Trackpoint>
            <Time>2021-08-31T07:20:19.000Z</Time>
            <Position>
              <LatitudeDegrees>42.05190385691821575164794921875</LatitudeDegrees>
              <LongitudeDegrees>2.16721876524388790130615234375</LongitudeDegrees>
            </Position>
            <AltitudeMeters>804.20001220703125</AltitudeMeters>
            <DistanceMeters>65000.759624598</DistanceMeters>
          </Trackpoint>
          <Trackpoint>
            <Time>2021-08-31T07:20:23.000Z</Time>
            <Position>
              <LatitudeDegrees>42.05191676504909992218017578125</LatitudeDegrees>
              <LongitudeDegrees>2.1675308234989643096923828125</LongitudeDegrees>
            </Position>
            <AltitudeMeters>805.5999755859375</AltitudeMeters>
            <DistanceMeters>65026.590116044</DistanceMeters>
          </Trackpoint>
          <Trackpoint>
            <Time>2021-08-31T07:20:31.000Z</Time>
            <Position>
              <LatitudeDegrees>42.0520140789449214935302734375</LatitudeDegrees>
              <LongitudeDegrees>2.16816307045519351959228515625</LongitudeDegrees>
            </Position>
            <AltitudeMeters>809.79998779296875</AltitudeMeters>
            <DistanceMeters>65079.953517985</DistanceMeters>
          </Trackpoint>
          <Trackpoint>
            <Time>2021-08-31T07:20:40.000Z</Time>
            <Position>
              <LatitudeDegrees>42.0521022565662860870361328125</LatitudeDegrees>
              <LongitudeDegrees>2.16883060522377490997314453125</LongitudeDegrees>
            </Position>
            <AltitudeMeters>811.4000244140625</AltitudeMeters>
            <DistanceMeters>65135.988669284</DistanceMeters>
          </Trackpoint>
          <Trackpoint>
            <Time>2021-08-31T07:20:42.000Z</Time>
            <Position>
              <LatitudeDegrees>42.0520868338644504547119140625</LatitudeDegrees>
              <LongitudeDegrees>2.16898508369922637939453125</LongitudeDegrees>
            </Position>
            <AltitudeMeters>812</AltitudeMeters>
            <DistanceMeters>65148.870310668</DistanceMeters>
          </Trackpoint>
          <Trackpoint>
            <Time>2021-08-31T07:20:43.000Z</Time>
            <Position>
              <LatitudeDegrees>42.05205322243273258209228515625</LatitudeDegrees>
              <LongitudeDegrees>2.16905071400105953216552734375</LongitudeDegrees>
            </Position>
            <AltitudeMeters>812</AltitudeMeters>
            <DistanceMeters>65155.459438648</DistanceMeters>
          </Trackpoint>
          <Trackpoint>
            <Time>2021-08-31T07:20:44.000Z</Time>
            <Position>
              <LatitudeDegrees>42.0520097203552722930908203125</LatitudeDegrees>
              <LongitudeDegrees>2.16910083778202533721923828125</LongitudeDegrees>
            </Position>
            <AltitudeMeters>812</AltitudeMeters>
            <DistanceMeters>65161.831190659</DistanceMeters>
          </Trackpoint>
          <Trackpoint>
            <Time>2021-08-31T07:20:46.000Z</Time>
            <Position>
              <LatitudeDegrees>42.051901258528232574462890625</LatitudeDegrees>
              <LongitudeDegrees>2.16915984638035297393798828125</LongitudeDegrees>
            </Position>
            <AltitudeMeters>811.20001220703125</AltitudeMeters>
            <DistanceMeters>65174.851237705</DistanceMeters>
          </Trackpoint>
          <Trackpoint>
            <Time>2021-08-31T07:20:48.000Z</Time>
            <Position>
              <LatitudeDegrees>42.05179053358733654022216796875</LatitudeDegrees>
              <LongitudeDegrees>2.1691552363336086273193359375</LongitudeDegrees>
            </Position>
            <AltitudeMeters>810.4000244140625</AltitudeMeters>
            <DistanceMeters>65187.181297195</DistanceMeters>
          </Trackpoint>
          <Trackpoint>
            <Time>2021-08-31T07:20:49.000Z</Time>
            <Position>
              <LatitudeDegrees>42.0517386496067047119140625</LatitudeDegrees>
              <LongitudeDegrees>2.1691198647022247314453125</LongitudeDegrees>
            </Position>
            <AltitudeMeters>810</AltitudeMeters>
            <DistanceMeters>65193.653586173</DistanceMeters>
          </Trackpoint>
          <Trackpoint>
            <Time>2021-08-31T07:20:50.000Z</Time>
            <Position>
              <LatitudeDegrees>42.0516975782811641693115234375</LatitudeDegrees>
              <LongitudeDegrees>2.16907233931124210357666015625</LongitudeDegrees>
            </Position>
            <AltitudeMeters>809.5999755859375</AltitudeMeters>
            <DistanceMeters>65199.68160638</DistanceMeters>
          </Trackpoint>
          <Trackpoint>
            <Time>2021-08-31T07:20:52.000Z</Time>
            <Position>
              <LatitudeDegrees>42.0516420900821685791015625</LatitudeDegrees>
              <LongitudeDegrees>2.1689428389072418212890625</LongitudeDegrees>
            </Position>
            <AltitudeMeters>808.5999755859375</AltitudeMeters>
            <DistanceMeters>65212.038368196</DistanceMeters>
          </Trackpoint>
          <Trackpoint>
            <Time>2021-08-31T07:20:56.000Z</Time>
            <Position>
              <LatitudeDegrees>42.0515353046357631683349609375</LatitudeDegrees>
              <LongitudeDegrees>2.1686915494501590728759765625</LongitudeDegrees>
            </Position>
            <AltitudeMeters>806.5999755859375</AltitudeMeters>
            <DistanceMeters>65235.966993045</DistanceMeters>
          </Trackpoint>
          <Trackpoint>
            <Time>2021-08-31T07:20:58.000Z</Time>
            <Position>
              <LatitudeDegrees>42.05145458690822124481201171875</LatitudeDegrees>
              <LongitudeDegrees>2.16860286891460418701171875</LongitudeDegrees>
            </Position>
            <AltitudeMeters>805.79998779296875</AltitudeMeters>
            <DistanceMeters>65247.561809909</DistanceMeters>
          </Trackpoint>
          <Trackpoint>
            <Time>2021-08-31T07:21:00.000Z</Time>
            <Position>
              <LatitudeDegrees>42.05134931020438671112060546875</LatitudeDegrees>
              <LongitudeDegrees>2.16857428662478923797607421875</LongitudeDegrees>
            </Position>
            <AltitudeMeters>805</AltitudeMeters>
            <DistanceMeters>65259.51555115</DistanceMeters>
          </Trackpoint>
          <Trackpoint>
            <Time>2021-08-31T07:21:01.000Z</Time>
            <Position>
              <LatitudeDegrees>42.05129751004278659820556640625</LatitudeDegrees>
              <LongitudeDegrees>2.1685906313359737396240234375</LongitudeDegrees>
            </Position>
            <AltitudeMeters>804.79998779296875</AltitudeMeters>
            <DistanceMeters>65265.437781887</DistanceMeters>
          </Trackpoint>
          <Trackpoint>
            <Time>2021-08-31T07:21:02.000Z</Time>
            <Position>
              <LatitudeDegrees>42.0512506552040576934814453125</LatitudeDegrees>
              <LongitudeDegrees>2.16862742789089679718017578125</LongitudeDegrees>
            </Position>
            <AltitudeMeters>804.5999755859375</AltitudeMeters>
            <DistanceMeters>65271.474783504</DistanceMeters>
          </Trackpoint>
          <Trackpoint>
            <Time>2021-08-31T07:21:04.000Z</Time>
            <Position>
              <LatitudeDegrees>42.05118477344512939453125</LatitudeDegrees>
              <LongitudeDegrees>2.16874326579272747039794921875</LongitudeDegrees>
            </Position>
            <AltitudeMeters>804.79998779296875</AltitudeMeters>
            <DistanceMeters>65283.534193985</DistanceMeters>
          </Trackpoint>
          <Trackpoint>
            <Time>2021-08-31T07:21:07.000Z</Time>
            <Position>
              <LatitudeDegrees>42.0511271059513092041015625</LatitudeDegrees>
              <LongitudeDegrees>2.168952561914920806884765625</LongitudeDegrees>
            </Position>
            <AltitudeMeters>806.20001220703125</AltitudeMeters>
            <DistanceMeters>65301.984310291</DistanceMeters>
          </Trackpoint>
          <Trackpoint>
            <Time>2021-08-31T07:21:08.000Z</Time>
            <Position>
              <LatitudeDegrees>42.051119394600391387939453125</LatitudeDegrees>
              <LongitudeDegrees>2.1690248139202594757080078125</LongitudeDegrees>
            </Position>
            <AltitudeMeters>806.5999755859375</AltitudeMeters>
            <DistanceMeters>65308.016822874</DistanceMeters>
          </Trackpoint>
          <Trackpoint>
            <Time>2021-08-31T07:21:09.000Z</Time>
            <Position>
              <LatitudeDegrees>42.05111813731491565704345703125</LatitudeDegrees>
              <LongitudeDegrees>2.16909664683043956756591796875</LongitudeDegrees>
            </Position>
            <AltitudeMeters>807.20001220703125</AltitudeMeters>
            <DistanceMeters>65313.955042179</DistanceMeters>
          </Trackpoint>
          <Trackpoint>
            <Time>2021-08-31T07:21:11.000Z</Time>
            <Position>
              <LatitudeDegrees>42.05113582313060760498046875</LatitudeDegrees>
              <LongitudeDegrees>2.169244252145290374755859375</LongitudeDegrees>
            </Position>
            <AltitudeMeters>808</AltitudeMeters>
            <DistanceMeters>65326.31216938</DistanceMeters>
          </Trackpoint>
          <Trackpoint>
            <Time>2021-08-31T07:21:12.000Z</Time>
            <Position>
              <LatitudeDegrees>42.05115132965147495269775390625</LatitudeDegrees>
              <LongitudeDegrees>2.16931507922708988189697265625</LongitudeDegrees>
            </Position>
            <AltitudeMeters>808.4000244140625</AltitudeMeters>
            <DistanceMeters>65332.41463079</DistanceMeters>
          </Trackpoint>
          <Trackpoint>
            <Time>2021-08-31T07:21:19.000Z</Time>
            <Position>
              <LatitudeDegrees>42.05131578259170055389404296875</LatitudeDegrees>
              <LongitudeDegrees>2.169790081679821014404296875</LongitudeDegrees>
            </Position>
            <AltitudeMeters>812</AltitudeMeters>
            <DistanceMeters>65375.72951256</DistanceMeters>
          </Trackpoint>
          <Trackpoint>
            <Time>2021-08-31T07:21:28.000Z</Time>
            <Position>
              <LatitudeDegrees>42.0515483804047107696533203125</LatitudeDegrees>
              <LongitudeDegrees>2.1703778207302093505859375</LongitudeDegrees>
            </Position>
            <AltitudeMeters>815.79998779296875</AltitudeMeters>
            <DistanceMeters>65430.772378292</DistanceMeters>
          </Trackpoint>
          <Trackpoint>
            <Time>2021-08-31T07:21:35.000Z</Time>
            <Position>
              <LatitudeDegrees>42.051669247448444366455078125</LatitudeDegrees>
              <LongitudeDegrees>2.17084075324237346649169921875</LongitudeDegrees>
            </Position>
            <AltitudeMeters>819.20001220703125</AltitudeMeters>
            <DistanceMeters>65471.328194692</DistanceMeters>
          </Trackpoint>
          <Trackpoint>
            <Time>2021-08-31T07:21:36.000Z</Time>
            <Position>
              <LatitudeDegrees>42.05167452804744243621826171875</LatitudeDegrees>
              <LongitudeDegrees>2.17090546153485774993896484375</LongitudeDegrees>
            </Position>
            <AltitudeMeters>819.79998779296875</AltitudeMeters>
            <DistanceMeters>65476.708754614</DistanceMeters>
          </Trackpoint>
          <Trackpoint>
            <Time>2021-08-31T07:21:37.000Z</Time>
            <Position>
              <LatitudeDegrees>42.05167620442807674407958984375</LatitudeDegrees>
              <LongitudeDegrees>2.1709710918366909027099609375</LongitudeDegrees>
            </Position>
            <AltitudeMeters>820.20001220703125</AltitudeMeters>
            <DistanceMeters>65482.136102895</DistanceMeters>
          </Trackpoint>
          <Trackpoint>
            <Time>2021-08-31T07:21:40.000Z</Time>
            <Position>
              <LatitudeDegrees>42.0516516454517841339111328125</LatitudeDegrees>
              <LongitudeDegrees>2.17116747982800006866455078125</LongitudeDegrees>
            </Position>
            <AltitudeMeters>821</AltitudeMeters>
            <DistanceMeters>65498.595486948</DistanceMeters>
          </Trackpoint>
          <Trackpoint>
            <Time>2021-08-31T07:21:41.000Z</Time>
            <Position>
              <LatitudeDegrees>42.05163530074059963226318359375</LatitudeDegrees>
              <LongitudeDegrees>2.17122447676956653594970703125</LongitudeDegrees>
            </Position>
            <AltitudeMeters>821.20001220703125</AltitudeMeters>
            <DistanceMeters>65503.645332082</DistanceMeters>
          </Trackpoint>
          <Trackpoint>
            <Time>2021-08-31T07:21:42.000Z</Time>
            <Position>
              <LatitudeDegrees>42.05161392688751220703125</LatitudeDegrees>
              <LongitudeDegrees>2.171280384063720703125</LongitudeDegrees>
            </Position>
            <AltitudeMeters>821.20001220703125</AltitudeMeters>
            <DistanceMeters>65508.843215182</DistanceMeters>
          </Trackpoint>
          <Trackpoint>
            <Time>2021-08-31T07:21:44.000Z</Time>
            <Position>
              <LatitudeDegrees>42.05154008232057094573974609375</LatitudeDegrees>
              <LongitudeDegrees>2.17135489918291568756103515625</LongitudeDegrees>
            </Position>
            <AltitudeMeters>822</AltitudeMeters>
            <DistanceMeters>65519.114016174</DistanceMeters>
          </Trackpoint>
          <Trackpoint>
            <Time>2021-08-31T07:21:46.000Z</Time>
            <Position>
              <LatitudeDegrees>42.05144553445279598236083984375</LatitudeDegrees>
              <LongitudeDegrees>2.17138029634952545166015625</LongitudeDegrees>
            </Position>
            <AltitudeMeters>823</AltitudeMeters>
            <DistanceMeters>65529.845305234</DistanceMeters>
          </Trackpoint>
          <Trackpoint>
            <Time>2021-08-31T07:21:47.000Z</Time>
            <Position>
              <LatitudeDegrees>42.05139809288084506988525390625</LatitudeDegrees>
              <LongitudeDegrees>2.1713650412857532501220703125</LongitudeDegrees>
            </Position>
            <AltitudeMeters>823.4000244140625</AltitudeMeters>
            <DistanceMeters>65535.274317069</DistanceMeters>
          </Trackpoint>
          <Trackpoint>
            <Time>2021-08-31T07:21:48.000Z</Time>
            <Position>
              <LatitudeDegrees>42.05135785974562168121337890625</LatitudeDegrees>
              <LongitudeDegrees>2.1713298372924327850341796875</LongitudeDegrees>
            </Position>
            <AltitudeMeters>823.5999755859375</AltitudeMeters>
            <DistanceMeters>65540.614446413</DistanceMeters>
          </Trackpoint>
          <Trackpoint>
            <Time>2021-08-31T07:21:50.000Z</Time>
            <Position>
              <LatitudeDegrees>42.051302455365657806396484375</LatitudeDegrees>
              <LongitudeDegrees>2.1712252311408519744873046875</LongitudeDegrees>
            </Position>
            <AltitudeMeters>823.4000244140625</AltitudeMeters>
            <DistanceMeters>65551.233655171</DistanceMeters>
          </Trackpoint>
          <Trackpoint>
            <Time>2021-08-31T07:21:53.000Z</Time>
            <Position>
              <LatitudeDegrees>42.05124788917601108551025390625</LatitudeDegrees>
              <LongitudeDegrees>2.17104443348944187164306640625</LongitudeDegrees>
            </Position>
            <AltitudeMeters>822.79998779296875</AltitudeMeters>
            <DistanceMeters>65567.363022869</DistanceMeters>
          </Trackpoint>
          <Trackpoint>
            <Time>2021-08-31T07:21:55.000Z</Time>
            <Position>
              <LatitudeDegrees>42.051199860870838165283203125</LatitudeDegrees>
              <LongitudeDegrees>2.17093731276690959930419921875</LongitudeDegrees>
            </Position>
            <AltitudeMeters>822.79998779296875</AltitudeMeters>
            <DistanceMeters>65577.704793772</DistanceMeters>
          </Trackpoint>
          <Trackpoint>
            <Time>2021-08-31T07:21:56.000Z</Time>
            <Position>
              <LatitudeDegrees>42.051169015467166900634765625</LatitudeDegrees>
              <LongitudeDegrees>2.17088886536657810211181640625</LongitudeDegrees>
            </Position>
            <AltitudeMeters>822.79998779296875</AltitudeMeters>
            <DistanceMeters>65582.978562391</DistanceMeters>
          </Trackpoint>
          <Trackpoint>
            <Time>2021-08-31T07:21:57.000Z</Time>
            <Position>
              <LatitudeDegrees>42.05113506875932216644287109375</LatitudeDegrees>
              <LongitudeDegrees>2.170844860374927520751953125</LongitudeDegrees>
            </Position>
            <AltitudeMeters>822.79998779296875</AltitudeMeters>
            <DistanceMeters>65588.223141768</DistanceMeters>
          </Trackpoint>
          <Trackpoint>
            <Time>2021-08-31T07:21:59.000Z</Time>
            <Position>
              <LatitudeDegrees>42.05105124972760677337646484375</LatitudeDegrees>
              <LongitudeDegrees>2.17077679932117462158203125</LongitudeDegrees>
            </Position>
            <AltitudeMeters>823.20001220703125</AltitudeMeters>
            <DistanceMeters>65599.116867698</DistanceMeters>
          </Trackpoint>
          <Trackpoint>
            <Time>2021-08-31T07:22:00.000Z</Time>
            <Position>
              <LatitudeDegrees>42.0510052330791950225830078125</LatitudeDegrees>
              <LongitudeDegrees>2.17074804939329624176025390625</LongitudeDegrees>
            </Position>
            <AltitudeMeters>823.20001220703125</AltitudeMeters>
            <DistanceMeters>65604.762766196</DistanceMeters>
          </Trackpoint>
          <Trackpoint>
            <Time>2021-08-31T07:22:06.000Z</Time>
            <Position>
              <LatitudeDegrees>42.05073189921677112579345703125</LatitudeDegrees>
              <LongitudeDegrees>2.17064537107944488525390625</LongitudeDegrees>
            </Position>
            <AltitudeMeters>824.4000244140625</AltitudeMeters>
            <DistanceMeters>65636.346821426</DistanceMeters>
          </Trackpoint>
          <Trackpoint>
            <Time>2021-08-31T07:22:08.000Z</Time>
            <Position>
              <LatitudeDegrees>42.0506414584815502166748046875</LatitudeDegrees>
              <LongitudeDegrees>2.17066280543804168701171875</LongitudeDegrees>
            </Position>
            <AltitudeMeters>824.79998779296875</AltitudeMeters>
            <DistanceMeters>65646.515567925</DistanceMeters>
          </Trackpoint>
          <Trackpoint>
            <Time>2021-08-31T07:22:10.000Z</Time>
            <Position>
              <LatitudeDegrees>42.0505603216588497161865234375</LatitudeDegrees>
              <LongitudeDegrees>2.1707152761518955230712890625</LongitudeDegrees>
            </Position>
            <AltitudeMeters>826</AltitudeMeters>
            <DistanceMeters>65656.533565209</DistanceMeters>
          </Trackpoint>
          <Trackpoint>
            <Time>2021-08-31T07:22:12.000Z</Time>
            <Position>
              <LatitudeDegrees>42.05049586482346057891845703125</LatitudeDegrees>
              <LongitudeDegrees>2.17079046182334423065185546875</LongitudeDegrees>
            </Position>
            <AltitudeMeters>827.4000244140625</AltitudeMeters>
            <DistanceMeters>65666.02482659</DistanceMeters>
          </Trackpoint>
          <Trackpoint>
            <Time>2021-08-31T07:22:14.000Z</Time>
            <Position>
              <LatitudeDegrees>42.05044356174767017364501953125</LatitudeDegrees>
              <LongitudeDegrees>2.170885764062404632568359375</LongitudeDegrees>
            </Position>
            <AltitudeMeters>828.20001220703125</AltitudeMeters>
            <DistanceMeters>65675.819034168</DistanceMeters>
          </Trackpoint>
          <Trackpoint>
            <Time>2021-08-31T07:22:17.000Z</Time>
            <Position>
              <LatitudeDegrees>42.05036812461912631988525390625</LatitudeDegrees>
              <LongitudeDegrees>2.17103454284369945526123046875</LongitudeDegrees>
            </Position>
            <AltitudeMeters>829.79998779296875</AltitudeMeters>
            <DistanceMeters>65690.708540767</DistanceMeters>
          </Trackpoint>
          <Trackpoint>
            <Time>2021-08-31T07:22:21.000Z</Time>
            <Position>
              <LatitudeDegrees>42.050263099372386932373046875</LatitudeDegrees>
              <LongitudeDegrees>2.17124350368976593017578125</LongitudeDegrees>
            </Position>
            <AltitudeMeters>831.79998779296875</AltitudeMeters>
            <DistanceMeters>65711.56295377</DistanceMeters>
          </Trackpoint>
          <Trackpoint>
            <Time>2021-08-31T07:22:25.000Z</Time>
            <Position>
              <LatitudeDegrees>42.05015304498374462127685546875</LatitudeDegrees>
              <LongitudeDegrees>2.171449027955532073974609375</LongitudeDegrees>
            </Position>
            <AltitudeMeters>833.79998779296875</AltitudeMeters>
            <DistanceMeters>65732.505082428</DistanceMeters>
          </Trackpoint>
          <Trackpoint>
            <Time>2021-08-31T07:22:28.000Z</Time>
            <Position>
              <LatitudeDegrees>42.0500778593122959136962890625</LatitudeDegrees>
              <LongitudeDegrees>2.1716062724590301513671875</LongitudeDegrees>
            </Position>
            <AltitudeMeters>835.20001220703125</AltitudeMeters>
            <DistanceMeters>65747.962339385</DistanceMeters>
          </Trackpoint>
          <Trackpoint>
            <Time>2021-08-31T07:22:38.000Z</Time>
            <Position>
              <LatitudeDegrees>42.049826569855213165283203125</LatitudeDegrees>
              <LongitudeDegrees>2.17210843227803707122802734375</LongitudeDegrees>
            </Position>
            <AltitudeMeters>842.5999755859375</AltitudeMeters>
            <DistanceMeters>65798.009762334</DistanceMeters>
          </Trackpoint>
          <Trackpoint>
            <Time>2021-08-31T07:22:46.000Z</Time>
            <Position>
              <LatitudeDegrees>42.04964376054704189300537109375</LatitudeDegrees>
              <LongitudeDegrees>2.1725217439234256744384765625</LongitudeDegrees>
            </Position>
            <AltitudeMeters>845.5999755859375</AltitudeMeters>
            <DistanceMeters>65837.770238728</DistanceMeters>
          </Trackpoint>
          <Trackpoint>
            <Time>2021-08-31T07:22:47.000Z</Time>
            <Position>
              <LatitudeDegrees>42.04961576499044895172119140625</LatitudeDegrees>
              <LongitudeDegrees>2.1725686825811862945556640625</LongitudeDegrees>
            </Position>
            <AltitudeMeters>845.79998779296875</AltitudeMeters>
            <DistanceMeters>65842.746228038</DistanceMeters>
          </Trackpoint>
          <Trackpoint>
            <Time>2021-08-31T07:22:49.000Z</Time>
            <Position>
              <LatitudeDegrees>42.0495695807039737701416015625</LatitudeDegrees>
              <LongitudeDegrees>2.17267538420855998992919921875</LongitudeDegrees>
            </Position>
            <AltitudeMeters>846</AltitudeMeters>
            <DistanceMeters>65852.953530424</DistanceMeters>
          </Trackpoint>
          <Trackpoint>
            <Time>2021-08-31T07:22:51.000Z</Time>
            <Position>
              <LatitudeDegrees>42.04952859319746494293212890625</LatitudeDegrees>
              <LongitudeDegrees>2.17279122211039066314697265625</LongitudeDegrees>
            </Position>
            <AltitudeMeters>846.20001220703125</AltitudeMeters>
            <DistanceMeters>65863.558273327</DistanceMeters>
          </Trackpoint>
          <Trackpoint>
            <Time>2021-08-31T07:22:53.000Z</Time>
            <Position>
              <LatitudeDegrees>42.04945944249629974365234375</LatitudeDegrees>
              <LongitudeDegrees>2.1728684194386005401611328125</LongitudeDegrees>
            </Position>
            <AltitudeMeters>846.5999755859375</AltitudeMeters>
            <DistanceMeters>65873.555517251</DistanceMeters>
          </Trackpoint>
          <Trackpoint>
            <Time>2021-08-31T07:22:54.000Z</Time>
            <Position>
              <LatitudeDegrees>42.0494170300662517547607421875</LatitudeDegrees>
              <LongitudeDegrees>2.17288660816848278045654296875</LongitudeDegrees>
            </Position>
            <AltitudeMeters>846.5999755859375</AltitudeMeters>
            <DistanceMeters>65878.508770495</DistanceMeters>
          </Trackpoint>
          <Trackpoint>
            <Time>2021-08-31T07:22:55.000Z</Time>
            <Position>
              <LatitudeDegrees>42.0493731088936328887939453125</LatitudeDegrees>
              <LongitudeDegrees>2.172888703644275665283203125</LongitudeDegrees>
            </Position>
            <AltitudeMeters>846.5999755859375</AltitudeMeters>
            <DistanceMeters>65883.400570018</DistanceMeters>
          </Trackpoint>
          <Trackpoint>
            <Time>2021-08-31T07:22:57.000Z</Time>
            <Position>
              <LatitudeDegrees>42.04929356463253498077392578125</LatitudeDegrees>
              <LongitudeDegrees>2.1728454530239105224609375</LongitudeDegrees>
            </Position>
            <AltitudeMeters>846</AltitudeMeters>
            <DistanceMeters>65892.94874533</DistanceMeters>
          </Trackpoint>
          <Trackpoint>
            <Time>2021-08-31T07:23:00.000Z</Time>
            <Position>
              <LatitudeDegrees>42.0491763018071651458740234375</LatitudeDegrees>
              <LongitudeDegrees>2.17277747578918933868408203125</LongitudeDegrees>
            </Position>
            <AltitudeMeters>845.20001220703125</AltitudeMeters>
            <DistanceMeters>65907.158019738</DistanceMeters>
          </Trackpoint>
          <Trackpoint>
            <Time>2021-08-31T07:23:02.000Z</Time>
            <Position>
              <LatitudeDegrees>42.049086950719356536865234375</LatitudeDegrees>
              <LongitudeDegrees>2.17274151742458343505859375</LongitudeDegrees>
            </Position>
            <AltitudeMeters>844.79998779296875</AltitudeMeters>
            <DistanceMeters>65917.53770384</DistanceMeters>
          </Trackpoint>
          <Trackpoint>
            <Time>2021-08-31T07:23:05.000Z</Time>
            <Position>
              <LatitudeDegrees>42.04895040951669216156005859375</LatitudeDegrees>
              <LongitudeDegrees>2.1726967580616474151611328125</LongitudeDegrees>
            </Position>
            <AltitudeMeters>845.20001220703125</AltitudeMeters>
            <DistanceMeters>65933.178766177</DistanceMeters>
          </Trackpoint>
          <Trackpoint>
            <Time>2021-08-31T07:23:08.000Z</Time>
            <Position>
              <LatitudeDegrees>42.0488101802766323089599609375</LatitudeDegrees>
              <LongitudeDegrees>2.1726568602025508880615234375</LongitudeDegrees>
            </Position>
            <AltitudeMeters>845.79998779296875</AltitudeMeters>
            <DistanceMeters>65949.131371429</DistanceMeters>
          </Trackpoint>
          <Trackpoint>
            <Time>2021-08-31T07:23:09.000Z</Time>
            <Position>
              <LatitudeDegrees>42.04876382835209369659423828125</LatitudeDegrees>
              <LongitudeDegrees>2.172649316489696502685546875</LongitudeDegrees>
            </Position>
            <AltitudeMeters>846</AltitudeMeters>
            <DistanceMeters>65954.329254529</DistanceMeters>
          </Trackpoint>
          <Trackpoint>
            <Time>2021-08-31T07:23:11.000Z</Time>
            <Position>
              <LatitudeDegrees>42.0486750639975070953369140625</LatitudeDegrees>
              <LongitudeDegrees>2.17267069034278392791748046875</LongitudeDegrees>
            </Position>
            <AltitudeMeters>846.5999755859375</AltitudeMeters>
            <DistanceMeters>65964.366163057</DistanceMeters>
          </Trackpoint>
          <Trackpoint>
            <Time>2021-08-31T07:23:12.000Z</Time>
            <Position>
              <LatitudeDegrees>42.0486353337764739990234375</LatitudeDegrees>
              <LongitudeDegrees>2.17270136810839176177978515625</LongitudeDegrees>
            </Position>
            <AltitudeMeters>847.20001220703125</AltitudeMeters>
            <DistanceMeters>65969.464060664</DistanceMeters>
          </Trackpoint>
          <Trackpoint>
            <Time>2021-08-31T07:23:13.000Z</Time>
            <Position>
              <LatitudeDegrees>42.04859602265059947967529296875</LatitudeDegrees>
              <LongitudeDegrees>2.172737829387187957763671875</LongitudeDegrees>
            </Position>
            <AltitudeMeters>847.79998779296875</AltitudeMeters>
            <DistanceMeters>65974.777915107</DistanceMeters>
          </Trackpoint>
          <Trackpoint>
            <Time>2021-08-31T07:23:16.000Z</Time>
            <Position>
              <LatitudeDegrees>42.04852402210235595703125</LatitudeDegrees>
              <LongitudeDegrees>2.17289700172841548919677734375</LongitudeDegrees>
            </Position>
            <AltitudeMeters>850</AltitudeMeters>
            <DistanceMeters>65990.182211546</DistanceMeters>
          </Trackpoint>
          <Trackpoint>
            <Time>2021-08-31T07:23:20.000Z</Time>
            <Position>
              <LatitudeDegrees>42.04845621250569820404052734375</LatitudeDegrees>
              <LongitudeDegrees>2.1731470339000225067138671875</LongitudeDegrees>
            </Position>
            <AltitudeMeters>853.20001220703125</AltitudeMeters>
            <DistanceMeters>66012.182691711</DistanceMeters>
          </Trackpoint>
          <Trackpoint>
            <Time>2021-08-31T07:23:21.000Z</Time>
            <Position>
              <LatitudeDegrees>42.048426456749439239501953125</LatitudeDegrees>
              <LongitudeDegrees>2.173199839890003204345703125</LongitudeDegrees>
            </Position>
            <AltitudeMeters>854</AltitudeMeters>
            <DistanceMeters>66017.661375321</DistanceMeters>
          </Trackpoint>
          <Trackpoint>
            <Time>2021-08-31T07:23:22.000Z</Time>
            <Position>
              <LatitudeDegrees>42.04839066602289676666259765625</LatitudeDegrees>
              <LongitudeDegrees>2.1732466109097003936767578125</LongitudeDegrees>
            </Position>
            <AltitudeMeters>854.5999755859375</AltitudeMeters>
            <DistanceMeters>66023.212920232</DistanceMeters>
          </Trackpoint>
          <Trackpoint>
            <Time>2021-08-31T07:23:24.000Z</Time>
            <Position>
              <LatitudeDegrees>42.04830584116280078887939453125</LatitudeDegrees>
              <LongitudeDegrees>2.17331006191670894622802734375</LongitudeDegrees>
            </Position>
            <AltitudeMeters>856</AltitudeMeters>
            <DistanceMeters>66034.012989557</DistanceMeters>
          </Trackpoint>
          <Trackpoint>
            <Time>2021-08-31T07:23:25.000Z</Time>
            <Position>
              <LatitudeDegrees>42.04826007597148418426513671875</LatitudeDegrees>
              <LongitudeDegrees>2.1733260713517665863037109375</LongitudeDegrees>
            </Position>
            <AltitudeMeters>856.5999755859375</AltitudeMeters>
            <DistanceMeters>66039.274758687</DistanceMeters>
          </Trackpoint>
          <Trackpoint>
            <Time>2021-08-31T07:23:26.000Z</Time>
            <Position>
              <LatitudeDegrees>42.048213221132755279541015625</LatitudeDegrees>
              <LongitudeDegrees>2.173331938683986663818359375</LongitudeDegrees>
            </Position>
            <AltitudeMeters>857.20001220703125</AltitudeMeters>
            <DistanceMeters>66044.512446368</DistanceMeters>
          </Trackpoint>
          <Trackpoint>
            <Time>2021-08-31T07:23:29.000Z</Time>
            <Position>
              <LatitudeDegrees>42.04808413982391357421875</LatitudeDegrees>
              <LongitudeDegrees>2.17333252541720867156982421875</LongitudeDegrees>
            </Position>
            <AltitudeMeters>859</AltitudeMeters>
            <DistanceMeters>66058.879404548</DistanceMeters>
          </Trackpoint>
          <Trackpoint>
            <Time>2021-08-31T07:23:30.000Z</Time>
            <Position>
              <LatitudeDegrees>42.048043906688690185546875</LatitudeDegrees>
              <LongitudeDegrees>2.173323221504688262939453125</LongitudeDegrees>
            </Position>
            <AltitudeMeters>859.4000244140625</AltitudeMeters>
            <DistanceMeters>66063.423828035</DistanceMeters>
          </Trackpoint>
          <Trackpoint>
            <Time>2021-08-31T07:23:31.000Z</Time>
            <Position>
              <LatitudeDegrees>42.04800509847700595855712890625</LatitudeDegrees>
              <LongitudeDegrees>2.17330603860318660736083984375</LongitudeDegrees>
            </Position>
            <AltitudeMeters>859.5999755859375</AltitudeMeters>
            <DistanceMeters>66067.971231146</DistanceMeters>
          </Trackpoint>
          <Trackpoint>
            <Time>2021-08-31T07:23:35.000Z</Time>
            <Position>
              <LatitudeDegrees>42.0478465966880321502685546875</LatitudeDegrees>
              <LongitudeDegrees>2.17320797033607959747314453125</LongitudeDegrees>
            </Position>
            <AltitudeMeters>861</AltitudeMeters>
            <DistanceMeters>66087.385772625</DistanceMeters>
          </Trackpoint>
          <Trackpoint>
            <Time>2021-08-31T07:23:36.000Z</Time>
            <Position>
              <LatitudeDegrees>42.0478063635528087615966796875</LatitudeDegrees>
              <LongitudeDegrees>2.17318818904459476470947265625</LongitudeDegrees>
            </Position>
            <AltitudeMeters>861.4000244140625</AltitudeMeters>
            <DistanceMeters>66092.152288369</DistanceMeters>
          </Trackpoint>
          <Trackpoint>
            <Time>2021-08-31T07:23:39.000Z</Time>
            <Position>
              <LatitudeDegrees>42.04769697971642017364501953125</LatitudeDegrees>
              <LongitudeDegrees>2.1731141768395900726318359375</LongitudeDegrees>
            </Position>
            <AltitudeMeters>862.20001220703125</AltitudeMeters>
            <DistanceMeters>66105.777276866</DistanceMeters>
          </Trackpoint>
          <Trackpoint>
            <Time>2021-08-31T07:23:40.000Z</Time>
            <Position>
              <LatitudeDegrees>42.04766311682760715484619140625</LatitudeDegrees>
              <LongitudeDegrees>2.173090539872646331787109375</LongitudeDegrees>
            </Position>
            <AltitudeMeters>862.4000244140625</AltitudeMeters>
            <DistanceMeters>66110.021685247</DistanceMeters>
          </Trackpoint>
          <Trackpoint>
            <Time>2021-08-31T07:23:42.000Z</Time>
            <Position>
              <LatitudeDegrees>42.0476031862199306488037109375</LatitudeDegrees>
              <LongitudeDegrees>2.1730171144008636474609375</LongitudeDegrees>
            </Position>
            <AltitudeMeters>862.79998779296875</AltitudeMeters>
            <DistanceMeters>66119.039715434</DistanceMeters>
          </Trackpoint>
          <Trackpoint>
            <Time>2021-08-31T07:23:43.000Z</Time>
            <Position>
              <LatitudeDegrees>42.0475817285478115081787109375</LatitudeDegrees>
              <LongitudeDegrees>2.17297126539051532745361328125</LongitudeDegrees>
            </Position>
            <AltitudeMeters>862.79998779296875</AltitudeMeters>
            <DistanceMeters>66123.519093723</DistanceMeters>
          </Trackpoint>
          <Trackpoint>
            <Time>2021-08-31T07:23:47.000Z</Time>
            <Position>
              <LatitudeDegrees>42.0475592650473117828369140625</LatitudeDegrees>
              <LongitudeDegrees>2.1727628074586391448974609375</LongitudeDegrees>
            </Position>
            <AltitudeMeters>861.5999755859375</AltitudeMeters>
            <DistanceMeters>66140.928703593</DistanceMeters>
          </Trackpoint>
          <Trackpoint>
            <Time>2021-08-31T07:23:53.000Z</Time>
            <Position>
              <LatitudeDegrees>42.04758482985198497772216796875</LatitudeDegrees>
              <LongitudeDegrees>2.1724748052656650543212890625</LongitudeDegrees>
            </Position>
            <AltitudeMeters>858.5999755859375</AltitudeMeters>
            <DistanceMeters>66164.901817392</DistanceMeters>
          </Trackpoint>
          <Trackpoint>
            <Time>2021-08-31T07:23:58.000Z</Time>
            <Position>
              <LatitudeDegrees>42.0475257374346256256103515625</LatitudeDegrees>
              <LongitudeDegrees>2.1722592227160930633544921875</LongitudeDegrees>
            </Position>
            <AltitudeMeters>857.79998779296875</AltitudeMeters>
            <DistanceMeters>66183.895040495</DistanceMeters>
          </Trackpoint>
          <Trackpoint>
            <Time>2021-08-31T07:24:02.000Z</Time>
            <Position>
              <LatitudeDegrees>42.04744719900190830230712890625</LatitudeDegrees>
              <LongitudeDegrees>2.1721117012202739715576171875</LongitudeDegrees>
            </Position>
            <AltitudeMeters>857.79998779296875</AltitudeMeters>
            <DistanceMeters>66198.897829751</DistanceMeters>
          </Trackpoint>
          <Trackpoint>
            <Time>2021-08-31T07:24:09.000Z</Time>
            <Position>
              <LatitudeDegrees>42.0472447760403156280517578125</LatitudeDegrees>
              <LongitudeDegrees>2.17184876091778278350830078125</LongitudeDegrees>
            </Position>
            <AltitudeMeters>856.79998779296875</AltitudeMeters>
            <DistanceMeters>66230.201308398</DistanceMeters>
          </Trackpoint>
          <Trackpoint>
            <Time>2021-08-31T07:24:14.000Z</Time>
            <Position>
              <LatitudeDegrees>42.047067247331142425537109375</LatitudeDegrees>
              <LongitudeDegrees>2.1717529557645320892333984375</LongitudeDegrees>
            </Position>
            <AltitudeMeters>856.79998779296875</AltitudeMeters>
            <DistanceMeters>66251.488140853</DistanceMeters>
          </Trackpoint>
          <Trackpoint>
            <Time>2021-08-31T07:24:17.000Z</Time>
            <Position>
              <LatitudeDegrees>42.04698686487972736358642578125</LatitudeDegrees>
              <LongitudeDegrees>2.17174314893782138824462890625</LongitudeDegrees>
            </Position>
            <AltitudeMeters>857.20001220703125</AltitudeMeters>
            <DistanceMeters>66260.47105592</DistanceMeters>
          </Trackpoint>
          <Trackpoint>
            <Time>2021-08-31T07:24:18.000Z</Time>
            <Position>
              <LatitudeDegrees>42.04696255736052989959716796875</LatitudeDegrees>
              <LongitudeDegrees>2.17173342593014240264892578125</LongitudeDegrees>
            </Position>
            <AltitudeMeters>857.20001220703125</AltitudeMeters>
            <DistanceMeters>66263.293205353</DistanceMeters>
          </Trackpoint>
          <Trackpoint>
            <Time>2021-08-31T07:24:19.000Z</Time>
            <Position>
              <LatitudeDegrees>42.0469443686306476593017578125</LatitudeDegrees>
              <LongitudeDegrees>2.1717449091374874114990234375</LongitudeDegrees>
            </Position>
            <AltitudeMeters>857.4000244140625</AltitudeMeters>
            <DistanceMeters>66265.529868571</DistanceMeters>
          </Trackpoint>
          <Trackpoint>
            <Time>2021-08-31T07:24:21.000Z</Time>
            <Position>
              <LatitudeDegrees>42.0469604618847370147705078125</LatitudeDegrees>
              <LongitudeDegrees>2.1717962063848972320556640625</LongitudeDegrees>
            </Position>
            <AltitudeMeters>857.79998779296875</AltitudeMeters>
            <DistanceMeters>66270.133518146</DistanceMeters>
          </Trackpoint>
          <Trackpoint>
            <Time>2021-08-31T07:24:24.000Z</Time>
            <Position>
              <LatitudeDegrees>42.04707588069140911102294921875</LatitudeDegrees>
              <LongitudeDegrees>2.17180064879357814788818359375</LongitudeDegrees>
            </Position>
            <AltitudeMeters>857.20001220703125</AltitudeMeters>
            <DistanceMeters>66282.985683657</DistanceMeters>
          </Trackpoint>
          <Trackpoint>
            <Time>2021-08-31T07:24:27.000Z</Time>
            <Position>
              <LatitudeDegrees>42.0472306944429874420166015625</LatitudeDegrees>
              <LongitudeDegrees>2.1718827076256275177001953125</LongitudeDegrees>
            </Position>
            <AltitudeMeters>857.20001220703125</AltitudeMeters>
            <DistanceMeters>66301.503462219</DistanceMeters>
          </Trackpoint>
          <Trackpoint>
            <Time>2021-08-31T07:24:28.000Z</Time>
            <Position>
              <LatitudeDegrees>42.047285847365856170654296875</LatitudeDegrees>
              <LongitudeDegrees>2.17192956246435642242431640625</LongitudeDegrees>
            </Position>
            <AltitudeMeters>857.4000244140625</AltitudeMeters>
            <DistanceMeters>66308.761662132</DistanceMeters>
          </Trackpoint>
          <Trackpoint>
            <Time>2021-08-31T07:24:29.000Z</Time>
            <Position>
              <LatitudeDegrees>42.0473356358706951141357421875</LatitudeDegrees>
              <LongitudeDegrees>2.17198781669139862060546875</LongitudeDegrees>
            </Position>
            <AltitudeMeters>857.5999755859375</AltitudeMeters>
            <DistanceMeters>66316.102744901</DistanceMeters>
          </Trackpoint>
          <Trackpoint>
            <Time>2021-08-31T07:24:32.000Z</Time>
            <Position>
              <LatitudeDegrees>42.0474779605865478515625</LatitudeDegrees>
              <LongitudeDegrees>2.17220901511609554290771484375</LongitudeDegrees>
            </Position>
            <AltitudeMeters>858.20001220703125</AltitudeMeters>
            <DistanceMeters>66340.293343775</DistanceMeters>
          </Trackpoint>
          <Trackpoint>
            <Time>2021-08-31T07:24:34.000Z</Time>
            <Position>
              <LatitudeDegrees>42.0475505478680133819580078125</LatitudeDegrees>
              <LongitudeDegrees>2.17240196652710437774658203125</LongitudeDegrees>
            </Position>
            <AltitudeMeters>858.5999755859375</AltitudeMeters>
            <DistanceMeters>66358.170998141</DistanceMeters>
          </Trackpoint>
          <Trackpoint>
            <Time>2021-08-31T07:24:35.000Z</Time>
            <Position>
              <LatitudeDegrees>42.0475602708756923675537109375</LatitudeDegrees>
              <LongitudeDegrees>2.17251344583928585052490234375</LongitudeDegrees>
            </Position>
            <AltitudeMeters>859.4000244140625</AltitudeMeters>
            <DistanceMeters>66367.448156035</DistanceMeters>
          </Trackpoint>
          <Trackpoint>
            <Time>2021-08-31T07:24:36.000Z</Time>
            <Position>
              <LatitudeDegrees>42.047556750476360321044921875</LatitudeDegrees>
              <LongitudeDegrees>2.1726307086646556854248046875</LongitudeDegrees>
            </Position>
            <AltitudeMeters>860.5999755859375</AltitudeMeters>
            <DistanceMeters>66377.14740015</DistanceMeters>
          </Trackpoint>
          <Trackpoint>
            <Time>2021-08-31T07:24:38.000Z</Time>
            <Position>
              <LatitudeDegrees>42.04754711128771305084228515625</LatitudeDegrees>
              <LongitudeDegrees>2.17285928316414356231689453125</LongitudeDegrees>
            </Position>
            <AltitudeMeters>862.4000244140625</AltitudeMeters>
            <DistanceMeters>66396.069650573</DistanceMeters>
          </Trackpoint>
          <Trackpoint>
            <Time>2021-08-31T07:24:40.000Z</Time>
            <Position>
              <LatitudeDegrees>42.04762070439755916595458984375</LatitudeDegrees>
              <LongitudeDegrees>2.17307151295244693756103515625</LongitudeDegrees>
            </Position>
            <AltitudeMeters>863</AltitudeMeters>
            <DistanceMeters>66415.428996965</DistanceMeters>
          </Trackpoint>
          <Trackpoint>
            <Time>2021-08-31T07:24:42.000Z</Time>
            <Position>
              <LatitudeDegrees>42.04776889644563198089599609375</LatitudeDegrees>
              <LongitudeDegrees>2.173197828233242034912109375</LongitudeDegrees>
            </Position>
            <AltitudeMeters>861.79998779296875</AltitudeMeters>
            <DistanceMeters>66434.949528868</DistanceMeters>
          </Trackpoint>
          <Trackpoint>
            <Time>2021-08-31T07:24:45.000Z</Time>
            <Position>
              <LatitudeDegrees>42.0480216108262538909912109375</LatitudeDegrees>
              <LongitudeDegrees>2.17334040440618991851806640625</LongitudeDegrees>
            </Position>
            <AltitudeMeters>860</AltitudeMeters>
            <DistanceMeters>66465.445850501</DistanceMeters>
          </Trackpoint>
          <Trackpoint>
            <Time>2021-08-31T07:24:46.000Z</Time>
            <Position>
              <LatitudeDegrees>42.0481111295521259307861328125</LatitudeDegrees>
              <LongitudeDegrees>2.1733666397631168365478515625</LongitudeDegrees>
            </Position>
            <AltitudeMeters>859</AltitudeMeters>
            <DistanceMeters>66475.642531342</DistanceMeters>
          </Trackpoint>
          <Trackpoint>
            <Time>2021-08-31T07:24:47.000Z</Time>
            <Position>
              <LatitudeDegrees>42.0482053421437740325927734375</LatitudeDegrees>
              <LongitudeDegrees>2.17336873523890972137451171875</LongitudeDegrees>
            </Position>
            <AltitudeMeters>857.79998779296875</AltitudeMeters>
            <DistanceMeters>66486.129968164</DistanceMeters>
          </Trackpoint>
          <Trackpoint>
            <Time>2021-08-31T07:24:49.000Z</Time>
            <Position>
              <LatitudeDegrees>42.0483941026031970977783203125</LatitudeDegrees>
              <LongitudeDegrees>2.173287682235240936279296875</LongitudeDegrees>
            </Position>
            <AltitudeMeters>855.20001220703125</AltitudeMeters>
            <DistanceMeters>66508.181490027</DistanceMeters>
          </Trackpoint>
          <Trackpoint>
            <Time>2021-08-31T07:24:51.000Z</Time>
            <Position>
              <LatitudeDegrees>42.048513628542423248291015625</LatitudeDegrees>
              <LongitudeDegrees>2.17307754792273044586181640625</LongitudeDegrees>
            </Position>
            <AltitudeMeters>852</AltitudeMeters>
            <DistanceMeters>66530.058695326</DistanceMeters>
          </Trackpoint>
          <Trackpoint>
            <Time>2021-08-31T07:24:53.000Z</Time>
            <Position>
              <LatitudeDegrees>42.048585377633571624755859375</LatitudeDegrees>
              <LongitudeDegrees>2.17283137142658233642578125</LongitudeDegrees>
            </Position>
            <AltitudeMeters>848.79998779296875</AltitudeMeters>
            <DistanceMeters>66551.916285642</DistanceMeters>
          </Trackpoint>
          <Trackpoint>
            <Time>2021-08-31T07:24:54.000Z</Time>
            <Position>
              <LatitudeDegrees>42.0486469008028507232666015625</LatitudeDegrees>
              <LongitudeDegrees>2.17273355461657047271728515625</LongitudeDegrees>
            </Position>
            <AltitudeMeters>847.4000244140625</AltitudeMeters>
            <DistanceMeters>66562.510805461</DistanceMeters>
          </Trackpoint>
          <Trackpoint>
            <Time>2021-08-31T07:24:55.000Z</Time>
            <Position>
              <LatitudeDegrees>42.04872996546328067779541015625</LatitudeDegrees>
              <LongitudeDegrees>2.17267974279820919036865234375</LongitudeDegrees>
            </Position>
            <AltitudeMeters>846.4000244140625</AltitudeMeters>
            <DistanceMeters>66572.770170501</DistanceMeters>
          </Trackpoint>
          <Trackpoint>
            <Time>2021-08-31T07:24:56.000Z</Time>
            <Position>
              <LatitudeDegrees>42.04883071593940258026123046875</LatitudeDegrees>
              <LongitudeDegrees>2.17268058098852634429931640625</LongitudeDegrees>
            </Position>
            <AltitudeMeters>845.79998779296875</AltitudeMeters>
            <DistanceMeters>66583.984128079</DistanceMeters>
          </Trackpoint>
          <Trackpoint>
            <Time>2021-08-31T07:24:59.000Z</Time>
            <Position>
              <LatitudeDegrees>42.04912961460649967193603515625</LatitudeDegrees>
              <LongitudeDegrees>2.1727903001010417938232421875</LongitudeDegrees>
            </Position>
            <AltitudeMeters>845.4000244140625</AltitudeMeters>
            <DistanceMeters>66618.466126652</DistanceMeters>
          </Trackpoint>
          <Trackpoint>
            <Time>2021-08-31T07:25:00.000Z</Time>
            <Position>
              <LatitudeDegrees>42.0492242462933063507080078125</LatitudeDegrees>
              <LongitudeDegrees>2.172853834927082061767578125</LongitudeDegrees>
            </Position>
            <AltitudeMeters>846</AltitudeMeters>
            <DistanceMeters>66630.235636949</DistanceMeters>
          </Trackpoint>
          <Trackpoint>
            <Time>2021-08-31T07:25:01.000Z</Time>
            <Position>
              <LatitudeDegrees>42.04931996762752532958984375</LatitudeDegrees>
              <LongitudeDegrees>2.1729073114693164825439453125</LongitudeDegrees>
            </Position>
            <AltitudeMeters>846.79998779296875</AltitudeMeters>
            <DistanceMeters>66641.769938673</DistanceMeters>
          </Trackpoint>
          <Trackpoint>
            <Time>2021-08-31T07:25:02.000Z</Time>
            <Position>
              <LatitudeDegrees>42.0494177006185054779052734375</LatitudeDegrees>
              <LongitudeDegrees>2.17291745357215404510498046875</LongitudeDegrees>
            </Position>
            <AltitudeMeters>847</AltitudeMeters>
            <DistanceMeters>66652.680230497</DistanceMeters>
          </Trackpoint>
          <Trackpoint>
            <Time>2021-08-31T07:25:03.000Z</Time>
            <Position>
              <LatitudeDegrees>42.049509398639202117919921875</LatitudeDegrees>
              <LongitudeDegrees>2.17287562787532806396484375</LongitudeDegrees>
            </Position>
            <AltitudeMeters>846.5999755859375</AltitudeMeters>
            <DistanceMeters>66663.455606264</DistanceMeters>
          </Trackpoint>
          <Trackpoint>
            <Time>2021-08-31T07:25:04.000Z</Time>
            <Position>
              <LatitudeDegrees>42.0495819859206676483154296875</LatitudeDegrees>
              <LongitudeDegrees>2.172790803015232086181640625</LongitudeDegrees>
            </Position>
            <AltitudeMeters>846.5999755859375</AltitudeMeters>
            <DistanceMeters>66674.152339345</DistanceMeters>
          </Trackpoint>
          <Trackpoint>
            <Time>2021-08-31T07:25:05.000Z</Time>
            <Position>
              <LatitudeDegrees>42.04963403753936290740966796875</LatitudeDegrees>
              <LongitudeDegrees>2.1726816706359386444091796875</LongitudeDegrees>
            </Position>
            <AltitudeMeters>846.4000244140625</AltitudeMeters>
            <DistanceMeters>66684.872262518</DistanceMeters>
          </Trackpoint>
          <Trackpoint>
            <Time>2021-08-31T07:25:07.000Z</Time>
            <Position>
              <LatitudeDegrees>42.04972271807491779327392578125</LatitudeDegrees>
              <LongitudeDegrees>2.172434739768505096435546875</LongitudeDegrees>
            </Position>
            <AltitudeMeters>845.79998779296875</AltitudeMeters>
            <DistanceMeters>66707.542458166</DistanceMeters>
          </Trackpoint>
          <Trackpoint>
            <Time>2021-08-31T07:25:08.000Z</Time>
            <Position>
              <LatitudeDegrees>42.04977183602750301361083984375</LatitudeDegrees>
              <LongitudeDegrees>2.172310352325439453125</LongitudeDegrees>
            </Position>
            <AltitudeMeters>845.20001220703125</AltitudeMeters>
            <DistanceMeters>66719.186236236</DistanceMeters>
          </Trackpoint>
          <Trackpoint>
            <Time>2021-08-31T07:25:11.000Z</Time>
            <Position>
              <LatitudeDegrees>42.04994584433734416961669921875</LatitudeDegrees>
              <LongitudeDegrees>2.17194599099457263946533203125</LongitudeDegrees>
            </Position>
            <AltitudeMeters>840.20001220703125</AltitudeMeters>
            <DistanceMeters>66754.990632647</DistanceMeters>
          </Trackpoint>
          <Trackpoint>
            <Time>2021-08-31T07:25:17.000Z</Time>
            <Position>
              <LatitudeDegrees>42.0503098703920841217041015625</LatitudeDegrees>
              <LongitudeDegrees>2.17123185284435749053955078125</LongitudeDegrees>
            </Position>
            <AltitudeMeters>831.4000244140625</AltitudeMeters>
            <DistanceMeters>66826.581390484</DistanceMeters>
          </Trackpoint>
          <Trackpoint>
            <Time>2021-08-31T07:25:19.000Z</Time>
            <Position>
              <LatitudeDegrees>42.05043300054967403411865234375</LatitudeDegrees>
              <LongitudeDegrees>2.170999757945537567138671875</LongitudeDegrees>
            </Position>
            <AltitudeMeters>829.20001220703125</AltitudeMeters>
            <DistanceMeters>66850.156252411</DistanceMeters>
          </Trackpoint>
          <Trackpoint>
            <Time>2021-08-31T07:25:21.000Z</Time>
            <Position>
              <LatitudeDegrees>42.05056853592395782470703125</LatitudeDegrees>
              <LongitudeDegrees>2.17077839188277721405029296875</LongitudeDegrees>
            </Position>
            <AltitudeMeters>827</AltitudeMeters>
            <DistanceMeters>66873.868797614</DistanceMeters>
          </Trackpoint>
          <Trackpoint>
            <Time>2021-08-31T07:25:22.000Z</Time>
            <Position>
              <LatitudeDegrees>42.05066434107720851898193359375</LatitudeDegrees>
              <LongitudeDegrees>2.1707065589725971221923828125</LongitudeDegrees>
            </Position>
            <AltitudeMeters>825.4000244140625</AltitudeMeters>
            <DistanceMeters>66886.073350492</DistanceMeters>
          </Trackpoint>
          <Trackpoint>
            <Time>2021-08-31T07:25:23.000Z</Time>
            <Position>
              <LatitudeDegrees>42.0507712103426456451416015625</LatitudeDegrees>
              <LongitudeDegrees>2.1706934832036495208740234375</LongitudeDegrees>
            </Position>
            <AltitudeMeters>824.79998779296875</AltitudeMeters>
            <DistanceMeters>66898.017267256</DistanceMeters>
          </Trackpoint>
          <Trackpoint>
            <Time>2021-08-31T07:25:24.000Z</Time>
            <Position>
              <LatitudeDegrees>42.0508791692554950714111328125</LatitudeDegrees>
              <LongitudeDegrees>2.170724160969257354736328125</LongitudeDegrees>
            </Position>
            <AltitudeMeters>824.20001220703125</AltitudeMeters>
            <DistanceMeters>66910.298160414</DistanceMeters>
          </Trackpoint>
          <Trackpoint>
            <Time>2021-08-31T07:25:26.000Z</Time>
            <Position>
              <LatitudeDegrees>42.0510806702077388763427734375</LatitudeDegrees>
              <LongitudeDegrees>2.17084796167910099029541015625</LongitudeDegrees>
            </Position>
            <AltitudeMeters>823.4000244140625</AltitudeMeters>
            <DistanceMeters>66934.949123158</DistanceMeters>
          </Trackpoint>
          <Trackpoint>
            <Time>2021-08-31T07:25:27.000Z</Time>
            <Position>
              <LatitudeDegrees>42.05116524361073970794677734375</LatitudeDegrees>
              <LongitudeDegrees>2.17094519175589084625244140625</LongitudeDegrees>
            </Position>
            <AltitudeMeters>823</AltitudeMeters>
            <DistanceMeters>66947.325600311</DistanceMeters>
          </Trackpoint>
          <Trackpoint>
            <Time>2021-08-31T07:25:28.000Z</Time>
            <Position>
              <LatitudeDegrees>42.05122894607484340667724609375</LatitudeDegrees>
              <LongitudeDegrees>2.17106807045638561248779296875</LongitudeDegrees>
            </Position>
            <AltitudeMeters>823.20001220703125</AltitudeMeters>
            <DistanceMeters>66959.711194307</DistanceMeters>
          </Trackpoint>
          <Trackpoint>
            <Time>2021-08-31T07:25:29.000Z</Time>
            <Position>
              <LatitudeDegrees>42.0512791536748409271240234375</LatitudeDegrees>
              <LongitudeDegrees>2.17120285145938396453857421875</LongitudeDegrees>
            </Position>
            <AltitudeMeters>823.5999755859375</AltitudeMeters>
            <DistanceMeters>66972.173106467</DistanceMeters>
          </Trackpoint>
          <Trackpoint>
            <Time>2021-08-31T07:25:30.000Z</Time>
            <Position>
              <LatitudeDegrees>42.05133640207350254058837890625</LatitudeDegrees>
              <LongitudeDegrees>2.17132103629410266876220703125</LongitudeDegrees>
            </Position>
            <AltitudeMeters>823.79998779296875</AltitudeMeters>
            <DistanceMeters>66983.835482357</DistanceMeters>
          </Trackpoint>
          <Trackpoint>
            <Time>2021-08-31T07:25:31.000Z</Time>
            <Position>
              <LatitudeDegrees>42.0514114201068878173828125</LatitudeDegrees>
              <LongitudeDegrees>2.1713978983461856842041015625</LongitudeDegrees>
            </Position>
            <AltitudeMeters>823.4000244140625</AltitudeMeters>
            <DistanceMeters>66994.327223483</DistanceMeters>
          </Trackpoint>
          <Trackpoint>
            <Time>2021-08-31T07:25:32.000Z</Time>
            <Position>
              <LatitudeDegrees>42.0514974184334278106689453125</LatitudeDegrees>
              <LongitudeDegrees>2.17142228968441486358642578125</LongitudeDegrees>
            </Position>
            <AltitudeMeters>822.79998779296875</AltitudeMeters>
            <DistanceMeters>67004.108976393</DistanceMeters>
          </Trackpoint>
          <Trackpoint>
            <Time>2021-08-31T07:25:33.000Z</Time>
            <Position>
              <LatitudeDegrees>42.05157930962741374969482421875</LatitudeDegrees>
              <LongitudeDegrees>2.17138876207172870635986328125</LongitudeDegrees>
            </Position>
            <AltitudeMeters>821.79998779296875</AltitudeMeters>
            <DistanceMeters>67013.635374887</DistanceMeters>
          </Trackpoint>
          <Trackpoint>
            <Time>2021-08-31T07:25:34.000Z</Time>
            <Position>
              <LatitudeDegrees>42.051645778119564056396484375</LatitudeDegrees>
              <LongitudeDegrees>2.1713010035455226898193359375</LongitudeDegrees>
            </Position>
            <AltitudeMeters>821.79998779296875</AltitudeMeters>
            <DistanceMeters>67023.995901837</DistanceMeters>
          </Trackpoint>
          <Trackpoint>
            <Time>2021-08-31T07:25:35.000Z</Time>
            <Position>
              <LatitudeDegrees>42.05168492160737514495849609375</LatitudeDegrees>
              <LongitudeDegrees>2.1711880154907703399658203125</LongitudeDegrees>
            </Position>
            <AltitudeMeters>821.5999755859375</AltitudeMeters>
            <DistanceMeters>67034.300496391</DistanceMeters>
          </Trackpoint>
          <Trackpoint>
            <Time>2021-08-31T07:25:36.000Z</Time>
            <Position>
              <LatitudeDegrees>42.05170034430921077728271484375</LatitudeDegrees>
              <LongitudeDegrees>2.171059437096118927001953125</LongitudeDegrees>
            </Position>
            <AltitudeMeters>821</AltitudeMeters>
            <DistanceMeters>67045.064972269</DistanceMeters>
          </Trackpoint>
          <Trackpoint>
            <Time>2021-08-31T07:25:38.000Z</Time>
            <Position>
              <LatitudeDegrees>42.051680982112884521484375</LatitudeDegrees>
              <LongitudeDegrees>2.17079423367977142333984375</LongitudeDegrees>
            </Position>
            <AltitudeMeters>818.5999755859375</AltitudeMeters>
            <DistanceMeters>67067.088835603</DistanceMeters>
          </Trackpoint>
          <Trackpoint>
            <Time>2021-08-31T07:25:42.000Z</Time>
            <Position>
              <LatitudeDegrees>42.051533795893192291259765625</LatitudeDegrees>
              <LongitudeDegrees>2.17029173858463764190673828125</LongitudeDegrees>
            </Position>
            <AltitudeMeters>815.20001220703125</AltitudeMeters>
            <DistanceMeters>67111.732584239</DistanceMeters>
          </Trackpoint>
          <Trackpoint>
            <Time>2021-08-31T07:25:48.000Z</Time>
            <Position>
              <LatitudeDegrees>42.05126264132559299468994140625</LatitudeDegrees>
              <LongitudeDegrees>2.16963627375662326812744140625</LongitudeDegrees>
            </Position>
            <AltitudeMeters>810.4000244140625</AltitudeMeters>
            <DistanceMeters>67173.744196003</DistanceMeters>
          </Trackpoint>
          <Trackpoint>
            <Time>2021-08-31T07:25:52.000Z</Time>
            <Position>
              <LatitudeDegrees>42.05114655196666717529296875</LatitudeDegrees>
              <LongitudeDegrees>2.16919940896332263946533203125</LongitudeDegrees>
            </Position>
            <AltitudeMeters>807.79998779296875</AltitudeMeters>
            <DistanceMeters>67212.09215565</DistanceMeters>
          </Trackpoint>
          <Trackpoint>
            <Time>2021-08-31T07:25:54.000Z</Time>
            <Position>
              <LatitudeDegrees>42.0511460490524768829345703125</LatitudeDegrees>
              <LongitudeDegrees>2.16897225938737392425537109375</LongitudeDegrees>
            </Position>
            <AltitudeMeters>806.4000244140625</AltitudeMeters>
            <DistanceMeters>67230.8656445</DistanceMeters>
          </Trackpoint>
          <Trackpoint>
            <Time>2021-08-31T07:25:55.000Z</Time>
            <Position>
              <LatitudeDegrees>42.051171697676181793212890625</LatitudeDegrees>
              <LongitudeDegrees>2.16886664740741252899169921875</LongitudeDegrees>
            </Position>
            <AltitudeMeters>805.79998779296875</AltitudeMeters>
            <DistanceMeters>67240.048883793</DistanceMeters>
          </Trackpoint>
          <Trackpoint>
            <Time>2021-08-31T07:25:56.000Z</Time>
            <Position>
              <LatitudeDegrees>42.05121000297367572784423828125</LatitudeDegrees>
              <LongitudeDegrees>2.1687683276832103729248046875</LongitudeDegrees>
            </Position>
            <AltitudeMeters>805.20001220703125</AltitudeMeters>
            <DistanceMeters>67249.225237254</DistanceMeters>
          </Trackpoint>
          <Trackpoint>
            <Time>2021-08-31T07:25:58.000Z</Time>
            <Position>
              <LatitudeDegrees>42.051337324082851409912109375</LatitudeDegrees>
              <LongitudeDegrees>2.16862977482378482818603515625</LongitudeDegrees>
            </Position>
            <AltitudeMeters>805.20001220703125</AltitudeMeters>
            <DistanceMeters>67267.444611833</DistanceMeters>
          </Trackpoint>
          <Trackpoint>
            <Time>2021-08-31T07:26:00.000Z</Time>
            <Position>
              <LatitudeDegrees>42.05149599350988864898681640625</LatitudeDegrees>
              <LongitudeDegrees>2.1686801500618457794189453125</LongitudeDegrees>
            </Position>
            <AltitudeMeters>806.4000244140625</AltitudeMeters>
            <DistanceMeters>67285.588991872</DistanceMeters>
          </Trackpoint>
          <Trackpoint>
            <Time>2021-08-31T07:26:02.000Z</Time>
            <Position>
              <LatitudeDegrees>42.05159607343375682830810546875</LatitudeDegrees>
              <LongitudeDegrees>2.16886782087385654449462890625</LongitudeDegrees>
            </Position>
            <AltitudeMeters>807.79998779296875</AltitudeMeters>
            <DistanceMeters>67304.68486962</DistanceMeters>
          </Trackpoint>
          <Trackpoint>
            <Time>2021-08-31T07:26:03.000Z</Time>
            <Position>
              <LatitudeDegrees>42.051630355417728424072265625</LatitudeDegrees>
              <LongitudeDegrees>2.168970666825771331787109375</LongitudeDegrees>
            </Position>
            <AltitudeMeters>808.5999755859375</AltitudeMeters>
            <DistanceMeters>67314.002334669</DistanceMeters>
          </Trackpoint>
          <Trackpoint>
            <Time>2021-08-31T07:26:04.000Z</Time>
            <Position>
              <LatitudeDegrees>42.05166949890553951263427734375</LatitudeDegrees>
              <LongitudeDegrees>2.16906680725514888763427734375</LongitudeDegrees>
            </Position>
            <AltitudeMeters>809.4000244140625</AltitudeMeters>
            <DistanceMeters>67323.063818273</DistanceMeters>
          </Trackpoint>
          <Trackpoint>
            <Time>2021-08-31T07:26:06.000Z</Time>
            <Position>
              <LatitudeDegrees>42.05180545337498188018798828125</LatitudeDegrees>
              <LongitudeDegrees>2.16918893158435821533203125</LongitudeDegrees>
            </Position>
            <AltitudeMeters>810.5999755859375</AltitudeMeters>
            <DistanceMeters>67341.253430718</DistanceMeters>
          </Trackpoint>
          <Trackpoint>
            <Time>2021-08-31T07:26:08.000Z</Time>
            <Position>
              <LatitudeDegrees>42.05196286551654338836669921875</LatitudeDegrees>
              <LongitudeDegrees>2.1691730059683322906494140625</LongitudeDegrees>
            </Position>
            <AltitudeMeters>811.79998779296875</AltitudeMeters>
            <DistanceMeters>67358.823096715</DistanceMeters>
          </Trackpoint>
          <Trackpoint>
            <Time>2021-08-31T07:26:10.000Z</Time>
            <Position>
              <LatitudeDegrees>42.052086330950260162353515625</LatitudeDegrees>
              <LongitudeDegrees>2.16901903040707111358642578125</LongitudeDegrees>
            </Position>
            <AltitudeMeters>812.20001220703125</AltitudeMeters>
            <DistanceMeters>67377.552281148</DistanceMeters>
          </Trackpoint>
          <Trackpoint>
            <Time>2021-08-31T07:26:12.000Z</Time>
            <Position>
              <LatitudeDegrees>42.05211524851620197296142578125</LatitudeDegrees>
              <LongitudeDegrees>2.16879841871559619903564453125</LongitudeDegrees>
            </Position>
            <AltitudeMeters>811.20001220703125</AltitudeMeters>
            <DistanceMeters>67396.06664589</DistanceMeters>
          </Trackpoint>
          <Trackpoint>
            <Time>2021-08-31T07:26:17.000Z</Time>
            <Position>
              <LatitudeDegrees>42.0520409010350704193115234375</LatitudeDegrees>
              <LongitudeDegrees>2.16824336908757686614990234375</LongitudeDegrees>
            </Position>
            <AltitudeMeters>810.79998779296875</AltitudeMeters>
            <DistanceMeters>67442.679549828</DistanceMeters>
          </Trackpoint>
          <Trackpoint>
            <Time>2021-08-31T07:26:24.000Z</Time>
            <Position>
              <LatitudeDegrees>42.05193688161671161651611328125</LatitudeDegrees>
              <LongitudeDegrees>2.167475335299968719482421875</LongitudeDegrees>
            </Position>
            <AltitudeMeters>805.79998779296875</AltitudeMeters>
            <DistanceMeters>67507.201639245</DistanceMeters>
          </Trackpoint>
          <Trackpoint>
            <Time>2021-08-31T07:26:25.000Z</Time>
            <Position>
              <LatitudeDegrees>42.05192933790385723114013671875</LatitudeDegrees>
              <LongitudeDegrees>2.1673625148832798004150390625</LongitudeDegrees>
            </Position>
            <AltitudeMeters>805.20001220703125</AltitudeMeters>
            <DistanceMeters>67516.563579319</DistanceMeters>
          </Trackpoint>
          <Trackpoint>
            <Time>2021-08-31T07:26:27.000Z</Time>
            <Position>
              <LatitudeDegrees>42.05194811336696147918701171875</LatitudeDegrees>
              <LongitudeDegrees>2.16714114882051944732666015625</LongitudeDegrees>
            </Position>
            <AltitudeMeters>804.5999755859375</AltitudeMeters>
            <DistanceMeters>67534.977687239</DistanceMeters>
          </Trackpoint>
          <Trackpoint>
            <Time>2021-08-31T07:26:28.000Z</Time>
            <Position>
              <LatitudeDegrees>42.05197879113256931304931640625</LatitudeDegrees>
              <LongitudeDegrees>2.16703779995441436767578125</LongitudeDegrees>
            </Position>
            <AltitudeMeters>804.5999755859375</AltitudeMeters>
            <DistanceMeters>67544.176155387</DistanceMeters>
          </Trackpoint>
          <Trackpoint>
            <Time>2021-08-31T07:26:29.000Z</Time>
            <Position>
              <LatitudeDegrees>42.0520217902958393096923828125</LatitudeDegrees>
              <LongitudeDegrees>2.16694258153438568115234375</LongitudeDegrees>
            </Position>
            <AltitudeMeters>804.4000244140625</AltitudeMeters>
            <DistanceMeters>67553.386396324</DistanceMeters>
          </Trackpoint>
          <Trackpoint>
            <Time>2021-08-31T07:26:32.000Z</Time>
            <Position>
              <LatitudeDegrees>42.05217408947646617889404296875</LatitudeDegrees>
              <LongitudeDegrees>2.166684083640575408935546875</LongitudeDegrees>
            </Position>
            <AltitudeMeters>803.5999755859375</AltitudeMeters>
            <DistanceMeters>67580.658235577</DistanceMeters>
          </Trackpoint>
          <Trackpoint>
            <Time>2021-08-31T07:26:39.000Z</Time>
            <Position>
              <LatitudeDegrees>42.05253057181835174560546875</LatitudeDegrees>
              <LongitudeDegrees>2.16609542258083820343017578125</LongitudeDegrees>
            </Position>
            <AltitudeMeters>802</AltitudeMeters>
            <DistanceMeters>67643.436597164</DistanceMeters>
          </Trackpoint>
          <Trackpoint>
            <Time>2021-08-31T07:26:41.000Z</Time>
            <Position>
              <LatitudeDegrees>42.05264548771083354949951171875</LatitudeDegrees>
              <LongitudeDegrees>2.16593817807734012603759765625</LongitudeDegrees>
            </Position>
            <AltitudeMeters>801.20001220703125</AltitudeMeters>
            <DistanceMeters>67661.670586979</DistanceMeters>
          </Trackpoint>
          <Trackpoint>
            <Time>2021-08-31T07:26:43.000Z</Time>
            <Position>
              <LatitudeDegrees>42.0527919195592403411865234375</LatitudeDegrees>
              <LongitudeDegrees>2.16582770459353923797607421875</LongitudeDegrees>
            </Position>
            <AltitudeMeters>801.20001220703125</AltitudeMeters>
            <DistanceMeters>67680.351736953</DistanceMeters>
          </Trackpoint>
          <Trackpoint>
            <Time>2021-08-31T07:26:44.000Z</Time>
            <Position>
              <LatitudeDegrees>42.05287230201065540313720703125</LatitudeDegrees>
              <LongitudeDegrees>2.16580037958920001983642578125</LongitudeDegrees>
            </Position>
            <AltitudeMeters>801.4000244140625</AltitudeMeters>
            <DistanceMeters>67689.578630293</DistanceMeters>
          </Trackpoint>
          <Trackpoint>
            <Time>2021-08-31T07:26:45.000Z</Time>
            <Position>
              <LatitudeDegrees>42.0529582165181636810302734375</LatitudeDegrees>
              <LongitudeDegrees>2.1657863818109035491943359375</LongitudeDegrees>
            </Position>
            <AltitudeMeters>801.5999755859375</AltitudeMeters>
            <DistanceMeters>67699.210139796</DistanceMeters>
          </Trackpoint>
          <Trackpoint>
            <Time>2021-08-31T07:26:47.000Z</Time>
            <Position>
              <LatitudeDegrees>42.0531332306563854217529296875</LatitudeDegrees>
              <LongitudeDegrees>2.16579618863761425018310546875</LongitudeDegrees>
            </Position>
            <AltitudeMeters>802.5999755859375</AltitudeMeters>
            <DistanceMeters>67718.706601984</DistanceMeters>
          </Trackpoint>
          <Trackpoint>
            <Time>2021-08-31T07:26:48.000Z</Time>
            <Position>
              <LatitudeDegrees>42.053218893706798553466796875</LatitudeDegrees>
              <LongitudeDegrees>2.1658234298229217529296875</LongitudeDegrees>
            </Position>
            <AltitudeMeters>803.20001220703125</AltitudeMeters>
            <DistanceMeters>67728.503114243</DistanceMeters>
          </Trackpoint>
          <Trackpoint>
            <Time>2021-08-31T07:26:49.000Z</Time>
            <Position>
              <LatitudeDegrees>42.05329726450145244598388671875</LatitudeDegrees>
              <LongitudeDegrees>2.1658671833574771881103515625</LongitudeDegrees>
            </Position>
            <AltitudeMeters>803.5999755859375</AltitudeMeters>
            <DistanceMeters>67737.946207216</DistanceMeters>
          </Trackpoint>
          <Trackpoint>
            <Time>2021-08-31T07:26:51.000Z</Time>
            <Position>
              <LatitudeDegrees>42.053438164293766021728515625</LatitudeDegrees>
              <LongitudeDegrees>2.16599215753376483917236328125</LongitudeDegrees>
            </Position>
            <AltitudeMeters>804.79998779296875</AltitudeMeters>
            <DistanceMeters>67756.724505465</DistanceMeters>
          </Trackpoint>
          <Trackpoint>
            <Time>2021-08-31T07:26:55.000Z</Time>
            <Position>
              <LatitudeDegrees>42.053701020777225494384765625</LatitudeDegrees>
              <LongitudeDegrees>2.16623925603926181793212890625</LongitudeDegrees>
            </Position>
            <AltitudeMeters>806.79998779296875</AltitudeMeters>
            <DistanceMeters>67792.40295577</DistanceMeters>
          </Trackpoint>
          <Trackpoint>
            <Time>2021-08-31T07:26:56.000Z</Time>
            <Position>
              <LatitudeDegrees>42.05377402715384960174560546875</LatitudeDegrees>
              <LongitudeDegrees>2.166256606578826904296875</LongitudeDegrees>
            </Position>
            <AltitudeMeters>807.20001220703125</AltitudeMeters>
            <DistanceMeters>67800.654426935</DistanceMeters>
          </Trackpoint>
          <Trackpoint>
            <Time>2021-08-31T07:26:57.000Z</Time>
            <Position>
              <LatitudeDegrees>42.05384644679725170135498046875</LatitudeDegrees>
              <LongitudeDegrees>2.16623087413609027862548828125</LongitudeDegrees>
            </Position>
            <AltitudeMeters>807.20001220703125</AltitudeMeters>
            <DistanceMeters>67808.990821138</DistanceMeters>
          </Trackpoint>
          <Trackpoint>
            <Time>2021-08-31T07:26:58.000Z</Time>
            <Position>
              <LatitudeDegrees>42.053907550871372222900390625</LatitudeDegrees>
              <LongitudeDegrees>2.16616834513843059539794921875</LongitudeDegrees>
            </Position>
            <AltitudeMeters>806.79998779296875</AltitudeMeters>
            <DistanceMeters>67817.532131786</DistanceMeters>
          </Trackpoint>
          <Trackpoint>
            <Time>2021-08-31T07:26:59.000Z</Time>
            <Position>
              <LatitudeDegrees>42.05395339988172054290771484375</LatitudeDegrees>
              <LongitudeDegrees>2.16608653776347637176513671875</LongitudeDegrees>
            </Position>
            <AltitudeMeters>806.5999755859375</AltitudeMeters>
            <DistanceMeters>67826.002845299</DistanceMeters>
          </Trackpoint>
          <Trackpoint>
            <Time>2021-08-31T07:27:01.000Z</Time>
            <Position>
              <LatitudeDegrees>42.0540183596312999725341796875</LatitudeDegrees>
              <LongitudeDegrees>2.16590456664562225341796875</LongitudeDegrees>
            </Position>
            <AltitudeMeters>805.5999755859375</AltitudeMeters>
            <DistanceMeters>67842.689709511</DistanceMeters>
          </Trackpoint>
          <Trackpoint>
            <Time>2021-08-31T07:27:03.000Z</Time>
            <Position>
              <LatitudeDegrees>42.0540344528853893280029296875</LatitudeDegrees>
              <LongitudeDegrees>2.1657142974436283111572265625</LongitudeDegrees>
            </Position>
            <AltitudeMeters>804.5999755859375</AltitudeMeters>
            <DistanceMeters>67858.515866035</DistanceMeters>
          </Trackpoint>
          <Trackpoint>
            <Time>2021-08-31T07:27:04.000Z</Time>
            <Position>
              <LatitudeDegrees>42.0540220476686954498291015625</LatitudeDegrees>
              <LongitudeDegrees>2.16561882756650447845458984375</LongitudeDegrees>
            </Position>
            <AltitudeMeters>804.79998779296875</AltitudeMeters>
            <DistanceMeters>67866.526341877</DistanceMeters>
          </Trackpoint>
          <Trackpoint>
            <Time>2021-08-31T07:27:05.000Z</Time>
            <Position>
              <LatitudeDegrees>42.0539972372353076934814453125</LatitudeDegrees>
              <LongitudeDegrees>2.16552461497485637664794921875</LongitudeDegrees>
            </Position>
            <AltitudeMeters>805</AltitudeMeters>
            <DistanceMeters>67874.787656407</DistanceMeters>
          </Trackpoint>
          <Trackpoint>
            <Time>2021-08-31T07:27:08.000Z</Time>
            <Position>
              <LatitudeDegrees>42.05389581620693206787109375</LatitudeDegrees>
              <LongitudeDegrees>2.165276594460010528564453125</LongitudeDegrees>
            </Position>
            <AltitudeMeters>805</AltitudeMeters>
            <DistanceMeters>67898.187779813</DistanceMeters>
          </Trackpoint>
          <Trackpoint>
            <Time>2021-08-31T07:27:15.000Z</Time>
            <Position>
              <LatitudeDegrees>42.0536948181688785552978515625</LatitudeDegrees>
              <LongitudeDegrees>2.164689190685749053955078125</LongitudeDegrees>
            </Position>
            <AltitudeMeters>804.20001220703125</AltitudeMeters>
            <DistanceMeters>67951.639778718</DistanceMeters>
          </Trackpoint>
          <Trackpoint>
            <Time>2021-08-31T07:27:22.000Z</Time>
            <Position>
              <LatitudeDegrees>42.05349608324468135833740234375</LatitudeDegrees>
              <LongitudeDegrees>2.16414243914186954498291015625</LongitudeDegrees>
            </Position>
            <AltitudeMeters>803.20001220703125</AltitudeMeters>
            <DistanceMeters>68001.948863446</DistanceMeters>
          </Trackpoint>
          <Trackpoint>
            <Time>2021-08-31T07:27:28.000Z</Time>
            <Position>
              <LatitudeDegrees>42.05333313904702663421630859375</LatitudeDegrees>
              <LongitudeDegrees>2.1636637486517429351806640625</LongitudeDegrees>
            </Position>
            <AltitudeMeters>802.20001220703125</AltitudeMeters>
            <DistanceMeters>68045.46871252</DistanceMeters>
          </Trackpoint>
          <Trackpoint>
            <Time>2021-08-31T07:27:32.000Z</Time>
            <Position>
              <LatitudeDegrees>42.053234316408634185791015625</LatitudeDegrees>
              <LongitudeDegrees>2.16333257965743541717529296875</LongitudeDegrees>
            </Position>
            <AltitudeMeters>801.5999755859375</AltitudeMeters>
            <DistanceMeters>68074.96528631</DistanceMeters>
          </Trackpoint>
          <Trackpoint>
            <Time>2021-08-31T07:27:34.000Z</Time>
            <Position>
              <LatitudeDegrees>42.05322870053350925445556640625</LatitudeDegrees>
              <LongitudeDegrees>2.16315236873924732208251953125</LongitudeDegrees>
            </Position>
            <AltitudeMeters>801.4000244140625</AltitudeMeters>
            <DistanceMeters>68089.871764468</DistanceMeters>
          </Trackpoint>
          <Trackpoint>
            <Time>2021-08-31T07:27:36.000Z</Time>
            <Position>
              <LatitudeDegrees>42.053277902305126190185546875</LatitudeDegrees>
              <LongitudeDegrees>2.16297383420169353485107421875</LongitudeDegrees>
            </Position>
            <AltitudeMeters>800.79998779296875</AltitudeMeters>
            <DistanceMeters>68105.610093377</DistanceMeters>
          </Trackpoint>
          <Trackpoint>
            <Time>2021-08-31T07:27:37.000Z</Time>
            <Position>
              <LatitudeDegrees>42.05331603996455669403076171875</LatitudeDegrees>
              <LongitudeDegrees>2.16289755888283252716064453125</LongitudeDegrees>
            </Position>
            <AltitudeMeters>800.79998779296875</AltitudeMeters>
            <DistanceMeters>68113.209854487</DistanceMeters>
          </Trackpoint>
          <Trackpoint>
            <Time>2021-08-31T07:27:42.000Z</Time>
            <Position>
              <LatitudeDegrees>42.0535721071064472198486328125</LatitudeDegrees>
              <LongitudeDegrees>2.1625593490898609161376953125</LongitudeDegrees>
            </Position>
            <AltitudeMeters>801.5999755859375</AltitudeMeters>
            <DistanceMeters>68153.129105735</DistanceMeters>
          </Trackpoint>
          <Trackpoint>
            <Time>2021-08-31T07:27:49.000Z</Time>
            <Position>
              <LatitudeDegrees>42.05396278761327266693115234375</LatitudeDegrees>
              <LongitudeDegrees>2.16207663528621196746826171875</LongitudeDegrees>
            </Position>
            <AltitudeMeters>801.20001220703125</AltitudeMeters>
            <DistanceMeters>68212.140006755</DistanceMeters>
          </Trackpoint>
          <Trackpoint>
            <Time>2021-08-31T07:27:55.000Z</Time>
            <Position>
              <LatitudeDegrees>42.05424743704497814178466796875</LatitudeDegrees>
              <LongitudeDegrees>2.16158688068389892578125</LongitudeDegrees>
            </Position>
            <AltitudeMeters>797.79998779296875</AltitudeMeters>
            <DistanceMeters>68263.540061089</DistanceMeters>
          </Trackpoint>
          <Trackpoint>
            <Time>2021-08-31T07:27:59.000Z</Time>
            <Position>
              <LatitudeDegrees>42.05443250946700572967529296875</LatitudeDegrees>
              <LongitudeDegrees>2.16124682687222957611083984375</LongitudeDegrees>
            </Position>
            <AltitudeMeters>796.79998779296875</AltitudeMeters>
            <DistanceMeters>68298.383909583</DistanceMeters>
          </Trackpoint>
          <Trackpoint>
            <Time>2021-08-31T07:28:01.000Z</Time>
            <Position>
              <LatitudeDegrees>42.054562680423259735107421875</LatitudeDegrees>
              <LongitudeDegrees>2.1611079387366771697998046875</LongitudeDegrees>
            </Position>
            <AltitudeMeters>796.5999755859375</AltitudeMeters>
            <DistanceMeters>68316.868010112</DistanceMeters>
          </Trackpoint>
          <Trackpoint>
            <Time>2021-08-31T07:28:04.000Z</Time>
            <Position>
              <LatitudeDegrees>42.054776251316070556640625</LatitudeDegrees>
              <LongitudeDegrees>2.1609322540462017059326171875</LongitudeDegrees>
            </Position>
            <AltitudeMeters>796.4000244140625</AltitudeMeters>
            <DistanceMeters>68344.722024327</DistanceMeters>
          </Trackpoint>
          <Trackpoint>
            <Time>2021-08-31T07:28:05.000Z</Time>
            <Position>
              <LatitudeDegrees>42.05483450554311275482177734375</LatitudeDegrees>
              <LongitudeDegrees>2.16085036285221576690673828125</LongitudeDegrees>
            </Position>
            <AltitudeMeters>796</AltitudeMeters>
            <DistanceMeters>68354.094568467</DistanceMeters>
          </Trackpoint>
          <Trackpoint>
            <Time>2021-08-31T07:28:06.000Z</Time>
            <Position>
              <LatitudeDegrees>42.05487742088735103607177734375</LatitudeDegrees>
              <LongitudeDegrees>2.16075531207025051116943359375</LongitudeDegrees>
            </Position>
            <AltitudeMeters>795.79998779296875</AltitudeMeters>
            <DistanceMeters>68363.288617933</DistanceMeters>
          </Trackpoint>
          <Trackpoint>
            <Time>2021-08-31T07:28:08.000Z</Time>
            <Position>
              <LatitudeDegrees>42.05490692518651485443115234375</LatitudeDegrees>
              <LongitudeDegrees>2.16054190881550312042236328125</LongitudeDegrees>
            </Position>
            <AltitudeMeters>796</AltitudeMeters>
            <DistanceMeters>68381.228292525</DistanceMeters>
          </Trackpoint>
          <Trackpoint>
            <Time>2021-08-31T07:28:12.000Z</Time>
            <Position>
              <LatitudeDegrees>42.054833583533763885498046875</LatitudeDegrees>
              <LongitudeDegrees>2.16014376841485500335693359375</LongitudeDegrees>
            </Position>
            <AltitudeMeters>795.5999755859375</AltitudeMeters>
            <DistanceMeters>68415.12899796</DistanceMeters>
          </Trackpoint>
          <Trackpoint>
            <Time>2021-08-31T07:28:13.000Z</Time>
            <Position>
              <LatitudeDegrees>42.05480868928134441375732421875</LatitudeDegrees>
              <LongitudeDegrees>2.1600548364222049713134765625</LongitudeDegrees>
            </Position>
            <AltitudeMeters>795.5999755859375</AltitudeMeters>
            <DistanceMeters>68422.983517823</DistanceMeters>
          </Trackpoint>
          <Trackpoint>
            <Time>2021-08-31T07:28:15.000Z</Time>
            <Position>
              <LatitudeDegrees>42.0547754131257534027099609375</LatitudeDegrees>
              <LongitudeDegrees>2.15991125442087650299072265625</LongitudeDegrees>
            </Position>
            <AltitudeMeters>795.5999755859375</AltitudeMeters>
            <DistanceMeters>68435.413506075</DistanceMeters>
          </Trackpoint>
          <Trackpoint>
            <Time>2021-08-31T07:28:17.000Z</Time>
            <Position>
              <LatitudeDegrees>42.05477633513510227203369140625</LatitudeDegrees>
              <LongitudeDegrees>2.1598137728869915008544921875</LongitudeDegrees>
            </Position>
            <AltitudeMeters>796.20001220703125</AltitudeMeters>
            <DistanceMeters>68443.470067965</DistanceMeters>
          </Trackpoint>
          <Trackpoint>
            <Time>2021-08-31T07:28:18.000Z</Time>
            <Position>
              <LatitudeDegrees>42.05478689633309841156005859375</LatitudeDegrees>
              <LongitudeDegrees>2.15977949090301990509033203125</LongitudeDegrees>
            </Position>
            <AltitudeMeters>796.4000244140625</AltitudeMeters>
            <DistanceMeters>68446.537532659</DistanceMeters>
          </Trackpoint>
          <Trackpoint>
            <Time>2021-08-31T07:28:21.000Z</Time>
            <Position>
              <LatitudeDegrees>42.05479427240788936614990234375</LatitudeDegrees>
              <LongitudeDegrees>2.15977127663791179656982421875</LongitudeDegrees>
            </Position>
            <AltitudeMeters>796.4000244140625</AltitudeMeters>
            <DistanceMeters>68447.604204883</DistanceMeters>
          </Trackpoint>
          <Trackpoint>
            <Time>2021-08-31T07:28:27.000Z</Time>
            <Position>
              <LatitudeDegrees>42.0547626726329326629638671875</LatitudeDegrees>
              <LongitudeDegrees>2.15980849228799343109130859375</LongitudeDegrees>
            </Position>
            <AltitudeMeters>796.20001220703125</AltitudeMeters>
            <DistanceMeters>68452.276002691</DistanceMeters>
          </Trackpoint>
          <Trackpoint>
            <Time>2021-08-31T07:28:53.000Z</Time>
            <Position>
              <LatitudeDegrees>42.05477834679186344146728515625</LatitudeDegrees>
              <LongitudeDegrees>2.15980145148932933807373046875</LongitudeDegrees>
            </Position>
            <AltitudeMeters>796.4000244140625</AltitudeMeters>
            <DistanceMeters>68454.113731885</DistanceMeters>
          </Trackpoint>
          <Trackpoint>
            <Time>2021-08-31T07:28:55.000Z</Time>
            <Position>
              <LatitudeDegrees>42.05482310615479946136474609375</LatitudeDegrees>
              <LongitudeDegrees>2.15975828468799591064453125</LongitudeDegrees>
            </Position>
            <AltitudeMeters>796.20001220703125</AltitudeMeters>
            <DistanceMeters>68460.24056041</DistanceMeters>
          </Trackpoint>
          <Trackpoint>
            <Time>2021-08-31T07:29:00.000Z</Time>
            <Position>
              <LatitudeDegrees>42.05493458546698093414306640625</LatitudeDegrees>
              <LongitudeDegrees>2.15951797552406787872314453125</LongitudeDegrees>
            </Position>
            <AltitudeMeters>796</AltitudeMeters>
            <DistanceMeters>68483.657657202</DistanceMeters>
          </Trackpoint>
          <Trackpoint>
            <Time>2021-08-31T07:29:02.000Z</Time>
            <Position>
              <LatitudeDegrees>42.055009938776493072509765625</LatitudeDegrees>
              <LongitudeDegrees>2.15942946262657642364501953125</LongitudeDegrees>
            </Position>
            <AltitudeMeters>796.5999755859375</AltitudeMeters>
            <DistanceMeters>68494.786336298</DistanceMeters>
          </Trackpoint>
          <Trackpoint>
            <Time>2021-08-31T07:29:05.000Z</Time>
            <Position>
              <LatitudeDegrees>42.0551546104252338409423828125</LatitudeDegrees>
              <LongitudeDegrees>2.15932049788534641265869140625</LongitudeDegrees>
            </Position>
            <AltitudeMeters>797.20001220703125</AltitudeMeters>
            <DistanceMeters>68513.235473714</DistanceMeters>
          </Trackpoint>
          <Trackpoint>
            <Time>2021-08-31T07:29:07.000Z</Time>
            <Position>
              <LatitudeDegrees>42.05526374280452728271484375</LatitudeDegrees>
              <LongitudeDegrees>2.15926283039152622222900390625</LongitudeDegrees>
            </Position>
            <AltitudeMeters>797.20001220703125</AltitudeMeters>
            <DistanceMeters>68526.283579373</DistanceMeters>
          </Trackpoint>
          <Trackpoint>
            <Time>2021-08-31T07:29:10.000Z</Time>
            <Position>
              <LatitudeDegrees>42.05543934367597103118896484375</LatitudeDegrees>
              <LongitudeDegrees>2.1592142991721630096435546875</LongitudeDegrees>
            </Position>
            <AltitudeMeters>797.20001220703125</AltitudeMeters>
            <DistanceMeters>68546.235116401</DistanceMeters>
          </Trackpoint>
          <Trackpoint>
            <Time>2021-08-31T07:29:18.000Z</Time>
            <Position>
              <LatitudeDegrees>42.0559217222034931182861328125</LatitudeDegrees>
              <LongitudeDegrees>2.15915151871740818023681640625</LongitudeDegrees>
            </Position>
            <AltitudeMeters>797.4000244140625</AltitudeMeters>
            <DistanceMeters>68600.174978196</DistanceMeters>
          </Trackpoint>
          <Trackpoint>
            <Time>2021-08-31T07:29:26.000Z</Time>
            <Position>
              <LatitudeDegrees>42.056402005255222320556640625</LatitudeDegrees>
              <LongitudeDegrees>2.15908010490238666534423828125</LongitudeDegrees>
            </Position>
            <AltitudeMeters>796.5999755859375</AltitudeMeters>
            <DistanceMeters>68653.956320833</DistanceMeters>
          </Trackpoint>
          <Trackpoint>
            <Time>2021-08-31T07:29:29.000Z</Time>
            <Position>
              <LatitudeDegrees>42.056577689945697784423828125</LatitudeDegrees>
              <LongitudeDegrees>2.15899930335581302642822265625</LongitudeDegrees>
            </Position>
            <AltitudeMeters>796.20001220703125</AltitudeMeters>
            <DistanceMeters>68674.619333063</DistanceMeters>
          </Trackpoint>
          <Trackpoint>
            <Time>2021-08-31T07:29:31.000Z</Time>
            <Position>
              <LatitudeDegrees>42.05668405629694461822509765625</LatitudeDegrees>
              <LongitudeDegrees>2.1589098684489727020263671875</LongitudeDegrees>
            </Position>
            <AltitudeMeters>796.20001220703125</AltitudeMeters>
            <DistanceMeters>68688.575648798</DistanceMeters>
          </Trackpoint>
          <Trackpoint>
            <Time>2021-08-31T07:29:38.000Z</Time>
            <Position>
              <LatitudeDegrees>42.0570331625640392303466796875</LatitudeDegrees>
              <LongitudeDegrees>2.1585568226873874664306640625</LongitudeDegrees>
            </Position>
            <AltitudeMeters>795.20001220703125</AltitudeMeters>
            <DistanceMeters>68737.165996062</DistanceMeters>
          </Trackpoint>
          <Trackpoint>
            <Time>2021-08-31T07:29:45.000Z</Time>
            <Position>
              <LatitudeDegrees>42.057444714009761810302734375</LatitudeDegrees>
              <LongitudeDegrees>2.1582542359828948974609375</LongitudeDegrees>
            </Position>
            <AltitudeMeters>793</AltitudeMeters>
            <DistanceMeters>68789.353227985</DistanceMeters>
          </Trackpoint>
          <Trackpoint>
            <Time>2021-08-31T07:29:52.000Z</Time>
            <Position>
              <LatitudeDegrees>42.0578592829406261444091796875</LatitudeDegrees>
              <LongitudeDegrees>2.15794871561229228973388671875</LongitudeDegrees>
            </Position>
            <AltitudeMeters>793.20001220703125</AltitudeMeters>
            <DistanceMeters>68841.951351339</DistanceMeters>
          </Trackpoint>
          <Trackpoint>
            <Time>2021-08-31T07:30:00.000Z</Time>
            <Position>
              <LatitudeDegrees>42.05835121683776378631591796875</LatitudeDegrees>
              <LongitudeDegrees>2.15758913196623325347900390625</LongitudeDegrees>
            </Position>
            <AltitudeMeters>793</AltitudeMeters>
            <DistanceMeters>68904.248302579</DistanceMeters>
          </Trackpoint>
          <Trackpoint>
            <Time>2021-08-31T07:30:06.000Z</Time>
            <Position>
              <LatitudeDegrees>42.05871817655861377716064453125</LatitudeDegrees>
              <LongitudeDegrees>2.1573075838387012481689453125</LongitudeDegrees>
            </Position>
            <AltitudeMeters>793.5999755859375</AltitudeMeters>
            <DistanceMeters>68951.253591265</DistanceMeters>
          </Trackpoint>
          <Trackpoint>
            <Time>2021-08-31T07:30:07.000Z</Time>
            <Position>
              <LatitudeDegrees>42.05876846797764301300048828125</LatitudeDegrees>
              <LongitudeDegrees>2.157243378460407257080078125</LongitudeDegrees>
            </Position>
            <AltitudeMeters>793.4000244140625</AltitudeMeters>
            <DistanceMeters>68958.96599125</DistanceMeters>
          </Trackpoint>
          <Trackpoint>
            <Time>2021-08-31T07:30:08.000Z</Time>
            <Position>
              <LatitudeDegrees>42.05881138332188129425048828125</LatitudeDegrees>
              <LongitudeDegrees>2.15717397630214691162109375</LongitudeDegrees>
            </Position>
            <AltitudeMeters>793.4000244140625</AltitudeMeters>
            <DistanceMeters>68966.430277664</DistanceMeters>
          </Trackpoint>
          <Trackpoint>
            <Time>2021-08-31T07:30:10.000Z</Time>
            <Position>
              <LatitudeDegrees>42.05887123011052608489990234375</LatitudeDegrees>
              <LongitudeDegrees>2.15701597742736339569091796875</LongitudeDegrees>
            </Position>
            <AltitudeMeters>793.4000244140625</AltitudeMeters>
            <DistanceMeters>68981.087821072</DistanceMeters>
          </Trackpoint>
          <Trackpoint>
            <Time>2021-08-31T07:30:14.000Z</Time>
            <Position>
              <LatitudeDegrees>42.05893225036561489105224609375</LatitudeDegrees>
              <LongitudeDegrees>2.1566529572010040283203125</LongitudeDegrees>
            </Position>
            <AltitudeMeters>793</AltitudeMeters>
            <DistanceMeters>69011.845959001</DistanceMeters>
          </Trackpoint>
          <Trackpoint>
            <Time>2021-08-31T07:30:18.000Z</Time>
            <Position>
              <LatitudeDegrees>42.0590042509138584136962890625</LatitudeDegrees>
              <LongitudeDegrees>2.1562953852117061614990234375</LongitudeDegrees>
            </Position>
            <AltitudeMeters>793.5999755859375</AltitudeMeters>
            <DistanceMeters>69042.461967804</DistanceMeters>
          </Trackpoint>
          <Trackpoint>
            <Time>2021-08-31T07:30:19.000Z</Time>
            <Position>
              <LatitudeDegrees>42.05901749432086944580078125</LatitudeDegrees>
              <LongitudeDegrees>2.15620460920035839080810546875</LongitudeDegrees>
            </Position>
            <AltitudeMeters>793.5999755859375</AltitudeMeters>
            <DistanceMeters>69050.106747379</DistanceMeters>
          </Trackpoint>
          <Trackpoint>
            <Time>2021-08-31T07:30:21.000Z</Time>
            <Position>
              <LatitudeDegrees>42.05904389731585979461669921875</LatitudeDegrees>
              <LongitudeDegrees>2.156033702194690704345703125</LongitudeDegrees>
            </Position>
            <AltitudeMeters>793.79998779296875</AltitudeMeters>
            <DistanceMeters>69064.532353489</DistanceMeters>
          </Trackpoint>
          <Trackpoint>
            <Time>2021-08-31T07:30:23.000Z</Time>
            <Position>
              <LatitudeDegrees>42.05904808826744556427001953125</LatitudeDegrees>
              <LongitudeDegrees>2.1558628790080547332763671875</LongitudeDegrees>
            </Position>
            <AltitudeMeters>793.79998779296875</AltitudeMeters>
            <DistanceMeters>69078.65589372</DistanceMeters>
          </Trackpoint>
          <Trackpoint>
            <Time>2021-08-31T07:30:24.000Z</Time>
            <Position>
              <LatitudeDegrees>42.05903685651719570159912109375</LatitudeDegrees>
              <LongitudeDegrees>2.1557780541479587554931640625</LongitudeDegrees>
            </Position>
            <AltitudeMeters>793.79998779296875</AltitudeMeters>
            <DistanceMeters>69085.775925262</DistanceMeters>
          </Trackpoint>
          <Trackpoint>
            <Time>2021-08-31T07:30:25.000Z</Time>
            <Position>
              <LatitudeDegrees>42.05901489593088626861572265625</LatitudeDegrees>
              <LongitudeDegrees>2.15569783933460712432861328125</LongitudeDegrees>
            </Position>
            <AltitudeMeters>794.5999755859375</AltitudeMeters>
            <DistanceMeters>69092.841211001</DistanceMeters>
          </Trackpoint>
          <Trackpoint>
            <Time>2021-08-31T07:30:27.000Z</Time>
            <Position>
              <LatitudeDegrees>42.0589546300470829010009765625</LatitudeDegrees>
              <LongitudeDegrees>2.15555836446583271026611328125</LongitudeDegrees>
            </Position>
            <AltitudeMeters>796.4000244140625</AltitudeMeters>
            <DistanceMeters>69106.17681468</DistanceMeters>
          </Trackpoint>
          <Trackpoint>
            <Time>2021-08-31T07:30:28.000Z</Time>
            <Position>
              <LatitudeDegrees>42.05891548655927181243896484375</LatitudeDegrees>
              <LongitudeDegrees>2.155500948429107666015625</LongitudeDegrees>
            </Position>
            <AltitudeMeters>797</AltitudeMeters>
            <DistanceMeters>69112.619037227</DistanceMeters>
          </Trackpoint>
          <Trackpoint>
            <Time>2021-08-31T07:30:29.000Z</Time>
            <Position>
              <LatitudeDegrees>42.05887055955827236175537109375</LatitudeDegrees>
              <LongitudeDegrees>2.15545241720974445343017578125</LongitudeDegrees>
            </Position>
            <AltitudeMeters>797.20001220703125</AltitudeMeters>
            <DistanceMeters>69119.028939552</DistanceMeters>
          </Trackpoint>
          <Trackpoint>
            <Time>2021-08-31T07:30:32.000Z</Time>
            <Position>
              <LatitudeDegrees>42.05871985293924808502197265625</LatitudeDegrees>
              <LongitudeDegrees>2.15535988099873065948486328125</LongitudeDegrees>
            </Position>
            <AltitudeMeters>797.4000244140625</AltitudeMeters>
            <DistanceMeters>69137.463632305</DistanceMeters>
          </Trackpoint>
          <Trackpoint>
            <Time>2021-08-31T07:30:33.000Z</Time>
            <Position>
              <LatitudeDegrees>42.0586632750928401947021484375</LatitudeDegrees>
              <LongitudeDegrees>2.15534294955432415008544921875</LongitudeDegrees>
            </Position>
            <AltitudeMeters>797.20001220703125</AltitudeMeters>
            <DistanceMeters>69143.914259581</DistanceMeters>
          </Trackpoint>
          <Trackpoint>
            <Time>2021-08-31T07:30:37.000Z</Time>
            <Position>
              <LatitudeDegrees>42.05843956209719181060791015625</LatitudeDegrees>
              <LongitudeDegrees>2.15529869310557842254638671875</LongitudeDegrees>
            </Position>
            <AltitudeMeters>796.5999755859375</AltitudeMeters>
            <DistanceMeters>69169.081094141</DistanceMeters>
          </Trackpoint>
          <Trackpoint>
            <Time>2021-08-31T07:30:43.000Z</Time>
            <Position>
              <LatitudeDegrees>42.05810713581740856170654296875</LatitudeDegrees>
              <LongitudeDegrees>2.155208587646484375</LongitudeDegrees>
            </Position>
            <AltitudeMeters>796</AltitudeMeters>
            <DistanceMeters>69206.822494332</DistanceMeters>
          </Trackpoint>
          <Trackpoint>
            <Time>2021-08-31T07:30:44.000Z</Time>
            <Position>
              <LatitudeDegrees>42.05805265344679355621337890625</LatitudeDegrees>
              <LongitudeDegrees>2.15517950244247913360595703125</LongitudeDegrees>
            </Position>
            <AltitudeMeters>796.20001220703125</AltitudeMeters>
            <DistanceMeters>69213.345508988</DistanceMeters>
          </Trackpoint>
          <Trackpoint>
            <Time>2021-08-31T07:30:50.000Z</Time>
            <Position>
              <LatitudeDegrees>42.057773284614086151123046875</LatitudeDegrees>
              <LongitudeDegrees>2.15493307448923587799072265625</LongitudeDegrees>
            </Position>
            <AltitudeMeters>797.79998779296875</AltitudeMeters>
            <DistanceMeters>69250.514926196</DistanceMeters>
          </Trackpoint>
          <Trackpoint>
            <Time>2021-08-31T07:30:58.000Z</Time>
            <Position>
              <LatitudeDegrees>42.05744010396301746368408203125</LatitudeDegrees>
              <LongitudeDegrees>2.154585309326648712158203125</LongitudeDegrees>
            </Position>
            <AltitudeMeters>798.20001220703125</AltitudeMeters>
            <DistanceMeters>69297.430992246</DistanceMeters>
          </Trackpoint>
          <Trackpoint>
            <Time>2021-08-31T07:31:00.000Z</Time>
            <Position>
              <LatitudeDegrees>42.0573848672211170196533203125</LatitudeDegrees>
              <LongitudeDegrees>2.15447701513767242431640625</LongitudeDegrees>
            </Position>
            <AltitudeMeters>799</AltitudeMeters>
            <DistanceMeters>69308.289015917</DistanceMeters>
          </Trackpoint>
          <Trackpoint>
            <Time>2021-08-31T07:31:02.000Z</Time>
            <Position>
              <LatitudeDegrees>42.05734379589557647705078125</LatitudeDegrees>
              <LongitudeDegrees>2.1543779410421848297119140625</LongitudeDegrees>
            </Position>
            <AltitudeMeters>799.79998779296875</AltitudeMeters>
            <DistanceMeters>69317.666376122</DistanceMeters>
          </Trackpoint>
          <Trackpoint>
            <Time>2021-08-31T07:31:08.000Z</Time>
            <Position>
              <LatitudeDegrees>42.057211361825466156005859375</LatitudeDegrees>
              <LongitudeDegrees>2.15423083864152431488037109375</LongitudeDegrees>
            </Position>
            <AltitudeMeters>801.4000244140625</AltitudeMeters>
            <DistanceMeters>69336.772654418</DistanceMeters>
          </Trackpoint>
          <Trackpoint>
            <Time>2021-08-31T07:31:11.000Z</Time>
            <Position>
              <LatitudeDegrees>42.05720205791294574737548828125</LatitudeDegrees>
              <LongitudeDegrees>2.15421759523451328277587890625</LongitudeDegrees>
            </Position>
            <AltitudeMeters>801.4000244140625</AltitudeMeters>
            <DistanceMeters>69338.281156743</DistanceMeters>
          </Trackpoint>
          <Trackpoint>
            <Time>2021-08-31T07:31:38.000Z</Time>
            <Position>
              <LatitudeDegrees>42.05714757554233074188232421875</LatitudeDegrees>
              <LongitudeDegrees>2.15416713617742061614990234375</LongitudeDegrees>
            </Position>
            <AltitudeMeters>802</AltitudeMeters>
            <DistanceMeters>69345.640667495</DistanceMeters>
          </Trackpoint>
          <Trackpoint>
            <Time>2021-08-31T07:31:44.000Z</Time>
            <Position>
              <LatitudeDegrees>42.05694842152297496795654296875</LatitudeDegrees>
              <LongitudeDegrees>2.15394459664821624755859375</LongitudeDegrees>
            </Position>
            <AltitudeMeters>802</AltitudeMeters>
            <DistanceMeters>69374.442698718</DistanceMeters>
          </Trackpoint>
          <Trackpoint>
            <Time>2021-08-31T07:31:51.000Z</Time>
            <Position>
              <LatitudeDegrees>42.05665505491197109222412109375</LatitudeDegrees>
              <LongitudeDegrees>2.15359247289597988128662109375</LongitudeDegrees>
            </Position>
            <AltitudeMeters>800.4000244140625</AltitudeMeters>
            <DistanceMeters>69418.179873112</DistanceMeters>
          </Trackpoint>
          <Trackpoint>
            <Time>2021-08-31T07:31:57.000Z</Time>
            <Position>
              <LatitudeDegrees>42.0563458465039730072021484375</LatitudeDegrees>
              <LongitudeDegrees>2.15324713848531246185302734375</LongitudeDegrees>
            </Position>
            <AltitudeMeters>797.20001220703125</AltitudeMeters>
            <DistanceMeters>69462.888705142</DistanceMeters>
          </Trackpoint>
          <Trackpoint>
            <Time>2021-08-31T07:32:03.000Z</Time>
            <Position>
              <LatitudeDegrees>42.05600344575941562652587890625</LatitudeDegrees>
              <LongitudeDegrees>2.1528764069080352783203125</LongitudeDegrees>
            </Position>
            <AltitudeMeters>794.5999755859375</AltitudeMeters>
            <DistanceMeters>69511.786759921</DistanceMeters>
          </Trackpoint>
          <Trackpoint>
            <Time>2021-08-31T07:32:08.000Z</Time>
            <Position>
              <LatitudeDegrees>42.0557788945734500885009765625</LatitudeDegrees>
              <LongitudeDegrees>2.15265135280787944793701171875</LongitudeDegrees>
            </Position>
            <AltitudeMeters>793</AltitudeMeters>
            <DistanceMeters>69542.940598309</DistanceMeters>
          </Trackpoint>
          <Trackpoint>
            <Time>2021-08-31T07:32:13.000Z</Time>
            <Position>
              <LatitudeDegrees>42.05556758679449558258056640625</LatitudeDegrees>
              <LongitudeDegrees>2.1524365246295928955078125</LongitudeDegrees>
            </Position>
            <AltitudeMeters>790.5999755859375</AltitudeMeters>
            <DistanceMeters>69572.408227683</DistanceMeters>
          </Trackpoint>
          <Trackpoint>
            <Time>2021-08-31T07:32:18.000Z</Time>
            <Position>
              <LatitudeDegrees>42.05530171282589435577392578125</LatitudeDegrees>
              <LongitudeDegrees>2.15214542113244533538818359375</LongitudeDegrees>
            </Position>
            <AltitudeMeters>788</AltitudeMeters>
            <DistanceMeters>69610.545563099</DistanceMeters>
          </Trackpoint>
          <Trackpoint>
            <Time>2021-08-31T07:32:21.000Z</Time>
            <Position>
              <LatitudeDegrees>42.05514094792306423187255859375</LatitudeDegrees>
              <LongitudeDegrees>2.15197124518454074859619140625</LongitudeDegrees>
            </Position>
            <AltitudeMeters>786.4000244140625</AltitudeMeters>
            <DistanceMeters>69633.510199488</DistanceMeters>
          </Trackpoint>
          <Trackpoint>
            <Time>2021-08-31T07:32:22.000Z</Time>
            <Position>
              <LatitudeDegrees>42.055090405046939849853515625</LatitudeDegrees>
              <LongitudeDegrees>2.151939310133457183837890625</LongitudeDegrees>
            </Position>
            <AltitudeMeters>786</AltitudeMeters>
            <DistanceMeters>69639.724103806</DistanceMeters>
          </Trackpoint>
          <Trackpoint>
            <Time>2021-08-31T07:32:24.000Z</Time>
            <Position>
              <LatitudeDegrees>42.0549785904586315155029296875</LatitudeDegrees>
              <LongitudeDegrees>2.15193386189639568328857421875</LongitudeDegrees>
            </Position>
            <AltitudeMeters>785.20001220703125</AltitudeMeters>
            <DistanceMeters>69652.178042661</DistanceMeters>
          </Trackpoint>
          <Trackpoint>
            <Time>2021-08-31T07:32:25.000Z</Time>
            <Position>
              <LatitudeDegrees>42.05492201261222362518310546875</LatitudeDegrees>
              <LongitudeDegrees>2.1519421599805355072021484375</LongitudeDegrees>
            </Position>
            <AltitudeMeters>784.79998779296875</AltitudeMeters>
            <DistanceMeters>69658.512840189</DistanceMeters>
          </Trackpoint>
          <Trackpoint>
            <Time>2021-08-31T07:32:27.000Z</Time>
            <Position>
              <LatitudeDegrees>42.05480852164328098297119140625</LatitudeDegrees>
              <LongitudeDegrees>2.1519537270069122314453125</LongitudeDegrees>
            </Position>
            <AltitudeMeters>784.4000244140625</AltitudeMeters>
            <DistanceMeters>69671.181009692</DistanceMeters>
          </Trackpoint>
          <Trackpoint>
            <Time>2021-08-31T07:32:31.000Z</Time>
            <Position>
              <LatitudeDegrees>42.0545755885541439056396484375</LatitudeDegrees>
              <LongitudeDegrees>2.1519723348319530487060546875</LongitudeDegrees>
            </Position>
            <AltitudeMeters>783.5999755859375</AltitudeMeters>
            <DistanceMeters>69697.152699091</DistanceMeters>
          </Trackpoint>
          <Trackpoint>
            <Time>2021-08-31T07:32:32.000Z</Time>
            <Position>
              <LatitudeDegrees>42.0545165799558162689208984375</LatitudeDegrees>
              <LongitudeDegrees>2.15197828598320484161376953125</LongitudeDegrees>
            </Position>
            <AltitudeMeters>783.4000244140625</AltitudeMeters>
            <DistanceMeters>69703.739085599</DistanceMeters>
          </Trackpoint>
          <Trackpoint>
            <Time>2021-08-31T07:32:35.000Z</Time>
            <Position>
              <LatitudeDegrees>42.05433377064764499664306640625</LatitudeDegrees>
              <LongitudeDegrees>2.151971496641635894775390625</LongitudeDegrees>
            </Position>
            <AltitudeMeters>783</AltitudeMeters>
            <DistanceMeters>69724.093887671</DistanceMeters>
          </Trackpoint>
          <Trackpoint>
            <Time>2021-08-31T07:32:36.000Z</Time>
            <Position>
              <LatitudeDegrees>42.05427023582160472869873046875</LatitudeDegrees>
              <LongitudeDegrees>2.15195330791175365447998046875</LongitudeDegrees>
            </Position>
            <AltitudeMeters>782.79998779296875</AltitudeMeters>
            <DistanceMeters>69731.32341618</DistanceMeters>
          </Trackpoint>
          <Trackpoint>
            <Time>2021-08-31T07:32:39.000Z</Time>
            <Position>
              <LatitudeDegrees>42.05408298410475254058837890625</LatitudeDegrees>
              <LongitudeDegrees>2.1518573351204395294189453125</LongitudeDegrees>
            </Position>
            <AltitudeMeters>782.20001220703125</AltitudeMeters>
            <DistanceMeters>69753.623130969</DistanceMeters>
          </Trackpoint>
          <Trackpoint>
            <Time>2021-08-31T07:32:44.000Z</Time>
            <Position>
              <LatitudeDegrees>42.05373714677989482879638671875</LatitudeDegrees>
              <LongitudeDegrees>2.15174912475049495697021484375</LongitudeDegrees>
            </Position>
            <AltitudeMeters>780.79998779296875</AltitudeMeters>
            <DistanceMeters>69793.140764503</DistanceMeters>
          </Trackpoint>
          <Trackpoint>
            <Time>2021-08-31T07:32:47.000Z</Time>
            <Position>
              <LatitudeDegrees>42.05350765027105808258056640625</LatitudeDegrees>
              <LongitudeDegrees>2.15173780918121337890625</LongitudeDegrees>
            </Position>
            <AltitudeMeters>780.20001220703125</AltitudeMeters>
            <DistanceMeters>69818.701360953</DistanceMeters>
          </Trackpoint>
          <Trackpoint>
            <Time>2021-08-31T07:32:48.000Z</Time>
            <Position>
              <LatitudeDegrees>42.0534349791705608367919921875</LatitudeDegrees>
              <LongitudeDegrees>2.15175616554915904998779296875</LongitudeDegrees>
            </Position>
            <AltitudeMeters>780.20001220703125</AltitudeMeters>
            <DistanceMeters>69826.930915821</DistanceMeters>
          </Trackpoint>
          <Trackpoint>
            <Time>2021-08-31T07:32:49.000Z</Time>
            <Position>
              <LatitudeDegrees>42.0533659122884273529052734375</LatitudeDegrees>
              <LongitudeDegrees>2.1517889387905597686767578125</LongitudeDegrees>
            </Position>
            <AltitudeMeters>780.20001220703125</AltitudeMeters>
            <DistanceMeters>69835.081638022</DistanceMeters>
          </Trackpoint>
          <Trackpoint>
            <Time>2021-08-31T07:32:51.000Z</Time>
            <Position>
              <LatitudeDegrees>42.0532495714724063873291015625</LatitudeDegrees>
              <LongitudeDegrees>2.15186965651810169219970703125</LongitudeDegrees>
            </Position>
            <AltitudeMeters>780.20001220703125</AltitudeMeters>
            <DistanceMeters>69849.64802763</DistanceMeters>
          </Trackpoint>
          <Trackpoint>
            <Time>2021-08-31T07:32:54.000Z</Time>
            <Position>
              <LatitudeDegrees>42.053108923137187957763671875</LatitudeDegrees>
              <LongitudeDegrees>2.15197158046066761016845703125</LongitudeDegrees>
            </Position>
            <AltitudeMeters>781.4000244140625</AltitudeMeters>
            <DistanceMeters>69867.42488211</DistanceMeters>
          </Trackpoint>
          <Trackpoint>
            <Time>2021-08-31T07:32:55.000Z</Time>
            <Position>
              <LatitudeDegrees>42.053072713315486907958984375</LatitudeDegrees>
              <LongitudeDegrees>2.15200795792043209075927734375</LongitudeDegrees>
            </Position>
            <AltitudeMeters>781.79998779296875</AltitudeMeters>
            <DistanceMeters>69872.453223193</DistanceMeters>
          </Trackpoint>
          <Trackpoint>
            <Time>2021-08-31T07:32:56.000Z</Time>
            <Position>
              <LatitudeDegrees>42.05304128117859363555908203125</LatitudeDegrees>
              <LongitudeDegrees>2.15205238200724124908447265625</LongitudeDegrees>
            </Position>
            <AltitudeMeters>782.20001220703125</AltitudeMeters>
            <DistanceMeters>69877.524481194</DistanceMeters>
          </Trackpoint>
          <Trackpoint>
            <Time>2021-08-31T07:32:58.000Z</Time>
            <Position>
              <LatitudeDegrees>42.0529900677502155303955078125</LatitudeDegrees>
              <LongitudeDegrees>2.15214491821825504302978515625</LongitudeDegrees>
            </Position>
            <AltitudeMeters>782.79998779296875</AltitudeMeters>
            <DistanceMeters>69887.062721083</DistanceMeters>
          </Trackpoint>
          <Trackpoint>
            <Time>2021-08-31T07:33:00.000Z</Time>
            <Position>
              <LatitudeDegrees>42.05296718515455722808837890625</LatitudeDegrees>
              <LongitudeDegrees>2.15224415995180606842041015625</LongitudeDegrees>
            </Position>
            <AltitudeMeters>782.5999755859375</AltitudeMeters>
            <DistanceMeters>69895.650423588</DistanceMeters>
          </Trackpoint>
          <Trackpoint>
            <Time>2021-08-31T07:33:02.000Z</Time>
            <Position>
              <LatitudeDegrees>42.05293902195990085601806640625</LatitudeDegrees>
              <LongitudeDegrees>2.15231657959520816802978515625</LongitudeDegrees>
            </Position>
            <AltitudeMeters>782.20001220703125</AltitudeMeters>
            <DistanceMeters>69902.407350885</DistanceMeters>
          </Trackpoint>
          <Trackpoint>
            <Time>2021-08-31T07:33:03.000Z</Time>
            <Position>
              <LatitudeDegrees>42.05292209051549434661865234375</LatitudeDegrees>
              <LongitudeDegrees>2.152328230440616607666015625</LongitudeDegrees>
            </Position>
            <AltitudeMeters>782.20001220703125</AltitudeMeters>
            <DistanceMeters>69904.525828639</DistanceMeters>
          </Trackpoint>
          <Trackpoint>
            <Time>2021-08-31T07:33:05.000Z</Time>
            <Position>
              <LatitudeDegrees>42.0529142953455448150634765625</LatitudeDegrees>
              <LongitudeDegrees>2.15233501978218555450439453125</LongitudeDegrees>
            </Position>
            <AltitudeMeters>782.20001220703125</AltitudeMeters>
            <DistanceMeters>69905.562447709</DistanceMeters>
          </Trackpoint>
        </Track>
      </Lap>
    </Activity>
  </Activities>
</TrainingCenterDatabase>
